<?xml version="1.0" encoding="UTF-8"?>
<gpx creator="Garmin Connect" version="1.1"
  xsi:schemaLocation="http://www.topografix.com/GPX/1/1 http://www.topografix.com/GPX/11.xsd"
  xmlns:ns3="http://www.garmin.com/xmlschemas/TrackPointExtension/v1"
  xmlns="http://www.topografix.com/GPX/1/1"
  xmlns:xsi="http://www.w3.org/2001/XMLSchema-instance" xmlns:ns2="http://www.garmin.com/xmlschemas/GpxExtensions/v3">
  <metadata>
    <link href="connect.garmin.com">
      <text>Garmin Connect</text>
    </link>
    <time>2026-04-28T09:36:33.000Z</time>
  </metadata>
  <trk>
    <name>Vila do Bispo Hiking</name>
    <type>hiking</type>
    <trkseg>
      <trkpt lat="37.007278986275196075439453125" lon="-8.94070344977080821990966796875">
        <ele>31.6000003814697265625</ele>
        <time>2026-04-28T09:36:33.000Z</time>
        <extensions>
          <ns3:TrackPointExtension>
            <ns3:hr>103</ns3:hr>
            <ns3:cad>0</ns3:cad>
          </ns3:TrackPointExtension>
        </extensions>
      </trkpt>
      <trkpt lat="37.00727798044681549072265625" lon="-8.94070730544626712799072265625">
        <ele>31.6000003814697265625</ele>
        <time>2026-04-28T09:36:34.000Z</time>
        <extensions>
          <ns3:TrackPointExtension>
            <ns3:hr>103</ns3:hr>
            <ns3:cad>0</ns3:cad>
          </ns3:TrackPointExtension>
        </extensions>
      </trkpt>
      <trkpt lat="37.00727035291492938995361328125" lon="-8.94077754579484462738037109375">
        <ele>32.40000152587890625</ele>
        <time>2026-04-28T09:36:39.000Z</time>
        <extensions>
          <ns3:TrackPointExtension>
            <ns3:hr>105</ns3:hr>
            <ns3:cad>0</ns3:cad>
          </ns3:TrackPointExtension>
        </extensions>
      </trkpt>
      <trkpt lat="37.00727253220975399017333984375" lon="-8.9408414997160434722900390625">
        <ele>32.40000152587890625</ele>
        <time>2026-04-28T09:36:43.000Z</time>
        <extensions>
          <ns3:TrackPointExtension>
            <ns3:hr>100</ns3:hr>
            <ns3:cad>56</ns3:cad>
          </ns3:TrackPointExtension>
        </extensions>
      </trkpt>
      <trkpt lat="37.00728066265583038330078125" lon="-8.9409414120018482208251953125">
        <ele>32.59999847412109375</ele>
        <time>2026-04-28T09:36:50.000Z</time>
        <extensions>
          <ns3:TrackPointExtension>
            <ns3:hr>100</ns3:hr>
            <ns3:cad>56</ns3:cad>
          </ns3:TrackPointExtension>
        </extensions>
      </trkpt>
      <trkpt lat="37.00728611089289188385009765625" lon="-8.94096328876912593841552734375">
        <ele>32.799999237060546875</ele>
        <time>2026-04-28T09:36:52.000Z</time>
        <extensions>
          <ns3:TrackPointExtension>
            <ns3:hr>100</ns3:hr>
            <ns3:cad>56</ns3:cad>
          </ns3:TrackPointExtension>
        </extensions>
      </trkpt>
      <trkpt lat="37.00731695629656314849853515625" lon="-8.9411124028265476226806640625">
        <ele>33.200000762939453125</ele>
        <time>2026-04-28T09:37:02.000Z</time>
        <extensions>
          <ns3:TrackPointExtension>
            <ns3:hr>103</ns3:hr>
            <ns3:cad>0</ns3:cad>
          </ns3:TrackPointExtension>
        </extensions>
      </trkpt>
      <trkpt lat="37.00731913559138774871826171875" lon="-8.941170237958431243896484375">
        <ele>33.200000762939453125</ele>
        <time>2026-04-28T09:37:06.000Z</time>
        <extensions>
          <ns3:TrackPointExtension>
            <ns3:hr>106</ns3:hr>
            <ns3:cad>56</ns3:cad>
          </ns3:TrackPointExtension>
        </extensions>
      </trkpt>
      <trkpt lat="37.007317878305912017822265625" lon="-8.941254056990146636962890625">
        <ele>33.40000152587890625</ele>
        <time>2026-04-28T09:37:12.000Z</time>
        <extensions>
          <ns3:TrackPointExtension>
            <ns3:hr>103</ns3:hr>
            <ns3:cad>56</ns3:cad>
          </ns3:TrackPointExtension>
        </extensions>
      </trkpt>
      <trkpt lat="37.00726188719272613525390625" lon="-8.941362015902996063232421875">
        <ele>33.40000152587890625</ele>
        <time>2026-04-28T09:37:21.000Z</time>
        <extensions>
          <ns3:TrackPointExtension>
            <ns3:hr>103</ns3:hr>
            <ns3:cad>56</ns3:cad>
          </ns3:TrackPointExtension>
        </extensions>
      </trkpt>
      <trkpt lat="37.00716960243880748748779296875" lon="-8.94143066368997097015380859375">
        <ele>33.40000152587890625</ele>
        <time>2026-04-28T09:37:30.000Z</time>
        <extensions>
          <ns3:TrackPointExtension>
            <ns3:hr>103</ns3:hr>
            <ns3:cad>56</ns3:cad>
          </ns3:TrackPointExtension>
        </extensions>
      </trkpt>
      <trkpt lat="37.0071312971413135528564453125" lon="-8.94151330925524234771728515625">
        <ele>33.40000152587890625</ele>
        <time>2026-04-28T09:37:36.000Z</time>
        <extensions>
          <ns3:TrackPointExtension>
            <ns3:hr>102</ns3:hr>
            <ns3:cad>56</ns3:cad>
          </ns3:TrackPointExtension>
        </extensions>
      </trkpt>
      <trkpt lat="37.00713607482612133026123046875" lon="-8.9415284804999828338623046875">
        <ele>33.40000152587890625</ele>
        <time>2026-04-28T09:37:37.000Z</time>
        <extensions>
          <ns3:TrackPointExtension>
            <ns3:hr>102</ns3:hr>
            <ns3:cad>56</ns3:cad>
          </ns3:TrackPointExtension>
        </extensions>
      </trkpt>
      <trkpt lat="37.00715820305049419403076171875" lon="-8.94170039333403110504150390625">
        <ele>32.799999237060546875</ele>
        <time>2026-04-28T09:37:48.000Z</time>
        <extensions>
          <ns3:TrackPointExtension>
            <ns3:hr>103</ns3:hr>
            <ns3:cad>59</ns3:cad>
          </ns3:TrackPointExtension>
        </extensions>
      </trkpt>
      <trkpt lat="37.00718955136835575103759765625" lon="-8.94183534197509288787841796875">
        <ele>32.40000152587890625</ele>
        <time>2026-04-28T09:37:57.000Z</time>
        <extensions>
          <ns3:TrackPointExtension>
            <ns3:hr>104</ns3:hr>
            <ns3:cad>47</ns3:cad>
          </ns3:TrackPointExtension>
        </extensions>
      </trkpt>
      <trkpt lat="37.0072084106504917144775390625" lon="-8.9419056661427021026611328125">
        <ele>32.59999847412109375</ele>
        <time>2026-04-28T09:38:02.000Z</time>
        <extensions>
          <ns3:TrackPointExtension>
            <ns3:hr>101</ns3:hr>
            <ns3:cad>59</ns3:cad>
          </ns3:TrackPointExtension>
        </extensions>
      </trkpt>
      <trkpt lat="37.007235400378704071044921875" lon="-8.9419847913086414337158203125">
        <ele>32.59999847412109375</ele>
        <time>2026-04-28T09:38:07.000Z</time>
        <extensions>
          <ns3:TrackPointExtension>
            <ns3:hr>101</ns3:hr>
            <ns3:cad>60</ns3:cad>
          </ns3:TrackPointExtension>
        </extensions>
      </trkpt>
      <trkpt lat="37.00730253942310810089111328125" lon="-8.9420664310455322265625">
        <ele>32.59999847412109375</ele>
        <time>2026-04-28T09:38:15.000Z</time>
        <extensions>
          <ns3:TrackPointExtension>
            <ns3:hr>101</ns3:hr>
            <ns3:cad>58</ns3:cad>
          </ns3:TrackPointExtension>
        </extensions>
      </trkpt>
      <trkpt lat="37.0073468796908855438232421875" lon="-8.94212200306355953216552734375">
        <ele>32.59999847412109375</ele>
        <time>2026-04-28T09:38:20.000Z</time>
        <extensions>
          <ns3:TrackPointExtension>
            <ns3:hr>103</ns3:hr>
            <ns3:cad>60</ns3:cad>
          </ns3:TrackPointExtension>
        </extensions>
      </trkpt>
      <trkpt lat="37.00735132209956645965576171875" lon="-8.94215402193367481231689453125">
        <ele>32.59999847412109375</ele>
        <time>2026-04-28T09:38:22.000Z</time>
        <extensions>
          <ns3:TrackPointExtension>
            <ns3:hr>102</ns3:hr>
            <ns3:cad>60</ns3:cad>
          </ns3:TrackPointExtension>
        </extensions>
      </trkpt>
      <trkpt lat="37.00736037455499172210693359375" lon="-8.94223985262215137481689453125">
        <ele>33.200000762939453125</ele>
        <time>2026-04-28T09:38:27.000Z</time>
        <extensions>
          <ns3:TrackPointExtension>
            <ns3:hr>105</ns3:hr>
            <ns3:cad>59</ns3:cad>
          </ns3:TrackPointExtension>
        </extensions>
      </trkpt>
      <trkpt lat="37.00737630017101764678955078125" lon="-8.94235619343817234039306640625">
        <ele>33</ele>
        <time>2026-04-28T09:38:35.000Z</time>
        <extensions>
          <ns3:TrackPointExtension>
            <ns3:hr>104</ns3:hr>
            <ns3:cad>59</ns3:cad>
          </ns3:TrackPointExtension>
        </extensions>
      </trkpt>
      <trkpt lat="37.00738920830190181732177734375" lon="-8.9425490610301494598388671875">
        <ele>33</ele>
        <time>2026-04-28T09:38:47.000Z</time>
        <extensions>
          <ns3:TrackPointExtension>
            <ns3:hr>103</ns3:hr>
            <ns3:cad>61</ns3:cad>
          </ns3:TrackPointExtension>
        </extensions>
      </trkpt>
      <trkpt lat="37.0074022002518177032470703125" lon="-8.94272600300610065460205078125">
        <ele>32.200000762939453125</ele>
        <time>2026-04-28T09:38:58.000Z</time>
        <extensions>
          <ns3:TrackPointExtension>
            <ns3:hr>103</ns3:hr>
            <ns3:cad>60</ns3:cad>
          </ns3:TrackPointExtension>
        </extensions>
      </trkpt>
      <trkpt lat="37.007403038442134857177734375" lon="-8.942740000784397125244140625">
        <ele>32.200000762939453125</ele>
        <time>2026-04-28T09:38:59.000Z</time>
        <extensions>
          <ns3:TrackPointExtension>
            <ns3:hr>104</ns3:hr>
            <ns3:cad>59</ns3:cad>
          </ns3:TrackPointExtension>
        </extensions>
      </trkpt>
      <trkpt lat="37.00740940868854522705078125" lon="-8.9428367279469966888427734375">
        <ele>32.200000762939453125</ele>
        <time>2026-04-28T09:39:05.000Z</time>
        <extensions>
          <ns3:TrackPointExtension>
            <ns3:hr>107</ns3:hr>
            <ns3:cad>59</ns3:cad>
          </ns3:TrackPointExtension>
        </extensions>
      </trkpt>
      <trkpt lat="37.00741888023912906646728515625" lon="-8.9429182000458240509033203125">
        <ele>32.200000762939453125</ele>
        <time>2026-04-28T09:39:11.000Z</time>
        <extensions>
          <ns3:TrackPointExtension>
            <ns3:hr>108</ns3:hr>
            <ns3:cad>59</ns3:cad>
          </ns3:TrackPointExtension>
        </extensions>
      </trkpt>
      <trkpt lat="37.0074427686631679534912109375" lon="-8.9430749416351318359375">
        <ele>32.799999237060546875</ele>
        <time>2026-04-28T09:39:21.000Z</time>
        <extensions>
          <ns3:TrackPointExtension>
            <ns3:hr>107</ns3:hr>
            <ns3:cad>57</ns3:cad>
          </ns3:TrackPointExtension>
        </extensions>
      </trkpt>
      <trkpt lat="37.00745006091892719268798828125" lon="-8.94319362938404083251953125">
        <ele>33</ele>
        <time>2026-04-28T09:39:28.000Z</time>
        <extensions>
          <ns3:TrackPointExtension>
            <ns3:hr>110</ns3:hr>
            <ns3:cad>61</ns3:cad>
          </ns3:TrackPointExtension>
        </extensions>
      </trkpt>
      <trkpt lat="37.00745793990790843963623046875" lon="-8.94324467517435550689697265625">
        <ele>33</ele>
        <time>2026-04-28T09:39:31.000Z</time>
        <extensions>
          <ns3:TrackPointExtension>
            <ns3:hr>113</ns3:hr>
            <ns3:cad>61</ns3:cad>
          </ns3:TrackPointExtension>
        </extensions>
      </trkpt>
      <trkpt lat="37.00746280141174793243408203125" lon="-8.94326043315231800079345703125">
        <ele>33</ele>
        <time>2026-04-28T09:39:32.000Z</time>
        <extensions>
          <ns3:TrackPointExtension>
            <ns3:hr>113</ns3:hr>
            <ns3:cad>61</ns3:cad>
          </ns3:TrackPointExtension>
        </extensions>
      </trkpt>
      <trkpt lat="37.0074813254177570343017578125" lon="-8.94342756830155849456787109375">
        <ele>32.59999847412109375</ele>
        <time>2026-04-28T09:39:42.000Z</time>
        <extensions>
          <ns3:TrackPointExtension>
            <ns3:hr>110</ns3:hr>
            <ns3:cad>61</ns3:cad>
          </ns3:TrackPointExtension>
        </extensions>
      </trkpt>
      <trkpt lat="37.00748207978904247283935546875" lon="-8.943442739546298980712890625">
        <ele>32.59999847412109375</ele>
        <time>2026-04-28T09:39:43.000Z</time>
        <extensions>
          <ns3:TrackPointExtension>
            <ns3:hr>109</ns3:hr>
            <ns3:cad>61</ns3:cad>
          </ns3:TrackPointExtension>
        </extensions>
      </trkpt>
      <trkpt lat="37.007489539682865142822265625" lon="-8.9435253851115703582763671875">
        <ele>32.59999847412109375</ele>
        <time>2026-04-28T09:39:48.000Z</time>
        <extensions>
          <ns3:TrackPointExtension>
            <ns3:hr>106</ns3:hr>
            <ns3:cad>60</ns3:cad>
          </ns3:TrackPointExtension>
        </extensions>
      </trkpt>
      <trkpt lat="37.00750253163278102874755859375" lon="-8.94365605898201465606689453125">
        <ele>32.59999847412109375</ele>
        <time>2026-04-28T09:39:56.000Z</time>
        <extensions>
          <ns3:TrackPointExtension>
            <ns3:hr>106</ns3:hr>
            <ns3:cad>59</ns3:cad>
          </ns3:TrackPointExtension>
        </extensions>
      </trkpt>
      <trkpt lat="37.007491551339626312255859375" lon="-8.94370802678167819976806640625">
        <ele>32.40000152587890625</ele>
        <time>2026-04-28T09:40:01.000Z</time>
        <extensions>
          <ns3:TrackPointExtension>
            <ns3:hr>105</ns3:hr>
            <ns3:cad>0</ns3:cad>
          </ns3:TrackPointExtension>
        </extensions>
      </trkpt>
      <trkpt lat="37.0074672438204288482666015625" lon="-8.94372110255062580108642578125">
        <ele>32.200000762939453125</ele>
        <time>2026-04-28T09:40:03.000Z</time>
        <extensions>
          <ns3:TrackPointExtension>
            <ns3:hr>105</ns3:hr>
            <ns3:cad>17</ns3:cad>
          </ns3:TrackPointExtension>
        </extensions>
      </trkpt>
      <trkpt lat="37.0074414275586605072021484375" lon="-8.94377432763576507568359375">
        <ele>32.200000762939453125</ele>
        <time>2026-04-28T09:40:07.000Z</time>
        <extensions>
          <ns3:TrackPointExtension>
            <ns3:hr>105</ns3:hr>
            <ns3:cad>17</ns3:cad>
          </ns3:TrackPointExtension>
        </extensions>
      </trkpt>
      <trkpt lat="37.0074454508721828460693359375" lon="-8.94380391575396060943603515625">
        <ele>32</ele>
        <time>2026-04-28T09:40:09.000Z</time>
        <extensions>
          <ns3:TrackPointExtension>
            <ns3:hr>104</ns3:hr>
            <ns3:cad>57</ns3:cad>
          </ns3:TrackPointExtension>
        </extensions>
      </trkpt>
      <trkpt lat="37.007442601025104522705078125" lon="-8.943839371204376220703125">
        <ele>32</ele>
        <time>2026-04-28T09:40:11.000Z</time>
        <extensions>
          <ns3:TrackPointExtension>
            <ns3:hr>101</ns3:hr>
            <ns3:cad>57</ns3:cad>
          </ns3:TrackPointExtension>
        </extensions>
      </trkpt>
      <trkpt lat="37.00744318775832653045654296875" lon="-8.94388723187148571014404296875">
        <ele>32.40000152587890625</ele>
        <time>2026-04-28T09:40:14.000Z</time>
        <extensions>
          <ns3:TrackPointExtension>
            <ns3:hr>98</ns3:hr>
            <ns3:cad>59</ns3:cad>
          </ns3:TrackPointExtension>
        </extensions>
      </trkpt>
      <trkpt lat="37.0074518211185932159423828125" lon="-8.94395177252590656280517578125">
        <ele>32.40000152587890625</ele>
        <time>2026-04-28T09:40:18.000Z</time>
        <extensions>
          <ns3:TrackPointExtension>
            <ns3:hr>99</ns3:hr>
            <ns3:cad>60</ns3:cad>
          </ns3:TrackPointExtension>
        </extensions>
      </trkpt>
      <trkpt lat="37.00745743699371814727783203125" lon="-8.94398312084376811981201171875">
        <ele>32.200000762939453125</ele>
        <time>2026-04-28T09:40:20.000Z</time>
        <extensions>
          <ns3:TrackPointExtension>
            <ns3:hr>102</ns3:hr>
            <ns3:cad>59</ns3:cad>
          </ns3:TrackPointExtension>
        </extensions>
      </trkpt>
      <trkpt lat="37.007461376488208770751953125" lon="-8.94402804784476757049560546875">
        <ele>32.200000762939453125</ele>
        <time>2026-04-28T09:40:23.000Z</time>
        <extensions>
          <ns3:TrackPointExtension>
            <ns3:hr>105</ns3:hr>
            <ns3:cad>59</ns3:cad>
          </ns3:TrackPointExtension>
        </extensions>
      </trkpt>
      <trkpt lat="37.0074722729623317718505859375" lon="-8.9441607333719730377197265625">
        <ele>32.799999237060546875</ele>
        <time>2026-04-28T09:40:31.000Z</time>
        <extensions>
          <ns3:TrackPointExtension>
            <ns3:hr>104</ns3:hr>
            <ns3:cad>59</ns3:cad>
          </ns3:TrackPointExtension>
        </extensions>
      </trkpt>
      <trkpt lat="37.0074903778731822967529296875" lon="-8.94432476721704006195068359375">
        <ele>32.59999847412109375</ele>
        <time>2026-04-28T09:40:41.000Z</time>
        <extensions>
          <ns3:TrackPointExtension>
            <ns3:hr>104</ns3:hr>
            <ns3:cad>60</ns3:cad>
          </ns3:TrackPointExtension>
        </extensions>
      </trkpt>
      <trkpt lat="37.00750320218503475189208984375" lon="-8.94445904530584812164306640625">
        <ele>32.799999237060546875</ele>
        <time>2026-04-28T09:40:49.000Z</time>
        <extensions>
          <ns3:TrackPointExtension>
            <ns3:hr>107</ns3:hr>
            <ns3:cad>61</ns3:cad>
          </ns3:TrackPointExtension>
        </extensions>
      </trkpt>
      <trkpt lat="37.0075098238885402679443359375" lon="-8.94453741610050201416015625">
        <ele>32.799999237060546875</ele>
        <time>2026-04-28T09:40:54.000Z</time>
        <extensions>
          <ns3:TrackPointExtension>
            <ns3:hr>108</ns3:hr>
            <ns3:cad>61</ns3:cad>
          </ns3:TrackPointExtension>
        </extensions>
      </trkpt>
      <trkpt lat="37.00751376338303089141845703125" lon="-8.9446334727108478546142578125">
        <ele>33.200000762939453125</ele>
        <time>2026-04-28T09:41:00.000Z</time>
        <extensions>
          <ns3:TrackPointExtension>
            <ns3:hr>105</ns3:hr>
            <ns3:cad>60</ns3:cad>
          </ns3:TrackPointExtension>
        </extensions>
      </trkpt>
      <trkpt lat="37.0075178705155849456787109375" lon="-8.94470128230750560760498046875">
        <ele>33.200000762939453125</ele>
        <time>2026-04-28T09:41:04.000Z</time>
        <extensions>
          <ns3:TrackPointExtension>
            <ns3:hr>102</ns3:hr>
            <ns3:cad>60</ns3:cad>
          </ns3:TrackPointExtension>
        </extensions>
      </trkpt>
      <trkpt lat="37.0075185410678386688232421875" lon="-8.94471435807645320892333984375">
        <ele>33.200000762939453125</ele>
        <time>2026-04-28T09:41:05.000Z</time>
        <extensions>
          <ns3:TrackPointExtension>
            <ns3:hr>103</ns3:hr>
            <ns3:cad>60</ns3:cad>
          </ns3:TrackPointExtension>
        </extensions>
      </trkpt>
      <trkpt lat="37.0075131766498088836669921875" lon="-8.94476079382002353668212890625">
        <ele>33</ele>
        <time>2026-04-28T09:41:08.000Z</time>
        <extensions>
          <ns3:TrackPointExtension>
            <ns3:hr>103</ns3:hr>
            <ns3:cad>57</ns3:cad>
          </ns3:TrackPointExtension>
        </extensions>
      </trkpt>
      <trkpt lat="37.00751191936433315277099609375" lon="-8.94482483156025409698486328125">
        <ele>33.200000762939453125</ele>
        <time>2026-04-28T09:41:12.000Z</time>
        <extensions>
          <ns3:TrackPointExtension>
            <ns3:hr>104</ns3:hr>
            <ns3:cad>59</ns3:cad>
          </ns3:TrackPointExtension>
        </extensions>
      </trkpt>
      <trkpt lat="37.007489539682865142822265625" lon="-8.94485768862068653106689453125">
        <ele>33.40000152587890625</ele>
        <time>2026-04-28T09:41:15.000Z</time>
        <extensions>
          <ns3:TrackPointExtension>
            <ns3:hr>103</ns3:hr>
            <ns3:cad>58</ns3:cad>
          </ns3:TrackPointExtension>
        </extensions>
      </trkpt>
      <trkpt lat="37.00741938315331935882568359375" lon="-8.94490328617393970489501953125">
        <ele>33.40000152587890625</ele>
        <time>2026-04-28T09:41:21.000Z</time>
        <extensions>
          <ns3:TrackPointExtension>
            <ns3:hr>104</ns3:hr>
            <ns3:cad>60</ns3:cad>
          </ns3:TrackPointExtension>
        </extensions>
      </trkpt>
      <trkpt lat="37.0073968358337879180908203125" lon="-8.9450061321258544921875">
        <ele>33.40000152587890625</ele>
        <time>2026-04-28T09:41:29.000Z</time>
        <extensions>
          <ns3:TrackPointExtension>
            <ns3:hr>104</ns3:hr>
            <ns3:cad>0</ns3:cad>
          </ns3:TrackPointExtension>
        </extensions>
      </trkpt>
      <trkpt lat="37.00746766291558742523193359375" lon="-8.945098333060741424560546875">
        <ele>33.799999237060546875</ele>
        <time>2026-04-28T09:41:36.000Z</time>
        <extensions>
          <ns3:TrackPointExtension>
            <ns3:hr>105</ns3:hr>
            <ns3:cad>62</ns3:cad>
          </ns3:TrackPointExtension>
        </extensions>
      </trkpt>
      <trkpt lat="37.00756304897367954254150390625" lon="-8.94513529725372791290283203125">
        <ele>33.40000152587890625</ele>
        <time>2026-04-28T09:41:43.000Z</time>
        <extensions>
          <ns3:TrackPointExtension>
            <ns3:hr>106</ns3:hr>
            <ns3:cad>64</ns3:cad>
          </ns3:TrackPointExtension>
        </extensions>
      </trkpt>
      <trkpt lat="37.00768643058836460113525390625" lon="-8.945223391056060791015625">
        <ele>33.799999237060546875</ele>
        <time>2026-04-28T09:41:54.000Z</time>
        <extensions>
          <ns3:TrackPointExtension>
            <ns3:hr>107</ns3:hr>
            <ns3:cad>62</ns3:cad>
          </ns3:TrackPointExtension>
        </extensions>
      </trkpt>
      <trkpt lat="37.0077528990805149078369140625" lon="-8.94528851844370365142822265625">
        <ele>34.200000762939453125</ele>
        <time>2026-04-28T09:42:00.000Z</time>
        <extensions>
          <ns3:TrackPointExtension>
            <ns3:hr>107</ns3:hr>
            <ns3:cad>61</ns3:cad>
          </ns3:TrackPointExtension>
        </extensions>
      </trkpt>
      <trkpt lat="37.00778684578835964202880859375" lon="-8.9453445933759212493896484375">
        <ele>34.40000152587890625</ele>
        <time>2026-04-28T09:42:04.000Z</time>
        <extensions>
          <ns3:TrackPointExtension>
            <ns3:hr>107</ns3:hr>
            <ns3:cad>62</ns3:cad>
          </ns3:TrackPointExtension>
        </extensions>
      </trkpt>
      <trkpt lat="37.00783587992191314697265625" lon="-8.94545833580195903778076171875">
        <ele>34.40000152587890625</ele>
        <time>2026-04-28T09:42:11.000Z</time>
        <extensions>
          <ns3:TrackPointExtension>
            <ns3:hr>110</ns3:hr>
            <ns3:cad>62</ns3:cad>
          </ns3:TrackPointExtension>
        </extensions>
      </trkpt>
      <trkpt lat="37.0078725926578044891357421875" lon="-8.94555975683033466339111328125">
        <ele>34.40000152587890625</ele>
        <time>2026-04-28T09:42:17.000Z</time>
        <extensions>
          <ns3:TrackPointExtension>
            <ns3:hr>112</ns3:hr>
            <ns3:cad>61</ns3:cad>
          </ns3:TrackPointExtension>
        </extensions>
      </trkpt>
      <trkpt lat="37.00793554075062274932861328125" lon="-8.945766873657703399658203125">
        <ele>34.59999847412109375</ele>
        <time>2026-04-28T09:42:30.000Z</time>
        <extensions>
          <ns3:TrackPointExtension>
            <ns3:hr>112</ns3:hr>
            <ns3:cad>63</ns3:cad>
          </ns3:TrackPointExtension>
        </extensions>
      </trkpt>
      <trkpt lat="37.00798801146447658538818359375" lon="-8.945955298840999603271484375">
        <ele>34.200000762939453125</ele>
        <time>2026-04-28T09:42:41.000Z</time>
        <extensions>
          <ns3:TrackPointExtension>
            <ns3:hr>111</ns3:hr>
            <ns3:cad>63</ns3:cad>
          </ns3:TrackPointExtension>
        </extensions>
      </trkpt>
      <trkpt lat="37.0080476067960262298583984375" lon="-8.94613274373114109039306640625">
        <ele>33.59999847412109375</ele>
        <time>2026-04-28T09:42:52.000Z</time>
        <extensions>
          <ns3:TrackPointExtension>
            <ns3:hr>111</ns3:hr>
            <ns3:cad>63</ns3:cad>
          </ns3:TrackPointExtension>
        </extensions>
      </trkpt>
      <trkpt lat="37.00806914828717708587646484375" lon="-8.94619510509073734283447265625">
        <ele>33.200000762939453125</ele>
        <time>2026-04-28T09:42:56.000Z</time>
        <extensions>
          <ns3:TrackPointExtension>
            <ns3:hr>111</ns3:hr>
            <ns3:cad>58</ns3:cad>
          </ns3:TrackPointExtension>
        </extensions>
      </trkpt>
      <trkpt lat="37.0080935396254062652587890625" lon="-8.94624439068138599395751953125">
        <ele>33.200000762939453125</ele>
        <time>2026-04-28T09:43:00.000Z</time>
        <extensions>
          <ns3:TrackPointExtension>
            <ns3:hr>111</ns3:hr>
            <ns3:cad>62</ns3:cad>
          </ns3:TrackPointExtension>
        </extensions>
      </trkpt>
      <trkpt lat="37.00812363065779209136962890625" lon="-8.946306668221950531005859375">
        <ele>33.200000762939453125</ele>
        <time>2026-04-28T09:43:04.000Z</time>
        <extensions>
          <ns3:TrackPointExtension>
            <ns3:hr>111</ns3:hr>
            <ns3:cad>62</ns3:cad>
          </ns3:TrackPointExtension>
        </extensions>
      </trkpt>
      <trkpt lat="37.0081880874931812286376953125" lon="-8.9464265294373035430908203125">
        <ele>32.799999237060546875</ele>
        <time>2026-04-28T09:43:12.000Z</time>
        <extensions>
          <ns3:TrackPointExtension>
            <ns3:hr>114</ns3:hr>
            <ns3:cad>64</ns3:cad>
          </ns3:TrackPointExtension>
        </extensions>
      </trkpt>
      <trkpt lat="37.008221112191677093505859375" lon="-8.94648067653179168701171875">
        <ele>32.40000152587890625</ele>
        <time>2026-04-28T09:43:16.000Z</time>
        <extensions>
          <ns3:TrackPointExtension>
            <ns3:hr>118</ns3:hr>
            <ns3:cad>62</ns3:cad>
          </ns3:TrackPointExtension>
        </extensions>
      </trkpt>
      <trkpt lat="37.0082469284534454345703125" lon="-8.94651143811643123626708984375">
        <ele>32.200000762939453125</ele>
        <time>2026-04-28T09:43:19.000Z</time>
        <extensions>
          <ns3:TrackPointExtension>
            <ns3:hr>118</ns3:hr>
            <ns3:cad>62</ns3:cad>
          </ns3:TrackPointExtension>
        </extensions>
      </trkpt>
      <trkpt lat="37.0082712359726428985595703125" lon="-8.946556784212589263916015625">
        <ele>31.799999237060546875</ele>
        <time>2026-04-28T09:43:22.000Z</time>
        <extensions>
          <ns3:TrackPointExtension>
            <ns3:hr>114</ns3:hr>
            <ns3:cad>62</ns3:cad>
          </ns3:TrackPointExtension>
        </extensions>
      </trkpt>
      <trkpt lat="37.00828246772289276123046875" lon="-8.94658452831208705902099609375">
        <ele>31.799999237060546875</ele>
        <time>2026-04-28T09:43:24.000Z</time>
        <extensions>
          <ns3:TrackPointExtension>
            <ns3:hr>111</ns3:hr>
            <ns3:cad>62</ns3:cad>
          </ns3:TrackPointExtension>
        </extensions>
      </trkpt>
      <trkpt lat="37.0082906819880008697509765625" lon="-8.94659936428070068359375">
        <ele>31.799999237060546875</ele>
        <time>2026-04-28T09:43:25.000Z</time>
        <extensions>
          <ns3:TrackPointExtension>
            <ns3:hr>111</ns3:hr>
            <ns3:cad>62</ns3:cad>
          </ns3:TrackPointExtension>
        </extensions>
      </trkpt>
      <trkpt lat="37.0083547197282314300537109375" lon="-8.94669919274747371673583984375">
        <ele>31.799999237060546875</ele>
        <time>2026-04-28T09:43:32.000Z</time>
        <extensions>
          <ns3:TrackPointExtension>
            <ns3:hr>108</ns3:hr>
            <ns3:cad>62</ns3:cad>
          </ns3:TrackPointExtension>
        </extensions>
      </trkpt>
      <trkpt lat="37.00837994925677776336669921875" lon="-8.94673925824463367462158203125">
        <ele>31.799999237060546875</ele>
        <time>2026-04-28T09:43:35.000Z</time>
        <extensions>
          <ns3:TrackPointExtension>
            <ns3:hr>108</ns3:hr>
            <ns3:cad>62</ns3:cad>
          </ns3:TrackPointExtension>
        </extensions>
      </trkpt>
      <trkpt lat="37.008449770510196685791015625" lon="-8.94686557352542877197265625">
        <ele>31.6000003814697265625</ele>
        <time>2026-04-28T09:43:44.000Z</time>
        <extensions>
          <ns3:TrackPointExtension>
            <ns3:hr>105</ns3:hr>
            <ns3:cad>0</ns3:cad>
          </ns3:TrackPointExtension>
        </extensions>
      </trkpt>
      <trkpt lat="37.0084588229656219482421875" lon="-8.94688007421791553497314453125">
        <ele>31.799999237060546875</ele>
        <time>2026-04-28T09:43:45.000Z</time>
        <extensions>
          <ns3:TrackPointExtension>
            <ns3:hr>105</ns3:hr>
            <ns3:cad>0</ns3:cad>
          </ns3:TrackPointExtension>
        </extensions>
      </trkpt>
      <trkpt lat="37.008521854877471923828125" lon="-8.94700060598552227020263671875">
        <ele>32</ele>
        <time>2026-04-28T09:43:53.000Z</time>
        <extensions>
          <ns3:TrackPointExtension>
            <ns3:hr>105</ns3:hr>
            <ns3:cad>57</ns3:cad>
          </ns3:TrackPointExtension>
        </extensions>
      </trkpt>
      <trkpt lat="37.00858765281736850738525390625" lon="-8.94712767563760280609130859375">
        <ele>32</ele>
        <time>2026-04-28T09:44:02.000Z</time>
        <extensions>
          <ns3:TrackPointExtension>
            <ns3:hr>106</ns3:hr>
            <ns3:cad>0</ns3:cad>
          </ns3:TrackPointExtension>
        </extensions>
      </trkpt>
      <trkpt lat="37.0086504332721233367919921875" lon="-8.94724351353943347930908203125">
        <ele>32</ele>
        <time>2026-04-28T09:44:10.000Z</time>
        <extensions>
          <ns3:TrackPointExtension>
            <ns3:hr>109</ns3:hr>
            <ns3:cad>62</ns3:cad>
          </ns3:TrackPointExtension>
        </extensions>
      </trkpt>
      <trkpt lat="37.00868136249482631683349609375" lon="-8.94729816354811191558837890625">
        <ele>31.799999237060546875</ele>
        <time>2026-04-28T09:44:14.000Z</time>
        <extensions>
          <ns3:TrackPointExtension>
            <ns3:hr>110</ns3:hr>
            <ns3:cad>62</ns3:cad>
          </ns3:TrackPointExtension>
        </extensions>
      </trkpt>
      <trkpt lat="37.0087530277669429779052734375" lon="-8.94742841832339763641357421875">
        <ele>31.200000762939453125</ele>
        <time>2026-04-28T09:44:23.000Z</time>
        <extensions>
          <ns3:TrackPointExtension>
            <ns3:hr>110</ns3:hr>
            <ns3:cad>63</ns3:cad>
          </ns3:TrackPointExtension>
        </extensions>
      </trkpt>
      <trkpt lat="37.00876182876527309417724609375" lon="-8.94744216464459896087646484375">
        <ele>31</ele>
        <time>2026-04-28T09:44:24.000Z</time>
        <extensions>
          <ns3:TrackPointExtension>
            <ns3:hr>110</ns3:hr>
            <ns3:cad>63</ns3:cad>
          </ns3:TrackPointExtension>
        </extensions>
      </trkpt>
      <trkpt lat="37.00882318429648876190185546875" lon="-8.94755423069000244140625">
        <ele>32.200000762939453125</ele>
        <time>2026-04-28T09:44:32.000Z</time>
        <extensions>
          <ns3:TrackPointExtension>
            <ns3:hr>111</ns3:hr>
            <ns3:cad>63</ns3:cad>
          </ns3:TrackPointExtension>
        </extensions>
      </trkpt>
      <trkpt lat="37.00885771773755550384521484375" lon="-8.94761181436479091644287109375">
        <ele>32.200000762939453125</ele>
        <time>2026-04-28T09:44:36.000Z</time>
        <extensions>
          <ns3:TrackPointExtension>
            <ns3:hr>114</ns3:hr>
            <ns3:cad>64</ns3:cad>
          </ns3:TrackPointExtension>
        </extensions>
      </trkpt>
      <trkpt lat="37.00887548737227916717529296875" lon="-8.94763830117881298065185546875">
        <ele>32.200000762939453125</ele>
        <time>2026-04-28T09:44:38.000Z</time>
        <extensions>
          <ns3:TrackPointExtension>
            <ns3:hr>119</ns3:hr>
            <ns3:cad>63</ns3:cad>
          </ns3:TrackPointExtension>
        </extensions>
      </trkpt>
      <trkpt lat="37.0089310593903064727783203125" lon="-8.94773972220718860626220703125">
        <ele>32.200000762939453125</ele>
        <time>2026-04-28T09:44:45.000Z</time>
        <extensions>
          <ns3:TrackPointExtension>
            <ns3:hr>122</ns3:hr>
            <ns3:cad>62</ns3:cad>
          </ns3:TrackPointExtension>
        </extensions>
      </trkpt>
      <trkpt lat="37.0089860446751117706298828125" lon="-8.9478377066552639007568359375">
        <ele>32</ele>
        <time>2026-04-28T09:44:52.000Z</time>
        <extensions>
          <ns3:TrackPointExtension>
            <ns3:hr>122</ns3:hr>
            <ns3:cad>61</ns3:cad>
          </ns3:TrackPointExtension>
        </extensions>
      </trkpt>
      <trkpt lat="37.00909425504505634307861328125" lon="-8.94802956841886043548583984375">
        <ele>31.799999237060546875</ele>
        <time>2026-04-28T09:45:05.000Z</time>
        <extensions>
          <ns3:TrackPointExtension>
            <ns3:hr>121</ns3:hr>
            <ns3:cad>63</ns3:cad>
          </ns3:TrackPointExtension>
        </extensions>
      </trkpt>
      <trkpt lat="37.00920372270047664642333984375" lon="-8.9482081867754459381103515625">
        <ele>32.40000152587890625</ele>
        <time>2026-04-28T09:45:18.000Z</time>
        <extensions>
          <ns3:TrackPointExtension>
            <ns3:hr>119</ns3:hr>
            <ns3:cad>62</ns3:cad>
          </ns3:TrackPointExtension>
        </extensions>
      </trkpt>
      <trkpt lat="37.00923909433186054229736328125" lon="-8.94826208241283893585205078125">
        <ele>32.200000762939453125</ele>
        <time>2026-04-28T09:45:22.000Z</time>
        <extensions>
          <ns3:TrackPointExtension>
            <ns3:hr>122</ns3:hr>
            <ns3:cad>63</ns3:cad>
          </ns3:TrackPointExtension>
        </extensions>
      </trkpt>
      <trkpt lat="37.0092794112861156463623046875" lon="-8.94830985926091670989990234375">
        <ele>31</ele>
        <time>2026-04-28T09:45:26.000Z</time>
        <extensions>
          <ns3:TrackPointExtension>
            <ns3:hr>122</ns3:hr>
            <ns3:cad>62</ns3:cad>
          </ns3:TrackPointExtension>
        </extensions>
      </trkpt>
      <trkpt lat="37.00932626612484455108642578125" lon="-8.9483791776001453399658203125">
        <ele>31</ele>
        <time>2026-04-28T09:45:31.000Z</time>
        <extensions>
          <ns3:TrackPointExtension>
            <ns3:hr>123</ns3:hr>
            <ns3:cad>63</ns3:cad>
          </ns3:TrackPointExtension>
        </extensions>
      </trkpt>
      <trkpt lat="37.0093682594597339630126953125" lon="-8.94842636771500110626220703125">
        <ele>32</ele>
        <time>2026-04-28T09:45:35.000Z</time>
        <extensions>
          <ns3:TrackPointExtension>
            <ns3:hr>124</ns3:hr>
            <ns3:cad>63</ns3:cad>
          </ns3:TrackPointExtension>
        </extensions>
      </trkpt>
      <trkpt lat="37.00942768715322017669677734375" lon="-8.94848386757075786590576171875">
        <ele>30.799999237060546875</ele>
        <time>2026-04-28T09:45:40.000Z</time>
        <extensions>
          <ns3:TrackPointExtension>
            <ns3:hr>124</ns3:hr>
            <ns3:cad>64</ns3:cad>
          </ns3:TrackPointExtension>
        </extensions>
      </trkpt>
      <trkpt lat="37.00946389697492122650146484375" lon="-8.9485211670398712158203125">
        <ele>31</ele>
        <time>2026-04-28T09:45:44.000Z</time>
        <extensions>
          <ns3:TrackPointExtension>
            <ns3:hr>122</ns3:hr>
            <ns3:cad>0</ns3:cad>
          </ns3:TrackPointExtension>
        </extensions>
      </trkpt>
      <trkpt lat="37.00948032550513744354248046875" lon="-8.9485334046185016632080078125">
        <ele>31</ele>
        <time>2026-04-28T09:45:46.000Z</time>
        <extensions>
          <ns3:TrackPointExtension>
            <ns3:hr>117</ns3:hr>
            <ns3:cad>0</ns3:cad>
          </ns3:TrackPointExtension>
        </extensions>
      </trkpt>
      <trkpt lat="37.00948501937091350555419921875" lon="-8.94853793084621429443359375">
        <ele>31</ele>
        <time>2026-04-28T09:45:47.000Z</time>
        <extensions>
          <ns3:TrackPointExtension>
            <ns3:hr>114</ns3:hr>
            <ns3:cad>0</ns3:cad>
          </ns3:TrackPointExtension>
        </extensions>
      </trkpt>
      <trkpt lat="37.00949323363602161407470703125" lon="-8.94854974932968616485595703125">
        <ele>31</ele>
        <time>2026-04-28T09:45:49.000Z</time>
        <extensions>
          <ns3:TrackPointExtension>
            <ns3:hr>111</ns3:hr>
            <ns3:cad>0</ns3:cad>
          </ns3:TrackPointExtension>
        </extensions>
      </trkpt>
      <trkpt lat="37.0094939880073070526123046875" lon="-8.9485595561563968658447265625">
        <ele>31.200000762939453125</ele>
        <time>2026-04-28T09:45:53.000Z</time>
        <extensions>
          <ns3:TrackPointExtension>
            <ns3:hr>113</ns3:hr>
            <ns3:cad>0</ns3:cad>
          </ns3:TrackPointExtension>
        </extensions>
      </trkpt>
      <trkpt lat="37.0094936527311801910400390625" lon="-8.948597609996795654296875">
        <ele>30.799999237060546875</ele>
        <time>2026-04-28T09:46:01.000Z</time>
        <extensions>
          <ns3:TrackPointExtension>
            <ns3:hr>112</ns3:hr>
            <ns3:cad>0</ns3:cad>
          </ns3:TrackPointExtension>
        </extensions>
      </trkpt>
      <trkpt lat="37.00949457474052906036376953125" lon="-8.94861311651766300201416015625">
        <ele>30.799999237060546875</ele>
        <time>2026-04-28T09:46:08.000Z</time>
        <extensions>
          <ns3:TrackPointExtension>
            <ns3:hr>108</ns3:hr>
            <ns3:cad>0</ns3:cad>
          </ns3:TrackPointExtension>
        </extensions>
      </trkpt>
      <trkpt lat="37.0094919763505458831787109375" lon="-8.94861462526023387908935546875">
        <ele>30.6000003814697265625</ele>
        <time>2026-04-28T09:46:10.000Z</time>
        <extensions>
          <ns3:TrackPointExtension>
            <ns3:hr>105</ns3:hr>
            <ns3:cad>0</ns3:cad>
          </ns3:TrackPointExtension>
        </extensions>
      </trkpt>
      <trkpt lat="37.009485773742198944091796875" lon="-8.9486705325543880462646484375">
        <ele>30.799999237060546875</ele>
        <time>2026-04-28T09:46:14.000Z</time>
        <extensions>
          <ns3:TrackPointExtension>
            <ns3:hr>103</ns3:hr>
            <ns3:cad>0</ns3:cad>
          </ns3:TrackPointExtension>
        </extensions>
      </trkpt>
      <trkpt lat="37.00943506322801113128662109375" lon="-8.94882434047758579254150390625">
        <ele>31.6000003814697265625</ele>
        <time>2026-04-28T09:46:24.000Z</time>
        <extensions>
          <ns3:TrackPointExtension>
            <ns3:hr>100</ns3:hr>
            <ns3:cad>59</ns3:cad>
          </ns3:TrackPointExtension>
        </extensions>
      </trkpt>
      <trkpt lat="37.0094188861548900604248046875" lon="-8.9488522522151470184326171875">
        <ele>31.3999996185302734375</ele>
        <time>2026-04-28T09:46:26.000Z</time>
        <extensions>
          <ns3:TrackPointExtension>
            <ns3:hr>96</ns3:hr>
            <ns3:cad>59</ns3:cad>
          </ns3:TrackPointExtension>
        </extensions>
      </trkpt>
      <trkpt lat="37.0093679241836071014404296875" lon="-8.948941938579082489013671875">
        <ele>31.200000762939453125</ele>
        <time>2026-04-28T09:46:33.000Z</time>
        <extensions>
          <ns3:TrackPointExtension>
            <ns3:hr>95</ns3:hr>
            <ns3:cad>59</ns3:cad>
          </ns3:TrackPointExtension>
        </extensions>
      </trkpt>
      <trkpt lat="37.0093095861375331878662109375" lon="-8.9490208961069583892822265625">
        <ele>31.3999996185302734375</ele>
        <time>2026-04-28T09:46:40.000Z</time>
        <extensions>
          <ns3:TrackPointExtension>
            <ns3:hr>101</ns3:hr>
            <ns3:cad>59</ns3:cad>
          </ns3:TrackPointExtension>
        </extensions>
      </trkpt>
      <trkpt lat="37.00929231941699981689453125" lon="-8.9490768872201442718505859375">
        <ele>31</ele>
        <time>2026-04-28T09:46:44.000Z</time>
        <extensions>
          <ns3:TrackPointExtension>
            <ns3:hr>102</ns3:hr>
            <ns3:cad>0</ns3:cad>
          </ns3:TrackPointExtension>
        </extensions>
      </trkpt>
      <trkpt lat="37.0092844404280185699462890625" lon="-8.94912105984985828399658203125">
        <ele>31.200000762939453125</ele>
        <time>2026-04-28T09:46:50.000Z</time>
        <extensions>
          <ns3:TrackPointExtension>
            <ns3:hr>105</ns3:hr>
            <ns3:cad>0</ns3:cad>
          </ns3:TrackPointExtension>
        </extensions>
      </trkpt>
      <trkpt lat="37.00927966274321079254150390625" lon="-8.94913178868591785430908203125">
        <ele>31.200000762939453125</ele>
        <time>2026-04-28T09:46:51.000Z</time>
        <extensions>
          <ns3:TrackPointExtension>
            <ns3:hr>105</ns3:hr>
            <ns3:cad>0</ns3:cad>
          </ns3:TrackPointExtension>
        </extensions>
      </trkpt>
      <trkpt lat="37.00926876626908779144287109375" lon="-8.94919465295970439910888671875">
        <ele>31.799999237060546875</ele>
        <time>2026-04-28T09:46:55.000Z</time>
        <extensions>
          <ns3:TrackPointExtension>
            <ns3:hr>108</ns3:hr>
            <ns3:cad>57</ns3:cad>
          </ns3:TrackPointExtension>
        </extensions>
      </trkpt>
      <trkpt lat="37.00926507823169231414794921875" lon="-8.94921141676604747772216796875">
        <ele>32</ele>
        <time>2026-04-28T09:46:56.000Z</time>
        <extensions>
          <ns3:TrackPointExtension>
            <ns3:hr>108</ns3:hr>
            <ns3:cad>55</ns3:cad>
          </ns3:TrackPointExtension>
        </extensions>
      </trkpt>
      <trkpt lat="37.00925870798528194427490234375" lon="-8.94925810396671295166015625">
        <ele>32</ele>
        <time>2026-04-28T09:46:59.000Z</time>
        <extensions>
          <ns3:TrackPointExtension>
            <ns3:hr>109</ns3:hr>
            <ns3:cad>55</ns3:cad>
          </ns3:TrackPointExtension>
        </extensions>
      </trkpt>
      <trkpt lat="37.009269185364246368408203125" lon="-8.94940696656703948974609375">
        <ele>31.6000003814697265625</ele>
        <time>2026-04-28T09:47:08.000Z</time>
        <extensions>
          <ns3:TrackPointExtension>
            <ns3:hr>112</ns3:hr>
            <ns3:cad>59</ns3:cad>
          </ns3:TrackPointExtension>
        </extensions>
      </trkpt>
      <trkpt lat="37.009270526468753814697265625" lon="-8.94942549057304859161376953125">
        <ele>31.6000003814697265625</ele>
        <time>2026-04-28T09:47:09.000Z</time>
        <extensions>
          <ns3:TrackPointExtension>
            <ns3:hr>112</ns3:hr>
            <ns3:cad>59</ns3:cad>
          </ns3:TrackPointExtension>
        </extensions>
      </trkpt>
      <trkpt lat="37.00927622616291046142578125" lon="-8.94959715195000171661376953125">
        <ele>31.6000003814697265625</ele>
        <time>2026-04-28T09:47:20.000Z</time>
        <extensions>
          <ns3:TrackPointExtension>
            <ns3:hr>112</ns3:hr>
            <ns3:cad>60</ns3:cad>
          </ns3:TrackPointExtension>
        </extensions>
      </trkpt>
      <trkpt lat="37.00930246151983737945556640625" lon="-8.94978892989456653594970703125">
        <ele>31</ele>
        <time>2026-04-28T09:47:32.000Z</time>
        <extensions>
          <ns3:TrackPointExtension>
            <ns3:hr>109</ns3:hr>
            <ns3:cad>59</ns3:cad>
          </ns3:TrackPointExtension>
        </extensions>
      </trkpt>
      <trkpt lat="37.00932157225906848907470703125" lon="-8.9499459229409694671630859375">
        <ele>31.200000762939453125</ele>
        <time>2026-04-28T09:47:42.000Z</time>
        <extensions>
          <ns3:TrackPointExtension>
            <ns3:hr>107</ns3:hr>
            <ns3:cad>57</ns3:cad>
          </ns3:TrackPointExtension>
        </extensions>
      </trkpt>
      <trkpt lat="37.009331881999969482421875" lon="-8.95005145110189914703369140625">
        <ele>31.200000762939453125</ele>
        <time>2026-04-28T09:47:49.000Z</time>
        <extensions>
          <ns3:TrackPointExtension>
            <ns3:hr>105</ns3:hr>
            <ns3:cad>59</ns3:cad>
          </ns3:TrackPointExtension>
        </extensions>
      </trkpt>
      <trkpt lat="37.00926415622234344482421875" lon="-8.95013242028653621673583984375">
        <ele>30.799999237060546875</ele>
        <time>2026-04-28T09:47:58.000Z</time>
        <extensions>
          <ns3:TrackPointExtension>
            <ns3:hr>106</ns3:hr>
            <ns3:cad>55</ns3:cad>
          </ns3:TrackPointExtension>
        </extensions>
      </trkpt>
      <trkpt lat="37.00919735245406627655029296875" lon="-8.95017315633594989776611328125">
        <ele>31</ele>
        <time>2026-04-28T09:48:06.000Z</time>
        <extensions>
          <ns3:TrackPointExtension>
            <ns3:hr>107</ns3:hr>
            <ns3:cad>0</ns3:cad>
          </ns3:TrackPointExtension>
        </extensions>
      </trkpt>
      <trkpt lat="37.00919575989246368408203125" lon="-8.9501641876995563507080078125">
        <ele>31</ele>
        <time>2026-04-28T09:48:11.000Z</time>
        <extensions>
          <ns3:TrackPointExtension>
            <ns3:hr>110</ns3:hr>
            <ns3:cad>0</ns3:cad>
          </ns3:TrackPointExtension>
        </extensions>
      </trkpt>
      <trkpt lat="37.0092066563665866851806640625" lon="-8.95015941001474857330322265625">
        <ele>31.200000762939453125</ele>
        <time>2026-04-28T09:48:21.000Z</time>
        <extensions>
          <ns3:TrackPointExtension>
            <ns3:hr>108</ns3:hr>
            <ns3:cad>0</ns3:cad>
          </ns3:TrackPointExtension>
        </extensions>
      </trkpt>
      <trkpt lat="37.0092066563665866851806640625" lon="-8.95015941001474857330322265625">
        <ele>31</ele>
        <time>2026-04-28T09:48:40.000Z</time>
        <extensions>
          <ns3:TrackPointExtension>
            <ns3:hr>105</ns3:hr>
            <ns3:cad>0</ns3:cad>
          </ns3:TrackPointExtension>
        </extensions>
      </trkpt>
      <trkpt lat="37.0092066563665866851806640625" lon="-8.95015941001474857330322265625">
        <ele>30.799999237060546875</ele>
        <time>2026-04-28T09:48:45.000Z</time>
        <extensions>
          <ns3:TrackPointExtension>
            <ns3:hr>105</ns3:hr>
            <ns3:cad>0</ns3:cad>
          </ns3:TrackPointExtension>
        </extensions>
      </trkpt>
      <trkpt lat="37.0092066563665866851806640625" lon="-8.95015941001474857330322265625">
        <ele>31</ele>
        <time>2026-04-28T09:48:50.000Z</time>
        <extensions>
          <ns3:TrackPointExtension>
            <ns3:hr>101</ns3:hr>
            <ns3:cad>0</ns3:cad>
          </ns3:TrackPointExtension>
        </extensions>
      </trkpt>
      <trkpt lat="37.0092066563665866851806640625" lon="-8.95015941001474857330322265625">
        <ele>31.200000762939453125</ele>
        <time>2026-04-28T09:48:52.000Z</time>
        <extensions>
          <ns3:TrackPointExtension>
            <ns3:hr>98</ns3:hr>
            <ns3:cad>0</ns3:cad>
          </ns3:TrackPointExtension>
        </extensions>
      </trkpt>
      <trkpt lat="37.0092066563665866851806640625" lon="-8.95015941001474857330322265625">
        <ele>31</ele>
        <time>2026-04-28T09:48:55.000Z</time>
        <extensions>
          <ns3:TrackPointExtension>
            <ns3:hr>101</ns3:hr>
            <ns3:cad>0</ns3:cad>
          </ns3:TrackPointExtension>
        </extensions>
      </trkpt>
      <trkpt lat="37.0092136971652507781982421875" lon="-8.95020232535898685455322265625">
        <ele>31.6000003814697265625</ele>
        <time>2026-04-28T09:48:58.000Z</time>
        <extensions>
          <ns3:TrackPointExtension>
            <ns3:hr>104</ns3:hr>
            <ns3:cad>0</ns3:cad>
          </ns3:TrackPointExtension>
        </extensions>
      </trkpt>
      <trkpt lat="37.00923599302768707275390625" lon="-8.95025211386382579803466796875">
        <ele>32.200000762939453125</ele>
        <time>2026-04-28T09:49:01.000Z</time>
        <extensions>
          <ns3:TrackPointExtension>
            <ns3:hr>105</ns3:hr>
            <ns3:cad>0</ns3:cad>
          </ns3:TrackPointExtension>
        </extensions>
      </trkpt>
      <trkpt lat="37.00923926196992397308349609375" lon="-8.95033408887684345245361328125">
        <ele>31.6000003814697265625</ele>
        <time>2026-04-28T09:49:06.000Z</time>
        <extensions>
          <ns3:TrackPointExtension>
            <ns3:hr>106</ns3:hr>
            <ns3:cad>59</ns3:cad>
          </ns3:TrackPointExtension>
        </extensions>
      </trkpt>
      <trkpt lat="37.009246386587619781494140625" lon="-8.950381614267826080322265625">
        <ele>31.200000762939453125</ele>
        <time>2026-04-28T09:49:09.000Z</time>
        <extensions>
          <ns3:TrackPointExtension>
            <ns3:hr>105</ns3:hr>
            <ns3:cad>59</ns3:cad>
          </ns3:TrackPointExtension>
        </extensions>
      </trkpt>
      <trkpt lat="37.0092737115919589996337890625" lon="-8.9504542015492916107177734375">
        <ele>31.3999996185302734375</ele>
        <time>2026-04-28T09:49:14.000Z</time>
        <extensions>
          <ns3:TrackPointExtension>
            <ns3:hr>104</ns3:hr>
            <ns3:cad>59</ns3:cad>
          </ns3:TrackPointExtension>
        </extensions>
      </trkpt>
      <trkpt lat="37.00930665247142314910888671875" lon="-8.95058403722941875457763671875">
        <ele>31.6000003814697265625</ele>
        <time>2026-04-28T09:49:22.000Z</time>
        <extensions>
          <ns3:TrackPointExtension>
            <ns3:hr>107</ns3:hr>
            <ns3:cad>60</ns3:cad>
          </ns3:TrackPointExtension>
        </extensions>
      </trkpt>
      <trkpt lat="37.00932056643068790435791015625" lon="-8.95062737166881561279296875">
        <ele>31.799999237060546875</ele>
        <time>2026-04-28T09:49:25.000Z</time>
        <extensions>
          <ns3:TrackPointExtension>
            <ns3:hr>109</ns3:hr>
            <ns3:cad>61</ns3:cad>
          </ns3:TrackPointExtension>
        </extensions>
      </trkpt>
      <trkpt lat="37.00936817564070224761962890625" lon="-8.9506964385509490966796875">
        <ele>31.799999237060546875</ele>
        <time>2026-04-28T09:49:31.000Z</time>
        <extensions>
          <ns3:TrackPointExtension>
            <ns3:hr>105</ns3:hr>
            <ns3:cad>59</ns3:cad>
          </ns3:TrackPointExtension>
        </extensions>
      </trkpt>
      <trkpt lat="37.00939156115055084228515625" lon="-8.95072954706847667694091796875">
        <ele>31.200000762939453125</ele>
        <time>2026-04-28T09:49:34.000Z</time>
        <extensions>
          <ns3:TrackPointExtension>
            <ns3:hr>104</ns3:hr>
            <ns3:cad>59</ns3:cad>
          </ns3:TrackPointExtension>
        </extensions>
      </trkpt>
      <trkpt lat="37.00948082841932773590087890625" lon="-8.95082962699234485626220703125">
        <ele>30.6000003814697265625</ele>
        <time>2026-04-28T09:49:43.000Z</time>
        <extensions>
          <ns3:TrackPointExtension>
            <ns3:hr>104</ns3:hr>
            <ns3:cad>59</ns3:cad>
          </ns3:TrackPointExtension>
        </extensions>
      </trkpt>
      <trkpt lat="37.00956246815621852874755859375" lon="-8.95098938606679439544677734375">
        <ele>30.200000762939453125</ele>
        <time>2026-04-28T09:49:54.000Z</time>
        <extensions>
          <ns3:TrackPointExtension>
            <ns3:hr>105</ns3:hr>
            <ns3:cad>60</ns3:cad>
          </ns3:TrackPointExtension>
        </extensions>
      </trkpt>
      <trkpt lat="37.00961141847074031829833984375" lon="-8.951073624193668365478515625">
        <ele>30.200000762939453125</ele>
        <time>2026-04-28T09:50:00.000Z</time>
        <extensions>
          <ns3:TrackPointExtension>
            <ns3:hr>105</ns3:hr>
            <ns3:cad>60</ns3:cad>
          </ns3:TrackPointExtension>
        </extensions>
      </trkpt>
      <trkpt lat="37.00964637100696563720703125" lon="-8.95112894475460052490234375">
        <ele>30.200000762939453125</ele>
        <time>2026-04-28T09:50:04.000Z</time>
        <extensions>
          <ns3:TrackPointExtension>
            <ns3:hr>108</ns3:hr>
            <ns3:cad>61</ns3:cad>
          </ns3:TrackPointExtension>
        </extensions>
      </trkpt>
      <trkpt lat="37.0096736960113048553466796875" lon="-8.9511646516621112823486328125">
        <ele>30.200000762939453125</ele>
        <time>2026-04-28T09:50:07.000Z</time>
        <extensions>
          <ns3:TrackPointExtension>
            <ns3:hr>110</ns3:hr>
            <ns3:cad>62</ns3:cad>
          </ns3:TrackPointExtension>
        </extensions>
      </trkpt>
      <trkpt lat="37.00973697938024997711181640625" lon="-8.95126481540501117706298828125">
        <ele>29.799999237060546875</ele>
        <time>2026-04-28T09:50:15.000Z</time>
        <extensions>
          <ns3:TrackPointExtension>
            <ns3:hr>107</ns3:hr>
            <ns3:cad>60</ns3:cad>
          </ns3:TrackPointExtension>
        </extensions>
      </trkpt>
      <trkpt lat="37.009751982986927032470703125" lon="-8.9512918889522552490234375">
        <ele>29.799999237060546875</ele>
        <time>2026-04-28T09:50:17.000Z</time>
        <extensions>
          <ns3:TrackPointExtension>
            <ns3:hr>107</ns3:hr>
            <ns3:cad>60</ns3:cad>
          </ns3:TrackPointExtension>
        </extensions>
      </trkpt>
      <trkpt lat="37.0098299346864223480224609375" lon="-8.95143044181168079376220703125">
        <ele>30</ele>
        <time>2026-04-28T09:50:27.000Z</time>
        <extensions>
          <ns3:TrackPointExtension>
            <ns3:hr>105</ns3:hr>
            <ns3:cad>60</ns3:cad>
          </ns3:TrackPointExtension>
        </extensions>
      </trkpt>
      <trkpt lat="37.00986036099493503570556640625" lon="-8.95151115953922271728515625">
        <ele>30</ele>
        <time>2026-04-28T09:50:32.000Z</time>
        <extensions>
          <ns3:TrackPointExtension>
            <ns3:hr>102</ns3:hr>
            <ns3:cad>59</ns3:cad>
          </ns3:TrackPointExtension>
        </extensions>
      </trkpt>
      <trkpt lat="37.009888105094432830810546875" lon="-8.9515629597008228302001953125">
        <ele>30.200000762939453125</ele>
        <time>2026-04-28T09:50:36.000Z</time>
        <extensions>
          <ns3:TrackPointExtension>
            <ns3:hr>101</ns3:hr>
            <ns3:cad>59</ns3:cad>
          </ns3:TrackPointExtension>
        </extensions>
      </trkpt>
      <trkpt lat="37.0099026896059513092041015625" lon="-8.95170587114989757537841796875">
        <ele>29.799999237060546875</ele>
        <time>2026-04-28T09:50:45.000Z</time>
        <extensions>
          <ns3:TrackPointExtension>
            <ns3:hr>101</ns3:hr>
            <ns3:cad>60</ns3:cad>
          </ns3:TrackPointExtension>
        </extensions>
      </trkpt>
      <trkpt lat="37.0099026896059513092041015625" lon="-8.95180460996925830841064453125">
        <ele>30.200000762939453125</ele>
        <time>2026-04-28T09:50:51.000Z</time>
        <extensions>
          <ns3:TrackPointExtension>
            <ns3:hr>100</ns3:hr>
            <ns3:cad>60</ns3:cad>
          </ns3:TrackPointExtension>
        </extensions>
      </trkpt>
      <trkpt lat="37.00988835655152797698974609375" lon="-8.95193385891616344451904296875">
        <ele>30</ele>
        <time>2026-04-28T09:50:59.000Z</time>
        <extensions>
          <ns3:TrackPointExtension>
            <ns3:hr>101</ns3:hr>
            <ns3:cad>59</ns3:cad>
          </ns3:TrackPointExtension>
        </extensions>
      </trkpt>
      <trkpt lat="37.0099018514156341552734375" lon="-8.95206009037792682647705078125">
        <ele>30.3999996185302734375</ele>
        <time>2026-04-28T09:51:07.000Z</time>
        <extensions>
          <ns3:TrackPointExtension>
            <ns3:hr>103</ns3:hr>
            <ns3:cad>59</ns3:cad>
          </ns3:TrackPointExtension>
        </extensions>
      </trkpt>
      <trkpt lat="37.00996429659426212310791015625" lon="-8.95217207260429859161376953125">
        <ele>31</ele>
        <time>2026-04-28T09:51:16.000Z</time>
        <extensions>
          <ns3:TrackPointExtension>
            <ns3:hr>102</ns3:hr>
            <ns3:cad>59</ns3:cad>
          </ns3:TrackPointExtension>
        </extensions>
      </trkpt>
      <trkpt lat="37.0100601017475128173828125" lon="-8.9522271417081356048583984375">
        <ele>30.6000003814697265625</ele>
        <time>2026-04-28T09:51:24.000Z</time>
        <extensions>
          <ns3:TrackPointExtension>
            <ns3:hr>105</ns3:hr>
            <ns3:cad>59</ns3:cad>
          </ns3:TrackPointExtension>
        </extensions>
      </trkpt>
      <trkpt lat="37.01008181087672710418701171875" lon="-8.95224482752382755279541015625">
        <ele>30.3999996185302734375</ele>
        <time>2026-04-28T09:51:26.000Z</time>
        <extensions>
          <ns3:TrackPointExtension>
            <ns3:hr>105</ns3:hr>
            <ns3:cad>59</ns3:cad>
          </ns3:TrackPointExtension>
        </extensions>
      </trkpt>
      <trkpt lat="37.01015439815819263458251953125" lon="-8.9522821269929409027099609375">
        <ele>30.200000762939453125</ele>
        <time>2026-04-28T09:51:32.000Z</time>
        <extensions>
          <ns3:TrackPointExtension>
            <ns3:hr>108</ns3:hr>
            <ns3:cad>59</ns3:cad>
          </ns3:TrackPointExtension>
        </extensions>
      </trkpt>
      <trkpt lat="37.010193876922130584716796875" lon="-8.9523059315979480743408203125">
        <ele>30</ele>
        <time>2026-04-28T09:51:35.000Z</time>
        <extensions>
          <ns3:TrackPointExtension>
            <ns3:hr>108</ns3:hr>
            <ns3:cad>59</ns3:cad>
          </ns3:TrackPointExtension>
        </extensions>
      </trkpt>
      <trkpt lat="37.0103465951979160308837890625" lon="-8.95240089856088161468505859375">
        <ele>29.6000003814697265625</ele>
        <time>2026-04-28T09:51:48.000Z</time>
        <extensions>
          <ns3:TrackPointExtension>
            <ns3:hr>107</ns3:hr>
            <ns3:cad>59</ns3:cad>
          </ns3:TrackPointExtension>
        </extensions>
      </trkpt>
      <trkpt lat="37.01051532290875911712646484375" lon="-8.9525013975799083709716796875">
        <ele>29.6000003814697265625</ele>
        <time>2026-04-28T09:52:02.000Z</time>
        <extensions>
          <ns3:TrackPointExtension>
            <ns3:hr>106</ns3:hr>
            <ns3:cad>61</ns3:cad>
          </ns3:TrackPointExtension>
        </extensions>
      </trkpt>
      <trkpt lat="37.01053879223763942718505859375" lon="-8.95251422189176082611083984375">
        <ele>29.6000003814697265625</ele>
        <time>2026-04-28T09:52:04.000Z</time>
        <extensions>
          <ns3:TrackPointExtension>
            <ns3:hr>105</ns3:hr>
            <ns3:cad>61</ns3:cad>
          </ns3:TrackPointExtension>
        </extensions>
      </trkpt>
      <trkpt lat="37.01066493988037109375" lon="-8.952591419219970703125">
        <ele>29.799999237060546875</ele>
        <time>2026-04-28T09:52:15.000Z</time>
        <extensions>
          <ns3:TrackPointExtension>
            <ns3:hr>102</ns3:hr>
            <ns3:cad>60</ns3:cad>
          </ns3:TrackPointExtension>
        </extensions>
      </trkpt>
      <trkpt lat="37.010698132216930389404296875" lon="-8.95261891186237335205078125">
        <ele>29.799999237060546875</ele>
        <time>2026-04-28T09:52:18.000Z</time>
        <extensions>
          <ns3:TrackPointExtension>
            <ns3:hr>101</ns3:hr>
            <ns3:cad>60</ns3:cad>
          </ns3:TrackPointExtension>
        </extensions>
      </trkpt>
      <trkpt lat="37.01085780747234821319580078125" lon="-8.9527096040546894073486328125">
        <ele>29.799999237060546875</ele>
        <time>2026-04-28T09:52:31.000Z</time>
        <extensions>
          <ns3:TrackPointExtension>
            <ns3:hr>103</ns3:hr>
            <ns3:cad>59</ns3:cad>
          </ns3:TrackPointExtension>
        </extensions>
      </trkpt>
      <trkpt lat="37.01092855073511600494384765625" lon="-8.9527501724660396575927734375">
        <ele>29.6000003814697265625</ele>
        <time>2026-04-28T09:52:37.000Z</time>
        <extensions>
          <ns3:TrackPointExtension>
            <ns3:hr>106</ns3:hr>
            <ns3:cad>60</ns3:cad>
          </ns3:TrackPointExtension>
        </extensions>
      </trkpt>
      <trkpt lat="37.01100432313978672027587890625" lon="-8.95278126932680606842041015625">
        <ele>29.3999996185302734375</ele>
        <time>2026-04-28T09:52:43.000Z</time>
        <extensions>
          <ns3:TrackPointExtension>
            <ns3:hr>106</ns3:hr>
            <ns3:cad>61</ns3:cad>
          </ns3:TrackPointExtension>
        </extensions>
      </trkpt>
      <trkpt lat="37.0110875554382801055908203125" lon="-8.95279903896152973175048828125">
        <ele>29.3999996185302734375</ele>
        <time>2026-04-28T09:52:49.000Z</time>
        <extensions>
          <ns3:TrackPointExtension>
            <ns3:hr>105</ns3:hr>
            <ns3:cad>61</ns3:cad>
          </ns3:TrackPointExtension>
        </extensions>
      </trkpt>
      <trkpt lat="37.011232562363147735595703125" lon="-8.952830135822296142578125">
        <ele>29.200000762939453125</ele>
        <time>2026-04-28T09:53:00.000Z</time>
        <extensions>
          <ns3:TrackPointExtension>
            <ns3:hr>106</ns3:hr>
            <ns3:cad>59</ns3:cad>
          </ns3:TrackPointExtension>
        </extensions>
      </trkpt>
      <trkpt lat="37.01124572195112705230712890625" lon="-8.95283281803131103515625">
        <ele>29</ele>
        <time>2026-04-28T09:53:01.000Z</time>
        <extensions>
          <ns3:TrackPointExtension>
            <ns3:hr>107</ns3:hr>
            <ns3:cad>59</ns3:cad>
          </ns3:TrackPointExtension>
        </extensions>
      </trkpt>
      <trkpt lat="37.01132635585963726043701171875" lon="-8.9528450556099414825439453125">
        <ele>28.3999996185302734375</ele>
        <time>2026-04-28T09:53:08.000Z</time>
        <extensions>
          <ns3:TrackPointExtension>
            <ns3:hr>108</ns3:hr>
            <ns3:cad>0</ns3:cad>
          </ns3:TrackPointExtension>
        </extensions>
      </trkpt>
      <trkpt lat="37.0113705284893512725830078125" lon="-8.952855281531810760498046875">
        <ele>29</ele>
        <time>2026-04-28T09:53:16.000Z</time>
        <extensions>
          <ns3:TrackPointExtension>
            <ns3:hr>110</ns3:hr>
            <ns3:cad>0</ns3:cad>
          </ns3:TrackPointExtension>
        </extensions>
      </trkpt>
      <trkpt lat="37.0113728754222393035888671875" lon="-8.95286433398723602294921875">
        <ele>29.200000762939453125</ele>
        <time>2026-04-28T09:53:18.000Z</time>
        <extensions>
          <ns3:TrackPointExtension>
            <ns3:hr>111</ns3:hr>
            <ns3:cad>0</ns3:cad>
          </ns3:TrackPointExtension>
        </extensions>
      </trkpt>
      <trkpt lat="37.0113768987357616424560546875" lon="-8.95286710001528263092041015625">
        <ele>29.200000762939453125</ele>
        <time>2026-04-28T09:53:20.000Z</time>
        <extensions>
          <ns3:TrackPointExtension>
            <ns3:hr>108</ns3:hr>
            <ns3:cad>0</ns3:cad>
          </ns3:TrackPointExtension>
        </extensions>
      </trkpt>
      <trkpt lat="37.0113770663738250732421875" lon="-8.952868022024631500244140625">
        <ele>29.200000762939453125</ele>
        <time>2026-04-28T09:53:21.000Z</time>
        <extensions>
          <ns3:TrackPointExtension>
            <ns3:hr>105</ns3:hr>
            <ns3:cad>0</ns3:cad>
          </ns3:TrackPointExtension>
        </extensions>
      </trkpt>
      <trkpt lat="37.01137446798384189605712890625" lon="-8.95286726765334606170654296875">
        <ele>29</ele>
        <time>2026-04-28T09:53:23.000Z</time>
        <extensions>
          <ns3:TrackPointExtension>
            <ns3:hr>102</ns3:hr>
            <ns3:cad>0</ns3:cad>
          </ns3:TrackPointExtension>
        </extensions>
      </trkpt>
      <trkpt lat="37.01139307580888271331787109375" lon="-8.95285067148506641387939453125">
        <ele>28.6000003814697265625</ele>
        <time>2026-04-28T09:53:27.000Z</time>
        <extensions>
          <ns3:TrackPointExtension>
            <ns3:hr>103</ns3:hr>
            <ns3:cad>0</ns3:cad>
          </ns3:TrackPointExtension>
        </extensions>
      </trkpt>
      <trkpt lat="37.01150656677782535552978515625" lon="-8.9528423734009265899658203125">
        <ele>28.6000003814697265625</ele>
        <time>2026-04-28T09:53:35.000Z</time>
        <extensions>
          <ns3:TrackPointExtension>
            <ns3:hr>104</ns3:hr>
            <ns3:cad>0</ns3:cad>
          </ns3:TrackPointExtension>
        </extensions>
      </trkpt>
      <trkpt lat="37.0116286911070346832275390625" lon="-8.9528608135879039764404296875">
        <ele>28.6000003814697265625</ele>
        <time>2026-04-28T09:53:44.000Z</time>
        <extensions>
          <ns3:TrackPointExtension>
            <ns3:hr>103</ns3:hr>
            <ns3:cad>0</ns3:cad>
          </ns3:TrackPointExtension>
        </extensions>
      </trkpt>
      <trkpt lat="37.01174327172338962554931640625" lon="-8.95286072976887226104736328125">
        <ele>28.799999237060546875</ele>
        <time>2026-04-28T09:53:53.000Z</time>
        <extensions>
          <ns3:TrackPointExtension>
            <ns3:hr>101</ns3:hr>
            <ns3:cad>60</ns3:cad>
          </ns3:TrackPointExtension>
        </extensions>
      </trkpt>
      <trkpt lat="37.011870257556438446044921875" lon="-8.9528609812259674072265625">
        <ele>28.3999996185302734375</ele>
        <time>2026-04-28T09:54:02.000Z</time>
        <extensions>
          <ns3:TrackPointExtension>
            <ns3:hr>102</ns3:hr>
            <ns3:cad>62</ns3:cad>
          </ns3:TrackPointExtension>
        </extensions>
      </trkpt>
      <trkpt lat="37.01197125948965549468994140625" lon="-8.95287833176553249359130859375">
        <ele>28.3999996185302734375</ele>
        <time>2026-04-28T09:54:09.000Z</time>
        <extensions>
          <ns3:TrackPointExtension>
            <ns3:hr>105</ns3:hr>
            <ns3:cad>61</ns3:cad>
          </ns3:TrackPointExtension>
        </extensions>
      </trkpt>
      <trkpt lat="37.01202389784157276153564453125" lon="-8.9528799243271350860595703125">
        <ele>28.3999996185302734375</ele>
        <time>2026-04-28T09:54:13.000Z</time>
        <extensions>
          <ns3:TrackPointExtension>
            <ns3:hr>107</ns3:hr>
            <ns3:cad>61</ns3:cad>
          </ns3:TrackPointExtension>
        </extensions>
      </trkpt>
      <trkpt lat="37.01206329278647899627685546875" lon="-8.952886797487735748291015625">
        <ele>28</ele>
        <time>2026-04-28T09:54:16.000Z</time>
        <extensions>
          <ns3:TrackPointExtension>
            <ns3:hr>108</ns3:hr>
            <ns3:cad>60</ns3:cad>
          </ns3:TrackPointExtension>
        </extensions>
      </trkpt>
      <trkpt lat="37.01209816150367259979248046875" lon="-8.95290062762796878814697265625">
        <ele>27.799999237060546875</ele>
        <time>2026-04-28T09:54:19.000Z</time>
        <extensions>
          <ns3:TrackPointExtension>
            <ns3:hr>105</ns3:hr>
            <ns3:cad>0</ns3:cad>
          </ns3:TrackPointExtension>
        </extensions>
      </trkpt>
      <trkpt lat="37.0121188648045063018798828125" lon="-8.9529090933501720428466796875">
        <ele>28</ele>
        <time>2026-04-28T09:54:21.000Z</time>
        <extensions>
          <ns3:TrackPointExtension>
            <ns3:hr>100</ns3:hr>
            <ns3:cad>0</ns3:cad>
          </ns3:TrackPointExtension>
        </extensions>
      </trkpt>
      <trkpt lat="37.01212129555642604827880859375" lon="-8.95291261374950408935546875">
        <ele>28</ele>
        <time>2026-04-28T09:54:22.000Z</time>
        <extensions>
          <ns3:TrackPointExtension>
            <ns3:hr>99</ns3:hr>
            <ns3:cad>0</ns3:cad>
          </ns3:TrackPointExtension>
        </extensions>
      </trkpt>
      <trkpt lat="37.01211425475776195526123046875" lon="-8.952913619577884674072265625">
        <ele>28.200000762939453125</ele>
        <time>2026-04-28T09:54:26.000Z</time>
        <extensions>
          <ns3:TrackPointExtension>
            <ns3:hr>103</ns3:hr>
            <ns3:cad>0</ns3:cad>
          </ns3:TrackPointExtension>
        </extensions>
      </trkpt>
      <trkpt lat="37.0121151767671108245849609375" lon="-8.95291370339691638946533203125">
        <ele>28.200000762939453125</ele>
        <time>2026-04-28T09:54:27.000Z</time>
        <extensions>
          <ns3:TrackPointExtension>
            <ns3:hr>107</ns3:hr>
            <ns3:cad>0</ns3:cad>
          </ns3:TrackPointExtension>
        </extensions>
      </trkpt>
      <trkpt lat="37.012116350233554840087890625" lon="-8.9529146254062652587890625">
        <ele>28.200000762939453125</ele>
        <time>2026-04-28T09:54:28.000Z</time>
        <extensions>
          <ns3:TrackPointExtension>
            <ns3:hr>110</ns3:hr>
            <ns3:cad>0</ns3:cad>
          </ns3:TrackPointExtension>
        </extensions>
      </trkpt>
      <trkpt lat="37.0121168531477451324462890625" lon="-8.952914960682392120361328125">
        <ele>28.200000762939453125</ele>
        <time>2026-04-28T09:54:30.000Z</time>
        <extensions>
          <ns3:TrackPointExtension>
            <ns3:hr>113</ns3:hr>
            <ns3:cad>0</ns3:cad>
          </ns3:TrackPointExtension>
        </extensions>
      </trkpt>
      <trkpt lat="37.01212582178413867950439453125" lon="-8.9529168047010898590087890625">
        <ele>28</ele>
        <time>2026-04-28T09:54:33.000Z</time>
        <extensions>
          <ns3:TrackPointExtension>
            <ns3:hr>116</ns3:hr>
            <ns3:cad>0</ns3:cad>
          </ns3:TrackPointExtension>
        </extensions>
      </trkpt>
      <trkpt lat="37.01216789893805980682373046875" lon="-8.9529064111411571502685546875">
        <ele>27.799999237060546875</ele>
        <time>2026-04-28T09:54:37.000Z</time>
        <extensions>
          <ns3:TrackPointExtension>
            <ns3:hr>118</ns3:hr>
            <ns3:cad>0</ns3:cad>
          </ns3:TrackPointExtension>
        </extensions>
      </trkpt>
      <trkpt lat="37.0122174359858036041259765625" lon="-8.95290884189307689666748046875">
        <ele>28</ele>
        <time>2026-04-28T09:54:43.000Z</time>
        <extensions>
          <ns3:TrackPointExtension>
            <ns3:hr>115</ns3:hr>
            <ns3:cad>0</ns3:cad>
          </ns3:TrackPointExtension>
        </extensions>
      </trkpt>
      <trkpt lat="37.01224015094339847564697265625" lon="-8.9529117755591869354248046875">
        <ele>27.799999237060546875</ele>
        <time>2026-04-28T09:54:46.000Z</time>
        <extensions>
          <ns3:TrackPointExtension>
            <ns3:hr>115</ns3:hr>
            <ns3:cad>0</ns3:cad>
          </ns3:TrackPointExtension>
        </extensions>
      </trkpt>
      <trkpt lat="37.01227183453738689422607421875" lon="-8.9529127813875675201416015625">
        <ele>28</ele>
        <time>2026-04-28T09:54:50.000Z</time>
        <extensions>
          <ns3:TrackPointExtension>
            <ns3:hr>112</ns3:hr>
            <ns3:cad>0</ns3:cad>
          </ns3:TrackPointExtension>
        </extensions>
      </trkpt>
      <trkpt lat="37.01229329220950603485107421875" lon="-8.9529124461114406585693359375">
        <ele>27.799999237060546875</ele>
        <time>2026-04-28T09:54:56.000Z</time>
        <extensions>
          <ns3:TrackPointExtension>
            <ns3:hr>109</ns3:hr>
            <ns3:cad>0</ns3:cad>
          </ns3:TrackPointExtension>
        </extensions>
      </trkpt>
      <trkpt lat="37.0123264007270336151123046875" lon="-8.9529231749475002288818359375">
        <ele>27.6000003814697265625</ele>
        <time>2026-04-28T09:55:00.000Z</time>
        <extensions>
          <ns3:TrackPointExtension>
            <ns3:hr>105</ns3:hr>
            <ns3:cad>0</ns3:cad>
          </ns3:TrackPointExtension>
        </extensions>
      </trkpt>
      <trkpt lat="37.0123401470482349395751953125" lon="-8.95292493514716625213623046875">
        <ele>27.799999237060546875</ele>
        <time>2026-04-28T09:55:01.000Z</time>
        <extensions>
          <ns3:TrackPointExtension>
            <ns3:hr>104</ns3:hr>
            <ns3:cad>0</ns3:cad>
          </ns3:TrackPointExtension>
        </extensions>
      </trkpt>
      <trkpt lat="37.012442238628864288330078125" lon="-8.95293331705033779144287109375">
        <ele>28</ele>
        <time>2026-04-28T09:55:09.000Z</time>
        <extensions>
          <ns3:TrackPointExtension>
            <ns3:hr>103</ns3:hr>
            <ns3:cad>62</ns3:cad>
          </ns3:TrackPointExtension>
        </extensions>
      </trkpt>
      <trkpt lat="37.01251633465290069580078125" lon="-8.95294119603931903839111328125">
        <ele>27.3999996185302734375</ele>
        <time>2026-04-28T09:55:15.000Z</time>
        <extensions>
          <ns3:TrackPointExtension>
            <ns3:hr>104</ns3:hr>
            <ns3:cad>55</ns3:cad>
          </ns3:TrackPointExtension>
        </extensions>
      </trkpt>
      <trkpt lat="37.0126680471003055572509765625" lon="-8.95295427180826663970947265625">
        <ele>27.200000762939453125</ele>
        <time>2026-04-28T09:55:26.000Z</time>
        <extensions>
          <ns3:TrackPointExtension>
            <ns3:hr>106</ns3:hr>
            <ns3:cad>62</ns3:cad>
          </ns3:TrackPointExtension>
        </extensions>
      </trkpt>
      <trkpt lat="37.0127096213400363922119140625" lon="-8.9529607258737087249755859375">
        <ele>27.200000762939453125</ele>
        <time>2026-04-28T09:55:29.000Z</time>
        <extensions>
          <ns3:TrackPointExtension>
            <ns3:hr>109</ns3:hr>
            <ns3:cad>62</ns3:cad>
          </ns3:TrackPointExtension>
        </extensions>
      </trkpt>
      <trkpt lat="37.01283342204988002777099609375" lon="-8.9529811777174472808837890625">
        <ele>27.6000003814697265625</ele>
        <time>2026-04-28T09:55:38.000Z</time>
        <extensions>
          <ns3:TrackPointExtension>
            <ns3:hr>110</ns3:hr>
            <ns3:cad>62</ns3:cad>
          </ns3:TrackPointExtension>
        </extensions>
      </trkpt>
      <trkpt lat="37.0129748247563838958740234375" lon="-8.953000791370868682861328125">
        <ele>27</ele>
        <time>2026-04-28T09:55:49.000Z</time>
        <extensions>
          <ns3:TrackPointExtension>
            <ns3:hr>109</ns3:hr>
            <ns3:cad>60</ns3:cad>
          </ns3:TrackPointExtension>
        </extensions>
      </trkpt>
      <trkpt lat="37.0130009762942790985107421875" lon="-8.95300791598856449127197265625">
        <ele>26.799999237060546875</ele>
        <time>2026-04-28T09:55:51.000Z</time>
        <extensions>
          <ns3:TrackPointExtension>
            <ns3:hr>109</ns3:hr>
            <ns3:cad>59</ns3:cad>
          </ns3:TrackPointExtension>
        </extensions>
      </trkpt>
      <trkpt lat="37.01313081197440624237060546875" lon="-8.95299769006669521331787109375">
        <ele>26.3999996185302734375</ele>
        <time>2026-04-28T09:56:01.000Z</time>
        <extensions>
          <ns3:TrackPointExtension>
            <ns3:hr>110</ns3:hr>
            <ns3:cad>0</ns3:cad>
          </ns3:TrackPointExtension>
        </extensions>
      </trkpt>
      <trkpt lat="37.0132500864565372467041015625" lon="-8.95297841168940067291259765625">
        <ele>26.799999237060546875</ele>
        <time>2026-04-28T09:56:10.000Z</time>
        <extensions>
          <ns3:TrackPointExtension>
            <ns3:hr>111</ns3:hr>
            <ns3:cad>60</ns3:cad>
          </ns3:TrackPointExtension>
        </extensions>
      </trkpt>
      <trkpt lat="37.0133774913847446441650390625" lon="-8.9529556967318058013916015625">
        <ele>26</ele>
        <time>2026-04-28T09:56:20.000Z</time>
        <extensions>
          <ns3:TrackPointExtension>
            <ns3:hr>113</ns3:hr>
            <ns3:cad>61</ns3:cad>
          </ns3:TrackPointExtension>
        </extensions>
      </trkpt>
      <trkpt lat="37.01339165680110454559326171875" lon="-8.95295276306569576263427734375">
        <ele>25.799999237060546875</ele>
        <time>2026-04-28T09:56:21.000Z</time>
        <extensions>
          <ns3:TrackPointExtension>
            <ns3:hr>113</ns3:hr>
            <ns3:cad>61</ns3:cad>
          </ns3:TrackPointExtension>
        </extensions>
      </trkpt>
      <trkpt lat="37.013564072549343109130859375" lon="-8.95291454158723354339599609375">
        <ele>25.6000003814697265625</ele>
        <time>2026-04-28T09:56:34.000Z</time>
        <extensions>
          <ns3:TrackPointExtension>
            <ns3:hr>112</ns3:hr>
            <ns3:cad>58</ns3:cad>
          </ns3:TrackPointExtension>
        </extensions>
      </trkpt>
      <trkpt lat="37.01368602924048900604248046875" lon="-8.952908255159854888916015625">
        <ele>25.3999996185302734375</ele>
        <time>2026-04-28T09:56:44.000Z</time>
        <extensions>
          <ns3:TrackPointExtension>
            <ns3:hr>113</ns3:hr>
            <ns3:cad>59</ns3:cad>
          </ns3:TrackPointExtension>
        </extensions>
      </trkpt>
      <trkpt lat="37.01368820853531360626220703125" lon="-8.95293449051678180694580078125">
        <ele>24.799999237060546875</ele>
        <time>2026-04-28T09:56:47.000Z</time>
        <extensions>
          <ns3:TrackPointExtension>
            <ns3:hr>112</ns3:hr>
            <ns3:cad>59</ns3:cad>
          </ns3:TrackPointExtension>
        </extensions>
      </trkpt>
      <trkpt lat="37.0136886276304721832275390625" lon="-8.952972628176212310791015625">
        <ele>24.799999237060546875</ele>
        <time>2026-04-28T09:56:51.000Z</time>
        <extensions>
          <ns3:TrackPointExtension>
            <ns3:hr>112</ns3:hr>
            <ns3:cad>0</ns3:cad>
          </ns3:TrackPointExtension>
        </extensions>
      </trkpt>
      <trkpt lat="37.01368938200175762176513671875" lon="-8.95298327319324016571044921875">
        <ele>24.6000003814697265625</ele>
        <time>2026-04-28T09:56:59.000Z</time>
        <extensions>
          <ns3:TrackPointExtension>
            <ns3:hr>109</ns3:hr>
            <ns3:cad>0</ns3:cad>
          </ns3:TrackPointExtension>
        </extensions>
      </trkpt>
      <trkpt lat="37.01368938200175762176513671875" lon="-8.95298327319324016571044921875">
        <ele>25.6000003814697265625</ele>
        <time>2026-04-28T09:57:08.000Z</time>
        <extensions>
          <ns3:TrackPointExtension>
            <ns3:hr>112</ns3:hr>
            <ns3:cad>0</ns3:cad>
          </ns3:TrackPointExtension>
        </extensions>
      </trkpt>
      <trkpt lat="37.01368938200175762176513671875" lon="-8.95298327319324016571044921875">
        <ele>25.3999996185302734375</ele>
        <time>2026-04-28T09:57:09.000Z</time>
        <extensions>
          <ns3:TrackPointExtension>
            <ns3:hr>116</ns3:hr>
            <ns3:cad>0</ns3:cad>
          </ns3:TrackPointExtension>
        </extensions>
      </trkpt>
      <trkpt lat="37.01369189657270908355712890625" lon="-8.9529996179044246673583984375">
        <ele>24.200000762939453125</ele>
        <time>2026-04-28T09:57:13.000Z</time>
        <extensions>
          <ns3:TrackPointExtension>
            <ns3:hr>118</ns3:hr>
            <ns3:cad>0</ns3:cad>
          </ns3:TrackPointExtension>
        </extensions>
      </trkpt>
      <trkpt lat="37.01368820853531360626220703125" lon="-8.9530133642256259918212890625">
        <ele>24.6000003814697265625</ele>
        <time>2026-04-28T09:57:19.000Z</time>
        <extensions>
          <ns3:TrackPointExtension>
            <ns3:hr>118</ns3:hr>
            <ns3:cad>0</ns3:cad>
          </ns3:TrackPointExtension>
        </extensions>
      </trkpt>
      <trkpt lat="37.01368452049791812896728515625" lon="-8.95299886353313922882080078125">
        <ele>25.3999996185302734375</ele>
        <time>2026-04-28T09:57:24.000Z</time>
        <extensions>
          <ns3:TrackPointExtension>
            <ns3:hr>114</ns3:hr>
            <ns3:cad>0</ns3:cad>
          </ns3:TrackPointExtension>
        </extensions>
      </trkpt>
      <trkpt lat="37.01369239948689937591552734375" lon="-8.95297589711844921112060546875">
        <ele>25.3999996185302734375</ele>
        <time>2026-04-28T09:57:28.000Z</time>
        <extensions>
          <ns3:TrackPointExtension>
            <ns3:hr>111</ns3:hr>
            <ns3:cad>0</ns3:cad>
          </ns3:TrackPointExtension>
        </extensions>
      </trkpt>
      <trkpt lat="37.0137519948184490203857421875" lon="-8.95292610861361026763916015625">
        <ele>24.3999996185302734375</ele>
        <time>2026-04-28T09:57:34.000Z</time>
        <extensions>
          <ns3:TrackPointExtension>
            <ns3:hr>112</ns3:hr>
            <ns3:cad>60</ns3:cad>
          </ns3:TrackPointExtension>
        </extensions>
      </trkpt>
      <trkpt lat="37.0138378255069255828857421875" lon="-8.9528658427298069000244140625">
        <ele>24.6000003814697265625</ele>
        <time>2026-04-28T09:57:41.000Z</time>
        <extensions>
          <ns3:TrackPointExtension>
            <ns3:hr>111</ns3:hr>
            <ns3:cad>54</ns3:cad>
          </ns3:TrackPointExtension>
        </extensions>
      </trkpt>
      <trkpt lat="37.01387680135667324066162109375" lon="-8.95285762846469879150390625">
        <ele>24.200000762939453125</ele>
        <time>2026-04-28T09:57:44.000Z</time>
        <extensions>
          <ns3:TrackPointExtension>
            <ns3:hr>108</ns3:hr>
            <ns3:cad>58</ns3:cad>
          </ns3:TrackPointExtension>
        </extensions>
      </trkpt>
      <trkpt lat="37.01391569338738918304443359375" lon="-8.95285720936954021453857421875">
        <ele>24.200000762939453125</ele>
        <time>2026-04-28T09:57:47.000Z</time>
        <extensions>
          <ns3:TrackPointExtension>
            <ns3:hr>106</ns3:hr>
            <ns3:cad>0</ns3:cad>
          </ns3:TrackPointExtension>
        </extensions>
      </trkpt>
      <trkpt lat="37.01394989155232906341552734375" lon="-8.952906243503093719482421875">
        <ele>24.799999237060546875</ele>
        <time>2026-04-28T09:57:53.000Z</time>
        <extensions>
          <ns3:TrackPointExtension>
            <ns3:hr>108</ns3:hr>
            <ns3:cad>0</ns3:cad>
          </ns3:TrackPointExtension>
        </extensions>
      </trkpt>
      <trkpt lat="37.01394855044782161712646484375" lon="-8.95290481857955455780029296875">
        <ele>24.3999996185302734375</ele>
        <time>2026-04-28T09:57:56.000Z</time>
        <extensions>
          <ns3:TrackPointExtension>
            <ns3:hr>105</ns3:hr>
            <ns3:cad>0</ns3:cad>
          </ns3:TrackPointExtension>
        </extensions>
      </trkpt>
      <trkpt lat="37.01396179385483264923095703125" lon="-8.952862322330474853515625">
        <ele>24.200000762939453125</ele>
        <time>2026-04-28T09:57:59.000Z</time>
        <extensions>
          <ns3:TrackPointExtension>
            <ns3:hr>104</ns3:hr>
            <ns3:cad>0</ns3:cad>
          </ns3:TrackPointExtension>
        </extensions>
      </trkpt>
      <trkpt lat="37.01398107223212718963623046875" lon="-8.95284815691411495208740234375">
        <ele>24.3999996185302734375</ele>
        <time>2026-04-28T09:58:01.000Z</time>
        <extensions>
          <ns3:TrackPointExtension>
            <ns3:hr>104</ns3:hr>
            <ns3:cad>60</ns3:cad>
          </ns3:TrackPointExtension>
        </extensions>
      </trkpt>
      <trkpt lat="37.01401929371058940887451171875" lon="-8.95285762846469879150390625">
        <ele>24.3999996185302734375</ele>
        <time>2026-04-28T09:58:04.000Z</time>
        <extensions>
          <ns3:TrackPointExtension>
            <ns3:hr>104</ns3:hr>
            <ns3:cad>60</ns3:cad>
          </ns3:TrackPointExtension>
        </extensions>
      </trkpt>
      <trkpt lat="37.01414711773395538330078125" lon="-8.9529265277087688446044921875">
        <ele>25.200000762939453125</ele>
        <time>2026-04-28T09:58:14.000Z</time>
        <extensions>
          <ns3:TrackPointExtension>
            <ns3:hr>106</ns3:hr>
            <ns3:cad>62</ns3:cad>
          </ns3:TrackPointExtension>
        </extensions>
      </trkpt>
      <trkpt lat="37.01423001475632190704345703125" lon="-8.9530096761882305145263671875">
        <ele>25.3999996185302734375</ele>
        <time>2026-04-28T09:58:22.000Z</time>
        <extensions>
          <ns3:TrackPointExtension>
            <ns3:hr>109</ns3:hr>
            <ns3:cad>61</ns3:cad>
          </ns3:TrackPointExtension>
        </extensions>
      </trkpt>
      <trkpt lat="37.0142622850835323333740234375" lon="-8.953038342297077178955078125">
        <ele>25.6000003814697265625</ele>
        <time>2026-04-28T09:58:25.000Z</time>
        <extensions>
          <ns3:TrackPointExtension>
            <ns3:hr>110</ns3:hr>
            <ns3:cad>59</ns3:cad>
          </ns3:TrackPointExtension>
        </extensions>
      </trkpt>
      <trkpt lat="37.01435121707618236541748046875" lon="-8.95311000756919384002685546875">
        <ele>25.3999996185302734375</ele>
        <time>2026-04-28T09:58:33.000Z</time>
        <extensions>
          <ns3:TrackPointExtension>
            <ns3:hr>113</ns3:hr>
            <ns3:cad>60</ns3:cad>
          </ns3:TrackPointExtension>
        </extensions>
      </trkpt>
      <trkpt lat="37.01439212076365947723388671875" lon="-8.9531452953815460205078125">
        <ele>25</ele>
        <time>2026-04-28T09:58:37.000Z</time>
        <extensions>
          <ns3:TrackPointExtension>
            <ns3:hr>113</ns3:hr>
            <ns3:cad>59</ns3:cad>
          </ns3:TrackPointExtension>
        </extensions>
      </trkpt>
      <trkpt lat="37.01442539691925048828125" lon="-8.95319986157119274139404296875">
        <ele>25.799999237060546875</ele>
        <time>2026-04-28T09:58:41.000Z</time>
        <extensions>
          <ns3:TrackPointExtension>
            <ns3:hr>113</ns3:hr>
            <ns3:cad>59</ns3:cad>
          </ns3:TrackPointExtension>
        </extensions>
      </trkpt>
      <trkpt lat="37.01446286402642726898193359375" lon="-8.953289128839969635009765625">
        <ele>25.799999237060546875</ele>
        <time>2026-04-28T09:58:47.000Z</time>
        <extensions>
          <ns3:TrackPointExtension>
            <ns3:hr>114</ns3:hr>
            <ns3:cad>60</ns3:cad>
          </ns3:TrackPointExtension>
        </extensions>
      </trkpt>
      <trkpt lat="37.01456210575997829437255859375" lon="-8.9534053020179271697998046875">
        <ele>25.799999237060546875</ele>
        <time>2026-04-28T09:58:57.000Z</time>
        <extensions>
          <ns3:TrackPointExtension>
            <ns3:hr>113</ns3:hr>
            <ns3:cad>59</ns3:cad>
          </ns3:TrackPointExtension>
        </extensions>
      </trkpt>
      <trkpt lat="37.01457627117633819580078125" lon="-8.953499682247638702392578125">
        <ele>25.799999237060546875</ele>
        <time>2026-04-28T09:59:03.000Z</time>
        <extensions>
          <ns3:TrackPointExtension>
            <ns3:hr>110</ns3:hr>
            <ns3:cad>60</ns3:cad>
          </ns3:TrackPointExtension>
        </extensions>
      </trkpt>
      <trkpt lat="37.0145767740905284881591796875" lon="-8.953512422740459442138671875">
        <ele>25.799999237060546875</ele>
        <time>2026-04-28T09:59:04.000Z</time>
        <extensions>
          <ns3:TrackPointExtension>
            <ns3:hr>111</ns3:hr>
            <ns3:cad>60</ns3:cad>
          </ns3:TrackPointExtension>
        </extensions>
      </trkpt>
      <trkpt lat="37.0145680569112300872802734375" lon="-8.95364829339087009429931640625">
        <ele>26.3999996185302734375</ele>
        <time>2026-04-28T09:59:13.000Z</time>
        <extensions>
          <ns3:TrackPointExtension>
            <ns3:hr>109</ns3:hr>
            <ns3:cad>57</ns3:cad>
          </ns3:TrackPointExtension>
        </extensions>
      </trkpt>
      <trkpt lat="37.01454333029687404632568359375" lon="-8.95377167500555515289306640625">
        <ele>26.799999237060546875</ele>
        <time>2026-04-28T09:59:21.000Z</time>
        <extensions>
          <ns3:TrackPointExtension>
            <ns3:hr>112</ns3:hr>
            <ns3:cad>59</ns3:cad>
          </ns3:TrackPointExtension>
        </extensions>
      </trkpt>
      <trkpt lat="37.01454006135463714599609375" lon="-8.9537908695638179779052734375">
        <ele>26.799999237060546875</ele>
        <time>2026-04-28T09:59:22.000Z</time>
        <extensions>
          <ns3:TrackPointExtension>
            <ns3:hr>113</ns3:hr>
            <ns3:cad>59</ns3:cad>
          </ns3:TrackPointExtension>
        </extensions>
      </trkpt>
      <trkpt lat="37.0145345292985439300537109375" lon="-8.95388952456414699554443359375">
        <ele>26.799999237060546875</ele>
        <time>2026-04-28T09:59:28.000Z</time>
        <extensions>
          <ns3:TrackPointExtension>
            <ns3:hr>116</ns3:hr>
            <ns3:cad>59</ns3:cad>
          </ns3:TrackPointExtension>
        </extensions>
      </trkpt>
      <trkpt lat="37.0145284943282604217529296875" lon="-8.9539199508726596832275390625">
        <ele>27</ele>
        <time>2026-04-28T09:59:30.000Z</time>
        <extensions>
          <ns3:TrackPointExtension>
            <ns3:hr>116</ns3:hr>
            <ns3:cad>59</ns3:cad>
          </ns3:TrackPointExtension>
        </extensions>
      </trkpt>
      <trkpt lat="37.014520950615406036376953125" lon="-8.953962363302707672119140625">
        <ele>27</ele>
        <time>2026-04-28T09:59:33.000Z</time>
        <extensions>
          <ns3:TrackPointExtension>
            <ns3:hr>117</ns3:hr>
            <ns3:cad>59</ns3:cad>
          </ns3:TrackPointExtension>
        </extensions>
      </trkpt>
      <trkpt lat="37.014501504600048065185546875" lon="-8.95411198027431964874267578125">
        <ele>27.3999996185302734375</ele>
        <time>2026-04-28T09:59:42.000Z</time>
        <extensions>
          <ns3:TrackPointExtension>
            <ns3:hr>116</ns3:hr>
            <ns3:cad>60</ns3:cad>
          </ns3:TrackPointExtension>
        </extensions>
      </trkpt>
      <trkpt lat="37.0145020075142383575439453125" lon="-8.954300321638584136962890625">
        <ele>28</ele>
        <time>2026-04-28T09:59:54.000Z</time>
        <extensions>
          <ns3:TrackPointExtension>
            <ns3:hr>116</ns3:hr>
            <ns3:cad>59</ns3:cad>
          </ns3:TrackPointExtension>
        </extensions>
      </trkpt>
      <trkpt lat="37.01451768167316913604736328125" lon="-8.95444876514375209808349609375">
        <ele>28.200000762939453125</ele>
        <time>2026-04-28T10:00:03.000Z</time>
        <extensions>
          <ns3:TrackPointExtension>
            <ns3:hr>117</ns3:hr>
            <ns3:cad>59</ns3:cad>
          </ns3:TrackPointExtension>
        </extensions>
      </trkpt>
      <trkpt lat="37.01454584486782550811767578125" lon="-8.95463366992771625518798828125">
        <ele>29</ele>
        <time>2026-04-28T10:00:15.000Z</time>
        <extensions>
          <ns3:TrackPointExtension>
            <ns3:hr>116</ns3:hr>
            <ns3:cad>59</ns3:cad>
          </ns3:TrackPointExtension>
        </extensions>
      </trkpt>
      <trkpt lat="37.0145566575229167938232421875" lon="-8.95467977039515972137451171875">
        <ele>29</ele>
        <time>2026-04-28T10:00:18.000Z</time>
        <extensions>
          <ns3:TrackPointExtension>
            <ns3:hr>117</ns3:hr>
            <ns3:cad>59</ns3:cad>
          </ns3:TrackPointExtension>
        </extensions>
      </trkpt>
      <trkpt lat="37.01456998474895954132080078125" lon="-8.95470642484724521636962890625">
        <ele>29.200000762939453125</ele>
        <time>2026-04-28T10:00:20.000Z</time>
        <extensions>
          <ns3:TrackPointExtension>
            <ns3:hr>120</ns3:hr>
            <ns3:cad>58</ns3:cad>
          </ns3:TrackPointExtension>
        </extensions>
      </trkpt>
      <trkpt lat="37.0146317593753337860107421875" lon="-8.9547521062195301055908203125">
        <ele>28.200000762939453125</ele>
        <time>2026-04-28T10:00:26.000Z</time>
        <extensions>
          <ns3:TrackPointExtension>
            <ns3:hr>121</ns3:hr>
            <ns3:cad>61</ns3:cad>
          </ns3:TrackPointExtension>
        </extensions>
      </trkpt>
      <trkpt lat="37.01474449597299098968505859375" lon="-8.95483332686126232147216796875">
        <ele>28.799999237060546875</ele>
        <time>2026-04-28T10:00:36.000Z</time>
        <extensions>
          <ns3:TrackPointExtension>
            <ns3:hr>120</ns3:hr>
            <ns3:cad>58</ns3:cad>
          </ns3:TrackPointExtension>
        </extensions>
      </trkpt>
      <trkpt lat="37.0147715695202350616455078125" lon="-8.9548699557781219482421875">
        <ele>29</ele>
        <time>2026-04-28T10:00:39.000Z</time>
        <extensions>
          <ns3:TrackPointExtension>
            <ns3:hr>117</ns3:hr>
            <ns3:cad>61</ns3:cad>
          </ns3:TrackPointExtension>
        </extensions>
      </trkpt>
      <trkpt lat="37.01485128141939640045166015625" lon="-8.9549774117767810821533203125">
        <ele>29.200000762939453125</ele>
        <time>2026-04-28T10:00:48.000Z</time>
        <extensions>
          <ns3:TrackPointExtension>
            <ns3:hr>117</ns3:hr>
            <ns3:cad>60</ns3:cad>
          </ns3:TrackPointExtension>
        </extensions>
      </trkpt>
      <trkpt lat="37.01493442989885807037353515625" lon="-8.95509165711700916290283203125">
        <ele>29.6000003814697265625</ele>
        <time>2026-04-28T10:00:58.000Z</time>
        <extensions>
          <ns3:TrackPointExtension>
            <ns3:hr>114</ns3:hr>
            <ns3:cad>0</ns3:cad>
          </ns3:TrackPointExtension>
        </extensions>
      </trkpt>
      <trkpt lat="37.01495706103742122650146484375" lon="-8.95512870512902736663818359375">
        <ele>29.799999237060546875</ele>
        <time>2026-04-28T10:01:01.000Z</time>
        <extensions>
          <ns3:TrackPointExtension>
            <ns3:hr>114</ns3:hr>
            <ns3:cad>60</ns3:cad>
          </ns3:TrackPointExtension>
        </extensions>
      </trkpt>
      <trkpt lat="37.0149851404130458831787109375" lon="-8.95517162047326564788818359375">
        <ele>29.6000003814697265625</ele>
        <time>2026-04-28T10:01:04.000Z</time>
        <extensions>
          <ns3:TrackPointExtension>
            <ns3:hr>117</ns3:hr>
            <ns3:cad>55</ns3:cad>
          </ns3:TrackPointExtension>
        </extensions>
      </trkpt>
      <trkpt lat="37.014998383820056915283203125" lon="-8.95519576035439968109130859375">
        <ele>29.200000762939453125</ele>
        <time>2026-04-28T10:01:06.000Z</time>
        <extensions>
          <ns3:TrackPointExtension>
            <ns3:hr>121</ns3:hr>
            <ns3:cad>55</ns3:cad>
          </ns3:TrackPointExtension>
        </extensions>
      </trkpt>
      <trkpt lat="37.01500542461872100830078125" lon="-8.955205567181110382080078125">
        <ele>29</ele>
        <time>2026-04-28T10:01:07.000Z</time>
        <extensions>
          <ns3:TrackPointExtension>
            <ns3:hr>121</ns3:hr>
            <ns3:cad>55</ns3:cad>
          </ns3:TrackPointExtension>
        </extensions>
      </trkpt>
      <trkpt lat="37.01504171825945377349853515625" lon="-8.95528360269963741302490234375">
        <ele>30</ele>
        <time>2026-04-28T10:01:13.000Z</time>
        <extensions>
          <ns3:TrackPointExtension>
            <ns3:hr>121</ns3:hr>
            <ns3:cad>59</ns3:cad>
          </ns3:TrackPointExtension>
        </extensions>
      </trkpt>
      <trkpt lat="37.0150562189519405364990234375" lon="-8.9553071558475494384765625">
        <ele>30.200000762939453125</ele>
        <time>2026-04-28T10:01:15.000Z</time>
        <extensions>
          <ns3:TrackPointExtension>
            <ns3:hr>121</ns3:hr>
            <ns3:cad>57</ns3:cad>
          </ns3:TrackPointExtension>
        </extensions>
      </trkpt>
      <trkpt lat="37.01511447317898273468017578125" lon="-8.95539592020213603973388671875">
        <ele>30.3999996185302734375</ele>
        <time>2026-04-28T10:01:22.000Z</time>
        <extensions>
          <ns3:TrackPointExtension>
            <ns3:hr>124</ns3:hr>
            <ns3:cad>62</ns3:cad>
          </ns3:TrackPointExtension>
        </extensions>
      </trkpt>
      <trkpt lat="37.01513417065143585205078125" lon="-8.95541620440781116485595703125">
        <ele>30.200000762939453125</ele>
        <time>2026-04-28T10:01:24.000Z</time>
        <extensions>
          <ns3:TrackPointExtension>
            <ns3:hr>124</ns3:hr>
            <ns3:cad>62</ns3:cad>
          </ns3:TrackPointExtension>
        </extensions>
      </trkpt>
      <trkpt lat="37.01523869298398494720458984375" lon="-8.95550019107758998870849609375">
        <ele>30.3999996185302734375</ele>
        <time>2026-04-28T10:01:33.000Z</time>
        <extensions>
          <ns3:TrackPointExtension>
            <ns3:hr>121</ns3:hr>
            <ns3:cad>61</ns3:cad>
          </ns3:TrackPointExtension>
        </extensions>
      </trkpt>
      <trkpt lat="37.01526023447513580322265625" lon="-8.95551946945488452911376953125">
        <ele>30.3999996185302734375</ele>
        <time>2026-04-28T10:01:35.000Z</time>
        <extensions>
          <ns3:TrackPointExtension>
            <ns3:hr>120</ns3:hr>
            <ns3:cad>62</ns3:cad>
          </ns3:TrackPointExtension>
        </extensions>
      </trkpt>
      <trkpt lat="37.01537414453923702239990234375" lon="-8.955601863563060760498046875">
        <ele>30.799999237060546875</ele>
        <time>2026-04-28T10:01:45.000Z</time>
        <extensions>
          <ns3:TrackPointExtension>
            <ns3:hr>117</ns3:hr>
            <ns3:cad>61</ns3:cad>
          </ns3:TrackPointExtension>
        </extensions>
      </trkpt>
      <trkpt lat="37.01539359055459499359130859375" lon="-8.9556244947016239166259765625">
        <ele>30.6000003814697265625</ele>
        <time>2026-04-28T10:01:47.000Z</time>
        <extensions>
          <ns3:TrackPointExtension>
            <ns3:hr>117</ns3:hr>
            <ns3:cad>61</ns3:cad>
          </ns3:TrackPointExtension>
        </extensions>
      </trkpt>
      <trkpt lat="37.0154790021479129791259765625" lon="-8.9557150192558765411376953125">
        <ele>31.200000762939453125</ele>
        <time>2026-04-28T10:01:56.000Z</time>
        <extensions>
          <ns3:TrackPointExtension>
            <ns3:hr>115</ns3:hr>
            <ns3:cad>63</ns3:cad>
          </ns3:TrackPointExtension>
        </extensions>
      </trkpt>
      <trkpt lat="37.0155202411115169525146484375" lon="-8.955735974013805389404296875">
        <ele>31.200000762939453125</ele>
        <time>2026-04-28T10:01:59.000Z</time>
        <extensions>
          <ns3:TrackPointExtension>
            <ns3:hr>115</ns3:hr>
            <ns3:cad>62</ns3:cad>
          </ns3:TrackPointExtension>
        </extensions>
      </trkpt>
      <trkpt lat="37.01566499657928943634033203125" lon="-8.95576321519911289215087890625">
        <ele>30.3999996185302734375</ele>
        <time>2026-04-28T10:02:10.000Z</time>
        <extensions>
          <ns3:TrackPointExtension>
            <ns3:hr>115</ns3:hr>
            <ns3:cad>62</ns3:cad>
          </ns3:TrackPointExtension>
        </extensions>
      </trkpt>
      <trkpt lat="37.0157797448337078094482421875" lon="-8.95585105754435062408447265625">
        <ele>30.799999237060546875</ele>
        <time>2026-04-28T10:02:21.000Z</time>
        <extensions>
          <ns3:TrackPointExtension>
            <ns3:hr>114</ns3:hr>
            <ns3:cad>61</ns3:cad>
          </ns3:TrackPointExtension>
        </extensions>
      </trkpt>
      <trkpt lat="37.0158193074166774749755859375" lon="-8.9559577591717243194580078125">
        <ele>31.3999996185302734375</ele>
        <time>2026-04-28T10:02:28.000Z</time>
        <extensions>
          <ns3:TrackPointExtension>
            <ns3:hr>114</ns3:hr>
            <ns3:cad>59</ns3:cad>
          </ns3:TrackPointExtension>
        </extensions>
      </trkpt>
      <trkpt lat="37.01586985029280185699462890625" lon="-8.95605289377272129058837890625">
        <ele>31.200000762939453125</ele>
        <time>2026-04-28T10:02:36.000Z</time>
        <extensions>
          <ns3:TrackPointExtension>
            <ns3:hr>114</ns3:hr>
            <ns3:cad>0</ns3:cad>
          </ns3:TrackPointExtension>
        </extensions>
      </trkpt>
      <trkpt lat="37.01596993021667003631591796875" lon="-8.95611584186553955078125">
        <ele>31.3999996185302734375</ele>
        <time>2026-04-28T10:02:45.000Z</time>
        <extensions>
          <ns3:TrackPointExtension>
            <ns3:hr>114</ns3:hr>
            <ns3:cad>0</ns3:cad>
          </ns3:TrackPointExtension>
        </extensions>
      </trkpt>
      <trkpt lat="37.015995495021343231201171875" lon="-8.9561411552131175994873046875">
        <ele>31.6000003814697265625</ele>
        <time>2026-04-28T10:02:48.000Z</time>
        <extensions>
          <ns3:TrackPointExtension>
            <ns3:hr>117</ns3:hr>
            <ns3:cad>0</ns3:cad>
          </ns3:TrackPointExtension>
        </extensions>
      </trkpt>
      <trkpt lat="37.0160040445625782012939453125" lon="-8.95614844746887683868408203125">
        <ele>31.6000003814697265625</ele>
        <time>2026-04-28T10:02:49.000Z</time>
        <extensions>
          <ns3:TrackPointExtension>
            <ns3:hr>120</ns3:hr>
            <ns3:cad>0</ns3:cad>
          </ns3:TrackPointExtension>
        </extensions>
      </trkpt>
      <trkpt lat="37.016053497791290283203125" lon="-8.95616387017071247100830078125">
        <ele>31</ele>
        <time>2026-04-28T10:02:54.000Z</time>
        <extensions>
          <ns3:TrackPointExtension>
            <ns3:hr>122</ns3:hr>
            <ns3:cad>0</ns3:cad>
          </ns3:TrackPointExtension>
        </extensions>
      </trkpt>
      <trkpt lat="37.01611988246440887451171875" lon="-8.9562192745506763458251953125">
        <ele>30.3999996185302734375</ele>
        <time>2026-04-28T10:03:01.000Z</time>
        <extensions>
          <ns3:TrackPointExtension>
            <ns3:hr>121</ns3:hr>
            <ns3:cad>57</ns3:cad>
          </ns3:TrackPointExtension>
        </extensions>
      </trkpt>
      <trkpt lat="37.0162159390747547149658203125" lon="-8.956260345876216888427734375">
        <ele>30.3999996185302734375</ele>
        <time>2026-04-28T10:03:09.000Z</time>
        <extensions>
          <ns3:TrackPointExtension>
            <ns3:hr>120</ns3:hr>
            <ns3:cad>57</ns3:cad>
          </ns3:TrackPointExtension>
        </extensions>
      </trkpt>
      <trkpt lat="37.01627670787274837493896484375" lon="-8.95636000670492649078369140625">
        <ele>31</ele>
        <time>2026-04-28T10:03:17.000Z</time>
        <extensions>
          <ns3:TrackPointExtension>
            <ns3:hr>118</ns3:hr>
            <ns3:cad>60</ns3:cad>
          </ns3:TrackPointExtension>
        </extensions>
      </trkpt>
      <trkpt lat="37.0163564197719097137451171875" lon="-8.95641423761844635009765625">
        <ele>30.200000762939453125</ele>
        <time>2026-04-28T10:03:24.000Z</time>
        <extensions>
          <ns3:TrackPointExtension>
            <ns3:hr>117</ns3:hr>
            <ns3:cad>60</ns3:cad>
          </ns3:TrackPointExtension>
        </extensions>
      </trkpt>
      <trkpt lat="37.016373686492443084716796875" lon="-8.95643862895667552947998046875">
        <ele>30.200000762939453125</ele>
        <time>2026-04-28T10:03:26.000Z</time>
        <extensions>
          <ns3:TrackPointExtension>
            <ns3:hr>117</ns3:hr>
            <ns3:cad>60</ns3:cad>
          </ns3:TrackPointExtension>
        </extensions>
      </trkpt>
      <trkpt lat="37.01645893044769763946533203125" lon="-8.956507109105587005615234375">
        <ele>30.3999996185302734375</ele>
        <time>2026-04-28T10:03:34.000Z</time>
        <extensions>
          <ns3:TrackPointExtension>
            <ns3:hr>118</ns3:hr>
            <ns3:cad>56</ns3:cad>
          </ns3:TrackPointExtension>
        </extensions>
      </trkpt>
      <trkpt lat="37.01650301925837993621826171875" lon="-8.9565418101847171783447265625">
        <ele>30.3999996185302734375</ele>
        <time>2026-04-28T10:03:39.000Z</time>
        <extensions>
          <ns3:TrackPointExtension>
            <ns3:hr>121</ns3:hr>
            <ns3:cad>0</ns3:cad>
          </ns3:TrackPointExtension>
        </extensions>
      </trkpt>
      <trkpt lat="37.016536295413970947265625" lon="-8.9565361104905605316162109375">
        <ele>30.6000003814697265625</ele>
        <time>2026-04-28T10:03:42.000Z</time>
        <extensions>
          <ns3:TrackPointExtension>
            <ns3:hr>121</ns3:hr>
            <ns3:cad>0</ns3:cad>
          </ns3:TrackPointExtension>
        </extensions>
      </trkpt>
      <trkpt lat="37.016581557691097259521484375" lon="-8.9565682969987392425537109375">
        <ele>30.799999237060546875</ele>
        <time>2026-04-28T10:03:47.000Z</time>
        <extensions>
          <ns3:TrackPointExtension>
            <ns3:hr>118</ns3:hr>
            <ns3:cad>0</ns3:cad>
          </ns3:TrackPointExtension>
        </extensions>
      </trkpt>
      <trkpt lat="37.01659756712615489959716796875" lon="-8.956585228443145751953125">
        <ele>31</ele>
        <time>2026-04-28T10:03:49.000Z</time>
        <extensions>
          <ns3:TrackPointExtension>
            <ns3:hr>120</ns3:hr>
            <ns3:cad>0</ns3:cad>
          </ns3:TrackPointExtension>
        </extensions>
      </trkpt>
      <trkpt lat="37.0166585035622119903564453125" lon="-8.95662085153162479400634765625">
        <ele>30.6000003814697265625</ele>
        <time>2026-04-28T10:03:56.000Z</time>
        <extensions>
          <ns3:TrackPointExtension>
            <ns3:hr>119</ns3:hr>
            <ns3:cad>0</ns3:cad>
          </ns3:TrackPointExtension>
        </extensions>
      </trkpt>
      <trkpt lat="37.0167352817952632904052734375" lon="-8.95663929171860218048095703125">
        <ele>31</ele>
        <time>2026-04-28T10:04:02.000Z</time>
        <extensions>
          <ns3:TrackPointExtension>
            <ns3:hr>115</ns3:hr>
            <ns3:cad>0</ns3:cad>
          </ns3:TrackPointExtension>
        </extensions>
      </trkpt>
      <trkpt lat="37.01676134951412677764892578125" lon="-8.95664515905082225799560546875">
        <ele>31</ele>
        <time>2026-04-28T10:04:04.000Z</time>
        <extensions>
          <ns3:TrackPointExtension>
            <ns3:hr>114</ns3:hr>
            <ns3:cad>64</ns3:cad>
          </ns3:TrackPointExtension>
        </extensions>
      </trkpt>
      <trkpt lat="37.01678263954818248748779296875" lon="-8.9566615037620067596435546875">
        <ele>31.200000762939453125</ele>
        <time>2026-04-28T10:04:06.000Z</time>
        <extensions>
          <ns3:TrackPointExtension>
            <ns3:hr>114</ns3:hr>
            <ns3:cad>0</ns3:cad>
          </ns3:TrackPointExtension>
        </extensions>
      </trkpt>
      <trkpt lat="37.0168529637157917022705078125" lon="-8.95668522454798221588134765625">
        <ele>31.200000762939453125</ele>
        <time>2026-04-28T10:04:11.000Z</time>
        <extensions>
          <ns3:TrackPointExtension>
            <ns3:hr>114</ns3:hr>
            <ns3:cad>0</ns3:cad>
          </ns3:TrackPointExtension>
        </extensions>
      </trkpt>
      <trkpt lat="37.01694675721228122711181640625" lon="-8.956746160984039306640625">
        <ele>31.3999996185302734375</ele>
        <time>2026-04-28T10:04:19.000Z</time>
        <extensions>
          <ns3:TrackPointExtension>
            <ns3:hr>115</ns3:hr>
            <ns3:cad>59</ns3:cad>
          </ns3:TrackPointExtension>
        </extensions>
      </trkpt>
      <trkpt lat="37.0170794427394866943359375" lon="-8.95677759312093257904052734375">
        <ele>31.6000003814697265625</ele>
        <time>2026-04-28T10:04:29.000Z</time>
        <extensions>
          <ns3:TrackPointExtension>
            <ns3:hr>114</ns3:hr>
            <ns3:cad>60</ns3:cad>
          </ns3:TrackPointExtension>
        </extensions>
      </trkpt>
      <trkpt lat="37.0171476714313030242919921875" lon="-8.956784717738628387451171875">
        <ele>31.3999996185302734375</ele>
        <time>2026-04-28T10:04:34.000Z</time>
        <extensions>
          <ns3:TrackPointExtension>
            <ns3:hr>117</ns3:hr>
            <ns3:cad>61</ns3:cad>
          </ns3:TrackPointExtension>
        </extensions>
      </trkpt>
      <trkpt lat="37.01716904528439044952392578125" lon="-8.95679318346083164215087890625">
        <ele>31.3999996185302734375</ele>
        <time>2026-04-28T10:04:36.000Z</time>
        <extensions>
          <ns3:TrackPointExtension>
            <ns3:hr>119</ns3:hr>
            <ns3:cad>61</ns3:cad>
          </ns3:TrackPointExtension>
        </extensions>
      </trkpt>
      <trkpt lat="37.01726828701794147491455078125" lon="-8.9568197540938854217529296875">
        <ele>31.6000003814697265625</ele>
        <time>2026-04-28T10:04:44.000Z</time>
        <extensions>
          <ns3:TrackPointExtension>
            <ns3:hr>118</ns3:hr>
            <ns3:cad>58</ns3:cad>
          </ns3:TrackPointExtension>
        </extensions>
      </trkpt>
      <trkpt lat="37.01732687652111053466796875" lon="-8.9568529464304447174072265625">
        <ele>31.6000003814697265625</ele>
        <time>2026-04-28T10:04:49.000Z</time>
        <extensions>
          <ns3:TrackPointExtension>
            <ns3:hr>121</ns3:hr>
            <ns3:cad>59</ns3:cad>
          </ns3:TrackPointExtension>
        </extensions>
      </trkpt>
      <trkpt lat="37.017351686954498291015625" lon="-8.95686275325715541839599609375">
        <ele>31.6000003814697265625</ele>
        <time>2026-04-28T10:04:51.000Z</time>
        <extensions>
          <ns3:TrackPointExtension>
            <ns3:hr>120</ns3:hr>
            <ns3:cad>0</ns3:cad>
          </ns3:TrackPointExtension>
        </extensions>
      </trkpt>
      <trkpt lat="37.017432488501071929931640625" lon="-8.956929557025432586669921875">
        <ele>31.6000003814697265625</ele>
        <time>2026-04-28T10:04:58.000Z</time>
        <extensions>
          <ns3:TrackPointExtension>
            <ns3:hr>120</ns3:hr>
            <ns3:cad>63</ns3:cad>
          </ns3:TrackPointExtension>
        </extensions>
      </trkpt>
      <trkpt lat="37.01750180684030055999755859375" lon="-8.95698362030088901519775390625">
        <ele>32.200000762939453125</ele>
        <time>2026-04-28T10:05:05.000Z</time>
        <extensions>
          <ns3:TrackPointExtension>
            <ns3:hr>120</ns3:hr>
            <ns3:cad>61</ns3:cad>
          </ns3:TrackPointExtension>
        </extensions>
      </trkpt>
      <trkpt lat="37.01751018874347209930419921875" lon="-8.9569917507469654083251953125">
        <ele>32.200000762939453125</ele>
        <time>2026-04-28T10:05:06.000Z</time>
        <extensions>
          <ns3:TrackPointExtension>
            <ns3:hr>119</ns3:hr>
            <ns3:cad>60</ns3:cad>
          </ns3:TrackPointExtension>
        </extensions>
      </trkpt>
      <trkpt lat="37.0176019705832004547119140625" lon="-8.95706123672425746917724609375">
        <ele>32</ele>
        <time>2026-04-28T10:05:14.000Z</time>
        <extensions>
          <ns3:TrackPointExtension>
            <ns3:hr>120</ns3:hr>
            <ns3:cad>60</ns3:cad>
          </ns3:TrackPointExtension>
        </extensions>
      </trkpt>
      <trkpt lat="37.0176264457404613494873046875" lon="-8.95713902078568935394287109375">
        <ele>32.200000762939453125</ele>
        <time>2026-04-28T10:05:20.000Z</time>
        <extensions>
          <ns3:TrackPointExtension>
            <ns3:hr>121</ns3:hr>
            <ns3:cad>60</ns3:cad>
          </ns3:TrackPointExtension>
        </extensions>
      </trkpt>
      <trkpt lat="37.01765150763094425201416015625" lon="-8.9571992866694927215576171875">
        <ele>32.59999847412109375</ele>
        <time>2026-04-28T10:05:24.000Z</time>
        <extensions>
          <ns3:TrackPointExtension>
            <ns3:hr>118</ns3:hr>
            <ns3:cad>0</ns3:cad>
          </ns3:TrackPointExtension>
        </extensions>
      </trkpt>
      <trkpt lat="37.01767665334045886993408203125" lon="-8.95724974572658538818359375">
        <ele>32.59999847412109375</ele>
        <time>2026-04-28T10:05:28.000Z</time>
        <extensions>
          <ns3:TrackPointExtension>
            <ns3:hr>115</ns3:hr>
            <ns3:cad>58</ns3:cad>
          </ns3:TrackPointExtension>
        </extensions>
      </trkpt>
      <trkpt lat="37.0177360810339450836181640625" lon="-8.9572871290147304534912109375">
        <ele>32.40000152587890625</ele>
        <time>2026-04-28T10:05:34.000Z</time>
        <extensions>
          <ns3:TrackPointExtension>
            <ns3:hr>116</ns3:hr>
            <ns3:cad>58</ns3:cad>
          </ns3:TrackPointExtension>
        </extensions>
      </trkpt>
      <trkpt lat="37.017764747142791748046875" lon="-8.95733599551022052764892578125">
        <ele>32.59999847412109375</ele>
        <time>2026-04-28T10:05:38.000Z</time>
        <extensions>
          <ns3:TrackPointExtension>
            <ns3:hr>116</ns3:hr>
            <ns3:cad>61</ns3:cad>
          </ns3:TrackPointExtension>
        </extensions>
      </trkpt>
      <trkpt lat="37.017759382724761962890625" lon="-8.9573776535689830780029296875">
        <ele>33</ele>
        <time>2026-04-28T10:05:41.000Z</time>
        <extensions>
          <ns3:TrackPointExtension>
            <ns3:hr>117</ns3:hr>
            <ns3:cad>0</ns3:cad>
          </ns3:TrackPointExtension>
        </extensions>
      </trkpt>
      <trkpt lat="37.0177759788930416107177734375" lon="-8.9573957584798336029052734375">
        <ele>33.200000762939453125</ele>
        <time>2026-04-28T10:05:43.000Z</time>
        <extensions>
          <ns3:TrackPointExtension>
            <ns3:hr>118</ns3:hr>
            <ns3:cad>0</ns3:cad>
          </ns3:TrackPointExtension>
        </extensions>
      </trkpt>
      <trkpt lat="37.01778310351073741912841796875" lon="-8.9574034698307514190673828125">
        <ele>33.200000762939453125</ele>
        <time>2026-04-28T10:05:44.000Z</time>
        <extensions>
          <ns3:TrackPointExtension>
            <ns3:hr>118</ns3:hr>
            <ns3:cad>0</ns3:cad>
          </ns3:TrackPointExtension>
        </extensions>
      </trkpt>
      <trkpt lat="37.01780137605965137481689453125" lon="-8.95743691362440586090087890625">
        <ele>33.40000152587890625</ele>
        <time>2026-04-28T10:05:47.000Z</time>
        <extensions>
          <ns3:TrackPointExtension>
            <ns3:hr>117</ns3:hr>
            <ns3:cad>0</ns3:cad>
          </ns3:TrackPointExtension>
        </extensions>
      </trkpt>
      <trkpt lat="37.01781093142926692962646484375" lon="-8.95749759860336780548095703125">
        <ele>33.59999847412109375</ele>
        <time>2026-04-28T10:05:52.000Z</time>
        <extensions>
          <ns3:TrackPointExtension>
            <ns3:hr>118</ns3:hr>
            <ns3:cad>0</ns3:cad>
          </ns3:TrackPointExtension>
        </extensions>
      </trkpt>
      <trkpt lat="37.017827443778514862060546875" lon="-8.95751855336129665374755859375">
        <ele>33.799999237060546875</ele>
        <time>2026-04-28T10:05:54.000Z</time>
        <extensions>
          <ns3:TrackPointExtension>
            <ns3:hr>121</ns3:hr>
            <ns3:cad>0</ns3:cad>
          </ns3:TrackPointExtension>
        </extensions>
      </trkpt>
      <trkpt lat="37.017856277525424957275390625" lon="-8.9575590379536151885986328125">
        <ele>34.200000762939453125</ele>
        <time>2026-04-28T10:05:58.000Z</time>
        <extensions>
          <ns3:TrackPointExtension>
            <ns3:hr>123</ns3:hr>
            <ns3:cad>55</ns3:cad>
          </ns3:TrackPointExtension>
        </extensions>
      </trkpt>
      <trkpt lat="37.01790145598351955413818359375" lon="-8.957636319100856781005859375">
        <ele>34.200000762939453125</ele>
        <time>2026-04-28T10:06:04.000Z</time>
        <extensions>
          <ns3:TrackPointExtension>
            <ns3:hr>122</ns3:hr>
            <ns3:cad>61</ns3:cad>
          </ns3:TrackPointExtension>
        </extensions>
      </trkpt>
      <trkpt lat="37.01792174018919467926025390625" lon="-8.95768065936863422393798828125">
        <ele>33.200000762939453125</ele>
        <time>2026-04-28T10:06:07.000Z</time>
        <extensions>
          <ns3:TrackPointExtension>
            <ns3:hr>125</ns3:hr>
            <ns3:cad>61</ns3:cad>
          </ns3:TrackPointExtension>
        </extensions>
      </trkpt>
      <trkpt lat="37.01792576350271701812744140625" lon="-8.95769390277564525604248046875">
        <ele>33.200000762939453125</ele>
        <time>2026-04-28T10:06:08.000Z</time>
        <extensions>
          <ns3:TrackPointExtension>
            <ns3:hr>124</ns3:hr>
            <ns3:cad>0</ns3:cad>
          </ns3:TrackPointExtension>
        </extensions>
      </trkpt>
      <trkpt lat="37.0179511606693267822265625" lon="-8.95774419419467449188232421875">
        <ele>33.59999847412109375</ele>
        <time>2026-04-28T10:06:13.000Z</time>
        <extensions>
          <ns3:TrackPointExtension>
            <ns3:hr>123</ns3:hr>
            <ns3:cad>0</ns3:cad>
          </ns3:TrackPointExtension>
        </extensions>
      </trkpt>
      <trkpt lat="37.0179841853678226470947265625" lon="-8.95783656276762485504150390625">
        <ele>34.200000762939453125</ele>
        <time>2026-04-28T10:06:22.000Z</time>
        <extensions>
          <ns3:TrackPointExtension>
            <ns3:hr>124</ns3:hr>
            <ns3:cad>49</ns3:cad>
          </ns3:TrackPointExtension>
        </extensions>
      </trkpt>
      <trkpt lat="37.01802022755146026611328125" lon="-8.9579325355589389801025390625">
        <ele>34.799999237060546875</ele>
        <time>2026-04-28T10:06:29.000Z</time>
        <extensions>
          <ns3:TrackPointExtension>
            <ns3:hr>121</ns3:hr>
            <ns3:cad>58</ns3:cad>
          </ns3:TrackPointExtension>
        </extensions>
      </trkpt>
      <trkpt lat="37.0180338062345981597900390625" lon="-8.95797419361770153045654296875">
        <ele>35.200000762939453125</ele>
        <time>2026-04-28T10:06:32.000Z</time>
        <extensions>
          <ns3:TrackPointExtension>
            <ns3:hr>122</ns3:hr>
            <ns3:cad>59</ns3:cad>
          </ns3:TrackPointExtension>
        </extensions>
      </trkpt>
      <trkpt lat="37.01803942210972309112548828125" lon="-8.9579861797392368316650390625">
        <ele>35.40000152587890625</ele>
        <time>2026-04-28T10:06:33.000Z</time>
        <extensions>
          <ns3:TrackPointExtension>
            <ns3:hr>122</ns3:hr>
            <ns3:cad>59</ns3:cad>
          </ns3:TrackPointExtension>
        </extensions>
      </trkpt>
      <trkpt lat="37.01811066828668117523193359375" lon="-8.95801576785743236541748046875">
        <ele>35</ele>
        <time>2026-04-28T10:06:39.000Z</time>
        <extensions>
          <ns3:TrackPointExtension>
            <ns3:hr>123</ns3:hr>
            <ns3:cad>58</ns3:cad>
          </ns3:TrackPointExtension>
        </extensions>
      </trkpt>
      <trkpt lat="37.0181226544082164764404296875" lon="-8.958015851676464080810546875">
        <ele>34.799999237060546875</ele>
        <time>2026-04-28T10:06:40.000Z</time>
        <extensions>
          <ns3:TrackPointExtension>
            <ns3:hr>126</ns3:hr>
            <ns3:cad>58</ns3:cad>
          </ns3:TrackPointExtension>
        </extensions>
      </trkpt>
      <trkpt lat="37.01827042736113071441650390625" lon="-8.958017863333225250244140625">
        <ele>34.799999237060546875</ele>
        <time>2026-04-28T10:06:51.000Z</time>
        <extensions>
          <ns3:TrackPointExtension>
            <ns3:hr>123</ns3:hr>
            <ns3:cad>60</ns3:cad>
          </ns3:TrackPointExtension>
        </extensions>
      </trkpt>
      <trkpt lat="37.01828417368233203887939453125" lon="-8.958015851676464080810546875">
        <ele>34.799999237060546875</ele>
        <time>2026-04-28T10:06:52.000Z</time>
        <extensions>
          <ns3:TrackPointExtension>
            <ns3:hr>121</ns3:hr>
            <ns3:cad>60</ns3:cad>
          </ns3:TrackPointExtension>
        </extensions>
      </trkpt>
      <trkpt lat="37.0183928869664669036865234375" lon="-8.95804057829082012176513671875">
        <ele>34.799999237060546875</ele>
        <time>2026-04-28T10:07:00.000Z</time>
        <extensions>
          <ns3:TrackPointExtension>
            <ns3:hr>120</ns3:hr>
            <ns3:cad>61</ns3:cad>
          </ns3:TrackPointExtension>
        </extensions>
      </trkpt>
      <trkpt lat="37.01854988001286983489990234375" lon="-8.95808500237762928009033203125">
        <ele>34.59999847412109375</ele>
        <time>2026-04-28T10:07:12.000Z</time>
        <extensions>
          <ns3:TrackPointExtension>
            <ns3:hr>119</ns3:hr>
            <ns3:cad>61</ns3:cad>
          </ns3:TrackPointExtension>
        </extensions>
      </trkpt>
      <trkpt lat="37.0186745189130306243896484375" lon="-8.9581303484737873077392578125">
        <ele>35</ele>
        <time>2026-04-28T10:07:22.000Z</time>
        <extensions>
          <ns3:TrackPointExtension>
            <ns3:hr>118</ns3:hr>
            <ns3:cad>60</ns3:cad>
          </ns3:TrackPointExtension>
        </extensions>
      </trkpt>
      <trkpt lat="37.018801756203174591064453125" lon="-8.9581390656530857086181640625">
        <ele>34.799999237060546875</ele>
        <time>2026-04-28T10:07:32.000Z</time>
        <extensions>
          <ns3:TrackPointExtension>
            <ns3:hr>117</ns3:hr>
            <ns3:cad>59</ns3:cad>
          </ns3:TrackPointExtension>
        </extensions>
      </trkpt>
      <trkpt lat="37.0189179293811321258544921875" lon="-8.958143256604671478271484375">
        <ele>35</ele>
        <time>2026-04-28T10:07:41.000Z</time>
        <extensions>
          <ns3:TrackPointExtension>
            <ns3:hr>115</ns3:hr>
            <ns3:cad>60</ns3:cad>
          </ns3:TrackPointExtension>
        </extensions>
      </trkpt>
      <trkpt lat="37.01902060769498348236083984375" lon="-8.95818650722503662109375">
        <ele>35</ele>
        <time>2026-04-28T10:07:49.000Z</time>
        <extensions>
          <ns3:TrackPointExtension>
            <ns3:hr>112</ns3:hr>
            <ns3:cad>59</ns3:cad>
          </ns3:TrackPointExtension>
        </extensions>
      </trkpt>
      <trkpt lat="37.01903049834072589874267578125" lon="-8.9581937156617641448974609375">
        <ele>35</ele>
        <time>2026-04-28T10:07:50.000Z</time>
        <extensions>
          <ns3:TrackPointExtension>
            <ns3:hr>112</ns3:hr>
            <ns3:cad>59</ns3:cad>
          </ns3:TrackPointExtension>
        </extensions>
      </trkpt>
      <trkpt lat="37.01914700679481029510498046875" lon="-8.9582790434360504150390625">
        <ele>35</ele>
        <time>2026-04-28T10:08:01.000Z</time>
        <extensions>
          <ns3:TrackPointExtension>
            <ns3:hr>113</ns3:hr>
            <ns3:cad>58</ns3:cad>
          </ns3:TrackPointExtension>
        </extensions>
      </trkpt>
      <trkpt lat="37.01917584054172039031982421875" lon="-8.95830930210649967193603515625">
        <ele>35</ele>
        <time>2026-04-28T10:08:04.000Z</time>
        <extensions>
          <ns3:TrackPointExtension>
            <ns3:hr>116</ns3:hr>
            <ns3:cad>58</ns3:cad>
          </ns3:TrackPointExtension>
        </extensions>
      </trkpt>
      <trkpt lat="37.0191975496709346771240234375" lon="-8.958393372595310211181640625">
        <ele>34.59999847412109375</ele>
        <time>2026-04-28T10:08:10.000Z</time>
        <extensions>
          <ns3:TrackPointExtension>
            <ns3:hr>118</ns3:hr>
            <ns3:cad>56</ns3:cad>
          </ns3:TrackPointExtension>
        </extensions>
      </trkpt>
      <trkpt lat="37.01921020634472370147705078125" lon="-8.9584730006754398345947265625">
        <ele>34.40000152587890625</ele>
        <time>2026-04-28T10:08:15.000Z</time>
        <extensions>
          <ns3:TrackPointExtension>
            <ns3:hr>118</ns3:hr>
            <ns3:cad>57</ns3:cad>
          </ns3:TrackPointExtension>
        </extensions>
      </trkpt>
      <trkpt lat="37.01922747306525707244873046875" lon="-8.95853452384471893310546875">
        <ele>33.799999237060546875</ele>
        <time>2026-04-28T10:08:19.000Z</time>
        <extensions>
          <ns3:TrackPointExtension>
            <ns3:hr>117</ns3:hr>
            <ns3:cad>56</ns3:cad>
          </ns3:TrackPointExtension>
        </extensions>
      </trkpt>
      <trkpt lat="37.0192397944629192352294921875" lon="-8.95865882746875286102294921875">
        <ele>34.200000762939453125</ele>
        <time>2026-04-28T10:08:27.000Z</time>
        <extensions>
          <ns3:TrackPointExtension>
            <ns3:hr>116</ns3:hr>
            <ns3:cad>58</ns3:cad>
          </ns3:TrackPointExtension>
        </extensions>
      </trkpt>
      <trkpt lat="37.01930659823119640350341796875" lon="-8.95873778499662876129150390625">
        <ele>34.200000762939453125</ele>
        <time>2026-04-28T10:08:35.000Z</time>
        <extensions>
          <ns3:TrackPointExtension>
            <ns3:hr>114</ns3:hr>
            <ns3:cad>58</ns3:cad>
          </ns3:TrackPointExtension>
        </extensions>
      </trkpt>
      <trkpt lat="37.01937633566558361053466796875" lon="-8.95884792320430278778076171875">
        <ele>35</ele>
        <time>2026-04-28T10:08:43.000Z</time>
        <extensions>
          <ns3:TrackPointExtension>
            <ns3:hr>113</ns3:hr>
            <ns3:cad>57</ns3:cad>
          </ns3:TrackPointExtension>
        </extensions>
      </trkpt>
      <trkpt lat="37.01946820132434368133544921875" lon="-8.95888413302600383758544921875">
        <ele>35</ele>
        <time>2026-04-28T10:08:51.000Z</time>
        <extensions>
          <ns3:TrackPointExtension>
            <ns3:hr>114</ns3:hr>
            <ns3:cad>59</ns3:cad>
          </ns3:TrackPointExtension>
        </extensions>
      </trkpt>
      <trkpt lat="37.0196132920682430267333984375" lon="-8.9588478393852710723876953125">
        <ele>34</ele>
        <time>2026-04-28T10:09:02.000Z</time>
        <extensions>
          <ns3:TrackPointExtension>
            <ns3:hr>115</ns3:hr>
            <ns3:cad>59</ns3:cad>
          </ns3:TrackPointExtension>
        </extensions>
      </trkpt>
      <trkpt lat="37.01977145858108997344970703125" lon="-8.95883233286440372467041015625">
        <ele>34.59999847412109375</ele>
        <time>2026-04-28T10:09:14.000Z</time>
        <extensions>
          <ns3:TrackPointExtension>
            <ns3:hr>115</ns3:hr>
            <ns3:cad>0</ns3:cad>
          </ns3:TrackPointExtension>
        </extensions>
      </trkpt>
      <trkpt lat="37.019849829375743865966796875" lon="-8.95881883800029754638671875">
        <ele>34.40000152587890625</ele>
        <time>2026-04-28T10:09:20.000Z</time>
        <extensions>
          <ns3:TrackPointExtension>
            <ns3:hr>118</ns3:hr>
            <ns3:cad>0</ns3:cad>
          </ns3:TrackPointExtension>
        </extensions>
      </trkpt>
      <trkpt lat="37.01990556903183460235595703125" lon="-8.958818502724170684814453125">
        <ele>34.40000152587890625</ele>
        <time>2026-04-28T10:09:24.000Z</time>
        <extensions>
          <ns3:TrackPointExtension>
            <ns3:hr>118</ns3:hr>
            <ns3:cad>0</ns3:cad>
          </ns3:TrackPointExtension>
        </extensions>
      </trkpt>
      <trkpt lat="37.0200273580849170684814453125" lon="-8.95884440280497074127197265625">
        <ele>34.40000152587890625</ele>
        <time>2026-04-28T10:09:33.000Z</time>
        <extensions>
          <ns3:TrackPointExtension>
            <ns3:hr>118</ns3:hr>
            <ns3:cad>61</ns3:cad>
          </ns3:TrackPointExtension>
        </extensions>
      </trkpt>
      <trkpt lat="37.02011779882013797760009765625" lon="-8.9588689617812633514404296875">
        <ele>34.200000762939453125</ele>
        <time>2026-04-28T10:09:40.000Z</time>
        <extensions>
          <ns3:TrackPointExtension>
            <ns3:hr>117</ns3:hr>
            <ns3:cad>60</ns3:cad>
          </ns3:TrackPointExtension>
        </extensions>
      </trkpt>
      <trkpt lat="37.02023497782647609710693359375" lon="-8.95889720879495143890380859375">
        <ele>34.200000762939453125</ele>
        <time>2026-04-28T10:09:49.000Z</time>
        <extensions>
          <ns3:TrackPointExtension>
            <ns3:hr>117</ns3:hr>
            <ns3:cad>0</ns3:cad>
          </ns3:TrackPointExtension>
        </extensions>
      </trkpt>
      <trkpt lat="37.02035366557538509368896484375" lon="-8.9589272998273372650146484375">
        <ele>34.59999847412109375</ele>
        <time>2026-04-28T10:09:58.000Z</time>
        <extensions>
          <ns3:TrackPointExtension>
            <ns3:hr>116</ns3:hr>
            <ns3:cad>61</ns3:cad>
          </ns3:TrackPointExtension>
        </extensions>
      </trkpt>
      <trkpt lat="37.0204498060047626495361328125" lon="-8.958959989249706268310546875">
        <ele>34.799999237060546875</ele>
        <time>2026-04-28T10:10:06.000Z</time>
        <extensions>
          <ns3:TrackPointExtension>
            <ns3:hr>116</ns3:hr>
            <ns3:cad>59</ns3:cad>
          </ns3:TrackPointExtension>
        </extensions>
      </trkpt>
      <trkpt lat="37.0204803161323070526123046875" lon="-8.9589739032089710235595703125">
        <ele>35.40000152587890625</ele>
        <time>2026-04-28T10:10:09.000Z</time>
        <extensions>
          <ns3:TrackPointExtension>
            <ns3:hr>116</ns3:hr>
            <ns3:cad>57</ns3:cad>
          </ns3:TrackPointExtension>
        </extensions>
      </trkpt>
      <trkpt lat="37.0205332897603511810302734375" lon="-8.9589978754520416259765625">
        <ele>36.200000762939453125</ele>
        <time>2026-04-28T10:10:14.000Z</time>
        <extensions>
          <ns3:TrackPointExtension>
            <ns3:hr>117</ns3:hr>
            <ns3:cad>58</ns3:cad>
          </ns3:TrackPointExtension>
        </extensions>
      </trkpt>
      <trkpt lat="37.020609565079212188720703125" lon="-8.95903551019728183746337890625">
        <ele>36.200000762939453125</ele>
        <time>2026-04-28T10:10:20.000Z</time>
        <extensions>
          <ns3:TrackPointExtension>
            <ns3:hr>120</ns3:hr>
            <ns3:cad>59</ns3:cad>
          </ns3:TrackPointExtension>
        </extensions>
      </trkpt>
      <trkpt lat="37.02067620120942592620849609375" lon="-8.9590557105839252471923828125">
        <ele>35.59999847412109375</ele>
        <time>2026-04-28T10:10:25.000Z</time>
        <extensions>
          <ns3:TrackPointExtension>
            <ns3:hr>122</ns3:hr>
            <ns3:cad>56</ns3:cad>
          </ns3:TrackPointExtension>
        </extensions>
      </trkpt>
      <trkpt lat="37.02077644877135753631591796875" lon="-8.959051854908466339111328125">
        <ele>35.40000152587890625</ele>
        <time>2026-04-28T10:10:33.000Z</time>
        <extensions>
          <ns3:TrackPointExtension>
            <ns3:hr>122</ns3:hr>
            <ns3:cad>60</ns3:cad>
          </ns3:TrackPointExtension>
        </extensions>
      </trkpt>
      <trkpt lat="37.02089915983378887176513671875" lon="-8.9590493403375148773193359375">
        <ele>35</ele>
        <time>2026-04-28T10:10:42.000Z</time>
        <extensions>
          <ns3:TrackPointExtension>
            <ns3:hr>120</ns3:hr>
            <ns3:cad>58</ns3:cad>
          </ns3:TrackPointExtension>
        </extensions>
      </trkpt>
      <trkpt lat="37.02097660861909389495849609375" lon="-8.95906350575387477874755859375">
        <ele>34.40000152587890625</ele>
        <time>2026-04-28T10:10:48.000Z</time>
        <extensions>
          <ns3:TrackPointExtension>
            <ns3:hr>117</ns3:hr>
            <ns3:cad>57</ns3:cad>
          </ns3:TrackPointExtension>
        </extensions>
      </trkpt>
      <trkpt lat="37.02098834328353404998779296875" lon="-8.95906752906739711761474609375">
        <ele>34.40000152587890625</ele>
        <time>2026-04-28T10:10:49.000Z</time>
        <extensions>
          <ns3:TrackPointExtension>
            <ns3:hr>116</ns3:hr>
            <ns3:cad>59</ns3:cad>
          </ns3:TrackPointExtension>
        </extensions>
      </trkpt>
      <trkpt lat="37.021013237535953521728515625" lon="-8.9590815268456935882568359375">
        <ele>34.40000152587890625</ele>
        <time>2026-04-28T10:10:51.000Z</time>
        <extensions>
          <ns3:TrackPointExtension>
            <ns3:hr>115</ns3:hr>
            <ns3:cad>59</ns3:cad>
          </ns3:TrackPointExtension>
        </extensions>
      </trkpt>
      <trkpt lat="37.0210254751145839691162109375" lon="-8.9590791799128055572509765625">
        <ele>34.200000762939453125</ele>
        <time>2026-04-28T10:10:52.000Z</time>
        <extensions>
          <ns3:TrackPointExtension>
            <ns3:hr>115</ns3:hr>
            <ns3:cad>59</ns3:cad>
          </ns3:TrackPointExtension>
        </extensions>
      </trkpt>
      <trkpt lat="37.021063864231109619140625" lon="-8.95906048826873302459716796875">
        <ele>34.200000762939453125</ele>
        <time>2026-04-28T10:10:55.000Z</time>
        <extensions>
          <ns3:TrackPointExtension>
            <ns3:hr>114</ns3:hr>
            <ns3:cad>61</ns3:cad>
          </ns3:TrackPointExtension>
        </extensions>
      </trkpt>
      <trkpt lat="37.021209709346294403076171875" lon="-8.95899293012917041778564453125">
        <ele>34.200000762939453125</ele>
        <time>2026-04-28T10:11:07.000Z</time>
        <extensions>
          <ns3:TrackPointExtension>
            <ns3:hr>114</ns3:hr>
            <ns3:cad>59</ns3:cad>
          </ns3:TrackPointExtension>
        </extensions>
      </trkpt>
      <trkpt lat="37.0213550515472888946533203125" lon="-8.95895353518426418304443359375">
        <ele>34.200000762939453125</ele>
        <time>2026-04-28T10:11:18.000Z</time>
        <extensions>
          <ns3:TrackPointExtension>
            <ns3:hr>114</ns3:hr>
            <ns3:cad>60</ns3:cad>
          </ns3:TrackPointExtension>
        </extensions>
      </trkpt>
      <trkpt lat="37.02146074734628200531005859375" lon="-8.9589561335742473602294921875">
        <ele>35</ele>
        <time>2026-04-28T10:11:27.000Z</time>
        <extensions>
          <ns3:TrackPointExtension>
            <ns3:hr>111</ns3:hr>
            <ns3:cad>59</ns3:cad>
          </ns3:TrackPointExtension>
        </extensions>
      </trkpt>
      <trkpt lat="37.0215763337910175323486328125" lon="-8.95903919823467731475830078125">
        <ele>35.200000762939453125</ele>
        <time>2026-04-28T10:11:37.000Z</time>
        <extensions>
          <ns3:TrackPointExtension>
            <ns3:hr>113</ns3:hr>
            <ns3:cad>0</ns3:cad>
          </ns3:TrackPointExtension>
        </extensions>
      </trkpt>
      <trkpt lat="37.021608017385005950927734375" lon="-8.95906426012516021728515625">
        <ele>35.40000152587890625</ele>
        <time>2026-04-28T10:11:40.000Z</time>
        <extensions>
          <ns3:TrackPointExtension>
            <ns3:hr>114</ns3:hr>
            <ns3:cad>58</ns3:cad>
          </ns3:TrackPointExtension>
        </extensions>
      </trkpt>
      <trkpt lat="37.02164732851088047027587890625" lon="-8.95912192761898040771484375">
        <ele>35.799999237060546875</ele>
        <time>2026-04-28T10:11:44.000Z</time>
        <extensions>
          <ns3:TrackPointExtension>
            <ns3:hr>113</ns3:hr>
            <ns3:cad>57</ns3:cad>
          </ns3:TrackPointExtension>
        </extensions>
      </trkpt>
      <trkpt lat="37.02167876064777374267578125" lon="-8.9592660963535308837890625">
        <ele>35.40000152587890625</ele>
        <time>2026-04-28T10:11:53.000Z</time>
        <extensions>
          <ns3:TrackPointExtension>
            <ns3:hr>114</ns3:hr>
            <ns3:cad>57</ns3:cad>
          </ns3:TrackPointExtension>
        </extensions>
      </trkpt>
      <trkpt lat="37.02167146839201450347900390625" lon="-8.95942459814250469207763671875">
        <ele>35.200000762939453125</ele>
        <time>2026-04-28T10:12:02.000Z</time>
        <extensions>
          <ns3:TrackPointExtension>
            <ns3:hr>115</ns3:hr>
            <ns3:cad>58</ns3:cad>
          </ns3:TrackPointExtension>
        </extensions>
      </trkpt>
      <trkpt lat="37.0216370187699794769287109375" lon="-8.959579579532146453857421875">
        <ele>35.200000762939453125</ele>
        <time>2026-04-28T10:12:12.000Z</time>
        <extensions>
          <ns3:TrackPointExtension>
            <ns3:hr>117</ns3:hr>
            <ns3:cad>58</ns3:cad>
          </ns3:TrackPointExtension>
        </extensions>
      </trkpt>
      <trkpt lat="37.02161732129752635955810546875" lon="-8.95973271690309047698974609375">
        <ele>35.200000762939453125</ele>
        <time>2026-04-28T10:12:22.000Z</time>
        <extensions>
          <ns3:TrackPointExtension>
            <ns3:hr>117</ns3:hr>
            <ns3:cad>59</ns3:cad>
          </ns3:TrackPointExtension>
        </extensions>
      </trkpt>
      <trkpt lat="37.0215837098658084869384765625" lon="-8.959910161793231964111328125">
        <ele>35.200000762939453125</ele>
        <time>2026-04-28T10:12:32.000Z</time>
        <extensions>
          <ns3:TrackPointExtension>
            <ns3:hr>116</ns3:hr>
            <ns3:cad>58</ns3:cad>
          </ns3:TrackPointExtension>
        </extensions>
      </trkpt>
      <trkpt lat="37.02157725580036640167236328125" lon="-8.96002407185733318328857421875">
        <ele>35</ele>
        <time>2026-04-28T10:12:39.000Z</time>
        <extensions>
          <ns3:TrackPointExtension>
            <ns3:hr>115</ns3:hr>
            <ns3:cad>61</ns3:cad>
          </ns3:TrackPointExtension>
        </extensions>
      </trkpt>
      <trkpt lat="37.02162754721939563751220703125" lon="-8.9600689150393009185791015625">
        <ele>35.200000762939453125</ele>
        <time>2026-04-28T10:12:45.000Z</time>
        <extensions>
          <ns3:TrackPointExtension>
            <ns3:hr>114</ns3:hr>
            <ns3:cad>60</ns3:cad>
          </ns3:TrackPointExtension>
        </extensions>
      </trkpt>
      <trkpt lat="37.0217386074364185333251953125" lon="-8.96015617065131664276123046875">
        <ele>35.799999237060546875</ele>
        <time>2026-04-28T10:12:55.000Z</time>
        <extensions>
          <ns3:TrackPointExtension>
            <ns3:hr>116</ns3:hr>
            <ns3:cad>61</ns3:cad>
          </ns3:TrackPointExtension>
        </extensions>
      </trkpt>
      <trkpt lat="37.021833322942256927490234375" lon="-8.96022406406700611114501953125">
        <ele>36</ele>
        <time>2026-04-28T10:13:03.000Z</time>
        <extensions>
          <ns3:TrackPointExtension>
            <ns3:hr>115</ns3:hr>
            <ns3:cad>59</ns3:cad>
          </ns3:TrackPointExtension>
        </extensions>
      </trkpt>
      <trkpt lat="37.0218805968761444091796875" lon="-8.96025516092777252197265625">
        <ele>36</ele>
        <time>2026-04-28T10:13:07.000Z</time>
        <extensions>
          <ns3:TrackPointExtension>
            <ns3:hr>112</ns3:hr>
            <ns3:cad>59</ns3:cad>
          </ns3:TrackPointExtension>
        </extensions>
      </trkpt>
      <trkpt lat="37.021913789212703704833984375" lon="-8.96028039045631885528564453125">
        <ele>36.40000152587890625</ele>
        <time>2026-04-28T10:13:10.000Z</time>
        <extensions>
          <ns3:TrackPointExtension>
            <ns3:hr>111</ns3:hr>
            <ns3:cad>0</ns3:cad>
          </ns3:TrackPointExtension>
        </extensions>
      </trkpt>
      <trkpt lat="37.02193331904709339141845703125" lon="-8.96029866300523281097412109375">
        <ele>36.40000152587890625</ele>
        <time>2026-04-28T10:13:12.000Z</time>
        <extensions>
          <ns3:TrackPointExtension>
            <ns3:hr>110</ns3:hr>
            <ns3:cad>0</ns3:cad>
          </ns3:TrackPointExtension>
        </extensions>
      </trkpt>
      <trkpt lat="37.02199869789183139801025390625" lon="-8.96035264246165752410888671875">
        <ele>36</ele>
        <time>2026-04-28T10:13:19.000Z</time>
        <extensions>
          <ns3:TrackPointExtension>
            <ns3:hr>112</ns3:hr>
            <ns3:cad>0</ns3:cad>
          </ns3:TrackPointExtension>
        </extensions>
      </trkpt>
      <trkpt lat="37.0220769010484218597412109375" lon="-8.96035465411841869354248046875">
        <ele>36.200000762939453125</ele>
        <time>2026-04-28T10:13:25.000Z</time>
        <extensions>
          <ns3:TrackPointExtension>
            <ns3:hr>115</ns3:hr>
            <ns3:cad>56</ns3:cad>
          </ns3:TrackPointExtension>
        </extensions>
      </trkpt>
      <trkpt lat="37.0221003703773021697998046875" lon="-8.9603658020496368408203125">
        <ele>36.200000762939453125</ele>
        <time>2026-04-28T10:13:27.000Z</time>
        <extensions>
          <ns3:TrackPointExtension>
            <ns3:hr>115</ns3:hr>
            <ns3:cad>59</ns3:cad>
          </ns3:TrackPointExtension>
        </extensions>
      </trkpt>
      <trkpt lat="37.02213582582771778106689453125" lon="-8.96039505489170551300048828125">
        <ele>36.40000152587890625</ele>
        <time>2026-04-28T10:13:32.000Z</time>
        <extensions>
          <ns3:TrackPointExtension>
            <ns3:hr>112</ns3:hr>
            <ns3:cad>0</ns3:cad>
          </ns3:TrackPointExtension>
        </extensions>
      </trkpt>
      <trkpt lat="37.0221369154751300811767578125" lon="-8.96039857529103755950927734375">
        <ele>36.40000152587890625</ele>
        <time>2026-04-28T10:13:33.000Z</time>
        <extensions>
          <ns3:TrackPointExtension>
            <ns3:hr>111</ns3:hr>
            <ns3:cad>0</ns3:cad>
          </ns3:TrackPointExtension>
        </extensions>
      </trkpt>
      <trkpt lat="37.02213817276060581207275390625" lon="-8.96039606072008609771728515625">
        <ele>36.200000762939453125</ele>
        <time>2026-04-28T10:13:42.000Z</time>
        <extensions>
          <ns3:TrackPointExtension>
            <ns3:hr>124</ns3:hr>
            <ns3:cad>0</ns3:cad>
          </ns3:TrackPointExtension>
        </extensions>
      </trkpt>
      <trkpt lat="37.02213817276060581207275390625" lon="-8.96039606072008609771728515625">
        <ele>36.200000762939453125</ele>
        <time>2026-04-28T10:13:43.000Z</time>
        <extensions>
          <ns3:TrackPointExtension>
            <ns3:hr>131</ns3:hr>
            <ns3:cad>0</ns3:cad>
          </ns3:TrackPointExtension>
        </extensions>
      </trkpt>
      <trkpt lat="37.0221675932407379150390625" lon="-8.96039220504462718963623046875">
        <ele>36.200000762939453125</ele>
        <time>2026-04-28T10:13:52.000Z</time>
        <extensions>
          <ns3:TrackPointExtension>
            <ns3:hr>131</ns3:hr>
            <ns3:cad>0</ns3:cad>
          </ns3:TrackPointExtension>
        </extensions>
      </trkpt>
      <trkpt lat="37.0222435332834720611572265625" lon="-8.96037544123828411102294921875">
        <ele>37.200000762939453125</ele>
        <time>2026-04-28T10:13:59.000Z</time>
        <extensions>
          <ns3:TrackPointExtension>
            <ns3:hr>130</ns3:hr>
            <ns3:cad>59</ns3:cad>
          </ns3:TrackPointExtension>
        </extensions>
      </trkpt>
      <trkpt lat="37.0223159529268741607666015625" lon="-8.96038332022726535797119140625">
        <ele>37</ele>
        <time>2026-04-28T10:14:05.000Z</time>
        <extensions>
          <ns3:TrackPointExtension>
            <ns3:hr>129</ns3:hr>
            <ns3:cad>58</ns3:cad>
          </ns3:TrackPointExtension>
        </extensions>
      </trkpt>
      <trkpt lat="37.02233665622770786285400390625" lon="-8.9604008384048938751220703125">
        <ele>37.40000152587890625</ele>
        <time>2026-04-28T10:14:07.000Z</time>
        <extensions>
          <ns3:TrackPointExtension>
            <ns3:hr>128</ns3:hr>
            <ns3:cad>58</ns3:cad>
          </ns3:TrackPointExtension>
        </extensions>
      </trkpt>
      <trkpt lat="37.02234621159732341766357421875" lon="-8.96041483618319034576416015625">
        <ele>37.40000152587890625</ele>
        <time>2026-04-28T10:14:08.000Z</time>
        <extensions>
          <ns3:TrackPointExtension>
            <ns3:hr>129</ns3:hr>
            <ns3:cad>58</ns3:cad>
          </ns3:TrackPointExtension>
        </extensions>
      </trkpt>
      <trkpt lat="37.0223830081522464752197265625" lon="-8.9605104736983776092529296875">
        <ele>37.59999847412109375</ele>
        <time>2026-04-28T10:14:14.000Z</time>
        <extensions>
          <ns3:TrackPointExtension>
            <ns3:hr>131</ns3:hr>
            <ns3:cad>61</ns3:cad>
          </ns3:TrackPointExtension>
        </extensions>
      </trkpt>
      <trkpt lat="37.022449560463428497314453125" lon="-8.96059957332909107208251953125">
        <ele>37.799999237060546875</ele>
        <time>2026-04-28T10:14:22.000Z</time>
        <extensions>
          <ns3:TrackPointExtension>
            <ns3:hr>131</ns3:hr>
            <ns3:cad>59</ns3:cad>
          </ns3:TrackPointExtension>
        </extensions>
      </trkpt>
      <trkpt lat="37.02244612388312816619873046875" lon="-8.96071071736514568328857421875">
        <ele>37.799999237060546875</ele>
        <time>2026-04-28T10:14:29.000Z</time>
        <extensions>
          <ns3:TrackPointExtension>
            <ns3:hr>130</ns3:hr>
            <ns3:cad>60</ns3:cad>
          </ns3:TrackPointExtension>
        </extensions>
      </trkpt>
      <trkpt lat="37.0224705152213573455810546875" lon="-8.96083594299852848052978515625">
        <ele>38.200000762939453125</ele>
        <time>2026-04-28T10:14:37.000Z</time>
        <extensions>
          <ns3:TrackPointExtension>
            <ns3:hr>128</ns3:hr>
            <ns3:cad>60</ns3:cad>
          </ns3:TrackPointExtension>
        </extensions>
      </trkpt>
      <trkpt lat="37.0224691741168498992919921875" lon="-8.96096058189868927001953125">
        <ele>38</ele>
        <time>2026-04-28T10:14:45.000Z</time>
        <extensions>
          <ns3:TrackPointExtension>
            <ns3:hr>127</ns3:hr>
            <ns3:cad>61</ns3:cad>
          </ns3:TrackPointExtension>
        </extensions>
      </trkpt>
      <trkpt lat="37.0224564336240291595458984375" lon="-8.96104414947330951690673828125">
        <ele>38</ele>
        <time>2026-04-28T10:14:51.000Z</time>
        <extensions>
          <ns3:TrackPointExtension>
            <ns3:hr>124</ns3:hr>
            <ns3:cad>0</ns3:cad>
          </ns3:TrackPointExtension>
        </extensions>
      </trkpt>
      <trkpt lat="37.02245752327144145965576171875" lon="-8.9610626734793186187744140625">
        <ele>38</ele>
        <time>2026-04-28T10:14:52.000Z</time>
        <extensions>
          <ns3:TrackPointExtension>
            <ns3:hr>122</ns3:hr>
            <ns3:cad>0</ns3:cad>
          </ns3:TrackPointExtension>
        </extensions>
      </trkpt>
      <trkpt lat="37.0224599540233612060546875" lon="-8.96108002401888370513916015625">
        <ele>38</ele>
        <time>2026-04-28T10:14:53.000Z</time>
        <extensions>
          <ns3:TrackPointExtension>
            <ns3:hr>118</ns3:hr>
            <ns3:cad>0</ns3:cad>
          </ns3:TrackPointExtension>
        </extensions>
      </trkpt>
      <trkpt lat="37.022449560463428497314453125" lon="-8.96110944449901580810546875">
        <ele>37.799999237060546875</ele>
        <time>2026-04-28T10:14:55.000Z</time>
        <extensions>
          <ns3:TrackPointExtension>
            <ns3:hr>114</ns3:hr>
            <ns3:cad>58</ns3:cad>
          </ns3:TrackPointExtension>
        </extensions>
      </trkpt>
      <trkpt lat="37.02242382802069187164306640625" lon="-8.9611417986452579498291015625">
        <ele>37.59999847412109375</ele>
        <time>2026-04-28T10:14:58.000Z</time>
        <extensions>
          <ns3:TrackPointExtension>
            <ns3:hr>112</ns3:hr>
            <ns3:cad>58</ns3:cad>
          </ns3:TrackPointExtension>
        </extensions>
      </trkpt>
      <trkpt lat="37.0224084891378879547119140625" lon="-8.96118110977113246917724609375">
        <ele>37.59999847412109375</ele>
        <time>2026-04-28T10:15:01.000Z</time>
        <extensions>
          <ns3:TrackPointExtension>
            <ns3:hr>113</ns3:hr>
            <ns3:cad>58</ns3:cad>
          </ns3:TrackPointExtension>
        </extensions>
      </trkpt>
      <trkpt lat="37.02242164872586727142333984375" lon="-8.9612071774899959564208984375">
        <ele>37.59999847412109375</ele>
        <time>2026-04-28T10:15:03.000Z</time>
        <extensions>
          <ns3:TrackPointExtension>
            <ns3:hr>112</ns3:hr>
            <ns3:cad>62</ns3:cad>
          </ns3:TrackPointExtension>
        </extensions>
      </trkpt>
      <trkpt lat="37.0224706828594207763671875" lon="-8.9613355882465839385986328125">
        <ele>37.799999237060546875</ele>
        <time>2026-04-28T10:15:11.000Z</time>
        <extensions>
          <ns3:TrackPointExtension>
            <ns3:hr>112</ns3:hr>
            <ns3:cad>61</ns3:cad>
          </ns3:TrackPointExtension>
        </extensions>
      </trkpt>
      <trkpt lat="37.022530026733875274658203125" lon="-8.96147497929632663726806640625">
        <ele>38</ele>
        <time>2026-04-28T10:15:21.000Z</time>
        <extensions>
          <ns3:TrackPointExtension>
            <ns3:hr>111</ns3:hr>
            <ns3:cad>61</ns3:cad>
          </ns3:TrackPointExtension>
        </extensions>
      </trkpt>
      <trkpt lat="37.02256481163203716278076171875" lon="-8.96156164817512035369873046875">
        <ele>38</ele>
        <time>2026-04-28T10:15:27.000Z</time>
        <extensions>
          <ns3:TrackPointExtension>
            <ns3:hr>112</ns3:hr>
            <ns3:cad>60</ns3:cad>
          </ns3:TrackPointExtension>
        </extensions>
      </trkpt>
      <trkpt lat="37.02257671393454074859619140625" lon="-8.96168653853237628936767578125">
        <ele>38.200000762939453125</ele>
        <time>2026-04-28T10:15:35.000Z</time>
        <extensions>
          <ns3:TrackPointExtension>
            <ns3:hr>110</ns3:hr>
            <ns3:cad>57</ns3:cad>
          </ns3:TrackPointExtension>
        </extensions>
      </trkpt>
      <trkpt lat="37.02258325181901454925537109375" lon="-8.9618103392422199249267578125">
        <ele>38.200000762939453125</ele>
        <time>2026-04-28T10:15:43.000Z</time>
        <extensions>
          <ns3:TrackPointExtension>
            <ns3:hr>109</ns3:hr>
            <ns3:cad>57</ns3:cad>
          </ns3:TrackPointExtension>
        </extensions>
      </trkpt>
      <trkpt lat="37.022631950676441192626953125" lon="-8.9618780650198459625244140625">
        <ele>38.200000762939453125</ele>
        <time>2026-04-28T10:15:49.000Z</time>
        <extensions>
          <ns3:TrackPointExtension>
            <ns3:hr>109</ns3:hr>
            <ns3:cad>57</ns3:cad>
          </ns3:TrackPointExtension>
        </extensions>
      </trkpt>
      <trkpt lat="37.022709064185619354248046875" lon="-8.96193958818912506103515625">
        <ele>38.200000762939453125</ele>
        <time>2026-04-28T10:15:56.000Z</time>
        <extensions>
          <ns3:TrackPointExtension>
            <ns3:hr>110</ns3:hr>
            <ns3:cad>60</ns3:cad>
          </ns3:TrackPointExtension>
        </extensions>
      </trkpt>
      <trkpt lat="37.0227628760039806365966796875" lon="-8.961982168257236480712890625">
        <ele>38.59999847412109375</ele>
        <time>2026-04-28T10:16:01.000Z</time>
        <extensions>
          <ns3:TrackPointExtension>
            <ns3:hr>110</ns3:hr>
            <ns3:cad>59</ns3:cad>
          </ns3:TrackPointExtension>
        </extensions>
      </trkpt>
      <trkpt lat="37.02279648743569850921630859375" lon="-8.96198443137109279632568359375">
        <ele>38.40000152587890625</ele>
        <time>2026-04-28T10:16:04.000Z</time>
        <extensions>
          <ns3:TrackPointExtension>
            <ns3:hr>110</ns3:hr>
            <ns3:cad>0</ns3:cad>
          </ns3:TrackPointExtension>
        </extensions>
      </trkpt>
      <trkpt lat="37.0228728465735912322998046875" lon="-8.96199717186391353607177734375">
        <ele>39.200000762939453125</ele>
        <time>2026-04-28T10:16:10.000Z</time>
        <extensions>
          <ns3:TrackPointExtension>
            <ns3:hr>110</ns3:hr>
            <ns3:cad>0</ns3:cad>
          </ns3:TrackPointExtension>
        </extensions>
      </trkpt>
      <trkpt lat="37.0229325257241725921630859375" lon="-8.9619662426412105560302734375">
        <ele>38.799999237060546875</ele>
        <time>2026-04-28T10:16:15.000Z</time>
        <extensions>
          <ns3:TrackPointExtension>
            <ns3:hr>113</ns3:hr>
            <ns3:cad>0</ns3:cad>
          </ns3:TrackPointExtension>
        </extensions>
      </trkpt>
      <trkpt lat="37.02295876108109951019287109375" lon="-8.96195928566157817840576171875">
        <ele>39</ele>
        <time>2026-04-28T10:16:17.000Z</time>
        <extensions>
          <ns3:TrackPointExtension>
            <ns3:hr>113</ns3:hr>
            <ns3:cad>0</ns3:cad>
          </ns3:TrackPointExtension>
        </extensions>
      </trkpt>
      <trkpt lat="37.0230257324874401092529296875" lon="-8.96195123903453350067138671875">
        <ele>39</ele>
        <time>2026-04-28T10:16:22.000Z</time>
        <extensions>
          <ns3:TrackPointExtension>
            <ns3:hr>116</ns3:hr>
            <ns3:cad>61</ns3:cad>
          </ns3:TrackPointExtension>
        </extensions>
      </trkpt>
      <trkpt lat="37.02308113686740398406982421875" lon="-8.96193061955273151397705078125">
        <ele>38.799999237060546875</ele>
        <time>2026-04-28T10:16:26.000Z</time>
        <extensions>
          <ns3:TrackPointExtension>
            <ns3:hr>117</ns3:hr>
            <ns3:cad>62</ns3:cad>
          </ns3:TrackPointExtension>
        </extensions>
      </trkpt>
      <trkpt lat="37.02317602001130580902099609375" lon="-8.961868174374103546142578125">
        <ele>39</ele>
        <time>2026-04-28T10:16:34.000Z</time>
        <extensions>
          <ns3:TrackPointExtension>
            <ns3:hr>117</ns3:hr>
            <ns3:cad>59</ns3:cad>
          </ns3:TrackPointExtension>
        </extensions>
      </trkpt>
      <trkpt lat="37.0232512056827545166015625" lon="-8.9618911407887935638427734375">
        <ele>38.59999847412109375</ele>
        <time>2026-04-28T10:16:41.000Z</time>
        <extensions>
          <ns3:TrackPointExtension>
            <ns3:hr>117</ns3:hr>
            <ns3:cad>59</ns3:cad>
          </ns3:TrackPointExtension>
        </extensions>
      </trkpt>
      <trkpt lat="37.0232661254703998565673828125" lon="-8.9619001932442188262939453125">
        <ele>38</ele>
        <time>2026-04-28T10:16:48.000Z</time>
        <extensions>
          <ns3:TrackPointExtension>
            <ns3:hr>116</ns3:hr>
            <ns3:cad>0</ns3:cad>
          </ns3:TrackPointExtension>
        </extensions>
      </trkpt>
      <trkpt lat="37.0232714898884296417236328125" lon="-8.961909748613834381103515625">
        <ele>38.200000762939453125</ele>
        <time>2026-04-28T10:16:55.000Z</time>
        <extensions>
          <ns3:TrackPointExtension>
            <ns3:hr>117</ns3:hr>
            <ns3:cad>0</ns3:cad>
          </ns3:TrackPointExtension>
        </extensions>
      </trkpt>
      <trkpt lat="37.023299820721149444580078125" lon="-8.96196230314671993255615234375">
        <ele>37.59999847412109375</ele>
        <time>2026-04-28T10:17:00.000Z</time>
        <extensions>
          <ns3:TrackPointExtension>
            <ns3:hr>118</ns3:hr>
            <ns3:cad>61</ns3:cad>
          </ns3:TrackPointExtension>
        </extensions>
      </trkpt>
      <trkpt lat="37.023372240364551544189453125" lon="-8.96206607110798358917236328125">
        <ele>38.200000762939453125</ele>
        <time>2026-04-28T10:17:08.000Z</time>
        <extensions>
          <ns3:TrackPointExtension>
            <ns3:hr>117</ns3:hr>
            <ns3:cad>59</ns3:cad>
          </ns3:TrackPointExtension>
        </extensions>
      </trkpt>
      <trkpt lat="37.02338003553450107574462890625" lon="-8.96213949657976627349853515625">
        <ele>39.799999237060546875</ele>
        <time>2026-04-28T10:17:12.000Z</time>
        <extensions>
          <ns3:TrackPointExtension>
            <ns3:hr>115</ns3:hr>
            <ns3:cad>61</ns3:cad>
          </ns3:TrackPointExtension>
        </extensions>
      </trkpt>
      <trkpt lat="37.02338288538157939910888671875" lon="-8.96217352710664272308349609375">
        <ele>40</ele>
        <time>2026-04-28T10:17:14.000Z</time>
        <extensions>
          <ns3:TrackPointExtension>
            <ns3:hr>115</ns3:hr>
            <ns3:cad>0</ns3:cad>
          </ns3:TrackPointExtension>
        </extensions>
      </trkpt>
      <trkpt lat="37.0233988948166370391845703125" lon="-8.96229204721748828887939453125">
        <ele>39.799999237060546875</ele>
        <time>2026-04-28T10:17:21.000Z</time>
        <extensions>
          <ns3:TrackPointExtension>
            <ns3:hr>114</ns3:hr>
            <ns3:cad>0</ns3:cad>
          </ns3:TrackPointExtension>
        </extensions>
      </trkpt>
      <trkpt lat="37.023411802947521209716796875" lon="-8.96233898587524890899658203125">
        <ele>40.200000762939453125</ele>
        <time>2026-04-28T10:17:24.000Z</time>
        <extensions>
          <ns3:TrackPointExtension>
            <ns3:hr>111</ns3:hr>
            <ns3:cad>59</ns3:cad>
          </ns3:TrackPointExtension>
        </extensions>
      </trkpt>
      <trkpt lat="37.02346217818558216094970703125" lon="-8.9623964019119739532470703125">
        <ele>40</ele>
        <time>2026-04-28T10:17:29.000Z</time>
        <extensions>
          <ns3:TrackPointExtension>
            <ns3:hr>110</ns3:hr>
            <ns3:cad>63</ns3:cad>
          </ns3:TrackPointExtension>
        </extensions>
      </trkpt>
      <trkpt lat="37.02355387620627880096435546875" lon="-8.96246370859444141387939453125">
        <ele>40</ele>
        <time>2026-04-28T10:17:37.000Z</time>
        <extensions>
          <ns3:TrackPointExtension>
            <ns3:hr>113</ns3:hr>
            <ns3:cad>61</ns3:cad>
          </ns3:TrackPointExtension>
        </extensions>
      </trkpt>
      <trkpt lat="37.02356309629976749420166015625" lon="-8.96247980184853076934814453125">
        <ele>40</ele>
        <time>2026-04-28T10:17:38.000Z</time>
        <extensions>
          <ns3:TrackPointExtension>
            <ns3:hr>113</ns3:hr>
            <ns3:cad>61</ns3:cad>
          </ns3:TrackPointExtension>
        </extensions>
      </trkpt>
      <trkpt lat="37.02358857728540897369384765625" lon="-8.96255314350128173828125">
        <ele>40</ele>
        <time>2026-04-28T10:17:43.000Z</time>
        <extensions>
          <ns3:TrackPointExtension>
            <ns3:hr>116</ns3:hr>
            <ns3:cad>60</ns3:cad>
          </ns3:TrackPointExtension>
        </extensions>
      </trkpt>
      <trkpt lat="37.023583464324474334716796875" lon="-8.9625999145209789276123046875">
        <ele>39.799999237060546875</ele>
        <time>2026-04-28T10:17:46.000Z</time>
        <extensions>
          <ns3:TrackPointExtension>
            <ns3:hr>117</ns3:hr>
            <ns3:cad>57</ns3:cad>
          </ns3:TrackPointExtension>
        </extensions>
      </trkpt>
      <trkpt lat="37.02356443740427494049072265625" lon="-8.96264509297907352447509765625">
        <ele>39.799999237060546875</ele>
        <time>2026-04-28T10:17:53.000Z</time>
        <extensions>
          <ns3:TrackPointExtension>
            <ns3:hr>116</ns3:hr>
            <ns3:cad>0</ns3:cad>
          </ns3:TrackPointExtension>
        </extensions>
      </trkpt>
      <trkpt lat="37.0235722325742244720458984375" lon="-8.96264526061713695526123046875">
        <ele>39.40000152587890625</ele>
        <time>2026-04-28T10:17:58.000Z</time>
        <extensions>
          <ns3:TrackPointExtension>
            <ns3:hr>116</ns3:hr>
            <ns3:cad>0</ns3:cad>
          </ns3:TrackPointExtension>
        </extensions>
      </trkpt>
      <trkpt lat="37.02366133220493793487548828125" lon="-8.962682224810123443603515625">
        <ele>39.799999237060546875</ele>
        <time>2026-04-28T10:18:05.000Z</time>
        <extensions>
          <ns3:TrackPointExtension>
            <ns3:hr>114</ns3:hr>
            <ns3:cad>58</ns3:cad>
          </ns3:TrackPointExtension>
        </extensions>
      </trkpt>
      <trkpt lat="37.023697793483734130859375" lon="-8.96272555924952030181884765625">
        <ele>40</ele>
        <time>2026-04-28T10:18:09.000Z</time>
        <extensions>
          <ns3:TrackPointExtension>
            <ns3:hr>110</ns3:hr>
            <ns3:cad>58</ns3:cad>
          </ns3:TrackPointExtension>
        </extensions>
      </trkpt>
      <trkpt lat="37.02372126281261444091796875" lon="-8.962745927274227142333984375">
        <ele>39.799999237060546875</ele>
        <time>2026-04-28T10:18:11.000Z</time>
        <extensions>
          <ns3:TrackPointExtension>
            <ns3:hr>109</ns3:hr>
            <ns3:cad>58</ns3:cad>
          </ns3:TrackPointExtension>
        </extensions>
      </trkpt>
      <trkpt lat="37.02375638298690319061279296875" lon="-8.9628389663994312286376953125">
        <ele>40</ele>
        <time>2026-04-28T10:18:17.000Z</time>
        <extensions>
          <ns3:TrackPointExtension>
            <ns3:hr>109</ns3:hr>
            <ns3:cad>60</ns3:cad>
          </ns3:TrackPointExtension>
        </extensions>
      </trkpt>
      <trkpt lat="37.023824863135814666748046875" lon="-8.96294550038874149322509765625">
        <ele>40</ele>
        <time>2026-04-28T10:18:25.000Z</time>
        <extensions>
          <ns3:TrackPointExtension>
            <ns3:hr>110</ns3:hr>
            <ns3:cad>62</ns3:cad>
          </ns3:TrackPointExtension>
        </extensions>
      </trkpt>
      <trkpt lat="37.02390323393046855926513671875" lon="-8.96303367801010608673095703125">
        <ele>40.200000762939453125</ele>
        <time>2026-04-28T10:18:33.000Z</time>
        <extensions>
          <ns3:TrackPointExtension>
            <ns3:hr>111</ns3:hr>
            <ns3:cad>61</ns3:cad>
          </ns3:TrackPointExtension>
        </extensions>
      </trkpt>
      <trkpt lat="37.02398872934281826019287109375" lon="-8.96313979290425777435302734375">
        <ele>40.799999237060546875</ele>
        <time>2026-04-28T10:18:42.000Z</time>
        <extensions>
          <ns3:TrackPointExtension>
            <ns3:hr>114</ns3:hr>
            <ns3:cad>59</ns3:cad>
          </ns3:TrackPointExtension>
        </extensions>
      </trkpt>
      <trkpt lat="37.02408981509506702423095703125" lon="-8.96319352090358734130859375">
        <ele>41.40000152587890625</ele>
        <time>2026-04-28T10:18:51.000Z</time>
        <extensions>
          <ns3:TrackPointExtension>
            <ns3:hr>116</ns3:hr>
            <ns3:cad>58</ns3:cad>
          </ns3:TrackPointExtension>
        </extensions>
      </trkpt>
      <trkpt lat="37.02415737323462963104248046875" lon="-8.96321288309991359710693359375">
        <ele>41.799999237060546875</ele>
        <time>2026-04-28T10:18:57.000Z</time>
        <extensions>
          <ns3:TrackPointExtension>
            <ns3:hr>118</ns3:hr>
            <ns3:cad>0</ns3:cad>
          </ns3:TrackPointExtension>
        </extensions>
      </trkpt>
      <trkpt lat="37.02417799271643161773681640625" lon="-8.96322461776435375213623046875">
        <ele>42.200000762939453125</ele>
        <time>2026-04-28T10:18:59.000Z</time>
        <extensions>
          <ns3:TrackPointExtension>
            <ns3:hr>119</ns3:hr>
            <ns3:cad>0</ns3:cad>
          </ns3:TrackPointExtension>
        </extensions>
      </trkpt>
      <trkpt lat="37.02426700852811336517333984375" lon="-8.9632362686097621917724609375">
        <ele>41.200000762939453125</ele>
        <time>2026-04-28T10:19:07.000Z</time>
        <extensions>
          <ns3:TrackPointExtension>
            <ns3:hr>118</ns3:hr>
            <ns3:cad>53</ns3:cad>
          </ns3:TrackPointExtension>
        </extensions>
      </trkpt>
      <trkpt lat="37.02427782118320465087890625" lon="-8.9632225222885608673095703125">
        <ele>41.799999237060546875</ele>
        <time>2026-04-28T10:19:10.000Z</time>
        <extensions>
          <ns3:TrackPointExtension>
            <ns3:hr>119</ns3:hr>
            <ns3:cad>0</ns3:cad>
          </ns3:TrackPointExtension>
        </extensions>
      </trkpt>
      <trkpt lat="37.02430539764463901519775390625" lon="-8.96320383064448833465576171875">
        <ele>43</ele>
        <time>2026-04-28T10:19:13.000Z</time>
        <extensions>
          <ns3:TrackPointExtension>
            <ns3:hr>118</ns3:hr>
            <ns3:cad>43</ns3:cad>
          </ns3:TrackPointExtension>
        </extensions>
      </trkpt>
      <trkpt lat="37.02436524443328380584716796875" lon="-8.96318681538105010986328125">
        <ele>41.799999237060546875</ele>
        <time>2026-04-28T10:19:19.000Z</time>
        <extensions>
          <ns3:TrackPointExtension>
            <ns3:hr>120</ns3:hr>
            <ns3:cad>0</ns3:cad>
          </ns3:TrackPointExtension>
        </extensions>
      </trkpt>
      <trkpt lat="37.02444705180823802947998046875" lon="-8.96317063830792903900146484375">
        <ele>42.40000152587890625</ele>
        <time>2026-04-28T10:19:26.000Z</time>
        <extensions>
          <ns3:TrackPointExtension>
            <ns3:hr>118</ns3:hr>
            <ns3:cad>0</ns3:cad>
          </ns3:TrackPointExtension>
        </extensions>
      </trkpt>
      <trkpt lat="37.0244957506656646728515625" lon="-8.96310760639607906341552734375">
        <ele>42.799999237060546875</ele>
        <time>2026-04-28T10:19:33.000Z</time>
        <extensions>
          <ns3:TrackPointExtension>
            <ns3:hr>119</ns3:hr>
            <ns3:cad>59</ns3:cad>
          </ns3:TrackPointExtension>
        </extensions>
      </trkpt>
      <trkpt lat="37.02450488694012165069580078125" lon="-8.963099308311939239501953125">
        <ele>42.799999237060546875</ele>
        <time>2026-04-28T10:19:34.000Z</time>
        <extensions>
          <ns3:TrackPointExtension>
            <ns3:hr>119</ns3:hr>
            <ns3:cad>59</ns3:cad>
          </ns3:TrackPointExtension>
        </extensions>
      </trkpt>
      <trkpt lat="37.02459457330405712127685546875" lon="-8.96306586451828479766845703125">
        <ele>42.59999847412109375</ele>
        <time>2026-04-28T10:19:42.000Z</time>
        <extensions>
          <ns3:TrackPointExtension>
            <ns3:hr>119</ns3:hr>
            <ns3:cad>59</ns3:cad>
          </ns3:TrackPointExtension>
        </extensions>
      </trkpt>
      <trkpt lat="37.0246890373528003692626953125" lon="-8.96301993168890476226806640625">
        <ele>42.799999237060546875</ele>
        <time>2026-04-28T10:19:50.000Z</time>
        <extensions>
          <ns3:TrackPointExtension>
            <ns3:hr>119</ns3:hr>
            <ns3:cad>0</ns3:cad>
          </ns3:TrackPointExtension>
        </extensions>
      </trkpt>
      <trkpt lat="37.02476975508034229278564453125" lon="-8.96297735162079334259033203125">
        <ele>43</ele>
        <time>2026-04-28T10:19:58.000Z</time>
        <extensions>
          <ns3:TrackPointExtension>
            <ns3:hr>121</ns3:hr>
            <ns3:cad>54</ns3:cad>
          </ns3:TrackPointExtension>
        </extensions>
      </trkpt>
      <trkpt lat="37.02485047280788421630859375" lon="-8.96293728612363338470458984375">
        <ele>43.200000762939453125</ele>
        <time>2026-04-28T10:20:05.000Z</time>
        <extensions>
          <ns3:TrackPointExtension>
            <ns3:hr>121</ns3:hr>
            <ns3:cad>0</ns3:cad>
          </ns3:TrackPointExtension>
        </extensions>
      </trkpt>
      <trkpt lat="37.02491627074778079986572265625" lon="-8.96288749761879444122314453125">
        <ele>43.200000762939453125</ele>
        <time>2026-04-28T10:20:12.000Z</time>
        <extensions>
          <ns3:TrackPointExtension>
            <ns3:hr>122</ns3:hr>
            <ns3:cad>0</ns3:cad>
          </ns3:TrackPointExtension>
        </extensions>
      </trkpt>
      <trkpt lat="37.0249984972178936004638671875" lon="-8.96283209323883056640625">
        <ele>43.40000152587890625</ele>
        <time>2026-04-28T10:20:20.000Z</time>
        <extensions>
          <ns3:TrackPointExtension>
            <ns3:hr>123</ns3:hr>
            <ns3:cad>0</ns3:cad>
          </ns3:TrackPointExtension>
        </extensions>
      </trkpt>
      <trkpt lat="37.02505524270236492156982421875" lon="-8.96278046071529388427734375">
        <ele>43.59999847412109375</ele>
        <time>2026-04-28T10:20:26.000Z</time>
        <extensions>
          <ns3:TrackPointExtension>
            <ns3:hr>123</ns3:hr>
            <ns3:cad>51</ns3:cad>
          </ns3:TrackPointExtension>
        </extensions>
      </trkpt>
      <trkpt lat="37.025127075612545013427734375" lon="-8.96270862780511379241943359375">
        <ele>43.59999847412109375</ele>
        <time>2026-04-28T10:20:33.000Z</time>
        <extensions>
          <ns3:TrackPointExtension>
            <ns3:hr>121</ns3:hr>
            <ns3:cad>51</ns3:cad>
          </ns3:TrackPointExtension>
        </extensions>
      </trkpt>
      <trkpt lat="37.0252157561480998992919921875" lon="-8.962695635855197906494140625">
        <ele>43.59999847412109375</ele>
        <time>2026-04-28T10:20:40.000Z</time>
        <extensions>
          <ns3:TrackPointExtension>
            <ns3:hr>120</ns3:hr>
            <ns3:cad>0</ns3:cad>
          </ns3:TrackPointExtension>
        </extensions>
      </trkpt>
      <trkpt lat="37.02531105838716030120849609375" lon="-8.962672837078571319580078125">
        <ele>43.40000152587890625</ele>
        <time>2026-04-28T10:20:48.000Z</time>
        <extensions>
          <ns3:TrackPointExtension>
            <ns3:hr>118</ns3:hr>
            <ns3:cad>0</ns3:cad>
          </ns3:TrackPointExtension>
        </extensions>
      </trkpt>
      <trkpt lat="37.025381214916706085205078125" lon="-8.96266621537506580352783203125">
        <ele>43.40000152587890625</ele>
        <time>2026-04-28T10:20:54.000Z</time>
        <extensions>
          <ns3:TrackPointExtension>
            <ns3:hr>118</ns3:hr>
            <ns3:cad>59</ns3:cad>
          </ns3:TrackPointExtension>
        </extensions>
      </trkpt>
      <trkpt lat="37.0254532992839813232421875" lon="-8.96265917457640171051025390625">
        <ele>43.40000152587890625</ele>
        <time>2026-04-28T10:21:01.000Z</time>
        <extensions>
          <ns3:TrackPointExtension>
            <ns3:hr>118</ns3:hr>
            <ns3:cad>51</ns3:cad>
          </ns3:TrackPointExtension>
        </extensions>
      </trkpt>
      <trkpt lat="37.02553837560117244720458984375" lon="-8.96268214099109172821044921875">
        <ele>43.200000762939453125</ele>
        <time>2026-04-28T10:21:09.000Z</time>
        <extensions>
          <ns3:TrackPointExtension>
            <ns3:hr>117</ns3:hr>
            <ns3:cad>52</ns3:cad>
          </ns3:TrackPointExtension>
        </extensions>
      </trkpt>
      <trkpt lat="37.02557064592838287353515625" lon="-8.96266152150928974151611328125">
        <ele>43.40000152587890625</ele>
        <time>2026-04-28T10:21:13.000Z</time>
        <extensions>
          <ns3:TrackPointExtension>
            <ns3:hr>116</ns3:hr>
            <ns3:cad>0</ns3:cad>
          </ns3:TrackPointExtension>
        </extensions>
      </trkpt>
      <trkpt lat="37.025586403906345367431640625" lon="-8.9626461826264858245849609375">
        <ele>44</ele>
        <time>2026-04-28T10:21:15.000Z</time>
        <extensions>
          <ns3:TrackPointExtension>
            <ns3:hr>117</ns3:hr>
            <ns3:cad>69</ns3:cad>
          </ns3:TrackPointExtension>
        </extensions>
      </trkpt>
      <trkpt lat="37.0256435684859752655029296875" lon="-8.96261927671730518341064453125">
        <ele>45</ele>
        <time>2026-04-28T10:21:20.000Z</time>
        <extensions>
          <ns3:TrackPointExtension>
            <ns3:hr>115</ns3:hr>
            <ns3:cad>55</ns3:cad>
          </ns3:TrackPointExtension>
        </extensions>
      </trkpt>
      <trkpt lat="37.0256563089787960052490234375" lon="-8.9626170136034488677978515625">
        <ele>45</ele>
        <time>2026-04-28T10:21:21.000Z</time>
        <extensions>
          <ns3:TrackPointExtension>
            <ns3:hr>115</ns3:hr>
            <ns3:cad>55</ns3:cad>
          </ns3:TrackPointExtension>
        </extensions>
      </trkpt>
      <trkpt lat="37.02570919878780841827392578125" lon="-8.962633609771728515625">
        <ele>44.59999847412109375</ele>
        <time>2026-04-28T10:21:26.000Z</time>
        <extensions>
          <ns3:TrackPointExtension>
            <ns3:hr>117</ns3:hr>
            <ns3:cad>55</ns3:cad>
          </ns3:TrackPointExtension>
        </extensions>
      </trkpt>
      <trkpt lat="37.02571414411067962646484375" lon="-8.962656073272228240966796875">
        <ele>44.200000762939453125</ele>
        <time>2026-04-28T10:21:28.000Z</time>
        <extensions>
          <ns3:TrackPointExtension>
            <ns3:hr>118</ns3:hr>
            <ns3:cad>55</ns3:cad>
          </ns3:TrackPointExtension>
        </extensions>
      </trkpt>
      <trkpt lat="37.02571657486259937286376953125" lon="-8.9626673050224781036376953125">
        <ele>44</ele>
        <time>2026-04-28T10:21:29.000Z</time>
        <extensions>
          <ns3:TrackPointExtension>
            <ns3:hr>118</ns3:hr>
            <ns3:cad>55</ns3:cad>
          </ns3:TrackPointExtension>
        </extensions>
      </trkpt>
      <trkpt lat="37.02571020461618900299072265625" lon="-8.9626766927540302276611328125">
        <ele>44.200000762939453125</ele>
        <time>2026-04-28T10:21:35.000Z</time>
        <extensions>
          <ns3:TrackPointExtension>
            <ns3:hr>117</ns3:hr>
            <ns3:cad>0</ns3:cad>
          </ns3:TrackPointExtension>
        </extensions>
      </trkpt>
      <trkpt lat="37.02570475637912750244140625" lon="-8.9626844041049480438232421875">
        <ele>44.799999237060546875</ele>
        <time>2026-04-28T10:21:45.000Z</time>
        <extensions>
          <ns3:TrackPointExtension>
            <ns3:hr>119</ns3:hr>
            <ns3:cad>0</ns3:cad>
          </ns3:TrackPointExtension>
        </extensions>
      </trkpt>
      <trkpt lat="37.025701738893985748291015625" lon="-8.96267308853566646575927734375">
        <ele>44.200000762939453125</ele>
        <time>2026-04-28T10:21:59.000Z</time>
        <extensions>
          <ns3:TrackPointExtension>
            <ns3:hr>120</ns3:hr>
            <ns3:cad>0</ns3:cad>
          </ns3:TrackPointExtension>
        </extensions>
      </trkpt>
      <trkpt lat="37.02569805085659027099609375" lon="-8.96266554482281208038330078125">
        <ele>44.40000152587890625</ele>
        <time>2026-04-28T10:22:06.000Z</time>
        <extensions>
          <ns3:TrackPointExtension>
            <ns3:hr>123</ns3:hr>
            <ns3:cad>0</ns3:cad>
          </ns3:TrackPointExtension>
        </extensions>
      </trkpt>
      <trkpt lat="37.02569805085659027099609375" lon="-8.96266554482281208038330078125">
        <ele>44.200000762939453125</ele>
        <time>2026-04-28T10:22:10.000Z</time>
        <extensions>
          <ns3:TrackPointExtension>
            <ns3:hr>121</ns3:hr>
            <ns3:cad>0</ns3:cad>
          </ns3:TrackPointExtension>
        </extensions>
      </trkpt>
      <trkpt lat="37.02569997869431972503662109375" lon="-8.9626713283360004425048828125">
        <ele>44.200000762939453125</ele>
        <time>2026-04-28T10:22:27.000Z</time>
        <extensions>
          <ns3:TrackPointExtension>
            <ns3:hr>115</ns3:hr>
            <ns3:cad>0</ns3:cad>
          </ns3:TrackPointExtension>
        </extensions>
      </trkpt>
      <trkpt lat="37.02570182271301746368408203125" lon="-8.96267191506922245025634765625">
        <ele>44.40000152587890625</ele>
        <time>2026-04-28T10:22:28.000Z</time>
        <extensions>
          <ns3:TrackPointExtension>
            <ns3:hr>112</ns3:hr>
            <ns3:cad>0</ns3:cad>
          </ns3:TrackPointExtension>
        </extensions>
      </trkpt>
      <trkpt lat="37.02570416964590549468994140625" lon="-8.96267375908792018890380859375">
        <ele>44.200000762939453125</ele>
        <time>2026-04-28T10:22:29.000Z</time>
        <extensions>
          <ns3:TrackPointExtension>
            <ns3:hr>108</ns3:hr>
            <ns3:cad>0</ns3:cad>
          </ns3:TrackPointExtension>
        </extensions>
      </trkpt>
      <trkpt lat="37.02570349909365177154541015625" lon="-8.96267577074468135833740234375">
        <ele>44.200000762939453125</ele>
        <time>2026-04-28T10:22:30.000Z</time>
        <extensions>
          <ns3:TrackPointExtension>
            <ns3:hr>108</ns3:hr>
            <ns3:cad>0</ns3:cad>
          </ns3:TrackPointExtension>
        </extensions>
      </trkpt>
      <trkpt lat="37.025706432759761810302734375" lon="-8.96267845295369625091552734375">
        <ele>43.200000762939453125</ele>
        <time>2026-04-28T10:22:34.000Z</time>
        <extensions>
          <ns3:TrackPointExtension>
            <ns3:hr>105</ns3:hr>
            <ns3:cad>0</ns3:cad>
          </ns3:TrackPointExtension>
        </extensions>
      </trkpt>
      <trkpt lat="37.025706432759761810302734375" lon="-8.96267845295369625091552734375">
        <ele>44.200000762939453125</ele>
        <time>2026-04-28T10:22:39.000Z</time>
        <extensions>
          <ns3:TrackPointExtension>
            <ns3:hr>105</ns3:hr>
            <ns3:cad>0</ns3:cad>
          </ns3:TrackPointExtension>
        </extensions>
      </trkpt>
      <trkpt lat="37.025706432759761810302734375" lon="-8.96267845295369625091552734375">
        <ele>44.40000152587890625</ele>
        <time>2026-04-28T10:22:42.000Z</time>
        <extensions>
          <ns3:TrackPointExtension>
            <ns3:hr>102</ns3:hr>
            <ns3:cad>0</ns3:cad>
          </ns3:TrackPointExtension>
        </extensions>
      </trkpt>
      <trkpt lat="37.0257257111370563507080078125" lon="-8.9626253955066204071044921875">
        <ele>44.200000762939453125</ele>
        <time>2026-04-28T10:22:48.000Z</time>
        <extensions>
          <ns3:TrackPointExtension>
            <ns3:hr>103</ns3:hr>
            <ns3:cad>0</ns3:cad>
          </ns3:TrackPointExtension>
        </extensions>
      </trkpt>
      <trkpt lat="37.0257434807717800140380859375" lon="-8.96261005662381649017333984375">
        <ele>44.59999847412109375</ele>
        <time>2026-04-28T10:22:50.000Z</time>
        <extensions>
          <ns3:TrackPointExtension>
            <ns3:hr>106</ns3:hr>
            <ns3:cad>0</ns3:cad>
          </ns3:TrackPointExtension>
        </extensions>
      </trkpt>
      <trkpt lat="37.02576234005391597747802734375" lon="-8.9625973999500274658203125">
        <ele>44.799999237060546875</ele>
        <time>2026-04-28T10:22:52.000Z</time>
        <extensions>
          <ns3:TrackPointExtension>
            <ns3:hr>110</ns3:hr>
            <ns3:cad>52</ns3:cad>
          </ns3:TrackPointExtension>
        </extensions>
      </trkpt>
      <trkpt lat="37.02578178606927394866943359375" lon="-8.96258105523884296417236328125">
        <ele>44.40000152587890625</ele>
        <time>2026-04-28T10:22:54.000Z</time>
        <extensions>
          <ns3:TrackPointExtension>
            <ns3:hr>112</ns3:hr>
            <ns3:cad>52</ns3:cad>
          </ns3:TrackPointExtension>
        </extensions>
      </trkpt>
      <trkpt lat="37.025851942598819732666015625" lon="-8.96253126673400402069091796875">
        <ele>44.200000762939453125</ele>
        <time>2026-04-28T10:23:01.000Z</time>
        <extensions>
          <ns3:TrackPointExtension>
            <ns3:hr>112</ns3:hr>
            <ns3:cad>0</ns3:cad>
          </ns3:TrackPointExtension>
        </extensions>
      </trkpt>
      <trkpt lat="37.02589779160916805267333984375" lon="-8.96252489648759365081787109375">
        <ele>44.799999237060546875</ele>
        <time>2026-04-28T10:23:05.000Z</time>
        <extensions>
          <ns3:TrackPointExtension>
            <ns3:hr>108</ns3:hr>
            <ns3:cad>0</ns3:cad>
          </ns3:TrackPointExtension>
        </extensions>
      </trkpt>
      <trkpt lat="37.02592126093804836273193359375" lon="-8.96253780461847782135009765625">
        <ele>45.200000762939453125</ele>
        <time>2026-04-28T10:23:07.000Z</time>
        <extensions>
          <ns3:TrackPointExtension>
            <ns3:hr>106</ns3:hr>
            <ns3:cad>55</ns3:cad>
          </ns3:TrackPointExtension>
        </extensions>
      </trkpt>
      <trkpt lat="37.025942467153072357177734375" lon="-8.96255037747323513031005859375">
        <ele>45.59999847412109375</ele>
        <time>2026-04-28T10:23:09.000Z</time>
        <extensions>
          <ns3:TrackPointExtension>
            <ns3:hr>106</ns3:hr>
            <ns3:cad>55</ns3:cad>
          </ns3:TrackPointExtension>
        </extensions>
      </trkpt>
      <trkpt lat="37.026043049991130828857421875" lon="-8.9625759422779083251953125">
        <ele>45.59999847412109375</ele>
        <time>2026-04-28T10:23:17.000Z</time>
        <extensions>
          <ns3:TrackPointExtension>
            <ns3:hr>105</ns3:hr>
            <ns3:cad>0</ns3:cad>
          </ns3:TrackPointExtension>
        </extensions>
      </trkpt>
      <trkpt lat="37.026078589260578155517578125" lon="-8.9625828154385089874267578125">
        <ele>45.40000152587890625</ele>
        <time>2026-04-28T10:23:20.000Z</time>
        <extensions>
          <ns3:TrackPointExtension>
            <ns3:hr>109</ns3:hr>
            <ns3:cad>0</ns3:cad>
          </ns3:TrackPointExtension>
        </extensions>
      </trkpt>
      <trkpt lat="37.0261005498468875885009765625" lon="-8.96259463392198085784912109375">
        <ele>45.799999237060546875</ele>
        <time>2026-04-28T10:23:22.000Z</time>
        <extensions>
          <ns3:TrackPointExtension>
            <ns3:hr>113</ns3:hr>
            <ns3:cad>58</ns3:cad>
          </ns3:TrackPointExtension>
        </extensions>
      </trkpt>
      <trkpt lat="37.026135921478271484375" lon="-8.9626062847673892974853515625">
        <ele>45.59999847412109375</ele>
        <time>2026-04-28T10:23:25.000Z</time>
        <extensions>
          <ns3:TrackPointExtension>
            <ns3:hr>115</ns3:hr>
            <ns3:cad>56</ns3:cad>
          </ns3:TrackPointExtension>
        </extensions>
      </trkpt>
      <trkpt lat="37.02625452540814876556396484375" lon="-8.96261089481413364410400390625">
        <ele>45.200000762939453125</ele>
        <time>2026-04-28T10:23:34.000Z</time>
        <extensions>
          <ns3:TrackPointExtension>
            <ns3:hr>113</ns3:hr>
            <ns3:cad>56</ns3:cad>
          </ns3:TrackPointExtension>
        </extensions>
      </trkpt>
      <trkpt lat="37.026333399116992950439453125" lon="-8.96261751651763916015625">
        <ele>44.200000762939453125</ele>
        <time>2026-04-28T10:23:41.000Z</time>
        <extensions>
          <ns3:TrackPointExtension>
            <ns3:hr>112</ns3:hr>
            <ns3:cad>0</ns3:cad>
          </ns3:TrackPointExtension>
        </extensions>
      </trkpt>
      <trkpt lat="37.0263479836285114288330078125" lon="-8.9626173488795757293701171875">
        <ele>44</ele>
        <time>2026-04-28T10:23:42.000Z</time>
        <extensions>
          <ns3:TrackPointExtension>
            <ns3:hr>112</ns3:hr>
            <ns3:cad>0</ns3:cad>
          </ns3:TrackPointExtension>
        </extensions>
      </trkpt>
      <trkpt lat="37.02642702497541904449462890625" lon="-8.96259916014969348907470703125">
        <ele>44.59999847412109375</ele>
        <time>2026-04-28T10:23:48.000Z</time>
        <extensions>
          <ns3:TrackPointExtension>
            <ns3:hr>111</ns3:hr>
            <ns3:cad>57</ns3:cad>
          </ns3:TrackPointExtension>
        </extensions>
      </trkpt>
      <trkpt lat="37.0264804176986217498779296875" lon="-8.962595723569393157958984375">
        <ele>45.200000762939453125</ele>
        <time>2026-04-28T10:23:52.000Z</time>
        <extensions>
          <ns3:TrackPointExtension>
            <ns3:hr>110</ns3:hr>
            <ns3:cad>58</ns3:cad>
          </ns3:TrackPointExtension>
        </extensions>
      </trkpt>
      <trkpt lat="37.02655560337007045745849609375" lon="-8.9626284129917621612548828125">
        <ele>46.40000152587890625</ele>
        <time>2026-04-28T10:23:58.000Z</time>
        <extensions>
          <ns3:TrackPointExtension>
            <ns3:hr>109</ns3:hr>
            <ns3:cad>58</ns3:cad>
          </ns3:TrackPointExtension>
        </extensions>
      </trkpt>
      <trkpt lat="37.0266131870448589324951171875" lon="-8.96269890479743480682373046875">
        <ele>47.40000152587890625</ele>
        <time>2026-04-28T10:24:04.000Z</time>
        <extensions>
          <ns3:TrackPointExtension>
            <ns3:hr>112</ns3:hr>
            <ns3:cad>59</ns3:cad>
          </ns3:TrackPointExtension>
        </extensions>
      </trkpt>
      <trkpt lat="37.02663489617407321929931640625" lon="-8.96272405050694942474365234375">
        <ele>47.40000152587890625</ele>
        <time>2026-04-28T10:24:06.000Z</time>
        <extensions>
          <ns3:TrackPointExtension>
            <ns3:hr>115</ns3:hr>
            <ns3:cad>59</ns3:cad>
          </ns3:TrackPointExtension>
        </extensions>
      </trkpt>
      <trkpt lat="37.0266547612845897674560546875" lon="-8.9627494476735591888427734375">
        <ele>47.200000762939453125</ele>
        <time>2026-04-28T10:24:08.000Z</time>
        <extensions>
          <ns3:TrackPointExtension>
            <ns3:hr>119</ns3:hr>
            <ns3:cad>60</ns3:cad>
          </ns3:TrackPointExtension>
        </extensions>
      </trkpt>
      <trkpt lat="37.02667395584285259246826171875" lon="-8.962770737707614898681640625">
        <ele>47.200000762939453125</ele>
        <time>2026-04-28T10:24:10.000Z</time>
        <extensions>
          <ns3:TrackPointExtension>
            <ns3:hr>122</ns3:hr>
            <ns3:cad>61</ns3:cad>
          </ns3:TrackPointExtension>
        </extensions>
      </trkpt>
      <trkpt lat="37.0267328806221485137939453125" lon="-8.96281943656504154205322265625">
        <ele>47.40000152587890625</ele>
        <time>2026-04-28T10:24:15.000Z</time>
        <extensions>
          <ns3:TrackPointExtension>
            <ns3:hr>124</ns3:hr>
            <ns3:cad>60</ns3:cad>
          </ns3:TrackPointExtension>
        </extensions>
      </trkpt>
      <trkpt lat="37.026793062686920166015625" lon="-8.962859250605106353759765625">
        <ele>47.200000762939453125</ele>
        <time>2026-04-28T10:24:20.000Z</time>
        <extensions>
          <ns3:TrackPointExtension>
            <ns3:hr>124</ns3:hr>
            <ns3:cad>59</ns3:cad>
          </ns3:TrackPointExtension>
        </extensions>
      </trkpt>
      <trkpt lat="37.02694485895335674285888671875" lon="-8.96293778903782367706298828125">
        <ele>46.59999847412109375</ele>
        <time>2026-04-28T10:24:32.000Z</time>
        <extensions>
          <ns3:TrackPointExtension>
            <ns3:hr>123</ns3:hr>
            <ns3:cad>57</ns3:cad>
          </ns3:TrackPointExtension>
        </extensions>
      </trkpt>
      <trkpt lat="37.02696497552096843719482421875" lon="-8.9629395492374897003173828125">
        <ele>46.40000152587890625</ele>
        <time>2026-04-28T10:24:34.000Z</time>
        <extensions>
          <ns3:TrackPointExtension>
            <ns3:hr>122</ns3:hr>
            <ns3:cad>0</ns3:cad>
          </ns3:TrackPointExtension>
        </extensions>
      </trkpt>
      <trkpt lat="37.02698358334600925445556640625" lon="-8.96292588673532009124755859375">
        <ele>46.200000762939453125</ele>
        <time>2026-04-28T10:24:37.000Z</time>
        <extensions>
          <ns3:TrackPointExtension>
            <ns3:hr>122</ns3:hr>
            <ns3:cad>0</ns3:cad>
          </ns3:TrackPointExtension>
        </extensions>
      </trkpt>
      <trkpt lat="37.0270118303596973419189453125" lon="-8.96293560974299907684326171875">
        <ele>46.799999237060546875</ele>
        <time>2026-04-28T10:24:44.000Z</time>
        <extensions>
          <ns3:TrackPointExtension>
            <ns3:hr>119</ns3:hr>
            <ns3:cad>0</ns3:cad>
          </ns3:TrackPointExtension>
        </extensions>
      </trkpt>
      <trkpt lat="37.027024067938327789306640625" lon="-8.96294298581779003143310546875">
        <ele>46.799999237060546875</ele>
        <time>2026-04-28T10:24:45.000Z</time>
        <extensions>
          <ns3:TrackPointExtension>
            <ns3:hr>118</ns3:hr>
            <ns3:cad>0</ns3:cad>
          </ns3:TrackPointExtension>
        </extensions>
      </trkpt>
      <trkpt lat="37.0271435938775539398193359375" lon="-8.96299545653164386749267578125">
        <ele>46.59999847412109375</ele>
        <time>2026-04-28T10:24:54.000Z</time>
        <extensions>
          <ns3:TrackPointExtension>
            <ns3:hr>118</ns3:hr>
            <ns3:cad>59</ns3:cad>
          </ns3:TrackPointExtension>
        </extensions>
      </trkpt>
      <trkpt lat="37.0271878503262996673583984375" lon="-8.96303049288690090179443359375">
        <ele>46.799999237060546875</ele>
        <time>2026-04-28T10:24:58.000Z</time>
        <extensions>
          <ns3:TrackPointExtension>
            <ns3:hr>115</ns3:hr>
            <ns3:cad>59</ns3:cad>
          </ns3:TrackPointExtension>
        </extensions>
      </trkpt>
      <trkpt lat="37.0272475294768810272216796875" lon="-8.96308220922946929931640625">
        <ele>46.40000152587890625</ele>
        <time>2026-04-28T10:25:03.000Z</time>
        <extensions>
          <ns3:TrackPointExtension>
            <ns3:hr>114</ns3:hr>
            <ns3:cad>63</ns3:cad>
          </ns3:TrackPointExtension>
        </extensions>
      </trkpt>
      <trkpt lat="37.02733059413731098175048828125" lon="-8.96319477818906307220458984375">
        <ele>45.59999847412109375</ele>
        <time>2026-04-28T10:25:12.000Z</time>
        <extensions>
          <ns3:TrackPointExtension>
            <ns3:hr>115</ns3:hr>
            <ns3:cad>61</ns3:cad>
          </ns3:TrackPointExtension>
        </extensions>
      </trkpt>
      <trkpt lat="37.02735364437103271484375" lon="-8.96323367021977901458740234375">
        <ele>45.200000762939453125</ele>
        <time>2026-04-28T10:25:15.000Z</time>
        <extensions>
          <ns3:TrackPointExtension>
            <ns3:hr>114</ns3:hr>
            <ns3:cad>61</ns3:cad>
          </ns3:TrackPointExtension>
        </extensions>
      </trkpt>
      <trkpt lat="37.02742614783346652984619140625" lon="-8.963355459272861480712890625">
        <ele>45.40000152587890625</ele>
        <time>2026-04-28T10:25:23.000Z</time>
        <extensions>
          <ns3:TrackPointExtension>
            <ns3:hr>113</ns3:hr>
            <ns3:cad>62</ns3:cad>
          </ns3:TrackPointExtension>
        </extensions>
      </trkpt>
      <trkpt lat="37.02749571762979030609130859375" lon="-8.963520415127277374267578125">
        <ele>45.40000152587890625</ele>
        <time>2026-04-28T10:25:36.000Z</time>
        <extensions>
          <ns3:TrackPointExtension>
            <ns3:hr>112</ns3:hr>
            <ns3:cad>58</ns3:cad>
          </ns3:TrackPointExtension>
        </extensions>
      </trkpt>
      <trkpt lat="37.02752522192895412445068359375" lon="-8.963671624660491943359375">
        <ele>46.40000152587890625</ele>
        <time>2026-04-28T10:25:44.000Z</time>
        <extensions>
          <ns3:TrackPointExtension>
            <ns3:hr>112</ns3:hr>
            <ns3:cad>62</ns3:cad>
          </ns3:TrackPointExtension>
        </extensions>
      </trkpt>
      <trkpt lat="37.02752723358571529388427734375" lon="-8.963688723742961883544921875">
        <ele>46.59999847412109375</ele>
        <time>2026-04-28T10:25:45.000Z</time>
        <extensions>
          <ns3:TrackPointExtension>
            <ns3:hr>113</ns3:hr>
            <ns3:cad>62</ns3:cad>
          </ns3:TrackPointExtension>
        </extensions>
      </trkpt>
      <trkpt lat="37.02753645367920398712158203125" lon="-8.9637639932334423065185546875">
        <ele>47.200000762939453125</ele>
        <time>2026-04-28T10:25:50.000Z</time>
        <extensions>
          <ns3:TrackPointExtension>
            <ns3:hr>116</ns3:hr>
            <ns3:cad>61</ns3:cad>
          </ns3:TrackPointExtension>
        </extensions>
      </trkpt>
      <trkpt lat="37.02754399739205837249755859375" lon="-8.96384303458034992218017578125">
        <ele>47</ele>
        <time>2026-04-28T10:25:54.000Z</time>
        <extensions>
          <ns3:TrackPointExtension>
            <ns3:hr>118</ns3:hr>
            <ns3:cad>0</ns3:cad>
          </ns3:TrackPointExtension>
        </extensions>
      </trkpt>
      <trkpt lat="37.0275489427149295806884765625" lon="-8.9639680087566375732421875">
        <ele>47.40000152587890625</ele>
        <time>2026-04-28T10:26:01.000Z</time>
        <extensions>
          <ns3:TrackPointExtension>
            <ns3:hr>120</ns3:hr>
            <ns3:cad>63</ns3:cad>
          </ns3:TrackPointExtension>
        </extensions>
      </trkpt>
      <trkpt lat="37.027553804218769073486328125" lon="-8.964000530540943145751953125">
        <ele>47.40000152587890625</ele>
        <time>2026-04-28T10:26:03.000Z</time>
        <extensions>
          <ns3:TrackPointExtension>
            <ns3:hr>121</ns3:hr>
            <ns3:cad>63</ns3:cad>
          </ns3:TrackPointExtension>
        </extensions>
      </trkpt>
      <trkpt lat="37.0275643654167652130126953125" lon="-8.9642182923853397369384765625">
        <ele>47</ele>
        <time>2026-04-28T10:26:14.000Z</time>
        <extensions>
          <ns3:TrackPointExtension>
            <ns3:hr>121</ns3:hr>
            <ns3:cad>63</ns3:cad>
          </ns3:TrackPointExtension>
        </extensions>
      </trkpt>
      <trkpt lat="37.0275673829019069671630859375" lon="-8.964461870491504669189453125">
        <ele>46.59999847412109375</ele>
        <time>2026-04-28T10:26:27.000Z</time>
        <extensions>
          <ns3:TrackPointExtension>
            <ns3:hr>119</ns3:hr>
            <ns3:cad>64</ns3:cad>
          </ns3:TrackPointExtension>
        </extensions>
      </trkpt>
      <trkpt lat="37.02756914310157299041748046875" lon="-8.964691869914531707763671875">
        <ele>47.40000152587890625</ele>
        <time>2026-04-28T10:26:39.000Z</time>
        <extensions>
          <ns3:TrackPointExtension>
            <ns3:hr>118</ns3:hr>
            <ns3:cad>64</ns3:cad>
          </ns3:TrackPointExtension>
        </extensions>
      </trkpt>
      <trkpt lat="37.02757601626217365264892578125" lon="-8.96485623903572559356689453125">
        <ele>48.200000762939453125</ele>
        <time>2026-04-28T10:26:48.000Z</time>
        <extensions>
          <ns3:TrackPointExtension>
            <ns3:hr>117</ns3:hr>
            <ns3:cad>65</ns3:cad>
          </ns3:TrackPointExtension>
        </extensions>
      </trkpt>
      <trkpt lat="37.0275807939469814300537109375" lon="-8.96508338861167430877685546875">
        <ele>47.59999847412109375</ele>
        <time>2026-04-28T10:27:00.000Z</time>
        <extensions>
          <ns3:TrackPointExtension>
            <ns3:hr>117</ns3:hr>
            <ns3:cad>64</ns3:cad>
          </ns3:TrackPointExtension>
        </extensions>
      </trkpt>
      <trkpt lat="37.0275811292231082916259765625" lon="-8.9651007391512393951416015625">
        <ele>47.59999847412109375</ele>
        <time>2026-04-28T10:27:01.000Z</time>
        <extensions>
          <ns3:TrackPointExtension>
            <ns3:hr>117</ns3:hr>
            <ns3:cad>64</ns3:cad>
          </ns3:TrackPointExtension>
        </extensions>
      </trkpt>
      <trkpt lat="37.02759278006851673126220703125" lon="-8.96530718542635440826416015625">
        <ele>46.200000762939453125</ele>
        <time>2026-04-28T10:27:12.000Z</time>
        <extensions>
          <ns3:TrackPointExtension>
            <ns3:hr>117</ns3:hr>
            <ns3:cad>64</ns3:cad>
          </ns3:TrackPointExtension>
        </extensions>
      </trkpt>
      <trkpt lat="37.0275945402681827545166015625" lon="-8.965344317257404327392578125">
        <ele>46</ele>
        <time>2026-04-28T10:27:14.000Z</time>
        <extensions>
          <ns3:TrackPointExtension>
            <ns3:hr>117</ns3:hr>
            <ns3:cad>64</ns3:cad>
          </ns3:TrackPointExtension>
        </extensions>
      </trkpt>
      <trkpt lat="37.02759596519172191619873046875" lon="-8.96556987427175045013427734375">
        <ele>47</ele>
        <time>2026-04-28T10:27:26.000Z</time>
        <extensions>
          <ns3:TrackPointExtension>
            <ns3:hr>118</ns3:hr>
            <ns3:cad>64</ns3:cad>
          </ns3:TrackPointExtension>
        </extensions>
      </trkpt>
      <trkpt lat="37.02759412117302417755126953125" lon="-8.9657079242169857025146484375">
        <ele>47.200000762939453125</ele>
        <time>2026-04-28T10:27:33.000Z</time>
        <extensions>
          <ns3:TrackPointExtension>
            <ns3:hr>117</ns3:hr>
            <ns3:cad>64</ns3:cad>
          </ns3:TrackPointExtension>
        </extensions>
      </trkpt>
      <trkpt lat="37.0275982283055782318115234375" lon="-8.96583943627774715423583984375">
        <ele>47</ele>
        <time>2026-04-28T10:27:40.000Z</time>
        <extensions>
          <ns3:TrackPointExtension>
            <ns3:hr>117</ns3:hr>
            <ns3:cad>64</ns3:cad>
          </ns3:TrackPointExtension>
        </extensions>
      </trkpt>
      <trkpt lat="37.02760049141943454742431640625" lon="-8.9660760574042797088623046875">
        <ele>47.40000152587890625</ele>
        <time>2026-04-28T10:27:53.000Z</time>
        <extensions>
          <ns3:TrackPointExtension>
            <ns3:hr>117</ns3:hr>
            <ns3:cad>63</ns3:cad>
          </ns3:TrackPointExtension>
        </extensions>
      </trkpt>
      <trkpt lat="37.0276072807610034942626953125" lon="-8.96631485782563686370849609375">
        <ele>46.59999847412109375</ele>
        <time>2026-04-28T10:28:06.000Z</time>
        <extensions>
          <ns3:TrackPointExtension>
            <ns3:hr>117</ns3:hr>
            <ns3:cad>64</ns3:cad>
          </ns3:TrackPointExtension>
        </extensions>
      </trkpt>
      <trkpt lat="37.02760954387485980987548828125" lon="-8.96635492332279682159423828125">
        <ele>46</ele>
        <time>2026-04-28T10:28:08.000Z</time>
        <extensions>
          <ns3:TrackPointExtension>
            <ns3:hr>117</ns3:hr>
            <ns3:cad>64</ns3:cad>
          </ns3:TrackPointExtension>
        </extensions>
      </trkpt>
      <trkpt lat="37.02761088497936725616455078125" lon="-8.96650278009474277496337890625">
        <ele>47.200000762939453125</ele>
        <time>2026-04-28T10:28:16.000Z</time>
        <extensions>
          <ns3:TrackPointExtension>
            <ns3:hr>117</ns3:hr>
            <ns3:cad>64</ns3:cad>
          </ns3:TrackPointExtension>
        </extensions>
      </trkpt>
      <trkpt lat="37.02761122025549411773681640625" lon="-8.96654334850609302520751953125">
        <ele>47.200000762939453125</ele>
        <time>2026-04-28T10:28:18.000Z</time>
        <extensions>
          <ns3:TrackPointExtension>
            <ns3:hr>116</ns3:hr>
            <ns3:cad>63</ns3:cad>
          </ns3:TrackPointExtension>
        </extensions>
      </trkpt>
      <trkpt lat="37.02760971151292324066162109375" lon="-8.96671987138688564300537109375">
        <ele>46.59999847412109375</ele>
        <time>2026-04-28T10:28:28.000Z</time>
        <extensions>
          <ns3:TrackPointExtension>
            <ns3:hr>116</ns3:hr>
            <ns3:cad>64</ns3:cad>
          </ns3:TrackPointExtension>
        </extensions>
      </trkpt>
      <trkpt lat="37.027616836130619049072265625" lon="-8.9669021777808666229248046875">
        <ele>47.200000762939453125</ele>
        <time>2026-04-28T10:28:38.000Z</time>
        <extensions>
          <ns3:TrackPointExtension>
            <ns3:hr>116</ns3:hr>
            <ns3:cad>64</ns3:cad>
          </ns3:TrackPointExtension>
        </extensions>
      </trkpt>
      <trkpt lat="37.0276166684925556182861328125" lon="-8.9669403992593288421630859375">
        <ele>47</ele>
        <time>2026-04-28T10:28:40.000Z</time>
        <extensions>
          <ns3:TrackPointExtension>
            <ns3:hr>119</ns3:hr>
            <ns3:cad>64</ns3:cad>
          </ns3:TrackPointExtension>
        </extensions>
      </trkpt>
      <trkpt lat="37.0276151597499847412109375" lon="-8.96695934236049652099609375">
        <ele>47.200000762939453125</ele>
        <time>2026-04-28T10:28:41.000Z</time>
        <extensions>
          <ns3:TrackPointExtension>
            <ns3:hr>123</ns3:hr>
            <ns3:cad>64</ns3:cad>
          </ns3:TrackPointExtension>
        </extensions>
      </trkpt>
      <trkpt lat="37.0276129804551601409912109375" lon="-8.96697518415749073028564453125">
        <ele>47.200000762939453125</ele>
        <time>2026-04-28T10:28:42.000Z</time>
        <extensions>
          <ns3:TrackPointExtension>
            <ns3:hr>126</ns3:hr>
            <ns3:cad>63</ns3:cad>
          </ns3:TrackPointExtension>
        </extensions>
      </trkpt>
      <trkpt lat="37.027611471712589263916015625" lon="-8.967036120593547821044921875">
        <ele>46.59999847412109375</ele>
        <time>2026-04-28T10:28:47.000Z</time>
        <extensions>
          <ns3:TrackPointExtension>
            <ns3:hr>126</ns3:hr>
            <ns3:cad>57</ns3:cad>
          </ns3:TrackPointExtension>
        </extensions>
      </trkpt>
      <trkpt lat="37.0276273973286151885986328125" lon="-8.9671724103391170501708984375">
        <ele>46.59999847412109375</ele>
        <time>2026-04-28T10:28:55.000Z</time>
        <extensions>
          <ns3:TrackPointExtension>
            <ns3:hr>124</ns3:hr>
            <ns3:cad>62</ns3:cad>
          </ns3:TrackPointExtension>
        </extensions>
      </trkpt>
      <trkpt lat="37.0276312530040740966796875" lon="-8.9673806168138980865478515625">
        <ele>47.799999237060546875</ele>
        <time>2026-04-28T10:29:07.000Z</time>
        <extensions>
          <ns3:TrackPointExtension>
            <ns3:hr>123</ns3:hr>
            <ns3:cad>0</ns3:cad>
          </ns3:TrackPointExtension>
        </extensions>
      </trkpt>
      <trkpt lat="37.02763301320374011993408203125" lon="-8.96756661124527454376220703125">
        <ele>47.59999847412109375</ele>
        <time>2026-04-28T10:29:18.000Z</time>
        <extensions>
          <ns3:TrackPointExtension>
            <ns3:hr>126</ns3:hr>
            <ns3:cad>63</ns3:cad>
          </ns3:TrackPointExtension>
        </extensions>
      </trkpt>
      <trkpt lat="37.02763385139405727386474609375" lon="-8.96758287213742733001708984375">
        <ele>47.799999237060546875</ele>
        <time>2026-04-28T10:29:19.000Z</time>
        <extensions>
          <ns3:TrackPointExtension>
            <ns3:hr>126</ns3:hr>
            <ns3:cad>63</ns3:cad>
          </ns3:TrackPointExtension>
        </extensions>
      </trkpt>
      <trkpt lat="37.02763586305081844329833984375" lon="-8.96763785742223262786865234375">
        <ele>48.200000762939453125</ele>
        <time>2026-04-28T10:29:22.000Z</time>
        <extensions>
          <ns3:TrackPointExtension>
            <ns3:hr>125</ns3:hr>
            <ns3:cad>0</ns3:cad>
          </ns3:TrackPointExtension>
        </extensions>
      </trkpt>
      <trkpt lat="37.02764508314430713653564453125" lon="-8.9677450619637966156005859375">
        <ele>48.200000762939453125</ele>
        <time>2026-04-28T10:29:28.000Z</time>
        <extensions>
          <ns3:TrackPointExtension>
            <ns3:hr>127</ns3:hr>
            <ns3:cad>65</ns3:cad>
          </ns3:TrackPointExtension>
        </extensions>
      </trkpt>
      <trkpt lat="37.02764407731592655181884765625" lon="-8.967930972576141357421875">
        <ele>48.799999237060546875</ele>
        <time>2026-04-28T10:29:38.000Z</time>
        <extensions>
          <ns3:TrackPointExtension>
            <ns3:hr>128</ns3:hr>
            <ns3:cad>64</ns3:cad>
          </ns3:TrackPointExtension>
        </extensions>
      </trkpt>
      <trkpt lat="37.02765245921909809112548828125" lon="-8.96815166808664798736572265625">
        <ele>48.799999237060546875</ele>
        <time>2026-04-28T10:29:50.000Z</time>
        <extensions>
          <ns3:TrackPointExtension>
            <ns3:hr>128</ns3:hr>
            <ns3:cad>64</ns3:cad>
          </ns3:TrackPointExtension>
        </extensions>
      </trkpt>
      <trkpt lat="37.0276569016277790069580078125" lon="-8.96829550154507160186767578125">
        <ele>48.40000152587890625</ele>
        <time>2026-04-28T10:29:58.000Z</time>
        <extensions>
          <ns3:TrackPointExtension>
            <ns3:hr>134</ns3:hr>
            <ns3:cad>64</ns3:cad>
          </ns3:TrackPointExtension>
        </extensions>
      </trkpt>
      <trkpt lat="37.02765799127519130706787109375" lon="-8.9683287777006626129150390625">
        <ele>48.40000152587890625</ele>
        <time>2026-04-28T10:30:00.000Z</time>
        <extensions>
          <ns3:TrackPointExtension>
            <ns3:hr>135</ns3:hr>
            <ns3:cad>63</ns3:cad>
          </ns3:TrackPointExtension>
        </extensions>
      </trkpt>
      <trkpt lat="37.02766218222677707672119140625" lon="-8.9685250818729400634765625">
        <ele>48.59999847412109375</ele>
        <time>2026-04-28T10:30:11.000Z</time>
        <extensions>
          <ns3:TrackPointExtension>
            <ns3:hr>132</ns3:hr>
            <ns3:cad>64</ns3:cad>
          </ns3:TrackPointExtension>
        </extensions>
      </trkpt>
      <trkpt lat="37.02766276895999908447265625" lon="-8.968560956418514251708984375">
        <ele>48.799999237060546875</ele>
        <time>2026-04-28T10:30:13.000Z</time>
        <extensions>
          <ns3:TrackPointExtension>
            <ns3:hr>132</ns3:hr>
            <ns3:cad>63</ns3:cad>
          </ns3:TrackPointExtension>
        </extensions>
      </trkpt>
      <trkpt lat="37.02766067348420619964599609375" lon="-8.96859875880181789398193359375">
        <ele>49.40000152587890625</ele>
        <time>2026-04-28T10:30:15.000Z</time>
        <extensions>
          <ns3:TrackPointExtension>
            <ns3:hr>131</ns3:hr>
            <ns3:cad>65</ns3:cad>
          </ns3:TrackPointExtension>
        </extensions>
      </trkpt>
      <trkpt lat="37.027662433683872222900390625" lon="-8.9687153510749340057373046875">
        <ele>49.799999237060546875</ele>
        <time>2026-04-28T10:30:21.000Z</time>
        <extensions>
          <ns3:TrackPointExtension>
            <ns3:hr>128</ns3:hr>
            <ns3:cad>64</ns3:cad>
          </ns3:TrackPointExtension>
        </extensions>
      </trkpt>
      <trkpt lat="37.02766352333128452301025390625" lon="-8.96878751926124095916748046875">
        <ele>49.59999847412109375</ele>
        <time>2026-04-28T10:30:25.000Z</time>
        <extensions>
          <ns3:TrackPointExtension>
            <ns3:hr>126</ns3:hr>
            <ns3:cad>63</ns3:cad>
          </ns3:TrackPointExtension>
        </extensions>
      </trkpt>
      <trkpt lat="37.0276491902768611907958984375" lon="-8.96901299245655536651611328125">
        <ele>50</ele>
        <time>2026-04-28T10:30:37.000Z</time>
        <extensions>
          <ns3:TrackPointExtension>
            <ns3:hr>126</ns3:hr>
            <ns3:cad>63</ns3:cad>
          </ns3:TrackPointExtension>
        </extensions>
      </trkpt>
      <trkpt lat="37.02764860354363918304443359375" lon="-8.9690311811864376068115234375">
        <ele>50.200000762939453125</ele>
        <time>2026-04-28T10:30:38.000Z</time>
        <extensions>
          <ns3:TrackPointExtension>
            <ns3:hr>126</ns3:hr>
            <ns3:cad>63</ns3:cad>
          </ns3:TrackPointExtension>
        </extensions>
      </trkpt>
      <trkpt lat="37.02764558605849742889404296875" lon="-8.969245590269565582275390625">
        <ele>49.59999847412109375</ele>
        <time>2026-04-28T10:30:50.000Z</time>
        <extensions>
          <ns3:TrackPointExtension>
            <ns3:hr>123</ns3:hr>
            <ns3:cad>63</ns3:cad>
          </ns3:TrackPointExtension>
        </extensions>
      </trkpt>
      <trkpt lat="37.027644328773021697998046875" lon="-8.9693020842969417572021484375">
        <ele>49.40000152587890625</ele>
        <time>2026-04-28T10:30:53.000Z</time>
        <extensions>
          <ns3:TrackPointExtension>
            <ns3:hr>120</ns3:hr>
            <ns3:cad>64</ns3:cad>
          </ns3:TrackPointExtension>
        </extensions>
      </trkpt>
      <trkpt lat="37.02764332294464111328125" lon="-8.9693222008645534515380859375">
        <ele>49.40000152587890625</ele>
        <time>2026-04-28T10:30:54.000Z</time>
        <extensions>
          <ns3:TrackPointExtension>
            <ns3:hr>117</ns3:hr>
            <ns3:cad>64</ns3:cad>
          </ns3:TrackPointExtension>
        </extensions>
      </trkpt>
      <trkpt lat="37.02763921581208705902099609375" lon="-8.96943368017673492431640625">
        <ele>49</ele>
        <time>2026-04-28T10:31:00.000Z</time>
        <extensions>
          <ns3:TrackPointExtension>
            <ns3:hr>114</ns3:hr>
            <ns3:cad>64</ns3:cad>
          </ns3:TrackPointExtension>
        </extensions>
      </trkpt>
      <trkpt lat="37.027630247175693511962890625" lon="-8.9695765078067779541015625">
        <ele>49.40000152587890625</ele>
        <time>2026-04-28T10:31:08.000Z</time>
        <extensions>
          <ns3:TrackPointExtension>
            <ns3:hr>115</ns3:hr>
            <ns3:cad>64</ns3:cad>
          </ns3:TrackPointExtension>
        </extensions>
      </trkpt>
      <trkpt lat="37.02761583030223846435546875" lon="-8.96981698460876941680908203125">
        <ele>49.200000762939453125</ele>
        <time>2026-04-28T10:31:21.000Z</time>
        <extensions>
          <ns3:TrackPointExtension>
            <ns3:hr>114</ns3:hr>
            <ns3:cad>65</ns3:cad>
          </ns3:TrackPointExtension>
        </extensions>
      </trkpt>
      <trkpt lat="37.02761423774063587188720703125" lon="-8.969835676252841949462890625">
        <ele>49.40000152587890625</ele>
        <time>2026-04-28T10:31:22.000Z</time>
        <extensions>
          <ns3:TrackPointExtension>
            <ns3:hr>114</ns3:hr>
            <ns3:cad>64</ns3:cad>
          </ns3:TrackPointExtension>
        </extensions>
      </trkpt>
      <trkpt lat="37.02759646810591220855712890625" lon="-8.970069698989391326904296875">
        <ele>49</ele>
        <time>2026-04-28T10:31:35.000Z</time>
        <extensions>
          <ns3:TrackPointExtension>
            <ns3:hr>117</ns3:hr>
            <ns3:cad>63</ns3:cad>
          </ns3:TrackPointExtension>
        </extensions>
      </trkpt>
      <trkpt lat="37.02759646810591220855712890625" lon="-8.9700862951576709747314453125">
        <ele>49</ele>
        <time>2026-04-28T10:31:36.000Z</time>
        <extensions>
          <ns3:TrackPointExtension>
            <ns3:hr>117</ns3:hr>
            <ns3:cad>63</ns3:cad>
          </ns3:TrackPointExtension>
        </extensions>
      </trkpt>
      <trkpt lat="37.0275700651109218597412109375" lon="-8.97030430845916271209716796875">
        <ele>49.200000762939453125</ele>
        <time>2026-04-28T10:31:48.000Z</time>
        <extensions>
          <ns3:TrackPointExtension>
            <ns3:hr>116</ns3:hr>
            <ns3:cad>63</ns3:cad>
          </ns3:TrackPointExtension>
        </extensions>
      </trkpt>
      <trkpt lat="37.0275583304464817047119140625" lon="-8.9705258421599864959716796875">
        <ele>49.200000762939453125</ele>
        <time>2026-04-28T10:32:00.000Z</time>
        <extensions>
          <ns3:TrackPointExtension>
            <ns3:hr>114</ns3:hr>
            <ns3:cad>63</ns3:cad>
          </ns3:TrackPointExtension>
        </extensions>
      </trkpt>
      <trkpt lat="37.02754181809723377227783203125" lon="-8.97071820683777332305908203125">
        <ele>49.40000152587890625</ele>
        <time>2026-04-28T10:32:10.000Z</time>
        <extensions>
          <ns3:TrackPointExtension>
            <ns3:hr>115</ns3:hr>
            <ns3:cad>64</ns3:cad>
          </ns3:TrackPointExtension>
        </extensions>
      </trkpt>
      <trkpt lat="37.027541063725948333740234375" lon="-8.9708993397653102874755859375">
        <ele>48.799999237060546875</ele>
        <time>2026-04-28T10:32:20.000Z</time>
        <extensions>
          <ns3:TrackPointExtension>
            <ns3:hr>115</ns3:hr>
            <ns3:cad>63</ns3:cad>
          </ns3:TrackPointExtension>
        </extensions>
      </trkpt>
      <trkpt lat="37.027521617710590362548828125" lon="-8.97110662423074245452880859375">
        <ele>49.799999237060546875</ele>
        <time>2026-04-28T10:32:31.000Z</time>
        <extensions>
          <ns3:TrackPointExtension>
            <ns3:hr>114</ns3:hr>
            <ns3:cad>62</ns3:cad>
          </ns3:TrackPointExtension>
        </extensions>
      </trkpt>
      <trkpt lat="37.02750728465616703033447265625" lon="-8.97132824175059795379638671875">
        <ele>49.799999237060546875</ele>
        <time>2026-04-28T10:32:43.000Z</time>
        <extensions>
          <ns3:TrackPointExtension>
            <ns3:hr>117</ns3:hr>
            <ns3:cad>63</ns3:cad>
          </ns3:TrackPointExtension>
        </extensions>
      </trkpt>
      <trkpt lat="37.02750544063746929168701171875" lon="-8.97134735248982906341552734375">
        <ele>49.799999237060546875</ele>
        <time>2026-04-28T10:32:44.000Z</time>
        <extensions>
          <ns3:TrackPointExtension>
            <ns3:hr>117</ns3:hr>
            <ns3:cad>64</ns3:cad>
          </ns3:TrackPointExtension>
        </extensions>
      </trkpt>
      <trkpt lat="37.02748934738337993621826171875" lon="-8.9715856499969959259033203125">
        <ele>49.799999237060546875</ele>
        <time>2026-04-28T10:32:57.000Z</time>
        <extensions>
          <ns3:TrackPointExtension>
            <ns3:hr>118</ns3:hr>
            <ns3:cad>64</ns3:cad>
          </ns3:TrackPointExtension>
        </extensions>
      </trkpt>
      <trkpt lat="37.027488090097904205322265625" lon="-8.97160358726978302001953125">
        <ele>49.799999237060546875</ele>
        <time>2026-04-28T10:32:58.000Z</time>
        <extensions>
          <ns3:TrackPointExtension>
            <ns3:hr>118</ns3:hr>
            <ns3:cad>64</ns3:cad>
          </ns3:TrackPointExtension>
        </extensions>
      </trkpt>
      <trkpt lat="37.02747560106217861175537109375" lon="-8.971782289445400238037109375">
        <ele>50</ele>
        <time>2026-04-28T10:33:08.000Z</time>
        <extensions>
          <ns3:TrackPointExtension>
            <ns3:hr>117</ns3:hr>
            <ns3:cad>64</ns3:cad>
          </ns3:TrackPointExtension>
        </extensions>
      </trkpt>
      <trkpt lat="37.02746269293129444122314453125" lon="-8.972021006047725677490234375">
        <ele>49.799999237060546875</ele>
        <time>2026-04-28T10:33:21.000Z</time>
        <extensions>
          <ns3:TrackPointExtension>
            <ns3:hr>116</ns3:hr>
            <ns3:cad>63</ns3:cad>
          </ns3:TrackPointExtension>
        </extensions>
      </trkpt>
      <trkpt lat="37.0274440012872219085693359375" lon="-8.9722169749438762664794921875">
        <ele>49.799999237060546875</ele>
        <time>2026-04-28T10:33:32.000Z</time>
        <extensions>
          <ns3:TrackPointExtension>
            <ns3:hr>114</ns3:hr>
            <ns3:cad>62</ns3:cad>
          </ns3:TrackPointExtension>
        </extensions>
      </trkpt>
      <trkpt lat="37.02743486501276493072509765625" lon="-8.972302637994289398193359375">
        <ele>50.40000152587890625</ele>
        <time>2026-04-28T10:33:37.000Z</time>
        <extensions>
          <ns3:TrackPointExtension>
            <ns3:hr>115</ns3:hr>
            <ns3:cad>63</ns3:cad>
          </ns3:TrackPointExtension>
        </extensions>
      </trkpt>
      <trkpt lat="37.02742497436702251434326171875" lon="-8.97241017781198024749755859375">
        <ele>50.799999237060546875</ele>
        <time>2026-04-28T10:33:43.000Z</time>
        <extensions>
          <ns3:TrackPointExtension>
            <ns3:hr>115</ns3:hr>
            <ns3:cad>62</ns3:cad>
          </ns3:TrackPointExtension>
        </extensions>
      </trkpt>
      <trkpt lat="37.0274205319583415985107421875" lon="-8.972444124519824981689453125">
        <ele>50.59999847412109375</ele>
        <time>2026-04-28T10:33:45.000Z</time>
        <extensions>
          <ns3:TrackPointExtension>
            <ns3:hr>119</ns3:hr>
            <ns3:cad>63</ns3:cad>
          </ns3:TrackPointExtension>
        </extensions>
      </trkpt>
      <trkpt lat="37.027408294379711151123046875" lon="-8.97262685000896453857421875">
        <ele>50.799999237060546875</ele>
        <time>2026-04-28T10:33:55.000Z</time>
        <extensions>
          <ns3:TrackPointExtension>
            <ns3:hr>117</ns3:hr>
            <ns3:cad>63</ns3:cad>
          </ns3:TrackPointExtension>
        </extensions>
      </trkpt>
      <trkpt lat="37.0273950509727001190185546875" lon="-8.97282206453382968902587890625">
        <ele>51.200000762939453125</ele>
        <time>2026-04-28T10:34:06.000Z</time>
        <extensions>
          <ns3:TrackPointExtension>
            <ns3:hr>117</ns3:hr>
            <ns3:cad>64</ns3:cad>
          </ns3:TrackPointExtension>
        </extensions>
      </trkpt>
      <trkpt lat="37.027378790080547332763671875" lon="-8.97297696210443973541259765625">
        <ele>51.40000152587890625</ele>
        <time>2026-04-28T10:34:15.000Z</time>
        <extensions>
          <ns3:TrackPointExtension>
            <ns3:hr>116</ns3:hr>
            <ns3:cad>64</ns3:cad>
          </ns3:TrackPointExtension>
        </extensions>
      </trkpt>
      <trkpt lat="37.02737200073897838592529296875" lon="-8.9730481244623661041259765625">
        <ele>51.59999847412109375</ele>
        <time>2026-04-28T10:34:19.000Z</time>
        <extensions>
          <ns3:TrackPointExtension>
            <ns3:hr>116</ns3:hr>
            <ns3:cad>63</ns3:cad>
          </ns3:TrackPointExtension>
        </extensions>
      </trkpt>
      <trkpt lat="37.02735624276101589202880859375" lon="-8.97328742779791355133056640625">
        <ele>52</ele>
        <time>2026-04-28T10:34:32.000Z</time>
        <extensions>
          <ns3:TrackPointExtension>
            <ns3:hr>116</ns3:hr>
            <ns3:cad>64</ns3:cad>
          </ns3:TrackPointExtension>
        </extensions>
      </trkpt>
      <trkpt lat="37.02735473401844501495361328125" lon="-8.97332481108605861663818359375">
        <ele>52</ele>
        <time>2026-04-28T10:34:34.000Z</time>
        <extensions>
          <ns3:TrackPointExtension>
            <ns3:hr>116</ns3:hr>
            <ns3:cad>62</ns3:cad>
          </ns3:TrackPointExtension>
        </extensions>
      </trkpt>
      <trkpt lat="37.02734014950692653656005859375" lon="-8.973484821617603302001953125">
        <ele>52.200000762939453125</ele>
        <time>2026-04-28T10:34:43.000Z</time>
        <extensions>
          <ns3:TrackPointExtension>
            <ns3:hr>113</ns3:hr>
            <ns3:cad>62</ns3:cad>
          </ns3:TrackPointExtension>
        </extensions>
      </trkpt>
      <trkpt lat="37.0273336954414844512939453125" lon="-8.9735939539968967437744140625">
        <ele>52.40000152587890625</ele>
        <time>2026-04-28T10:34:50.000Z</time>
        <extensions>
          <ns3:TrackPointExtension>
            <ns3:hr>113</ns3:hr>
            <ns3:cad>64</ns3:cad>
          </ns3:TrackPointExtension>
        </extensions>
      </trkpt>
      <trkpt lat="37.02732422389090061187744140625" lon="-8.9737012423574924468994140625">
        <ele>52.200000762939453125</ele>
        <time>2026-04-28T10:34:56.000Z</time>
        <extensions>
          <ns3:TrackPointExtension>
            <ns3:hr>116</ns3:hr>
            <ns3:cad>61</ns3:cad>
          </ns3:TrackPointExtension>
        </extensions>
      </trkpt>
      <trkpt lat="37.02732145786285400390625" lon="-8.9737371169030666351318359375">
        <ele>52.59999847412109375</ele>
        <time>2026-04-28T10:34:58.000Z</time>
        <extensions>
          <ns3:TrackPointExtension>
            <ns3:hr>117</ns3:hr>
            <ns3:cad>62</ns3:cad>
          </ns3:TrackPointExtension>
        </extensions>
      </trkpt>
      <trkpt lat="37.027313411235809326171875" lon="-8.9738276414573192596435546875">
        <ele>52.59999847412109375</ele>
        <time>2026-04-28T10:35:03.000Z</time>
        <extensions>
          <ns3:TrackPointExtension>
            <ns3:hr>119</ns3:hr>
            <ns3:cad>63</ns3:cad>
          </ns3:TrackPointExtension>
        </extensions>
      </trkpt>
      <trkpt lat="37.02729974873363971710205078125" lon="-8.9740589819848537445068359375">
        <ele>53.200000762939453125</ele>
        <time>2026-04-28T10:35:16.000Z</time>
        <extensions>
          <ns3:TrackPointExtension>
            <ns3:hr>119</ns3:hr>
            <ns3:cad>64</ns3:cad>
          </ns3:TrackPointExtension>
        </extensions>
      </trkpt>
      <trkpt lat="37.02728063799440860748291015625" lon="-8.97428722120821475982666015625">
        <ele>53.200000762939453125</ele>
        <time>2026-04-28T10:35:29.000Z</time>
        <extensions>
          <ns3:TrackPointExtension>
            <ns3:hr>116</ns3:hr>
            <ns3:cad>63</ns3:cad>
          </ns3:TrackPointExtension>
        </extensions>
      </trkpt>
      <trkpt lat="37.0272800512611865997314453125" lon="-8.97430448792874813079833984375">
        <ele>53.200000762939453125</ele>
        <time>2026-04-28T10:35:30.000Z</time>
        <extensions>
          <ns3:TrackPointExtension>
            <ns3:hr>116</ns3:hr>
            <ns3:cad>63</ns3:cad>
          </ns3:TrackPointExtension>
        </extensions>
      </trkpt>
      <trkpt lat="37.0272693224251270294189453125" lon="-8.97444966249167919158935546875">
        <ele>53.59999847412109375</ele>
        <time>2026-04-28T10:35:38.000Z</time>
        <extensions>
          <ns3:TrackPointExtension>
            <ns3:hr>114</ns3:hr>
            <ns3:cad>63</ns3:cad>
          </ns3:TrackPointExtension>
        </extensions>
      </trkpt>
      <trkpt lat="37.0272602699697017669677734375" lon="-8.97456943988800048828125">
        <ele>53.59999847412109375</ele>
        <time>2026-04-28T10:35:45.000Z</time>
        <extensions>
          <ns3:TrackPointExtension>
            <ns3:hr>115</ns3:hr>
            <ns3:cad>62</ns3:cad>
          </ns3:TrackPointExtension>
        </extensions>
      </trkpt>
      <trkpt lat="37.02723705209791660308837890625" lon="-8.97480891086161136627197265625">
        <ele>53.799999237060546875</ele>
        <time>2026-04-28T10:35:59.000Z</time>
        <extensions>
          <ns3:TrackPointExtension>
            <ns3:hr>113</ns3:hr>
            <ns3:cad>62</ns3:cad>
          </ns3:TrackPointExtension>
        </extensions>
      </trkpt>
      <trkpt lat="37.0272297598421573638916015625" lon="-8.97503421641886234283447265625">
        <ele>54</ele>
        <time>2026-04-28T10:36:12.000Z</time>
        <extensions>
          <ns3:TrackPointExtension>
            <ns3:hr>113</ns3:hr>
            <ns3:cad>64</ns3:cad>
          </ns3:TrackPointExtension>
        </extensions>
      </trkpt>
      <trkpt lat="37.0272217132151126861572265625" lon="-8.9751662313938140869140625">
        <ele>53.799999237060546875</ele>
        <time>2026-04-28T10:36:20.000Z</time>
        <extensions>
          <ns3:TrackPointExtension>
            <ns3:hr>114</ns3:hr>
            <ns3:cad>61</ns3:cad>
          </ns3:TrackPointExtension>
        </extensions>
      </trkpt>
      <trkpt lat="37.02721215784549713134765625" lon="-8.97532657720148563385009765625">
        <ele>54.200000762939453125</ele>
        <time>2026-04-28T10:36:29.000Z</time>
        <extensions>
          <ns3:TrackPointExtension>
            <ns3:hr>117</ns3:hr>
            <ns3:cad>62</ns3:cad>
          </ns3:TrackPointExtension>
        </extensions>
      </trkpt>
      <trkpt lat="37.027208469808101654052734375" lon="-8.97537871263921260833740234375">
        <ele>54.59999847412109375</ele>
        <time>2026-04-28T10:36:32.000Z</time>
        <extensions>
          <ns3:TrackPointExtension>
            <ns3:hr>118</ns3:hr>
            <ns3:cad>62</ns3:cad>
          </ns3:TrackPointExtension>
        </extensions>
      </trkpt>
      <trkpt lat="37.0272066257894039154052734375" lon="-8.975395224988460540771484375">
        <ele>54.799999237060546875</ele>
        <time>2026-04-28T10:36:33.000Z</time>
        <extensions>
          <ns3:TrackPointExtension>
            <ns3:hr>118</ns3:hr>
            <ns3:cad>62</ns3:cad>
          </ns3:TrackPointExtension>
        </extensions>
      </trkpt>
      <trkpt lat="37.027195058763027191162109375" lon="-8.97546194493770599365234375">
        <ele>54.799999237060546875</ele>
        <time>2026-04-28T10:36:40.000Z</time>
        <extensions>
          <ns3:TrackPointExtension>
            <ns3:hr>118</ns3:hr>
            <ns3:cad>0</ns3:cad>
          </ns3:TrackPointExtension>
        </extensions>
      </trkpt>
      <trkpt lat="37.02719430439174175262451171875" lon="-8.97546001709997653961181640625">
        <ele>54.59999847412109375</ele>
        <time>2026-04-28T10:36:47.000Z</time>
        <extensions>
          <ns3:TrackPointExtension>
            <ns3:hr>115</ns3:hr>
            <ns3:cad>0</ns3:cad>
          </ns3:TrackPointExtension>
        </extensions>
      </trkpt>
      <trkpt lat="37.02719430439174175262451171875" lon="-8.97546001709997653961181640625">
        <ele>54.59999847412109375</ele>
        <time>2026-04-28T10:36:53.000Z</time>
        <extensions>
          <ns3:TrackPointExtension>
            <ns3:hr>118</ns3:hr>
            <ns3:cad>0</ns3:cad>
          </ns3:TrackPointExtension>
        </extensions>
      </trkpt>
      <trkpt lat="37.02719430439174175262451171875" lon="-8.97546001709997653961181640625">
        <ele>54.59999847412109375</ele>
        <time>2026-04-28T10:37:02.000Z</time>
        <extensions>
          <ns3:TrackPointExtension>
            <ns3:hr>115</ns3:hr>
            <ns3:cad>0</ns3:cad>
          </ns3:TrackPointExtension>
        </extensions>
      </trkpt>
      <trkpt lat="37.02719564549624919891357421875" lon="-8.975460939109325408935546875">
        <ele>54.59999847412109375</ele>
        <time>2026-04-28T10:37:03.000Z</time>
        <extensions>
          <ns3:TrackPointExtension>
            <ns3:hr>115</ns3:hr>
            <ns3:cad>0</ns3:cad>
          </ns3:TrackPointExtension>
        </extensions>
      </trkpt>
      <trkpt lat="37.027189694344997406005859375" lon="-8.97556495852768421173095703125">
        <ele>55.799999237060546875</ele>
        <time>2026-04-28T10:37:09.000Z</time>
        <extensions>
          <ns3:TrackPointExtension>
            <ns3:hr>113</ns3:hr>
            <ns3:cad>62</ns3:cad>
          </ns3:TrackPointExtension>
        </extensions>
      </trkpt>
      <trkpt lat="37.02719011344015598297119140625" lon="-8.9755818061530590057373046875">
        <ele>55.799999237060546875</ele>
        <time>2026-04-28T10:37:10.000Z</time>
        <extensions>
          <ns3:TrackPointExtension>
            <ns3:hr>113</ns3:hr>
            <ns3:cad>62</ns3:cad>
          </ns3:TrackPointExtension>
        </extensions>
      </trkpt>
      <trkpt lat="37.02719698660075664520263671875" lon="-8.975729160010814666748046875">
        <ele>56.200000762939453125</ele>
        <time>2026-04-28T10:37:18.000Z</time>
        <extensions>
          <ns3:TrackPointExtension>
            <ns3:hr>116</ns3:hr>
            <ns3:cad>62</ns3:cad>
          </ns3:TrackPointExtension>
        </extensions>
      </trkpt>
      <trkpt lat="37.0271965675055980682373046875" lon="-8.975742571055889129638671875">
        <ele>56.200000762939453125</ele>
        <time>2026-04-28T10:37:19.000Z</time>
        <extensions>
          <ns3:TrackPointExtension>
            <ns3:hr>116</ns3:hr>
            <ns3:cad>62</ns3:cad>
          </ns3:TrackPointExtension>
        </extensions>
      </trkpt>
      <trkpt lat="37.0271992497146129608154296875" lon="-8.97582747973501682281494140625">
        <ele>54.799999237060546875</ele>
        <time>2026-04-28T10:37:25.000Z</time>
        <extensions>
          <ns3:TrackPointExtension>
            <ns3:hr>116</ns3:hr>
            <ns3:cad>0</ns3:cad>
          </ns3:TrackPointExtension>
        </extensions>
      </trkpt>
      <trkpt lat="37.0271989144384860992431640625" lon="-8.975821025669574737548828125">
        <ele>55.799999237060546875</ele>
        <time>2026-04-28T10:37:30.000Z</time>
        <extensions>
          <ns3:TrackPointExtension>
            <ns3:hr>113</ns3:hr>
            <ns3:cad>0</ns3:cad>
          </ns3:TrackPointExtension>
        </extensions>
      </trkpt>
      <trkpt lat="37.02719732187688350677490234375" lon="-8.97581423632800579071044921875">
        <ele>55.59999847412109375</ele>
        <time>2026-04-28T10:37:39.000Z</time>
        <extensions>
          <ns3:TrackPointExtension>
            <ns3:hr>116</ns3:hr>
            <ns3:cad>0</ns3:cad>
          </ns3:TrackPointExtension>
        </extensions>
      </trkpt>
      <trkpt lat="37.02719732187688350677490234375" lon="-8.97581423632800579071044921875">
        <ele>55.59999847412109375</ele>
        <time>2026-04-28T10:37:45.000Z</time>
        <extensions>
          <ns3:TrackPointExtension>
            <ns3:hr>119</ns3:hr>
            <ns3:cad>0</ns3:cad>
          </ns3:TrackPointExtension>
        </extensions>
      </trkpt>
      <trkpt lat="37.02720235101878643035888671875" lon="-8.97585086524486541748046875">
        <ele>56.40000152587890625</ele>
        <time>2026-04-28T10:37:50.000Z</time>
        <extensions>
          <ns3:TrackPointExtension>
            <ns3:hr>119</ns3:hr>
            <ns3:cad>0</ns3:cad>
          </ns3:TrackPointExtension>
        </extensions>
      </trkpt>
      <trkpt lat="37.02722028829157352447509765625" lon="-8.97596075199544429779052734375">
        <ele>56.40000152587890625</ele>
        <time>2026-04-28T10:37:57.000Z</time>
        <extensions>
          <ns3:TrackPointExtension>
            <ns3:hr>120</ns3:hr>
            <ns3:cad>0</ns3:cad>
          </ns3:TrackPointExtension>
        </extensions>
      </trkpt>
      <trkpt lat="37.02721291221678256988525390625" lon="-8.97597734816372394561767578125">
        <ele>56.59999847412109375</ele>
        <time>2026-04-28T10:38:03.000Z</time>
        <extensions>
          <ns3:TrackPointExtension>
            <ns3:hr>118</ns3:hr>
            <ns3:cad>0</ns3:cad>
          </ns3:TrackPointExtension>
        </extensions>
      </trkpt>
      <trkpt lat="37.02721291221678256988525390625" lon="-8.97597734816372394561767578125">
        <ele>56.59999847412109375</ele>
        <time>2026-04-28T10:38:04.000Z</time>
        <extensions>
          <ns3:TrackPointExtension>
            <ns3:hr>115</ns3:hr>
            <ns3:cad>0</ns3:cad>
          </ns3:TrackPointExtension>
        </extensions>
      </trkpt>
      <trkpt lat="37.02721341513097286224365234375" lon="-8.97600618191063404083251953125">
        <ele>56.59999847412109375</ele>
        <time>2026-04-28T10:38:06.000Z</time>
        <extensions>
          <ns3:TrackPointExtension>
            <ns3:hr>112</ns3:hr>
            <ns3:cad>0</ns3:cad>
          </ns3:TrackPointExtension>
        </extensions>
      </trkpt>
      <trkpt lat="37.027207128703594207763671875" lon="-8.9760491810739040374755859375">
        <ele>56.40000152587890625</ele>
        <time>2026-04-28T10:38:08.000Z</time>
        <extensions>
          <ns3:TrackPointExtension>
            <ns3:hr>115</ns3:hr>
            <ns3:cad>0</ns3:cad>
          </ns3:TrackPointExtension>
        </extensions>
      </trkpt>
      <trkpt lat="37.02720100991427898406982421875" lon="-8.97605873644351959228515625">
        <ele>56.40000152587890625</ele>
        <time>2026-04-28T10:38:09.000Z</time>
        <extensions>
          <ns3:TrackPointExtension>
            <ns3:hr>115</ns3:hr>
            <ns3:cad>0</ns3:cad>
          </ns3:TrackPointExtension>
        </extensions>
      </trkpt>
      <trkpt lat="37.0271710865199565887451171875" lon="-8.976182453334331512451171875">
        <ele>56</ele>
        <time>2026-04-28T10:38:17.000Z</time>
        <extensions>
          <ns3:TrackPointExtension>
            <ns3:hr>114</ns3:hr>
            <ns3:cad>60</ns3:cad>
          </ns3:TrackPointExtension>
        </extensions>
      </trkpt>
      <trkpt lat="37.02716312371194362640380859375" lon="-8.97627591155469417572021484375">
        <ele>56</ele>
        <time>2026-04-28T10:38:27.000Z</time>
        <extensions>
          <ns3:TrackPointExtension>
            <ns3:hr>114</ns3:hr>
            <ns3:cad>0</ns3:cad>
          </ns3:TrackPointExtension>
        </extensions>
      </trkpt>
      <trkpt lat="37.02716345898807048797607421875" lon="-8.9762699604034423828125">
        <ele>56</ele>
        <time>2026-04-28T10:38:30.000Z</time>
        <extensions>
          <ns3:TrackPointExtension>
            <ns3:hr>111</ns3:hr>
            <ns3:cad>0</ns3:cad>
          </ns3:TrackPointExtension>
        </extensions>
      </trkpt>
      <trkpt lat="37.02717217616736888885498046875" lon="-8.976326286792755126953125">
        <ele>56</ele>
        <time>2026-04-28T10:38:35.000Z</time>
        <extensions>
          <ns3:TrackPointExtension>
            <ns3:hr>112</ns3:hr>
            <ns3:cad>0</ns3:cad>
          </ns3:TrackPointExtension>
        </extensions>
      </trkpt>
      <trkpt lat="37.0271100662648677825927734375" lon="-8.97647690959274768829345703125">
        <ele>56</ele>
        <time>2026-04-28T10:38:44.000Z</time>
        <extensions>
          <ns3:TrackPointExtension>
            <ns3:hr>112</ns3:hr>
            <ns3:cad>64</ns3:cad>
          </ns3:TrackPointExtension>
        </extensions>
      </trkpt>
      <trkpt lat="37.0270653069019317626953125" lon="-8.976519070565700531005859375">
        <ele>56</ele>
        <time>2026-04-28T10:38:48.000Z</time>
        <extensions>
          <ns3:TrackPointExtension>
            <ns3:hr>109</ns3:hr>
            <ns3:cad>63</ns3:cad>
          </ns3:TrackPointExtension>
        </extensions>
      </trkpt>
      <trkpt lat="37.0270135067403316497802734375" lon="-8.9765923283994197845458984375">
        <ele>55.799999237060546875</ele>
        <time>2026-04-28T10:38:54.000Z</time>
        <extensions>
          <ns3:TrackPointExtension>
            <ns3:hr>108</ns3:hr>
            <ns3:cad>62</ns3:cad>
          </ns3:TrackPointExtension>
        </extensions>
      </trkpt>
      <trkpt lat="37.02701677568256855010986328125" lon="-8.97661185823380947113037109375">
        <ele>55.799999237060546875</ele>
        <time>2026-04-28T10:38:55.000Z</time>
        <extensions>
          <ns3:TrackPointExtension>
            <ns3:hr>108</ns3:hr>
            <ns3:cad>62</ns3:cad>
          </ns3:TrackPointExtension>
        </extensions>
      </trkpt>
      <trkpt lat="37.02702968381345272064208984375" lon="-8.97663147188723087310791015625">
        <ele>55.799999237060546875</ele>
        <time>2026-04-28T10:38:58.000Z</time>
        <extensions>
          <ns3:TrackPointExtension>
            <ns3:hr>109</ns3:hr>
            <ns3:cad>0</ns3:cad>
          </ns3:TrackPointExtension>
        </extensions>
      </trkpt>
      <trkpt lat="37.0270611159503459930419921875" lon="-8.976679332554340362548828125">
        <ele>55.799999237060546875</ele>
        <time>2026-04-28T10:39:03.000Z</time>
        <extensions>
          <ns3:TrackPointExtension>
            <ns3:hr>109</ns3:hr>
            <ns3:cad>55</ns3:cad>
          </ns3:TrackPointExtension>
        </extensions>
      </trkpt>
      <trkpt lat="37.02710545621812343597412109375" lon="-8.9767889678478240966796875">
        <ele>55.799999237060546875</ele>
        <time>2026-04-28T10:39:10.000Z</time>
        <extensions>
          <ns3:TrackPointExtension>
            <ns3:hr>109</ns3:hr>
            <ns3:cad>61</ns3:cad>
          </ns3:TrackPointExtension>
        </extensions>
      </trkpt>
      <trkpt lat="37.0270867645740509033203125" lon="-8.9768166281282901763916015625">
        <ele>55.59999847412109375</ele>
        <time>2026-04-28T10:39:12.000Z</time>
        <extensions>
          <ns3:TrackPointExtension>
            <ns3:hr>109</ns3:hr>
            <ns3:cad>61</ns3:cad>
          </ns3:TrackPointExtension>
        </extensions>
      </trkpt>
      <trkpt lat="37.02701442874968051910400390625" lon="-8.9769618026912212371826171875">
        <ele>55.799999237060546875</ele>
        <time>2026-04-28T10:39:22.000Z</time>
        <extensions>
          <ns3:TrackPointExtension>
            <ns3:hr>109</ns3:hr>
            <ns3:cad>61</ns3:cad>
          </ns3:TrackPointExtension>
        </extensions>
      </trkpt>
      <trkpt lat="37.0269601978361606597900390625" lon="-8.97713354788720607757568359375">
        <ele>56.200000762939453125</ele>
        <time>2026-04-28T10:39:33.000Z</time>
        <extensions>
          <ns3:TrackPointExtension>
            <ns3:hr>107</ns3:hr>
            <ns3:cad>61</ns3:cad>
          </ns3:TrackPointExtension>
        </extensions>
      </trkpt>
      <trkpt lat="37.02690982259809970855712890625" lon="-8.97722993977367877960205078125">
        <ele>56.799999237060546875</ele>
        <time>2026-04-28T10:39:41.000Z</time>
        <extensions>
          <ns3:TrackPointExtension>
            <ns3:hr>108</ns3:hr>
            <ns3:cad>60</ns3:cad>
          </ns3:TrackPointExtension>
        </extensions>
      </trkpt>
      <trkpt lat="37.0268961600959300994873046875" lon="-8.97729615680873394012451171875">
        <ele>57.40000152587890625</ele>
        <time>2026-04-28T10:39:48.000Z</time>
        <extensions>
          <ns3:TrackPointExtension>
            <ns3:hr>109</ns3:hr>
            <ns3:cad>50</ns3:cad>
          </ns3:TrackPointExtension>
        </extensions>
      </trkpt>
      <trkpt lat="37.0268931426107883453369140625" lon="-8.97731828503310680389404296875">
        <ele>56.799999237060546875</ele>
        <time>2026-04-28T10:39:52.000Z</time>
        <extensions>
          <ns3:TrackPointExtension>
            <ns3:hr>112</ns3:hr>
            <ns3:cad>0</ns3:cad>
          </ns3:TrackPointExtension>
        </extensions>
      </trkpt>
      <trkpt lat="37.0268931426107883453369140625" lon="-8.977318368852138519287109375">
        <ele>56.799999237060546875</ele>
        <time>2026-04-28T10:39:53.000Z</time>
        <extensions>
          <ns3:TrackPointExtension>
            <ns3:hr>115</ns3:hr>
            <ns3:cad>0</ns3:cad>
          </ns3:TrackPointExtension>
        </extensions>
      </trkpt>
      <trkpt lat="37.02689087949693202972412109375" lon="-8.9773275889456272125244140625">
        <ele>56.59999847412109375</ele>
        <time>2026-04-28T10:39:55.000Z</time>
        <extensions>
          <ns3:TrackPointExtension>
            <ns3:hr>119</ns3:hr>
            <ns3:cad>0</ns3:cad>
          </ns3:TrackPointExtension>
        </extensions>
      </trkpt>
      <trkpt lat="37.02687763608992099761962890625" lon="-8.97738466970622539520263671875">
        <ele>56.200000762939453125</ele>
        <time>2026-04-28T10:40:04.000Z</time>
        <extensions>
          <ns3:TrackPointExtension>
            <ns3:hr>117</ns3:hr>
            <ns3:cad>0</ns3:cad>
          </ns3:TrackPointExtension>
        </extensions>
      </trkpt>
      <trkpt lat="37.02687445096671581268310546875" lon="-8.97741400636732578277587890625">
        <ele>55.799999237060546875</ele>
        <time>2026-04-28T10:40:07.000Z</time>
        <extensions>
          <ns3:TrackPointExtension>
            <ns3:hr>116</ns3:hr>
            <ns3:cad>0</ns3:cad>
          </ns3:TrackPointExtension>
        </extensions>
      </trkpt>
      <trkpt lat="37.0268332958221435546875" lon="-8.97744585759937763214111328125">
        <ele>55.59999847412109375</ele>
        <time>2026-04-28T10:40:11.000Z</time>
        <extensions>
          <ns3:TrackPointExtension>
            <ns3:hr>116</ns3:hr>
            <ns3:cad>0</ns3:cad>
          </ns3:TrackPointExtension>
        </extensions>
      </trkpt>
      <trkpt lat="37.0268244110047817230224609375" lon="-8.9774831570684909820556640625">
        <ele>55.40000152587890625</ele>
        <time>2026-04-28T10:40:14.000Z</time>
        <extensions>
          <ns3:TrackPointExtension>
            <ns3:hr>114</ns3:hr>
            <ns3:cad>55</ns3:cad>
          </ns3:TrackPointExtension>
        </extensions>
      </trkpt>
      <trkpt lat="37.02682466246187686920166015625" lon="-8.9775145053863525390625">
        <ele>55.59999847412109375</ele>
        <time>2026-04-28T10:40:16.000Z</time>
        <extensions>
          <ns3:TrackPointExtension>
            <ns3:hr>115</ns3:hr>
            <ns3:cad>60</ns3:cad>
          </ns3:TrackPointExtension>
        </extensions>
      </trkpt>
      <trkpt lat="37.0267783105373382568359375" lon="-8.97766563110053539276123046875">
        <ele>55.799999237060546875</ele>
        <time>2026-04-28T10:40:26.000Z</time>
        <extensions>
          <ns3:TrackPointExtension>
            <ns3:hr>115</ns3:hr>
            <ns3:cad>61</ns3:cad>
          </ns3:TrackPointExtension>
        </extensions>
      </trkpt>
      <trkpt lat="37.02677940018475055694580078125" lon="-8.97776101715862751007080078125">
        <ele>56.59999847412109375</ele>
        <time>2026-04-28T10:40:32.000Z</time>
        <extensions>
          <ns3:TrackPointExtension>
            <ns3:hr>115</ns3:hr>
            <ns3:cad>60</ns3:cad>
          </ns3:TrackPointExtension>
        </extensions>
      </trkpt>
      <trkpt lat="37.02678023837506771087646484375" lon="-8.9778556488454341888427734375">
        <ele>56.799999237060546875</ele>
        <time>2026-04-28T10:40:38.000Z</time>
        <extensions>
          <ns3:TrackPointExtension>
            <ns3:hr>113</ns3:hr>
            <ns3:cad>60</ns3:cad>
          </ns3:TrackPointExtension>
        </extensions>
      </trkpt>
      <trkpt lat="37.02677906490862369537353515625" lon="-8.9779015816748142242431640625">
        <ele>56.799999237060546875</ele>
        <time>2026-04-28T10:40:41.000Z</time>
        <extensions>
          <ns3:TrackPointExtension>
            <ns3:hr>110</ns3:hr>
            <ns3:cad>61</ns3:cad>
          </ns3:TrackPointExtension>
        </extensions>
      </trkpt>
      <trkpt lat="37.02674184925854206085205078125" lon="-8.9779904298484325408935546875">
        <ele>56.59999847412109375</ele>
        <time>2026-04-28T10:40:47.000Z</time>
        <extensions>
          <ns3:TrackPointExtension>
            <ns3:hr>113</ns3:hr>
            <ns3:cad>59</ns3:cad>
          </ns3:TrackPointExtension>
        </extensions>
      </trkpt>
      <trkpt lat="37.0267335511744022369384765625" lon="-8.9780061878263950347900390625">
        <ele>56.59999847412109375</ele>
        <time>2026-04-28T10:40:48.000Z</time>
        <extensions>
          <ns3:TrackPointExtension>
            <ns3:hr>113</ns3:hr>
            <ns3:cad>60</ns3:cad>
          </ns3:TrackPointExtension>
        </extensions>
      </trkpt>
      <trkpt lat="37.02669390477240085601806640625" lon="-8.97815890610218048095703125">
        <ele>56.40000152587890625</ele>
        <time>2026-04-28T10:40:57.000Z</time>
        <extensions>
          <ns3:TrackPointExtension>
            <ns3:hr>115</ns3:hr>
            <ns3:cad>63</ns3:cad>
          </ns3:TrackPointExtension>
        </extensions>
      </trkpt>
      <trkpt lat="37.02668108046054840087890625" lon="-8.97833056747913360595703125">
        <ele>56.799999237060546875</ele>
        <time>2026-04-28T10:41:07.000Z</time>
        <extensions>
          <ns3:TrackPointExtension>
            <ns3:hr>112</ns3:hr>
            <ns3:cad>62</ns3:cad>
          </ns3:TrackPointExtension>
        </extensions>
      </trkpt>
      <trkpt lat="37.0266790688037872314453125" lon="-8.9783446490764617919921875">
        <ele>57</ele>
        <time>2026-04-28T10:41:08.000Z</time>
        <extensions>
          <ns3:TrackPointExtension>
            <ns3:hr>112</ns3:hr>
            <ns3:cad>62</ns3:cad>
          </ns3:TrackPointExtension>
        </extensions>
      </trkpt>
      <trkpt lat="37.02665300108492374420166015625" lon="-8.97853550501167774200439453125">
        <ele>56.59999847412109375</ele>
        <time>2026-04-28T10:41:19.000Z</time>
        <extensions>
          <ns3:TrackPointExtension>
            <ns3:hr>111</ns3:hr>
            <ns3:cad>61</ns3:cad>
          </ns3:TrackPointExtension>
        </extensions>
      </trkpt>
      <trkpt lat="37.026618383824825286865234375" lon="-8.9787045679986476898193359375">
        <ele>56.799999237060546875</ele>
        <time>2026-04-28T10:41:29.000Z</time>
        <extensions>
          <ns3:TrackPointExtension>
            <ns3:hr>111</ns3:hr>
            <ns3:cad>61</ns3:cad>
          </ns3:TrackPointExtension>
        </extensions>
      </trkpt>
      <trkpt lat="37.0265545137226581573486328125" lon="-8.97881076671183109283447265625">
        <ele>56.59999847412109375</ele>
        <time>2026-04-28T10:41:37.000Z</time>
        <extensions>
          <ns3:TrackPointExtension>
            <ns3:hr>111</ns3:hr>
            <ns3:cad>0</ns3:cad>
          </ns3:TrackPointExtension>
        </extensions>
      </trkpt>
      <trkpt lat="37.02646776102483272552490234375" lon="-8.9788703620433807373046875">
        <ele>56.799999237060546875</ele>
        <time>2026-04-28T10:41:45.000Z</time>
        <extensions>
          <ns3:TrackPointExtension>
            <ns3:hr>113</ns3:hr>
            <ns3:cad>60</ns3:cad>
          </ns3:TrackPointExtension>
        </extensions>
      </trkpt>
      <trkpt lat="37.02646650373935699462890625" lon="-8.9789892174303531646728515625">
        <ele>57.40000152587890625</ele>
        <time>2026-04-28T10:41:53.000Z</time>
        <extensions>
          <ns3:TrackPointExtension>
            <ns3:hr>113</ns3:hr>
            <ns3:cad>53</ns3:cad>
          </ns3:TrackPointExtension>
        </extensions>
      </trkpt>
      <trkpt lat="37.02649575658142566680908203125" lon="-8.9790361560881137847900390625">
        <ele>57.799999237060546875</ele>
        <time>2026-04-28T10:41:57.000Z</time>
        <extensions>
          <ns3:TrackPointExtension>
            <ns3:hr>114</ns3:hr>
            <ns3:cad>0</ns3:cad>
          </ns3:TrackPointExtension>
        </extensions>
      </trkpt>
      <trkpt lat="37.02650765888392925262451171875" lon="-8.979065157473087310791015625">
        <ele>58</ele>
        <time>2026-04-28T10:41:59.000Z</time>
        <extensions>
          <ns3:TrackPointExtension>
            <ns3:hr>114</ns3:hr>
            <ns3:cad>0</ns3:cad>
          </ns3:TrackPointExtension>
        </extensions>
      </trkpt>
      <trkpt lat="37.0265417732298374176025390625" lon="-8.97920203395187854766845703125">
        <ele>57.200000762939453125</ele>
        <time>2026-04-28T10:42:08.000Z</time>
        <extensions>
          <ns3:TrackPointExtension>
            <ns3:hr>117</ns3:hr>
            <ns3:cad>0</ns3:cad>
          </ns3:TrackPointExtension>
        </extensions>
      </trkpt>
      <trkpt lat="37.02658628113567829132080078125" lon="-8.97933882661163806915283203125">
        <ele>59</ele>
        <time>2026-04-28T10:42:17.000Z</time>
        <extensions>
          <ns3:TrackPointExtension>
            <ns3:hr>117</ns3:hr>
            <ns3:cad>62</ns3:cad>
          </ns3:TrackPointExtension>
        </extensions>
      </trkpt>
      <trkpt lat="37.0265954174101352691650390625" lon="-8.9793499745428562164306640625">
        <ele>59.40000152587890625</ele>
        <time>2026-04-28T10:42:18.000Z</time>
        <extensions>
          <ns3:TrackPointExtension>
            <ns3:hr>117</ns3:hr>
            <ns3:cad>64</ns3:cad>
          </ns3:TrackPointExtension>
        </extensions>
      </trkpt>
      <trkpt lat="37.0266265980899333953857421875" lon="-8.97940454073250293731689453125">
        <ele>57.799999237060546875</ele>
        <time>2026-04-28T10:42:24.000Z</time>
        <extensions>
          <ns3:TrackPointExtension>
            <ns3:hr>118</ns3:hr>
            <ns3:cad>0</ns3:cad>
          </ns3:TrackPointExtension>
        </extensions>
      </trkpt>
      <trkpt lat="37.02662735246121883392333984375" lon="-8.9794049598276615142822265625">
        <ele>57.799999237060546875</ele>
        <time>2026-04-28T10:42:25.000Z</time>
        <extensions>
          <ns3:TrackPointExtension>
            <ns3:hr>118</ns3:hr>
            <ns3:cad>0</ns3:cad>
          </ns3:TrackPointExtension>
        </extensions>
      </trkpt>
      <trkpt lat="37.02662944793701171875" lon="-8.979398421943187713623046875">
        <ele>58.200000762939453125</ele>
        <time>2026-04-28T10:42:38.000Z</time>
        <extensions>
          <ns3:TrackPointExtension>
            <ns3:hr>119</ns3:hr>
            <ns3:cad>0</ns3:cad>
          </ns3:TrackPointExtension>
        </extensions>
      </trkpt>
      <trkpt lat="37.02668485231697559356689453125" lon="-8.97946388460695743560791015625">
        <ele>58</ele>
        <time>2026-04-28T10:42:45.000Z</time>
        <extensions>
          <ns3:TrackPointExtension>
            <ns3:hr>118</ns3:hr>
            <ns3:cad>59</ns3:cad>
          </ns3:TrackPointExtension>
        </extensions>
      </trkpt>
      <trkpt lat="37.02670630998909473419189453125" lon="-8.97949020378291606903076171875">
        <ele>59.59999847412109375</ele>
        <time>2026-04-28T10:42:47.000Z</time>
        <extensions>
          <ns3:TrackPointExtension>
            <ns3:hr>117</ns3:hr>
            <ns3:cad>0</ns3:cad>
          </ns3:TrackPointExtension>
        </extensions>
      </trkpt>
      <trkpt lat="37.0267362333834171295166015625" lon="-8.9795266650617122650146484375">
        <ele>59.59999847412109375</ele>
        <time>2026-04-28T10:42:50.000Z</time>
        <extensions>
          <ns3:TrackPointExtension>
            <ns3:hr>114</ns3:hr>
            <ns3:cad>0</ns3:cad>
          </ns3:TrackPointExtension>
        </extensions>
      </trkpt>
      <trkpt lat="37.0267674140632152557373046875" lon="-8.97955222986638545989990234375">
        <ele>59.799999237060546875</ele>
        <time>2026-04-28T10:42:53.000Z</time>
        <extensions>
          <ns3:TrackPointExtension>
            <ns3:hr>114</ns3:hr>
            <ns3:cad>0</ns3:cad>
          </ns3:TrackPointExtension>
        </extensions>
      </trkpt>
      <trkpt lat="37.02684477902948856353759765625" lon="-8.97963009774684906005859375">
        <ele>59</ele>
        <time>2026-04-28T10:43:01.000Z</time>
        <extensions>
          <ns3:TrackPointExtension>
            <ns3:hr>117</ns3:hr>
            <ns3:cad>57</ns3:cad>
          </ns3:TrackPointExtension>
        </extensions>
      </trkpt>
      <trkpt lat="37.02686774544417858123779296875" lon="-8.9796423353254795074462890625">
        <ele>58.799999237060546875</ele>
        <time>2026-04-28T10:43:03.000Z</time>
        <extensions>
          <ns3:TrackPointExtension>
            <ns3:hr>117</ns3:hr>
            <ns3:cad>57</ns3:cad>
          </ns3:TrackPointExtension>
        </extensions>
      </trkpt>
      <trkpt lat="37.02690345235168933868408203125" lon="-8.97969908080995082855224609375">
        <ele>59.59999847412109375</ele>
        <time>2026-04-28T10:43:07.000Z</time>
        <extensions>
          <ns3:TrackPointExtension>
            <ns3:hr>117</ns3:hr>
            <ns3:cad>59</ns3:cad>
          </ns3:TrackPointExtension>
        </extensions>
      </trkpt>
      <trkpt lat="37.0269353874027729034423828125" lon="-8.9797647111117839813232421875">
        <ele>59.200000762939453125</ele>
        <time>2026-04-28T10:43:13.000Z</time>
        <extensions>
          <ns3:TrackPointExtension>
            <ns3:hr>118</ns3:hr>
            <ns3:cad>0</ns3:cad>
          </ns3:TrackPointExtension>
        </extensions>
      </trkpt>
      <trkpt lat="37.02698886394500732421875" lon="-8.97979429922997951507568359375">
        <ele>58.40000152587890625</ele>
        <time>2026-04-28T10:43:19.000Z</time>
        <extensions>
          <ns3:TrackPointExtension>
            <ns3:hr>117</ns3:hr>
            <ns3:cad>62</ns3:cad>
          </ns3:TrackPointExtension>
        </extensions>
      </trkpt>
      <trkpt lat="37.0270047895610332489013671875" lon="-8.97980636917054653167724609375">
        <ele>58.40000152587890625</ele>
        <time>2026-04-28T10:43:21.000Z</time>
        <extensions>
          <ns3:TrackPointExtension>
            <ns3:hr>116</ns3:hr>
            <ns3:cad>57</ns3:cad>
          </ns3:TrackPointExtension>
        </extensions>
      </trkpt>
      <trkpt lat="37.02701241709291934967041015625" lon="-8.979819528758525848388671875">
        <ele>59.200000762939453125</ele>
        <time>2026-04-28T10:43:25.000Z</time>
        <extensions>
          <ns3:TrackPointExtension>
            <ns3:hr>119</ns3:hr>
            <ns3:cad>0</ns3:cad>
          </ns3:TrackPointExtension>
        </extensions>
      </trkpt>
      <trkpt lat="37.027018368244171142578125" lon="-8.9798186905682086944580078125">
        <ele>59.40000152587890625</ele>
        <time>2026-04-28T10:43:27.000Z</time>
        <extensions>
          <ns3:TrackPointExtension>
            <ns3:hr>118</ns3:hr>
            <ns3:cad>0</ns3:cad>
          </ns3:TrackPointExtension>
        </extensions>
      </trkpt>
      <trkpt lat="37.0270198769867420196533203125" lon="-8.97982028312981128692626953125">
        <ele>59.59999847412109375</ele>
        <time>2026-04-28T10:43:28.000Z</time>
        <extensions>
          <ns3:TrackPointExtension>
            <ns3:hr>118</ns3:hr>
            <ns3:cad>0</ns3:cad>
          </ns3:TrackPointExtension>
        </extensions>
      </trkpt>
      <trkpt lat="37.02702029608190059661865234375" lon="-8.979819528758525848388671875">
        <ele>59.40000152587890625</ele>
        <time>2026-04-28T10:43:38.000Z</time>
        <extensions>
          <ns3:TrackPointExtension>
            <ns3:hr>115</ns3:hr>
            <ns3:cad>0</ns3:cad>
          </ns3:TrackPointExtension>
        </extensions>
      </trkpt>
      <trkpt lat="37.0270384848117828369140625" lon="-8.979828245937824249267578125">
        <ele>59</ele>
        <time>2026-04-28T10:43:41.000Z</time>
        <extensions>
          <ns3:TrackPointExtension>
            <ns3:hr>114</ns3:hr>
            <ns3:cad>0</ns3:cad>
          </ns3:TrackPointExtension>
        </extensions>
      </trkpt>
      <trkpt lat="37.02712322585284709930419921875" lon="-8.97990494035184383392333984375">
        <ele>60.40000152587890625</ele>
        <time>2026-04-28T10:43:49.000Z</time>
        <extensions>
          <ns3:TrackPointExtension>
            <ns3:hr>112</ns3:hr>
            <ns3:cad>0</ns3:cad>
          </ns3:TrackPointExtension>
        </extensions>
      </trkpt>
      <trkpt lat="37.0271295122802257537841796875" lon="-8.97991717793047428131103515625">
        <ele>60.59999847412109375</ele>
        <time>2026-04-28T10:43:50.000Z</time>
        <extensions>
          <ns3:TrackPointExtension>
            <ns3:hr>112</ns3:hr>
            <ns3:cad>55</ns3:cad>
          </ns3:TrackPointExtension>
        </extensions>
      </trkpt>
      <trkpt lat="37.02717117033898830413818359375" lon="-8.979952298104763031005859375">
        <ele>60.40000152587890625</ele>
        <time>2026-04-28T10:43:54.000Z</time>
        <extensions>
          <ns3:TrackPointExtension>
            <ns3:hr>115</ns3:hr>
            <ns3:cad>55</ns3:cad>
          </ns3:TrackPointExtension>
        </extensions>
      </trkpt>
      <trkpt lat="37.027181647717952728271484375" lon="-8.97995824925601482391357421875">
        <ele>60.200000762939453125</ele>
        <time>2026-04-28T10:43:55.000Z</time>
        <extensions>
          <ns3:TrackPointExtension>
            <ns3:hr>115</ns3:hr>
            <ns3:cad>60</ns3:cad>
          </ns3:TrackPointExtension>
        </extensions>
      </trkpt>
      <trkpt lat="37.02724157832562923431396484375" lon="-8.9800429902970790863037109375">
        <ele>60.200000762939453125</ele>
        <time>2026-04-28T10:44:02.000Z</time>
        <extensions>
          <ns3:TrackPointExtension>
            <ns3:hr>115</ns3:hr>
            <ns3:cad>0</ns3:cad>
          </ns3:TrackPointExtension>
        </extensions>
      </trkpt>
      <trkpt lat="37.02729673124849796295166015625" lon="-8.9801502786576747894287109375">
        <ele>60.200000762939453125</ele>
        <time>2026-04-28T10:44:10.000Z</time>
        <extensions>
          <ns3:TrackPointExtension>
            <ns3:hr>116</ns3:hr>
            <ns3:cad>0</ns3:cad>
          </ns3:TrackPointExtension>
        </extensions>
      </trkpt>
      <trkpt lat="37.02737837098538875579833984375" lon="-8.98024859838187694549560546875">
        <ele>60.200000762939453125</ele>
        <time>2026-04-28T10:44:19.000Z</time>
        <extensions>
          <ns3:TrackPointExtension>
            <ns3:hr>119</ns3:hr>
            <ns3:cad>62</ns3:cad>
          </ns3:TrackPointExtension>
        </extensions>
      </trkpt>
      <trkpt lat="37.0273900218307971954345703125" lon="-8.98025413043797016143798828125">
        <ele>60.200000762939453125</ele>
        <time>2026-04-28T10:44:20.000Z</time>
        <extensions>
          <ns3:TrackPointExtension>
            <ns3:hr>119</ns3:hr>
            <ns3:cad>58</ns3:cad>
          </ns3:TrackPointExtension>
        </extensions>
      </trkpt>
      <trkpt lat="37.027429752051830291748046875" lon="-8.98032101802527904510498046875">
        <ele>59.799999237060546875</ele>
        <time>2026-04-28T10:44:26.000Z</time>
        <extensions>
          <ns3:TrackPointExtension>
            <ns3:hr>116</ns3:hr>
            <ns3:cad>55</ns3:cad>
          </ns3:TrackPointExtension>
        </extensions>
      </trkpt>
      <trkpt lat="37.02743570320308208465576171875" lon="-8.98033509962260723114013671875">
        <ele>59.799999237060546875</ele>
        <time>2026-04-28T10:44:27.000Z</time>
        <extensions>
          <ns3:TrackPointExtension>
            <ns3:hr>114</ns3:hr>
            <ns3:cad>54</ns3:cad>
          </ns3:TrackPointExtension>
        </extensions>
      </trkpt>
      <trkpt lat="37.02747635543346405029296875" lon="-8.98040584288537502288818359375">
        <ele>60</ele>
        <time>2026-04-28T10:44:33.000Z</time>
        <extensions>
          <ns3:TrackPointExtension>
            <ns3:hr>112</ns3:hr>
            <ns3:cad>57</ns3:cad>
          </ns3:TrackPointExtension>
        </extensions>
      </trkpt>
      <trkpt lat="37.02753159217536449432373046875" lon="-8.98048144765198230743408203125">
        <ele>59.59999847412109375</ele>
        <time>2026-04-28T10:44:39.000Z</time>
        <extensions>
          <ns3:TrackPointExtension>
            <ns3:hr>112</ns3:hr>
            <ns3:cad>60</ns3:cad>
          </ns3:TrackPointExtension>
        </extensions>
      </trkpt>
      <trkpt lat="37.02755070291459560394287109375" lon="-8.9805065095424652099609375">
        <ele>59.59999847412109375</ele>
        <time>2026-04-28T10:44:41.000Z</time>
        <extensions>
          <ns3:TrackPointExtension>
            <ns3:hr>112</ns3:hr>
            <ns3:cad>62</ns3:cad>
          </ns3:TrackPointExtension>
        </extensions>
      </trkpt>
      <trkpt lat="37.02762119472026824951171875" lon="-8.98059275932610034942626953125">
        <ele>60</ele>
        <time>2026-04-28T10:44:49.000Z</time>
        <extensions>
          <ns3:TrackPointExtension>
            <ns3:hr>114</ns3:hr>
            <ns3:cad>60</ns3:cad>
          </ns3:TrackPointExtension>
        </extensions>
      </trkpt>
      <trkpt lat="37.02765564434230327606201171875" lon="-8.98061254061758518218994140625">
        <ele>60</ele>
        <time>2026-04-28T10:44:52.000Z</time>
        <extensions>
          <ns3:TrackPointExtension>
            <ns3:hr>117</ns3:hr>
            <ns3:cad>57</ns3:cad>
          </ns3:TrackPointExtension>
        </extensions>
      </trkpt>
      <trkpt lat="37.02767576090991497039794921875" lon="-8.9806540310382843017578125">
        <ele>59.200000762939453125</ele>
        <time>2026-04-28T10:44:56.000Z</time>
        <extensions>
          <ns3:TrackPointExtension>
            <ns3:hr>118</ns3:hr>
            <ns3:cad>57</ns3:cad>
          </ns3:TrackPointExtension>
        </extensions>
      </trkpt>
      <trkpt lat="37.02767592854797840118408203125" lon="-8.980673812329769134521484375">
        <ele>59.200000762939453125</ele>
        <time>2026-04-28T10:44:57.000Z</time>
        <extensions>
          <ns3:TrackPointExtension>
            <ns3:hr>118</ns3:hr>
            <ns3:cad>55</ns3:cad>
          </ns3:TrackPointExtension>
        </extensions>
      </trkpt>
      <trkpt lat="37.0276864059269428253173828125" lon="-8.98073206655681133270263671875">
        <ele>58.59999847412109375</ele>
        <time>2026-04-28T10:45:01.000Z</time>
        <extensions>
          <ns3:TrackPointExtension>
            <ns3:hr>118</ns3:hr>
            <ns3:cad>56</ns3:cad>
          </ns3:TrackPointExtension>
        </extensions>
      </trkpt>
      <trkpt lat="37.0277061872184276580810546875" lon="-8.9807598106563091278076171875">
        <ele>58.59999847412109375</ele>
        <time>2026-04-28T10:45:04.000Z</time>
        <extensions>
          <ns3:TrackPointExtension>
            <ns3:hr>118</ns3:hr>
            <ns3:cad>0</ns3:cad>
          </ns3:TrackPointExtension>
        </extensions>
      </trkpt>
      <trkpt lat="37.02772504650056362152099609375" lon="-8.9808258600533008575439453125">
        <ele>58.59999847412109375</ele>
        <time>2026-04-28T10:45:10.000Z</time>
        <extensions>
          <ns3:TrackPointExtension>
            <ns3:hr>117</ns3:hr>
            <ns3:cad>0</ns3:cad>
          </ns3:TrackPointExtension>
        </extensions>
      </trkpt>
      <trkpt lat="37.027726806700229644775390625" lon="-8.9808422885835170745849609375">
        <ele>58.59999847412109375</ele>
        <time>2026-04-28T10:45:18.000Z</time>
        <extensions>
          <ns3:TrackPointExtension>
            <ns3:hr>117</ns3:hr>
            <ns3:cad>0</ns3:cad>
          </ns3:TrackPointExtension>
        </extensions>
      </trkpt>
      <trkpt lat="37.027760334312915802001953125" lon="-8.98085595108568668365478515625">
        <ele>58.59999847412109375</ele>
        <time>2026-04-28T10:45:24.000Z</time>
        <extensions>
          <ns3:TrackPointExtension>
            <ns3:hr>116</ns3:hr>
            <ns3:cad>0</ns3:cad>
          </ns3:TrackPointExtension>
        </extensions>
      </trkpt>
      <trkpt lat="37.0277584902942180633544921875" lon="-8.9808536879718303680419921875">
        <ele>58.59999847412109375</ele>
        <time>2026-04-28T10:45:34.000Z</time>
        <extensions>
          <ns3:TrackPointExtension>
            <ns3:hr>114</ns3:hr>
            <ns3:cad>0</ns3:cad>
          </ns3:TrackPointExtension>
        </extensions>
      </trkpt>
      <trkpt lat="37.0277584902942180633544921875" lon="-8.9808536879718303680419921875">
        <ele>58.799999237060546875</ele>
        <time>2026-04-28T10:45:53.000Z</time>
        <extensions>
          <ns3:TrackPointExtension>
            <ns3:hr>117</ns3:hr>
            <ns3:cad>0</ns3:cad>
          </ns3:TrackPointExtension>
        </extensions>
      </trkpt>
      <trkpt lat="37.0277584902942180633544921875" lon="-8.9808536879718303680419921875">
        <ele>58.799999237060546875</ele>
        <time>2026-04-28T10:45:57.000Z</time>
        <extensions>
          <ns3:TrackPointExtension>
            <ns3:hr>119</ns3:hr>
            <ns3:cad>0</ns3:cad>
          </ns3:TrackPointExtension>
        </extensions>
      </trkpt>
      <trkpt lat="37.027803920209407806396484375" lon="-8.98088947869837284088134765625">
        <ele>58.59999847412109375</ele>
        <time>2026-04-28T10:46:02.000Z</time>
        <extensions>
          <ns3:TrackPointExtension>
            <ns3:hr>120</ns3:hr>
            <ns3:cad>0</ns3:cad>
          </ns3:TrackPointExtension>
        </extensions>
      </trkpt>
      <trkpt lat="37.027839459478855133056640625" lon="-8.980933316051959991455078125">
        <ele>59.799999237060546875</ele>
        <time>2026-04-28T10:46:06.000Z</time>
        <extensions>
          <ns3:TrackPointExtension>
            <ns3:hr>120</ns3:hr>
            <ns3:cad>53</ns3:cad>
          </ns3:TrackPointExtension>
        </extensions>
      </trkpt>
      <trkpt lat="37.027871310710906982421875" lon="-8.9809589646756649017333984375">
        <ele>59.799999237060546875</ele>
        <time>2026-04-28T10:46:09.000Z</time>
        <extensions>
          <ns3:TrackPointExtension>
            <ns3:hr>117</ns3:hr>
            <ns3:cad>56</ns3:cad>
          </ns3:TrackPointExtension>
        </extensions>
      </trkpt>
      <trkpt lat="37.02789612114429473876953125" lon="-8.980974219739437103271484375">
        <ele>59.59999847412109375</ele>
        <time>2026-04-28T10:46:11.000Z</time>
        <extensions>
          <ns3:TrackPointExtension>
            <ns3:hr>116</ns3:hr>
            <ns3:cad>56</ns3:cad>
          </ns3:TrackPointExtension>
        </extensions>
      </trkpt>
      <trkpt lat="37.02792369760572910308837890625" lon="-8.98106566630303859710693359375">
        <ele>59.200000762939453125</ele>
        <time>2026-04-28T10:46:17.000Z</time>
        <extensions>
          <ns3:TrackPointExtension>
            <ns3:hr>117</ns3:hr>
            <ns3:cad>58</ns3:cad>
          </ns3:TrackPointExtension>
        </extensions>
      </trkpt>
      <trkpt lat="37.02792135067284107208251953125" lon="-8.98116323165595531463623046875">
        <ele>58.799999237060546875</ele>
        <time>2026-04-28T10:46:23.000Z</time>
        <extensions>
          <ns3:TrackPointExtension>
            <ns3:hr>113</ns3:hr>
            <ns3:cad>59</ns3:cad>
          </ns3:TrackPointExtension>
        </extensions>
      </trkpt>
      <trkpt lat="37.02792520634829998016357421875" lon="-8.981192819774150848388671875">
        <ele>58.59999847412109375</ele>
        <time>2026-04-28T10:46:25.000Z</time>
        <extensions>
          <ns3:TrackPointExtension>
            <ns3:hr>112</ns3:hr>
            <ns3:cad>56</ns3:cad>
          </ns3:TrackPointExtension>
        </extensions>
      </trkpt>
      <trkpt lat="37.02792218886315822601318359375" lon="-8.98120597936213016510009765625">
        <ele>58.59999847412109375</ele>
        <time>2026-04-28T10:46:26.000Z</time>
        <extensions>
          <ns3:TrackPointExtension>
            <ns3:hr>112</ns3:hr>
            <ns3:cad>55</ns3:cad>
          </ns3:TrackPointExtension>
        </extensions>
      </trkpt>
      <trkpt lat="37.0279314927756786346435546875" lon="-8.98132885806262493133544921875">
        <ele>58.59999847412109375</ele>
        <time>2026-04-28T10:46:34.000Z</time>
        <extensions>
          <ns3:TrackPointExtension>
            <ns3:hr>114</ns3:hr>
            <ns3:cad>57</ns3:cad>
          </ns3:TrackPointExtension>
        </extensions>
      </trkpt>
      <trkpt lat="37.0279692113399505615234375" lon="-8.981426842510700225830078125">
        <ele>58.40000152587890625</ele>
        <time>2026-04-28T10:46:41.000Z</time>
        <extensions>
          <ns3:TrackPointExtension>
            <ns3:hr>115</ns3:hr>
            <ns3:cad>0</ns3:cad>
          </ns3:TrackPointExtension>
        </extensions>
      </trkpt>
      <trkpt lat="37.028004415333271026611328125" lon="-8.9814900420606136322021484375">
        <ele>58.200000762939453125</ele>
        <time>2026-04-28T10:46:46.000Z</time>
        <extensions>
          <ns3:TrackPointExtension>
            <ns3:hr>115</ns3:hr>
            <ns3:cad>56</ns3:cad>
          </ns3:TrackPointExtension>
        </extensions>
      </trkpt>
      <trkpt lat="37.02804573811590671539306640625" lon="-8.981576375663280487060546875">
        <ele>58.59999847412109375</ele>
        <time>2026-04-28T10:46:53.000Z</time>
        <extensions>
          <ns3:TrackPointExtension>
            <ns3:hr>115</ns3:hr>
            <ns3:cad>55</ns3:cad>
          </ns3:TrackPointExtension>
        </extensions>
      </trkpt>
      <trkpt lat="37.02805839478969573974609375" lon="-8.981679640710353851318359375">
        <ele>59.200000762939453125</ele>
        <time>2026-04-28T10:47:00.000Z</time>
        <extensions>
          <ns3:TrackPointExtension>
            <ns3:hr>114</ns3:hr>
            <ns3:cad>60</ns3:cad>
          </ns3:TrackPointExtension>
        </extensions>
      </trkpt>
      <trkpt lat="37.0280820317566394805908203125" lon="-8.98177511058747768402099609375">
        <ele>58.799999237060546875</ele>
        <time>2026-04-28T10:47:07.000Z</time>
        <extensions>
          <ns3:TrackPointExtension>
            <ns3:hr>114</ns3:hr>
            <ns3:cad>57</ns3:cad>
          </ns3:TrackPointExtension>
        </extensions>
      </trkpt>
      <trkpt lat="37.02806736342608928680419921875" lon="-8.9818538166582584381103515625">
        <ele>59</ele>
        <time>2026-04-28T10:47:13.000Z</time>
        <extensions>
          <ns3:TrackPointExtension>
            <ns3:hr>115</ns3:hr>
            <ns3:cad>0</ns3:cad>
          </ns3:TrackPointExtension>
        </extensions>
      </trkpt>
      <trkpt lat="37.0280293934047222137451171875" lon="-8.98188658989965915679931640625">
        <ele>57.799999237060546875</ele>
        <time>2026-04-28T10:47:20.000Z</time>
        <extensions>
          <ns3:TrackPointExtension>
            <ns3:hr>116</ns3:hr>
            <ns3:cad>0</ns3:cad>
          </ns3:TrackPointExtension>
        </extensions>
      </trkpt>
      <trkpt lat="37.0280243642628192901611328125" lon="-8.9818836562335491180419921875">
        <ele>57.799999237060546875</ele>
        <time>2026-04-28T10:47:32.000Z</time>
        <extensions>
          <ns3:TrackPointExtension>
            <ns3:hr>116</ns3:hr>
            <ns3:cad>0</ns3:cad>
          </ns3:TrackPointExtension>
        </extensions>
      </trkpt>
      <trkpt lat="37.02806451357901096343994140625" lon="-8.98188508115708827972412109375">
        <ele>58.200000762939453125</ele>
        <time>2026-04-28T10:47:35.000Z</time>
        <extensions>
          <ns3:TrackPointExtension>
            <ns3:hr>117</ns3:hr>
            <ns3:cad>0</ns3:cad>
          </ns3:TrackPointExtension>
        </extensions>
      </trkpt>
      <trkpt lat="37.02807876281440258026123046875" lon="-8.9819148369133472442626953125">
        <ele>58.40000152587890625</ele>
        <time>2026-04-28T10:47:37.000Z</time>
        <extensions>
          <ns3:TrackPointExtension>
            <ns3:hr>116</ns3:hr>
            <ns3:cad>57</ns3:cad>
          </ns3:TrackPointExtension>
        </extensions>
      </trkpt>
      <trkpt lat="37.02808077447116374969482421875" lon="-8.9820271544158458709716796875">
        <ele>59</ele>
        <time>2026-04-28T10:47:44.000Z</time>
        <extensions>
          <ns3:TrackPointExtension>
            <ns3:hr>115</ns3:hr>
            <ns3:cad>59</ns3:cad>
          </ns3:TrackPointExtension>
        </extensions>
      </trkpt>
      <trkpt lat="37.0280478335916996002197265625" lon="-8.98221365176141262054443359375">
        <ele>58.40000152587890625</ele>
        <time>2026-04-28T10:47:55.000Z</time>
        <extensions>
          <ns3:TrackPointExtension>
            <ns3:hr>115</ns3:hr>
            <ns3:cad>63</ns3:cad>
          </ns3:TrackPointExtension>
        </extensions>
      </trkpt>
      <trkpt lat="37.0280354283750057220458984375" lon="-8.98230266757309436798095703125">
        <ele>58</ele>
        <time>2026-04-28T10:48:00.000Z</time>
        <extensions>
          <ns3:TrackPointExtension>
            <ns3:hr>112</ns3:hr>
            <ns3:cad>62</ns3:cad>
          </ns3:TrackPointExtension>
        </extensions>
      </trkpt>
      <trkpt lat="37.02803048305213451385498046875" lon="-8.98237240500748157501220703125">
        <ele>58</ele>
        <time>2026-04-28T10:48:04.000Z</time>
        <extensions>
          <ns3:TrackPointExtension>
            <ns3:hr>109</ns3:hr>
            <ns3:cad>62</ns3:cad>
          </ns3:TrackPointExtension>
        </extensions>
      </trkpt>
      <trkpt lat="37.02803802676498889923095703125" lon="-8.982483632862567901611328125">
        <ele>57.799999237060546875</ele>
        <time>2026-04-28T10:48:11.000Z</time>
        <extensions>
          <ns3:TrackPointExtension>
            <ns3:hr>108</ns3:hr>
            <ns3:cad>62</ns3:cad>
          </ns3:TrackPointExtension>
        </extensions>
      </trkpt>
      <trkpt lat="37.028019167482852935791015625" lon="-8.98267951793968677520751953125">
        <ele>57.59999847412109375</ele>
        <time>2026-04-28T10:48:22.000Z</time>
        <extensions>
          <ns3:TrackPointExtension>
            <ns3:hr>108</ns3:hr>
            <ns3:cad>61</ns3:cad>
          </ns3:TrackPointExtension>
        </extensions>
      </trkpt>
      <trkpt lat="37.0279928483068943023681640625" lon="-8.9827764965593814849853515625">
        <ele>57.59999847412109375</ele>
        <time>2026-04-28T10:48:29.000Z</time>
        <extensions>
          <ns3:TrackPointExtension>
            <ns3:hr>108</ns3:hr>
            <ns3:cad>61</ns3:cad>
          </ns3:TrackPointExtension>
        </extensions>
      </trkpt>
      <trkpt lat="37.02795454300940036773681640625" lon="-8.9828127063810825347900390625">
        <ele>57</ele>
        <time>2026-04-28T10:48:33.000Z</time>
        <extensions>
          <ns3:TrackPointExtension>
            <ns3:hr>111</ns3:hr>
            <ns3:cad>61</ns3:cad>
          </ns3:TrackPointExtension>
        </extensions>
      </trkpt>
      <trkpt lat="37.0279107056558132171630859375" lon="-8.982873223721981048583984375">
        <ele>56.799999237060546875</ele>
        <time>2026-04-28T10:48:38.000Z</time>
        <extensions>
          <ns3:TrackPointExtension>
            <ns3:hr>114</ns3:hr>
            <ns3:cad>60</ns3:cad>
          </ns3:TrackPointExtension>
        </extensions>
      </trkpt>
      <trkpt lat="37.027877680957317352294921875" lon="-8.98290934972465038299560546875">
        <ele>56.59999847412109375</ele>
        <time>2026-04-28T10:48:41.000Z</time>
        <extensions>
          <ns3:TrackPointExtension>
            <ns3:hr>114</ns3:hr>
            <ns3:cad>58</ns3:cad>
          </ns3:TrackPointExtension>
        </extensions>
      </trkpt>
      <trkpt lat="37.02786619774997234344482421875" lon="-8.9829716272652149200439453125">
        <ele>57</ele>
        <time>2026-04-28T10:48:45.000Z</time>
        <extensions>
          <ns3:TrackPointExtension>
            <ns3:hr>113</ns3:hr>
            <ns3:cad>61</ns3:cad>
          </ns3:TrackPointExtension>
        </extensions>
      </trkpt>
      <trkpt lat="37.027865611016750335693359375" lon="-8.9831225015223026275634765625">
        <ele>57</ele>
        <time>2026-04-28T10:48:54.000Z</time>
        <extensions>
          <ns3:TrackPointExtension>
            <ns3:hr>111</ns3:hr>
            <ns3:cad>62</ns3:cad>
          </ns3:TrackPointExtension>
        </extensions>
      </trkpt>
      <trkpt lat="37.02788564376533031463623046875" lon="-8.9831825159490108489990234375">
        <ele>57.59999847412109375</ele>
        <time>2026-04-28T10:48:58.000Z</time>
        <extensions>
          <ns3:TrackPointExtension>
            <ns3:hr>112</ns3:hr>
            <ns3:cad>60</ns3:cad>
          </ns3:TrackPointExtension>
        </extensions>
      </trkpt>
      <trkpt lat="37.02791682444512844085693359375" lon="-8.98323741741478443145751953125">
        <ele>57.59999847412109375</ele>
        <time>2026-04-28T10:49:02.000Z</time>
        <extensions>
          <ns3:TrackPointExtension>
            <ns3:hr>113</ns3:hr>
            <ns3:cad>60</ns3:cad>
          </ns3:TrackPointExtension>
        </extensions>
      </trkpt>
      <trkpt lat="37.02791682444512844085693359375" lon="-8.98334361612796783447265625">
        <ele>57.59999847412109375</ele>
        <time>2026-04-28T10:49:08.000Z</time>
        <extensions>
          <ns3:TrackPointExtension>
            <ns3:hr>113</ns3:hr>
            <ns3:cad>63</ns3:cad>
          </ns3:TrackPointExtension>
        </extensions>
      </trkpt>
      <trkpt lat="37.0279130525887012481689453125" lon="-8.9834785647690296173095703125">
        <ele>57.59999847412109375</ele>
        <time>2026-04-28T10:49:16.000Z</time>
        <extensions>
          <ns3:TrackPointExtension>
            <ns3:hr>113</ns3:hr>
            <ns3:cad>59</ns3:cad>
          </ns3:TrackPointExtension>
        </extensions>
      </trkpt>
      <trkpt lat="37.02793492935597896575927734375" lon="-8.9836847595870494842529296875">
        <ele>57.40000152587890625</ele>
        <time>2026-04-28T10:49:28.000Z</time>
        <extensions>
          <ns3:TrackPointExtension>
            <ns3:hr>113</ns3:hr>
            <ns3:cad>61</ns3:cad>
          </ns3:TrackPointExtension>
        </extensions>
      </trkpt>
      <trkpt lat="37.02793660573661327362060546875" lon="-8.9838215522468090057373046875">
        <ele>57.59999847412109375</ele>
        <time>2026-04-28T10:49:36.000Z</time>
        <extensions>
          <ns3:TrackPointExtension>
            <ns3:hr>112</ns3:hr>
            <ns3:cad>62</ns3:cad>
          </ns3:TrackPointExtension>
        </extensions>
      </trkpt>
      <trkpt lat="37.02795512974262237548828125" lon="-8.9839798025786876678466796875">
        <ele>57</ele>
        <time>2026-04-28T10:49:45.000Z</time>
        <extensions>
          <ns3:TrackPointExtension>
            <ns3:hr>113</ns3:hr>
            <ns3:cad>62</ns3:cad>
          </ns3:TrackPointExtension>
        </extensions>
      </trkpt>
      <trkpt lat="37.02794884331524372100830078125" lon="-8.98407745175063610076904296875">
        <ele>57.200000762939453125</ele>
        <time>2026-04-28T10:49:51.000Z</time>
        <extensions>
          <ns3:TrackPointExtension>
            <ns3:hr>114</ns3:hr>
            <ns3:cad>60</ns3:cad>
          </ns3:TrackPointExtension>
        </extensions>
      </trkpt>
      <trkpt lat="37.0279217697679996490478515625" lon="-8.9841977320611476898193359375">
        <ele>57.40000152587890625</ele>
        <time>2026-04-28T10:49:58.000Z</time>
        <extensions>
          <ns3:TrackPointExtension>
            <ns3:hr>114</ns3:hr>
            <ns3:cad>64</ns3:cad>
          </ns3:TrackPointExtension>
        </extensions>
      </trkpt>
      <trkpt lat="37.02788078226149082183837890625" lon="-8.9842937886714935302734375">
        <ele>56.59999847412109375</ele>
        <time>2026-04-28T10:50:04.000Z</time>
        <extensions>
          <ns3:TrackPointExtension>
            <ns3:hr>114</ns3:hr>
            <ns3:cad>62</ns3:cad>
          </ns3:TrackPointExtension>
        </extensions>
      </trkpt>
      <trkpt lat="37.0278496854007244110107421875" lon="-8.98432740010321140289306640625">
        <ele>56.59999847412109375</ele>
        <time>2026-04-28T10:50:07.000Z</time>
        <extensions>
          <ns3:TrackPointExtension>
            <ns3:hr>115</ns3:hr>
            <ns3:cad>61</ns3:cad>
          </ns3:TrackPointExtension>
        </extensions>
      </trkpt>
      <trkpt lat="37.027824707329273223876953125" lon="-8.984405435621738433837890625">
        <ele>56.40000152587890625</ele>
        <time>2026-04-28T10:50:12.000Z</time>
        <extensions>
          <ns3:TrackPointExtension>
            <ns3:hr>114</ns3:hr>
            <ns3:cad>59</ns3:cad>
          </ns3:TrackPointExtension>
        </extensions>
      </trkpt>
      <trkpt lat="37.02774533070623874664306640625" lon="-8.98451901040971279144287109375">
        <ele>55.799999237060546875</ele>
        <time>2026-04-28T10:50:21.000Z</time>
        <extensions>
          <ns3:TrackPointExtension>
            <ns3:hr>115</ns3:hr>
            <ns3:cad>60</ns3:cad>
          </ns3:TrackPointExtension>
        </extensions>
      </trkpt>
      <trkpt lat="37.02772504650056362152099609375" lon="-8.9845430664718151092529296875">
        <ele>55.40000152587890625</ele>
        <time>2026-04-28T10:50:23.000Z</time>
        <extensions>
          <ns3:TrackPointExtension>
            <ns3:hr>115</ns3:hr>
            <ns3:cad>58</ns3:cad>
          </ns3:TrackPointExtension>
        </extensions>
      </trkpt>
      <trkpt lat="37.0276634395122528076171875" lon="-8.98459930904209613800048828125">
        <ele>55.40000152587890625</ele>
        <time>2026-04-28T10:50:29.000Z</time>
        <extensions>
          <ns3:TrackPointExtension>
            <ns3:hr>117</ns3:hr>
            <ns3:cad>59</ns3:cad>
          </ns3:TrackPointExtension>
        </extensions>
      </trkpt>
      <trkpt lat="37.0276032574474811553955078125" lon="-8.984691090881824493408203125">
        <ele>55</ele>
        <time>2026-04-28T10:50:36.000Z</time>
        <extensions>
          <ns3:TrackPointExtension>
            <ns3:hr>116</ns3:hr>
            <ns3:cad>59</ns3:cad>
          </ns3:TrackPointExtension>
        </extensions>
      </trkpt>
      <trkpt lat="37.027542404830455780029296875" lon="-8.9847764186561107635498046875">
        <ele>55.40000152587890625</ele>
        <time>2026-04-28T10:50:43.000Z</time>
        <extensions>
          <ns3:TrackPointExtension>
            <ns3:hr>115</ns3:hr>
            <ns3:cad>59</ns3:cad>
          </ns3:TrackPointExtension>
        </extensions>
      </trkpt>
      <trkpt lat="37.0274704881012439727783203125" lon="-8.98486132733523845672607421875">
        <ele>55.799999237060546875</ele>
        <time>2026-04-28T10:50:50.000Z</time>
        <extensions>
          <ns3:TrackPointExtension>
            <ns3:hr>115</ns3:hr>
            <ns3:cad>59</ns3:cad>
          </ns3:TrackPointExtension>
        </extensions>
      </trkpt>
      <trkpt lat="37.02744509093463420867919921875" lon="-8.98491580970585346221923828125">
        <ele>56.200000762939453125</ele>
        <time>2026-04-28T10:50:54.000Z</time>
        <extensions>
          <ns3:TrackPointExtension>
            <ns3:hr>115</ns3:hr>
            <ns3:cad>60</ns3:cad>
          </ns3:TrackPointExtension>
        </extensions>
      </trkpt>
      <trkpt lat="37.027452550828456878662109375" lon="-8.9849487505853176116943359375">
        <ele>56.59999847412109375</ele>
        <time>2026-04-28T10:50:56.000Z</time>
        <extensions>
          <ns3:TrackPointExtension>
            <ns3:hr>116</ns3:hr>
            <ns3:cad>63</ns3:cad>
          </ns3:TrackPointExtension>
        </extensions>
      </trkpt>
      <trkpt lat="37.02745548449456691741943359375" lon="-8.9850406162440776824951171875">
        <ele>56.799999237060546875</ele>
        <time>2026-04-28T10:51:01.000Z</time>
        <extensions>
          <ns3:TrackPointExtension>
            <ns3:hr>119</ns3:hr>
            <ns3:cad>62</ns3:cad>
          </ns3:TrackPointExtension>
        </extensions>
      </trkpt>
      <trkpt lat="37.02744475565850734710693359375" lon="-8.98510524071753025054931640625">
        <ele>57.200000762939453125</ele>
        <time>2026-04-28T10:51:05.000Z</time>
        <extensions>
          <ns3:TrackPointExtension>
            <ns3:hr>122</ns3:hr>
            <ns3:cad>61</ns3:cad>
          </ns3:TrackPointExtension>
        </extensions>
      </trkpt>
      <trkpt lat="37.0274406485259532928466796875" lon="-8.98511948995292186737060546875">
        <ele>57.200000762939453125</ele>
        <time>2026-04-28T10:51:06.000Z</time>
        <extensions>
          <ns3:TrackPointExtension>
            <ns3:hr>122</ns3:hr>
            <ns3:cad>61</ns3:cad>
          </ns3:TrackPointExtension>
        </extensions>
      </trkpt>
      <trkpt lat="37.02739320695400238037109375" lon="-8.98524622432887554168701171875">
        <ele>57.59999847412109375</ele>
        <time>2026-04-28T10:51:14.000Z</time>
        <extensions>
          <ns3:TrackPointExtension>
            <ns3:hr>124</ns3:hr>
            <ns3:cad>61</ns3:cad>
          </ns3:TrackPointExtension>
        </extensions>
      </trkpt>
      <trkpt lat="37.02736613340675830841064453125" lon="-8.9853747189044952392578125">
        <ele>58.59999847412109375</ele>
        <time>2026-04-28T10:51:22.000Z</time>
        <extensions>
          <ns3:TrackPointExtension>
            <ns3:hr>127</ns3:hr>
            <ns3:cad>62</ns3:cad>
          </ns3:TrackPointExtension>
        </extensions>
      </trkpt>
      <trkpt lat="37.02736546285450458526611328125" lon="-8.9853913150727748870849609375">
        <ele>58.799999237060546875</ele>
        <time>2026-04-28T10:51:23.000Z</time>
        <extensions>
          <ns3:TrackPointExtension>
            <ns3:hr>127</ns3:hr>
            <ns3:cad>62</ns3:cad>
          </ns3:TrackPointExtension>
        </extensions>
      </trkpt>
      <trkpt lat="37.02736579813063144683837890625" lon="-8.9854090847074985504150390625">
        <ele>58.799999237060546875</ele>
        <time>2026-04-28T10:51:24.000Z</time>
        <extensions>
          <ns3:TrackPointExtension>
            <ns3:hr>128</ns3:hr>
            <ns3:cad>62</ns3:cad>
          </ns3:TrackPointExtension>
        </extensions>
      </trkpt>
      <trkpt lat="37.02740033157169818878173828125" lon="-8.9855505712330341339111328125">
        <ele>59.799999237060546875</ele>
        <time>2026-04-28T10:51:33.000Z</time>
        <extensions>
          <ns3:TrackPointExtension>
            <ns3:hr>130</ns3:hr>
            <ns3:cad>61</ns3:cad>
          </ns3:TrackPointExtension>
        </extensions>
      </trkpt>
      <trkpt lat="37.0274118147790431976318359375" lon="-8.9856816641986370086669921875">
        <ele>59.40000152587890625</ele>
        <time>2026-04-28T10:51:41.000Z</time>
        <extensions>
          <ns3:TrackPointExtension>
            <ns3:hr>130</ns3:hr>
            <ns3:cad>62</ns3:cad>
          </ns3:TrackPointExtension>
        </extensions>
      </trkpt>
      <trkpt lat="37.02742966823279857635498046875" lon="-8.98574176244437694549560546875">
        <ele>58.59999847412109375</ele>
        <time>2026-04-28T10:51:45.000Z</time>
        <extensions>
          <ns3:TrackPointExtension>
            <ns3:hr>129</ns3:hr>
            <ns3:cad>61</ns3:cad>
          </ns3:TrackPointExtension>
        </extensions>
      </trkpt>
      <trkpt lat="37.02740795910358428955078125" lon="-8.9857912994921207427978515625">
        <ele>58.799999237060546875</ele>
        <time>2026-04-28T10:51:48.000Z</time>
        <extensions>
          <ns3:TrackPointExtension>
            <ns3:hr>129</ns3:hr>
            <ns3:cad>59</ns3:cad>
          </ns3:TrackPointExtension>
        </extensions>
      </trkpt>
      <trkpt lat="37.02736780978739261627197265625" lon="-8.985884673893451690673828125">
        <ele>59.40000152587890625</ele>
        <time>2026-04-28T10:51:54.000Z</time>
        <extensions>
          <ns3:TrackPointExtension>
            <ns3:hr>126</ns3:hr>
            <ns3:cad>65</ns3:cad>
          </ns3:TrackPointExtension>
        </extensions>
      </trkpt>
      <trkpt lat="37.02735439874231815338134765625" lon="-8.98591426201164722442626953125">
        <ele>59.799999237060546875</ele>
        <time>2026-04-28T10:51:56.000Z</time>
        <extensions>
          <ns3:TrackPointExtension>
            <ns3:hr>125</ns3:hr>
            <ns3:cad>65</ns3:cad>
          </ns3:TrackPointExtension>
        </extensions>
      </trkpt>
      <trkpt lat="37.02731005847454071044921875" lon="-8.98601233027875423431396484375">
        <ele>59.40000152587890625</ele>
        <time>2026-04-28T10:52:02.000Z</time>
        <extensions>
          <ns3:TrackPointExtension>
            <ns3:hr>123</ns3:hr>
            <ns3:cad>64</ns3:cad>
          </ns3:TrackPointExtension>
        </extensions>
      </trkpt>
      <trkpt lat="37.0272388122975826263427734375" lon="-8.98620285093784332275390625">
        <ele>60</ele>
        <time>2026-04-28T10:52:13.000Z</time>
        <extensions>
          <ns3:TrackPointExtension>
            <ns3:hr>123</ns3:hr>
            <ns3:cad>65</ns3:cad>
          </ns3:TrackPointExtension>
        </extensions>
      </trkpt>
      <trkpt lat="37.027154825627803802490234375" lon="-8.986407034099102020263671875">
        <ele>59.59999847412109375</ele>
        <time>2026-04-28T10:52:25.000Z</time>
        <extensions>
          <ns3:TrackPointExtension>
            <ns3:hr>123</ns3:hr>
            <ns3:cad>64</ns3:cad>
          </ns3:TrackPointExtension>
        </extensions>
      </trkpt>
      <trkpt lat="37.02714870683848857879638671875" lon="-8.98642069660127162933349609375">
        <ele>59.59999847412109375</ele>
        <time>2026-04-28T10:52:26.000Z</time>
        <extensions>
          <ns3:TrackPointExtension>
            <ns3:hr>123</ns3:hr>
            <ns3:cad>62</ns3:cad>
          </ns3:TrackPointExtension>
        </extensions>
      </trkpt>
      <trkpt lat="37.027071006596088409423828125" lon="-8.98662521503865718841552734375">
        <ele>59.799999237060546875</ele>
        <time>2026-04-28T10:52:39.000Z</time>
        <extensions>
          <ns3:TrackPointExtension>
            <ns3:hr>122</ns3:hr>
            <ns3:cad>62</ns3:cad>
          </ns3:TrackPointExtension>
        </extensions>
      </trkpt>
      <trkpt lat="37.02704426832497119903564453125" lon="-8.9866848103702068328857421875">
        <ele>59.799999237060546875</ele>
        <time>2026-04-28T10:52:43.000Z</time>
        <extensions>
          <ns3:TrackPointExtension>
            <ns3:hr>122</ns3:hr>
            <ns3:cad>63</ns3:cad>
          </ns3:TrackPointExtension>
        </extensions>
      </trkpt>
      <trkpt lat="37.0269612036645412445068359375" lon="-8.986886478960514068603515625">
        <ele>60.200000762939453125</ele>
        <time>2026-04-28T10:52:56.000Z</time>
        <extensions>
          <ns3:TrackPointExtension>
            <ns3:hr>119</ns3:hr>
            <ns3:cad>65</ns3:cad>
          </ns3:TrackPointExtension>
        </extensions>
      </trkpt>
      <trkpt lat="37.02687243930995464324951171875" lon="-8.987105078995227813720703125">
        <ele>59.59999847412109375</ele>
        <time>2026-04-28T10:53:09.000Z</time>
        <extensions>
          <ns3:TrackPointExtension>
            <ns3:hr>122</ns3:hr>
            <ns3:cad>64</ns3:cad>
          </ns3:TrackPointExtension>
        </extensions>
      </trkpt>
      <trkpt lat="37.02678459696471691131591796875" lon="-8.98731999099254608154296875">
        <ele>59.59999847412109375</ele>
        <time>2026-04-28T10:53:22.000Z</time>
        <extensions>
          <ns3:TrackPointExtension>
            <ns3:hr>120</ns3:hr>
            <ns3:cad>63</ns3:cad>
          </ns3:TrackPointExtension>
        </extensions>
      </trkpt>
      <trkpt lat="37.026777304708957672119140625" lon="-8.98733474314212799072265625">
        <ele>59.59999847412109375</ele>
        <time>2026-04-28T10:53:23.000Z</time>
        <extensions>
          <ns3:TrackPointExtension>
            <ns3:hr>120</ns3:hr>
            <ns3:cad>63</ns3:cad>
          </ns3:TrackPointExtension>
        </extensions>
      </trkpt>
      <trkpt lat="37.0266990177333354949951171875" lon="-8.98751269094645977020263671875">
        <ele>59.59999847412109375</ele>
        <time>2026-04-28T10:53:34.000Z</time>
        <extensions>
          <ns3:TrackPointExtension>
            <ns3:hr>117</ns3:hr>
            <ns3:cad>64</ns3:cad>
          </ns3:TrackPointExtension>
        </extensions>
      </trkpt>
      <trkpt lat="37.02667194418609142303466796875" lon="-8.98758024908602237701416015625">
        <ele>59.59999847412109375</ele>
        <time>2026-04-28T10:53:38.000Z</time>
        <extensions>
          <ns3:TrackPointExtension>
            <ns3:hr>114</ns3:hr>
            <ns3:cad>64</ns3:cad>
          </ns3:TrackPointExtension>
        </extensions>
      </trkpt>
      <trkpt lat="37.02662475407123565673828125" lon="-8.9876854419708251953125">
        <ele>59.59999847412109375</ele>
        <time>2026-04-28T10:53:45.000Z</time>
        <extensions>
          <ns3:TrackPointExtension>
            <ns3:hr>114</ns3:hr>
            <ns3:cad>65</ns3:cad>
          </ns3:TrackPointExtension>
        </extensions>
      </trkpt>
      <trkpt lat="37.02658175490796566009521484375" lon="-8.9877902157604694366455078125">
        <ele>59.40000152587890625</ele>
        <time>2026-04-28T10:53:51.000Z</time>
        <extensions>
          <ns3:TrackPointExtension>
            <ns3:hr>117</ns3:hr>
            <ns3:cad>64</ns3:cad>
          </ns3:TrackPointExtension>
        </extensions>
      </trkpt>
      <trkpt lat="37.026543281972408294677734375" lon="-8.9878850989043712615966796875">
        <ele>59.59999847412109375</ele>
        <time>2026-04-28T10:53:57.000Z</time>
        <extensions>
          <ns3:TrackPointExtension>
            <ns3:hr>116</ns3:hr>
            <ns3:cad>64</ns3:cad>
          </ns3:TrackPointExtension>
        </extensions>
      </trkpt>
      <trkpt lat="37.02646315097808837890625" lon="-8.988079726696014404296875">
        <ele>59.40000152587890625</ele>
        <time>2026-04-28T10:54:09.000Z</time>
        <extensions>
          <ns3:TrackPointExtension>
            <ns3:hr>115</ns3:hr>
            <ns3:cad>64</ns3:cad>
          </ns3:TrackPointExtension>
        </extensions>
      </trkpt>
      <trkpt lat="37.02638025395572185516357421875" lon="-8.98828282020986080169677734375">
        <ele>60</ele>
        <time>2026-04-28T10:54:22.000Z</time>
        <extensions>
          <ns3:TrackPointExtension>
            <ns3:hr>114</ns3:hr>
            <ns3:cad>63</ns3:cad>
          </ns3:TrackPointExtension>
        </extensions>
      </trkpt>
      <trkpt lat="37.026301883161067962646484375" lon="-8.98846395313739776611328125">
        <ele>60</ele>
        <time>2026-04-28T10:54:33.000Z</time>
        <extensions>
          <ns3:TrackPointExtension>
            <ns3:hr>113</ns3:hr>
            <ns3:cad>64</ns3:cad>
          </ns3:TrackPointExtension>
        </extensions>
      </trkpt>
      <trkpt lat="37.0262393541634082794189453125" lon="-8.98862312547862529754638671875">
        <ele>60</ele>
        <time>2026-04-28T10:54:43.000Z</time>
        <extensions>
          <ns3:TrackPointExtension>
            <ns3:hr>113</ns3:hr>
            <ns3:cad>64</ns3:cad>
          </ns3:TrackPointExtension>
        </extensions>
      </trkpt>
      <trkpt lat="37.0261739753186702728271484375" lon="-8.98878514766693115234375">
        <ele>60.59999847412109375</ele>
        <time>2026-04-28T10:54:53.000Z</time>
        <extensions>
          <ns3:TrackPointExtension>
            <ns3:hr>113</ns3:hr>
            <ns3:cad>64</ns3:cad>
          </ns3:TrackPointExtension>
        </extensions>
      </trkpt>
      <trkpt lat="37.02612712047994136810302734375" lon="-8.98889604024589061737060546875">
        <ele>61</ele>
        <time>2026-04-28T10:55:00.000Z</time>
        <extensions>
          <ns3:TrackPointExtension>
            <ns3:hr>115</ns3:hr>
            <ns3:cad>64</ns3:cad>
          </ns3:TrackPointExtension>
        </extensions>
      </trkpt>
      <trkpt lat="37.02610080130398273468017578125" lon="-8.9889606647193431854248046875">
        <ele>60.59999847412109375</ele>
        <time>2026-04-28T10:55:04.000Z</time>
        <extensions>
          <ns3:TrackPointExtension>
            <ns3:hr>115</ns3:hr>
            <ns3:cad>64</ns3:cad>
          </ns3:TrackPointExtension>
        </extensions>
      </trkpt>
      <trkpt lat="37.026031315326690673828125" lon="-8.989129476249217987060546875">
        <ele>60.59999847412109375</ele>
        <time>2026-04-28T10:55:14.000Z</time>
        <extensions>
          <ns3:TrackPointExtension>
            <ns3:hr>112</ns3:hr>
            <ns3:cad>63</ns3:cad>
          </ns3:TrackPointExtension>
        </extensions>
      </trkpt>
      <trkpt lat="37.02602569945156574249267578125" lon="-8.9891443960368633270263671875">
        <ele>60.59999847412109375</ele>
        <time>2026-04-28T10:55:15.000Z</time>
        <extensions>
          <ns3:TrackPointExtension>
            <ns3:hr>110</ns3:hr>
            <ns3:cad>62</ns3:cad>
          </ns3:TrackPointExtension>
        </extensions>
      </trkpt>
      <trkpt lat="37.02594347298145294189453125" lon="-8.98933508433401584625244140625">
        <ele>61</ele>
        <time>2026-04-28T10:55:27.000Z</time>
        <extensions>
          <ns3:TrackPointExtension>
            <ns3:hr>111</ns3:hr>
            <ns3:cad>63</ns3:cad>
          </ns3:TrackPointExtension>
        </extensions>
      </trkpt>
      <trkpt lat="37.025859318673610687255859375" lon="-8.98954077623784542083740234375">
        <ele>61.200000762939453125</ele>
        <time>2026-04-28T10:55:40.000Z</time>
        <extensions>
          <ns3:TrackPointExtension>
            <ns3:hr>113</ns3:hr>
            <ns3:cad>64</ns3:cad>
          </ns3:TrackPointExtension>
        </extensions>
      </trkpt>
      <trkpt lat="37.02585219405591487884521484375" lon="-8.98955636657774448394775390625">
        <ele>61.200000762939453125</ele>
        <time>2026-04-28T10:55:41.000Z</time>
        <extensions>
          <ns3:TrackPointExtension>
            <ns3:hr>113</ns3:hr>
            <ns3:cad>64</ns3:cad>
          </ns3:TrackPointExtension>
        </extensions>
      </trkpt>
      <trkpt lat="37.0257937721908092498779296875" lon="-8.9897049777209758758544921875">
        <ele>61.40000152587890625</ele>
        <time>2026-04-28T10:55:50.000Z</time>
        <extensions>
          <ns3:TrackPointExtension>
            <ns3:hr>115</ns3:hr>
            <ns3:cad>61</ns3:cad>
          </ns3:TrackPointExtension>
        </extensions>
      </trkpt>
      <trkpt lat="37.0257106237113475799560546875" lon="-8.98989868350327014923095703125">
        <ele>61.59999847412109375</ele>
        <time>2026-04-28T10:56:02.000Z</time>
        <extensions>
          <ns3:TrackPointExtension>
            <ns3:hr>116</ns3:hr>
            <ns3:cad>63</ns3:cad>
          </ns3:TrackPointExtension>
        </extensions>
      </trkpt>
      <trkpt lat="37.02564532868564128875732421875" lon="-8.99005441926419734954833984375">
        <ele>62</ele>
        <time>2026-04-28T10:56:12.000Z</time>
        <extensions>
          <ns3:TrackPointExtension>
            <ns3:hr>115</ns3:hr>
            <ns3:cad>64</ns3:cad>
          </ns3:TrackPointExtension>
        </extensions>
      </trkpt>
      <trkpt lat="37.0256383717060089111328125" lon="-8.99006866849958896636962890625">
        <ele>62</ele>
        <time>2026-04-28T10:56:13.000Z</time>
        <extensions>
          <ns3:TrackPointExtension>
            <ns3:hr>115</ns3:hr>
            <ns3:cad>64</ns3:cad>
          </ns3:TrackPointExtension>
        </extensions>
      </trkpt>
      <trkpt lat="37.0255517028272151947021484375" lon="-8.99026371538639068603515625">
        <ele>62.200000762939453125</ele>
        <time>2026-04-28T10:56:25.000Z</time>
        <extensions>
          <ns3:TrackPointExtension>
            <ns3:hr>115</ns3:hr>
            <ns3:cad>63</ns3:cad>
          </ns3:TrackPointExtension>
        </extensions>
      </trkpt>
      <trkpt lat="37.0254749245941638946533203125" lon="-8.9904467761516571044921875">
        <ele>62.200000762939453125</ele>
        <time>2026-04-28T10:56:37.000Z</time>
        <extensions>
          <ns3:TrackPointExtension>
            <ns3:hr>117</ns3:hr>
            <ns3:cad>64</ns3:cad>
          </ns3:TrackPointExtension>
        </extensions>
      </trkpt>
      <trkpt lat="37.02542245388031005859375" lon="-8.99057351052761077880859375">
        <ele>62.200000762939453125</ele>
        <time>2026-04-28T10:56:45.000Z</time>
        <extensions>
          <ns3:TrackPointExtension>
            <ns3:hr>114</ns3:hr>
            <ns3:cad>62</ns3:cad>
          </ns3:TrackPointExtension>
        </extensions>
      </trkpt>
      <trkpt lat="37.0253890939056873321533203125" lon="-8.9906561560928821563720703125">
        <ele>62.200000762939453125</ele>
        <time>2026-04-28T10:56:50.000Z</time>
        <extensions>
          <ns3:TrackPointExtension>
            <ns3:hr>112</ns3:hr>
            <ns3:cad>62</ns3:cad>
          </ns3:TrackPointExtension>
        </extensions>
      </trkpt>
      <trkpt lat="37.02530250884592533111572265625" lon="-8.990864194929599761962890625">
        <ele>62.200000762939453125</ele>
        <time>2026-04-28T10:57:03.000Z</time>
        <extensions>
          <ns3:TrackPointExtension>
            <ns3:hr>113</ns3:hr>
            <ns3:cad>64</ns3:cad>
          </ns3:TrackPointExtension>
        </extensions>
      </trkpt>
      <trkpt lat="37.02524282969534397125244140625" lon="-8.9910001493990421295166015625">
        <ele>62</ele>
        <time>2026-04-28T10:57:12.000Z</time>
        <extensions>
          <ns3:TrackPointExtension>
            <ns3:hr>114</ns3:hr>
            <ns3:cad>62</ns3:cad>
          </ns3:TrackPointExtension>
        </extensions>
      </trkpt>
      <trkpt lat="37.02518440783023834228515625" lon="-8.99113903753459453582763671875">
        <ele>62</ele>
        <time>2026-04-28T10:57:21.000Z</time>
        <extensions>
          <ns3:TrackPointExtension>
            <ns3:hr>114</ns3:hr>
            <ns3:cad>62</ns3:cad>
          </ns3:TrackPointExtension>
        </extensions>
      </trkpt>
      <trkpt lat="37.02515230514109134674072265625" lon="-8.99122201837599277496337890625">
        <ele>62.200000762939453125</ele>
        <time>2026-04-28T10:57:26.000Z</time>
        <extensions>
          <ns3:TrackPointExtension>
            <ns3:hr>117</ns3:hr>
            <ns3:cad>0</ns3:cad>
          </ns3:TrackPointExtension>
        </extensions>
      </trkpt>
      <trkpt lat="37.02512271702289581298828125" lon="-8.99129108525812625885009765625">
        <ele>62</ele>
        <time>2026-04-28T10:57:31.000Z</time>
        <extensions>
          <ns3:TrackPointExtension>
            <ns3:hr>118</ns3:hr>
            <ns3:cad>0</ns3:cad>
          </ns3:TrackPointExtension>
        </extensions>
      </trkpt>
      <trkpt lat="37.02506882138550281524658203125" lon="-8.99142033420503139495849609375">
        <ele>62</ele>
        <time>2026-04-28T10:57:40.000Z</time>
        <extensions>
          <ns3:TrackPointExtension>
            <ns3:hr>116</ns3:hr>
            <ns3:cad>0</ns3:cad>
          </ns3:TrackPointExtension>
        </extensions>
      </trkpt>
      <trkpt lat="37.02501752413809299468994140625" lon="-8.99155645631253719329833984375">
        <ele>61.59999847412109375</ele>
        <time>2026-04-28T10:57:49.000Z</time>
        <extensions>
          <ns3:TrackPointExtension>
            <ns3:hr>116</ns3:hr>
            <ns3:cad>0</ns3:cad>
          </ns3:TrackPointExtension>
        </extensions>
      </trkpt>
      <trkpt lat="37.02495315112173557281494140625" lon="-8.99171219207346439361572265625">
        <ele>62</ele>
        <time>2026-04-28T10:58:00.000Z</time>
        <extensions>
          <ns3:TrackPointExtension>
            <ns3:hr>117</ns3:hr>
            <ns3:cad>58</ns3:cad>
          </ns3:TrackPointExtension>
        </extensions>
      </trkpt>
      <trkpt lat="37.02493269927799701690673828125" lon="-8.991763405501842498779296875">
        <ele>62</ele>
        <time>2026-04-28T10:58:04.000Z</time>
        <extensions>
          <ns3:TrackPointExtension>
            <ns3:hr>120</ns3:hr>
            <ns3:cad>0</ns3:cad>
          </ns3:TrackPointExtension>
        </extensions>
      </trkpt>
      <trkpt lat="37.02491358853876590728759765625" lon="-8.991807997226715087890625">
        <ele>62</ele>
        <time>2026-04-28T10:58:07.000Z</time>
        <extensions>
          <ns3:TrackPointExtension>
            <ns3:hr>119</ns3:hr>
            <ns3:cad>58</ns3:cad>
          </ns3:TrackPointExtension>
        </extensions>
      </trkpt>
      <trkpt lat="37.024853490293025970458984375" lon="-8.9919674210250377655029296875">
        <ele>62</ele>
        <time>2026-04-28T10:58:18.000Z</time>
        <extensions>
          <ns3:TrackPointExtension>
            <ns3:hr>117</ns3:hr>
            <ns3:cad>0</ns3:cad>
          </ns3:TrackPointExtension>
        </extensions>
      </trkpt>
      <trkpt lat="37.02484116889536380767822265625" lon="-8.99199550040066242218017578125">
        <ele>62</ele>
        <time>2026-04-28T10:58:20.000Z</time>
        <extensions>
          <ns3:TrackPointExtension>
            <ns3:hr>114</ns3:hr>
            <ns3:cad>0</ns3:cad>
          </ns3:TrackPointExtension>
        </extensions>
      </trkpt>
      <trkpt lat="37.02483530156314373016357421875" lon="-8.99201276712119579315185546875">
        <ele>62</ele>
        <time>2026-04-28T10:58:21.000Z</time>
        <extensions>
          <ns3:TrackPointExtension>
            <ns3:hr>111</ns3:hr>
            <ns3:cad>0</ns3:cad>
          </ns3:TrackPointExtension>
        </extensions>
      </trkpt>
      <trkpt lat="37.0248208008706569671630859375" lon="-8.9920480549335479736328125">
        <ele>62</ele>
        <time>2026-04-28T10:58:23.000Z</time>
        <extensions>
          <ns3:TrackPointExtension>
            <ns3:hr>108</ns3:hr>
            <ns3:cad>0</ns3:cad>
          </ns3:TrackPointExtension>
        </extensions>
      </trkpt>
      <trkpt lat="37.02480621635913848876953125" lon="-8.99208133108913898468017578125">
        <ele>61.799999237060546875</ele>
        <time>2026-04-28T10:58:25.000Z</time>
        <extensions>
          <ns3:TrackPointExtension>
            <ns3:hr>108</ns3:hr>
            <ns3:cad>0</ns3:cad>
          </ns3:TrackPointExtension>
        </extensions>
      </trkpt>
      <trkpt lat="37.02475734986364841461181640625" lon="-8.99220622144639492034912109375">
        <ele>62.40000152587890625</ele>
        <time>2026-04-28T10:58:33.000Z</time>
        <extensions>
          <ns3:TrackPointExtension>
            <ns3:hr>111</ns3:hr>
            <ns3:cad>0</ns3:cad>
          </ns3:TrackPointExtension>
        </extensions>
      </trkpt>
      <trkpt lat="37.02474930323660373687744140625" lon="-8.9922237396240234375">
        <ele>62.40000152587890625</ele>
        <time>2026-04-28T10:58:34.000Z</time>
        <extensions>
          <ns3:TrackPointExtension>
            <ns3:hr>114</ns3:hr>
            <ns3:cad>63</ns3:cad>
          </ns3:TrackPointExtension>
        </extensions>
      </trkpt>
      <trkpt lat="37.0247413404285907745361328125" lon="-8.9922384917736053466796875">
        <ele>62.200000762939453125</ele>
        <time>2026-04-28T10:58:35.000Z</time>
        <extensions>
          <ns3:TrackPointExtension>
            <ns3:hr>114</ns3:hr>
            <ns3:cad>63</ns3:cad>
          </ns3:TrackPointExtension>
        </extensions>
      </trkpt>
      <trkpt lat="37.02473505400121212005615234375" lon="-8.99225332774221897125244140625">
        <ele>62</ele>
        <time>2026-04-28T10:58:36.000Z</time>
        <extensions>
          <ns3:TrackPointExtension>
            <ns3:hr>114</ns3:hr>
            <ns3:cad>63</ns3:cad>
          </ns3:TrackPointExtension>
        </extensions>
      </trkpt>
      <trkpt lat="37.02467839233577251434326171875" lon="-8.99239514954388141632080078125">
        <ele>61.799999237060546875</ele>
        <time>2026-04-28T10:58:45.000Z</time>
        <extensions>
          <ns3:TrackPointExtension>
            <ns3:hr>111</ns3:hr>
            <ns3:cad>63</ns3:cad>
          </ns3:TrackPointExtension>
        </extensions>
      </trkpt>
      <trkpt lat="37.024667747318744659423828125" lon="-8.9924260787665843963623046875">
        <ele>61.59999847412109375</ele>
        <time>2026-04-28T10:58:47.000Z</time>
        <extensions>
          <ns3:TrackPointExtension>
            <ns3:hr>107</ns3:hr>
            <ns3:cad>64</ns3:cad>
          </ns3:TrackPointExtension>
        </extensions>
      </trkpt>
      <trkpt lat="37.0246642269194126129150390625" lon="-8.99243119172751903533935546875">
        <ele>61.799999237060546875</ele>
        <time>2026-04-28T10:58:49.000Z</time>
        <extensions>
          <ns3:TrackPointExtension>
            <ns3:hr>106</ns3:hr>
            <ns3:cad>0</ns3:cad>
          </ns3:TrackPointExtension>
        </extensions>
      </trkpt>
      <trkpt lat="37.0246618799865245819091796875" lon="-8.99243094027042388916015625">
        <ele>61.59999847412109375</ele>
        <time>2026-04-28T10:58:59.000Z</time>
        <extensions>
          <ns3:TrackPointExtension>
            <ns3:hr>109</ns3:hr>
            <ns3:cad>0</ns3:cad>
          </ns3:TrackPointExtension>
        </extensions>
      </trkpt>
      <trkpt lat="37.02464402653276920318603515625" lon="-8.99247762747108936309814453125">
        <ele>61.799999237060546875</ele>
        <time>2026-04-28T10:59:04.000Z</time>
        <extensions>
          <ns3:TrackPointExtension>
            <ns3:hr>111</ns3:hr>
            <ns3:cad>0</ns3:cad>
          </ns3:TrackPointExtension>
        </extensions>
      </trkpt>
      <trkpt lat="37.024630196392536163330078125" lon="-8.99251098744571208953857421875">
        <ele>61.59999847412109375</ele>
        <time>2026-04-28T10:59:09.000Z</time>
        <extensions>
          <ns3:TrackPointExtension>
            <ns3:hr>110</ns3:hr>
            <ns3:cad>0</ns3:cad>
          </ns3:TrackPointExtension>
        </extensions>
      </trkpt>
      <trkpt lat="37.02464788220822811126708984375" lon="-8.992489278316497802734375">
        <ele>61.799999237060546875</ele>
        <time>2026-04-28T10:59:14.000Z</time>
        <extensions>
          <ns3:TrackPointExtension>
            <ns3:hr>111</ns3:hr>
            <ns3:cad>0</ns3:cad>
          </ns3:TrackPointExtension>
        </extensions>
      </trkpt>
      <trkpt lat="37.02467939816415309906005859375" lon="-8.99241593666374683380126953125">
        <ele>61.799999237060546875</ele>
        <time>2026-04-28T10:59:21.000Z</time>
        <extensions>
          <ns3:TrackPointExtension>
            <ns3:hr>109</ns3:hr>
            <ns3:cad>0</ns3:cad>
          </ns3:TrackPointExtension>
        </extensions>
      </trkpt>
      <trkpt lat="37.02463899739086627960205078125" lon="-8.99248986504971981048583984375">
        <ele>61.799999237060546875</ele>
        <time>2026-04-28T10:59:26.000Z</time>
        <extensions>
          <ns3:TrackPointExtension>
            <ns3:hr>106</ns3:hr>
            <ns3:cad>0</ns3:cad>
          </ns3:TrackPointExtension>
        </extensions>
      </trkpt>
      <trkpt lat="37.02458493411540985107421875" lon="-8.9926051162183284759521484375">
        <ele>62.200000762939453125</ele>
        <time>2026-04-28T10:59:33.000Z</time>
        <extensions>
          <ns3:TrackPointExtension>
            <ns3:hr>109</ns3:hr>
            <ns3:cad>0</ns3:cad>
          </ns3:TrackPointExtension>
        </extensions>
      </trkpt>
      <trkpt lat="37.02453925274312496185302734375" lon="-8.992720954120159149169921875">
        <ele>62.59999847412109375</ele>
        <time>2026-04-28T10:59:40.000Z</time>
        <extensions>
          <ns3:TrackPointExtension>
            <ns3:hr>112</ns3:hr>
            <ns3:cad>0</ns3:cad>
          </ns3:TrackPointExtension>
        </extensions>
      </trkpt>
      <trkpt lat="37.0245237462222576141357421875" lon="-8.992755152285099029541015625">
        <ele>62.59999847412109375</ele>
        <time>2026-04-28T10:59:42.000Z</time>
        <extensions>
          <ns3:TrackPointExtension>
            <ns3:hr>113</ns3:hr>
            <ns3:cad>0</ns3:cad>
          </ns3:TrackPointExtension>
        </extensions>
      </trkpt>
      <trkpt lat="37.0244503207504749298095703125" lon="-8.99293695576488971710205078125">
        <ele>62.59999847412109375</ele>
        <time>2026-04-28T10:59:54.000Z</time>
        <extensions>
          <ns3:TrackPointExtension>
            <ns3:hr>113</ns3:hr>
            <ns3:cad>60</ns3:cad>
          </ns3:TrackPointExtension>
        </extensions>
      </trkpt>
      <trkpt lat="37.02443380840122699737548828125" lon="-8.992988169193267822265625">
        <ele>63</ele>
        <time>2026-04-28T10:59:57.000Z</time>
        <extensions>
          <ns3:TrackPointExtension>
            <ns3:hr>113</ns3:hr>
            <ns3:cad>64</ns3:cad>
          </ns3:TrackPointExtension>
        </extensions>
      </trkpt>
      <trkpt lat="37.02440883032977581024169921875" lon="-8.99305321276187896728515625">
        <ele>63</ele>
        <time>2026-04-28T11:00:01.000Z</time>
        <extensions>
          <ns3:TrackPointExtension>
            <ns3:hr>112</ns3:hr>
            <ns3:cad>59</ns3:cad>
          </ns3:TrackPointExtension>
        </extensions>
      </trkpt>
      <trkpt lat="37.02435401268303394317626953125" lon="-8.99318397045135498046875">
        <ele>63.40000152587890625</ele>
        <time>2026-04-28T11:00:09.000Z</time>
        <extensions>
          <ns3:TrackPointExtension>
            <ns3:hr>115</ns3:hr>
            <ns3:cad>62</ns3:cad>
          </ns3:TrackPointExtension>
        </extensions>
      </trkpt>
      <trkpt lat="37.02433909289538860321044921875" lon="-8.9932174980640411376953125">
        <ele>63.59999847412109375</ele>
        <time>2026-04-28T11:00:11.000Z</time>
        <extensions>
          <ns3:TrackPointExtension>
            <ns3:hr>116</ns3:hr>
            <ns3:cad>63</ns3:cad>
          </ns3:TrackPointExtension>
        </extensions>
      </trkpt>
      <trkpt lat="37.024298273026943206787109375" lon="-8.9933135546743869781494140625">
        <ele>63.59999847412109375</ele>
        <time>2026-04-28T11:00:17.000Z</time>
        <extensions>
          <ns3:TrackPointExtension>
            <ns3:hr>119</ns3:hr>
            <ns3:cad>64</ns3:cad>
          </ns3:TrackPointExtension>
        </extensions>
      </trkpt>
      <trkpt lat="37.02426549978554248809814453125" lon="-8.99338689632713794708251953125">
        <ele>63.799999237060546875</ele>
        <time>2026-04-28T11:00:22.000Z</time>
        <extensions>
          <ns3:TrackPointExtension>
            <ns3:hr>122</ns3:hr>
            <ns3:cad>0</ns3:cad>
          </ns3:TrackPointExtension>
        </extensions>
      </trkpt>
      <trkpt lat="37.0242437906563282012939453125" lon="-8.99343685247004032135009765625">
        <ele>63.799999237060546875</ele>
        <time>2026-04-28T11:00:25.000Z</time>
        <extensions>
          <ns3:TrackPointExtension>
            <ns3:hr>123</ns3:hr>
            <ns3:cad>0</ns3:cad>
          </ns3:TrackPointExtension>
        </extensions>
      </trkpt>
      <trkpt lat="37.02422174625098705291748046875" lon="-8.99348999373614788055419921875">
        <ele>64</ele>
        <time>2026-04-28T11:00:28.000Z</time>
        <extensions>
          <ns3:TrackPointExtension>
            <ns3:hr>123</ns3:hr>
            <ns3:cad>62</ns3:cad>
          </ns3:TrackPointExtension>
        </extensions>
      </trkpt>
      <trkpt lat="37.02415955252945423126220703125" lon="-8.99364103563129901885986328125">
        <ele>64.1999969482421875</ele>
        <time>2026-04-28T11:00:37.000Z</time>
        <extensions>
          <ns3:TrackPointExtension>
            <ns3:hr>123</ns3:hr>
            <ns3:cad>0</ns3:cad>
          </ns3:TrackPointExtension>
        </extensions>
      </trkpt>
      <trkpt lat="37.024074979126453399658203125" lon="-8.99383532814681529998779296875">
        <ele>64.1999969482421875</ele>
        <time>2026-04-28T11:00:49.000Z</time>
        <extensions>
          <ns3:TrackPointExtension>
            <ns3:hr>121</ns3:hr>
            <ns3:cad>62</ns3:cad>
          </ns3:TrackPointExtension>
        </extensions>
      </trkpt>
      <trkpt lat="37.02401362359523773193359375" lon="-8.993996344506740570068359375">
        <ele>64.1999969482421875</ele>
        <time>2026-04-28T11:01:00.000Z</time>
        <extensions>
          <ns3:TrackPointExtension>
            <ns3:hr>120</ns3:hr>
            <ns3:cad>61</ns3:cad>
          </ns3:TrackPointExtension>
        </extensions>
      </trkpt>
      <trkpt lat="37.02394681982696056365966796875" lon="-8.99414227344095706939697265625">
        <ele>64.1999969482421875</ele>
        <time>2026-04-28T11:01:10.000Z</time>
        <extensions>
          <ns3:TrackPointExtension>
            <ns3:hr>119</ns3:hr>
            <ns3:cad>61</ns3:cad>
          </ns3:TrackPointExtension>
        </extensions>
      </trkpt>
      <trkpt lat="37.02390876598656177520751953125" lon="-8.99425660260021686553955078125">
        <ele>64.40000152587890625</ele>
        <time>2026-04-28T11:01:19.000Z</time>
        <extensions>
          <ns3:TrackPointExtension>
            <ns3:hr>119</ns3:hr>
            <ns3:cad>56</ns3:cad>
          </ns3:TrackPointExtension>
        </extensions>
      </trkpt>
      <trkpt lat="37.0238719694316387176513671875" lon="-8.9943502284586429595947265625">
        <ele>64.8000030517578125</ele>
        <time>2026-04-28T11:01:29.000Z</time>
        <extensions>
          <ns3:TrackPointExtension>
            <ns3:hr>116</ns3:hr>
            <ns3:cad>45</ns3:cad>
          </ns3:TrackPointExtension>
        </extensions>
      </trkpt>
      <trkpt lat="37.02383768744766712188720703125" lon="-8.99441954679787158966064453125">
        <ele>64.59999847412109375</ele>
        <time>2026-04-28T11:01:34.000Z</time>
        <extensions>
          <ns3:TrackPointExtension>
            <ns3:hr>113</ns3:hr>
            <ns3:cad>54</ns3:cad>
          </ns3:TrackPointExtension>
        </extensions>
      </trkpt>
      <trkpt lat="37.023813463747501373291015625" lon="-8.99447486735880374908447265625">
        <ele>64.8000030517578125</ele>
        <time>2026-04-28T11:01:38.000Z</time>
        <extensions>
          <ns3:TrackPointExtension>
            <ns3:hr>114</ns3:hr>
            <ns3:cad>55</ns3:cad>
          </ns3:TrackPointExtension>
        </extensions>
      </trkpt>
      <trkpt lat="37.02378169633448123931884765625" lon="-8.99454359896481037139892578125">
        <ele>65</ele>
        <time>2026-04-28T11:01:44.000Z</time>
        <extensions>
          <ns3:TrackPointExtension>
            <ns3:hr>115</ns3:hr>
            <ns3:cad>0</ns3:cad>
          </ns3:TrackPointExtension>
        </extensions>
      </trkpt>
      <trkpt lat="37.0237619988620281219482421875" lon="-8.99458433501422405242919921875">
        <ele>65</ele>
        <time>2026-04-28T11:01:48.000Z</time>
        <extensions>
          <ns3:TrackPointExtension>
            <ns3:hr>115</ns3:hr>
            <ns3:cad>0</ns3:cad>
          </ns3:TrackPointExtension>
        </extensions>
      </trkpt>
      <trkpt lat="37.02371698804199695587158203125" lon="-8.99466522037982940673828125">
        <ele>65.1999969482421875</ele>
        <time>2026-04-28T11:01:56.000Z</time>
        <extensions>
          <ns3:TrackPointExtension>
            <ns3:hr>115</ns3:hr>
            <ns3:cad>55</ns3:cad>
          </ns3:TrackPointExtension>
        </extensions>
      </trkpt>
      <trkpt lat="37.02367742545902729034423828125" lon="-8.994750715792179107666015625">
        <ele>65</ele>
        <time>2026-04-28T11:02:03.000Z</time>
        <extensions>
          <ns3:TrackPointExtension>
            <ns3:hr>112</ns3:hr>
            <ns3:cad>0</ns3:cad>
          </ns3:TrackPointExtension>
        </extensions>
      </trkpt>
      <trkpt lat="37.02367457561194896697998046875" lon="-8.99478097446262836456298828125">
        <ele>65</ele>
        <time>2026-04-28T11:02:05.000Z</time>
        <extensions>
          <ns3:TrackPointExtension>
            <ns3:hr>111</ns3:hr>
            <ns3:cad>0</ns3:cad>
          </ns3:TrackPointExtension>
        </extensions>
      </trkpt>
      <trkpt lat="37.02362813986837863922119140625" lon="-8.9948816411197185516357421875">
        <ele>65.40000152587890625</ele>
        <time>2026-04-28T11:02:13.000Z</time>
        <extensions>
          <ns3:TrackPointExtension>
            <ns3:hr>114</ns3:hr>
            <ns3:cad>0</ns3:cad>
          </ns3:TrackPointExtension>
        </extensions>
      </trkpt>
      <trkpt lat="37.02362260781228542327880859375" lon="-8.994896225631237030029296875">
        <ele>65.40000152587890625</ele>
        <time>2026-04-28T11:02:14.000Z</time>
        <extensions>
          <ns3:TrackPointExtension>
            <ns3:hr>114</ns3:hr>
            <ns3:cad>53</ns3:cad>
          </ns3:TrackPointExtension>
        </extensions>
      </trkpt>
      <trkpt lat="37.023602239787578582763671875" lon="-8.9949309267103672027587890625">
        <ele>65.1999969482421875</ele>
        <time>2026-04-28T11:02:17.000Z</time>
        <extensions>
          <ns3:TrackPointExtension>
            <ns3:hr>118</ns3:hr>
            <ns3:cad>55</ns3:cad>
          </ns3:TrackPointExtension>
        </extensions>
      </trkpt>
      <trkpt lat="37.0236017368733882904052734375" lon="-8.99498683400452136993408203125">
        <ele>65.40000152587890625</ele>
        <time>2026-04-28T11:02:21.000Z</time>
        <extensions>
          <ns3:TrackPointExtension>
            <ns3:hr>119</ns3:hr>
            <ns3:cad>55</ns3:cad>
          </ns3:TrackPointExtension>
        </extensions>
      </trkpt>
      <trkpt lat="37.02358447015285491943359375" lon="-8.99515313096344470977783203125">
        <ele>66</ele>
        <time>2026-04-28T11:02:31.000Z</time>
        <extensions>
          <ns3:TrackPointExtension>
            <ns3:hr>119</ns3:hr>
            <ns3:cad>59</ns3:cad>
          </ns3:TrackPointExtension>
        </extensions>
      </trkpt>
      <trkpt lat="37.023582123219966888427734375" lon="-8.9951689727604389190673828125">
        <ele>66</ele>
        <time>2026-04-28T11:02:32.000Z</time>
        <extensions>
          <ns3:TrackPointExtension>
            <ns3:hr>118</ns3:hr>
            <ns3:cad>59</ns3:cad>
          </ns3:TrackPointExtension>
        </extensions>
      </trkpt>
      <trkpt lat="37.0236087776720523834228515625" lon="-8.995309285819530487060546875">
        <ele>66.1999969482421875</ele>
        <time>2026-04-28T11:02:41.000Z</time>
        <extensions>
          <ns3:TrackPointExtension>
            <ns3:hr>119</ns3:hr>
            <ns3:cad>58</ns3:cad>
          </ns3:TrackPointExtension>
        </extensions>
      </trkpt>
      <trkpt lat="37.0236329175531864166259765625" lon="-8.995364271104335784912109375">
        <ele>66.8000030517578125</ele>
        <time>2026-04-28T11:02:45.000Z</time>
        <extensions>
          <ns3:TrackPointExtension>
            <ns3:hr>123</ns3:hr>
            <ns3:cad>58</ns3:cad>
          </ns3:TrackPointExtension>
        </extensions>
      </trkpt>
      <trkpt lat="37.023638784885406494140625" lon="-8.995378352701663970947265625">
        <ele>67</ele>
        <time>2026-04-28T11:02:46.000Z</time>
        <extensions>
          <ns3:TrackPointExtension>
            <ns3:hr>123</ns3:hr>
            <ns3:cad>58</ns3:cad>
          </ns3:TrackPointExtension>
        </extensions>
      </trkpt>
      <trkpt lat="37.02366401441395282745361328125" lon="-8.99542654864490032196044921875">
        <ele>66.59999847412109375</ele>
        <time>2026-04-28T11:02:50.000Z</time>
        <extensions>
          <ns3:TrackPointExtension>
            <ns3:hr>126</ns3:hr>
            <ns3:cad>57</ns3:cad>
          </ns3:TrackPointExtension>
        </extensions>
      </trkpt>
      <trkpt lat="37.02367038466036319732666015625" lon="-8.99543928913772106170654296875">
        <ele>66.1999969482421875</ele>
        <time>2026-04-28T11:02:52.000Z</time>
        <extensions>
          <ns3:TrackPointExtension>
            <ns3:hr>126</ns3:hr>
            <ns3:cad>0</ns3:cad>
          </ns3:TrackPointExtension>
        </extensions>
      </trkpt>
      <trkpt lat="37.02366870827972888946533203125" lon="-8.9954415522515773773193359375">
        <ele>66.1999969482421875</ele>
        <time>2026-04-28T11:02:54.000Z</time>
        <extensions>
          <ns3:TrackPointExtension>
            <ns3:hr>125</ns3:hr>
            <ns3:cad>0</ns3:cad>
          </ns3:TrackPointExtension>
        </extensions>
      </trkpt>
      <trkpt lat="37.02367088757455348968505859375" lon="-8.99543660692870616912841796875">
        <ele>66.1999969482421875</ele>
        <time>2026-04-28T11:02:58.000Z</time>
        <extensions>
          <ns3:TrackPointExtension>
            <ns3:hr>125</ns3:hr>
            <ns3:cad>0</ns3:cad>
          </ns3:TrackPointExtension>
        </extensions>
      </trkpt>
      <trkpt lat="37.023670971393585205078125" lon="-8.99543660692870616912841796875">
        <ele>66.1999969482421875</ele>
        <time>2026-04-28T11:03:03.000Z</time>
        <extensions>
          <ns3:TrackPointExtension>
            <ns3:hr>122</ns3:hr>
            <ns3:cad>0</ns3:cad>
          </ns3:TrackPointExtension>
        </extensions>
      </trkpt>
      <trkpt lat="37.023680023849010467529296875" lon="-8.995432667434215545654296875">
        <ele>66.1999969482421875</ele>
        <time>2026-04-28T11:03:09.000Z</time>
        <extensions>
          <ns3:TrackPointExtension>
            <ns3:hr>122</ns3:hr>
            <ns3:cad>0</ns3:cad>
          </ns3:TrackPointExtension>
        </extensions>
      </trkpt>
      <trkpt lat="37.023670971393585205078125" lon="-8.99543660692870616912841796875">
        <ele>66.59999847412109375</ele>
        <time>2026-04-28T11:03:18.000Z</time>
        <extensions>
          <ns3:TrackPointExtension>
            <ns3:hr>125</ns3:hr>
            <ns3:cad>0</ns3:cad>
          </ns3:TrackPointExtension>
        </extensions>
      </trkpt>
      <trkpt lat="37.023670971393585205078125" lon="-8.99543660692870616912841796875">
        <ele>66.8000030517578125</ele>
        <time>2026-04-28T11:03:19.000Z</time>
        <extensions>
          <ns3:TrackPointExtension>
            <ns3:hr>126</ns3:hr>
            <ns3:cad>0</ns3:cad>
          </ns3:TrackPointExtension>
        </extensions>
      </trkpt>
      <trkpt lat="37.0236744917929172515869140625" lon="-8.995448090136051177978515625">
        <ele>66.59999847412109375</ele>
        <time>2026-04-28T11:03:28.000Z</time>
        <extensions>
          <ns3:TrackPointExtension>
            <ns3:hr>125</ns3:hr>
            <ns3:cad>0</ns3:cad>
          </ns3:TrackPointExtension>
        </extensions>
      </trkpt>
      <trkpt lat="37.02368362806737422943115234375" lon="-8.99546929635107517242431640625">
        <ele>67</ele>
        <time>2026-04-28T11:03:36.000Z</time>
        <extensions>
          <ns3:TrackPointExtension>
            <ns3:hr>121</ns3:hr>
            <ns3:cad>0</ns3:cad>
          </ns3:TrackPointExtension>
        </extensions>
      </trkpt>
      <trkpt lat="37.02368563972413539886474609375" lon="-8.99546963162720203399658203125">
        <ele>66.8000030517578125</ele>
        <time>2026-04-28T11:03:38.000Z</time>
        <extensions>
          <ns3:TrackPointExtension>
            <ns3:hr>118</ns3:hr>
            <ns3:cad>0</ns3:cad>
          </ns3:TrackPointExtension>
        </extensions>
      </trkpt>
      <trkpt lat="37.023694775998592376708984375" lon="-8.99547449313104152679443359375">
        <ele>66.59999847412109375</ele>
        <time>2026-04-28T11:03:41.000Z</time>
        <extensions>
          <ns3:TrackPointExtension>
            <ns3:hr>114</ns3:hr>
            <ns3:cad>0</ns3:cad>
          </ns3:TrackPointExtension>
        </extensions>
      </trkpt>
      <trkpt lat="37.02370827086269855499267578125" lon="-8.9954891614615917205810546875">
        <ele>66.8000030517578125</ele>
        <time>2026-04-28T11:03:43.000Z</time>
        <extensions>
          <ns3:TrackPointExtension>
            <ns3:hr>111</ns3:hr>
            <ns3:cad>0</ns3:cad>
          </ns3:TrackPointExtension>
        </extensions>
      </trkpt>
      <trkpt lat="37.02371589839458465576171875" lon="-8.99549804627895355224609375">
        <ele>66.8000030517578125</ele>
        <time>2026-04-28T11:03:44.000Z</time>
        <extensions>
          <ns3:TrackPointExtension>
            <ns3:hr>108</ns3:hr>
            <ns3:cad>0</ns3:cad>
          </ns3:TrackPointExtension>
        </extensions>
      </trkpt>
      <trkpt lat="37.0237221010029315948486328125" lon="-8.9955112896859645843505859375">
        <ele>67</ele>
        <time>2026-04-28T11:03:45.000Z</time>
        <extensions>
          <ns3:TrackPointExtension>
            <ns3:hr>105</ns3:hr>
            <ns3:cad>0</ns3:cad>
          </ns3:TrackPointExtension>
        </extensions>
      </trkpt>
      <trkpt lat="37.02372805215418338775634765625" lon="-8.9955267123878002166748046875">
        <ele>67.1999969482421875</ele>
        <time>2026-04-28T11:03:46.000Z</time>
        <extensions>
          <ns3:TrackPointExtension>
            <ns3:hr>102</ns3:hr>
            <ns3:cad>0</ns3:cad>
          </ns3:TrackPointExtension>
        </extensions>
      </trkpt>
      <trkpt lat="37.0237335003912448883056640625" lon="-8.99555613286793231964111328125">
        <ele>67.59999847412109375</ele>
        <time>2026-04-28T11:03:48.000Z</time>
        <extensions>
          <ns3:TrackPointExtension>
            <ns3:hr>99</ns3:hr>
            <ns3:cad>0</ns3:cad>
          </ns3:TrackPointExtension>
        </extensions>
      </trkpt>
      <trkpt lat="37.02374808490276336669921875" lon="-8.99559452198445796966552734375">
        <ele>67.40000152587890625</ele>
        <time>2026-04-28T11:03:51.000Z</time>
        <extensions>
          <ns3:TrackPointExtension>
            <ns3:hr>98</ns3:hr>
            <ns3:cad>0</ns3:cad>
          </ns3:TrackPointExtension>
        </extensions>
      </trkpt>
      <trkpt lat="37.023750431835651397705078125" lon="-8.99560307152569293975830078125">
        <ele>67</ele>
        <time>2026-04-28T11:03:52.000Z</time>
        <extensions>
          <ns3:TrackPointExtension>
            <ns3:hr>98</ns3:hr>
            <ns3:cad>0</ns3:cad>
          </ns3:TrackPointExtension>
        </extensions>
      </trkpt>
      <trkpt lat="37.02376225031912326812744140625" lon="-8.99565872736275196075439453125">
        <ele>68.1999969482421875</ele>
        <time>2026-04-28T11:05:49.000Z</time>
        <extensions>
          <ns3:TrackPointExtension>
            <ns3:hr>104</ns3:hr>
            <ns3:cad>0</ns3:cad>
          </ns3:TrackPointExtension>
        </extensions>
      </trkpt>
      <trkpt lat="37.02376342378556728363037109375" lon="-8.99562679231166839599609375">
        <ele>68.1999969482421875</ele>
        <time>2026-04-28T11:05:52.000Z</time>
        <extensions>
          <ns3:TrackPointExtension>
            <ns3:hr>105</ns3:hr>
            <ns3:cad>58</ns3:cad>
          </ns3:TrackPointExtension>
        </extensions>
      </trkpt>
      <trkpt lat="37.0237790979444980621337890625" lon="-8.9955632574856281280517578125">
        <ele>67.1999969482421875</ele>
        <time>2026-04-28T11:05:57.000Z</time>
        <extensions>
          <ns3:TrackPointExtension>
            <ns3:hr>104</ns3:hr>
            <ns3:cad>0</ns3:cad>
          </ns3:TrackPointExtension>
        </extensions>
      </trkpt>
      <trkpt lat="37.0237834565341472625732421875" lon="-8.99555730633437633514404296875">
        <ele>67</ele>
        <time>2026-04-28T11:05:58.000Z</time>
        <extensions>
          <ns3:TrackPointExtension>
            <ns3:hr>104</ns3:hr>
            <ns3:cad>0</ns3:cad>
          </ns3:TrackPointExtension>
        </extensions>
      </trkpt>
      <trkpt lat="37.02378337271511554718017578125" lon="-8.99555747397243976593017578125">
        <ele>66.59999847412109375</ele>
        <time>2026-04-28T11:06:05.000Z</time>
        <extensions>
          <ns3:TrackPointExtension>
            <ns3:hr>106</ns3:hr>
            <ns3:cad>0</ns3:cad>
          </ns3:TrackPointExtension>
        </extensions>
      </trkpt>
      <trkpt lat="37.0237831212580204010009765625" lon="-8.995557725429534912109375">
        <ele>66.8000030517578125</ele>
        <time>2026-04-28T11:06:09.000Z</time>
        <extensions>
          <ns3:TrackPointExtension>
            <ns3:hr>112</ns3:hr>
            <ns3:cad>0</ns3:cad>
          </ns3:TrackPointExtension>
        </extensions>
      </trkpt>
      <trkpt lat="37.0237831212580204010009765625" lon="-8.995557725429534912109375">
        <ele>66.8000030517578125</ele>
        <time>2026-04-28T11:06:10.000Z</time>
        <extensions>
          <ns3:TrackPointExtension>
            <ns3:hr>115</ns3:hr>
            <ns3:cad>0</ns3:cad>
          </ns3:TrackPointExtension>
        </extensions>
      </trkpt>
      <trkpt lat="37.0237831212580204010009765625" lon="-8.995557725429534912109375">
        <ele>67</ele>
        <time>2026-04-28T11:06:11.000Z</time>
        <extensions>
          <ns3:TrackPointExtension>
            <ns3:hr>115</ns3:hr>
            <ns3:cad>0</ns3:cad>
          </ns3:TrackPointExtension>
        </extensions>
      </trkpt>
      <trkpt lat="37.0237831212580204010009765625" lon="-8.995557725429534912109375">
        <ele>66.8000030517578125</ele>
        <time>2026-04-28T11:06:12.000Z</time>
        <extensions>
          <ns3:TrackPointExtension>
            <ns3:hr>110</ns3:hr>
            <ns3:cad>0</ns3:cad>
          </ns3:TrackPointExtension>
        </extensions>
      </trkpt>
      <trkpt lat="37.0237831212580204010009765625" lon="-8.995557725429534912109375">
        <ele>66.59999847412109375</ele>
        <time>2026-04-28T11:06:17.000Z</time>
        <extensions>
          <ns3:TrackPointExtension>
            <ns3:hr>107</ns3:hr>
            <ns3:cad>0</ns3:cad>
          </ns3:TrackPointExtension>
        </extensions>
      </trkpt>
      <trkpt lat="37.023784630000591278076171875" lon="-8.9955376088619232177734375">
        <ele>67</ele>
        <time>2026-04-28T11:06:25.000Z</time>
        <extensions>
          <ns3:TrackPointExtension>
            <ns3:hr>107</ns3:hr>
            <ns3:cad>0</ns3:cad>
          </ns3:TrackPointExtension>
        </extensions>
      </trkpt>
      <trkpt lat="37.02378437854349613189697265625" lon="-8.995495699346065521240234375">
        <ele>67.40000152587890625</ele>
        <time>2026-04-28T11:06:28.000Z</time>
        <extensions>
          <ns3:TrackPointExtension>
            <ns3:hr>104</ns3:hr>
            <ns3:cad>0</ns3:cad>
          </ns3:TrackPointExtension>
        </extensions>
      </trkpt>
      <trkpt lat="37.02379326336085796356201171875" lon="-8.99543509818613529205322265625">
        <ele>67.40000152587890625</ele>
        <time>2026-04-28T11:06:32.000Z</time>
        <extensions>
          <ns3:TrackPointExtension>
            <ns3:hr>105</ns3:hr>
            <ns3:cad>51</ns3:cad>
          </ns3:TrackPointExtension>
        </extensions>
      </trkpt>
      <trkpt lat="37.02378773130476474761962890625" lon="-8.99535111151635646820068359375">
        <ele>67.1999969482421875</ele>
        <time>2026-04-28T11:06:38.000Z</time>
        <extensions>
          <ns3:TrackPointExtension>
            <ns3:hr>106</ns3:hr>
            <ns3:cad>0</ns3:cad>
          </ns3:TrackPointExtension>
        </extensions>
      </trkpt>
      <trkpt lat="37.02379762195050716400146484375" lon="-8.99525589309632778167724609375">
        <ele>67</ele>
        <time>2026-04-28T11:06:45.000Z</time>
        <extensions>
          <ns3:TrackPointExtension>
            <ns3:hr>109</ns3:hr>
            <ns3:cad>53</ns3:cad>
          </ns3:TrackPointExtension>
        </extensions>
      </trkpt>
      <trkpt lat="37.02379879541695117950439453125" lon="-8.9952403865754604339599609375">
        <ele>66.8000030517578125</ele>
        <time>2026-04-28T11:06:46.000Z</time>
        <extensions>
          <ns3:TrackPointExtension>
            <ns3:hr>112</ns3:hr>
            <ns3:cad>53</ns3:cad>
          </ns3:TrackPointExtension>
        </extensions>
      </trkpt>
      <trkpt lat="37.02380063943564891815185546875" lon="-8.995222784578800201416015625">
        <ele>66.59999847412109375</ele>
        <time>2026-04-28T11:06:47.000Z</time>
        <extensions>
          <ns3:TrackPointExtension>
            <ns3:hr>115</ns3:hr>
            <ns3:cad>0</ns3:cad>
          </ns3:TrackPointExtension>
        </extensions>
      </trkpt>
      <trkpt lat="37.0238064229488372802734375" lon="-8.9951106347143650054931640625">
        <ele>66.1999969482421875</ele>
        <time>2026-04-28T11:06:55.000Z</time>
        <extensions>
          <ns3:TrackPointExtension>
            <ns3:hr>115</ns3:hr>
            <ns3:cad>0</ns3:cad>
          </ns3:TrackPointExtension>
        </extensions>
      </trkpt>
      <trkpt lat="37.02384221367537975311279296875" lon="-8.9949761889874935150146484375">
        <ele>66.59999847412109375</ele>
        <time>2026-04-28T11:07:04.000Z</time>
        <extensions>
          <ns3:TrackPointExtension>
            <ns3:hr>115</ns3:hr>
            <ns3:cad>56</ns3:cad>
          </ns3:TrackPointExtension>
        </extensions>
      </trkpt>
      <trkpt lat="37.02386786229908466339111328125" lon="-8.99484987370669841766357421875">
        <ele>66.40000152587890625</ele>
        <time>2026-04-28T11:07:13.000Z</time>
        <extensions>
          <ns3:TrackPointExtension>
            <ns3:hr>116</ns3:hr>
            <ns3:cad>57</ns3:cad>
          </ns3:TrackPointExtension>
        </extensions>
      </trkpt>
      <trkpt lat="37.02387641184031963348388671875" lon="-8.994788266718387603759765625">
        <ele>66</ele>
        <time>2026-04-28T11:07:17.000Z</time>
        <extensions>
          <ns3:TrackPointExtension>
            <ns3:hr>116</ns3:hr>
            <ns3:cad>0</ns3:cad>
          </ns3:TrackPointExtension>
        </extensions>
      </trkpt>
      <trkpt lat="37.02388244681060314178466796875" lon="-8.9947347901761531829833984375">
        <ele>65.8000030517578125</ele>
        <time>2026-04-28T11:07:21.000Z</time>
        <extensions>
          <ns3:TrackPointExtension>
            <ns3:hr>117</ns3:hr>
            <ns3:cad>48</ns3:cad>
          </ns3:TrackPointExtension>
        </extensions>
      </trkpt>
      <trkpt lat="37.02394413761794567108154296875" lon="-8.99464652873575687408447265625">
        <ele>66.1999969482421875</ele>
        <time>2026-04-28T11:07:29.000Z</time>
        <extensions>
          <ns3:TrackPointExtension>
            <ns3:hr>116</ns3:hr>
            <ns3:cad>57</ns3:cad>
          </ns3:TrackPointExtension>
        </extensions>
      </trkpt>
      <trkpt lat="37.02397431246936321258544921875" lon="-8.9945693314075469970703125">
        <ele>66</ele>
        <time>2026-04-28T11:07:37.000Z</time>
        <extensions>
          <ns3:TrackPointExtension>
            <ns3:hr>114</ns3:hr>
            <ns3:cad>0</ns3:cad>
          </ns3:TrackPointExtension>
        </extensions>
      </trkpt>
      <trkpt lat="37.02397749759256839752197265625" lon="-8.99453219957649707794189453125">
        <ele>65.40000152587890625</ele>
        <time>2026-04-28T11:07:44.000Z</time>
        <extensions>
          <ns3:TrackPointExtension>
            <ns3:hr>114</ns3:hr>
            <ns3:cad>0</ns3:cad>
          </ns3:TrackPointExtension>
        </extensions>
      </trkpt>
      <trkpt lat="37.02401320450007915496826171875" lon="-8.994501940906047821044921875">
        <ele>65.59999847412109375</ele>
        <time>2026-04-28T11:07:49.000Z</time>
        <extensions>
          <ns3:TrackPointExtension>
            <ns3:hr>111</ns3:hr>
            <ns3:cad>0</ns3:cad>
          </ns3:TrackPointExtension>
        </extensions>
      </trkpt>
      <trkpt lat="37.02402275986969470977783203125" lon="-8.9944917149841785430908203125">
        <ele>65.59999847412109375</ele>
        <time>2026-04-28T11:07:50.000Z</time>
        <extensions>
          <ns3:TrackPointExtension>
            <ns3:hr>111</ns3:hr>
            <ns3:cad>0</ns3:cad>
          </ns3:TrackPointExtension>
        </extensions>
      </trkpt>
      <trkpt lat="37.0240882225334644317626953125" lon="-8.994465060532093048095703125">
        <ele>65.8000030517578125</ele>
        <time>2026-04-28T11:07:57.000Z</time>
        <extensions>
          <ns3:TrackPointExtension>
            <ns3:hr>111</ns3:hr>
            <ns3:cad>50</ns3:cad>
          </ns3:TrackPointExtension>
        </extensions>
      </trkpt>
      <trkpt lat="37.0241405256092548370361328125" lon="-8.994476795196533203125">
        <ele>65</ele>
        <time>2026-04-28T11:08:02.000Z</time>
        <extensions>
          <ns3:TrackPointExtension>
            <ns3:hr>110</ns3:hr>
            <ns3:cad>51</ns3:cad>
          </ns3:TrackPointExtension>
        </extensions>
      </trkpt>
      <trkpt lat="37.0241650007665157318115234375" lon="-8.99448375217616558074951171875">
        <ele>65</ele>
        <time>2026-04-28T11:08:04.000Z</time>
        <extensions>
          <ns3:TrackPointExtension>
            <ns3:hr>110</ns3:hr>
            <ns3:cad>51</ns3:cad>
          </ns3:TrackPointExtension>
        </extensions>
      </trkpt>
      <trkpt lat="37.0242478139698505401611328125" lon="-8.99450068362057209014892578125">
        <ele>64.59999847412109375</ele>
        <time>2026-04-28T11:08:12.000Z</time>
        <extensions>
          <ns3:TrackPointExtension>
            <ns3:hr>110</ns3:hr>
            <ns3:cad>51</ns3:cad>
          </ns3:TrackPointExtension>
        </extensions>
      </trkpt>
      <trkpt lat="37.02429869212210178375244140625" lon="-8.994508646428585052490234375">
        <ele>64</ele>
        <time>2026-04-28T11:08:18.000Z</time>
        <extensions>
          <ns3:TrackPointExtension>
            <ns3:hr>111</ns3:hr>
            <ns3:cad>50</ns3:cad>
          </ns3:TrackPointExtension>
        </extensions>
      </trkpt>
      <trkpt lat="37.02436390332877635955810546875" lon="-8.99449624121189117431640625">
        <ele>64.40000152587890625</ele>
        <time>2026-04-28T11:08:24.000Z</time>
        <extensions>
          <ns3:TrackPointExtension>
            <ns3:hr>108</ns3:hr>
            <ns3:cad>0</ns3:cad>
          </ns3:TrackPointExtension>
        </extensions>
      </trkpt>
      <trkpt lat="37.0243829302489757537841796875" lon="-8.9944920502603054046630859375">
        <ele>64.59999847412109375</ele>
        <time>2026-04-28T11:08:26.000Z</time>
        <extensions>
          <ns3:TrackPointExtension>
            <ns3:hr>107</ns3:hr>
            <ns3:cad>0</ns3:cad>
          </ns3:TrackPointExtension>
        </extensions>
      </trkpt>
      <trkpt lat="37.0244670845568180084228515625" lon="-8.99448106996715068817138671875">
        <ele>64</ele>
        <time>2026-04-28T11:08:34.000Z</time>
        <extensions>
          <ns3:TrackPointExtension>
            <ns3:hr>107</ns3:hr>
            <ns3:cad>52</ns3:cad>
          </ns3:TrackPointExtension>
        </extensions>
      </trkpt>
      <trkpt lat="37.0245545916259288787841796875" lon="-8.9944467879831790924072265625">
        <ele>64</ele>
        <time>2026-04-28T11:08:42.000Z</time>
        <extensions>
          <ns3:TrackPointExtension>
            <ns3:hr>107</ns3:hr>
            <ns3:cad>56</ns3:cad>
          </ns3:TrackPointExtension>
        </extensions>
      </trkpt>
      <trkpt lat="37.02462625689804553985595703125" lon="-8.9944226481020450592041015625">
        <ele>63.40000152587890625</ele>
        <time>2026-04-28T11:08:50.000Z</time>
        <extensions>
          <ns3:TrackPointExtension>
            <ns3:hr>107</ns3:hr>
            <ns3:cad>0</ns3:cad>
          </ns3:TrackPointExtension>
        </extensions>
      </trkpt>
      <trkpt lat="37.02467537485063076019287109375" lon="-8.99440714158117771148681640625">
        <ele>62.799999237060546875</ele>
        <time>2026-04-28T11:08:54.000Z</time>
        <extensions>
          <ns3:TrackPointExtension>
            <ns3:hr>106</ns3:hr>
            <ns3:cad>0</ns3:cad>
          </ns3:TrackPointExtension>
        </extensions>
      </trkpt>
      <trkpt lat="37.02472147531807422637939453125" lon="-8.99437394924461841583251953125">
        <ele>63.40000152587890625</ele>
        <time>2026-04-28T11:08:59.000Z</time>
        <extensions>
          <ns3:TrackPointExtension>
            <ns3:hr>108</ns3:hr>
            <ns3:cad>53</ns3:cad>
          </ns3:TrackPointExtension>
        </extensions>
      </trkpt>
      <trkpt lat="37.0247943140566349029541015625" lon="-8.9943411760032176971435546875">
        <ele>63</ele>
        <time>2026-04-28T11:09:07.000Z</time>
        <extensions>
          <ns3:TrackPointExtension>
            <ns3:hr>109</ns3:hr>
            <ns3:cad>48</ns3:cad>
          </ns3:TrackPointExtension>
        </extensions>
      </trkpt>
      <trkpt lat="37.024851478636264801025390625" lon="-8.9943116717040538787841796875">
        <ele>63.40000152587890625</ele>
        <time>2026-04-28T11:09:14.000Z</time>
        <extensions>
          <ns3:TrackPointExtension>
            <ns3:hr>108</ns3:hr>
            <ns3:cad>0</ns3:cad>
          </ns3:TrackPointExtension>
        </extensions>
      </trkpt>
      <trkpt lat="37.02492834068834781646728515625" lon="-8.99431846104562282562255859375">
        <ele>62.799999237060546875</ele>
        <time>2026-04-28T11:09:21.000Z</time>
        <extensions>
          <ns3:TrackPointExtension>
            <ns3:hr>109</ns3:hr>
            <ns3:cad>48</ns3:cad>
          </ns3:TrackPointExtension>
        </extensions>
      </trkpt>
      <trkpt lat="37.0250072143971920013427734375" lon="-8.99429599754512310028076171875">
        <ele>62.200000762939453125</ele>
        <time>2026-04-28T11:09:29.000Z</time>
        <extensions>
          <ns3:TrackPointExtension>
            <ns3:hr>109</ns3:hr>
            <ns3:cad>41</ns3:cad>
          </ns3:TrackPointExtension>
        </extensions>
      </trkpt>
      <trkpt lat="37.02505172230303287506103515625" lon="-8.9942905493080615997314453125">
        <ele>62.59999847412109375</ele>
        <time>2026-04-28T11:09:35.000Z</time>
        <extensions>
          <ns3:TrackPointExtension>
            <ns3:hr>110</ns3:hr>
            <ns3:cad>75</ns3:cad>
          </ns3:TrackPointExtension>
        </extensions>
      </trkpt>
      <trkpt lat="37.02507770620286464691162109375" lon="-8.994284681975841522216796875">
        <ele>61.799999237060546875</ele>
        <time>2026-04-28T11:09:39.000Z</time>
        <extensions>
          <ns3:TrackPointExtension>
            <ns3:hr>111</ns3:hr>
            <ns3:cad>0</ns3:cad>
          </ns3:TrackPointExtension>
        </extensions>
      </trkpt>
      <trkpt lat="37.0250759460031986236572265625" lon="-8.9942814968526363372802734375">
        <ele>61.40000152587890625</ele>
        <time>2026-04-28T11:09:41.000Z</time>
        <extensions>
          <ns3:TrackPointExtension>
            <ns3:hr>112</ns3:hr>
            <ns3:cad>0</ns3:cad>
          </ns3:TrackPointExtension>
        </extensions>
      </trkpt>
      <trkpt lat="37.025067396461963653564453125" lon="-8.9942868612706661224365234375">
        <ele>62</ele>
        <time>2026-04-28T11:09:51.000Z</time>
        <extensions>
          <ns3:TrackPointExtension>
            <ns3:hr>112</ns3:hr>
            <ns3:cad>0</ns3:cad>
          </ns3:TrackPointExtension>
        </extensions>
      </trkpt>
      <trkpt lat="37.02507217414677143096923828125" lon="-8.9942965842783451080322265625">
        <ele>62.200000762939453125</ele>
        <time>2026-04-28T11:09:55.000Z</time>
        <extensions>
          <ns3:TrackPointExtension>
            <ns3:hr>115</ns3:hr>
            <ns3:cad>0</ns3:cad>
          </ns3:TrackPointExtension>
        </extensions>
      </trkpt>
      <trkpt lat="37.02507183887064456939697265625" lon="-8.99429884739220142364501953125">
        <ele>62</ele>
        <time>2026-04-28T11:09:59.000Z</time>
        <extensions>
          <ns3:TrackPointExtension>
            <ns3:hr>118</ns3:hr>
            <ns3:cad>0</ns3:cad>
          </ns3:TrackPointExtension>
        </extensions>
      </trkpt>
      <trkpt lat="37.025088854134082794189453125" lon="-8.994291722774505615234375">
        <ele>62.200000762939453125</ele>
        <time>2026-04-28T11:10:03.000Z</time>
        <extensions>
          <ns3:TrackPointExtension>
            <ns3:hr>117</ns3:hr>
            <ns3:cad>0</ns3:cad>
          </ns3:TrackPointExtension>
        </extensions>
      </trkpt>
      <trkpt lat="37.02517191879451274871826171875" lon="-8.9942436106503009796142578125">
        <ele>62.200000762939453125</ele>
        <time>2026-04-28T11:10:10.000Z</time>
        <extensions>
          <ns3:TrackPointExtension>
            <ns3:hr>115</ns3:hr>
            <ns3:cad>56</ns3:cad>
          </ns3:TrackPointExtension>
        </extensions>
      </trkpt>
      <trkpt lat="37.025246433913707733154296875" lon="-8.9941892959177494049072265625">
        <ele>61.799999237060546875</ele>
        <time>2026-04-28T11:10:18.000Z</time>
        <extensions>
          <ns3:TrackPointExtension>
            <ns3:hr>114</ns3:hr>
            <ns3:cad>53</ns3:cad>
          </ns3:TrackPointExtension>
        </extensions>
      </trkpt>
      <trkpt lat="37.025292702019214630126953125" lon="-8.99415601976215839385986328125">
        <ele>61.59999847412109375</ele>
        <time>2026-04-28T11:10:24.000Z</time>
        <extensions>
          <ns3:TrackPointExtension>
            <ns3:hr>113</ns3:hr>
            <ns3:cad>0</ns3:cad>
          </ns3:TrackPointExtension>
        </extensions>
      </trkpt>
      <trkpt lat="37.025347687304019927978515625" lon="-8.994120396673679351806640625">
        <ele>61.40000152587890625</ele>
        <time>2026-04-28T11:10:31.000Z</time>
        <extensions>
          <ns3:TrackPointExtension>
            <ns3:hr>111</ns3:hr>
            <ns3:cad>0</ns3:cad>
          </ns3:TrackPointExtension>
        </extensions>
      </trkpt>
      <trkpt lat="37.02542086131870746612548828125" lon="-8.99408142082393169403076171875">
        <ele>61.200000762939453125</ele>
        <time>2026-04-28T11:10:39.000Z</time>
        <extensions>
          <ns3:TrackPointExtension>
            <ns3:hr>110</ns3:hr>
            <ns3:cad>0</ns3:cad>
          </ns3:TrackPointExtension>
        </extensions>
      </trkpt>
      <trkpt lat="37.0254655368626117706298828125" lon="-8.99407387711107730865478515625">
        <ele>60.59999847412109375</ele>
        <time>2026-04-28T11:10:43.000Z</time>
        <extensions>
          <ns3:TrackPointExtension>
            <ns3:hr>110</ns3:hr>
            <ns3:cad>0</ns3:cad>
          </ns3:TrackPointExtension>
        </extensions>
      </trkpt>
      <trkpt lat="37.02547366730868816375732421875" lon="-8.9940699376165866851806640625">
        <ele>60.59999847412109375</ele>
        <time>2026-04-28T11:10:44.000Z</time>
        <extensions>
          <ns3:TrackPointExtension>
            <ns3:hr>110</ns3:hr>
            <ns3:cad>0</ns3:cad>
          </ns3:TrackPointExtension>
        </extensions>
      </trkpt>
      <trkpt lat="37.0255339331924915313720703125" lon="-8.99404588155448436737060546875">
        <ele>60.799999237060546875</ele>
        <time>2026-04-28T11:10:50.000Z</time>
        <extensions>
          <ns3:TrackPointExtension>
            <ns3:hr>113</ns3:hr>
            <ns3:cad>0</ns3:cad>
          </ns3:TrackPointExtension>
        </extensions>
      </trkpt>
      <trkpt lat="37.02554340474307537078857421875" lon="-8.99404563009738922119140625">
        <ele>60.799999237060546875</ele>
        <time>2026-04-28T11:10:51.000Z</time>
        <extensions>
          <ns3:TrackPointExtension>
            <ns3:hr>114</ns3:hr>
            <ns3:cad>49</ns3:cad>
          </ns3:TrackPointExtension>
        </extensions>
      </trkpt>
      <trkpt lat="37.02561079524457454681396484375" lon="-8.99400246329605579376220703125">
        <ele>59.59999847412109375</ele>
        <time>2026-04-28T11:10:59.000Z</time>
        <extensions>
          <ns3:TrackPointExtension>
            <ns3:hr>115</ns3:hr>
            <ns3:cad>49</ns3:cad>
          </ns3:TrackPointExtension>
        </extensions>
      </trkpt>
      <trkpt lat="37.02561666257679462432861328125" lon="-8.9939951710402965545654296875">
        <ele>59.59999847412109375</ele>
        <time>2026-04-28T11:11:00.000Z</time>
        <extensions>
          <ns3:TrackPointExtension>
            <ns3:hr>115</ns3:hr>
            <ns3:cad>48</ns3:cad>
          </ns3:TrackPointExtension>
        </extensions>
      </trkpt>
      <trkpt lat="37.02566863037645816802978515625" lon="-8.99397295899689197540283203125">
        <ele>59.40000152587890625</ele>
        <time>2026-04-28T11:11:06.000Z</time>
        <extensions>
          <ns3:TrackPointExtension>
            <ns3:hr>115</ns3:hr>
            <ns3:cad>51</ns3:cad>
          </ns3:TrackPointExtension>
        </extensions>
      </trkpt>
      <trkpt lat="37.0257317461073398590087890625" lon="-8.99395041167736053466796875">
        <ele>59.799999237060546875</ele>
        <time>2026-04-28T11:11:13.000Z</time>
        <extensions>
          <ns3:TrackPointExtension>
            <ns3:hr>114</ns3:hr>
            <ns3:cad>50</ns3:cad>
          </ns3:TrackPointExtension>
        </extensions>
      </trkpt>
      <trkpt lat="37.02575831674039363861083984375" lon="-8.993885032832622528076171875">
        <ele>59.59999847412109375</ele>
        <time>2026-04-28T11:11:20.000Z</time>
        <extensions>
          <ns3:TrackPointExtension>
            <ns3:hr>113</ns3:hr>
            <ns3:cad>0</ns3:cad>
          </ns3:TrackPointExtension>
        </extensions>
      </trkpt>
      <trkpt lat="37.02581732533872127532958984375" lon="-8.99383381940424442291259765625">
        <ele>59.59999847412109375</ele>
        <time>2026-04-28T11:11:27.000Z</time>
        <extensions>
          <ns3:TrackPointExtension>
            <ns3:hr>111</ns3:hr>
            <ns3:cad>0</ns3:cad>
          </ns3:TrackPointExtension>
        </extensions>
      </trkpt>
      <trkpt lat="37.025878094136714935302734375" lon="-8.99377472698688507080078125">
        <ele>59.799999237060546875</ele>
        <time>2026-04-28T11:11:34.000Z</time>
        <extensions>
          <ns3:TrackPointExtension>
            <ns3:hr>112</ns3:hr>
            <ns3:cad>0</ns3:cad>
          </ns3:TrackPointExtension>
        </extensions>
      </trkpt>
      <trkpt lat="37.02590801753103733062744140625" lon="-8.993695937097072601318359375">
        <ele>59.200000762939453125</ele>
        <time>2026-04-28T11:11:42.000Z</time>
        <extensions>
          <ns3:TrackPointExtension>
            <ns3:hr>113</ns3:hr>
            <ns3:cad>51</ns3:cad>
          </ns3:TrackPointExtension>
        </extensions>
      </trkpt>
      <trkpt lat="37.0259396173059940338134765625" lon="-8.99363768287003040313720703125">
        <ele>59.200000762939453125</ele>
        <time>2026-04-28T11:11:48.000Z</time>
        <extensions>
          <ns3:TrackPointExtension>
            <ns3:hr>113</ns3:hr>
            <ns3:cad>45</ns3:cad>
          </ns3:TrackPointExtension>
        </extensions>
      </trkpt>
      <trkpt lat="37.02598513104021549224853515625" lon="-8.99357968010008335113525390625">
        <ele>59</ele>
        <time>2026-04-28T11:11:55.000Z</time>
        <extensions>
          <ns3:TrackPointExtension>
            <ns3:hr>113</ns3:hr>
            <ns3:cad>0</ns3:cad>
          </ns3:TrackPointExtension>
        </extensions>
      </trkpt>
      <trkpt lat="37.026024945080280303955078125" lon="-8.99350784718990325927734375">
        <ele>58.799999237060546875</ele>
        <time>2026-04-28T11:12:02.000Z</time>
        <extensions>
          <ns3:TrackPointExtension>
            <ns3:hr>113</ns3:hr>
            <ns3:cad>51</ns3:cad>
          </ns3:TrackPointExtension>
        </extensions>
      </trkpt>
      <trkpt lat="37.02606677077710628509521484375" lon="-8.99345495738089084625244140625">
        <ele>58</ele>
        <time>2026-04-28T11:12:09.000Z</time>
        <extensions>
          <ns3:TrackPointExtension>
            <ns3:hr>111</ns3:hr>
            <ns3:cad>58</ns3:cad>
          </ns3:TrackPointExtension>
        </extensions>
      </trkpt>
      <trkpt lat="37.02610909938812255859375" lon="-8.99337231181561946868896484375">
        <ele>57.200000762939453125</ele>
        <time>2026-04-28T11:12:17.000Z</time>
        <extensions>
          <ns3:TrackPointExtension>
            <ns3:hr>110</ns3:hr>
            <ns3:cad>53</ns3:cad>
          </ns3:TrackPointExtension>
        </extensions>
      </trkpt>
      <trkpt lat="37.02613382600247859954833984375" lon="-8.993297629058361053466796875">
        <ele>57.59999847412109375</ele>
        <time>2026-04-28T11:12:23.000Z</time>
        <extensions>
          <ns3:TrackPointExtension>
            <ns3:hr>110</ns3:hr>
            <ns3:cad>0</ns3:cad>
          </ns3:TrackPointExtension>
        </extensions>
      </trkpt>
      <trkpt lat="37.026157714426517486572265625" lon="-8.9932215213775634765625">
        <ele>57.59999847412109375</ele>
        <time>2026-04-28T11:12:31.000Z</time>
        <extensions>
          <ns3:TrackPointExtension>
            <ns3:hr>111</ns3:hr>
            <ns3:cad>0</ns3:cad>
          </ns3:TrackPointExtension>
        </extensions>
      </trkpt>
      <trkpt lat="37.026172466576099395751953125" lon="-8.99319763295352458953857421875">
        <ele>57.59999847412109375</ele>
        <time>2026-04-28T11:12:34.000Z</time>
        <extensions>
          <ns3:TrackPointExtension>
            <ns3:hr>114</ns3:hr>
            <ns3:cad>46</ns3:cad>
          </ns3:TrackPointExtension>
        </extensions>
      </trkpt>
      <trkpt lat="37.0261909067630767822265625" lon="-8.993181288242340087890625">
        <ele>57.40000152587890625</ele>
        <time>2026-04-28T11:12:36.000Z</time>
        <extensions>
          <ns3:TrackPointExtension>
            <ns3:hr>117</ns3:hr>
            <ns3:cad>46</ns3:cad>
          </ns3:TrackPointExtension>
        </extensions>
      </trkpt>
      <trkpt lat="37.02620591036975383758544921875" lon="-8.99316779337823390960693359375">
        <ele>57.59999847412109375</ele>
        <time>2026-04-28T11:12:38.000Z</time>
        <extensions>
          <ns3:TrackPointExtension>
            <ns3:hr>118</ns3:hr>
            <ns3:cad>46</ns3:cad>
          </ns3:TrackPointExtension>
        </extensions>
      </trkpt>
      <trkpt lat="37.02625972218811511993408203125" lon="-8.993122614920139312744140625">
        <ele>58.200000762939453125</ele>
        <time>2026-04-28T11:12:45.000Z</time>
        <extensions>
          <ns3:TrackPointExtension>
            <ns3:hr>119</ns3:hr>
            <ns3:cad>0</ns3:cad>
          </ns3:TrackPointExtension>
        </extensions>
      </trkpt>
      <trkpt lat="37.02629677020013332366943359375" lon="-8.99309537373483180999755859375">
        <ele>59</ele>
        <time>2026-04-28T11:12:50.000Z</time>
        <extensions>
          <ns3:TrackPointExtension>
            <ns3:hr>120</ns3:hr>
            <ns3:cad>49</ns3:cad>
          </ns3:TrackPointExtension>
        </extensions>
      </trkpt>
      <trkpt lat="37.02630448155105113983154296875" lon="-8.99309285916388034820556640625">
        <ele>59</ele>
        <time>2026-04-28T11:12:51.000Z</time>
        <extensions>
          <ns3:TrackPointExtension>
            <ns3:hr>121</ns3:hr>
            <ns3:cad>0</ns3:cad>
          </ns3:TrackPointExtension>
        </extensions>
      </trkpt>
      <trkpt lat="37.0263375900685787200927734375" lon="-8.993042819201946258544921875">
        <ele>59.200000762939453125</ele>
        <time>2026-04-28T11:12:57.000Z</time>
        <extensions>
          <ns3:TrackPointExtension>
            <ns3:hr>124</ns3:hr>
            <ns3:cad>0</ns3:cad>
          </ns3:TrackPointExtension>
        </extensions>
      </trkpt>
      <trkpt lat="37.0263442955911159515380859375" lon="-8.99302328936755657196044921875">
        <ele>59.40000152587890625</ele>
        <time>2026-04-28T11:12:59.000Z</time>
        <extensions>
          <ns3:TrackPointExtension>
            <ns3:hr>125</ns3:hr>
            <ns3:cad>49</ns3:cad>
          </ns3:TrackPointExtension>
        </extensions>
      </trkpt>
      <trkpt lat="37.0263717882335186004638671875" lon="-8.99294860661029815673828125">
        <ele>58.799999237060546875</ele>
        <time>2026-04-28T11:13:06.000Z</time>
        <extensions>
          <ns3:TrackPointExtension>
            <ns3:hr>127</ns3:hr>
            <ns3:cad>47</ns3:cad>
          </ns3:TrackPointExtension>
        </extensions>
      </trkpt>
      <trkpt lat="37.02638746239244937896728515625" lon="-8.99289228022098541259765625">
        <ele>58.59999847412109375</ele>
        <time>2026-04-28T11:13:12.000Z</time>
        <extensions>
          <ns3:TrackPointExtension>
            <ns3:hr>125</ns3:hr>
            <ns3:cad>0</ns3:cad>
          </ns3:TrackPointExtension>
        </extensions>
      </trkpt>
      <trkpt lat="37.02639349736273288726806640625" lon="-8.992831595242023468017578125">
        <ele>58.59999847412109375</ele>
        <time>2026-04-28T11:13:17.000Z</time>
        <extensions>
          <ns3:TrackPointExtension>
            <ns3:hr>122</ns3:hr>
            <ns3:cad>0</ns3:cad>
          </ns3:TrackPointExtension>
        </extensions>
      </trkpt>
      <trkpt lat="37.02639835886657238006591796875" lon="-8.992803096771240234375">
        <ele>58.40000152587890625</ele>
        <time>2026-04-28T11:13:20.000Z</time>
        <extensions>
          <ns3:TrackPointExtension>
            <ns3:hr>120</ns3:hr>
            <ns3:cad>0</ns3:cad>
          </ns3:TrackPointExtension>
        </extensions>
      </trkpt>
      <trkpt lat="37.0263935811817646026611328125" lon="-8.992733024060726165771484375">
        <ele>58.59999847412109375</ele>
        <time>2026-04-28T11:13:27.000Z</time>
        <extensions>
          <ns3:TrackPointExtension>
            <ns3:hr>119</ns3:hr>
            <ns3:cad>50</ns3:cad>
          </ns3:TrackPointExtension>
        </extensions>
      </trkpt>
      <trkpt lat="37.02641193754971027374267578125" lon="-8.9926735125482082366943359375">
        <ele>58</ele>
        <time>2026-04-28T11:13:33.000Z</time>
        <extensions>
          <ns3:TrackPointExtension>
            <ns3:hr>117</ns3:hr>
            <ns3:cad>0</ns3:cad>
          </ns3:TrackPointExtension>
        </extensions>
      </trkpt>
      <trkpt lat="37.0264215767383575439453125" lon="-8.9926517195999622344970703125">
        <ele>58</ele>
        <time>2026-04-28T11:13:35.000Z</time>
        <extensions>
          <ns3:TrackPointExtension>
            <ns3:hr>115</ns3:hr>
            <ns3:cad>0</ns3:cad>
          </ns3:TrackPointExtension>
        </extensions>
      </trkpt>
      <trkpt lat="37.0264256000518798828125" lon="-8.99260126054286956787109375">
        <ele>57.799999237060546875</ele>
        <time>2026-04-28T11:13:40.000Z</time>
        <extensions>
          <ns3:TrackPointExtension>
            <ns3:hr>113</ns3:hr>
            <ns3:cad>0</ns3:cad>
          </ns3:TrackPointExtension>
        </extensions>
      </trkpt>
      <trkpt lat="37.026437334716320037841796875" lon="-8.99252456612884998321533203125">
        <ele>58.200000762939453125</ele>
        <time>2026-04-28T11:13:48.000Z</time>
        <extensions>
          <ns3:TrackPointExtension>
            <ns3:hr>114</ns3:hr>
            <ns3:cad>0</ns3:cad>
          </ns3:TrackPointExtension>
        </extensions>
      </trkpt>
      <trkpt lat="37.02646306715905666351318359375" lon="-8.99244694970548152923583984375">
        <ele>58</ele>
        <time>2026-04-28T11:13:55.000Z</time>
        <extensions>
          <ns3:TrackPointExtension>
            <ns3:hr>111</ns3:hr>
            <ns3:cad>0</ns3:cad>
          </ns3:TrackPointExtension>
        </extensions>
      </trkpt>
      <trkpt lat="37.02646641992032527923583984375" lon="-8.99243689142167568206787109375">
        <ele>58.200000762939453125</ele>
        <time>2026-04-28T11:13:56.000Z</time>
        <extensions>
          <ns3:TrackPointExtension>
            <ns3:hr>111</ns3:hr>
            <ns3:cad>0</ns3:cad>
          </ns3:TrackPointExtension>
        </extensions>
      </trkpt>
      <trkpt lat="37.0264794118702411651611328125" lon="-8.99235994555056095123291015625">
        <ele>58.59999847412109375</ele>
        <time>2026-04-28T11:14:04.000Z</time>
        <extensions>
          <ns3:TrackPointExtension>
            <ns3:hr>111</ns3:hr>
            <ns3:cad>0</ns3:cad>
          </ns3:TrackPointExtension>
        </extensions>
      </trkpt>
      <trkpt lat="37.0264794118702411651611328125" lon="-8.9923224784433841705322265625">
        <ele>58.40000152587890625</ele>
        <time>2026-04-28T11:14:07.000Z</time>
        <extensions>
          <ns3:TrackPointExtension>
            <ns3:hr>115</ns3:hr>
            <ns3:cad>52</ns3:cad>
          </ns3:TrackPointExtension>
        </extensions>
      </trkpt>
      <trkpt lat="37.02648335136473178863525390625" lon="-8.99224855005741119384765625">
        <ele>57.799999237060546875</ele>
        <time>2026-04-28T11:14:13.000Z</time>
        <extensions>
          <ns3:TrackPointExtension>
            <ns3:hr>116</ns3:hr>
            <ns3:cad>49</ns3:cad>
          </ns3:TrackPointExtension>
        </extensions>
      </trkpt>
      <trkpt lat="37.0264966785907745361328125" lon="-8.99222566746175289154052734375">
        <ele>57.59999847412109375</ele>
        <time>2026-04-28T11:14:15.000Z</time>
        <extensions>
          <ns3:TrackPointExtension>
            <ns3:hr>116</ns3:hr>
            <ns3:cad>48</ns3:cad>
          </ns3:TrackPointExtension>
        </extensions>
      </trkpt>
      <trkpt lat="37.02652274630963802337646484375" lon="-8.99219599552452564239501953125">
        <ele>57.799999237060546875</ele>
        <time>2026-04-28T11:14:19.000Z</time>
        <extensions>
          <ns3:TrackPointExtension>
            <ns3:hr>116</ns3:hr>
            <ns3:cad>0</ns3:cad>
          </ns3:TrackPointExtension>
        </extensions>
      </trkpt>
      <trkpt lat="37.0265208184719085693359375" lon="-8.99212659336626529693603515625">
        <ele>57.799999237060546875</ele>
        <time>2026-04-28T11:14:25.000Z</time>
        <extensions>
          <ns3:TrackPointExtension>
            <ns3:hr>118</ns3:hr>
            <ns3:cad>0</ns3:cad>
          </ns3:TrackPointExtension>
        </extensions>
      </trkpt>
      <trkpt lat="37.0265015400946140289306640625" lon="-8.99204067885875701904296875">
        <ele>59</ele>
        <time>2026-04-28T11:14:32.000Z</time>
        <extensions>
          <ns3:TrackPointExtension>
            <ns3:hr>119</ns3:hr>
            <ns3:cad>61</ns3:cad>
          </ns3:TrackPointExtension>
        </extensions>
      </trkpt>
      <trkpt lat="37.02649491839110851287841796875" lon="-8.99200178682804107666015625">
        <ele>59.799999237060546875</ele>
        <time>2026-04-28T11:14:36.000Z</time>
        <extensions>
          <ns3:TrackPointExtension>
            <ns3:hr>122</ns3:hr>
            <ns3:cad>0</ns3:cad>
          </ns3:TrackPointExtension>
        </extensions>
      </trkpt>
      <trkpt lat="37.026489637792110443115234375" lon="-8.991977311670780181884765625">
        <ele>60</ele>
        <time>2026-04-28T11:14:38.000Z</time>
        <extensions>
          <ns3:TrackPointExtension>
            <ns3:hr>126</ns3:hr>
            <ns3:cad>0</ns3:cad>
          </ns3:TrackPointExtension>
        </extensions>
      </trkpt>
      <trkpt lat="37.02648662030696868896484375" lon="-8.99196499027311801910400390625">
        <ele>60.200000762939453125</ele>
        <time>2026-04-28T11:14:39.000Z</time>
        <extensions>
          <ns3:TrackPointExtension>
            <ns3:hr>127</ns3:hr>
            <ns3:cad>0</ns3:cad>
          </ns3:TrackPointExtension>
        </extensions>
      </trkpt>
      <trkpt lat="37.02648486010730266571044921875" lon="-8.99187832139432430267333984375">
        <ele>61.200000762939453125</ele>
        <time>2026-04-28T11:14:46.000Z</time>
        <extensions>
          <ns3:TrackPointExtension>
            <ns3:hr>129</ns3:hr>
            <ns3:cad>52</ns3:cad>
          </ns3:TrackPointExtension>
        </extensions>
      </trkpt>
      <trkpt lat="37.026486285030841827392578125" lon="-8.9918656647205352783203125">
        <ele>61.40000152587890625</ele>
        <time>2026-04-28T11:14:47.000Z</time>
        <extensions>
          <ns3:TrackPointExtension>
            <ns3:hr>129</ns3:hr>
            <ns3:cad>0</ns3:cad>
          </ns3:TrackPointExtension>
        </extensions>
      </trkpt>
      <trkpt lat="37.026496343314647674560546875" lon="-8.991798944771289825439453125">
        <ele>62.200000762939453125</ele>
        <time>2026-04-28T11:14:52.000Z</time>
        <extensions>
          <ns3:TrackPointExtension>
            <ns3:hr>131</ns3:hr>
            <ns3:cad>0</ns3:cad>
          </ns3:TrackPointExtension>
        </extensions>
      </trkpt>
      <trkpt lat="37.02650832943618297576904296875" lon="-8.99174789898097515106201171875">
        <ele>62.59999847412109375</ele>
        <time>2026-04-28T11:14:56.000Z</time>
        <extensions>
          <ns3:TrackPointExtension>
            <ns3:hr>133</ns3:hr>
            <ns3:cad>0</ns3:cad>
          </ns3:TrackPointExtension>
        </extensions>
      </trkpt>
      <trkpt lat="37.02651754952967166900634765625" lon="-8.99171688593924045562744140625">
        <ele>63.200000762939453125</ele>
        <time>2026-04-28T11:14:59.000Z</time>
        <extensions>
          <ns3:TrackPointExtension>
            <ns3:hr>133</ns3:hr>
            <ns3:cad>0</ns3:cad>
          </ns3:TrackPointExtension>
        </extensions>
      </trkpt>
      <trkpt lat="37.0265293680131435394287109375" lon="-8.99166139774024486541748046875">
        <ele>63.799999237060546875</ele>
        <time>2026-04-28T11:15:03.000Z</time>
        <extensions>
          <ns3:TrackPointExtension>
            <ns3:hr>134</ns3:hr>
            <ns3:cad>0</ns3:cad>
          </ns3:TrackPointExtension>
        </extensions>
      </trkpt>
      <trkpt lat="37.02656666748225688934326171875" lon="-8.9915959350764751434326171875">
        <ele>64</ele>
        <time>2026-04-28T11:15:11.000Z</time>
        <extensions>
          <ns3:TrackPointExtension>
            <ns3:hr>137</ns3:hr>
            <ns3:cad>50</ns3:cad>
          </ns3:TrackPointExtension>
        </extensions>
      </trkpt>
      <trkpt lat="37.02656918205320835113525390625" lon="-8.9915915764868259429931640625">
        <ele>64.40000152587890625</ele>
        <time>2026-04-28T11:15:14.000Z</time>
        <extensions>
          <ns3:TrackPointExtension>
            <ns3:hr>138</ns3:hr>
            <ns3:cad>0</ns3:cad>
          </ns3:TrackPointExtension>
        </extensions>
      </trkpt>
      <trkpt lat="37.026573121547698974609375" lon="-8.99160004220902919769287109375">
        <ele>64.40000152587890625</ele>
        <time>2026-04-28T11:15:20.000Z</time>
        <extensions>
          <ns3:TrackPointExtension>
            <ns3:hr>139</ns3:hr>
            <ns3:cad>0</ns3:cad>
          </ns3:TrackPointExtension>
        </extensions>
      </trkpt>
      <trkpt lat="37.02657186426222324371337890625" lon="-8.9915818534791469573974609375">
        <ele>64.1999969482421875</ele>
        <time>2026-04-28T11:15:32.000Z</time>
        <extensions>
          <ns3:TrackPointExtension>
            <ns3:hr>141</ns3:hr>
            <ns3:cad>0</ns3:cad>
          </ns3:TrackPointExtension>
        </extensions>
      </trkpt>
      <trkpt lat="37.0265920646488666534423828125" lon="-8.99148722179234027862548828125">
        <ele>63.799999237060546875</ele>
        <time>2026-04-28T11:15:41.000Z</time>
        <extensions>
          <ns3:TrackPointExtension>
            <ns3:hr>138</ns3:hr>
            <ns3:cad>43</ns3:cad>
          </ns3:TrackPointExtension>
        </extensions>
      </trkpt>
      <trkpt lat="37.02659851871430873870849609375" lon="-8.99145922623574733734130859375">
        <ele>64</ele>
        <time>2026-04-28T11:15:43.000Z</time>
        <extensions>
          <ns3:TrackPointExtension>
            <ns3:hr>135</ns3:hr>
            <ns3:cad>53</ns3:cad>
          </ns3:TrackPointExtension>
        </extensions>
      </trkpt>
      <trkpt lat="37.02663372270762920379638671875" lon="-8.991411030292510986328125">
        <ele>63.59999847412109375</ele>
        <time>2026-04-28T11:15:47.000Z</time>
        <extensions>
          <ns3:TrackPointExtension>
            <ns3:hr>132</ns3:hr>
            <ns3:cad>51</ns3:cad>
          </ns3:TrackPointExtension>
        </extensions>
      </trkpt>
      <trkpt lat="37.0266504026949405670166015625" lon="-8.99139233864843845367431640625">
        <ele>63.59999847412109375</ele>
        <time>2026-04-28T11:15:49.000Z</time>
        <extensions>
          <ns3:TrackPointExtension>
            <ns3:hr>128</ns3:hr>
            <ns3:cad>0</ns3:cad>
          </ns3:TrackPointExtension>
        </extensions>
      </trkpt>
      <trkpt lat="37.02666037715971469879150390625" lon="-8.99138378910720348358154296875">
        <ele>63.59999847412109375</ele>
        <time>2026-04-28T11:15:50.000Z</time>
        <extensions>
          <ns3:TrackPointExtension>
            <ns3:hr>125</ns3:hr>
            <ns3:cad>0</ns3:cad>
          </ns3:TrackPointExtension>
        </extensions>
      </trkpt>
      <trkpt lat="37.0266924798488616943359375" lon="-8.9913585595786571502685546875">
        <ele>63.40000152587890625</ele>
        <time>2026-04-28T11:15:53.000Z</time>
        <extensions>
          <ns3:TrackPointExtension>
            <ns3:hr>122</ns3:hr>
            <ns3:cad>57</ns3:cad>
          </ns3:TrackPointExtension>
        </extensions>
      </trkpt>
      <trkpt lat="37.02671326696872711181640625" lon="-8.9913417957723140716552734375">
        <ele>63.200000762939453125</ele>
        <time>2026-04-28T11:15:55.000Z</time>
        <extensions>
          <ns3:TrackPointExtension>
            <ns3:hr>121</ns3:hr>
            <ns3:cad>57</ns3:cad>
          </ns3:TrackPointExtension>
        </extensions>
      </trkpt>
      <trkpt lat="37.02673966996371746063232421875" lon="-8.99132779799401760101318359375">
        <ele>63.200000762939453125</ele>
        <time>2026-04-28T11:15:57.000Z</time>
        <extensions>
          <ns3:TrackPointExtension>
            <ns3:hr>122</ns3:hr>
            <ns3:cad>57</ns3:cad>
          </ns3:TrackPointExtension>
        </extensions>
      </trkpt>
      <trkpt lat="37.0267895422875881195068359375" lon="-8.99130499921739101409912109375">
        <ele>63</ele>
        <time>2026-04-28T11:16:01.000Z</time>
        <extensions>
          <ns3:TrackPointExtension>
            <ns3:hr>119</ns3:hr>
            <ns3:cad>57</ns3:cad>
          </ns3:TrackPointExtension>
        </extensions>
      </trkpt>
      <trkpt lat="37.02681695111095905303955078125" lon="-8.9912951923906803131103515625">
        <ele>63</ele>
        <time>2026-04-28T11:16:03.000Z</time>
        <extensions>
          <ns3:TrackPointExtension>
            <ns3:hr>116</ns3:hr>
            <ns3:cad>57</ns3:cad>
          </ns3:TrackPointExtension>
        </extensions>
      </trkpt>
      <trkpt lat="37.02688652090728282928466796875" lon="-8.99124716408550739288330078125">
        <ele>63</ele>
        <time>2026-04-28T11:16:09.000Z</time>
        <extensions>
          <ns3:TrackPointExtension>
            <ns3:hr>116</ns3:hr>
            <ns3:cad>59</ns3:cad>
          </ns3:TrackPointExtension>
        </extensions>
      </trkpt>
      <trkpt lat="37.0269112475216388702392578125" lon="-8.99121497757732868194580078125">
        <ele>62.799999237060546875</ele>
        <time>2026-04-28T11:16:12.000Z</time>
        <extensions>
          <ns3:TrackPointExtension>
            <ns3:hr>120</ns3:hr>
            <ns3:cad>57</ns3:cad>
          </ns3:TrackPointExtension>
        </extensions>
      </trkpt>
      <trkpt lat="37.02697000466287136077880859375" lon="-8.99117742665112018585205078125">
        <ele>63.200000762939453125</ele>
        <time>2026-04-28T11:16:17.000Z</time>
        <extensions>
          <ns3:TrackPointExtension>
            <ns3:hr>120</ns3:hr>
            <ns3:cad>56</ns3:cad>
          </ns3:TrackPointExtension>
        </extensions>
      </trkpt>
      <trkpt lat="37.02704376541078090667724609375" lon="-8.9910903386771678924560546875">
        <ele>63.200000762939453125</ele>
        <time>2026-04-28T11:16:25.000Z</time>
        <extensions>
          <ns3:TrackPointExtension>
            <ns3:hr>121</ns3:hr>
            <ns3:cad>59</ns3:cad>
          </ns3:TrackPointExtension>
        </extensions>
      </trkpt>
      <trkpt lat="37.02712087891995906829833984375" lon="-8.9910115487873554229736328125">
        <ele>63.40000152587890625</ele>
        <time>2026-04-28T11:16:33.000Z</time>
        <extensions>
          <ns3:TrackPointExtension>
            <ns3:hr>120</ns3:hr>
            <ns3:cad>56</ns3:cad>
          </ns3:TrackPointExtension>
        </extensions>
      </trkpt>
      <trkpt lat="37.02722649089992046356201171875" lon="-8.99092018604278564453125">
        <ele>63.59999847412109375</ele>
        <time>2026-04-28T11:16:43.000Z</time>
        <extensions>
          <ns3:TrackPointExtension>
            <ns3:hr>120</ns3:hr>
            <ns3:cad>57</ns3:cad>
          </ns3:TrackPointExtension>
        </extensions>
      </trkpt>
      <trkpt lat="37.02728499658405780792236328125" lon="-8.99081231094896793365478515625">
        <ele>63.200000762939453125</ele>
        <time>2026-04-28T11:16:52.000Z</time>
        <extensions>
          <ns3:TrackPointExtension>
            <ns3:hr>121</ns3:hr>
            <ns3:cad>0</ns3:cad>
          </ns3:TrackPointExtension>
        </extensions>
      </trkpt>
      <trkpt lat="37.027301676571369171142578125" lon="-8.990792445838451385498046875">
        <ele>63.200000762939453125</ele>
        <time>2026-04-28T11:16:54.000Z</time>
        <extensions>
          <ns3:TrackPointExtension>
            <ns3:hr>120</ns3:hr>
            <ns3:cad>0</ns3:cad>
          </ns3:TrackPointExtension>
        </extensions>
      </trkpt>
      <trkpt lat="37.0273477770388126373291015625" lon="-8.99075766094028949737548828125">
        <ele>62.799999237060546875</ele>
        <time>2026-04-28T11:16:58.000Z</time>
        <extensions>
          <ns3:TrackPointExtension>
            <ns3:hr>120</ns3:hr>
            <ns3:cad>56</ns3:cad>
          </ns3:TrackPointExtension>
        </extensions>
      </trkpt>
      <trkpt lat="37.027421034872531890869140625" lon="-8.9906846545636653900146484375">
        <ele>62.40000152587890625</ele>
        <time>2026-04-28T11:17:06.000Z</time>
        <extensions>
          <ns3:TrackPointExtension>
            <ns3:hr>119</ns3:hr>
            <ns3:cad>56</ns3:cad>
          </ns3:TrackPointExtension>
        </extensions>
      </trkpt>
      <trkpt lat="37.02742815949022769927978515625" lon="-8.99058633483946323394775390625">
        <ele>62.200000762939453125</ele>
        <time>2026-04-28T11:17:13.000Z</time>
        <extensions>
          <ns3:TrackPointExtension>
            <ns3:hr>118</ns3:hr>
            <ns3:cad>57</ns3:cad>
          </ns3:TrackPointExtension>
        </extensions>
      </trkpt>
      <trkpt lat="37.0274245552718639373779296875" lon="-8.99057242088019847869873046875">
        <ele>62.200000762939453125</ele>
        <time>2026-04-28T11:17:14.000Z</time>
        <extensions>
          <ns3:TrackPointExtension>
            <ns3:hr>118</ns3:hr>
            <ns3:cad>57</ns3:cad>
          </ns3:TrackPointExtension>
        </extensions>
      </trkpt>
      <trkpt lat="37.02740083448588848114013671875" lon="-8.99051140062510967254638671875">
        <ele>61.799999237060546875</ele>
        <time>2026-04-28T11:17:19.000Z</time>
        <extensions>
          <ns3:TrackPointExtension>
            <ns3:hr>117</ns3:hr>
            <ns3:cad>57</ns3:cad>
          </ns3:TrackPointExtension>
        </extensions>
      </trkpt>
      <trkpt lat="37.027339227497577667236328125" lon="-8.9904120750725269317626953125">
        <ele>61.59999847412109375</ele>
        <time>2026-04-28T11:17:27.000Z</time>
        <extensions>
          <ns3:TrackPointExtension>
            <ns3:hr>116</ns3:hr>
            <ns3:cad>54</ns3:cad>
          </ns3:TrackPointExtension>
        </extensions>
      </trkpt>
      <trkpt lat="37.027266137301921844482421875" lon="-8.9902896992862224578857421875">
        <ele>61.40000152587890625</ele>
        <time>2026-04-28T11:17:36.000Z</time>
        <extensions>
          <ns3:TrackPointExtension>
            <ns3:hr>116</ns3:hr>
            <ns3:cad>59</ns3:cad>
          </ns3:TrackPointExtension>
        </extensions>
      </trkpt>
      <trkpt lat="37.0272693224251270294189453125" lon="-8.99021669290959835052490234375">
        <ele>61.200000762939453125</ele>
        <time>2026-04-28T11:17:40.000Z</time>
        <extensions>
          <ns3:TrackPointExtension>
            <ns3:hr>117</ns3:hr>
            <ns3:cad>61</ns3:cad>
          </ns3:TrackPointExtension>
        </extensions>
      </trkpt>
      <trkpt lat="37.02728281728923320770263671875" lon="-8.99017386138439178466796875">
        <ele>61</ele>
        <time>2026-04-28T11:17:43.000Z</time>
        <extensions>
          <ns3:TrackPointExtension>
            <ns3:hr>117</ns3:hr>
            <ns3:cad>59</ns3:cad>
          </ns3:TrackPointExtension>
        </extensions>
      </trkpt>
      <trkpt lat="37.02730930410325527191162109375" lon="-8.9901109971106052398681640625">
        <ele>61.59999847412109375</ele>
        <time>2026-04-28T11:17:52.000Z</time>
        <extensions>
          <ns3:TrackPointExtension>
            <ns3:hr>117</ns3:hr>
            <ns3:cad>0</ns3:cad>
          </ns3:TrackPointExtension>
        </extensions>
      </trkpt>
      <trkpt lat="37.0273162610828876495361328125" lon="-8.9901088178157806396484375">
        <ele>61.59999847412109375</ele>
        <time>2026-04-28T11:17:53.000Z</time>
        <extensions>
          <ns3:TrackPointExtension>
            <ns3:hr>117</ns3:hr>
            <ns3:cad>0</ns3:cad>
          </ns3:TrackPointExtension>
        </extensions>
      </trkpt>
      <trkpt lat="37.02735272236168384552001953125" lon="-8.99006933905184268951416015625">
        <ele>62.200000762939453125</ele>
        <time>2026-04-28T11:17:57.000Z</time>
        <extensions>
          <ns3:TrackPointExtension>
            <ns3:hr>118</ns3:hr>
            <ns3:cad>52</ns3:cad>
          </ns3:TrackPointExtension>
        </extensions>
      </trkpt>
      <trkpt lat="37.02736043371260166168212890625" lon="-8.9900556765496730804443359375">
        <ele>62.200000762939453125</ele>
        <time>2026-04-28T11:17:58.000Z</time>
        <extensions>
          <ns3:TrackPointExtension>
            <ns3:hr>119</ns3:hr>
            <ns3:cad>52</ns3:cad>
          </ns3:TrackPointExtension>
        </extensions>
      </trkpt>
      <trkpt lat="37.02740301378071308135986328125" lon="-8.98995970375835895538330078125">
        <ele>62.59999847412109375</ele>
        <time>2026-04-28T11:18:06.000Z</time>
        <extensions>
          <ns3:TrackPointExtension>
            <ns3:hr>121</ns3:hr>
            <ns3:cad>0</ns3:cad>
          </ns3:TrackPointExtension>
        </extensions>
      </trkpt>
      <trkpt lat="37.02740217559039592742919921875" lon="-8.9899666607379913330078125">
        <ele>62.799999237060546875</ele>
        <time>2026-04-28T11:18:16.000Z</time>
        <extensions>
          <ns3:TrackPointExtension>
            <ns3:hr>123</ns3:hr>
            <ns3:cad>0</ns3:cad>
          </ns3:TrackPointExtension>
        </extensions>
      </trkpt>
      <trkpt lat="37.0274429954588413238525390625" lon="-8.98989600129425525665283203125">
        <ele>62.59999847412109375</ele>
        <time>2026-04-28T11:18:21.000Z</time>
        <extensions>
          <ns3:TrackPointExtension>
            <ns3:hr>123</ns3:hr>
            <ns3:cad>0</ns3:cad>
          </ns3:TrackPointExtension>
        </extensions>
      </trkpt>
      <trkpt lat="37.02751348726451396942138671875" lon="-8.989785611629486083984375">
        <ele>62.40000152587890625</ele>
        <time>2026-04-28T11:18:30.000Z</time>
        <extensions>
          <ns3:TrackPointExtension>
            <ns3:hr>120</ns3:hr>
            <ns3:cad>57</ns3:cad>
          </ns3:TrackPointExtension>
        </extensions>
      </trkpt>
      <trkpt lat="37.027520947158336639404296875" lon="-8.98977094329893589019775390625">
        <ele>62.40000152587890625</ele>
        <time>2026-04-28T11:18:31.000Z</time>
        <extensions>
          <ns3:TrackPointExtension>
            <ns3:hr>119</ns3:hr>
            <ns3:cad>57</ns3:cad>
          </ns3:TrackPointExtension>
        </extensions>
      </trkpt>
      <trkpt lat="37.02756210230290889739990234375" lon="-8.98969240486621856689453125">
        <ele>62.200000762939453125</ele>
        <time>2026-04-28T11:18:37.000Z</time>
        <extensions>
          <ns3:TrackPointExtension>
            <ns3:hr>116</ns3:hr>
            <ns3:cad>60</ns3:cad>
          </ns3:TrackPointExtension>
        </extensions>
      </trkpt>
      <trkpt lat="37.02757366932928562164306640625" lon="-8.98965979926288127899169921875">
        <ele>62.200000762939453125</ele>
        <time>2026-04-28T11:18:39.000Z</time>
        <extensions>
          <ns3:TrackPointExtension>
            <ns3:hr>116</ns3:hr>
            <ns3:cad>62</ns3:cad>
          </ns3:TrackPointExtension>
        </extensions>
      </trkpt>
      <trkpt lat="37.02765874564647674560546875" lon="-8.9895192347466945648193359375">
        <ele>61.40000152587890625</ele>
        <time>2026-04-28T11:18:50.000Z</time>
        <extensions>
          <ns3:TrackPointExtension>
            <ns3:hr>116</ns3:hr>
            <ns3:cad>60</ns3:cad>
          </ns3:TrackPointExtension>
        </extensions>
      </trkpt>
      <trkpt lat="37.027697972953319549560546875" lon="-8.98945393972098827362060546875">
        <ele>62.200000762939453125</ele>
        <time>2026-04-28T11:18:55.000Z</time>
        <extensions>
          <ns3:TrackPointExtension>
            <ns3:hr>119</ns3:hr>
            <ns3:cad>0</ns3:cad>
          </ns3:TrackPointExtension>
        </extensions>
      </trkpt>
      <trkpt lat="37.02775857411324977874755859375" lon="-8.989364169538021087646484375">
        <ele>62.200000762939453125</ele>
        <time>2026-04-28T11:19:02.000Z</time>
        <extensions>
          <ns3:TrackPointExtension>
            <ns3:hr>119</ns3:hr>
            <ns3:cad>57</ns3:cad>
          </ns3:TrackPointExtension>
        </extensions>
      </trkpt>
      <trkpt lat="37.0278485119342803955078125" lon="-8.98922997526824474334716796875">
        <ele>62</ele>
        <time>2026-04-28T11:19:12.000Z</time>
        <extensions>
          <ns3:TrackPointExtension>
            <ns3:hr>119</ns3:hr>
            <ns3:cad>61</ns3:cad>
          </ns3:TrackPointExtension>
        </extensions>
      </trkpt>
      <trkpt lat="37.027923278510570526123046875" lon="-8.98905538022518157958984375">
        <ele>62.40000152587890625</ele>
        <time>2026-04-28T11:19:24.000Z</time>
        <extensions>
          <ns3:TrackPointExtension>
            <ns3:hr>120</ns3:hr>
            <ns3:cad>60</ns3:cad>
          </ns3:TrackPointExtension>
        </extensions>
      </trkpt>
      <trkpt lat="37.0279423892498016357421875" lon="-8.989010117948055267333984375">
        <ele>62.59999847412109375</ele>
        <time>2026-04-28T11:19:27.000Z</time>
        <extensions>
          <ns3:TrackPointExtension>
            <ns3:hr>115</ns3:hr>
            <ns3:cad>60</ns3:cad>
          </ns3:TrackPointExtension>
        </extensions>
      </trkpt>
      <trkpt lat="37.02794800512492656707763671875" lon="-8.9889951981604099273681640625">
        <ele>62.59999847412109375</ele>
        <time>2026-04-28T11:19:28.000Z</time>
        <extensions>
          <ns3:TrackPointExtension>
            <ns3:hr>111</ns3:hr>
            <ns3:cad>60</ns3:cad>
          </ns3:TrackPointExtension>
        </extensions>
      </trkpt>
      <trkpt lat="37.0279546268284320831298828125" lon="-8.98898027837276458740234375">
        <ele>62.59999847412109375</ele>
        <time>2026-04-28T11:19:29.000Z</time>
        <extensions>
          <ns3:TrackPointExtension>
            <ns3:hr>108</ns3:hr>
            <ns3:cad>61</ns3:cad>
          </ns3:TrackPointExtension>
        </extensions>
      </trkpt>
      <trkpt lat="37.027981616556644439697265625" lon="-8.98892671801149845123291015625">
        <ele>62.799999237060546875</ele>
        <time>2026-04-28T11:19:33.000Z</time>
        <extensions>
          <ns3:TrackPointExtension>
            <ns3:hr>108</ns3:hr>
            <ns3:cad>61</ns3:cad>
          </ns3:TrackPointExtension>
        </extensions>
      </trkpt>
      <trkpt lat="37.02803433872759342193603515625" lon="-8.98882596753537654876708984375">
        <ele>63.40000152587890625</ele>
        <time>2026-04-28T11:19:40.000Z</time>
        <extensions>
          <ns3:TrackPointExtension>
            <ns3:hr>111</ns3:hr>
            <ns3:cad>61</ns3:cad>
          </ns3:TrackPointExtension>
        </extensions>
      </trkpt>
      <trkpt lat="37.02805437147617340087890625" lon="-8.98878355510532855987548828125">
        <ele>63.40000152587890625</ele>
        <time>2026-04-28T11:19:43.000Z</time>
        <extensions>
          <ns3:TrackPointExtension>
            <ns3:hr>113</ns3:hr>
            <ns3:cad>64</ns3:cad>
          </ns3:TrackPointExtension>
        </extensions>
      </trkpt>
      <trkpt lat="37.0280890725553035736083984375" lon="-8.98873007856309413909912109375">
        <ele>63.59999847412109375</ele>
        <time>2026-04-28T11:19:47.000Z</time>
        <extensions>
          <ns3:TrackPointExtension>
            <ns3:hr>116</ns3:hr>
            <ns3:cad>63</ns3:cad>
          </ns3:TrackPointExtension>
        </extensions>
      </trkpt>
      <trkpt lat="37.02813710086047649383544921875" lon="-8.98863385431468486785888671875">
        <ele>63.799999237060546875</ele>
        <time>2026-04-28T11:19:54.000Z</time>
        <extensions>
          <ns3:TrackPointExtension>
            <ns3:hr>118</ns3:hr>
            <ns3:cad>61</ns3:cad>
          </ns3:TrackPointExtension>
        </extensions>
      </trkpt>
      <trkpt lat="37.02821589075028896331787109375" lon="-8.988461606204509735107421875">
        <ele>64.1999969482421875</ele>
        <time>2026-04-28T11:20:06.000Z</time>
        <extensions>
          <ns3:TrackPointExtension>
            <ns3:hr>117</ns3:hr>
            <ns3:cad>62</ns3:cad>
          </ns3:TrackPointExtension>
        </extensions>
      </trkpt>
      <trkpt lat="37.02823139727115631103515625" lon="-8.98843000642955303192138671875">
        <ele>64.40000152587890625</ele>
        <time>2026-04-28T11:20:08.000Z</time>
        <extensions>
          <ns3:TrackPointExtension>
            <ns3:hr>116</ns3:hr>
            <ns3:cad>62</ns3:cad>
          </ns3:TrackPointExtension>
        </extensions>
      </trkpt>
      <trkpt lat="37.028275318443775177001953125" lon="-8.988310061395168304443359375">
        <ele>64.40000152587890625</ele>
        <time>2026-04-28T11:20:16.000Z</time>
        <extensions>
          <ns3:TrackPointExtension>
            <ns3:hr>116</ns3:hr>
            <ns3:cad>63</ns3:cad>
          </ns3:TrackPointExtension>
        </extensions>
      </trkpt>
      <trkpt lat="37.02838185243308544158935546875" lon="-8.98822884075343608856201171875">
        <ele>64.59999847412109375</ele>
        <time>2026-04-28T11:20:25.000Z</time>
        <extensions>
          <ns3:TrackPointExtension>
            <ns3:hr>119</ns3:hr>
            <ns3:cad>60</ns3:cad>
          </ns3:TrackPointExtension>
        </extensions>
      </trkpt>
      <trkpt lat="37.02844890765845775604248046875" lon="-8.98814971558749675750732421875">
        <ele>64</ele>
        <time>2026-04-28T11:20:32.000Z</time>
        <extensions>
          <ns3:TrackPointExtension>
            <ns3:hr>121</ns3:hr>
            <ns3:cad>0</ns3:cad>
          </ns3:TrackPointExtension>
        </extensions>
      </trkpt>
      <trkpt lat="37.02850632369518280029296875" lon="-8.9880503900349140167236328125">
        <ele>63.200000762939453125</ele>
        <time>2026-04-28T11:20:40.000Z</time>
        <extensions>
          <ns3:TrackPointExtension>
            <ns3:hr>120</ns3:hr>
            <ns3:cad>0</ns3:cad>
          </ns3:TrackPointExtension>
        </extensions>
      </trkpt>
      <trkpt lat="37.02851747162640094757080078125" lon="-8.98802616633474826812744140625">
        <ele>63</ele>
        <time>2026-04-28T11:20:42.000Z</time>
        <extensions>
          <ns3:TrackPointExtension>
            <ns3:hr>121</ns3:hr>
            <ns3:cad>0</ns3:cad>
          </ns3:TrackPointExtension>
        </extensions>
      </trkpt>
      <trkpt lat="37.02856709249317646026611328125" lon="-8.98793480359017848968505859375">
        <ele>62.799999237060546875</ele>
        <time>2026-04-28T11:20:50.000Z</time>
        <extensions>
          <ns3:TrackPointExtension>
            <ns3:hr>119</ns3:hr>
            <ns3:cad>55</ns3:cad>
          </ns3:TrackPointExtension>
        </extensions>
      </trkpt>
      <trkpt lat="37.0286027155816555023193359375" lon="-8.9878435246646404266357421875">
        <ele>62.200000762939453125</ele>
        <time>2026-04-28T11:20:57.000Z</time>
        <extensions>
          <ns3:TrackPointExtension>
            <ns3:hr>116</ns3:hr>
            <ns3:cad>56</ns3:cad>
          </ns3:TrackPointExtension>
        </extensions>
      </trkpt>
      <trkpt lat="37.028617970645427703857421875" lon="-8.98779985494911670684814453125">
        <ele>61.799999237060546875</ele>
        <time>2026-04-28T11:21:00.000Z</time>
        <extensions>
          <ns3:TrackPointExtension>
            <ns3:hr>116</ns3:hr>
            <ns3:cad>56</ns3:cad>
          </ns3:TrackPointExtension>
        </extensions>
      </trkpt>
      <trkpt lat="37.0286395959556102752685546875" lon="-8.98774201981723308563232421875">
        <ele>61.200000762939453125</ele>
        <time>2026-04-28T11:21:04.000Z</time>
        <extensions>
          <ns3:TrackPointExtension>
            <ns3:hr>115</ns3:hr>
            <ns3:cad>59</ns3:cad>
          </ns3:TrackPointExtension>
        </extensions>
      </trkpt>
      <trkpt lat="37.02868460677564144134521484375" lon="-8.98763992823660373687744140625">
        <ele>61.59999847412109375</ele>
        <time>2026-04-28T11:21:11.000Z</time>
        <extensions>
          <ns3:TrackPointExtension>
            <ns3:hr>113</ns3:hr>
            <ns3:cad>0</ns3:cad>
          </ns3:TrackPointExtension>
        </extensions>
      </trkpt>
      <trkpt lat="37.02874143607914447784423828125" lon="-8.98752140812575817108154296875">
        <ele>61.59999847412109375</ele>
        <time>2026-04-28T11:21:20.000Z</time>
        <extensions>
          <ns3:TrackPointExtension>
            <ns3:hr>113</ns3:hr>
            <ns3:cad>56</ns3:cad>
          </ns3:TrackPointExtension>
        </extensions>
      </trkpt>
      <trkpt lat="37.0287881232798099517822265625" lon="-8.98746944032609462738037109375">
        <ele>62</ele>
        <time>2026-04-28T11:21:26.000Z</time>
        <extensions>
          <ns3:TrackPointExtension>
            <ns3:hr>112</ns3:hr>
            <ns3:cad>51</ns3:cad>
          </ns3:TrackPointExtension>
        </extensions>
      </trkpt>
      <trkpt lat="37.0287998579442501068115234375" lon="-8.98746608756482601165771484375">
        <ele>61.59999847412109375</ele>
        <time>2026-04-28T11:21:28.000Z</time>
        <extensions>
          <ns3:TrackPointExtension>
            <ns3:hr>112</ns3:hr>
            <ns3:cad>0</ns3:cad>
          </ns3:TrackPointExtension>
        </extensions>
      </trkpt>
      <trkpt lat="37.0288105867803096771240234375" lon="-8.9874623157083988189697265625">
        <ele>62.40000152587890625</ele>
        <time>2026-04-28T11:21:32.000Z</time>
        <extensions>
          <ns3:TrackPointExtension>
            <ns3:hr>111</ns3:hr>
            <ns3:cad>0</ns3:cad>
          </ns3:TrackPointExtension>
        </extensions>
      </trkpt>
      <trkpt lat="37.02880212105810642242431640625" lon="-8.98746541701257228851318359375">
        <ele>63.200000762939453125</ele>
        <time>2026-04-28T11:21:35.000Z</time>
        <extensions>
          <ns3:TrackPointExtension>
            <ns3:hr>111</ns3:hr>
            <ns3:cad>0</ns3:cad>
          </ns3:TrackPointExtension>
        </extensions>
      </trkpt>
      <trkpt lat="37.028796672821044921875" lon="-8.98746793158352375030517578125">
        <ele>62.799999237060546875</ele>
        <time>2026-04-28T11:21:38.000Z</time>
        <extensions>
          <ns3:TrackPointExtension>
            <ns3:hr>114</ns3:hr>
            <ns3:cad>0</ns3:cad>
          </ns3:TrackPointExtension>
        </extensions>
      </trkpt>
      <trkpt lat="37.0287975110113620758056640625" lon="-8.98747430182993412017822265625">
        <ele>61.799999237060546875</ele>
        <time>2026-04-28T11:21:41.000Z</time>
        <extensions>
          <ns3:TrackPointExtension>
            <ns3:hr>117</ns3:hr>
            <ns3:cad>0</ns3:cad>
          </ns3:TrackPointExtension>
        </extensions>
      </trkpt>
      <trkpt lat="37.0287998579442501068115234375" lon="-8.98747824132442474365234375">
        <ele>62.799999237060546875</ele>
        <time>2026-04-28T11:21:46.000Z</time>
        <extensions>
          <ns3:TrackPointExtension>
            <ns3:hr>120</ns3:hr>
            <ns3:cad>0</ns3:cad>
          </ns3:TrackPointExtension>
        </extensions>
      </trkpt>
      <trkpt lat="37.028801031410694122314453125" lon="-8.987477906048297882080078125">
        <ele>63</ele>
        <time>2026-04-28T11:21:47.000Z</time>
        <extensions>
          <ns3:TrackPointExtension>
            <ns3:hr>120</ns3:hr>
            <ns3:cad>0</ns3:cad>
          </ns3:TrackPointExtension>
        </extensions>
      </trkpt>
      <trkpt lat="37.02879960648715496063232421875" lon="-8.98747681640088558197021484375">
        <ele>62.59999847412109375</ele>
        <time>2026-04-28T11:21:52.000Z</time>
        <extensions>
          <ns3:TrackPointExtension>
            <ns3:hr>114</ns3:hr>
            <ns3:cad>0</ns3:cad>
          </ns3:TrackPointExtension>
        </extensions>
      </trkpt>
      <trkpt lat="37.02879960648715496063232421875" lon="-8.98747681640088558197021484375">
        <ele>62.40000152587890625</ele>
        <time>2026-04-28T11:21:54.000Z</time>
        <extensions>
          <ns3:TrackPointExtension>
            <ns3:hr>110</ns3:hr>
            <ns3:cad>0</ns3:cad>
          </ns3:TrackPointExtension>
        </extensions>
      </trkpt>
      <trkpt lat="37.02879960648715496063232421875" lon="-8.98747681640088558197021484375">
        <ele>62.200000762939453125</ele>
        <time>2026-04-28T11:22:00.000Z</time>
        <extensions>
          <ns3:TrackPointExtension>
            <ns3:hr>107</ns3:hr>
            <ns3:cad>0</ns3:cad>
          </ns3:TrackPointExtension>
        </extensions>
      </trkpt>
      <trkpt lat="37.02879575081169605255126953125" lon="-8.98746885359287261962890625">
        <ele>61.59999847412109375</ele>
        <time>2026-04-28T11:22:09.000Z</time>
        <extensions>
          <ns3:TrackPointExtension>
            <ns3:hr>106</ns3:hr>
            <ns3:cad>0</ns3:cad>
          </ns3:TrackPointExtension>
        </extensions>
      </trkpt>
      <trkpt lat="37.02880094759166240692138671875" lon="-8.987411521375179290771484375">
        <ele>62.40000152587890625</ele>
        <time>2026-04-28T11:22:14.000Z</time>
        <extensions>
          <ns3:TrackPointExtension>
            <ns3:hr>106</ns3:hr>
            <ns3:cad>0</ns3:cad>
          </ns3:TrackPointExtension>
        </extensions>
      </trkpt>
      <trkpt lat="37.02878552488982677459716796875" lon="-8.987333737313747406005859375">
        <ele>62.799999237060546875</ele>
        <time>2026-04-28T11:22:20.000Z</time>
        <extensions>
          <ns3:TrackPointExtension>
            <ns3:hr>107</ns3:hr>
            <ns3:cad>0</ns3:cad>
          </ns3:TrackPointExtension>
        </extensions>
      </trkpt>
      <trkpt lat="37.02877462841570377349853515625" lon="-8.987318985164165496826171875">
        <ele>63</ele>
        <time>2026-04-28T11:22:22.000Z</time>
        <extensions>
          <ns3:TrackPointExtension>
            <ns3:hr>105</ns3:hr>
            <ns3:cad>53</ns3:cad>
          </ns3:TrackPointExtension>
        </extensions>
      </trkpt>
      <trkpt lat="37.0287740416824817657470703125" lon="-8.987291157245635986328125">
        <ele>63.200000762939453125</ele>
        <time>2026-04-28T11:22:24.000Z</time>
        <extensions>
          <ns3:TrackPointExtension>
            <ns3:hr>104</ns3:hr>
            <ns3:cad>53</ns3:cad>
          </ns3:TrackPointExtension>
        </extensions>
      </trkpt>
      <trkpt lat="37.02878317795693874359130859375" lon="-8.98724497295916080474853515625">
        <ele>62.799999237060546875</ele>
        <time>2026-04-28T11:22:27.000Z</time>
        <extensions>
          <ns3:TrackPointExtension>
            <ns3:hr>103</ns3:hr>
            <ns3:cad>50</ns3:cad>
          </ns3:TrackPointExtension>
        </extensions>
      </trkpt>
      <trkpt lat="37.0287941582500934600830078125" lon="-8.98717707954347133636474609375">
        <ele>63</ele>
        <time>2026-04-28T11:22:32.000Z</time>
        <extensions>
          <ns3:TrackPointExtension>
            <ns3:hr>106</ns3:hr>
            <ns3:cad>0</ns3:cad>
          </ns3:TrackPointExtension>
        </extensions>
      </trkpt>
      <trkpt lat="37.02879608608782291412353515625" lon="-8.98716769181191921234130859375">
        <ele>63.200000762939453125</ele>
        <time>2026-04-28T11:22:33.000Z</time>
        <extensions>
          <ns3:TrackPointExtension>
            <ns3:hr>106</ns3:hr>
            <ns3:cad>0</ns3:cad>
          </ns3:TrackPointExtension>
        </extensions>
      </trkpt>
      <trkpt lat="37.02880497090518474578857421875" lon="-8.98714858107268810272216796875">
        <ele>63.59999847412109375</ele>
        <time>2026-04-28T11:22:35.000Z</time>
        <extensions>
          <ns3:TrackPointExtension>
            <ns3:hr>108</ns3:hr>
            <ns3:cad>0</ns3:cad>
          </ns3:TrackPointExtension>
        </extensions>
      </trkpt>
      <trkpt lat="37.0288099162280559539794921875" lon="-8.98711756803095340728759765625">
        <ele>63.40000152587890625</ele>
        <time>2026-04-28T11:22:38.000Z</time>
        <extensions>
          <ns3:TrackPointExtension>
            <ns3:hr>109</ns3:hr>
            <ns3:cad>57</ns3:cad>
          </ns3:TrackPointExtension>
        </extensions>
      </trkpt>
      <trkpt lat="37.0288166217505931854248046875" lon="-8.98707783780992031097412109375">
        <ele>63</ele>
        <time>2026-04-28T11:22:42.000Z</time>
        <extensions>
          <ns3:TrackPointExtension>
            <ns3:hr>110</ns3:hr>
            <ns3:cad>53</ns3:cad>
          </ns3:TrackPointExtension>
        </extensions>
      </trkpt>
      <trkpt lat="37.02883330173790454864501953125" lon="-8.987046740949153900146484375">
        <ele>62.799999237060546875</ele>
        <time>2026-04-28T11:22:46.000Z</time>
        <extensions>
          <ns3:TrackPointExtension>
            <ns3:hr>111</ns3:hr>
            <ns3:cad>0</ns3:cad>
          </ns3:TrackPointExtension>
        </extensions>
      </trkpt>
      <trkpt lat="37.02884034253656864166259765625" lon="-8.9870385266840457916259765625">
        <ele>62.59999847412109375</ele>
        <time>2026-04-28T11:22:47.000Z</time>
        <extensions>
          <ns3:TrackPointExtension>
            <ns3:hr>112</ns3:hr>
            <ns3:cad>0</ns3:cad>
          </ns3:TrackPointExtension>
        </extensions>
      </trkpt>
      <trkpt lat="37.0288538374006748199462890625" lon="-8.98702637292444705963134765625">
        <ele>62.40000152587890625</ele>
        <time>2026-04-28T11:22:49.000Z</time>
        <extensions>
          <ns3:TrackPointExtension>
            <ns3:hr>112</ns3:hr>
            <ns3:cad>49</ns3:cad>
          </ns3:TrackPointExtension>
        </extensions>
      </trkpt>
      <trkpt lat="37.02887772582471370697021484375" lon="-8.98697926662862300872802734375">
        <ele>62</ele>
        <time>2026-04-28T11:22:53.000Z</time>
        <extensions>
          <ns3:TrackPointExtension>
            <ns3:hr>112</ns3:hr>
            <ns3:cad>51</ns3:cad>
          </ns3:TrackPointExtension>
        </extensions>
      </trkpt>
      <trkpt lat="37.02889985404908657073974609375" lon="-8.986953198909759521484375">
        <ele>61.799999237060546875</ele>
        <time>2026-04-28T11:22:57.000Z</time>
        <extensions>
          <ns3:TrackPointExtension>
            <ns3:hr>112</ns3:hr>
            <ns3:cad>0</ns3:cad>
          </ns3:TrackPointExtension>
        </extensions>
      </trkpt>
      <trkpt lat="37.0289161987602710723876953125" lon="-8.98693718947470188140869140625">
        <ele>61.59999847412109375</ele>
        <time>2026-04-28T11:22:59.000Z</time>
        <extensions>
          <ns3:TrackPointExtension>
            <ns3:hr>112</ns3:hr>
            <ns3:cad>0</ns3:cad>
          </ns3:TrackPointExtension>
        </extensions>
      </trkpt>
      <trkpt lat="37.028970010578632354736328125" lon="-8.98692042566835880279541015625">
        <ele>61.40000152587890625</ele>
        <time>2026-04-28T11:23:05.000Z</time>
        <extensions>
          <ns3:TrackPointExtension>
            <ns3:hr>113</ns3:hr>
            <ns3:cad>48</ns3:cad>
          </ns3:TrackPointExtension>
        </extensions>
      </trkpt>
      <trkpt lat="37.0289762131869792938232421875" lon="-8.98691363632678985595703125">
        <ele>61.40000152587890625</ele>
        <time>2026-04-28T11:23:06.000Z</time>
        <extensions>
          <ns3:TrackPointExtension>
            <ns3:hr>113</ns3:hr>
            <ns3:cad>57</ns3:cad>
          </ns3:TrackPointExtension>
        </extensions>
      </trkpt>
      <trkpt lat="37.029035389423370361328125" lon="-8.9868930168449878692626953125">
        <ele>61</ele>
        <time>2026-04-28T11:23:12.000Z</time>
        <extensions>
          <ns3:TrackPointExtension>
            <ns3:hr>112</ns3:hr>
            <ns3:cad>44</ns3:cad>
          </ns3:TrackPointExtension>
        </extensions>
      </trkpt>
      <trkpt lat="37.02907989732921123504638671875" lon="-8.98683493025600910186767578125">
        <ele>61.59999847412109375</ele>
        <time>2026-04-28T11:23:18.000Z</time>
        <extensions>
          <ns3:TrackPointExtension>
            <ns3:hr>114</ns3:hr>
            <ns3:cad>48</ns3:cad>
          </ns3:TrackPointExtension>
        </extensions>
      </trkpt>
      <trkpt lat="37.029150389134883880615234375" lon="-8.986839540302753448486328125">
        <ele>61.40000152587890625</ele>
        <time>2026-04-28T11:23:24.000Z</time>
        <extensions>
          <ns3:TrackPointExtension>
            <ns3:hr>113</ns3:hr>
            <ns3:cad>55</ns3:cad>
          </ns3:TrackPointExtension>
        </extensions>
      </trkpt>
      <trkpt lat="37.02922523953020572662353515625" lon="-8.9868524484336376190185546875">
        <ele>61.40000152587890625</ele>
        <time>2026-04-28T11:23:32.000Z</time>
        <extensions>
          <ns3:TrackPointExtension>
            <ns3:hr>113</ns3:hr>
            <ns3:cad>52</ns3:cad>
          </ns3:TrackPointExtension>
        </extensions>
      </trkpt>
      <trkpt lat="37.02927703969180583953857421875" lon="-8.9868534542620182037353515625">
        <ele>61.200000762939453125</ele>
        <time>2026-04-28T11:23:39.000Z</time>
        <extensions>
          <ns3:TrackPointExtension>
            <ns3:hr>114</ns3:hr>
            <ns3:cad>0</ns3:cad>
          </ns3:TrackPointExtension>
        </extensions>
      </trkpt>
      <trkpt lat="37.02928483486175537109375" lon="-8.986848257482051849365234375">
        <ele>61.799999237060546875</ele>
        <time>2026-04-28T11:23:46.000Z</time>
        <extensions>
          <ns3:TrackPointExtension>
            <ns3:hr>114</ns3:hr>
            <ns3:cad>0</ns3:cad>
          </ns3:TrackPointExtension>
        </extensions>
      </trkpt>
      <trkpt lat="37.0292850024998188018798828125" lon="-8.98684783838689327239990234375">
        <ele>61.40000152587890625</ele>
        <time>2026-04-28T11:23:51.000Z</time>
        <extensions>
          <ns3:TrackPointExtension>
            <ns3:hr>117</ns3:hr>
            <ns3:cad>0</ns3:cad>
          </ns3:TrackPointExtension>
        </extensions>
      </trkpt>
      <trkpt lat="37.02929950319230556488037109375" lon="-8.98683006875216960906982421875">
        <ele>61.200000762939453125</ele>
        <time>2026-04-28T11:23:53.000Z</time>
        <extensions>
          <ns3:TrackPointExtension>
            <ns3:hr>117</ns3:hr>
            <ns3:cad>0</ns3:cad>
          </ns3:TrackPointExtension>
        </extensions>
      </trkpt>
      <trkpt lat="37.02936186455190181732177734375" lon="-8.986797295510768890380859375">
        <ele>61.200000762939453125</ele>
        <time>2026-04-28T11:24:00.000Z</time>
        <extensions>
          <ns3:TrackPointExtension>
            <ns3:hr>114</ns3:hr>
            <ns3:cad>0</ns3:cad>
          </ns3:TrackPointExtension>
        </extensions>
      </trkpt>
      <trkpt lat="37.029375024139881134033203125" lon="-8.986793942749500274658203125">
        <ele>61.40000152587890625</ele>
        <time>2026-04-28T11:24:01.000Z</time>
        <extensions>
          <ns3:TrackPointExtension>
            <ns3:hr>114</ns3:hr>
            <ns3:cad>0</ns3:cad>
          </ns3:TrackPointExtension>
        </extensions>
      </trkpt>
      <trkpt lat="37.029418610036373138427734375" lon="-8.98678413592278957366943359375">
        <ele>61.59999847412109375</ele>
        <time>2026-04-28T11:24:05.000Z</time>
        <extensions>
          <ns3:TrackPointExtension>
            <ns3:hr>110</ns3:hr>
            <ns3:cad>0</ns3:cad>
          </ns3:TrackPointExtension>
        </extensions>
      </trkpt>
      <trkpt lat="37.02943093143403530120849609375" lon="-8.9867870695888996124267578125">
        <ele>61.59999847412109375</ele>
        <time>2026-04-28T11:24:06.000Z</time>
        <extensions>
          <ns3:TrackPointExtension>
            <ns3:hr>108</ns3:hr>
            <ns3:cad>0</ns3:cad>
          </ns3:TrackPointExtension>
        </extensions>
      </trkpt>
      <trkpt lat="37.0294563286006450653076171875" lon="-8.98678933270275592803955078125">
        <ele>61.799999237060546875</ele>
        <time>2026-04-28T11:24:08.000Z</time>
        <extensions>
          <ns3:TrackPointExtension>
            <ns3:hr>104</ns3:hr>
            <ns3:cad>0</ns3:cad>
          </ns3:TrackPointExtension>
        </extensions>
      </trkpt>
      <trkpt lat="37.0295034348964691162109375" lon="-8.98678648285567760467529296875">
        <ele>62</ele>
        <time>2026-04-28T11:24:13.000Z</time>
        <extensions>
          <ns3:TrackPointExtension>
            <ns3:hr>105</ns3:hr>
            <ns3:cad>0</ns3:cad>
          </ns3:TrackPointExtension>
        </extensions>
      </trkpt>
      <trkpt lat="37.02953738160431385040283203125" lon="-8.98678514175117015838623046875">
        <ele>62.200000762939453125</ele>
        <time>2026-04-28T11:24:17.000Z</time>
        <extensions>
          <ns3:TrackPointExtension>
            <ns3:hr>108</ns3:hr>
            <ns3:cad>0</ns3:cad>
          </ns3:TrackPointExtension>
        </extensions>
      </trkpt>
      <trkpt lat="37.02955364249646663665771484375" lon="-8.98677776567637920379638671875">
        <ele>62.40000152587890625</ele>
        <time>2026-04-28T11:24:19.000Z</time>
        <extensions>
          <ns3:TrackPointExtension>
            <ns3:hr>109</ns3:hr>
            <ns3:cad>0</ns3:cad>
          </ns3:TrackPointExtension>
        </extensions>
      </trkpt>
      <trkpt lat="37.02956152148544788360595703125" lon="-8.9867706410586833953857421875">
        <ele>62.59999847412109375</ele>
        <time>2026-04-28T11:24:20.000Z</time>
        <extensions>
          <ns3:TrackPointExtension>
            <ns3:hr>109</ns3:hr>
            <ns3:cad>0</ns3:cad>
          </ns3:TrackPointExtension>
        </extensions>
      </trkpt>
      <trkpt lat="37.02959798276424407958984375" lon="-8.98674138821661472320556640625">
        <ele>63.59999847412109375</ele>
        <time>2026-04-28T11:24:24.000Z</time>
        <extensions>
          <ns3:TrackPointExtension>
            <ns3:hr>110</ns3:hr>
            <ns3:cad>48</ns3:cad>
          </ns3:TrackPointExtension>
        </extensions>
      </trkpt>
      <trkpt lat="37.02962103299796581268310546875" lon="-8.9867290668189525604248046875">
        <ele>63.799999237060546875</ele>
        <time>2026-04-28T11:24:27.000Z</time>
        <extensions>
          <ns3:TrackPointExtension>
            <ns3:hr>112</ns3:hr>
            <ns3:cad>0</ns3:cad>
          </ns3:TrackPointExtension>
        </extensions>
      </trkpt>
      <trkpt lat="37.02966998331248760223388671875" lon="-8.9867123030126094818115234375">
        <ele>63</ele>
        <time>2026-04-28T11:24:32.000Z</time>
        <extensions>
          <ns3:TrackPointExtension>
            <ns3:hr>115</ns3:hr>
            <ns3:cad>0</ns3:cad>
          </ns3:TrackPointExtension>
        </extensions>
      </trkpt>
      <trkpt lat="37.02967635355889797210693359375" lon="-8.98670769296586513519287109375">
        <ele>62.799999237060546875</ele>
        <time>2026-04-28T11:24:33.000Z</time>
        <extensions>
          <ns3:TrackPointExtension>
            <ns3:hr>115</ns3:hr>
            <ns3:cad>0</ns3:cad>
          </ns3:TrackPointExtension>
        </extensions>
      </trkpt>
      <trkpt lat="37.02972672879695892333984375" lon="-8.98669310845434665679931640625">
        <ele>63.200000762939453125</ele>
        <time>2026-04-28T11:24:38.000Z</time>
        <extensions>
          <ns3:TrackPointExtension>
            <ns3:hr>116</ns3:hr>
            <ns3:cad>0</ns3:cad>
          </ns3:TrackPointExtension>
        </extensions>
      </trkpt>
      <trkpt lat="37.02977643348276615142822265625" lon="-8.9866854809224605560302734375">
        <ele>62.40000152587890625</ele>
        <time>2026-04-28T11:24:43.000Z</time>
        <extensions>
          <ns3:TrackPointExtension>
            <ns3:hr>116</ns3:hr>
            <ns3:cad>52</ns3:cad>
          </ns3:TrackPointExtension>
        </extensions>
      </trkpt>
      <trkpt lat="37.02979755587875843048095703125" lon="-8.9866817928850650787353515625">
        <ele>62.40000152587890625</ele>
        <time>2026-04-28T11:24:45.000Z</time>
        <extensions>
          <ns3:TrackPointExtension>
            <ns3:hr>117</ns3:hr>
            <ns3:cad>0</ns3:cad>
          </ns3:TrackPointExtension>
        </extensions>
      </trkpt>
      <trkpt lat="37.02983225695788860321044921875" lon="-8.98666846565902233123779296875">
        <ele>62.799999237060546875</ele>
        <time>2026-04-28T11:24:51.000Z</time>
        <extensions>
          <ns3:TrackPointExtension>
            <ns3:hr>115</ns3:hr>
            <ns3:cad>0</ns3:cad>
          </ns3:TrackPointExtension>
        </extensions>
      </trkpt>
      <trkpt lat="37.0298827998340129852294921875" lon="-8.9866412244737148284912109375">
        <ele>63</ele>
        <time>2026-04-28T11:24:57.000Z</time>
        <extensions>
          <ns3:TrackPointExtension>
            <ns3:hr>116</ns3:hr>
            <ns3:cad>0</ns3:cad>
          </ns3:TrackPointExtension>
        </extensions>
      </trkpt>
      <trkpt lat="37.0299424789845943450927734375" lon="-8.98660124279558658599853515625">
        <ele>62.799999237060546875</ele>
        <time>2026-04-28T11:25:04.000Z</time>
        <extensions>
          <ns3:TrackPointExtension>
            <ns3:hr>115</ns3:hr>
            <ns3:cad>0</ns3:cad>
          </ns3:TrackPointExtension>
        </extensions>
      </trkpt>
      <trkpt lat="37.03001506626605987548828125" lon="-8.986592106521129608154296875">
        <ele>62.59999847412109375</ele>
        <time>2026-04-28T11:25:12.000Z</time>
        <extensions>
          <ns3:TrackPointExtension>
            <ns3:hr>114</ns3:hr>
            <ns3:cad>0</ns3:cad>
          </ns3:TrackPointExtension>
        </extensions>
      </trkpt>
      <trkpt lat="37.03007348813116550445556640625" lon="-8.98657358251512050628662109375">
        <ele>62.799999237060546875</ele>
        <time>2026-04-28T11:25:19.000Z</time>
        <extensions>
          <ns3:TrackPointExtension>
            <ns3:hr>114</ns3:hr>
            <ns3:cad>55</ns3:cad>
          </ns3:TrackPointExtension>
        </extensions>
      </trkpt>
      <trkpt lat="37.0301466621458530426025390625" lon="-8.98652832023799419403076171875">
        <ele>63</ele>
        <time>2026-04-28T11:25:27.000Z</time>
        <extensions>
          <ns3:TrackPointExtension>
            <ns3:hr>111</ns3:hr>
            <ns3:cad>52</ns3:cad>
          </ns3:TrackPointExtension>
        </extensions>
      </trkpt>
      <trkpt lat="37.0301697961986064910888671875" lon="-8.98650954477488994598388671875">
        <ele>63.200000762939453125</ele>
        <time>2026-04-28T11:25:30.000Z</time>
        <extensions>
          <ns3:TrackPointExtension>
            <ns3:hr>111</ns3:hr>
            <ns3:cad>52</ns3:cad>
          </ns3:TrackPointExtension>
        </extensions>
      </trkpt>
      <trkpt lat="37.03020256944000720977783203125" lon="-8.9865087904036045074462890625">
        <ele>62.799999237060546875</ele>
        <time>2026-04-28T11:25:34.000Z</time>
        <extensions>
          <ns3:TrackPointExtension>
            <ns3:hr>112</ns3:hr>
            <ns3:cad>52</ns3:cad>
          </ns3:TrackPointExtension>
        </extensions>
      </trkpt>
      <trkpt lat="37.030275575816631317138671875" lon="-8.986514993011951446533203125">
        <ele>62.799999237060546875</ele>
        <time>2026-04-28T11:25:42.000Z</time>
        <extensions>
          <ns3:TrackPointExtension>
            <ns3:hr>111</ns3:hr>
            <ns3:cad>53</ns3:cad>
          </ns3:TrackPointExtension>
        </extensions>
      </trkpt>
      <trkpt lat="37.030337266623973846435546875" lon="-8.98648758418858051300048828125">
        <ele>62.59999847412109375</ele>
        <time>2026-04-28T11:25:49.000Z</time>
        <extensions>
          <ns3:TrackPointExtension>
            <ns3:hr>110</ns3:hr>
            <ns3:cad>0</ns3:cad>
          </ns3:TrackPointExtension>
        </extensions>
      </trkpt>
      <trkpt lat="37.03040624968707561492919921875" lon="-8.98646428249776363372802734375">
        <ele>62.40000152587890625</ele>
        <time>2026-04-28T11:25:57.000Z</time>
        <extensions>
          <ns3:TrackPointExtension>
            <ns3:hr>112</ns3:hr>
            <ns3:cad>0</ns3:cad>
          </ns3:TrackPointExtension>
        </extensions>
      </trkpt>
      <trkpt lat="37.0304500870406627655029296875" lon="-8.98642404936254024505615234375">
        <ele>62</ele>
        <time>2026-04-28T11:26:05.000Z</time>
        <extensions>
          <ns3:TrackPointExtension>
            <ns3:hr>110</ns3:hr>
            <ns3:cad>0</ns3:cad>
          </ns3:TrackPointExtension>
        </extensions>
      </trkpt>
      <trkpt lat="37.0304878056049346923828125" lon="-8.986400328576564788818359375">
        <ele>62.40000152587890625</ele>
        <time>2026-04-28T11:26:11.000Z</time>
        <extensions>
          <ns3:TrackPointExtension>
            <ns3:hr>113</ns3:hr>
            <ns3:cad>68</ns3:cad>
          </ns3:TrackPointExtension>
        </extensions>
      </trkpt>
      <trkpt lat="37.0305065810680389404296875" lon="-8.9863939583301544189453125">
        <ele>62.59999847412109375</ele>
        <time>2026-04-28T11:26:13.000Z</time>
        <extensions>
          <ns3:TrackPointExtension>
            <ns3:hr>114</ns3:hr>
            <ns3:cad>0</ns3:cad>
          </ns3:TrackPointExtension>
        </extensions>
      </trkpt>
      <trkpt lat="37.030569948256015777587890625" lon="-8.98635816760361194610595703125">
        <ele>63.200000762939453125</ele>
        <time>2026-04-28T11:26:21.000Z</time>
        <extensions>
          <ns3:TrackPointExtension>
            <ns3:hr>115</ns3:hr>
            <ns3:cad>0</ns3:cad>
          </ns3:TrackPointExtension>
        </extensions>
      </trkpt>
      <trkpt lat="37.03062552027404308319091796875" lon="-8.98633922450244426727294921875">
        <ele>63.40000152587890625</ele>
        <time>2026-04-28T11:26:26.000Z</time>
        <extensions>
          <ns3:TrackPointExtension>
            <ns3:hr>115</ns3:hr>
            <ns3:cad>55</ns3:cad>
          </ns3:TrackPointExtension>
        </extensions>
      </trkpt>
      <trkpt lat="37.03068117611110210418701171875" lon="-8.98629379458725452423095703125">
        <ele>62.799999237060546875</ele>
        <time>2026-04-28T11:26:33.000Z</time>
        <extensions>
          <ns3:TrackPointExtension>
            <ns3:hr>116</ns3:hr>
            <ns3:cad>0</ns3:cad>
          </ns3:TrackPointExtension>
        </extensions>
      </trkpt>
      <trkpt lat="37.03074437566101551055908203125" lon="-8.98628423921763896942138671875">
        <ele>63</ele>
        <time>2026-04-28T11:26:40.000Z</time>
        <extensions>
          <ns3:TrackPointExtension>
            <ns3:hr>115</ns3:hr>
            <ns3:cad>52</ns3:cad>
          </ns3:TrackPointExtension>
        </extensions>
      </trkpt>
      <trkpt lat="37.0307598821818828582763671875" lon="-8.9862841553986072540283203125">
        <ele>62.40000152587890625</ele>
        <time>2026-04-28T11:26:42.000Z</time>
        <extensions>
          <ns3:TrackPointExtension>
            <ns3:hr>116</ns3:hr>
            <ns3:cad>52</ns3:cad>
          </ns3:TrackPointExtension>
        </extensions>
      </trkpt>
      <trkpt lat="37.03080908395349979400634765625" lon="-8.98628558032214641571044921875">
        <ele>61.59999847412109375</ele>
        <time>2026-04-28T11:26:47.000Z</time>
        <extensions>
          <ns3:TrackPointExtension>
            <ns3:hr>114</ns3:hr>
            <ns3:cad>0</ns3:cad>
          </ns3:TrackPointExtension>
        </extensions>
      </trkpt>
      <trkpt lat="37.030891813337802886962890625" lon="-8.98627803660929203033447265625">
        <ele>62.40000152587890625</ele>
        <time>2026-04-28T11:26:55.000Z</time>
        <extensions>
          <ns3:TrackPointExtension>
            <ns3:hr>114</ns3:hr>
            <ns3:cad>54</ns3:cad>
          </ns3:TrackPointExtension>
        </extensions>
      </trkpt>
      <trkpt lat="37.03097521327435970306396484375" lon="-8.986235372722148895263671875">
        <ele>62.59999847412109375</ele>
        <time>2026-04-28T11:27:04.000Z</time>
        <extensions>
          <ns3:TrackPointExtension>
            <ns3:hr>114</ns3:hr>
            <ns3:cad>0</ns3:cad>
          </ns3:TrackPointExtension>
        </extensions>
      </trkpt>
      <trkpt lat="37.0310187153518199920654296875" lon="-8.986217938363552093505859375">
        <ele>62.799999237060546875</ele>
        <time>2026-04-28T11:27:08.000Z</time>
        <extensions>
          <ns3:TrackPointExtension>
            <ns3:hr>117</ns3:hr>
            <ns3:cad>51</ns3:cad>
          </ns3:TrackPointExtension>
        </extensions>
      </trkpt>
      <trkpt lat="37.0310539193451404571533203125" lon="-8.9862093888223171234130859375">
        <ele>62.799999237060546875</ele>
        <time>2026-04-28T11:27:11.000Z</time>
        <extensions>
          <ns3:TrackPointExtension>
            <ns3:hr>120</ns3:hr>
            <ns3:cad>51</ns3:cad>
          </ns3:TrackPointExtension>
        </extensions>
      </trkpt>
      <trkpt lat="37.03114050440490245819091796875" lon="-8.98619371466338634490966796875">
        <ele>63.40000152587890625</ele>
        <time>2026-04-28T11:27:19.000Z</time>
        <extensions>
          <ns3:TrackPointExtension>
            <ns3:hr>121</ns3:hr>
            <ns3:cad>50</ns3:cad>
          </ns3:TrackPointExtension>
        </extensions>
      </trkpt>
      <trkpt lat="37.03114905394613742828369140625" lon="-8.98619337938725948333740234375">
        <ele>63.799999237060546875</ele>
        <time>2026-04-28T11:27:20.000Z</time>
        <extensions>
          <ns3:TrackPointExtension>
            <ns3:hr>122</ns3:hr>
            <ns3:cad>50</ns3:cad>
          </ns3:TrackPointExtension>
        </extensions>
      </trkpt>
      <trkpt lat="37.0311959087848663330078125" lon="-8.98620762862265110015869140625">
        <ele>63</ele>
        <time>2026-04-28T11:27:25.000Z</time>
        <extensions>
          <ns3:TrackPointExtension>
            <ns3:hr>124</ns3:hr>
            <ns3:cad>0</ns3:cad>
          </ns3:TrackPointExtension>
        </extensions>
      </trkpt>
      <trkpt lat="37.031210325658321380615234375" lon="-8.98620008490979671478271484375">
        <ele>62.799999237060546875</ele>
        <time>2026-04-28T11:27:27.000Z</time>
        <extensions>
          <ns3:TrackPointExtension>
            <ns3:hr>125</ns3:hr>
            <ns3:cad>0</ns3:cad>
          </ns3:TrackPointExtension>
        </extensions>
      </trkpt>
      <trkpt lat="37.03125215135514736175537109375" lon="-8.9861927926540374755859375">
        <ele>62.799999237060546875</ele>
        <time>2026-04-28T11:27:31.000Z</time>
        <extensions>
          <ns3:TrackPointExtension>
            <ns3:hr>124</ns3:hr>
            <ns3:cad>0</ns3:cad>
          </ns3:TrackPointExtension>
        </extensions>
      </trkpt>
      <trkpt lat="37.0313382335007190704345703125" lon="-8.9861959777772426605224609375">
        <ele>62.799999237060546875</ele>
        <time>2026-04-28T11:27:39.000Z</time>
        <extensions>
          <ns3:TrackPointExtension>
            <ns3:hr>124</ns3:hr>
            <ns3:cad>56</ns3:cad>
          </ns3:TrackPointExtension>
        </extensions>
      </trkpt>
      <trkpt lat="37.03140738420188426971435546875" lon="-8.986208550631999969482421875">
        <ele>63.200000762939453125</ele>
        <time>2026-04-28T11:27:46.000Z</time>
        <extensions>
          <ns3:TrackPointExtension>
            <ns3:hr>121</ns3:hr>
            <ns3:cad>52</ns3:cad>
          </ns3:TrackPointExtension>
        </extensions>
      </trkpt>
      <trkpt lat="37.031433284282684326171875" lon="-8.98622120730578899383544921875">
        <ele>63.200000762939453125</ele>
        <time>2026-04-28T11:27:49.000Z</time>
        <extensions>
          <ns3:TrackPointExtension>
            <ns3:hr>120</ns3:hr>
            <ns3:cad>52</ns3:cad>
          </ns3:TrackPointExtension>
        </extensions>
      </trkpt>
      <trkpt lat="37.031508386135101318359375" lon="-8.9862254820764064788818359375">
        <ele>62.799999237060546875</ele>
        <time>2026-04-28T11:27:57.000Z</time>
        <extensions>
          <ns3:TrackPointExtension>
            <ns3:hr>118</ns3:hr>
            <ns3:cad>0</ns3:cad>
          </ns3:TrackPointExtension>
        </extensions>
      </trkpt>
      <trkpt lat="37.0315987430512905120849609375" lon="-8.986239731311798095703125">
        <ele>62.59999847412109375</ele>
        <time>2026-04-28T11:28:05.000Z</time>
        <extensions>
          <ns3:TrackPointExtension>
            <ns3:hr>119</ns3:hr>
            <ns3:cad>0</ns3:cad>
          </ns3:TrackPointExtension>
        </extensions>
      </trkpt>
      <trkpt lat="37.03166521154344081878662109375" lon="-8.986234366893768310546875">
        <ele>62.200000762939453125</ele>
        <time>2026-04-28T11:28:12.000Z</time>
        <extensions>
          <ns3:TrackPointExtension>
            <ns3:hr>119</ns3:hr>
            <ns3:cad>53</ns3:cad>
          </ns3:TrackPointExtension>
        </extensions>
      </trkpt>
      <trkpt lat="37.03173226676881313323974609375" lon="-8.98621148429811000823974609375">
        <ele>62.799999237060546875</ele>
        <time>2026-04-28T11:28:19.000Z</time>
        <extensions>
          <ns3:TrackPointExtension>
            <ns3:hr>119</ns3:hr>
            <ns3:cad>59</ns3:cad>
          </ns3:TrackPointExtension>
        </extensions>
      </trkpt>
      <trkpt lat="37.0317900180816650390625" lon="-8.9862288348376750946044921875">
        <ele>62.59999847412109375</ele>
        <time>2026-04-28T11:28:25.000Z</time>
        <extensions>
          <ns3:TrackPointExtension>
            <ns3:hr>118</ns3:hr>
            <ns3:cad>0</ns3:cad>
          </ns3:TrackPointExtension>
        </extensions>
      </trkpt>
      <trkpt lat="37.031867466866970062255859375" lon="-8.98625775240361690521240234375">
        <ele>62.200000762939453125</ele>
        <time>2026-04-28T11:28:32.000Z</time>
        <extensions>
          <ns3:TrackPointExtension>
            <ns3:hr>118</ns3:hr>
            <ns3:cad>56</ns3:cad>
          </ns3:TrackPointExtension>
        </extensions>
      </trkpt>
      <trkpt lat="37.03188783489167690277099609375" lon="-8.98627124726772308349609375">
        <ele>62.200000762939453125</ele>
        <time>2026-04-28T11:28:37.000Z</time>
        <extensions>
          <ns3:TrackPointExtension>
            <ns3:hr>119</ns3:hr>
            <ns3:cad>52</ns3:cad>
          </ns3:TrackPointExtension>
        </extensions>
      </trkpt>
      <trkpt lat="37.03189755789935588836669921875" lon="-8.98629480041563510894775390625">
        <ele>62.200000762939453125</ele>
        <time>2026-04-28T11:28:39.000Z</time>
        <extensions>
          <ns3:TrackPointExtension>
            <ns3:hr>120</ns3:hr>
            <ns3:cad>52</ns3:cad>
          </ns3:TrackPointExtension>
        </extensions>
      </trkpt>
      <trkpt lat="37.03190962783992290496826171875" lon="-8.98629580624401569366455078125">
        <ele>62.40000152587890625</ele>
        <time>2026-04-28T11:28:40.000Z</time>
        <extensions>
          <ns3:TrackPointExtension>
            <ns3:hr>120</ns3:hr>
            <ns3:cad>52</ns3:cad>
          </ns3:TrackPointExtension>
        </extensions>
      </trkpt>
      <trkpt lat="37.0319531299173831939697265625" lon="-8.98627971298992633819580078125">
        <ele>62.40000152587890625</ele>
        <time>2026-04-28T11:28:44.000Z</time>
        <extensions>
          <ns3:TrackPointExtension>
            <ns3:hr>120</ns3:hr>
            <ns3:cad>59</ns3:cad>
          </ns3:TrackPointExtension>
        </extensions>
      </trkpt>
      <trkpt lat="37.03199260868132114410400390625" lon="-8.98626529611647129058837890625">
        <ele>61.799999237060546875</ele>
        <time>2026-04-28T11:28:48.000Z</time>
        <extensions>
          <ns3:TrackPointExtension>
            <ns3:hr>120</ns3:hr>
            <ns3:cad>59</ns3:cad>
          </ns3:TrackPointExtension>
        </extensions>
      </trkpt>
      <trkpt lat="37.032029069960117340087890625" lon="-8.98625574074685573577880859375">
        <ele>61.799999237060546875</ele>
        <time>2026-04-28T11:28:51.000Z</time>
        <extensions>
          <ns3:TrackPointExtension>
            <ns3:hr>120</ns3:hr>
            <ns3:cad>51</ns3:cad>
          </ns3:TrackPointExtension>
        </extensions>
      </trkpt>
      <trkpt lat="37.0320932753384113311767578125" lon="-8.98624802939593791961669921875">
        <ele>62</ele>
        <time>2026-04-28T11:28:58.000Z</time>
        <extensions>
          <ns3:TrackPointExtension>
            <ns3:hr>120</ns3:hr>
            <ns3:cad>51</ns3:cad>
          </ns3:TrackPointExtension>
        </extensions>
      </trkpt>
      <trkpt lat="37.0321774296462535858154296875" lon="-8.98626144044101238250732421875">
        <ele>61.799999237060546875</ele>
        <time>2026-04-28T11:29:06.000Z</time>
        <extensions>
          <ns3:TrackPointExtension>
            <ns3:hr>120</ns3:hr>
            <ns3:cad>54</ns3:cad>
          </ns3:TrackPointExtension>
        </extensions>
      </trkpt>
      <trkpt lat="37.0322682894766330718994140625" lon="-8.98626328445971012115478515625">
        <ele>62</ele>
        <time>2026-04-28T11:29:15.000Z</time>
        <extensions>
          <ns3:TrackPointExtension>
            <ns3:hr>121</ns3:hr>
            <ns3:cad>0</ns3:cad>
          </ns3:TrackPointExtension>
        </extensions>
      </trkpt>
      <trkpt lat="37.03236074186861515045166015625" lon="-8.98629412986338138580322265625">
        <ele>62.59999847412109375</ele>
        <time>2026-04-28T11:29:23.000Z</time>
        <extensions>
          <ns3:TrackPointExtension>
            <ns3:hr>121</ns3:hr>
            <ns3:cad>0</ns3:cad>
          </ns3:TrackPointExtension>
        </extensions>
      </trkpt>
      <trkpt lat="37.0323705486953258514404296875" lon="-8.98630217649042606353759765625">
        <ele>62.799999237060546875</ele>
        <time>2026-04-28T11:29:24.000Z</time>
        <extensions>
          <ns3:TrackPointExtension>
            <ns3:hr>120</ns3:hr>
            <ns3:cad>0</ns3:cad>
          </ns3:TrackPointExtension>
        </extensions>
      </trkpt>
      <trkpt lat="37.03244573436677455902099609375" lon="-8.986344672739505767822265625">
        <ele>62</ele>
        <time>2026-04-28T11:29:31.000Z</time>
        <extensions>
          <ns3:TrackPointExtension>
            <ns3:hr>123</ns3:hr>
            <ns3:cad>57</ns3:cad>
          </ns3:TrackPointExtension>
        </extensions>
      </trkpt>
      <trkpt lat="37.03253156505525112152099609375" lon="-8.986391611397266387939453125">
        <ele>62.200000762939453125</ele>
        <time>2026-04-28T11:29:39.000Z</time>
        <extensions>
          <ns3:TrackPointExtension>
            <ns3:hr>123</ns3:hr>
            <ns3:cad>57</ns3:cad>
          </ns3:TrackPointExtension>
        </extensions>
      </trkpt>
      <trkpt lat="37.0325526036322116851806640625" lon="-8.98637928999960422515869140625">
        <ele>61.799999237060546875</ele>
        <time>2026-04-28T11:29:41.000Z</time>
        <extensions>
          <ns3:TrackPointExtension>
            <ns3:hr>123</ns3:hr>
            <ns3:cad>0</ns3:cad>
          </ns3:TrackPointExtension>
        </extensions>
      </trkpt>
      <trkpt lat="37.03261001966893672943115234375" lon="-8.9863498695194721221923828125">
        <ele>62</ele>
        <time>2026-04-28T11:29:46.000Z</time>
        <extensions>
          <ns3:TrackPointExtension>
            <ns3:hr>122</ns3:hr>
            <ns3:cad>0</ns3:cad>
          </ns3:TrackPointExtension>
        </extensions>
      </trkpt>
      <trkpt lat="37.03269459307193756103515625" lon="-8.98634366691112518310546875">
        <ele>62.200000762939453125</ele>
        <time>2026-04-28T11:29:53.000Z</time>
        <extensions>
          <ns3:TrackPointExtension>
            <ns3:hr>120</ns3:hr>
            <ns3:cad>0</ns3:cad>
          </ns3:TrackPointExtension>
        </extensions>
      </trkpt>
      <trkpt lat="37.0327859558165073394775390625" lon="-8.98634903132915496826171875">
        <ele>62.40000152587890625</ele>
        <time>2026-04-28T11:30:01.000Z</time>
        <extensions>
          <ns3:TrackPointExtension>
            <ns3:hr>119</ns3:hr>
            <ns3:cad>0</ns3:cad>
          </ns3:TrackPointExtension>
        </extensions>
      </trkpt>
      <trkpt lat="37.0329036377370357513427734375" lon="-8.98633738048374652862548828125">
        <ele>63</ele>
        <time>2026-04-28T11:30:11.000Z</time>
        <extensions>
          <ns3:TrackPointExtension>
            <ns3:hr>120</ns3:hr>
            <ns3:cad>0</ns3:cad>
          </ns3:TrackPointExtension>
        </extensions>
      </trkpt>
      <trkpt lat="37.03298150561749935150146484375" lon="-8.98630678653717041015625">
        <ele>62.59999847412109375</ele>
        <time>2026-04-28T11:30:18.000Z</time>
        <extensions>
          <ns3:TrackPointExtension>
            <ns3:hr>119</ns3:hr>
            <ns3:cad>62</ns3:cad>
          </ns3:TrackPointExtension>
        </extensions>
      </trkpt>
      <trkpt lat="37.033085860311985015869140625" lon="-8.98631575517356395721435546875">
        <ele>62.59999847412109375</ele>
        <time>2026-04-28T11:30:28.000Z</time>
        <extensions>
          <ns3:TrackPointExtension>
            <ns3:hr>123</ns3:hr>
            <ns3:cad>53</ns3:cad>
          </ns3:TrackPointExtension>
        </extensions>
      </trkpt>
      <trkpt lat="37.03311662189662456512451171875" lon="-8.98631952702999114990234375">
        <ele>62.40000152587890625</ele>
        <time>2026-04-28T11:30:31.000Z</time>
        <extensions>
          <ns3:TrackPointExtension>
            <ns3:hr>127</ns3:hr>
            <ns3:cad>52</ns3:cad>
          </ns3:TrackPointExtension>
        </extensions>
      </trkpt>
      <trkpt lat="37.033181078732013702392578125" lon="-8.98631240241229534149169921875">
        <ele>63.200000762939453125</ele>
        <time>2026-04-28T11:30:36.000Z</time>
        <extensions>
          <ns3:TrackPointExtension>
            <ns3:hr>128</ns3:hr>
            <ns3:cad>52</ns3:cad>
          </ns3:TrackPointExtension>
        </extensions>
      </trkpt>
      <trkpt lat="37.03329046256840229034423828125" lon="-8.98627988062798976898193359375">
        <ele>63.200000762939453125</ele>
        <time>2026-04-28T11:30:45.000Z</time>
        <extensions>
          <ns3:TrackPointExtension>
            <ns3:hr>128</ns3:hr>
            <ns3:cad>61</ns3:cad>
          </ns3:TrackPointExtension>
        </extensions>
      </trkpt>
      <trkpt lat="37.033376209437847137451171875" lon="-8.98627401329576969146728515625">
        <ele>63</ele>
        <time>2026-04-28T11:30:52.000Z</time>
        <extensions>
          <ns3:TrackPointExtension>
            <ns3:hr>129</ns3:hr>
            <ns3:cad>61</ns3:cad>
          </ns3:TrackPointExtension>
        </extensions>
      </trkpt>
      <trkpt lat="37.033468745648860931396484375" lon="-8.9862881787121295928955078125">
        <ele>63</ele>
        <time>2026-04-28T11:30:59.000Z</time>
        <extensions>
          <ns3:TrackPointExtension>
            <ns3:hr>129</ns3:hr>
            <ns3:cad>59</ns3:cad>
          </ns3:TrackPointExtension>
        </extensions>
      </trkpt>
      <trkpt lat="37.03355499543249607086181640625" lon="-8.98624082095921039581298828125">
        <ele>63</ele>
        <time>2026-04-28T11:31:06.000Z</time>
        <extensions>
          <ns3:TrackPointExtension>
            <ns3:hr>129</ns3:hr>
            <ns3:cad>0</ns3:cad>
          </ns3:TrackPointExtension>
        </extensions>
      </trkpt>
      <trkpt lat="37.03357745893299579620361328125" lon="-8.986150212585926055908203125">
        <ele>62.799999237060546875</ele>
        <time>2026-04-28T11:31:13.000Z</time>
        <extensions>
          <ns3:TrackPointExtension>
            <ns3:hr>129</ns3:hr>
            <ns3:cad>54</ns3:cad>
          </ns3:TrackPointExtension>
        </extensions>
      </trkpt>
      <trkpt lat="37.03360931016504764556884765625" lon="-8.98608005605638027191162109375">
        <ele>62.40000152587890625</ele>
        <time>2026-04-28T11:31:19.000Z</time>
        <extensions>
          <ns3:TrackPointExtension>
            <ns3:hr>129</ns3:hr>
            <ns3:cad>62</ns3:cad>
          </ns3:TrackPointExtension>
        </extensions>
      </trkpt>
      <trkpt lat="37.033620961010456085205078125" lon="-8.98594938218593597412109375">
        <ele>62.59999847412109375</ele>
        <time>2026-04-28T11:31:29.000Z</time>
        <extensions>
          <ns3:TrackPointExtension>
            <ns3:hr>127</ns3:hr>
            <ns3:cad>0</ns3:cad>
          </ns3:TrackPointExtension>
        </extensions>
      </trkpt>
      <trkpt lat="37.03360520303249359130859375" lon="-8.9858762919902801513671875">
        <ele>62.200000762939453125</ele>
        <time>2026-04-28T11:31:34.000Z</time>
        <extensions>
          <ns3:TrackPointExtension>
            <ns3:hr>124</ns3:hr>
            <ns3:cad>0</ns3:cad>
          </ns3:TrackPointExtension>
        </extensions>
      </trkpt>
      <trkpt lat="37.03360444866120815277099609375" lon="-8.98582843132317066192626953125">
        <ele>62</ele>
        <time>2026-04-28T11:31:37.000Z</time>
        <extensions>
          <ns3:TrackPointExtension>
            <ns3:hr>124</ns3:hr>
            <ns3:cad>55</ns3:cad>
          </ns3:TrackPointExtension>
        </extensions>
      </trkpt>
      <trkpt lat="37.03359606675803661346435546875" lon="-8.9857663214206695556640625">
        <ele>62.200000762939453125</ele>
        <time>2026-04-28T11:31:44.000Z</time>
        <extensions>
          <ns3:TrackPointExtension>
            <ns3:hr>125</ns3:hr>
            <ns3:cad>0</ns3:cad>
          </ns3:TrackPointExtension>
        </extensions>
      </trkpt>
      <trkpt lat="37.03357192687690258026123046875" lon="-8.9857068099081516265869140625">
        <ele>62.40000152587890625</ele>
        <time>2026-04-28T11:31:50.000Z</time>
        <extensions>
          <ns3:TrackPointExtension>
            <ns3:hr>125</ns3:hr>
            <ns3:cad>60</ns3:cad>
          </ns3:TrackPointExtension>
        </extensions>
      </trkpt>
      <trkpt lat="37.03355466015636920928955078125" lon="-8.98566565476357936859130859375">
        <ele>62.59999847412109375</ele>
        <time>2026-04-28T11:31:53.000Z</time>
        <extensions>
          <ns3:TrackPointExtension>
            <ns3:hr>128</ns3:hr>
            <ns3:cad>57</ns3:cad>
          </ns3:TrackPointExtension>
        </extensions>
      </trkpt>
      <trkpt lat="37.03353387303650379180908203125" lon="-8.98560999892652034759521484375">
        <ele>62.40000152587890625</ele>
        <time>2026-04-28T11:31:57.000Z</time>
        <extensions>
          <ns3:TrackPointExtension>
            <ns3:hr>128</ns3:hr>
            <ns3:cad>59</ns3:cad>
          </ns3:TrackPointExtension>
        </extensions>
      </trkpt>
      <trkpt lat="37.0334766246378421783447265625" lon="-8.98550304584205150604248046875">
        <ele>62.799999237060546875</ele>
        <time>2026-04-28T11:32:06.000Z</time>
        <extensions>
          <ns3:TrackPointExtension>
            <ns3:hr>129</ns3:hr>
            <ns3:cad>0</ns3:cad>
          </ns3:TrackPointExtension>
        </extensions>
      </trkpt>
      <trkpt lat="37.03343622386455535888671875" lon="-8.985387794673442840576171875">
        <ele>63</ele>
        <time>2026-04-28T11:32:14.000Z</time>
        <extensions>
          <ns3:TrackPointExtension>
            <ns3:hr>130</ns3:hr>
            <ns3:cad>59</ns3:cad>
          </ns3:TrackPointExtension>
        </extensions>
      </trkpt>
      <trkpt lat="37.03341317363083362579345703125" lon="-8.985283859074115753173828125">
        <ele>63.200000762939453125</ele>
        <time>2026-04-28T11:32:21.000Z</time>
        <extensions>
          <ns3:TrackPointExtension>
            <ns3:hr>127</ns3:hr>
            <ns3:cad>0</ns3:cad>
          </ns3:TrackPointExtension>
        </extensions>
      </trkpt>
      <trkpt lat="37.03340697102248668670654296875" lon="-8.98527220822870731353759765625">
        <ele>63.200000762939453125</ele>
        <time>2026-04-28T11:32:22.000Z</time>
        <extensions>
          <ns3:TrackPointExtension>
            <ns3:hr>126</ns3:hr>
            <ns3:cad>0</ns3:cad>
          </ns3:TrackPointExtension>
        </extensions>
      </trkpt>
      <trkpt lat="37.03336455859243869781494140625" lon="-8.98516341112554073333740234375">
        <ele>63.40000152587890625</ele>
        <time>2026-04-28T11:32:30.000Z</time>
        <extensions>
          <ns3:TrackPointExtension>
            <ns3:hr>124</ns3:hr>
            <ns3:cad>0</ns3:cad>
          </ns3:TrackPointExtension>
        </extensions>
      </trkpt>
      <trkpt lat="37.03336489386856555938720703125" lon="-8.9850868843495845794677734375">
        <ele>63.59999847412109375</ele>
        <time>2026-04-28T11:32:37.000Z</time>
        <extensions>
          <ns3:TrackPointExtension>
            <ns3:hr>125</ns3:hr>
            <ns3:cad>58</ns3:cad>
          </ns3:TrackPointExtension>
        </extensions>
      </trkpt>
      <trkpt lat="37.03343664295971393585205078125" lon="-8.984976075589656829833984375">
        <ele>63.799999237060546875</ele>
        <time>2026-04-28T11:32:46.000Z</time>
        <extensions>
          <ns3:TrackPointExtension>
            <ns3:hr>125</ns3:hr>
            <ns3:cad>0</ns3:cad>
          </ns3:TrackPointExtension>
        </extensions>
      </trkpt>
      <trkpt lat="37.03351224772632122039794921875" lon="-8.98489317856729030609130859375">
        <ele>63.799999237060546875</ele>
        <time>2026-04-28T11:32:55.000Z</time>
        <extensions>
          <ns3:TrackPointExtension>
            <ns3:hr>126</ns3:hr>
            <ns3:cad>58</ns3:cad>
          </ns3:TrackPointExtension>
        </extensions>
      </trkpt>
      <trkpt lat="37.03359170816838741302490234375" lon="-8.98483450524508953094482421875">
        <ele>63.799999237060546875</ele>
        <time>2026-04-28T11:33:03.000Z</time>
        <extensions>
          <ns3:TrackPointExtension>
            <ns3:hr>127</ns3:hr>
            <ns3:cad>60</ns3:cad>
          </ns3:TrackPointExtension>
        </extensions>
      </trkpt>
      <trkpt lat="37.033640407025814056396484375" lon="-8.98473945446312427520751953125">
        <ele>63.799999237060546875</ele>
        <time>2026-04-28T11:33:11.000Z</time>
        <extensions>
          <ns3:TrackPointExtension>
            <ns3:hr>127</ns3:hr>
            <ns3:cad>0</ns3:cad>
          </ns3:TrackPointExtension>
        </extensions>
      </trkpt>
      <trkpt lat="37.0337019301950931549072265625" lon="-8.9846664480865001678466796875">
        <ele>63.799999237060546875</ele>
        <time>2026-04-28T11:33:18.000Z</time>
        <extensions>
          <ns3:TrackPointExtension>
            <ns3:hr>126</ns3:hr>
            <ns3:cad>0</ns3:cad>
          </ns3:TrackPointExtension>
        </extensions>
      </trkpt>
      <trkpt lat="37.03374794684350490570068359375" lon="-8.98463082499802112579345703125">
        <ele>63.59999847412109375</ele>
        <time>2026-04-28T11:33:23.000Z</time>
        <extensions>
          <ns3:TrackPointExtension>
            <ns3:hr>123</ns3:hr>
            <ns3:cad>0</ns3:cad>
          </ns3:TrackPointExtension>
        </extensions>
      </trkpt>
      <trkpt lat="37.03376973979175090789794921875" lon="-8.98461154662072658538818359375">
        <ele>63.59999847412109375</ele>
        <time>2026-04-28T11:33:25.000Z</time>
        <extensions>
          <ns3:TrackPointExtension>
            <ns3:hr>123</ns3:hr>
            <ns3:cad>57</ns3:cad>
          </ns3:TrackPointExtension>
        </extensions>
      </trkpt>
      <trkpt lat="37.033818103373050689697265625" lon="-8.9845665358006954193115234375">
        <ele>63.799999237060546875</ele>
        <time>2026-04-28T11:33:30.000Z</time>
        <extensions>
          <ns3:TrackPointExtension>
            <ns3:hr>126</ns3:hr>
            <ns3:cad>57</ns3:cad>
          </ns3:TrackPointExtension>
        </extensions>
      </trkpt>
      <trkpt lat="37.03384065069258213043212890625" lon="-8.984548263251781463623046875">
        <ele>63.799999237060546875</ele>
        <time>2026-04-28T11:33:32.000Z</time>
        <extensions>
          <ns3:TrackPointExtension>
            <ns3:hr>128</ns3:hr>
            <ns3:cad>55</ns3:cad>
          </ns3:TrackPointExtension>
        </extensions>
      </trkpt>
      <trkpt lat="37.03388817608356475830078125" lon="-8.9844847284257411956787109375">
        <ele>63.40000152587890625</ele>
        <time>2026-04-28T11:33:38.000Z</time>
        <extensions>
          <ns3:TrackPointExtension>
            <ns3:hr>125</ns3:hr>
            <ns3:cad>60</ns3:cad>
          </ns3:TrackPointExtension>
        </extensions>
      </trkpt>
      <trkpt lat="37.0339128188788890838623046875" lon="-8.98444809950888156890869140625">
        <ele>63.200000762939453125</ele>
        <time>2026-04-28T11:33:41.000Z</time>
        <extensions>
          <ns3:TrackPointExtension>
            <ns3:hr>125</ns3:hr>
            <ns3:cad>58</ns3:cad>
          </ns3:TrackPointExtension>
        </extensions>
      </trkpt>
      <trkpt lat="37.0339500345289707183837890625" lon="-8.98438406176865100860595703125">
        <ele>63</ele>
        <time>2026-04-28T11:33:47.000Z</time>
        <extensions>
          <ns3:TrackPointExtension>
            <ns3:hr>126</ns3:hr>
            <ns3:cad>0</ns3:cad>
          </ns3:TrackPointExtension>
        </extensions>
      </trkpt>
      <trkpt lat="37.0339842326939105987548828125" lon="-8.98430979810655117034912109375">
        <ele>63.200000762939453125</ele>
        <time>2026-04-28T11:33:53.000Z</time>
        <extensions>
          <ns3:TrackPointExtension>
            <ns3:hr>127</ns3:hr>
            <ns3:cad>57</ns3:cad>
          </ns3:TrackPointExtension>
        </extensions>
      </trkpt>
      <trkpt lat="37.0340405590832233428955078125" lon="-8.98423352278769016265869140625">
        <ele>63.40000152587890625</ele>
        <time>2026-04-28T11:34:01.000Z</time>
        <extensions>
          <ns3:TrackPointExtension>
            <ns3:hr>126</ns3:hr>
            <ns3:cad>58</ns3:cad>
          </ns3:TrackPointExtension>
        </extensions>
      </trkpt>
      <trkpt lat="37.0341284014284610748291015625" lon="-8.9842453412711620330810546875">
        <ele>63.59999847412109375</ele>
        <time>2026-04-28T11:34:08.000Z</time>
        <extensions>
          <ns3:TrackPointExtension>
            <ns3:hr>126</ns3:hr>
            <ns3:cad>58</ns3:cad>
          </ns3:TrackPointExtension>
        </extensions>
      </trkpt>
      <trkpt lat="37.03422923572361469268798828125" lon="-8.98423813283443450927734375">
        <ele>62.799999237060546875</ele>
        <time>2026-04-28T11:34:16.000Z</time>
        <extensions>
          <ns3:TrackPointExtension>
            <ns3:hr>126</ns3:hr>
            <ns3:cad>59</ns3:cad>
          </ns3:TrackPointExtension>
        </extensions>
      </trkpt>
      <trkpt lat="37.03432931564748287200927734375" lon="-8.984202928841114044189453125">
        <ele>62.59999847412109375</ele>
        <time>2026-04-28T11:34:25.000Z</time>
        <extensions>
          <ns3:TrackPointExtension>
            <ns3:hr>124</ns3:hr>
            <ns3:cad>56</ns3:cad>
          </ns3:TrackPointExtension>
        </extensions>
      </trkpt>
      <trkpt lat="37.034415900707244873046875" lon="-8.98420535959303379058837890625">
        <ele>62.59999847412109375</ele>
        <time>2026-04-28T11:34:32.000Z</time>
        <extensions>
          <ns3:TrackPointExtension>
            <ns3:hr>124</ns3:hr>
            <ns3:cad>58</ns3:cad>
          </ns3:TrackPointExtension>
        </extensions>
      </trkpt>
      <trkpt lat="37.034447751939296722412109375" lon="-8.98421273566782474517822265625">
        <ele>61.799999237060546875</ele>
        <time>2026-04-28T11:34:35.000Z</time>
        <extensions>
          <ns3:TrackPointExtension>
            <ns3:hr>124</ns3:hr>
            <ns3:cad>58</ns3:cad>
          </ns3:TrackPointExtension>
        </extensions>
      </trkpt>
      <trkpt lat="37.0344816148281097412109375" lon="-8.98421759717166423797607421875">
        <ele>61.799999237060546875</ele>
        <time>2026-04-28T11:34:38.000Z</time>
        <extensions>
          <ns3:TrackPointExtension>
            <ns3:hr>127</ns3:hr>
            <ns3:cad>58</ns3:cad>
          </ns3:TrackPointExtension>
        </extensions>
      </trkpt>
      <trkpt lat="37.0344936847686767578125" lon="-8.98421977646648883819580078125">
        <ele>61.799999237060546875</ele>
        <time>2026-04-28T11:34:39.000Z</time>
        <extensions>
          <ns3:TrackPointExtension>
            <ns3:hr>128</ns3:hr>
            <ns3:cad>58</ns3:cad>
          </ns3:TrackPointExtension>
        </extensions>
      </trkpt>
      <trkpt lat="37.034595273435115814208984375" lon="-8.98422698490321636199951171875">
        <ele>61.59999847412109375</ele>
        <time>2026-04-28T11:34:48.000Z</time>
        <extensions>
          <ns3:TrackPointExtension>
            <ns3:hr>128</ns3:hr>
            <ns3:cad>56</ns3:cad>
          </ns3:TrackPointExtension>
        </extensions>
      </trkpt>
      <trkpt lat="37.03470398671925067901611328125" lon="-8.984252549707889556884765625">
        <ele>61.200000762939453125</ele>
        <time>2026-04-28T11:34:57.000Z</time>
        <extensions>
          <ns3:TrackPointExtension>
            <ns3:hr>128</ns3:hr>
            <ns3:cad>59</ns3:cad>
          </ns3:TrackPointExtension>
        </extensions>
      </trkpt>
      <trkpt lat="37.0347573794424533843994140625" lon="-8.98424307815730571746826171875">
        <ele>60.59999847412109375</ele>
        <time>2026-04-28T11:35:01.000Z</time>
        <extensions>
          <ns3:TrackPointExtension>
            <ns3:hr>128</ns3:hr>
            <ns3:cad>59</ns3:cad>
          </ns3:TrackPointExtension>
        </extensions>
      </trkpt>
      <trkpt lat="37.0347900688648223876953125" lon="-8.9842262305319309234619140625">
        <ele>60</ele>
        <time>2026-04-28T11:35:04.000Z</time>
        <extensions>
          <ns3:TrackPointExtension>
            <ns3:hr>126</ns3:hr>
            <ns3:cad>62</ns3:cad>
          </ns3:TrackPointExtension>
        </extensions>
      </trkpt>
      <trkpt lat="37.03484932892024517059326171875" lon="-8.984220027923583984375">
        <ele>60.59999847412109375</ele>
        <time>2026-04-28T11:35:11.000Z</time>
        <extensions>
          <ns3:TrackPointExtension>
            <ns3:hr>123</ns3:hr>
            <ns3:cad>0</ns3:cad>
          </ns3:TrackPointExtension>
        </extensions>
      </trkpt>
      <trkpt lat="37.03485469333827495574951171875" lon="-8.9842165075242519378662109375">
        <ele>60.799999237060546875</ele>
        <time>2026-04-28T11:35:12.000Z</time>
        <extensions>
          <ns3:TrackPointExtension>
            <ns3:hr>123</ns3:hr>
            <ns3:cad>0</ns3:cad>
          </ns3:TrackPointExtension>
        </extensions>
      </trkpt>
      <trkpt lat="37.03488595783710479736328125" lon="-8.9842057786881923675537109375">
        <ele>60.799999237060546875</ele>
        <time>2026-04-28T11:35:19.000Z</time>
        <extensions>
          <ns3:TrackPointExtension>
            <ns3:hr>123</ns3:hr>
            <ns3:cad>0</ns3:cad>
          </ns3:TrackPointExtension>
        </extensions>
      </trkpt>
      <trkpt lat="37.0349214971065521240234375" lon="-8.98420502431690692901611328125">
        <ele>61.200000762939453125</ele>
        <time>2026-04-28T11:35:27.000Z</time>
        <extensions>
          <ns3:TrackPointExtension>
            <ns3:hr>124</ns3:hr>
            <ns3:cad>0</ns3:cad>
          </ns3:TrackPointExtension>
        </extensions>
      </trkpt>
      <trkpt lat="37.0349914021790027618408203125" lon="-8.98419320583343505859375">
        <ele>60.200000762939453125</ele>
        <time>2026-04-28T11:35:35.000Z</time>
        <extensions>
          <ns3:TrackPointExtension>
            <ns3:hr>124</ns3:hr>
            <ns3:cad>0</ns3:cad>
          </ns3:TrackPointExtension>
        </extensions>
      </trkpt>
      <trkpt lat="37.03507295809686183929443359375" lon="-8.9842077903449535369873046875">
        <ele>60.200000762939453125</ele>
        <time>2026-04-28T11:35:41.000Z</time>
        <extensions>
          <ns3:TrackPointExtension>
            <ns3:hr>124</ns3:hr>
            <ns3:cad>60</ns3:cad>
          </ns3:TrackPointExtension>
        </extensions>
      </trkpt>
      <trkpt lat="37.03511402942240238189697265625" lon="-8.9842161722481250762939453125">
        <ele>59.59999847412109375</ele>
        <time>2026-04-28T11:35:44.000Z</time>
        <extensions>
          <ns3:TrackPointExtension>
            <ns3:hr>121</ns3:hr>
            <ns3:cad>60</ns3:cad>
          </ns3:TrackPointExtension>
        </extensions>
      </trkpt>
      <trkpt lat="37.0351870357990264892578125" lon="-8.98423134349286556243896484375">
        <ele>59.200000762939453125</ele>
        <time>2026-04-28T11:35:50.000Z</time>
        <extensions>
          <ns3:TrackPointExtension>
            <ns3:hr>120</ns3:hr>
            <ns3:cad>60</ns3:cad>
          </ns3:TrackPointExtension>
        </extensions>
      </trkpt>
      <trkpt lat="37.03528418205678462982177734375" lon="-8.98424056358635425567626953125">
        <ele>58.59999847412109375</ele>
        <time>2026-04-28T11:35:58.000Z</time>
        <extensions>
          <ns3:TrackPointExtension>
            <ns3:hr>120</ns3:hr>
            <ns3:cad>55</ns3:cad>
          </ns3:TrackPointExtension>
        </extensions>
      </trkpt>
      <trkpt lat="37.03535241074860095977783203125" lon="-8.98423218168318271636962890625">
        <ele>58.40000152587890625</ele>
        <time>2026-04-28T11:36:03.000Z</time>
        <extensions>
          <ns3:TrackPointExtension>
            <ns3:hr>120</ns3:hr>
            <ns3:cad>59</ns3:cad>
          </ns3:TrackPointExtension>
        </extensions>
      </trkpt>
      <trkpt lat="37.03537638299167156219482421875" lon="-8.98423704318702220916748046875">
        <ele>58.40000152587890625</ele>
        <time>2026-04-28T11:36:05.000Z</time>
        <extensions>
          <ns3:TrackPointExtension>
            <ns3:hr>120</ns3:hr>
            <ns3:cad>59</ns3:cad>
          </ns3:TrackPointExtension>
        </extensions>
      </trkpt>
      <trkpt lat="37.03545391559600830078125" lon="-8.9842352829873561859130859375">
        <ele>59.200000762939453125</ele>
        <time>2026-04-28T11:36:12.000Z</time>
        <extensions>
          <ns3:TrackPointExtension>
            <ns3:hr>119</ns3:hr>
            <ns3:cad>57</ns3:cad>
          </ns3:TrackPointExtension>
        </extensions>
      </trkpt>
      <trkpt lat="37.03553245402872562408447265625" lon="-8.9842312596738338470458984375">
        <ele>58.59999847412109375</ele>
        <time>2026-04-28T11:36:19.000Z</time>
        <extensions>
          <ns3:TrackPointExtension>
            <ns3:hr>120</ns3:hr>
            <ns3:cad>58</ns3:cad>
          </ns3:TrackPointExtension>
        </extensions>
      </trkpt>
      <trkpt lat="37.035612501204013824462890625" lon="-8.98420016281306743621826171875">
        <ele>58.59999847412109375</ele>
        <time>2026-04-28T11:36:26.000Z</time>
        <extensions>
          <ns3:TrackPointExtension>
            <ns3:hr>120</ns3:hr>
            <ns3:cad>57</ns3:cad>
          </ns3:TrackPointExtension>
        </extensions>
      </trkpt>
      <trkpt lat="37.0356832444667816162109375" lon="-8.9841370470821857452392578125">
        <ele>58.40000152587890625</ele>
        <time>2026-04-28T11:36:33.000Z</time>
        <extensions>
          <ns3:TrackPointExtension>
            <ns3:hr>119</ns3:hr>
            <ns3:cad>57</ns3:cad>
          </ns3:TrackPointExtension>
        </extensions>
      </trkpt>
      <trkpt lat="37.03577284701168537139892578125" lon="-8.98412682116031646728515625">
        <ele>58.200000762939453125</ele>
        <time>2026-04-28T11:36:40.000Z</time>
        <extensions>
          <ns3:TrackPointExtension>
            <ns3:hr>118</ns3:hr>
            <ns3:cad>60</ns3:cad>
          </ns3:TrackPointExtension>
        </extensions>
      </trkpt>
      <trkpt lat="37.035858929157257080078125" lon="-8.9840763621032238006591796875">
        <ele>58.200000762939453125</ele>
        <time>2026-04-28T11:36:48.000Z</time>
        <extensions>
          <ns3:TrackPointExtension>
            <ns3:hr>120</ns3:hr>
            <ns3:cad>0</ns3:cad>
          </ns3:TrackPointExtension>
        </extensions>
      </trkpt>
      <trkpt lat="37.0359085500240325927734375" lon="-8.98401827551424503326416015625">
        <ele>58.200000762939453125</ele>
        <time>2026-04-28T11:36:55.000Z</time>
        <extensions>
          <ns3:TrackPointExtension>
            <ns3:hr>122</ns3:hr>
            <ns3:cad>59</ns3:cad>
          </ns3:TrackPointExtension>
        </extensions>
      </trkpt>
      <trkpt lat="37.03592573292553424835205078125" lon="-8.98400587029755115509033203125">
        <ele>58.40000152587890625</ele>
        <time>2026-04-28T11:36:57.000Z</time>
        <extensions>
          <ns3:TrackPointExtension>
            <ns3:hr>125</ns3:hr>
            <ns3:cad>0</ns3:cad>
          </ns3:TrackPointExtension>
        </extensions>
      </trkpt>
      <trkpt lat="37.03597225248813629150390625" lon="-8.9839663915336132049560546875">
        <ele>58.799999237060546875</ele>
        <time>2026-04-28T11:37:02.000Z</time>
        <extensions>
          <ns3:TrackPointExtension>
            <ns3:hr>125</ns3:hr>
            <ns3:cad>49</ns3:cad>
          </ns3:TrackPointExtension>
        </extensions>
      </trkpt>
      <trkpt lat="37.036030255258083343505859375" lon="-8.98390294052660465240478515625">
        <ele>58.200000762939453125</ele>
        <time>2026-04-28T11:37:09.000Z</time>
        <extensions>
          <ns3:TrackPointExtension>
            <ns3:hr>124</ns3:hr>
            <ns3:cad>56</ns3:cad>
          </ns3:TrackPointExtension>
        </extensions>
      </trkpt>
      <trkpt lat="37.036060430109500885009765625" lon="-8.98384594358503818511962890625">
        <ele>58.59999847412109375</ele>
        <time>2026-04-28T11:37:15.000Z</time>
        <extensions>
          <ns3:TrackPointExtension>
            <ns3:hr>123</ns3:hr>
            <ns3:cad>0</ns3:cad>
          </ns3:TrackPointExtension>
        </extensions>
      </trkpt>
      <trkpt lat="37.03612136654555797576904296875" lon="-8.98377318866550922393798828125">
        <ele>59.200000762939453125</ele>
        <time>2026-04-28T11:37:22.000Z</time>
        <extensions>
          <ns3:TrackPointExtension>
            <ns3:hr>123</ns3:hr>
            <ns3:cad>0</ns3:cad>
          </ns3:TrackPointExtension>
        </extensions>
      </trkpt>
      <trkpt lat="37.03616201877593994140625" lon="-8.98371418006718158721923828125">
        <ele>59.40000152587890625</ele>
        <time>2026-04-28T11:37:28.000Z</time>
        <extensions>
          <ns3:TrackPointExtension>
            <ns3:hr>123</ns3:hr>
            <ns3:cad>0</ns3:cad>
          </ns3:TrackPointExtension>
        </extensions>
      </trkpt>
      <trkpt lat="37.03618976287543773651123046875" lon="-8.98363488726317882537841796875">
        <ele>59.200000762939453125</ele>
        <time>2026-04-28T11:37:34.000Z</time>
        <extensions>
          <ns3:TrackPointExtension>
            <ns3:hr>126</ns3:hr>
            <ns3:cad>0</ns3:cad>
          </ns3:TrackPointExtension>
        </extensions>
      </trkpt>
      <trkpt lat="37.0362017489969730377197265625" lon="-8.983614854514598846435546875">
        <ele>59.40000152587890625</ele>
        <time>2026-04-28T11:37:36.000Z</time>
        <extensions>
          <ns3:TrackPointExtension>
            <ns3:hr>126</ns3:hr>
            <ns3:cad>0</ns3:cad>
          </ns3:TrackPointExtension>
        </extensions>
      </trkpt>
      <trkpt lat="37.0361994020640850067138671875" lon="-8.98353631608188152313232421875">
        <ele>59.40000152587890625</ele>
        <time>2026-04-28T11:37:42.000Z</time>
        <extensions>
          <ns3:TrackPointExtension>
            <ns3:hr>129</ns3:hr>
            <ns3:cad>54</ns3:cad>
          </ns3:TrackPointExtension>
        </extensions>
      </trkpt>
      <trkpt lat="37.03620082698762416839599609375" lon="-8.98352332413196563720703125">
        <ele>59.40000152587890625</ele>
        <time>2026-04-28T11:37:43.000Z</time>
        <extensions>
          <ns3:TrackPointExtension>
            <ns3:hr>129</ns3:hr>
            <ns3:cad>54</ns3:cad>
          </ns3:TrackPointExtension>
        </extensions>
      </trkpt>
      <trkpt lat="37.03624089248478412628173828125" lon="-8.98343506269156932830810546875">
        <ele>58.799999237060546875</ele>
        <time>2026-04-28T11:37:50.000Z</time>
        <extensions>
          <ns3:TrackPointExtension>
            <ns3:hr>128</ns3:hr>
            <ns3:cad>55</ns3:cad>
          </ns3:TrackPointExtension>
        </extensions>
      </trkpt>
      <trkpt lat="37.0362835563719272613525390625" lon="-8.98342140018939971923828125">
        <ele>59.40000152587890625</ele>
        <time>2026-04-28T11:37:54.000Z</time>
        <extensions>
          <ns3:TrackPointExtension>
            <ns3:hr>126</ns3:hr>
            <ns3:cad>56</ns3:cad>
          </ns3:TrackPointExtension>
        </extensions>
      </trkpt>
      <trkpt lat="37.0363046787679195404052734375" lon="-8.98340891115367412567138671875">
        <ele>59.799999237060546875</ele>
        <time>2026-04-28T11:37:56.000Z</time>
        <extensions>
          <ns3:TrackPointExtension>
            <ns3:hr>126</ns3:hr>
            <ns3:cad>53</ns3:cad>
          </ns3:TrackPointExtension>
        </extensions>
      </trkpt>
      <trkpt lat="37.0363435707986354827880859375" lon="-8.98339197970926761627197265625">
        <ele>59.59999847412109375</ele>
        <time>2026-04-28T11:37:59.000Z</time>
        <extensions>
          <ns3:TrackPointExtension>
            <ns3:hr>123</ns3:hr>
            <ns3:cad>51</ns3:cad>
          </ns3:TrackPointExtension>
        </extensions>
      </trkpt>
      <trkpt lat="37.036374919116497039794921875" lon="-8.98334034718573093414306640625">
        <ele>59.59999847412109375</ele>
        <time>2026-04-28T11:38:03.000Z</time>
        <extensions>
          <ns3:TrackPointExtension>
            <ns3:hr>123</ns3:hr>
            <ns3:cad>65</ns3:cad>
          </ns3:TrackPointExtension>
        </extensions>
      </trkpt>
      <trkpt lat="37.03643761575222015380859375" lon="-8.9832398481667041778564453125">
        <ele>60</ele>
        <time>2026-04-28T11:38:11.000Z</time>
        <extensions>
          <ns3:TrackPointExtension>
            <ns3:hr>126</ns3:hr>
            <ns3:cad>61</ns3:cad>
          </ns3:TrackPointExtension>
        </extensions>
      </trkpt>
      <trkpt lat="37.036435268819332122802734375" lon="-8.98321176879107952117919921875">
        <ele>60</ele>
        <time>2026-04-28T11:38:13.000Z</time>
        <extensions>
          <ns3:TrackPointExtension>
            <ns3:hr>126</ns3:hr>
            <ns3:cad>61</ns3:cad>
          </ns3:TrackPointExtension>
        </extensions>
      </trkpt>
      <trkpt lat="37.0364374481141567230224609375" lon="-8.98316734470427036285400390625">
        <ele>60.40000152587890625</ele>
        <time>2026-04-28T11:38:16.000Z</time>
        <extensions>
          <ns3:TrackPointExtension>
            <ns3:hr>125</ns3:hr>
            <ns3:cad>61</ns3:cad>
          </ns3:TrackPointExtension>
        </extensions>
      </trkpt>
      <trkpt lat="37.036443650722503662109375" lon="-8.98315426893532276153564453125">
        <ele>60.40000152587890625</ele>
        <time>2026-04-28T11:38:17.000Z</time>
        <extensions>
          <ns3:TrackPointExtension>
            <ns3:hr>126</ns3:hr>
            <ns3:cad>61</ns3:cad>
          </ns3:TrackPointExtension>
        </extensions>
      </trkpt>
      <trkpt lat="37.03645194880664348602294921875" lon="-8.9831436239182949066162109375">
        <ele>60.59999847412109375</ele>
        <time>2026-04-28T11:38:18.000Z</time>
        <extensions>
          <ns3:TrackPointExtension>
            <ns3:hr>126</ns3:hr>
            <ns3:cad>61</ns3:cad>
          </ns3:TrackPointExtension>
        </extensions>
      </trkpt>
      <trkpt lat="37.03650735318660736083984375" lon="-8.98306307382881641387939453125">
        <ele>61</ele>
        <time>2026-04-28T11:38:25.000Z</time>
        <extensions>
          <ns3:TrackPointExtension>
            <ns3:hr>126</ns3:hr>
            <ns3:cad>61</ns3:cad>
          </ns3:TrackPointExtension>
        </extensions>
      </trkpt>
      <trkpt lat="37.0365871489048004150390625" lon="-8.98306290619075298309326171875">
        <ele>60.59999847412109375</ele>
        <time>2026-04-28T11:38:32.000Z</time>
        <extensions>
          <ns3:TrackPointExtension>
            <ns3:hr>127</ns3:hr>
            <ns3:cad>61</ns3:cad>
          </ns3:TrackPointExtension>
        </extensions>
      </trkpt>
      <trkpt lat="37.03668530099093914031982421875" lon="-8.98301362060010433197021484375">
        <ele>60.40000152587890625</ele>
        <time>2026-04-28T11:38:40.000Z</time>
        <extensions>
          <ns3:TrackPointExtension>
            <ns3:hr>125</ns3:hr>
            <ns3:cad>60</ns3:cad>
          </ns3:TrackPointExtension>
        </extensions>
      </trkpt>
      <trkpt lat="37.03673056326806545257568359375" lon="-8.98292611353099346160888671875">
        <ele>60.59999847412109375</ele>
        <time>2026-04-28T11:38:47.000Z</time>
        <extensions>
          <ns3:TrackPointExtension>
            <ns3:hr>122</ns3:hr>
            <ns3:cad>60</ns3:cad>
          </ns3:TrackPointExtension>
        </extensions>
      </trkpt>
      <trkpt lat="37.03673802316188812255859375" lon="-8.982913456857204437255859375">
        <ele>60.799999237060546875</ele>
        <time>2026-04-28T11:38:48.000Z</time>
        <extensions>
          <ns3:TrackPointExtension>
            <ns3:hr>122</ns3:hr>
            <ns3:cad>58</ns3:cad>
          </ns3:TrackPointExtension>
        </extensions>
      </trkpt>
      <trkpt lat="37.0367824472486972808837890625" lon="-8.98278982378542423248291015625">
        <ele>61.200000762939453125</ele>
        <time>2026-04-28T11:38:57.000Z</time>
        <extensions>
          <ns3:TrackPointExtension>
            <ns3:hr>123</ns3:hr>
            <ns3:cad>60</ns3:cad>
          </ns3:TrackPointExtension>
        </extensions>
      </trkpt>
      <trkpt lat="37.036804743111133575439453125" lon="-8.98270851932466030120849609375">
        <ele>61.59999847412109375</ele>
        <time>2026-04-28T11:39:03.000Z</time>
        <extensions>
          <ns3:TrackPointExtension>
            <ns3:hr>123</ns3:hr>
            <ns3:cad>61</ns3:cad>
          </ns3:TrackPointExtension>
        </extensions>
      </trkpt>
      <trkpt lat="37.03681044280529022216796875" lon="-8.9826752431690692901611328125">
        <ele>61.799999237060546875</ele>
        <time>2026-04-28T11:39:05.000Z</time>
        <extensions>
          <ns3:TrackPointExtension>
            <ns3:hr>127</ns3:hr>
            <ns3:cad>0</ns3:cad>
          </ns3:TrackPointExtension>
        </extensions>
      </trkpt>
      <trkpt lat="37.0368124544620513916015625" lon="-8.9826460741460323333740234375">
        <ele>61.799999237060546875</ele>
        <time>2026-04-28T11:39:07.000Z</time>
        <extensions>
          <ns3:TrackPointExtension>
            <ns3:hr>129</ns3:hr>
            <ns3:cad>62</ns3:cad>
          </ns3:TrackPointExtension>
        </extensions>
      </trkpt>
      <trkpt lat="37.0368039049208164215087890625" lon="-8.982629813253879547119140625">
        <ele>61.799999237060546875</ele>
        <time>2026-04-28T11:39:13.000Z</time>
        <extensions>
          <ns3:TrackPointExtension>
            <ns3:hr>131</ns3:hr>
            <ns3:cad>0</ns3:cad>
          </ns3:TrackPointExtension>
        </extensions>
      </trkpt>
      <trkpt lat="37.036797367036342620849609375" lon="-8.98262956179678440093994140625">
        <ele>61.799999237060546875</ele>
        <time>2026-04-28T11:39:16.000Z</time>
        <extensions>
          <ns3:TrackPointExtension>
            <ns3:hr>135</ns3:hr>
            <ns3:cad>0</ns3:cad>
          </ns3:TrackPointExtension>
        </extensions>
      </trkpt>
      <trkpt lat="37.03682293184101581573486328125" lon="-8.98257072083652019500732421875">
        <ele>62</ele>
        <time>2026-04-28T11:39:21.000Z</time>
        <extensions>
          <ns3:TrackPointExtension>
            <ns3:hr>137</ns3:hr>
            <ns3:cad>0</ns3:cad>
          </ns3:TrackPointExtension>
        </extensions>
      </trkpt>
      <trkpt lat="37.03686534427106380462646484375" lon="-8.98247818462550640106201171875">
        <ele>62.40000152587890625</ele>
        <time>2026-04-28T11:39:27.000Z</time>
        <extensions>
          <ns3:TrackPointExtension>
            <ns3:hr>134</ns3:hr>
            <ns3:cad>59</ns3:cad>
          </ns3:TrackPointExtension>
        </extensions>
      </trkpt>
      <trkpt lat="37.03687288798391819000244140625" lon="-8.982466869056224822998046875">
        <ele>62.59999847412109375</ele>
        <time>2026-04-28T11:39:28.000Z</time>
        <extensions>
          <ns3:TrackPointExtension>
            <ns3:hr>133</ns3:hr>
            <ns3:cad>59</ns3:cad>
          </ns3:TrackPointExtension>
        </extensions>
      </trkpt>
      <trkpt lat="37.03690473921597003936767578125" lon="-8.982410542666912078857421875">
        <ele>63</ele>
        <time>2026-04-28T11:39:32.000Z</time>
        <extensions>
          <ns3:TrackPointExtension>
            <ns3:hr>133</ns3:hr>
            <ns3:cad>62</ns3:cad>
          </ns3:TrackPointExtension>
        </extensions>
      </trkpt>
      <trkpt lat="37.03692267648875713348388671875" lon="-8.98227274417877197265625">
        <ele>63.40000152587890625</ele>
        <time>2026-04-28T11:39:41.000Z</time>
        <extensions>
          <ns3:TrackPointExtension>
            <ns3:hr>133</ns3:hr>
            <ns3:cad>61</ns3:cad>
          </ns3:TrackPointExtension>
        </extensions>
      </trkpt>
      <trkpt lat="37.03693918883800506591796875" lon="-8.98222773335874080657958984375">
        <ele>63.799999237060546875</ele>
        <time>2026-04-28T11:39:44.000Z</time>
        <extensions>
          <ns3:TrackPointExtension>
            <ns3:hr>132</ns3:hr>
            <ns3:cad>60</ns3:cad>
          </ns3:TrackPointExtension>
        </extensions>
      </trkpt>
      <trkpt lat="37.03696626238524913787841796875" lon="-8.98217626847326755523681640625">
        <ele>64</ele>
        <time>2026-04-28T11:39:48.000Z</time>
        <extensions>
          <ns3:TrackPointExtension>
            <ns3:hr>131</ns3:hr>
            <ns3:cad>0</ns3:cad>
          </ns3:TrackPointExtension>
        </extensions>
      </trkpt>
      <trkpt lat="37.0369889773428440093994140625" lon="-8.98203872144222259521484375">
        <ele>64.40000152587890625</ele>
        <time>2026-04-28T11:39:57.000Z</time>
        <extensions>
          <ns3:TrackPointExtension>
            <ns3:hr>132</ns3:hr>
            <ns3:cad>61</ns3:cad>
          </ns3:TrackPointExtension>
        </extensions>
      </trkpt>
      <trkpt lat="37.036989144980907440185546875" lon="-8.98196638561785221099853515625">
        <ele>64.8000030517578125</ele>
        <time>2026-04-28T11:40:02.000Z</time>
        <extensions>
          <ns3:TrackPointExtension>
            <ns3:hr>132</ns3:hr>
            <ns3:cad>62</ns3:cad>
          </ns3:TrackPointExtension>
        </extensions>
      </trkpt>
      <trkpt lat="37.03699828125536441802978515625" lon="-8.9819185249507427215576171875">
        <ele>65.1999969482421875</ele>
        <time>2026-04-28T11:40:05.000Z</time>
        <extensions>
          <ns3:TrackPointExtension>
            <ns3:hr>132</ns3:hr>
            <ns3:cad>61</ns3:cad>
          </ns3:TrackPointExtension>
        </extensions>
      </trkpt>
      <trkpt lat="37.03702493570744991302490234375" lon="-8.98175667040050029754638671875">
        <ele>65.59999847412109375</ele>
        <time>2026-04-28T11:40:16.000Z</time>
        <extensions>
          <ns3:TrackPointExtension>
            <ns3:hr>133</ns3:hr>
            <ns3:cad>62</ns3:cad>
          </ns3:TrackPointExtension>
        </extensions>
      </trkpt>
      <trkpt lat="37.03703734092414379119873046875" lon="-8.9817242324352264404296875">
        <ele>65.8000030517578125</ele>
        <time>2026-04-28T11:40:18.000Z</time>
        <extensions>
          <ns3:TrackPointExtension>
            <ns3:hr>133</ns3:hr>
            <ns3:cad>62</ns3:cad>
          </ns3:TrackPointExtension>
        </extensions>
      </trkpt>
      <trkpt lat="37.03713725320994853973388671875" lon="-8.98161300458014011383056640625">
        <ele>66.1999969482421875</ele>
        <time>2026-04-28T11:40:28.000Z</time>
        <extensions>
          <ns3:TrackPointExtension>
            <ns3:hr>133</ns3:hr>
            <ns3:cad>61</ns3:cad>
          </ns3:TrackPointExtension>
        </extensions>
      </trkpt>
      <trkpt lat="37.03722325153648853302001953125" lon="-8.9815517328679561614990234375">
        <ele>66.8000030517578125</ele>
        <time>2026-04-28T11:40:36.000Z</time>
        <extensions>
          <ns3:TrackPointExtension>
            <ns3:hr>134</ns3:hr>
            <ns3:cad>61</ns3:cad>
          </ns3:TrackPointExtension>
        </extensions>
      </trkpt>
      <trkpt lat="37.03732718713581562042236328125" lon="-8.981483168900012969970703125">
        <ele>66.59999847412109375</ele>
        <time>2026-04-28T11:40:45.000Z</time>
        <extensions>
          <ns3:TrackPointExtension>
            <ns3:hr>134</ns3:hr>
            <ns3:cad>60</ns3:cad>
          </ns3:TrackPointExtension>
        </extensions>
      </trkpt>
      <trkpt lat="37.0373715274035930633544921875" lon="-8.98137160576879978179931640625">
        <ele>66.40000152587890625</ele>
        <time>2026-04-28T11:40:53.000Z</time>
        <extensions>
          <ns3:TrackPointExtension>
            <ns3:hr>131</ns3:hr>
            <ns3:cad>61</ns3:cad>
          </ns3:TrackPointExtension>
        </extensions>
      </trkpt>
      <trkpt lat="37.03742173500359058380126953125" lon="-8.98128611035645008087158203125">
        <ele>66.8000030517578125</ele>
        <time>2026-04-28T11:41:01.000Z</time>
        <extensions>
          <ns3:TrackPointExtension>
            <ns3:hr>131</ns3:hr>
            <ns3:cad>61</ns3:cad>
          </ns3:TrackPointExtension>
        </extensions>
      </trkpt>
      <trkpt lat="37.0374426059424877166748046875" lon="-8.981269262731075286865234375">
        <ele>67</ele>
        <time>2026-04-28T11:41:03.000Z</time>
        <extensions>
          <ns3:TrackPointExtension>
            <ns3:hr>132</ns3:hr>
            <ns3:cad>59</ns3:cad>
          </ns3:TrackPointExtension>
        </extensions>
      </trkpt>
      <trkpt lat="37.03750823624432086944580078125" lon="-8.981271274387836456298828125">
        <ele>67.1999969482421875</ele>
        <time>2026-04-28T11:41:08.000Z</time>
        <extensions>
          <ns3:TrackPointExtension>
            <ns3:hr>130</ns3:hr>
            <ns3:cad>59</ns3:cad>
          </ns3:TrackPointExtension>
        </extensions>
      </trkpt>
      <trkpt lat="37.0375525765120983123779296875" lon="-8.9812704361975193023681640625">
        <ele>67.1999969482421875</ele>
        <time>2026-04-28T11:41:12.000Z</time>
        <extensions>
          <ns3:TrackPointExtension>
            <ns3:hr>132</ns3:hr>
            <ns3:cad>61</ns3:cad>
          </ns3:TrackPointExtension>
        </extensions>
      </trkpt>
      <trkpt lat="37.03759004361927509307861328125" lon="-8.9812526665627956390380859375">
        <ele>66.8000030517578125</ele>
        <time>2026-04-28T11:41:15.000Z</time>
        <extensions>
          <ns3:TrackPointExtension>
            <ns3:hr>132</ns3:hr>
            <ns3:cad>61</ns3:cad>
          </ns3:TrackPointExtension>
        </extensions>
      </trkpt>
      <trkpt lat="37.037676461040973663330078125" lon="-8.98123682476580142974853515625">
        <ele>66.1999969482421875</ele>
        <time>2026-04-28T11:41:22.000Z</time>
        <extensions>
          <ns3:TrackPointExtension>
            <ns3:hr>132</ns3:hr>
            <ns3:cad>56</ns3:cad>
          </ns3:TrackPointExtension>
        </extensions>
      </trkpt>
      <trkpt lat="37.037753574550151824951171875" lon="-8.9812312088906764984130859375">
        <ele>66</ele>
        <time>2026-04-28T11:41:28.000Z</time>
        <extensions>
          <ns3:TrackPointExtension>
            <ns3:hr>130</ns3:hr>
            <ns3:cad>60</ns3:cad>
          </ns3:TrackPointExtension>
        </extensions>
      </trkpt>
      <trkpt lat="37.03779338859021663665771484375" lon="-8.98122358135879039764404296875">
        <ele>66</ele>
        <time>2026-04-28T11:41:31.000Z</time>
        <extensions>
          <ns3:TrackPointExtension>
            <ns3:hr>129</ns3:hr>
            <ns3:cad>61</ns3:cad>
          </ns3:TrackPointExtension>
        </extensions>
      </trkpt>
      <trkpt lat="37.037839405238628387451171875" lon="-8.98119742982089519500732421875">
        <ele>66</ele>
        <time>2026-04-28T11:41:35.000Z</time>
        <extensions>
          <ns3:TrackPointExtension>
            <ns3:hr>128</ns3:hr>
            <ns3:cad>59</ns3:cad>
          </ns3:TrackPointExtension>
        </extensions>
      </trkpt>
      <trkpt lat="37.03793697059154510498046875" lon="-8.981211595237255096435546875">
        <ele>66</ele>
        <time>2026-04-28T11:41:42.000Z</time>
        <extensions>
          <ns3:TrackPointExtension>
            <ns3:hr>128</ns3:hr>
            <ns3:cad>59</ns3:cad>
          </ns3:TrackPointExtension>
        </extensions>
      </trkpt>
      <trkpt lat="37.03794996254146099090576171875" lon="-8.9812137745320796966552734375">
        <ele>65.8000030517578125</ele>
        <time>2026-04-28T11:41:43.000Z</time>
        <extensions>
          <ns3:TrackPointExtension>
            <ns3:hr>129</ns3:hr>
            <ns3:cad>60</ns3:cad>
          </ns3:TrackPointExtension>
        </extensions>
      </trkpt>
      <trkpt lat="37.03804383985698223114013671875" lon="-8.9811665005981922149658203125">
        <ele>65.8000030517578125</ele>
        <time>2026-04-28T11:41:51.000Z</time>
        <extensions>
          <ns3:TrackPointExtension>
            <ns3:hr>129</ns3:hr>
            <ns3:cad>60</ns3:cad>
          </ns3:TrackPointExtension>
        </extensions>
      </trkpt>
      <trkpt lat="37.03809614293277263641357421875" lon="-8.98112148977816104888916015625">
        <ele>65.8000030517578125</ele>
        <time>2026-04-28T11:41:57.000Z</time>
        <extensions>
          <ns3:TrackPointExtension>
            <ns3:hr>129</ns3:hr>
            <ns3:cad>0</ns3:cad>
          </ns3:TrackPointExtension>
        </extensions>
      </trkpt>
      <trkpt lat="37.03810787759721279144287109375" lon="-8.98111562244594097137451171875">
        <ele>65.8000030517578125</ele>
        <time>2026-04-28T11:41:58.000Z</time>
        <extensions>
          <ns3:TrackPointExtension>
            <ns3:hr>129</ns3:hr>
            <ns3:cad>0</ns3:cad>
          </ns3:TrackPointExtension>
        </extensions>
      </trkpt>
      <trkpt lat="37.03816319815814495086669921875" lon="-8.981127105653285980224609375">
        <ele>65.59999847412109375</ele>
        <time>2026-04-28T11:42:04.000Z</time>
        <extensions>
          <ns3:TrackPointExtension>
            <ns3:hr>127</ns3:hr>
            <ns3:cad>54</ns3:cad>
          </ns3:TrackPointExtension>
        </extensions>
      </trkpt>
      <trkpt lat="37.03825238160789012908935546875" lon="-8.98113347589969635009765625">
        <ele>66.1999969482421875</ele>
        <time>2026-04-28T11:42:12.000Z</time>
        <extensions>
          <ns3:TrackPointExtension>
            <ns3:hr>124</ns3:hr>
            <ns3:cad>0</ns3:cad>
          </ns3:TrackPointExtension>
        </extensions>
      </trkpt>
      <trkpt lat="37.038289345800876617431640625" lon="-8.98112501017749309539794921875">
        <ele>65.8000030517578125</ele>
        <time>2026-04-28T11:42:18.000Z</time>
        <extensions>
          <ns3:TrackPointExtension>
            <ns3:hr>122</ns3:hr>
            <ns3:cad>0</ns3:cad>
          </ns3:TrackPointExtension>
        </extensions>
      </trkpt>
      <trkpt lat="37.03839437104761600494384765625" lon="-8.98107354529201984405517578125">
        <ele>65.8000030517578125</ele>
        <time>2026-04-28T11:42:26.000Z</time>
        <extensions>
          <ns3:TrackPointExtension>
            <ns3:hr>123</ns3:hr>
            <ns3:cad>62</ns3:cad>
          </ns3:TrackPointExtension>
        </extensions>
      </trkpt>
      <trkpt lat="37.03846712596714496612548828125" lon="-8.9810590445995330810546875">
        <ele>65.59999847412109375</ele>
        <time>2026-04-28T11:42:32.000Z</time>
        <extensions>
          <ns3:TrackPointExtension>
            <ns3:hr>126</ns3:hr>
            <ns3:cad>60</ns3:cad>
          </ns3:TrackPointExtension>
        </extensions>
      </trkpt>
      <trkpt lat="37.03847902826964855194091796875" lon="-8.9810484834015369415283203125">
        <ele>65.59999847412109375</ele>
        <time>2026-04-28T11:42:33.000Z</time>
        <extensions>
          <ns3:TrackPointExtension>
            <ns3:hr>128</ns3:hr>
            <ns3:cad>60</ns3:cad>
          </ns3:TrackPointExtension>
        </extensions>
      </trkpt>
      <trkpt lat="37.03858849592506885528564453125" lon="-8.98099265992641448974609375">
        <ele>65.59999847412109375</ele>
        <time>2026-04-28T11:42:42.000Z</time>
        <extensions>
          <ns3:TrackPointExtension>
            <ns3:hr>129</ns3:hr>
            <ns3:cad>61</ns3:cad>
          </ns3:TrackPointExtension>
        </extensions>
      </trkpt>
      <trkpt lat="37.0386780984699726104736328125" lon="-8.9809670113027095794677734375">
        <ele>65.59999847412109375</ele>
        <time>2026-04-28T11:42:49.000Z</time>
        <extensions>
          <ns3:TrackPointExtension>
            <ns3:hr>127</ns3:hr>
            <ns3:cad>59</ns3:cad>
          </ns3:TrackPointExtension>
        </extensions>
      </trkpt>
      <trkpt lat="37.03880139626562595367431640625" lon="-8.98095904849469661712646484375">
        <ele>65.59999847412109375</ele>
        <time>2026-04-28T11:42:59.000Z</time>
        <extensions>
          <ns3:TrackPointExtension>
            <ns3:hr>128</ns3:hr>
            <ns3:cad>59</ns3:cad>
          </ns3:TrackPointExtension>
        </extensions>
      </trkpt>
      <trkpt lat="37.038894854485988616943359375" lon="-8.98095200769603252410888671875">
        <ele>66.1999969482421875</ele>
        <time>2026-04-28T11:43:06.000Z</time>
        <extensions>
          <ns3:TrackPointExtension>
            <ns3:hr>131</ns3:hr>
            <ns3:cad>61</ns3:cad>
          </ns3:TrackPointExtension>
        </extensions>
      </trkpt>
      <trkpt lat="37.03890751115977764129638671875" lon="-8.98095251061022281646728515625">
        <ele>66.1999969482421875</ele>
        <time>2026-04-28T11:43:07.000Z</time>
        <extensions>
          <ns3:TrackPointExtension>
            <ns3:hr>132</ns3:hr>
            <ns3:cad>62</ns3:cad>
          </ns3:TrackPointExtension>
        </extensions>
      </trkpt>
      <trkpt lat="37.03900993801653385162353515625" lon="-8.9809569530189037322998046875">
        <ele>65.8000030517578125</ele>
        <time>2026-04-28T11:43:15.000Z</time>
        <extensions>
          <ns3:TrackPointExtension>
            <ns3:hr>131</ns3:hr>
            <ns3:cad>62</ns3:cad>
          </ns3:TrackPointExtension>
        </extensions>
      </trkpt>
      <trkpt lat="37.0390824414789676666259765625" lon="-8.98096256889402866363525390625">
        <ele>65.8000030517578125</ele>
        <time>2026-04-28T11:43:21.000Z</time>
        <extensions>
          <ns3:TrackPointExtension>
            <ns3:hr>130</ns3:hr>
            <ns3:cad>61</ns3:cad>
          </ns3:TrackPointExtension>
        </extensions>
      </trkpt>
      <trkpt lat="37.0391488261520862579345703125" lon="-8.980943374335765838623046875">
        <ele>66</ele>
        <time>2026-04-28T11:43:26.000Z</time>
        <extensions>
          <ns3:TrackPointExtension>
            <ns3:hr>129</ns3:hr>
            <ns3:cad>61</ns3:cad>
          </ns3:TrackPointExtension>
        </extensions>
      </trkpt>
      <trkpt lat="37.0392423681914806365966796875" lon="-8.9809784106910228729248046875">
        <ele>66</ele>
        <time>2026-04-28T11:43:34.000Z</time>
        <extensions>
          <ns3:TrackPointExtension>
            <ns3:hr>128</ns3:hr>
            <ns3:cad>61</ns3:cad>
          </ns3:TrackPointExtension>
        </extensions>
      </trkpt>
      <trkpt lat="37.0393275283277034759521484375" lon="-8.98103825747966766357421875">
        <ele>66</ele>
        <time>2026-04-28T11:43:42.000Z</time>
        <extensions>
          <ns3:TrackPointExtension>
            <ns3:hr>128</ns3:hr>
            <ns3:cad>0</ns3:cad>
          </ns3:TrackPointExtension>
        </extensions>
      </trkpt>
      <trkpt lat="37.03933649696409702301025390625" lon="-8.98105041123926639556884765625">
        <ele>66</ele>
        <time>2026-04-28T11:43:43.000Z</time>
        <extensions>
          <ns3:TrackPointExtension>
            <ns3:hr>129</ns3:hr>
            <ns3:cad>0</ns3:cad>
          </ns3:TrackPointExtension>
        </extensions>
      </trkpt>
      <trkpt lat="37.03939734958112239837646484375" lon="-8.981096930801868438720703125">
        <ele>66</ele>
        <time>2026-04-28T11:43:48.000Z</time>
        <extensions>
          <ns3:TrackPointExtension>
            <ns3:hr>127</ns3:hr>
            <ns3:cad>58</ns3:cad>
          </ns3:TrackPointExtension>
        </extensions>
      </trkpt>
      <trkpt lat="37.03947714529931545257568359375" lon="-8.981167338788509368896484375">
        <ele>66</ele>
        <time>2026-04-28T11:43:56.000Z</time>
        <extensions>
          <ns3:TrackPointExtension>
            <ns3:hr>128</ns3:hr>
            <ns3:cad>60</ns3:cad>
          </ns3:TrackPointExtension>
        </extensions>
      </trkpt>
      <trkpt lat="37.03960605897009372711181640625" lon="-8.9811433665454387664794921875">
        <ele>66</ele>
        <time>2026-04-28T11:44:06.000Z</time>
        <extensions>
          <ns3:TrackPointExtension>
            <ns3:hr>126</ns3:hr>
            <ns3:cad>56</ns3:cad>
          </ns3:TrackPointExtension>
        </extensions>
      </trkpt>
      <trkpt lat="37.0396839268505573272705078125" lon="-8.98109466768801212310791015625">
        <ele>66.1999969482421875</ele>
        <time>2026-04-28T11:44:14.000Z</time>
        <extensions>
          <ns3:TrackPointExtension>
            <ns3:hr>125</ns3:hr>
            <ns3:cad>65</ns3:cad>
          </ns3:TrackPointExtension>
        </extensions>
      </trkpt>
      <trkpt lat="37.03972466289997100830078125" lon="-8.9810927398502826690673828125">
        <ele>66.1999969482421875</ele>
        <time>2026-04-28T11:44:18.000Z</time>
        <extensions>
          <ns3:TrackPointExtension>
            <ns3:hr>124</ns3:hr>
            <ns3:cad>0</ns3:cad>
          </ns3:TrackPointExtension>
        </extensions>
      </trkpt>
      <trkpt lat="37.03974251635372638702392578125" lon="-8.98111143149435520172119140625">
        <ele>66.1999969482421875</ele>
        <time>2026-04-28T11:44:20.000Z</time>
        <extensions>
          <ns3:TrackPointExtension>
            <ns3:hr>125</ns3:hr>
            <ns3:cad>0</ns3:cad>
          </ns3:TrackPointExtension>
        </extensions>
      </trkpt>
      <trkpt lat="37.039808817207813262939453125" lon="-8.98114780895411968231201171875">
        <ele>66.40000152587890625</ele>
        <time>2026-04-28T11:44:26.000Z</time>
        <extensions>
          <ns3:TrackPointExtension>
            <ns3:hr>126</ns3:hr>
            <ns3:cad>0</ns3:cad>
          </ns3:TrackPointExtension>
        </extensions>
      </trkpt>
      <trkpt lat="37.03983186744153499603271484375" lon="-8.9811368286609649658203125">
        <ele>66.59999847412109375</ele>
        <time>2026-04-28T11:44:28.000Z</time>
        <extensions>
          <ns3:TrackPointExtension>
            <ns3:hr>127</ns3:hr>
            <ns3:cad>0</ns3:cad>
          </ns3:TrackPointExtension>
        </extensions>
      </trkpt>
      <trkpt lat="37.03991954214870929718017578125" lon="-8.98108192719519138336181640625">
        <ele>66.59999847412109375</ele>
        <time>2026-04-28T11:44:36.000Z</time>
        <extensions>
          <ns3:TrackPointExtension>
            <ns3:hr>126</ns3:hr>
            <ns3:cad>54</ns3:cad>
          </ns3:TrackPointExtension>
        </extensions>
      </trkpt>
      <trkpt lat="37.0400016009807586669921875" lon="-8.98103892803192138671875">
        <ele>66.8000030517578125</ele>
        <time>2026-04-28T11:44:43.000Z</time>
        <extensions>
          <ns3:TrackPointExtension>
            <ns3:hr>127</ns3:hr>
            <ns3:cad>57</ns3:cad>
          </ns3:TrackPointExtension>
        </extensions>
      </trkpt>
      <trkpt lat="37.04004761762917041778564453125" lon="-8.98100070655345916748046875">
        <ele>67</ele>
        <time>2026-04-28T11:44:48.000Z</time>
        <extensions>
          <ns3:TrackPointExtension>
            <ns3:hr>124</ns3:hr>
            <ns3:cad>0</ns3:cad>
          </ns3:TrackPointExtension>
        </extensions>
      </trkpt>
      <trkpt lat="37.04007360152900218963623046875" lon="-8.9809760637581348419189453125">
        <ele>67.40000152587890625</ele>
        <time>2026-04-28T11:44:51.000Z</time>
        <extensions>
          <ns3:TrackPointExtension>
            <ns3:hr>123</ns3:hr>
            <ns3:cad>61</ns3:cad>
          </ns3:TrackPointExtension>
        </extensions>
      </trkpt>
      <trkpt lat="37.04008516855537891387939453125" lon="-8.980975560843944549560546875">
        <ele>67.40000152587890625</ele>
        <time>2026-04-28T11:44:52.000Z</time>
        <extensions>
          <ns3:TrackPointExtension>
            <ns3:hr>122</ns3:hr>
            <ns3:cad>61</ns3:cad>
          </ns3:TrackPointExtension>
        </extensions>
      </trkpt>
      <trkpt lat="37.04013261012732982635498046875" lon="-8.9809519238770008087158203125">
        <ele>67.40000152587890625</ele>
        <time>2026-04-28T11:44:57.000Z</time>
        <extensions>
          <ns3:TrackPointExtension>
            <ns3:hr>121</ns3:hr>
            <ns3:cad>58</ns3:cad>
          </ns3:TrackPointExtension>
        </extensions>
      </trkpt>
      <trkpt lat="37.04018172807991504669189453125" lon="-8.9809237606823444366455078125">
        <ele>66.8000030517578125</ele>
        <time>2026-04-28T11:45:01.000Z</time>
        <extensions>
          <ns3:TrackPointExtension>
            <ns3:hr>118</ns3:hr>
            <ns3:cad>57</ns3:cad>
          </ns3:TrackPointExtension>
        </extensions>
      </trkpt>
      <trkpt lat="37.04023989848792552947998046875" lon="-8.98086701519787311553955078125">
        <ele>66</ele>
        <time>2026-04-28T11:45:07.000Z</time>
        <extensions>
          <ns3:TrackPointExtension>
            <ns3:hr>116</ns3:hr>
            <ns3:cad>61</ns3:cad>
          </ns3:TrackPointExtension>
        </extensions>
      </trkpt>
      <trkpt lat="37.0403004996478557586669921875" lon="-8.98082979954779148101806640625">
        <ele>66</ele>
        <time>2026-04-28T11:45:12.000Z</time>
        <extensions>
          <ns3:TrackPointExtension>
            <ns3:hr>119</ns3:hr>
            <ns3:cad>61</ns3:cad>
          </ns3:TrackPointExtension>
        </extensions>
      </trkpt>
      <trkpt lat="37.04035556875169277191162109375" lon="-8.980784453451633453369140625">
        <ele>65.59999847412109375</ele>
        <time>2026-04-28T11:45:17.000Z</time>
        <extensions>
          <ns3:TrackPointExtension>
            <ns3:hr>118</ns3:hr>
            <ns3:cad>62</ns3:cad>
          </ns3:TrackPointExtension>
        </extensions>
      </trkpt>
      <trkpt lat="37.04046637751162052154541015625" lon="-8.98070298135280609130859375">
        <ele>66.1999969482421875</ele>
        <time>2026-04-28T11:45:27.000Z</time>
        <extensions>
          <ns3:TrackPointExtension>
            <ns3:hr>121</ns3:hr>
            <ns3:cad>60</ns3:cad>
          </ns3:TrackPointExtension>
        </extensions>
      </trkpt>
      <trkpt lat="37.040508873760700225830078125" lon="-8.98058135993778705596923828125">
        <ele>65.8000030517578125</ele>
        <time>2026-04-28T11:45:35.000Z</time>
        <extensions>
          <ns3:TrackPointExtension>
            <ns3:hr>122</ns3:hr>
            <ns3:cad>59</ns3:cad>
          </ns3:TrackPointExtension>
        </extensions>
      </trkpt>
      <trkpt lat="37.04059797339141368865966796875" lon="-8.98052805103361606597900390625">
        <ele>66.1999969482421875</ele>
        <time>2026-04-28T11:45:43.000Z</time>
        <extensions>
          <ns3:TrackPointExtension>
            <ns3:hr>122</ns3:hr>
            <ns3:cad>61</ns3:cad>
          </ns3:TrackPointExtension>
        </extensions>
      </trkpt>
      <trkpt lat="37.04068279825150966644287109375" lon="-8.98051698692142963409423828125">
        <ele>66.1999969482421875</ele>
        <time>2026-04-28T11:45:50.000Z</time>
        <extensions>
          <ns3:TrackPointExtension>
            <ns3:hr>121</ns3:hr>
            <ns3:cad>56</ns3:cad>
          </ns3:TrackPointExtension>
        </extensions>
      </trkpt>
      <trkpt lat="37.0407165773212909698486328125" lon="-8.980490751564502716064453125">
        <ele>66.1999969482421875</ele>
        <time>2026-04-28T11:45:53.000Z</time>
        <extensions>
          <ns3:TrackPointExtension>
            <ns3:hr>118</ns3:hr>
            <ns3:cad>61</ns3:cad>
          </ns3:TrackPointExtension>
        </extensions>
      </trkpt>
      <trkpt lat="37.04076997004449367523193359375" lon="-8.9804604090750217437744140625">
        <ele>66.40000152587890625</ele>
        <time>2026-04-28T11:45:58.000Z</time>
        <extensions>
          <ns3:TrackPointExtension>
            <ns3:hr>119</ns3:hr>
            <ns3:cad>62</ns3:cad>
          </ns3:TrackPointExtension>
        </extensions>
      </trkpt>
      <trkpt lat="37.0408666133880615234375" lon="-8.98043585009872913360595703125">
        <ele>66.59999847412109375</ele>
        <time>2026-04-28T11:46:06.000Z</time>
        <extensions>
          <ns3:TrackPointExtension>
            <ns3:hr>121</ns3:hr>
            <ns3:cad>62</ns3:cad>
          </ns3:TrackPointExtension>
        </extensions>
      </trkpt>
      <trkpt lat="37.0409281365573406219482421875" lon="-8.98039662279188632965087890625">
        <ele>66.8000030517578125</ele>
        <time>2026-04-28T11:46:11.000Z</time>
        <extensions>
          <ns3:TrackPointExtension>
            <ns3:hr>124</ns3:hr>
            <ns3:cad>62</ns3:cad>
          </ns3:TrackPointExtension>
        </extensions>
      </trkpt>
      <trkpt lat="37.040963508188724517822265625" lon="-8.9803651906549930572509765625">
        <ele>67.1999969482421875</ele>
        <time>2026-04-28T11:46:14.000Z</time>
        <extensions>
          <ns3:TrackPointExtension>
            <ns3:hr>125</ns3:hr>
            <ns3:cad>63</ns3:cad>
          </ns3:TrackPointExtension>
        </extensions>
      </trkpt>
      <trkpt lat="37.0409727282822132110595703125" lon="-8.9803534559905529022216796875">
        <ele>67.1999969482421875</ele>
        <time>2026-04-28T11:46:15.000Z</time>
        <extensions>
          <ns3:TrackPointExtension>
            <ns3:hr>125</ns3:hr>
            <ns3:cad>61</ns3:cad>
          </ns3:TrackPointExtension>
        </extensions>
      </trkpt>
      <trkpt lat="37.041029892861843109130859375" lon="-8.9802843891084194183349609375">
        <ele>66.8000030517578125</ele>
        <time>2026-04-28T11:46:21.000Z</time>
        <extensions>
          <ns3:TrackPointExtension>
            <ns3:hr>128</ns3:hr>
            <ns3:cad>63</ns3:cad>
          </ns3:TrackPointExtension>
        </extensions>
      </trkpt>
      <trkpt lat="37.04106149263679981231689453125" lon="-8.98025999777019023895263671875">
        <ele>67</ele>
        <time>2026-04-28T11:46:24.000Z</time>
        <extensions>
          <ns3:TrackPointExtension>
            <ns3:hr>131</ns3:hr>
            <ns3:cad>63</ns3:cad>
          </ns3:TrackPointExtension>
        </extensions>
      </trkpt>
      <trkpt lat="37.04107121564447879791259765625" lon="-8.98025010712444782257080078125">
        <ele>67.1999969482421875</ele>
        <time>2026-04-28T11:46:25.000Z</time>
        <extensions>
          <ns3:TrackPointExtension>
            <ns3:hr>132</ns3:hr>
            <ns3:cad>63</ns3:cad>
          </ns3:TrackPointExtension>
        </extensions>
      </trkpt>
      <trkpt lat="37.0411363430321216583251953125" lon="-8.98020987398922443389892578125">
        <ele>67.1999969482421875</ele>
        <time>2026-04-28T11:46:31.000Z</time>
        <extensions>
          <ns3:TrackPointExtension>
            <ns3:hr>129</ns3:hr>
            <ns3:cad>60</ns3:cad>
          </ns3:TrackPointExtension>
        </extensions>
      </trkpt>
      <trkpt lat="37.041172049939632415771484375" lon="-8.980189673602581024169921875">
        <ele>67.59999847412109375</ele>
        <time>2026-04-28T11:46:34.000Z</time>
        <extensions>
          <ns3:TrackPointExtension>
            <ns3:hr>126</ns3:hr>
            <ns3:cad>60</ns3:cad>
          </ns3:TrackPointExtension>
        </extensions>
      </trkpt>
      <trkpt lat="37.04120851121842861175537109375" lon="-8.9801670424640178680419921875">
        <ele>67.59999847412109375</ele>
        <time>2026-04-28T11:46:37.000Z</time>
        <extensions>
          <ns3:TrackPointExtension>
            <ns3:hr>125</ns3:hr>
            <ns3:cad>61</ns3:cad>
          </ns3:TrackPointExtension>
        </extensions>
      </trkpt>
      <trkpt lat="37.0413132011890411376953125" lon="-8.980111218988895416259765625">
        <ele>67.8000030517578125</ele>
        <time>2026-04-28T11:46:46.000Z</time>
        <extensions>
          <ns3:TrackPointExtension>
            <ns3:hr>124</ns3:hr>
            <ns3:cad>54</ns3:cad>
          </ns3:TrackPointExtension>
        </extensions>
      </trkpt>
      <trkpt lat="37.04141051508486270904541015625" lon="-8.97999982349574565887451171875">
        <ele>67.8000030517578125</ele>
        <time>2026-04-28T11:46:56.000Z</time>
        <extensions>
          <ns3:TrackPointExtension>
            <ns3:hr>122</ns3:hr>
            <ns3:cad>0</ns3:cad>
          </ns3:TrackPointExtension>
        </extensions>
      </trkpt>
      <trkpt lat="37.04147748649120330810546875" lon="-8.9799313433468341827392578125">
        <ele>68</ele>
        <time>2026-04-28T11:47:03.000Z</time>
        <extensions>
          <ns3:TrackPointExtension>
            <ns3:hr>119</ns3:hr>
            <ns3:cad>62</ns3:cad>
          </ns3:TrackPointExtension>
        </extensions>
      </trkpt>
      <trkpt lat="37.04148779623210430145263671875" lon="-8.97992505691945552825927734375">
        <ele>68</ele>
        <time>2026-04-28T11:47:04.000Z</time>
        <extensions>
          <ns3:TrackPointExtension>
            <ns3:hr>118</ns3:hr>
            <ns3:cad>62</ns3:cad>
          </ns3:TrackPointExtension>
        </extensions>
      </trkpt>
      <trkpt lat="37.04160061664879322052001953125" lon="-8.9798743464052677154541015625">
        <ele>68</ele>
        <time>2026-04-28T11:47:14.000Z</time>
        <extensions>
          <ns3:TrackPointExtension>
            <ns3:hr>118</ns3:hr>
            <ns3:cad>59</ns3:cad>
          </ns3:TrackPointExtension>
        </extensions>
      </trkpt>
      <trkpt lat="37.04161855392158031463623046875" lon="-8.97986956872045993804931640625">
        <ele>68</ele>
        <time>2026-04-28T11:47:16.000Z</time>
        <extensions>
          <ns3:TrackPointExtension>
            <ns3:hr>119</ns3:hr>
            <ns3:cad>58</ns3:cad>
          </ns3:TrackPointExtension>
        </extensions>
      </trkpt>
      <trkpt lat="37.0416426099836826324462890625" lon="-8.97988113574683666229248046875">
        <ele>67.1999969482421875</ele>
        <time>2026-04-28T11:49:09.000Z</time>
        <extensions>
          <ns3:TrackPointExtension>
            <ns3:hr>118</ns3:hr>
            <ns3:cad>0</ns3:cad>
          </ns3:TrackPointExtension>
        </extensions>
      </trkpt>
      <trkpt lat="37.04162894748151302337646484375" lon="-8.97985749877989292144775390625">
        <ele>67.1999969482421875</ele>
        <time>2026-04-28T11:49:11.000Z</time>
        <extensions>
          <ns3:TrackPointExtension>
            <ns3:hr>117</ns3:hr>
            <ns3:cad>0</ns3:cad>
          </ns3:TrackPointExtension>
        </extensions>
      </trkpt>
      <trkpt lat="37.041631378233432769775390625" lon="-8.979844339191913604736328125">
        <ele>67.1999969482421875</ele>
        <time>2026-04-28T11:49:12.000Z</time>
        <extensions>
          <ns3:TrackPointExtension>
            <ns3:hr>117</ns3:hr>
            <ns3:cad>55</ns3:cad>
          </ns3:TrackPointExtension>
        </extensions>
      </trkpt>
      <trkpt lat="37.041668929159641265869140625" lon="-8.9797903597354888916015625">
        <ele>67.59999847412109375</ele>
        <time>2026-04-28T11:49:16.000Z</time>
        <extensions>
          <ns3:TrackPointExtension>
            <ns3:hr>116</ns3:hr>
            <ns3:cad>58</ns3:cad>
          </ns3:TrackPointExtension>
        </extensions>
      </trkpt>
      <trkpt lat="37.0417247526347637176513671875" lon="-8.97970327176153659820556640625">
        <ele>67.40000152587890625</ele>
        <time>2026-04-28T11:49:23.000Z</time>
        <extensions>
          <ns3:TrackPointExtension>
            <ns3:hr>117</ns3:hr>
            <ns3:cad>0</ns3:cad>
          </ns3:TrackPointExtension>
        </extensions>
      </trkpt>
      <trkpt lat="37.04177320003509521484375" lon="-8.9796285890042781829833984375">
        <ele>67.59999847412109375</ele>
        <time>2026-04-28T11:49:29.000Z</time>
        <extensions>
          <ns3:TrackPointExtension>
            <ns3:hr>120</ns3:hr>
            <ns3:cad>62</ns3:cad>
          </ns3:TrackPointExtension>
        </extensions>
      </trkpt>
      <trkpt lat="37.0417928136885166168212890625" lon="-8.979603946208953857421875">
        <ele>67.40000152587890625</ele>
        <time>2026-04-28T11:49:31.000Z</time>
        <extensions>
          <ns3:TrackPointExtension>
            <ns3:hr>122</ns3:hr>
            <ns3:cad>62</ns3:cad>
          </ns3:TrackPointExtension>
        </extensions>
      </trkpt>
      <trkpt lat="37.0418952405452728271484375" lon="-8.97952255792915821075439453125">
        <ele>67.8000030517578125</ele>
        <time>2026-04-28T11:49:40.000Z</time>
        <extensions>
          <ns3:TrackPointExtension>
            <ns3:hr>123</ns3:hr>
            <ns3:cad>0</ns3:cad>
          </ns3:TrackPointExtension>
        </extensions>
      </trkpt>
      <trkpt lat="37.04195483587682247161865234375" lon="-8.979486264288425445556640625">
        <ele>67.59999847412109375</ele>
        <time>2026-04-28T11:49:45.000Z</time>
        <extensions>
          <ns3:TrackPointExtension>
            <ns3:hr>120</ns3:hr>
            <ns3:cad>0</ns3:cad>
          </ns3:TrackPointExtension>
        </extensions>
      </trkpt>
      <trkpt lat="37.04197931103408336639404296875" lon="-8.979470171034336090087890625">
        <ele>67.59999847412109375</ele>
        <time>2026-04-28T11:49:47.000Z</time>
        <extensions>
          <ns3:TrackPointExtension>
            <ns3:hr>120</ns3:hr>
            <ns3:cad>0</ns3:cad>
          </ns3:TrackPointExtension>
        </extensions>
      </trkpt>
      <trkpt lat="37.0420553348958492279052734375" lon="-8.97940269671380519866943359375">
        <ele>67.59999847412109375</ele>
        <time>2026-04-28T11:49:54.000Z</time>
        <extensions>
          <ns3:TrackPointExtension>
            <ns3:hr>123</ns3:hr>
            <ns3:cad>65</ns3:cad>
          </ns3:TrackPointExtension>
        </extensions>
      </trkpt>
      <trkpt lat="37.0420650579035282135009765625" lon="-8.979390375316143035888671875">
        <ele>67.8000030517578125</ele>
        <time>2026-04-28T11:49:55.000Z</time>
        <extensions>
          <ns3:TrackPointExtension>
            <ns3:hr>123</ns3:hr>
            <ns3:cad>64</ns3:cad>
          </ns3:TrackPointExtension>
        </extensions>
      </trkpt>
      <trkpt lat="37.042145691812038421630859375" lon="-8.97929842583835124969482421875">
        <ele>67.8000030517578125</ele>
        <time>2026-04-28T11:50:03.000Z</time>
        <extensions>
          <ns3:TrackPointExtension>
            <ns3:hr>126</ns3:hr>
            <ns3:cad>62</ns3:cad>
          </ns3:TrackPointExtension>
        </extensions>
      </trkpt>
      <trkpt lat="37.0421666465699672698974609375" lon="-8.97925819270312786102294921875">
        <ele>67.59999847412109375</ele>
        <time>2026-04-28T11:50:06.000Z</time>
        <extensions>
          <ns3:TrackPointExtension>
            <ns3:hr>126</ns3:hr>
            <ns3:cad>62</ns3:cad>
          </ns3:TrackPointExtension>
        </extensions>
      </trkpt>
      <trkpt lat="37.04224996268749237060546875" lon="-8.97918862290680408477783203125">
        <ele>67.59999847412109375</ele>
        <time>2026-04-28T11:50:14.000Z</time>
        <extensions>
          <ns3:TrackPointExtension>
            <ns3:hr>124</ns3:hr>
            <ns3:cad>60</ns3:cad>
          </ns3:TrackPointExtension>
        </extensions>
      </trkpt>
      <trkpt lat="37.04233168624341487884521484375" lon="-8.979146294295787811279296875">
        <ele>67.1999969482421875</ele>
        <time>2026-04-28T11:50:21.000Z</time>
        <extensions>
          <ns3:TrackPointExtension>
            <ns3:hr>123</ns3:hr>
            <ns3:cad>61</ns3:cad>
          </ns3:TrackPointExtension>
        </extensions>
      </trkpt>
      <trkpt lat="37.0424050278961658477783203125" lon="-8.97910832427442073822021484375">
        <ele>66.1999969482421875</ele>
        <time>2026-04-28T11:50:27.000Z</time>
        <extensions>
          <ns3:TrackPointExtension>
            <ns3:hr>120</ns3:hr>
            <ns3:cad>62</ns3:cad>
          </ns3:TrackPointExtension>
        </extensions>
      </trkpt>
      <trkpt lat="37.0424382202327251434326171875" lon="-8.97907546721398830413818359375">
        <ele>66.40000152587890625</ele>
        <time>2026-04-28T11:50:30.000Z</time>
        <extensions>
          <ns3:TrackPointExtension>
            <ns3:hr>119</ns3:hr>
            <ns3:cad>62</ns3:cad>
          </ns3:TrackPointExtension>
        </extensions>
      </trkpt>
      <trkpt lat="37.0424759387969970703125" lon="-8.9790136925876140594482421875">
        <ele>66.59999847412109375</ele>
        <time>2026-04-28T11:50:38.000Z</time>
        <extensions>
          <ns3:TrackPointExtension>
            <ns3:hr>119</ns3:hr>
            <ns3:cad>0</ns3:cad>
          </ns3:TrackPointExtension>
        </extensions>
      </trkpt>
      <trkpt lat="37.0425096340477466583251953125" lon="-8.97898376919329166412353515625">
        <ele>66.8000030517578125</ele>
        <time>2026-04-28T11:50:43.000Z</time>
        <extensions>
          <ns3:TrackPointExtension>
            <ns3:hr>119</ns3:hr>
            <ns3:cad>0</ns3:cad>
          </ns3:TrackPointExtension>
        </extensions>
      </trkpt>
      <trkpt lat="37.04255565069615840911865234375" lon="-8.97892543114721775054931640625">
        <ele>67.59999847412109375</ele>
        <time>2026-04-28T11:50:48.000Z</time>
        <extensions>
          <ns3:TrackPointExtension>
            <ns3:hr>122</ns3:hr>
            <ns3:cad>65</ns3:cad>
          </ns3:TrackPointExtension>
        </extensions>
      </trkpt>
      <trkpt lat="37.0425837300717830657958984375" lon="-8.9788956753909587860107421875">
        <ele>67.1999969482421875</ele>
        <time>2026-04-28T11:50:51.000Z</time>
        <extensions>
          <ns3:TrackPointExtension>
            <ns3:hr>123</ns3:hr>
            <ns3:cad>61</ns3:cad>
          </ns3:TrackPointExtension>
        </extensions>
      </trkpt>
      <trkpt lat="37.042698897421360015869140625" lon="-8.97887748666107654571533203125">
        <ele>66.40000152587890625</ele>
        <time>2026-04-28T11:51:00.000Z</time>
        <extensions>
          <ns3:TrackPointExtension>
            <ns3:hr>120</ns3:hr>
            <ns3:cad>62</ns3:cad>
          </ns3:TrackPointExtension>
        </extensions>
      </trkpt>
      <trkpt lat="37.04277223907411098480224609375" lon="-8.97883976809680461883544921875">
        <ele>66.40000152587890625</ele>
        <time>2026-04-28T11:51:06.000Z</time>
        <extensions>
          <ns3:TrackPointExtension>
            <ns3:hr>121</ns3:hr>
            <ns3:cad>66</ns3:cad>
          </ns3:TrackPointExtension>
        </extensions>
      </trkpt>
      <trkpt lat="37.0427902601659297943115234375" lon="-8.978821076452732086181640625">
        <ele>66</ele>
        <time>2026-04-28T11:51:08.000Z</time>
        <extensions>
          <ns3:TrackPointExtension>
            <ns3:hr>120</ns3:hr>
            <ns3:cad>61</ns3:cad>
          </ns3:TrackPointExtension>
        </extensions>
      </trkpt>
      <trkpt lat="37.04284449107944965362548828125" lon="-8.97876910865306854248046875">
        <ele>65.8000030517578125</ele>
        <time>2026-04-28T11:51:15.000Z</time>
        <extensions>
          <ns3:TrackPointExtension>
            <ns3:hr>120</ns3:hr>
            <ns3:cad>0</ns3:cad>
          </ns3:TrackPointExtension>
        </extensions>
      </trkpt>
      <trkpt lat="37.04286544583737850189208984375" lon="-8.97876952774822711944580078125">
        <ele>65.59999847412109375</ele>
        <time>2026-04-28T11:51:21.000Z</time>
        <extensions>
          <ns3:TrackPointExtension>
            <ns3:hr>121</ns3:hr>
            <ns3:cad>0</ns3:cad>
          </ns3:TrackPointExtension>
        </extensions>
      </trkpt>
      <trkpt lat="37.04288841225206851959228515625" lon="-8.97876248694956302642822265625">
        <ele>65.59999847412109375</ele>
        <time>2026-04-28T11:51:23.000Z</time>
        <extensions>
          <ns3:TrackPointExtension>
            <ns3:hr>125</ns3:hr>
            <ns3:cad>0</ns3:cad>
          </ns3:TrackPointExtension>
        </extensions>
      </trkpt>
      <trkpt lat="37.0429012365639209747314453125" lon="-8.97875477559864521026611328125">
        <ele>65.59999847412109375</ele>
        <time>2026-04-28T11:51:24.000Z</time>
        <extensions>
          <ns3:TrackPointExtension>
            <ns3:hr>128</ns3:hr>
            <ns3:cad>0</ns3:cad>
          </ns3:TrackPointExtension>
        </extensions>
      </trkpt>
      <trkpt lat="37.04291288740932941436767578125" lon="-8.978743962943553924560546875">
        <ele>65.59999847412109375</ele>
        <time>2026-04-28T11:51:25.000Z</time>
        <extensions>
          <ns3:TrackPointExtension>
            <ns3:hr>131</ns3:hr>
            <ns3:cad>47</ns3:cad>
          </ns3:TrackPointExtension>
        </extensions>
      </trkpt>
      <trkpt lat="37.042931579053401947021484375" lon="-8.97869844920933246612548828125">
        <ele>65.8000030517578125</ele>
        <time>2026-04-28T11:51:28.000Z</time>
        <extensions>
          <ns3:TrackPointExtension>
            <ns3:hr>134</ns3:hr>
            <ns3:cad>58</ns3:cad>
          </ns3:TrackPointExtension>
        </extensions>
      </trkpt>
      <trkpt lat="37.0429981313645839691162109375" lon="-8.97863675840198993682861328125">
        <ele>65.8000030517578125</ele>
        <time>2026-04-28T11:51:35.000Z</time>
        <extensions>
          <ns3:TrackPointExtension>
            <ns3:hr>135</ns3:hr>
            <ns3:cad>59</ns3:cad>
          </ns3:TrackPointExtension>
        </extensions>
      </trkpt>
      <trkpt lat="37.04303995706140995025634765625" lon="-8.97864530794322490692138671875">
        <ele>65</ele>
        <time>2026-04-28T11:51:42.000Z</time>
        <extensions>
          <ns3:TrackPointExtension>
            <ns3:hr>133</ns3:hr>
            <ns3:cad>51</ns3:cad>
          </ns3:TrackPointExtension>
        </extensions>
      </trkpt>
      <trkpt lat="37.0430485904216766357421875" lon="-8.97864983417093753814697265625">
        <ele>64.8000030517578125</ele>
        <time>2026-04-28T11:51:43.000Z</time>
        <extensions>
          <ns3:TrackPointExtension>
            <ns3:hr>133</ns3:hr>
            <ns3:cad>51</ns3:cad>
          </ns3:TrackPointExtension>
        </extensions>
      </trkpt>
      <trkpt lat="37.04306426458060741424560546875" lon="-8.97865083999931812286376953125">
        <ele>64.59999847412109375</ele>
        <time>2026-04-28T11:51:48.000Z</time>
        <extensions>
          <ns3:TrackPointExtension>
            <ns3:hr>128</ns3:hr>
            <ns3:cad>0</ns3:cad>
          </ns3:TrackPointExtension>
        </extensions>
      </trkpt>
      <trkpt lat="37.04306459985673427581787109375" lon="-8.97865117527544498443603515625">
        <ele>64.59999847412109375</ele>
        <time>2026-04-28T11:51:50.000Z</time>
        <extensions>
          <ns3:TrackPointExtension>
            <ns3:hr>124</ns3:hr>
            <ns3:cad>0</ns3:cad>
          </ns3:TrackPointExtension>
        </extensions>
      </trkpt>
      <trkpt lat="37.04306459985673427581787109375" lon="-8.97865117527544498443603515625">
        <ele>64.59999847412109375</ele>
        <time>2026-04-28T11:51:56.000Z</time>
        <extensions>
          <ns3:TrackPointExtension>
            <ns3:hr>120</ns3:hr>
            <ns3:cad>0</ns3:cad>
          </ns3:TrackPointExtension>
        </extensions>
      </trkpt>
      <trkpt lat="37.04306459985673427581787109375" lon="-8.97865117527544498443603515625">
        <ele>64.59999847412109375</ele>
        <time>2026-04-28T11:52:02.000Z</time>
        <extensions>
          <ns3:TrackPointExtension>
            <ns3:hr>123</ns3:hr>
            <ns3:cad>0</ns3:cad>
          </ns3:TrackPointExtension>
        </extensions>
      </trkpt>
      <trkpt lat="37.0430588163435459136962890625" lon="-8.978652097284793853759765625">
        <ele>64.8000030517578125</ele>
        <time>2026-04-28T11:52:14.000Z</time>
        <extensions>
          <ns3:TrackPointExtension>
            <ns3:hr>122</ns3:hr>
            <ns3:cad>0</ns3:cad>
          </ns3:TrackPointExtension>
        </extensions>
      </trkpt>
      <trkpt lat="37.04304398037493228912353515625" lon="-8.978589065372943878173828125">
        <ele>65.1999969482421875</ele>
        <time>2026-04-28T11:52:20.000Z</time>
        <extensions>
          <ns3:TrackPointExtension>
            <ns3:hr>123</ns3:hr>
            <ns3:cad>55</ns3:cad>
          </ns3:TrackPointExtension>
        </extensions>
      </trkpt>
      <trkpt lat="37.04310349188745021820068359375" lon="-8.97853818722069263458251953125">
        <ele>64.59999847412109375</ele>
        <time>2026-04-28T11:52:27.000Z</time>
        <extensions>
          <ns3:TrackPointExtension>
            <ns3:hr>124</ns3:hr>
            <ns3:cad>53</ns3:cad>
          </ns3:TrackPointExtension>
        </extensions>
      </trkpt>
      <trkpt lat="37.04313651658594608306884765625" lon="-8.9785082638263702392578125">
        <ele>64.8000030517578125</ele>
        <time>2026-04-28T11:52:31.000Z</time>
        <extensions>
          <ns3:TrackPointExtension>
            <ns3:hr>121</ns3:hr>
            <ns3:cad>0</ns3:cad>
          </ns3:TrackPointExtension>
        </extensions>
      </trkpt>
      <trkpt lat="37.04314724542200565338134765625" lon="-8.978509269654750823974609375">
        <ele>64.8000030517578125</ele>
        <time>2026-04-28T11:52:32.000Z</time>
        <extensions>
          <ns3:TrackPointExtension>
            <ns3:hr>121</ns3:hr>
            <ns3:cad>0</ns3:cad>
          </ns3:TrackPointExtension>
        </extensions>
      </trkpt>
      <trkpt lat="37.04315596260130405426025390625" lon="-8.9785117842257022857666015625">
        <ele>64.8000030517578125</ele>
        <time>2026-04-28T11:52:33.000Z</time>
        <extensions>
          <ns3:TrackPointExtension>
            <ns3:hr>121</ns3:hr>
            <ns3:cad>0</ns3:cad>
          </ns3:TrackPointExtension>
        </extensions>
      </trkpt>
      <trkpt lat="37.04318613745272159576416015625" lon="-8.9785028994083404541015625">
        <ele>64.59999847412109375</ele>
        <time>2026-04-28T11:52:36.000Z</time>
        <extensions>
          <ns3:TrackPointExtension>
            <ns3:hr>118</ns3:hr>
            <ns3:cad>0</ns3:cad>
          </ns3:TrackPointExtension>
        </extensions>
      </trkpt>
      <trkpt lat="37.0432184077799320220947265625" lon="-8.97847884334623813629150390625">
        <ele>64.59999847412109375</ele>
        <time>2026-04-28T11:52:39.000Z</time>
        <extensions>
          <ns3:TrackPointExtension>
            <ns3:hr>118</ns3:hr>
            <ns3:cad>60</ns3:cad>
          </ns3:TrackPointExtension>
        </extensions>
      </trkpt>
      <trkpt lat="37.04331505112349987030029296875" lon="-8.97840994410216808319091796875">
        <ele>65</ele>
        <time>2026-04-28T11:52:48.000Z</time>
        <extensions>
          <ns3:TrackPointExtension>
            <ns3:hr>118</ns3:hr>
            <ns3:cad>60</ns3:cad>
          </ns3:TrackPointExtension>
        </extensions>
      </trkpt>
      <trkpt lat="37.04332360066473484039306640625" lon="-8.9784158952534198760986328125">
        <ele>64.8000030517578125</ele>
        <time>2026-04-28T11:52:49.000Z</time>
        <extensions>
          <ns3:TrackPointExtension>
            <ns3:hr>119</ns3:hr>
            <ns3:cad>60</ns3:cad>
          </ns3:TrackPointExtension>
        </extensions>
      </trkpt>
      <trkpt lat="37.04334455542266368865966796875" lon="-8.978427462279796600341796875">
        <ele>64.8000030517578125</ele>
        <time>2026-04-28T11:52:51.000Z</time>
        <extensions>
          <ns3:TrackPointExtension>
            <ns3:hr>123</ns3:hr>
            <ns3:cad>60</ns3:cad>
          </ns3:TrackPointExtension>
        </extensions>
      </trkpt>
      <trkpt lat="37.04338210634887218475341796875" lon="-8.97843810729682445526123046875">
        <ele>65</ele>
        <time>2026-04-28T11:52:54.000Z</time>
        <extensions>
          <ns3:TrackPointExtension>
            <ns3:hr>123</ns3:hr>
            <ns3:cad>0</ns3:cad>
          </ns3:TrackPointExtension>
        </extensions>
      </trkpt>
      <trkpt lat="37.04346659593284130096435546875" lon="-8.9784205891191959381103515625">
        <ele>64.59999847412109375</ele>
        <time>2026-04-28T11:53:01.000Z</time>
        <extensions>
          <ns3:TrackPointExtension>
            <ns3:hr>123</ns3:hr>
            <ns3:cad>59</ns3:cad>
          </ns3:TrackPointExtension>
        </extensions>
      </trkpt>
      <trkpt lat="37.04353247769176959991455078125" lon="-8.9784018136560916900634765625">
        <ele>64.1999969482421875</ele>
        <time>2026-04-28T11:53:06.000Z</time>
        <extensions>
          <ns3:TrackPointExtension>
            <ns3:hr>122</ns3:hr>
            <ns3:cad>60</ns3:cad>
          </ns3:TrackPointExtension>
        </extensions>
      </trkpt>
      <trkpt lat="37.04358796589076519012451171875" lon="-8.97839250974357128143310546875">
        <ele>63.799999237060546875</ele>
        <time>2026-04-28T11:53:10.000Z</time>
        <extensions>
          <ns3:TrackPointExtension>
            <ns3:hr>122</ns3:hr>
            <ns3:cad>62</ns3:cad>
          </ns3:TrackPointExtension>
        </extensions>
      </trkpt>
      <trkpt lat="37.043634988367557525634765625" lon="-8.97834707982838153839111328125">
        <ele>64.1999969482421875</ele>
        <time>2026-04-28T11:53:15.000Z</time>
        <extensions>
          <ns3:TrackPointExtension>
            <ns3:hr>122</ns3:hr>
            <ns3:cad>62</ns3:cad>
          </ns3:TrackPointExtension>
        </extensions>
      </trkpt>
      <trkpt lat="37.0437407679855823516845703125" lon="-8.9783126302063465118408203125">
        <ele>64.40000152587890625</ele>
        <time>2026-04-28T11:53:24.000Z</time>
        <extensions>
          <ns3:TrackPointExtension>
            <ns3:hr>120</ns3:hr>
            <ns3:cad>61</ns3:cad>
          </ns3:TrackPointExtension>
        </extensions>
      </trkpt>
      <trkpt lat="37.0438460446894168853759765625" lon="-8.9783196710050106048583984375">
        <ele>64.1999969482421875</ele>
        <time>2026-04-28T11:53:32.000Z</time>
        <extensions>
          <ns3:TrackPointExtension>
            <ns3:hr>119</ns3:hr>
            <ns3:cad>60</ns3:cad>
          </ns3:TrackPointExtension>
        </extensions>
      </trkpt>
      <trkpt lat="37.04391293227672576904296875" lon="-8.97828455083072185516357421875">
        <ele>63.799999237060546875</ele>
        <time>2026-04-28T11:53:39.000Z</time>
        <extensions>
          <ns3:TrackPointExtension>
            <ns3:hr>121</ns3:hr>
            <ns3:cad>59</ns3:cad>
          </ns3:TrackPointExtension>
        </extensions>
      </trkpt>
      <trkpt lat="37.0439417660236358642578125" lon="-8.9782868139445781707763671875">
        <ele>63.40000152587890625</ele>
        <time>2026-04-28T11:53:42.000Z</time>
        <extensions>
          <ns3:TrackPointExtension>
            <ns3:hr>122</ns3:hr>
            <ns3:cad>59</ns3:cad>
          </ns3:TrackPointExtension>
        </extensions>
      </trkpt>
      <trkpt lat="37.0439764671027660369873046875" lon="-8.9782794378697872161865234375">
        <ele>63</ele>
        <time>2026-04-28T11:53:45.000Z</time>
        <extensions>
          <ns3:TrackPointExtension>
            <ns3:hr>123</ns3:hr>
            <ns3:cad>56</ns3:cad>
          </ns3:TrackPointExtension>
        </extensions>
      </trkpt>
      <trkpt lat="37.04398593865334987640380859375" lon="-8.978271894156932830810546875">
        <ele>62.799999237060546875</ele>
        <time>2026-04-28T11:53:46.000Z</time>
        <extensions>
          <ns3:TrackPointExtension>
            <ns3:hr>123</ns3:hr>
            <ns3:cad>56</ns3:cad>
          </ns3:TrackPointExtension>
        </extensions>
      </trkpt>
      <trkpt lat="37.04404436051845550537109375" lon="-8.97819905541837215423583984375">
        <ele>62.59999847412109375</ele>
        <time>2026-04-28T11:53:53.000Z</time>
        <extensions>
          <ns3:TrackPointExtension>
            <ns3:hr>123</ns3:hr>
            <ns3:cad>59</ns3:cad>
          </ns3:TrackPointExtension>
        </extensions>
      </trkpt>
      <trkpt lat="37.0441102422773838043212890625" lon="-8.9781649410724639892578125">
        <ele>62.59999847412109375</ele>
        <time>2026-04-28T11:54:00.000Z</time>
        <extensions>
          <ns3:TrackPointExtension>
            <ns3:hr>122</ns3:hr>
            <ns3:cad>56</ns3:cad>
          </ns3:TrackPointExtension>
        </extensions>
      </trkpt>
      <trkpt lat="37.0441514812409877777099609375" lon="-8.97814742289483547210693359375">
        <ele>62.200000762939453125</ele>
        <time>2026-04-28T11:54:04.000Z</time>
        <extensions>
          <ns3:TrackPointExtension>
            <ns3:hr>123</ns3:hr>
            <ns3:cad>54</ns3:cad>
          </ns3:TrackPointExtension>
        </extensions>
      </trkpt>
      <trkpt lat="37.0441692508757114410400390625" lon="-8.9781434834003448486328125">
        <ele>61.799999237060546875</ele>
        <time>2026-04-28T11:54:06.000Z</time>
        <extensions>
          <ns3:TrackPointExtension>
            <ns3:hr>122</ns3:hr>
            <ns3:cad>54</ns3:cad>
          </ns3:TrackPointExtension>
        </extensions>
      </trkpt>
      <trkpt lat="37.04417587257921695709228515625" lon="-8.97813904099166393280029296875">
        <ele>61.59999847412109375</ele>
        <time>2026-04-28T11:54:07.000Z</time>
        <extensions>
          <ns3:TrackPointExtension>
            <ns3:hr>122</ns3:hr>
            <ns3:cad>54</ns3:cad>
          </ns3:TrackPointExtension>
        </extensions>
      </trkpt>
      <trkpt lat="37.0442073047161102294921875" lon="-8.978119678795337677001953125">
        <ele>60.59999847412109375</ele>
        <time>2026-04-28T11:54:12.000Z</time>
        <extensions>
          <ns3:TrackPointExtension>
            <ns3:hr>121</ns3:hr>
            <ns3:cad>0</ns3:cad>
          </ns3:TrackPointExtension>
        </extensions>
      </trkpt>
      <trkpt lat="37.0442322827875614166259765625" lon="-8.9780957065522670745849609375">
        <ele>60.40000152587890625</ele>
        <time>2026-04-28T11:54:15.000Z</time>
        <extensions>
          <ns3:TrackPointExtension>
            <ns3:hr>122</ns3:hr>
            <ns3:cad>54</ns3:cad>
          </ns3:TrackPointExtension>
        </extensions>
      </trkpt>
      <trkpt lat="37.04426170326769351959228515625" lon="-8.97809327580034732818603515625">
        <ele>59.799999237060546875</ele>
        <time>2026-04-28T11:54:18.000Z</time>
        <extensions>
          <ns3:TrackPointExtension>
            <ns3:hr>121</ns3:hr>
            <ns3:cad>0</ns3:cad>
          </ns3:TrackPointExtension>
        </extensions>
      </trkpt>
      <trkpt lat="37.0442708395421504974365234375" lon="-8.9780987240374088287353515625">
        <ele>59.59999847412109375</ele>
        <time>2026-04-28T11:54:19.000Z</time>
        <extensions>
          <ns3:TrackPointExtension>
            <ns3:hr>121</ns3:hr>
            <ns3:cad>57</ns3:cad>
          </ns3:TrackPointExtension>
        </extensions>
      </trkpt>
      <trkpt lat="37.04429858364164829254150390625" lon="-8.97810132242739200592041015625">
        <ele>58.59999847412109375</ele>
        <time>2026-04-28T11:54:22.000Z</time>
        <extensions>
          <ns3:TrackPointExtension>
            <ns3:hr>121</ns3:hr>
            <ns3:cad>57</ns3:cad>
          </ns3:TrackPointExtension>
        </extensions>
      </trkpt>
      <trkpt lat="37.0443077199161052703857421875" lon="-8.978097550570964813232421875">
        <ele>58.59999847412109375</ele>
        <time>2026-04-28T11:54:23.000Z</time>
        <extensions>
          <ns3:TrackPointExtension>
            <ns3:hr>122</ns3:hr>
            <ns3:cad>57</ns3:cad>
          </ns3:TrackPointExtension>
        </extensions>
      </trkpt>
      <trkpt lat="37.0443543232977390289306640625" lon="-8.9780662022531032562255859375">
        <ele>57.40000152587890625</ele>
        <time>2026-04-28T11:54:28.000Z</time>
        <extensions>
          <ns3:TrackPointExtension>
            <ns3:hr>121</ns3:hr>
            <ns3:cad>60</ns3:cad>
          </ns3:TrackPointExtension>
        </extensions>
      </trkpt>
      <trkpt lat="37.04444342292845249176025390625" lon="-8.9780246280133724212646484375">
        <ele>56.200000762939453125</ele>
        <time>2026-04-28T11:54:37.000Z</time>
        <extensions>
          <ns3:TrackPointExtension>
            <ns3:hr>119</ns3:hr>
            <ns3:cad>53</ns3:cad>
          </ns3:TrackPointExtension>
        </extensions>
      </trkpt>
      <trkpt lat="37.0444964803755283355712890625" lon="-8.97799001075327396392822265625">
        <ele>55.200000762939453125</ele>
        <time>2026-04-28T11:54:43.000Z</time>
        <extensions>
          <ns3:TrackPointExtension>
            <ns3:hr>118</ns3:hr>
            <ns3:cad>55</ns3:cad>
          </ns3:TrackPointExtension>
        </extensions>
      </trkpt>
      <trkpt lat="37.04450326971709728240966796875" lon="-8.97797810845077037811279296875">
        <ele>55</ele>
        <time>2026-04-28T11:54:44.000Z</time>
        <extensions>
          <ns3:TrackPointExtension>
            <ns3:hr>118</ns3:hr>
            <ns3:cad>55</ns3:cad>
          </ns3:TrackPointExtension>
        </extensions>
      </trkpt>
      <trkpt lat="37.044542916119098663330078125" lon="-8.97796067409217357635498046875">
        <ele>54.799999237060546875</ele>
        <time>2026-04-28T11:54:48.000Z</time>
        <extensions>
          <ns3:TrackPointExtension>
            <ns3:hr>119</ns3:hr>
            <ns3:cad>54</ns3:cad>
          </ns3:TrackPointExtension>
        </extensions>
      </trkpt>
      <trkpt lat="37.04456730745732784271240234375" lon="-8.97795648314058780670166015625">
        <ele>54.40000152587890625</ele>
        <time>2026-04-28T11:54:51.000Z</time>
        <extensions>
          <ns3:TrackPointExtension>
            <ns3:hr>119</ns3:hr>
            <ns3:cad>54</ns3:cad>
          </ns3:TrackPointExtension>
        </extensions>
      </trkpt>
      <trkpt lat="37.04459044151008129119873046875" lon="-8.97795078344643115997314453125">
        <ele>54.200000762939453125</ele>
        <time>2026-04-28T11:54:54.000Z</time>
        <extensions>
          <ns3:TrackPointExtension>
            <ns3:hr>118</ns3:hr>
            <ns3:cad>52</ns3:cad>
          </ns3:TrackPointExtension>
        </extensions>
      </trkpt>
      <trkpt lat="37.04460033215582370758056640625" lon="-8.97794055752456188201904296875">
        <ele>54</ele>
        <time>2026-04-28T11:54:56.000Z</time>
        <extensions>
          <ns3:TrackPointExtension>
            <ns3:hr>118</ns3:hr>
            <ns3:cad>53</ns3:cad>
          </ns3:TrackPointExtension>
        </extensions>
      </trkpt>
      <trkpt lat="37.0445997454226016998291015625" lon="-8.97792823612689971923828125">
        <ele>53.799999237060546875</ele>
        <time>2026-04-28T11:54:57.000Z</time>
        <extensions>
          <ns3:TrackPointExtension>
            <ns3:hr>119</ns3:hr>
            <ns3:cad>53</ns3:cad>
          </ns3:TrackPointExtension>
        </extensions>
      </trkpt>
      <trkpt lat="37.04461625777184963226318359375" lon="-8.97788993082940578460693359375">
        <ele>53</ele>
        <time>2026-04-28T11:55:01.000Z</time>
        <extensions>
          <ns3:TrackPointExtension>
            <ns3:hr>118</ns3:hr>
            <ns3:cad>62</ns3:cad>
          </ns3:TrackPointExtension>
        </extensions>
      </trkpt>
      <trkpt lat="37.0446269027888774871826171875" lon="-8.977875597774982452392578125">
        <ele>52.40000152587890625</ele>
        <time>2026-04-28T11:55:03.000Z</time>
        <extensions>
          <ns3:TrackPointExtension>
            <ns3:hr>118</ns3:hr>
            <ns3:cad>60</ns3:cad>
          </ns3:TrackPointExtension>
        </extensions>
      </trkpt>
      <trkpt lat="37.0446319319307804107666015625" lon="-8.9778563193976879119873046875">
        <ele>52</ele>
        <time>2026-04-28T11:55:05.000Z</time>
        <extensions>
          <ns3:TrackPointExtension>
            <ns3:hr>118</ns3:hr>
            <ns3:cad>59</ns3:cad>
          </ns3:TrackPointExtension>
        </extensions>
      </trkpt>
      <trkpt lat="37.04466260969638824462890625" lon="-8.9778127335011959075927734375">
        <ele>51</ele>
        <time>2026-04-28T11:55:10.000Z</time>
        <extensions>
          <ns3:TrackPointExtension>
            <ns3:hr>118</ns3:hr>
            <ns3:cad>59</ns3:cad>
          </ns3:TrackPointExtension>
        </extensions>
      </trkpt>
      <trkpt lat="37.044668979942798614501953125" lon="-8.9777974784374237060546875">
        <ele>50.799999237060546875</ele>
        <time>2026-04-28T11:55:11.000Z</time>
        <extensions>
          <ns3:TrackPointExtension>
            <ns3:hr>118</ns3:hr>
            <ns3:cad>59</ns3:cad>
          </ns3:TrackPointExtension>
        </extensions>
      </trkpt>
      <trkpt lat="37.044704519212245941162109375" lon="-8.97768817842006683349609375">
        <ele>49.59999847412109375</ele>
        <time>2026-04-28T11:55:18.000Z</time>
        <extensions>
          <ns3:TrackPointExtension>
            <ns3:hr>114</ns3:hr>
            <ns3:cad>62</ns3:cad>
          </ns3:TrackPointExtension>
        </extensions>
      </trkpt>
      <trkpt lat="37.044710218906402587890625" lon="-8.9776856638491153717041015625">
        <ele>49.200000762939453125</ele>
        <time>2026-04-28T11:55:19.000Z</time>
        <extensions>
          <ns3:TrackPointExtension>
            <ns3:hr>108</ns3:hr>
            <ns3:cad>62</ns3:cad>
          </ns3:TrackPointExtension>
        </extensions>
      </trkpt>
      <trkpt lat="37.04471751116216182708740234375" lon="-8.97768440656363964080810546875">
        <ele>49</ele>
        <time>2026-04-28T11:55:20.000Z</time>
        <extensions>
          <ns3:TrackPointExtension>
            <ns3:hr>104</ns3:hr>
            <ns3:cad>62</ns3:cad>
          </ns3:TrackPointExtension>
        </extensions>
      </trkpt>
      <trkpt lat="37.04472170211374759674072265625" lon="-8.97768239490687847137451171875">
        <ele>48.59999847412109375</ele>
        <time>2026-04-28T11:55:21.000Z</time>
        <extensions>
          <ns3:TrackPointExtension>
            <ns3:hr>103</ns3:hr>
            <ns3:cad>62</ns3:cad>
          </ns3:TrackPointExtension>
        </extensions>
      </trkpt>
      <trkpt lat="37.04472522251307964324951171875" lon="-8.977685160934925079345703125">
        <ele>48.40000152587890625</ele>
        <time>2026-04-28T11:55:23.000Z</time>
        <extensions>
          <ns3:TrackPointExtension>
            <ns3:hr>100</ns3:hr>
            <ns3:cad>0</ns3:cad>
          </ns3:TrackPointExtension>
        </extensions>
      </trkpt>
      <trkpt lat="37.0447234623134136199951171875" lon="-8.97768541239202022552490234375">
        <ele>48.40000152587890625</ele>
        <time>2026-04-28T11:55:24.000Z</time>
        <extensions>
          <ns3:TrackPointExtension>
            <ns3:hr>100</ns3:hr>
            <ns3:cad>0</ns3:cad>
          </ns3:TrackPointExtension>
        </extensions>
      </trkpt>
      <trkpt lat="37.0447556488215923309326171875" lon="-8.9776393957436084747314453125">
        <ele>48.799999237060546875</ele>
        <time>2026-04-28T11:55:29.000Z</time>
        <extensions>
          <ns3:TrackPointExtension>
            <ns3:hr>101</ns3:hr>
            <ns3:cad>0</ns3:cad>
          </ns3:TrackPointExtension>
        </extensions>
      </trkpt>
      <trkpt lat="37.044766880571842193603515625" lon="-8.97758767940104007720947265625">
        <ele>48.799999237060546875</ele>
        <time>2026-04-28T11:55:32.000Z</time>
        <extensions>
          <ns3:TrackPointExtension>
            <ns3:hr>104</ns3:hr>
            <ns3:cad>0</ns3:cad>
          </ns3:TrackPointExtension>
        </extensions>
      </trkpt>
      <trkpt lat="37.04477853141725063323974609375" lon="-8.977545015513896942138671875">
        <ele>49</ele>
        <time>2026-04-28T11:55:35.000Z</time>
        <extensions>
          <ns3:TrackPointExtension>
            <ns3:hr>106</ns3:hr>
            <ns3:cad>60</ns3:cad>
          </ns3:TrackPointExtension>
        </extensions>
      </trkpt>
      <trkpt lat="37.044821865856647491455078125" lon="-8.97749531082808971405029296875">
        <ele>49.59999847412109375</ele>
        <time>2026-04-28T11:55:40.000Z</time>
        <extensions>
          <ns3:TrackPointExtension>
            <ns3:hr>106</ns3:hr>
            <ns3:cad>58</ns3:cad>
          </ns3:TrackPointExtension>
        </extensions>
      </trkpt>
      <trkpt lat="37.04487190581858158111572265625" lon="-8.97746882401406764984130859375">
        <ele>49.59999847412109375</ele>
        <time>2026-04-28T11:55:44.000Z</time>
        <extensions>
          <ns3:TrackPointExtension>
            <ns3:hr>109</ns3:hr>
            <ns3:cad>61</ns3:cad>
          </ns3:TrackPointExtension>
        </extensions>
      </trkpt>
      <trkpt lat="37.04488380812108516693115234375" lon="-8.9774622023105621337890625">
        <ele>49.59999847412109375</ele>
        <time>2026-04-28T11:55:45.000Z</time>
        <extensions>
          <ns3:TrackPointExtension>
            <ns3:hr>113</ns3:hr>
            <ns3:cad>62</ns3:cad>
          </ns3:TrackPointExtension>
        </extensions>
      </trkpt>
      <trkpt lat="37.044895626604557037353515625" lon="-8.97745826281607151031494140625">
        <ele>49.40000152587890625</ele>
        <time>2026-04-28T11:55:46.000Z</time>
        <extensions>
          <ns3:TrackPointExtension>
            <ns3:hr>116</ns3:hr>
            <ns3:cad>62</ns3:cad>
          </ns3:TrackPointExtension>
        </extensions>
      </trkpt>
      <trkpt lat="37.044931165874004364013671875" lon="-8.97743630222976207733154296875">
        <ele>49.200000762939453125</ele>
        <time>2026-04-28T11:55:49.000Z</time>
        <extensions>
          <ns3:TrackPointExtension>
            <ns3:hr>119</ns3:hr>
            <ns3:cad>61</ns3:cad>
          </ns3:TrackPointExtension>
        </extensions>
      </trkpt>
      <trkpt lat="37.0449618436396121978759765625" lon="-8.977381400763988494873046875">
        <ele>49</ele>
        <time>2026-04-28T11:55:53.000Z</time>
        <extensions>
          <ns3:TrackPointExtension>
            <ns3:hr>118</ns3:hr>
            <ns3:cad>62</ns3:cad>
          </ns3:TrackPointExtension>
        </extensions>
      </trkpt>
      <trkpt lat="37.0449792779982089996337890625" lon="-8.97733856923878192901611328125">
        <ele>48.59999847412109375</ele>
        <time>2026-04-28T11:55:56.000Z</time>
        <extensions>
          <ns3:TrackPointExtension>
            <ns3:hr>119</ns3:hr>
            <ns3:cad>62</ns3:cad>
          </ns3:TrackPointExtension>
        </extensions>
      </trkpt>
      <trkpt lat="37.0450151525437831878662109375" lon="-8.97728710435330867767333984375">
        <ele>48.59999847412109375</ele>
        <time>2026-04-28T11:56:01.000Z</time>
        <extensions>
          <ns3:TrackPointExtension>
            <ns3:hr>116</ns3:hr>
            <ns3:cad>60</ns3:cad>
          </ns3:TrackPointExtension>
        </extensions>
      </trkpt>
      <trkpt lat="37.04507089219987392425537109375" lon="-8.97728006355464458465576171875">
        <ele>47.40000152587890625</ele>
        <time>2026-04-28T11:56:06.000Z</time>
        <extensions>
          <ns3:TrackPointExtension>
            <ns3:hr>116</ns3:hr>
            <ns3:cad>59</ns3:cad>
          </ns3:TrackPointExtension>
        </extensions>
      </trkpt>
      <trkpt lat="37.04510408453643321990966796875" lon="-8.97729414515197277069091796875">
        <ele>46.59999847412109375</ele>
        <time>2026-04-28T11:56:09.000Z</time>
        <extensions>
          <ns3:TrackPointExtension>
            <ns3:hr>118</ns3:hr>
            <ns3:cad>62</ns3:cad>
          </ns3:TrackPointExtension>
        </extensions>
      </trkpt>
      <trkpt lat="37.0451204292476177215576171875" lon="-8.97730470634996891021728515625">
        <ele>46.40000152587890625</ele>
        <time>2026-04-28T11:56:11.000Z</time>
        <extensions>
          <ns3:TrackPointExtension>
            <ns3:hr>119</ns3:hr>
            <ns3:cad>58</ns3:cad>
          </ns3:TrackPointExtension>
        </extensions>
      </trkpt>
      <trkpt lat="37.0451375283300876617431640625" lon="-8.97729431279003620147705078125">
        <ele>46.40000152587890625</ele>
        <time>2026-04-28T11:56:13.000Z</time>
        <extensions>
          <ns3:TrackPointExtension>
            <ns3:hr>119</ns3:hr>
            <ns3:cad>57</ns3:cad>
          </ns3:TrackPointExtension>
        </extensions>
      </trkpt>
      <trkpt lat="37.045165859162807464599609375" lon="-8.9772813208401203155517578125">
        <ele>45.799999237060546875</ele>
        <time>2026-04-28T11:56:16.000Z</time>
        <extensions>
          <ns3:TrackPointExtension>
            <ns3:hr>120</ns3:hr>
            <ns3:cad>57</ns3:cad>
          </ns3:TrackPointExtension>
        </extensions>
      </trkpt>
      <trkpt lat="37.04517625272274017333984375" lon="-8.97727050818502902984619140625">
        <ele>45.40000152587890625</ele>
        <time>2026-04-28T11:56:19.000Z</time>
        <extensions>
          <ns3:TrackPointExtension>
            <ns3:hr>121</ns3:hr>
            <ns3:cad>58</ns3:cad>
          </ns3:TrackPointExtension>
        </extensions>
      </trkpt>
      <trkpt lat="37.04517491161823272705078125" lon="-8.97727486677467823028564453125">
        <ele>45.200000762939453125</ele>
        <time>2026-04-28T11:56:22.000Z</time>
        <extensions>
          <ns3:TrackPointExtension>
            <ns3:hr>122</ns3:hr>
            <ns3:cad>0</ns3:cad>
          </ns3:TrackPointExtension>
        </extensions>
      </trkpt>
      <trkpt lat="37.04519494436681270599365234375" lon="-8.977286517620086669921875">
        <ele>45.200000762939453125</ele>
        <time>2026-04-28T11:56:28.000Z</time>
        <extensions>
          <ns3:TrackPointExtension>
            <ns3:hr>122</ns3:hr>
            <ns3:cad>0</ns3:cad>
          </ns3:TrackPointExtension>
        </extensions>
      </trkpt>
      <trkpt lat="37.04520567320287227630615234375" lon="-8.9772851765155792236328125">
        <ele>45.200000762939453125</ele>
        <time>2026-04-28T11:56:29.000Z</time>
        <extensions>
          <ns3:TrackPointExtension>
            <ns3:hr>121</ns3:hr>
            <ns3:cad>0</ns3:cad>
          </ns3:TrackPointExtension>
        </extensions>
      </trkpt>
      <trkpt lat="37.04521623440086841583251953125" lon="-8.97727243602275848388671875">
        <ele>45</ele>
        <time>2026-04-28T11:56:30.000Z</time>
        <extensions>
          <ns3:TrackPointExtension>
            <ns3:hr>122</ns3:hr>
            <ns3:cad>0</ns3:cad>
          </ns3:TrackPointExtension>
        </extensions>
      </trkpt>
      <trkpt lat="37.04526082612574100494384765625" lon="-8.97718685679137706756591796875">
        <ele>44.40000152587890625</ele>
        <time>2026-04-28T11:56:36.000Z</time>
        <extensions>
          <ns3:TrackPointExtension>
            <ns3:hr>120</ns3:hr>
            <ns3:cad>59</ns3:cad>
          </ns3:TrackPointExtension>
        </extensions>
      </trkpt>
      <trkpt lat="37.0452649332582950592041015625" lon="-8.9771676622331142425537109375">
        <ele>44.200000762939453125</ele>
        <time>2026-04-28T11:56:37.000Z</time>
        <extensions>
          <ns3:TrackPointExtension>
            <ns3:hr>121</ns3:hr>
            <ns3:cad>59</ns3:cad>
          </ns3:TrackPointExtension>
        </extensions>
      </trkpt>
      <trkpt lat="37.045292593538761138916015625" lon="-8.97710219956934452056884765625">
        <ele>43.59999847412109375</ele>
        <time>2026-04-28T11:56:42.000Z</time>
        <extensions>
          <ns3:TrackPointExtension>
            <ns3:hr>118</ns3:hr>
            <ns3:cad>61</ns3:cad>
          </ns3:TrackPointExtension>
        </extensions>
      </trkpt>
      <trkpt lat="37.04530122689902782440185546875" lon="-8.97707403637468814849853515625">
        <ele>43.40000152587890625</ele>
        <time>2026-04-28T11:56:44.000Z</time>
        <extensions>
          <ns3:TrackPointExtension>
            <ns3:hr>117</ns3:hr>
            <ns3:cad>59</ns3:cad>
          </ns3:TrackPointExtension>
        </extensions>
      </trkpt>
      <trkpt lat="37.04530860297381877899169921875" lon="-8.9770630560815334320068359375">
        <ele>43.40000152587890625</ele>
        <time>2026-04-28T11:56:50.000Z</time>
        <extensions>
          <ns3:TrackPointExtension>
            <ns3:hr>116</ns3:hr>
            <ns3:cad>0</ns3:cad>
          </ns3:TrackPointExtension>
        </extensions>
      </trkpt>
      <trkpt lat="37.04530893824994564056396484375" lon="-8.9770680852234363555908203125">
        <ele>43.59999847412109375</ele>
        <time>2026-04-28T11:57:00.000Z</time>
        <extensions>
          <ns3:TrackPointExtension>
            <ns3:hr>120</ns3:hr>
            <ns3:cad>0</ns3:cad>
          </ns3:TrackPointExtension>
        </extensions>
      </trkpt>
      <trkpt lat="37.04530893824994564056396484375" lon="-8.9770680852234363555908203125">
        <ele>43.40000152587890625</ele>
        <time>2026-04-28T11:57:02.000Z</time>
        <extensions>
          <ns3:TrackPointExtension>
            <ns3:hr>123</ns3:hr>
            <ns3:cad>0</ns3:cad>
          </ns3:TrackPointExtension>
        </extensions>
      </trkpt>
      <trkpt lat="37.04530893824994564056396484375" lon="-8.9770680852234363555908203125">
        <ele>43.40000152587890625</ele>
        <time>2026-04-28T11:57:12.000Z</time>
        <extensions>
          <ns3:TrackPointExtension>
            <ns3:hr>126</ns3:hr>
            <ns3:cad>0</ns3:cad>
          </ns3:TrackPointExtension>
        </extensions>
      </trkpt>
      <trkpt lat="37.045310698449611663818359375" lon="-8.977050147950649261474609375">
        <ele>43.40000152587890625</ele>
        <time>2026-04-28T11:57:14.000Z</time>
        <extensions>
          <ns3:TrackPointExtension>
            <ns3:hr>126</ns3:hr>
            <ns3:cad>0</ns3:cad>
          </ns3:TrackPointExtension>
        </extensions>
      </trkpt>
      <trkpt lat="37.04534657299518585205078125" lon="-8.97693087346851825714111328125">
        <ele>43.200000762939453125</ele>
        <time>2026-04-28T11:57:21.000Z</time>
        <extensions>
          <ns3:TrackPointExtension>
            <ns3:hr>124</ns3:hr>
            <ns3:cad>61</ns3:cad>
          </ns3:TrackPointExtension>
        </extensions>
      </trkpt>
      <trkpt lat="37.0453504286706447601318359375" lon="-8.9767991937696933746337890625">
        <ele>42.40000152587890625</ele>
        <time>2026-04-28T11:57:29.000Z</time>
        <extensions>
          <ns3:TrackPointExtension>
            <ns3:hr>125</ns3:hr>
            <ns3:cad>62</ns3:cad>
          </ns3:TrackPointExtension>
        </extensions>
      </trkpt>
      <trkpt lat="37.04536828212440013885498046875" lon="-8.976698108017444610595703125">
        <ele>42.40000152587890625</ele>
        <time>2026-04-28T11:57:36.000Z</time>
        <extensions>
          <ns3:TrackPointExtension>
            <ns3:hr>125</ns3:hr>
            <ns3:cad>62</ns3:cad>
          </ns3:TrackPointExtension>
        </extensions>
      </trkpt>
      <trkpt lat="37.04539275728166103363037109375" lon="-8.9766199886798858642578125">
        <ele>42.200000762939453125</ele>
        <time>2026-04-28T11:57:41.000Z</time>
        <extensions>
          <ns3:TrackPointExtension>
            <ns3:hr>125</ns3:hr>
            <ns3:cad>60</ns3:cad>
          </ns3:TrackPointExtension>
        </extensions>
      </trkpt>
      <trkpt lat="37.04541438259184360504150390625" lon="-8.97656575776636600494384765625">
        <ele>41.799999237060546875</ele>
        <time>2026-04-28T11:57:45.000Z</time>
        <extensions>
          <ns3:TrackPointExtension>
            <ns3:hr>125</ns3:hr>
            <ns3:cad>61</ns3:cad>
          </ns3:TrackPointExtension>
        </extensions>
      </trkpt>
      <trkpt lat="37.0454258657991886138916015625" lon="-8.97647573612630367279052734375">
        <ele>41</ele>
        <time>2026-04-28T11:57:52.000Z</time>
        <extensions>
          <ns3:TrackPointExtension>
            <ns3:hr>123</ns3:hr>
            <ns3:cad>59</ns3:cad>
          </ns3:TrackPointExtension>
        </extensions>
      </trkpt>
      <trkpt lat="37.04542997293174266815185546875" lon="-8.97646165452897548675537109375">
        <ele>41.200000762939453125</ele>
        <time>2026-04-28T11:57:58.000Z</time>
        <extensions>
          <ns3:TrackPointExtension>
            <ns3:hr>122</ns3:hr>
            <ns3:cad>0</ns3:cad>
          </ns3:TrackPointExtension>
        </extensions>
      </trkpt>
      <trkpt lat="37.04542846418917179107666015625" lon="-8.9764562062919139862060546875">
        <ele>40.799999237060546875</ele>
        <time>2026-04-28T11:58:03.000Z</time>
        <extensions>
          <ns3:TrackPointExtension>
            <ns3:hr>119</ns3:hr>
            <ns3:cad>0</ns3:cad>
          </ns3:TrackPointExtension>
        </extensions>
      </trkpt>
      <trkpt lat="37.04542293213307857513427734375" lon="-8.97646768949925899505615234375">
        <ele>41.59999847412109375</ele>
        <time>2026-04-28T11:58:11.000Z</time>
        <extensions>
          <ns3:TrackPointExtension>
            <ns3:hr>118</ns3:hr>
            <ns3:cad>0</ns3:cad>
          </ns3:TrackPointExtension>
        </extensions>
      </trkpt>
      <trkpt lat="37.04543584026396274566650390625" lon="-8.9764220081269741058349609375">
        <ele>41</ele>
        <time>2026-04-28T11:58:17.000Z</time>
        <extensions>
          <ns3:TrackPointExtension>
            <ns3:hr>121</ns3:hr>
            <ns3:cad>0</ns3:cad>
          </ns3:TrackPointExtension>
        </extensions>
      </trkpt>
      <trkpt lat="37.04543835483491420745849609375" lon="-8.976417817175388336181640625">
        <ele>40.799999237060546875</ele>
        <time>2026-04-28T11:58:18.000Z</time>
        <extensions>
          <ns3:TrackPointExtension>
            <ns3:hr>121</ns3:hr>
            <ns3:cad>0</ns3:cad>
          </ns3:TrackPointExtension>
        </extensions>
      </trkpt>
      <trkpt lat="37.04543910920619964599609375" lon="-8.97642913274466991424560546875">
        <ele>40.59999847412109375</ele>
        <time>2026-04-28T11:58:26.000Z</time>
        <extensions>
          <ns3:TrackPointExtension>
            <ns3:hr>122</ns3:hr>
            <ns3:cad>0</ns3:cad>
          </ns3:TrackPointExtension>
        </extensions>
      </trkpt>
      <trkpt lat="37.04543584026396274566650390625" lon="-8.97634036839008331298828125">
        <ele>40.40000152587890625</ele>
        <time>2026-04-28T11:58:32.000Z</time>
        <extensions>
          <ns3:TrackPointExtension>
            <ns3:hr>120</ns3:hr>
            <ns3:cad>60</ns3:cad>
          </ns3:TrackPointExtension>
        </extensions>
      </trkpt>
      <trkpt lat="37.04546459019184112548828125" lon="-8.976241461932659149169921875">
        <ele>40.40000152587890625</ele>
        <time>2026-04-28T11:58:39.000Z</time>
        <extensions>
          <ns3:TrackPointExtension>
            <ns3:hr>119</ns3:hr>
            <ns3:cad>61</ns3:cad>
          </ns3:TrackPointExtension>
        </extensions>
      </trkpt>
      <trkpt lat="37.0454909093677997589111328125" lon="-8.97620902396738529205322265625">
        <ele>40.200000762939453125</ele>
        <time>2026-04-28T11:58:42.000Z</time>
        <extensions>
          <ns3:TrackPointExtension>
            <ns3:hr>116</ns3:hr>
            <ns3:cad>61</ns3:cad>
          </ns3:TrackPointExtension>
        </extensions>
      </trkpt>
      <trkpt lat="37.04550541006028652191162109375" lon="-8.97619946859776973724365234375">
        <ele>40</ele>
        <time>2026-04-28T11:58:43.000Z</time>
        <extensions>
          <ns3:TrackPointExtension>
            <ns3:hr>115</ns3:hr>
            <ns3:cad>61</ns3:cad>
          </ns3:TrackPointExtension>
        </extensions>
      </trkpt>
      <trkpt lat="37.04554446972906589508056640625" lon="-8.97617197595536708831787109375">
        <ele>39.59999847412109375</ele>
        <time>2026-04-28T11:58:46.000Z</time>
        <extensions>
          <ns3:TrackPointExtension>
            <ns3:hr>114</ns3:hr>
            <ns3:cad>62</ns3:cad>
          </ns3:TrackPointExtension>
        </extensions>
      </trkpt>
      <trkpt lat="37.04556391574442386627197265625" lon="-8.976149260997772216796875">
        <ele>39.59999847412109375</ele>
        <time>2026-04-28T11:58:48.000Z</time>
        <extensions>
          <ns3:TrackPointExtension>
            <ns3:hr>111</ns3:hr>
            <ns3:cad>62</ns3:cad>
          </ns3:TrackPointExtension>
        </extensions>
      </trkpt>
      <trkpt lat="37.04559157602488994598388671875" lon="-8.97609033621847629547119140625">
        <ele>39.40000152587890625</ele>
        <time>2026-04-28T11:58:52.000Z</time>
        <extensions>
          <ns3:TrackPointExtension>
            <ns3:hr>110</ns3:hr>
            <ns3:cad>0</ns3:cad>
          </ns3:TrackPointExtension>
        </extensions>
      </trkpt>
      <trkpt lat="37.045606076717376708984375" lon="-8.9759717322885990142822265625">
        <ele>39.200000762939453125</ele>
        <time>2026-04-28T11:58:59.000Z</time>
        <extensions>
          <ns3:TrackPointExtension>
            <ns3:hr>111</ns3:hr>
            <ns3:cad>61</ns3:cad>
          </ns3:TrackPointExtension>
        </extensions>
      </trkpt>
      <trkpt lat="37.04561286605894565582275390625" lon="-8.97594549693167209625244140625">
        <ele>38.799999237060546875</ele>
        <time>2026-04-28T11:59:01.000Z</time>
        <extensions>
          <ns3:TrackPointExtension>
            <ns3:hr>113</ns3:hr>
            <ns3:cad>61</ns3:cad>
          </ns3:TrackPointExtension>
        </extensions>
      </trkpt>
      <trkpt lat="37.04562024213373661041259765625" lon="-8.97592655383050441741943359375">
        <ele>38.40000152587890625</ele>
        <time>2026-04-28T11:59:03.000Z</time>
        <extensions>
          <ns3:TrackPointExtension>
            <ns3:hr>116</ns3:hr>
            <ns3:cad>57</ns3:cad>
          </ns3:TrackPointExtension>
        </extensions>
      </trkpt>
      <trkpt lat="37.045631892979145050048828125" lon="-8.9759009890258312225341796875">
        <ele>38.40000152587890625</ele>
        <time>2026-04-28T11:59:07.000Z</time>
        <extensions>
          <ns3:TrackPointExtension>
            <ns3:hr>117</ns3:hr>
            <ns3:cad>0</ns3:cad>
          </ns3:TrackPointExtension>
        </extensions>
      </trkpt>
      <trkpt lat="37.04565075226128101348876953125" lon="-8.97585891187191009521484375">
        <ele>37.799999237060546875</ele>
        <time>2026-04-28T11:59:15.000Z</time>
        <extensions>
          <ns3:TrackPointExtension>
            <ns3:hr>117</ns3:hr>
            <ns3:cad>0</ns3:cad>
          </ns3:TrackPointExtension>
        </extensions>
      </trkpt>
      <trkpt lat="37.0456578768789768218994140625" lon="-8.97585966624319553375244140625">
        <ele>37.59999847412109375</ele>
        <time>2026-04-28T11:59:16.000Z</time>
        <extensions>
          <ns3:TrackPointExtension>
            <ns3:hr>117</ns3:hr>
            <ns3:cad>0</ns3:cad>
          </ns3:TrackPointExtension>
        </extensions>
      </trkpt>
      <trkpt lat="37.0457011274993419647216796875" lon="-8.97589805535972118377685546875">
        <ele>37</ele>
        <time>2026-04-28T11:59:24.000Z</time>
        <extensions>
          <ns3:TrackPointExtension>
            <ns3:hr>115</ns3:hr>
            <ns3:cad>0</ns3:cad>
          </ns3:TrackPointExtension>
        </extensions>
      </trkpt>
      <trkpt lat="37.04572208225727081298828125" lon="-8.97599411197006702423095703125">
        <ele>38</ele>
        <time>2026-04-28T11:59:31.000Z</time>
        <extensions>
          <ns3:TrackPointExtension>
            <ns3:hr>117</ns3:hr>
            <ns3:cad>58</ns3:cad>
          </ns3:TrackPointExtension>
        </extensions>
      </trkpt>
      <trkpt lat="37.0457289554178714752197265625" lon="-8.9760169945657253265380859375">
        <ele>38.40000152587890625</ele>
        <time>2026-04-28T11:59:33.000Z</time>
        <extensions>
          <ns3:TrackPointExtension>
            <ns3:hr>122</ns3:hr>
            <ns3:cad>55</ns3:cad>
          </ns3:TrackPointExtension>
        </extensions>
      </trkpt>
      <trkpt lat="37.04572987742722034454345703125" lon="-8.97602713666856288909912109375">
        <ele>38.59999847412109375</ele>
        <time>2026-04-28T11:59:34.000Z</time>
        <extensions>
          <ns3:TrackPointExtension>
            <ns3:hr>122</ns3:hr>
            <ns3:cad>0</ns3:cad>
          </ns3:TrackPointExtension>
        </extensions>
      </trkpt>
      <trkpt lat="37.04573339782655239105224609375" lon="-8.9760347642004489898681640625">
        <ele>39</ele>
        <time>2026-04-28T11:59:35.000Z</time>
        <extensions>
          <ns3:TrackPointExtension>
            <ns3:hr>122</ns3:hr>
            <ns3:cad>0</ns3:cad>
          </ns3:TrackPointExtension>
        </extensions>
      </trkpt>
      <trkpt lat="37.0457416959106922149658203125" lon="-8.97606938146054744720458984375">
        <ele>39.59999847412109375</ele>
        <time>2026-04-28T11:59:38.000Z</time>
        <extensions>
          <ns3:TrackPointExtension>
            <ns3:hr>121</ns3:hr>
            <ns3:cad>53</ns3:cad>
          </ns3:TrackPointExtension>
        </extensions>
      </trkpt>
      <trkpt lat="37.045743204653263092041015625" lon="-8.97612134926021099090576171875">
        <ele>40</ele>
        <time>2026-04-28T11:59:42.000Z</time>
        <extensions>
          <ns3:TrackPointExtension>
            <ns3:hr>121</ns3:hr>
            <ns3:cad>53</ns3:cad>
          </ns3:TrackPointExtension>
        </extensions>
      </trkpt>
      <trkpt lat="37.0457504130899906158447265625" lon="-8.9761309884488582611083984375">
        <ele>40.200000762939453125</ele>
        <time>2026-04-28T11:59:43.000Z</time>
        <extensions>
          <ns3:TrackPointExtension>
            <ns3:hr>120</ns3:hr>
            <ns3:cad>53</ns3:cad>
          </ns3:TrackPointExtension>
        </extensions>
      </trkpt>
      <trkpt lat="37.04576374031603336334228515625" lon="-8.976167030632495880126953125">
        <ele>41</ele>
        <time>2026-04-28T11:59:46.000Z</time>
        <extensions>
          <ns3:TrackPointExtension>
            <ns3:hr>120</ns3:hr>
            <ns3:cad>57</ns3:cad>
          </ns3:TrackPointExtension>
        </extensions>
      </trkpt>
      <trkpt lat="37.04576969146728515625" lon="-8.97617750801146030426025390625">
        <ele>41</ele>
        <time>2026-04-28T11:59:47.000Z</time>
        <extensions>
          <ns3:TrackPointExtension>
            <ns3:hr>121</ns3:hr>
            <ns3:cad>57</ns3:cad>
          </ns3:TrackPointExtension>
        </extensions>
      </trkpt>
      <trkpt lat="37.04579156823456287384033203125" lon="-8.97620935924351215362548828125">
        <ele>42</ele>
        <time>2026-04-28T11:59:51.000Z</time>
        <extensions>
          <ns3:TrackPointExtension>
            <ns3:hr>124</ns3:hr>
            <ns3:cad>50</ns3:cad>
          </ns3:TrackPointExtension>
        </extensions>
      </trkpt>
      <trkpt lat="37.04579651355743408203125" lon="-8.97621489129960536956787109375">
        <ele>42.200000762939453125</ele>
        <time>2026-04-28T11:59:52.000Z</time>
        <extensions>
          <ns3:TrackPointExtension>
            <ns3:hr>125</ns3:hr>
            <ns3:cad>50</ns3:cad>
          </ns3:TrackPointExtension>
        </extensions>
      </trkpt>
      <trkpt lat="37.0458032190799713134765625" lon="-8.976237773895263671875">
        <ele>43</ele>
        <time>2026-04-28T11:59:54.000Z</time>
        <extensions>
          <ns3:TrackPointExtension>
            <ns3:hr>125</ns3:hr>
            <ns3:cad>0</ns3:cad>
          </ns3:TrackPointExtension>
        </extensions>
      </trkpt>
      <trkpt lat="37.0458007045090198516845703125" lon="-8.97624540142714977264404296875">
        <ele>43.200000762939453125</ele>
        <time>2026-04-28T11:59:55.000Z</time>
        <extensions>
          <ns3:TrackPointExtension>
            <ns3:hr>126</ns3:hr>
            <ns3:cad>0</ns3:cad>
          </ns3:TrackPointExtension>
        </extensions>
      </trkpt>
      <trkpt lat="37.0457976870238780975341796875" lon="-8.97626233287155628204345703125">
        <ele>43.59999847412109375</ele>
        <time>2026-04-28T11:59:56.000Z</time>
        <extensions>
          <ns3:TrackPointExtension>
            <ns3:hr>129</ns3:hr>
            <ns3:cad>0</ns3:cad>
          </ns3:TrackPointExtension>
        </extensions>
      </trkpt>
      <trkpt lat="37.0457939989864826202392578125" lon="-8.97627507336437702178955078125">
        <ele>43.799999237060546875</ele>
        <time>2026-04-28T11:59:57.000Z</time>
        <extensions>
          <ns3:TrackPointExtension>
            <ns3:hr>132</ns3:hr>
            <ns3:cad>0</ns3:cad>
          </ns3:TrackPointExtension>
        </extensions>
      </trkpt>
      <trkpt lat="37.04579073004424571990966796875" lon="-8.97628328762948513031005859375">
        <ele>43.799999237060546875</ele>
        <time>2026-04-28T11:59:58.000Z</time>
        <extensions>
          <ns3:TrackPointExtension>
            <ns3:hr>136</ns3:hr>
            <ns3:cad>0</ns3:cad>
          </ns3:TrackPointExtension>
        </extensions>
      </trkpt>
      <trkpt lat="37.0457817614078521728515625" lon="-8.976301811635494232177734375">
        <ele>43.799999237060546875</ele>
        <time>2026-04-28T12:00:00.000Z</time>
        <extensions>
          <ns3:TrackPointExtension>
            <ns3:hr>138</ns3:hr>
            <ns3:cad>0</ns3:cad>
          </ns3:TrackPointExtension>
        </extensions>
      </trkpt>
      <trkpt lat="37.04579223878681659698486328125" lon="-8.97635084576904773712158203125">
        <ele>43.40000152587890625</ele>
        <time>2026-04-28T12:00:05.000Z</time>
        <extensions>
          <ns3:TrackPointExtension>
            <ns3:hr>139</ns3:hr>
            <ns3:cad>0</ns3:cad>
          </ns3:TrackPointExtension>
        </extensions>
      </trkpt>
      <trkpt lat="37.045807577669620513916015625" lon="-8.976428546011447906494140625">
        <ele>44.200000762939453125</ele>
        <time>2026-04-28T12:00:10.000Z</time>
        <extensions>
          <ns3:TrackPointExtension>
            <ns3:hr>140</ns3:hr>
            <ns3:cad>0</ns3:cad>
          </ns3:TrackPointExtension>
        </extensions>
      </trkpt>
      <trkpt lat="37.0458050630986690521240234375" lon="-8.9764456450939178466796875">
        <ele>44.40000152587890625</ele>
        <time>2026-04-28T12:00:11.000Z</time>
        <extensions>
          <ns3:TrackPointExtension>
            <ns3:hr>140</ns3:hr>
            <ns3:cad>0</ns3:cad>
          </ns3:TrackPointExtension>
        </extensions>
      </trkpt>
      <trkpt lat="37.04579391516745090484619140625" lon="-8.97647657431662082672119140625">
        <ele>44.40000152587890625</ele>
        <time>2026-04-28T12:00:13.000Z</time>
        <extensions>
          <ns3:TrackPointExtension>
            <ns3:hr>141</ns3:hr>
            <ns3:cad>51</ns3:cad>
          </ns3:TrackPointExtension>
        </extensions>
      </trkpt>
      <trkpt lat="37.0457779057323932647705078125" lon="-8.97649317048490047454833984375">
        <ele>44.40000152587890625</ele>
        <time>2026-04-28T12:00:15.000Z</time>
        <extensions>
          <ns3:TrackPointExtension>
            <ns3:hr>141</ns3:hr>
            <ns3:cad>0</ns3:cad>
          </ns3:TrackPointExtension>
        </extensions>
      </trkpt>
      <trkpt lat="37.0457701943814754486083984375" lon="-8.9766084216535091400146484375">
        <ele>45.200000762939453125</ele>
        <time>2026-04-28T12:00:23.000Z</time>
        <extensions>
          <ns3:TrackPointExtension>
            <ns3:hr>140</ns3:hr>
            <ns3:cad>0</ns3:cad>
          </ns3:TrackPointExtension>
        </extensions>
      </trkpt>
      <trkpt lat="37.0457648299634456634521484375" lon="-8.97673171944916248321533203125">
        <ele>44.40000152587890625</ele>
        <time>2026-04-28T12:00:32.000Z</time>
        <extensions>
          <ns3:TrackPointExtension>
            <ns3:hr>138</ns3:hr>
            <ns3:cad>56</ns3:cad>
          </ns3:TrackPointExtension>
        </extensions>
      </trkpt>
      <trkpt lat="37.0457527600228786468505859375" lon="-8.97679030895233154296875">
        <ele>44.200000762939453125</ele>
        <time>2026-04-28T12:00:36.000Z</time>
        <extensions>
          <ns3:TrackPointExtension>
            <ns3:hr>135</ns3:hr>
            <ns3:cad>57</ns3:cad>
          </ns3:TrackPointExtension>
        </extensions>
      </trkpt>
      <trkpt lat="37.045744545757770538330078125" lon="-8.9768411032855510711669921875">
        <ele>43.59999847412109375</ele>
        <time>2026-04-28T12:00:39.000Z</time>
        <extensions>
          <ns3:TrackPointExtension>
            <ns3:hr>134</ns3:hr>
            <ns3:cad>59</ns3:cad>
          </ns3:TrackPointExtension>
        </extensions>
      </trkpt>
      <trkpt lat="37.0457467250525951385498046875" lon="-8.9768565259873867034912109375">
        <ele>43.40000152587890625</ele>
        <time>2026-04-28T12:00:40.000Z</time>
        <extensions>
          <ns3:TrackPointExtension>
            <ns3:hr>133</ns3:hr>
            <ns3:cad>59</ns3:cad>
          </ns3:TrackPointExtension>
        </extensions>
      </trkpt>
      <trkpt lat="37.04575586132705211639404296875" lon="-8.976924419403076171875">
        <ele>43</ele>
        <time>2026-04-28T12:00:45.000Z</time>
        <extensions>
          <ns3:TrackPointExtension>
            <ns3:hr>132</ns3:hr>
            <ns3:cad>60</ns3:cad>
          </ns3:TrackPointExtension>
        </extensions>
      </trkpt>
      <trkpt lat="37.0457490719854831695556640625" lon="-8.97696356289088726043701171875">
        <ele>42.40000152587890625</ele>
        <time>2026-04-28T12:00:48.000Z</time>
        <extensions>
          <ns3:TrackPointExtension>
            <ns3:hr>130</ns3:hr>
            <ns3:cad>59</ns3:cad>
          </ns3:TrackPointExtension>
        </extensions>
      </trkpt>
      <trkpt lat="37.045749910175800323486328125" lon="-8.97700765170156955718994140625">
        <ele>41</ele>
        <time>2026-04-28T12:00:51.000Z</time>
        <extensions>
          <ns3:TrackPointExtension>
            <ns3:hr>127</ns3:hr>
            <ns3:cad>60</ns3:cad>
          </ns3:TrackPointExtension>
        </extensions>
      </trkpt>
      <trkpt lat="37.04576172865927219390869140625" lon="-8.9770962484180927276611328125">
        <ele>40.40000152587890625</ele>
        <time>2026-04-28T12:00:57.000Z</time>
        <extensions>
          <ns3:TrackPointExtension>
            <ns3:hr>124</ns3:hr>
            <ns3:cad>61</ns3:cad>
          </ns3:TrackPointExtension>
        </extensions>
      </trkpt>
      <trkpt lat="37.04576005227863788604736328125" lon="-8.9771612919867038726806640625">
        <ele>40.40000152587890625</ele>
        <time>2026-04-28T12:01:01.000Z</time>
        <extensions>
          <ns3:TrackPointExtension>
            <ns3:hr>123</ns3:hr>
            <ns3:cad>62</ns3:cad>
          </ns3:TrackPointExtension>
        </extensions>
      </trkpt>
      <trkpt lat="37.04574353992938995361328125" lon="-8.97727302275598049163818359375">
        <ele>40</ele>
        <time>2026-04-28T12:01:09.000Z</time>
        <extensions>
          <ns3:TrackPointExtension>
            <ns3:hr>122</ns3:hr>
            <ns3:cad>57</ns3:cad>
          </ns3:TrackPointExtension>
        </extensions>
      </trkpt>
      <trkpt lat="37.04573951661586761474609375" lon="-8.97728576324880123138427734375">
        <ele>40</ele>
        <time>2026-04-28T12:01:10.000Z</time>
        <extensions>
          <ns3:TrackPointExtension>
            <ns3:hr>122</ns3:hr>
            <ns3:cad>57</ns3:cad>
          </ns3:TrackPointExtension>
        </extensions>
      </trkpt>
      <trkpt lat="37.045760639011859893798828125" lon="-8.9773855917155742645263671875">
        <ele>39.200000762939453125</ele>
        <time>2026-04-28T12:01:17.000Z</time>
        <extensions>
          <ns3:TrackPointExtension>
            <ns3:hr>120</ns3:hr>
            <ns3:cad>57</ns3:cad>
          </ns3:TrackPointExtension>
        </extensions>
      </trkpt>
      <trkpt lat="37.04576231539249420166015625" lon="-8.9774100668728351593017578125">
        <ele>38.799999237060546875</ele>
        <time>2026-04-28T12:01:19.000Z</time>
        <extensions>
          <ns3:TrackPointExtension>
            <ns3:hr>119</ns3:hr>
            <ns3:cad>57</ns3:cad>
          </ns3:TrackPointExtension>
        </extensions>
      </trkpt>
      <trkpt lat="37.04577329568564891815185546875" lon="-8.97745809517800807952880859375">
        <ele>37.59999847412109375</ele>
        <time>2026-04-28T12:01:23.000Z</time>
        <extensions>
          <ns3:TrackPointExtension>
            <ns3:hr>117</ns3:hr>
            <ns3:cad>58</ns3:cad>
          </ns3:TrackPointExtension>
        </extensions>
      </trkpt>
      <trkpt lat="37.0457732118666172027587890625" lon="-8.97746949456632137298583984375">
        <ele>37.59999847412109375</ele>
        <time>2026-04-28T12:01:24.000Z</time>
        <extensions>
          <ns3:TrackPointExtension>
            <ns3:hr>116</ns3:hr>
            <ns3:cad>58</ns3:cad>
          </ns3:TrackPointExtension>
        </extensions>
      </trkpt>
      <trkpt lat="37.04579961486160755157470703125" lon="-8.97754375822842121124267578125">
        <ele>37.59999847412109375</ele>
        <time>2026-04-28T12:01:30.000Z</time>
        <extensions>
          <ns3:TrackPointExtension>
            <ns3:hr>116</ns3:hr>
            <ns3:cad>57</ns3:cad>
          </ns3:TrackPointExtension>
        </extensions>
      </trkpt>
      <trkpt lat="37.0458251796662807464599609375" lon="-8.97767820395529270172119140625">
        <ele>38</ele>
        <time>2026-04-28T12:01:38.000Z</time>
        <extensions>
          <ns3:TrackPointExtension>
            <ns3:hr>115</ns3:hr>
            <ns3:cad>0</ns3:cad>
          </ns3:TrackPointExtension>
        </extensions>
      </trkpt>
      <trkpt lat="37.0458426140248775482177734375" lon="-8.97777803242206573486328125">
        <ele>37.40000152587890625</ele>
        <time>2026-04-28T12:01:45.000Z</time>
        <extensions>
          <ns3:TrackPointExtension>
            <ns3:hr>114</ns3:hr>
            <ns3:cad>57</ns3:cad>
          </ns3:TrackPointExtension>
        </extensions>
      </trkpt>
      <trkpt lat="37.04586164094507694244384765625" lon="-8.9778465963900089263916015625">
        <ele>36.59999847412109375</ele>
        <time>2026-04-28T12:01:50.000Z</time>
        <extensions>
          <ns3:TrackPointExtension>
            <ns3:hr>114</ns3:hr>
            <ns3:cad>60</ns3:cad>
          </ns3:TrackPointExtension>
        </extensions>
      </trkpt>
      <trkpt lat="37.04588745720684528350830078125" lon="-8.97791080176830291748046875">
        <ele>37</ele>
        <time>2026-04-28T12:01:54.000Z</time>
        <extensions>
          <ns3:TrackPointExtension>
            <ns3:hr>116</ns3:hr>
            <ns3:cad>59</ns3:cad>
          </ns3:TrackPointExtension>
        </extensions>
      </trkpt>
      <trkpt lat="37.0459666661918163299560546875" lon="-8.97801197133958339691162109375">
        <ele>36.799999237060546875</ele>
        <time>2026-04-28T12:02:02.000Z</time>
        <extensions>
          <ns3:TrackPointExtension>
            <ns3:hr>119</ns3:hr>
            <ns3:cad>60</ns3:cad>
          </ns3:TrackPointExtension>
        </extensions>
      </trkpt>
      <trkpt lat="37.0460139401257038116455078125" lon="-8.97808170877397060394287109375">
        <ele>36.40000152587890625</ele>
        <time>2026-04-28T12:02:09.000Z</time>
        <extensions>
          <ns3:TrackPointExtension>
            <ns3:hr>120</ns3:hr>
            <ns3:cad>57</ns3:cad>
          </ns3:TrackPointExtension>
        </extensions>
      </trkpt>
      <trkpt lat="37.04607537947595119476318359375" lon="-8.978104256093502044677734375">
        <ele>35.59999847412109375</ele>
        <time>2026-04-28T12:02:14.000Z</time>
        <extensions>
          <ns3:TrackPointExtension>
            <ns3:hr>120</ns3:hr>
            <ns3:cad>57</ns3:cad>
          </ns3:TrackPointExtension>
        </extensions>
      </trkpt>
      <trkpt lat="37.04608778469264507293701171875" lon="-8.9781054295599460601806640625">
        <ele>35.59999847412109375</ele>
        <time>2026-04-28T12:02:15.000Z</time>
        <extensions>
          <ns3:TrackPointExtension>
            <ns3:hr>120</ns3:hr>
            <ns3:cad>57</ns3:cad>
          </ns3:TrackPointExtension>
        </extensions>
      </trkpt>
      <trkpt lat="37.0461336337029933929443359375" lon="-8.978097550570964813232421875">
        <ele>36</ele>
        <time>2026-04-28T12:02:19.000Z</time>
        <extensions>
          <ns3:TrackPointExtension>
            <ns3:hr>117</ns3:hr>
            <ns3:cad>58</ns3:cad>
          </ns3:TrackPointExtension>
        </extensions>
      </trkpt>
      <trkpt lat="37.04617680050432682037353515625" lon="-8.97809461690485477447509765625">
        <ele>36.40000152587890625</ele>
        <time>2026-04-28T12:02:23.000Z</time>
        <extensions>
          <ns3:TrackPointExtension>
            <ns3:hr>116</ns3:hr>
            <ns3:cad>59</ns3:cad>
          </ns3:TrackPointExtension>
        </extensions>
      </trkpt>
      <trkpt lat="37.0461976714432239532470703125" lon="-8.9780796132981777191162109375">
        <ele>36.799999237060546875</ele>
        <time>2026-04-28T12:02:25.000Z</time>
        <extensions>
          <ns3:TrackPointExtension>
            <ns3:hr>116</ns3:hr>
            <ns3:cad>56</ns3:cad>
          </ns3:TrackPointExtension>
        </extensions>
      </trkpt>
      <trkpt lat="37.04622625373303890228271484375" lon="-8.9780682139098644256591796875">
        <ele>37</ele>
        <time>2026-04-28T12:02:28.000Z</time>
        <extensions>
          <ns3:TrackPointExtension>
            <ns3:hr>119</ns3:hr>
            <ns3:cad>55</ns3:cad>
          </ns3:TrackPointExtension>
        </extensions>
      </trkpt>
      <trkpt lat="37.046265900135040283203125" lon="-8.97805237211287021636962890625">
        <ele>37.59999847412109375</ele>
        <time>2026-04-28T12:02:32.000Z</time>
        <extensions>
          <ns3:TrackPointExtension>
            <ns3:hr>119</ns3:hr>
            <ns3:cad>53</ns3:cad>
          </ns3:TrackPointExtension>
        </extensions>
      </trkpt>
      <trkpt lat="37.04627595841884613037109375" lon="-8.978049270808696746826171875">
        <ele>37.799999237060546875</ele>
        <time>2026-04-28T12:02:33.000Z</time>
        <extensions>
          <ns3:TrackPointExtension>
            <ns3:hr>119</ns3:hr>
            <ns3:cad>53</ns3:cad>
          </ns3:TrackPointExtension>
        </extensions>
      </trkpt>
      <trkpt lat="37.046338655054569244384765625" lon="-8.9780249632894992828369140625">
        <ele>38.59999847412109375</ele>
        <time>2026-04-28T12:02:39.000Z</time>
        <extensions>
          <ns3:TrackPointExtension>
            <ns3:hr>122</ns3:hr>
            <ns3:cad>53</ns3:cad>
          </ns3:TrackPointExtension>
        </extensions>
      </trkpt>
      <trkpt lat="37.0463592745363712310791015625" lon="-8.97801901213824748992919921875">
        <ele>38.799999237060546875</ele>
        <time>2026-04-28T12:02:41.000Z</time>
        <extensions>
          <ns3:TrackPointExtension>
            <ns3:hr>122</ns3:hr>
            <ns3:cad>54</ns3:cad>
          </ns3:TrackPointExtension>
        </extensions>
      </trkpt>
      <trkpt lat="37.0464451052248477935791015625" lon="-8.9780169166624546051025390625">
        <ele>40</ele>
        <time>2026-04-28T12:02:49.000Z</time>
        <extensions>
          <ns3:TrackPointExtension>
            <ns3:hr>124</ns3:hr>
            <ns3:cad>55</ns3:cad>
          </ns3:TrackPointExtension>
        </extensions>
      </trkpt>
      <trkpt lat="37.04649095423519611358642578125" lon="-8.9780390448868274688720703125">
        <ele>40.200000762939453125</ele>
        <time>2026-04-28T12:02:53.000Z</time>
        <extensions>
          <ns3:TrackPointExtension>
            <ns3:hr>127</ns3:hr>
            <ns3:cad>55</ns3:cad>
          </ns3:TrackPointExtension>
        </extensions>
      </trkpt>
      <trkpt lat="37.0465000905096530914306640625" lon="-8.978039212524890899658203125">
        <ele>39.799999237060546875</ele>
        <time>2026-04-28T12:02:57.000Z</time>
        <extensions>
          <ns3:TrackPointExtension>
            <ns3:hr>128</ns3:hr>
            <ns3:cad>0</ns3:cad>
          </ns3:TrackPointExtension>
        </extensions>
      </trkpt>
      <trkpt lat="37.04649715684354305267333984375" lon="-8.97803845815360546112060546875">
        <ele>39.59999847412109375</ele>
        <time>2026-04-28T12:03:07.000Z</time>
        <extensions>
          <ns3:TrackPointExtension>
            <ns3:hr>131</ns3:hr>
            <ns3:cad>0</ns3:cad>
          </ns3:TrackPointExtension>
        </extensions>
      </trkpt>
      <trkpt lat="37.04650528728961944580078125" lon="-8.97803485393524169921875">
        <ele>39.40000152587890625</ele>
        <time>2026-04-28T12:03:09.000Z</time>
        <extensions>
          <ns3:TrackPointExtension>
            <ns3:hr>133</ns3:hr>
            <ns3:cad>0</ns3:cad>
          </ns3:TrackPointExtension>
        </extensions>
      </trkpt>
      <trkpt lat="37.04660092480480670928955078125" lon="-8.97797257639467716217041015625">
        <ele>40.40000152587890625</ele>
        <time>2026-04-28T12:03:18.000Z</time>
        <extensions>
          <ns3:TrackPointExtension>
            <ns3:hr>134</ns3:hr>
            <ns3:cad>58</ns3:cad>
          </ns3:TrackPointExtension>
        </extensions>
      </trkpt>
      <trkpt lat="37.0466466061770915985107421875" lon="-8.977915160357952117919921875">
        <ele>41.200000762939453125</ele>
        <time>2026-04-28T12:03:24.000Z</time>
        <extensions>
          <ns3:TrackPointExtension>
            <ns3:hr>135</ns3:hr>
            <ns3:cad>0</ns3:cad>
          </ns3:TrackPointExtension>
        </extensions>
      </trkpt>
      <trkpt lat="37.0466559939086437225341796875" lon="-8.9779062755405902862548828125">
        <ele>41.40000152587890625</ele>
        <time>2026-04-28T12:03:25.000Z</time>
        <extensions>
          <ns3:TrackPointExtension>
            <ns3:hr>134</ns3:hr>
            <ns3:cad>0</ns3:cad>
          </ns3:TrackPointExtension>
        </extensions>
      </trkpt>
      <trkpt lat="37.04667334444820880889892578125" lon="-8.97789068520069122314453125">
        <ele>41.799999237060546875</ele>
        <time>2026-04-28T12:03:27.000Z</time>
        <extensions>
          <ns3:TrackPointExtension>
            <ns3:hr>130</ns3:hr>
            <ns3:cad>0</ns3:cad>
          </ns3:TrackPointExtension>
        </extensions>
      </trkpt>
      <trkpt lat="37.04670318402349948883056640625" lon="-8.9778744243085384368896484375">
        <ele>42.200000762939453125</ele>
        <time>2026-04-28T12:03:30.000Z</time>
        <extensions>
          <ns3:TrackPointExtension>
            <ns3:hr>130</ns3:hr>
            <ns3:cad>57</ns3:cad>
          </ns3:TrackPointExtension>
        </extensions>
      </trkpt>
      <trkpt lat="37.04674978740513324737548828125" lon="-8.97783377207815647125244140625">
        <ele>42.40000152587890625</ele>
        <time>2026-04-28T12:03:35.000Z</time>
        <extensions>
          <ns3:TrackPointExtension>
            <ns3:hr>132</ns3:hr>
            <ns3:cad>56</ns3:cad>
          </ns3:TrackPointExtension>
        </extensions>
      </trkpt>
      <trkpt lat="37.04679069109261035919189453125" lon="-8.97778867743909358978271484375">
        <ele>43</ele>
        <time>2026-04-28T12:03:40.000Z</time>
        <extensions>
          <ns3:TrackPointExtension>
            <ns3:hr>129</ns3:hr>
            <ns3:cad>59</ns3:cad>
          </ns3:TrackPointExtension>
        </extensions>
      </trkpt>
      <trkpt lat="37.0468102209270000457763671875" lon="-8.9777679741382598876953125">
        <ele>43.200000762939453125</ele>
        <time>2026-04-28T12:03:42.000Z</time>
        <extensions>
          <ns3:TrackPointExtension>
            <ns3:hr>129</ns3:hr>
            <ns3:cad>59</ns3:cad>
          </ns3:TrackPointExtension>
        </extensions>
      </trkpt>
      <trkpt lat="37.046838216483592987060546875" lon="-8.9777456782758235931396484375">
        <ele>43.799999237060546875</ele>
        <time>2026-04-28T12:03:45.000Z</time>
        <extensions>
          <ns3:TrackPointExtension>
            <ns3:hr>129</ns3:hr>
            <ns3:cad>58</ns3:cad>
          </ns3:TrackPointExtension>
        </extensions>
      </trkpt>
      <trkpt lat="37.0468653738498687744140625" lon="-8.97771508432924747467041015625">
        <ele>44.200000762939453125</ele>
        <time>2026-04-28T12:03:48.000Z</time>
        <extensions>
          <ns3:TrackPointExtension>
            <ns3:hr>130</ns3:hr>
            <ns3:cad>58</ns3:cad>
          </ns3:TrackPointExtension>
        </extensions>
      </trkpt>
      <trkpt lat="37.046895213425159454345703125" lon="-8.9776789583265781402587890625">
        <ele>45</ele>
        <time>2026-04-28T12:03:52.000Z</time>
        <extensions>
          <ns3:TrackPointExtension>
            <ns3:hr>130</ns3:hr>
            <ns3:cad>59</ns3:cad>
          </ns3:TrackPointExtension>
        </extensions>
      </trkpt>
      <trkpt lat="37.0469097979366779327392578125" lon="-8.9776585064828395843505859375">
        <ele>45.40000152587890625</ele>
        <time>2026-04-28T12:03:54.000Z</time>
        <extensions>
          <ns3:TrackPointExtension>
            <ns3:hr>131</ns3:hr>
            <ns3:cad>59</ns3:cad>
          </ns3:TrackPointExtension>
        </extensions>
      </trkpt>
      <trkpt lat="37.0469565689563751220703125" lon="-8.97757879458367824554443359375">
        <ele>46.40000152587890625</ele>
        <time>2026-04-28T12:04:01.000Z</time>
        <extensions>
          <ns3:TrackPointExtension>
            <ns3:hr>130</ns3:hr>
            <ns3:cad>59</ns3:cad>
          </ns3:TrackPointExtension>
        </extensions>
      </trkpt>
      <trkpt lat="37.0469788648188114166259765625" lon="-8.97754669189453125">
        <ele>47</ele>
        <time>2026-04-28T12:04:04.000Z</time>
        <extensions>
          <ns3:TrackPointExtension>
            <ns3:hr>131</ns3:hr>
            <ns3:cad>59</ns3:cad>
          </ns3:TrackPointExtension>
        </extensions>
      </trkpt>
      <trkpt lat="37.04700560308992862701416015625" lon="-8.9775123260915279388427734375">
        <ele>47.59999847412109375</ele>
        <time>2026-04-28T12:04:07.000Z</time>
        <extensions>
          <ns3:TrackPointExtension>
            <ns3:hr>131</ns3:hr>
            <ns3:cad>57</ns3:cad>
          </ns3:TrackPointExtension>
        </extensions>
      </trkpt>
      <trkpt lat="37.04705354757606983184814453125" lon="-8.9775036089122295379638671875">
        <ele>47.59999847412109375</ele>
        <time>2026-04-28T12:04:11.000Z</time>
        <extensions>
          <ns3:TrackPointExtension>
            <ns3:hr>133</ns3:hr>
            <ns3:cad>59</ns3:cad>
          </ns3:TrackPointExtension>
        </extensions>
      </trkpt>
      <trkpt lat="37.04709344543516635894775390625" lon="-8.9775015972554683685302734375">
        <ele>48</ele>
        <time>2026-04-28T12:04:14.000Z</time>
        <extensions>
          <ns3:TrackPointExtension>
            <ns3:hr>137</ns3:hr>
            <ns3:cad>59</ns3:cad>
          </ns3:TrackPointExtension>
        </extensions>
      </trkpt>
      <trkpt lat="37.04716511070728302001953125" lon="-8.97747821174561977386474609375">
        <ele>48.200000762939453125</ele>
        <time>2026-04-28T12:04:20.000Z</time>
        <extensions>
          <ns3:TrackPointExtension>
            <ns3:hr>138</ns3:hr>
            <ns3:cad>60</ns3:cad>
          </ns3:TrackPointExtension>
        </extensions>
      </trkpt>
      <trkpt lat="37.04720400273799896240234375" lon="-8.977467902004718780517578125">
        <ele>48.59999847412109375</ele>
        <time>2026-04-28T12:04:23.000Z</time>
        <extensions>
          <ns3:TrackPointExtension>
            <ns3:hr>137</ns3:hr>
            <ns3:cad>60</ns3:cad>
          </ns3:TrackPointExtension>
        </extensions>
      </trkpt>
      <trkpt lat="37.047268711030483245849609375" lon="-8.97741417400538921356201171875">
        <ele>48.799999237060546875</ele>
        <time>2026-04-28T12:04:29.000Z</time>
        <extensions>
          <ns3:TrackPointExtension>
            <ns3:hr>136</ns3:hr>
            <ns3:cad>61</ns3:cad>
          </ns3:TrackPointExtension>
        </extensions>
      </trkpt>
      <trkpt lat="37.0473342575132846832275390625" lon="-8.97738399915397167205810546875">
        <ele>49.59999847412109375</ele>
        <time>2026-04-28T12:04:35.000Z</time>
        <extensions>
          <ns3:TrackPointExtension>
            <ns3:hr>135</ns3:hr>
            <ns3:cad>59</ns3:cad>
          </ns3:TrackPointExtension>
        </extensions>
      </trkpt>
      <trkpt lat="37.0474375225603580474853515625" lon="-8.97732364945113658905029296875">
        <ele>50.200000762939453125</ele>
        <time>2026-04-28T12:04:44.000Z</time>
        <extensions>
          <ns3:TrackPointExtension>
            <ns3:hr>135</ns3:hr>
            <ns3:cad>61</ns3:cad>
          </ns3:TrackPointExtension>
        </extensions>
      </trkpt>
      <trkpt lat="37.0475290529429912567138671875" lon="-8.97729791700839996337890625">
        <ele>50.200000762939453125</ele>
        <time>2026-04-28T12:04:51.000Z</time>
        <extensions>
          <ns3:TrackPointExtension>
            <ns3:hr>136</ns3:hr>
            <ns3:cad>60</ns3:cad>
          </ns3:TrackPointExtension>
        </extensions>
      </trkpt>
      <trkpt lat="37.0476217567920684814453125" lon="-8.97722356952726840972900390625">
        <ele>50.40000152587890625</ele>
        <time>2026-04-28T12:05:00.000Z</time>
        <extensions>
          <ns3:TrackPointExtension>
            <ns3:hr>133</ns3:hr>
            <ns3:cad>60</ns3:cad>
          </ns3:TrackPointExtension>
        </extensions>
      </trkpt>
      <trkpt lat="37.04764380119740962982177734375" lon="-8.97720999084413051605224609375">
        <ele>50.59999847412109375</ele>
        <time>2026-04-28T12:05:02.000Z</time>
        <extensions>
          <ns3:TrackPointExtension>
            <ns3:hr>131</ns3:hr>
            <ns3:cad>60</ns3:cad>
          </ns3:TrackPointExtension>
        </extensions>
      </trkpt>
      <trkpt lat="37.0476648397743701934814453125" lon="-8.9771931432187557220458984375">
        <ele>50.799999237060546875</ele>
        <time>2026-04-28T12:05:04.000Z</time>
        <extensions>
          <ns3:TrackPointExtension>
            <ns3:hr>129</ns3:hr>
            <ns3:cad>60</ns3:cad>
          </ns3:TrackPointExtension>
        </extensions>
      </trkpt>
      <trkpt lat="37.04768545925617218017578125" lon="-8.9771770499646663665771484375">
        <ele>50.799999237060546875</ele>
        <time>2026-04-28T12:05:06.000Z</time>
        <extensions>
          <ns3:TrackPointExtension>
            <ns3:hr>125</ns3:hr>
            <ns3:cad>59</ns3:cad>
          </ns3:TrackPointExtension>
        </extensions>
      </trkpt>
      <trkpt lat="37.0477439649403095245361328125" lon="-8.97712918929755687713623046875">
        <ele>50.59999847412109375</ele>
        <time>2026-04-28T12:05:12.000Z</time>
        <extensions>
          <ns3:TrackPointExtension>
            <ns3:hr>124</ns3:hr>
            <ns3:cad>59</ns3:cad>
          </ns3:TrackPointExtension>
        </extensions>
      </trkpt>
      <trkpt lat="37.04782250337302684783935546875" lon="-8.97703330032527446746826171875">
        <ele>51</ele>
        <time>2026-04-28T12:05:21.000Z</time>
        <extensions>
          <ns3:TrackPointExtension>
            <ns3:hr>123</ns3:hr>
            <ns3:cad>59</ns3:cad>
          </ns3:TrackPointExtension>
        </extensions>
      </trkpt>
      <trkpt lat="37.04790313728153705596923828125" lon="-8.97693690843880176544189453125">
        <ele>51.59999847412109375</ele>
        <time>2026-04-28T12:05:30.000Z</time>
        <extensions>
          <ns3:TrackPointExtension>
            <ns3:hr>124</ns3:hr>
            <ns3:cad>58</ns3:cad>
          </ns3:TrackPointExtension>
        </extensions>
      </trkpt>
      <trkpt lat="37.04790900461375713348388671875" lon="-8.97692400030791759490966796875">
        <ele>51.799999237060546875</ele>
        <time>2026-04-28T12:05:31.000Z</time>
        <extensions>
          <ns3:TrackPointExtension>
            <ns3:hr>124</ns3:hr>
            <ns3:cad>58</ns3:cad>
          </ns3:TrackPointExtension>
        </extensions>
      </trkpt>
      <trkpt lat="37.04793733544647693634033203125" lon="-8.97689483128488063812255859375">
        <ele>52.200000762939453125</ele>
        <time>2026-04-28T12:05:34.000Z</time>
        <extensions>
          <ns3:TrackPointExtension>
            <ns3:hr>128</ns3:hr>
            <ns3:cad>59</ns3:cad>
          </ns3:TrackPointExtension>
        </extensions>
      </trkpt>
      <trkpt lat="37.04798318445682525634765625" lon="-8.9768823422491550445556640625">
        <ele>52.59999847412109375</ele>
        <time>2026-04-28T12:05:38.000Z</time>
        <extensions>
          <ns3:TrackPointExtension>
            <ns3:hr>130</ns3:hr>
            <ns3:cad>58</ns3:cad>
          </ns3:TrackPointExtension>
        </extensions>
      </trkpt>
      <trkpt lat="37.0480219088494777679443359375" lon="-8.9768783189356327056884765625">
        <ele>52.200000762939453125</ele>
        <time>2026-04-28T12:05:42.000Z</time>
        <extensions>
          <ns3:TrackPointExtension>
            <ns3:hr>127</ns3:hr>
            <ns3:cad>57</ns3:cad>
          </ns3:TrackPointExtension>
        </extensions>
      </trkpt>
      <trkpt lat="37.048019729554653167724609375" lon="-8.97688619792461395263671875">
        <ele>52</ele>
        <time>2026-04-28T12:05:44.000Z</time>
        <extensions>
          <ns3:TrackPointExtension>
            <ns3:hr>126</ns3:hr>
            <ns3:cad>0</ns3:cad>
          </ns3:TrackPointExtension>
        </extensions>
      </trkpt>
      <trkpt lat="37.0479999482631683349609375" lon="-8.9768913947045803070068359375">
        <ele>52.40000152587890625</ele>
        <time>2026-04-28T12:05:51.000Z</time>
        <extensions>
          <ns3:TrackPointExtension>
            <ns3:hr>127</ns3:hr>
            <ns3:cad>0</ns3:cad>
          </ns3:TrackPointExtension>
        </extensions>
      </trkpt>
      <trkpt lat="37.0479999482631683349609375" lon="-8.9768913947045803070068359375">
        <ele>52.59999847412109375</ele>
        <time>2026-04-28T12:06:00.000Z</time>
        <extensions>
          <ns3:TrackPointExtension>
            <ns3:hr>130</ns3:hr>
            <ns3:cad>0</ns3:cad>
          </ns3:TrackPointExtension>
        </extensions>
      </trkpt>
      <trkpt lat="37.0479999482631683349609375" lon="-8.9768913947045803070068359375">
        <ele>52.40000152587890625</ele>
        <time>2026-04-28T12:06:09.000Z</time>
        <extensions>
          <ns3:TrackPointExtension>
            <ns3:hr>129</ns3:hr>
            <ns3:cad>0</ns3:cad>
          </ns3:TrackPointExtension>
        </extensions>
      </trkpt>
      <trkpt lat="37.0480272732675075531005859375" lon="-8.9768793247640132904052734375">
        <ele>52.200000762939453125</ele>
        <time>2026-04-28T12:06:17.000Z</time>
        <extensions>
          <ns3:TrackPointExtension>
            <ns3:hr>129</ns3:hr>
            <ns3:cad>0</ns3:cad>
          </ns3:TrackPointExtension>
        </extensions>
      </trkpt>
      <trkpt lat="37.048068344593048095703125" lon="-8.9768313802778720855712890625">
        <ele>50.799999237060546875</ele>
        <time>2026-04-28T12:06:24.000Z</time>
        <extensions>
          <ns3:TrackPointExtension>
            <ns3:hr>128</ns3:hr>
            <ns3:cad>55</ns3:cad>
          </ns3:TrackPointExtension>
        </extensions>
      </trkpt>
      <trkpt lat="37.048074714839458465576171875" lon="-8.9768243394792079925537109375">
        <ele>50.59999847412109375</ele>
        <time>2026-04-28T12:06:25.000Z</time>
        <extensions>
          <ns3:TrackPointExtension>
            <ns3:hr>129</ns3:hr>
            <ns3:cad>55</ns3:cad>
          </ns3:TrackPointExtension>
        </extensions>
      </trkpt>
      <trkpt lat="37.0481171272695064544677734375" lon="-8.9768159575760364532470703125">
        <ele>49.59999847412109375</ele>
        <time>2026-04-28T12:06:30.000Z</time>
        <extensions>
          <ns3:TrackPointExtension>
            <ns3:hr>126</ns3:hr>
            <ns3:cad>57</ns3:cad>
          </ns3:TrackPointExtension>
        </extensions>
      </trkpt>
      <trkpt lat="37.04812324605882167816162109375" lon="-8.97681822068989276885986328125">
        <ele>49.40000152587890625</ele>
        <time>2026-04-28T12:06:31.000Z</time>
        <extensions>
          <ns3:TrackPointExtension>
            <ns3:hr>126</ns3:hr>
            <ns3:cad>57</ns3:cad>
          </ns3:TrackPointExtension>
        </extensions>
      </trkpt>
      <trkpt lat="37.04814638011157512664794921875" lon="-8.9768104255199432373046875">
        <ele>48.59999847412109375</ele>
        <time>2026-04-28T12:06:34.000Z</time>
        <extensions>
          <ns3:TrackPointExtension>
            <ns3:hr>123</ns3:hr>
            <ns3:cad>43</ns3:cad>
          </ns3:TrackPointExtension>
        </extensions>
      </trkpt>
      <trkpt lat="37.04815124161541461944580078125" lon="-8.97680581547319889068603515625">
        <ele>48.40000152587890625</ele>
        <time>2026-04-28T12:06:35.000Z</time>
        <extensions>
          <ns3:TrackPointExtension>
            <ns3:hr>121</ns3:hr>
            <ns3:cad>43</ns3:cad>
          </ns3:TrackPointExtension>
        </extensions>
      </trkpt>
      <trkpt lat="37.048153840005397796630859375" lon="-8.9768001995980739593505859375">
        <ele>48</ele>
        <time>2026-04-28T12:06:36.000Z</time>
        <extensions>
          <ns3:TrackPointExtension>
            <ns3:hr>119</ns3:hr>
            <ns3:cad>0</ns3:cad>
          </ns3:TrackPointExtension>
        </extensions>
      </trkpt>
      <trkpt lat="37.0481716096401214599609375" lon="-8.97679005749523639678955078125">
        <ele>47.40000152587890625</ele>
        <time>2026-04-28T12:06:39.000Z</time>
        <extensions>
          <ns3:TrackPointExtension>
            <ns3:hr>116</ns3:hr>
            <ns3:cad>0</ns3:cad>
          </ns3:TrackPointExtension>
        </extensions>
      </trkpt>
      <trkpt lat="37.0481808297336101531982421875" lon="-8.976791314780712127685546875">
        <ele>47.200000762939453125</ele>
        <time>2026-04-28T12:06:40.000Z</time>
        <extensions>
          <ns3:TrackPointExtension>
            <ns3:hr>116</ns3:hr>
            <ns3:cad>0</ns3:cad>
          </ns3:TrackPointExtension>
        </extensions>
      </trkpt>
      <trkpt lat="37.04818812198936939239501953125" lon="-8.97679525427520275115966796875">
        <ele>46.59999847412109375</ele>
        <time>2026-04-28T12:06:42.000Z</time>
        <extensions>
          <ns3:TrackPointExtension>
            <ns3:hr>116</ns3:hr>
            <ns3:cad>49</ns3:cad>
          </ns3:TrackPointExtension>
        </extensions>
      </trkpt>
      <trkpt lat="37.0481855235993862152099609375" lon="-8.97680279798805713653564453125">
        <ele>46.40000152587890625</ele>
        <time>2026-04-28T12:06:43.000Z</time>
        <extensions>
          <ns3:TrackPointExtension>
            <ns3:hr>116</ns3:hr>
            <ns3:cad>49</ns3:cad>
          </ns3:TrackPointExtension>
        </extensions>
      </trkpt>
      <trkpt lat="37.04818946309387683868408203125" lon="-8.97681654430925846099853515625">
        <ele>46</ele>
        <time>2026-04-28T12:06:45.000Z</time>
        <extensions>
          <ns3:TrackPointExtension>
            <ns3:hr>119</ns3:hr>
            <ns3:cad>52</ns3:cad>
          </ns3:TrackPointExtension>
        </extensions>
      </trkpt>
      <trkpt lat="37.04818678088486194610595703125" lon="-8.9768426120281219482421875">
        <ele>45.59999847412109375</ele>
        <time>2026-04-28T12:06:48.000Z</time>
        <extensions>
          <ns3:TrackPointExtension>
            <ns3:hr>120</ns3:hr>
            <ns3:cad>53</ns3:cad>
          </ns3:TrackPointExtension>
        </extensions>
      </trkpt>
      <trkpt lat="37.04818543978035449981689453125" lon="-8.9768843539059162139892578125">
        <ele>44.799999237060546875</ele>
        <time>2026-04-28T12:06:52.000Z</time>
        <extensions>
          <ns3:TrackPointExtension>
            <ns3:hr>120</ns3:hr>
            <ns3:cad>53</ns3:cad>
          </ns3:TrackPointExtension>
        </extensions>
      </trkpt>
      <trkpt lat="37.0482002757489681243896484375" lon="-8.97690924815833568572998046875">
        <ele>44.59999847412109375</ele>
        <time>2026-04-28T12:06:55.000Z</time>
        <extensions>
          <ns3:TrackPointExtension>
            <ns3:hr>120</ns3:hr>
            <ns3:cad>0</ns3:cad>
          </ns3:TrackPointExtension>
        </extensions>
      </trkpt>
      <trkpt lat="37.04820287413895130157470703125" lon="-8.976964317262172698974609375">
        <ele>46</ele>
        <time>2026-04-28T12:07:02.000Z</time>
        <extensions>
          <ns3:TrackPointExtension>
            <ns3:hr>119</ns3:hr>
            <ns3:cad>0</ns3:cad>
          </ns3:TrackPointExtension>
        </extensions>
      </trkpt>
      <trkpt lat="37.048218213021755218505859375" lon="-8.9769926480948925018310546875">
        <ele>46.799999237060546875</ele>
        <time>2026-04-28T12:07:08.000Z</time>
        <extensions>
          <ns3:TrackPointExtension>
            <ns3:hr>120</ns3:hr>
            <ns3:cad>0</ns3:cad>
          </ns3:TrackPointExtension>
        </extensions>
      </trkpt>
      <trkpt lat="37.048224247992038726806640625" lon="-8.97698652930557727813720703125">
        <ele>47</ele>
        <time>2026-04-28T12:07:10.000Z</time>
        <extensions>
          <ns3:TrackPointExtension>
            <ns3:hr>120</ns3:hr>
            <ns3:cad>68</ns3:cad>
          </ns3:TrackPointExtension>
        </extensions>
      </trkpt>
      <trkpt lat="37.048237659037113189697265625" lon="-8.97698418237268924713134765625">
        <ele>47.59999847412109375</ele>
        <time>2026-04-28T12:07:14.000Z</time>
        <extensions>
          <ns3:TrackPointExtension>
            <ns3:hr>120</ns3:hr>
            <ns3:cad>0</ns3:cad>
          </ns3:TrackPointExtension>
        </extensions>
      </trkpt>
      <trkpt lat="37.0482358150184154510498046875" lon="-8.97699289955198764801025390625">
        <ele>48.200000762939453125</ele>
        <time>2026-04-28T12:07:17.000Z</time>
        <extensions>
          <ns3:TrackPointExtension>
            <ns3:hr>124</ns3:hr>
            <ns3:cad>0</ns3:cad>
          </ns3:TrackPointExtension>
        </extensions>
      </trkpt>
      <trkpt lat="37.0482378266751766204833984375" lon="-8.97700614295899868011474609375">
        <ele>48.40000152587890625</ele>
        <time>2026-04-28T12:07:20.000Z</time>
        <extensions>
          <ns3:TrackPointExtension>
            <ns3:hr>127</ns3:hr>
            <ns3:cad>0</ns3:cad>
          </ns3:TrackPointExtension>
        </extensions>
      </trkpt>
      <trkpt lat="37.048237323760986328125" lon="-8.97701402194797992706298828125">
        <ele>48.200000762939453125</ele>
        <time>2026-04-28T12:07:22.000Z</time>
        <extensions>
          <ns3:TrackPointExtension>
            <ns3:hr>130</ns3:hr>
            <ns3:cad>0</ns3:cad>
          </ns3:TrackPointExtension>
        </extensions>
      </trkpt>
      <trkpt lat="37.04823455773293972015380859375" lon="-8.97702592425048351287841796875">
        <ele>48.200000762939453125</ele>
        <time>2026-04-28T12:07:24.000Z</time>
        <extensions>
          <ns3:TrackPointExtension>
            <ns3:hr>135</ns3:hr>
            <ns3:cad>0</ns3:cad>
          </ns3:TrackPointExtension>
        </extensions>
      </trkpt>
      <trkpt lat="37.04822726547718048095703125" lon="-8.97705056704580783843994140625">
        <ele>48.799999237060546875</ele>
        <time>2026-04-28T12:07:27.000Z</time>
        <extensions>
          <ns3:TrackPointExtension>
            <ns3:hr>138</ns3:hr>
            <ns3:cad>69</ns3:cad>
          </ns3:TrackPointExtension>
        </extensions>
      </trkpt>
      <trkpt lat="37.0482143573462963104248046875" lon="-8.97707437165081501007080078125">
        <ele>49.200000762939453125</ele>
        <time>2026-04-28T12:07:30.000Z</time>
        <extensions>
          <ns3:TrackPointExtension>
            <ns3:hr>139</ns3:hr>
            <ns3:cad>69</ns3:cad>
          </ns3:TrackPointExtension>
        </extensions>
      </trkpt>
      <trkpt lat="37.04820069484412670135498046875" lon="-8.977110497653484344482421875">
        <ele>49.59999847412109375</ele>
        <time>2026-04-28T12:07:34.000Z</time>
        <extensions>
          <ns3:TrackPointExtension>
            <ns3:hr>140</ns3:hr>
            <ns3:cad>68</ns3:cad>
          </ns3:TrackPointExtension>
        </extensions>
      </trkpt>
      <trkpt lat="37.0481758005917072296142578125" lon="-8.9771646447479724884033203125">
        <ele>49.799999237060546875</ele>
        <time>2026-04-28T12:07:41.000Z</time>
        <extensions>
          <ns3:TrackPointExtension>
            <ns3:hr>139</ns3:hr>
            <ns3:cad>50</ns3:cad>
          </ns3:TrackPointExtension>
        </extensions>
      </trkpt>
      <trkpt lat="37.04816515557467937469482421875" lon="-8.97721854038536548614501953125">
        <ele>50.40000152587890625</ele>
        <time>2026-04-28T12:07:45.000Z</time>
        <extensions>
          <ns3:TrackPointExtension>
            <ns3:hr>139</ns3:hr>
            <ns3:cad>47</ns3:cad>
          </ns3:TrackPointExtension>
        </extensions>
      </trkpt>
      <trkpt lat="37.04815752804279327392578125" lon="-8.97726841270923614501953125">
        <ele>51.40000152587890625</ele>
        <time>2026-04-28T12:07:50.000Z</time>
        <extensions>
          <ns3:TrackPointExtension>
            <ns3:hr>139</ns3:hr>
            <ns3:cad>48</ns3:cad>
          </ns3:TrackPointExtension>
        </extensions>
      </trkpt>
      <trkpt lat="37.04816482029855251312255859375" lon="-8.97727922536432743072509765625">
        <ele>51.799999237060546875</ele>
        <time>2026-04-28T12:07:51.000Z</time>
        <extensions>
          <ns3:TrackPointExtension>
            <ns3:hr>139</ns3:hr>
            <ns3:cad>48</ns3:cad>
          </ns3:TrackPointExtension>
        </extensions>
      </trkpt>
      <trkpt lat="37.04819348640739917755126953125" lon="-8.97733454592525959014892578125">
        <ele>52.799999237060546875</ele>
        <time>2026-04-28T12:07:56.000Z</time>
        <extensions>
          <ns3:TrackPointExtension>
            <ns3:hr>140</ns3:hr>
            <ns3:cad>55</ns3:cad>
          </ns3:TrackPointExtension>
        </extensions>
      </trkpt>
      <trkpt lat="37.048179320991039276123046875" lon="-8.97740243934094905853271484375">
        <ele>53.799999237060546875</ele>
        <time>2026-04-28T12:08:01.000Z</time>
        <extensions>
          <ns3:TrackPointExtension>
            <ns3:hr>138</ns3:hr>
            <ns3:cad>59</ns3:cad>
          </ns3:TrackPointExtension>
        </extensions>
      </trkpt>
      <trkpt lat="37.0481741242110729217529296875" lon="-8.97744401358067989349365234375">
        <ele>54.200000762939453125</ele>
        <time>2026-04-28T12:08:04.000Z</time>
        <extensions>
          <ns3:TrackPointExtension>
            <ns3:hr>138</ns3:hr>
            <ns3:cad>56</ns3:cad>
          </ns3:TrackPointExtension>
        </extensions>
      </trkpt>
      <trkpt lat="37.04818426631391048431396484375" lon="-8.977499417960643768310546875">
        <ele>55</ele>
        <time>2026-04-28T12:08:08.000Z</time>
        <extensions>
          <ns3:TrackPointExtension>
            <ns3:hr>140</ns3:hr>
            <ns3:cad>57</ns3:cad>
          </ns3:TrackPointExtension>
        </extensions>
      </trkpt>
      <trkpt lat="37.04820354469120502471923828125" lon="-8.977550379931926727294921875">
        <ele>55.799999237060546875</ele>
        <time>2026-04-28T12:08:12.000Z</time>
        <extensions>
          <ns3:TrackPointExtension>
            <ns3:hr>142</ns3:hr>
            <ns3:cad>56</ns3:cad>
          </ns3:TrackPointExtension>
        </extensions>
      </trkpt>
      <trkpt lat="37.04819507896900177001953125" lon="-8.97757678292691707611083984375">
        <ele>56</ele>
        <time>2026-04-28T12:08:14.000Z</time>
        <extensions>
          <ns3:TrackPointExtension>
            <ns3:hr>142</ns3:hr>
            <ns3:cad>56</ns3:cad>
          </ns3:TrackPointExtension>
        </extensions>
      </trkpt>
      <trkpt lat="37.04817898571491241455078125" lon="-8.97765289060771465301513671875">
        <ele>56.59999847412109375</ele>
        <time>2026-04-28T12:08:20.000Z</time>
        <extensions>
          <ns3:TrackPointExtension>
            <ns3:hr>144</ns3:hr>
            <ns3:cad>55</ns3:cad>
          </ns3:TrackPointExtension>
        </extensions>
      </trkpt>
      <trkpt lat="37.0481878705322742462158203125" lon="-8.97770770825445652008056640625">
        <ele>57</ele>
        <time>2026-04-28T12:08:25.000Z</time>
        <extensions>
          <ns3:TrackPointExtension>
            <ns3:hr>144</ns3:hr>
            <ns3:cad>49</ns3:cad>
          </ns3:TrackPointExtension>
        </extensions>
      </trkpt>
      <trkpt lat="37.04818510450422763824462890625" lon="-8.97772313095629215240478515625">
        <ele>57.200000762939453125</ele>
        <time>2026-04-28T12:08:28.000Z</time>
        <extensions>
          <ns3:TrackPointExtension>
            <ns3:hr>143</ns3:hr>
            <ns3:cad>46</ns3:cad>
          </ns3:TrackPointExtension>
        </extensions>
      </trkpt>
      <trkpt lat="37.04818896017968654632568359375" lon="-8.977727405726909637451171875">
        <ele>57.200000762939453125</ele>
        <time>2026-04-28T12:08:37.000Z</time>
        <extensions>
          <ns3:TrackPointExtension>
            <ns3:hr>143</ns3:hr>
            <ns3:cad>0</ns3:cad>
          </ns3:TrackPointExtension>
        </extensions>
      </trkpt>
      <trkpt lat="37.048192061483860015869140625" lon="-8.9777290821075439453125">
        <ele>57.200000762939453125</ele>
        <time>2026-04-28T12:08:40.000Z</time>
        <extensions>
          <ns3:TrackPointExtension>
            <ns3:hr>147</ns3:hr>
            <ns3:cad>0</ns3:cad>
          </ns3:TrackPointExtension>
        </extensions>
      </trkpt>
      <trkpt lat="37.048192061483860015869140625" lon="-8.9777290821075439453125">
        <ele>57.200000762939453125</ele>
        <time>2026-04-28T12:08:43.000Z</time>
        <extensions>
          <ns3:TrackPointExtension>
            <ns3:hr>150</ns3:hr>
            <ns3:cad>0</ns3:cad>
          </ns3:TrackPointExtension>
        </extensions>
      </trkpt>
      <trkpt lat="37.04819935373961925506591796875" lon="-8.977758921682834625244140625">
        <ele>57.40000152587890625</ele>
        <time>2026-04-28T12:08:54.000Z</time>
        <extensions>
          <ns3:TrackPointExtension>
            <ns3:hr>150</ns3:hr>
            <ns3:cad>0</ns3:cad>
          </ns3:TrackPointExtension>
        </extensions>
      </trkpt>
      <trkpt lat="37.04818041063845157623291015625" lon="-8.9778449200093746185302734375">
        <ele>58.200000762939453125</ele>
        <time>2026-04-28T12:08:59.000Z</time>
        <extensions>
          <ns3:TrackPointExtension>
            <ns3:hr>147</ns3:hr>
            <ns3:cad>0</ns3:cad>
          </ns3:TrackPointExtension>
        </extensions>
      </trkpt>
      <trkpt lat="37.048163898289203643798828125" lon="-8.97791977040469646453857421875">
        <ele>58.40000152587890625</ele>
        <time>2026-04-28T12:09:04.000Z</time>
        <extensions>
          <ns3:TrackPointExtension>
            <ns3:hr>147</ns3:hr>
            <ns3:cad>62</ns3:cad>
          </ns3:TrackPointExtension>
        </extensions>
      </trkpt>
      <trkpt lat="37.04817756079137325286865234375" lon="-8.97798263467848300933837890625">
        <ele>58.40000152587890625</ele>
        <time>2026-04-28T12:09:10.000Z</time>
        <extensions>
          <ns3:TrackPointExtension>
            <ns3:hr>148</ns3:hr>
            <ns3:cad>0</ns3:cad>
          </ns3:TrackPointExtension>
        </extensions>
      </trkpt>
      <trkpt lat="37.04817018471658229827880859375" lon="-8.97803678177297115325927734375">
        <ele>58.59999847412109375</ele>
        <time>2026-04-28T12:09:16.000Z</time>
        <extensions>
          <ns3:TrackPointExtension>
            <ns3:hr>148</ns3:hr>
            <ns3:cad>0</ns3:cad>
          </ns3:TrackPointExtension>
        </extensions>
      </trkpt>
      <trkpt lat="37.0481345616281032562255859375" lon="-8.97813132964074611663818359375">
        <ele>58.59999847412109375</ele>
        <time>2026-04-28T12:09:22.000Z</time>
        <extensions>
          <ns3:TrackPointExtension>
            <ns3:hr>145</ns3:hr>
            <ns3:cad>58</ns3:cad>
          </ns3:TrackPointExtension>
        </extensions>
      </trkpt>
      <trkpt lat="37.04811972565948963165283203125" lon="-8.9781902544200420379638671875">
        <ele>58.40000152587890625</ele>
        <time>2026-04-28T12:09:26.000Z</time>
        <extensions>
          <ns3:TrackPointExtension>
            <ns3:hr>145</ns3:hr>
            <ns3:cad>62</ns3:cad>
          </ns3:TrackPointExtension>
        </extensions>
      </trkpt>
      <trkpt lat="37.04809390939772129058837890625" lon="-8.97826711647212505340576171875">
        <ele>58.200000762939453125</ele>
        <time>2026-04-28T12:09:31.000Z</time>
        <extensions>
          <ns3:TrackPointExtension>
            <ns3:hr>142</ns3:hr>
            <ns3:cad>56</ns3:cad>
          </ns3:TrackPointExtension>
        </extensions>
      </trkpt>
      <trkpt lat="37.048051245510578155517578125" lon="-8.97836836986243724822998046875">
        <ele>57.59999847412109375</ele>
        <time>2026-04-28T12:09:38.000Z</time>
        <extensions>
          <ns3:TrackPointExtension>
            <ns3:hr>142</ns3:hr>
            <ns3:cad>59</ns3:cad>
          </ns3:TrackPointExtension>
        </extensions>
      </trkpt>
      <trkpt lat="37.04802450723946094512939453125" lon="-8.978421427309513092041015625">
        <ele>57</ele>
        <time>2026-04-28T12:09:42.000Z</time>
        <extensions>
          <ns3:TrackPointExtension>
            <ns3:hr>141</ns3:hr>
            <ns3:cad>61</ns3:cad>
          </ns3:TrackPointExtension>
        </extensions>
      </trkpt>
      <trkpt lat="37.048025764524936676025390625" lon="-8.97845604456961154937744140625">
        <ele>57</ele>
        <time>2026-04-28T12:09:44.000Z</time>
        <extensions>
          <ns3:TrackPointExtension>
            <ns3:hr>142</ns3:hr>
            <ns3:cad>61</ns3:cad>
          </ns3:TrackPointExtension>
        </extensions>
      </trkpt>
      <trkpt lat="37.04803791828453540802001953125" lon="-8.97848454304039478302001953125">
        <ele>57.200000762939453125</ele>
        <time>2026-04-28T12:09:46.000Z</time>
        <extensions>
          <ns3:TrackPointExtension>
            <ns3:hr>141</ns3:hr>
            <ns3:cad>60</ns3:cad>
          </ns3:TrackPointExtension>
        </extensions>
      </trkpt>
      <trkpt lat="37.04806691966950893402099609375" lon="-8.97850491106510162353515625">
        <ele>57.200000762939453125</ele>
        <time>2026-04-28T12:09:49.000Z</time>
        <extensions>
          <ns3:TrackPointExtension>
            <ns3:hr>141</ns3:hr>
            <ns3:cad>0</ns3:cad>
          </ns3:TrackPointExtension>
        </extensions>
      </trkpt>
      <trkpt lat="37.04809558577835559844970703125" lon="-8.978504575788974761962890625">
        <ele>57.40000152587890625</ele>
        <time>2026-04-28T12:09:52.000Z</time>
        <extensions>
          <ns3:TrackPointExtension>
            <ns3:hr>140</ns3:hr>
            <ns3:cad>0</ns3:cad>
          </ns3:TrackPointExtension>
        </extensions>
      </trkpt>
      <trkpt lat="37.04811050556600093841552734375" lon="-8.97852997295558452606201171875">
        <ele>57.59999847412109375</ele>
        <time>2026-04-28T12:09:55.000Z</time>
        <extensions>
          <ns3:TrackPointExtension>
            <ns3:hr>140</ns3:hr>
            <ns3:cad>0</ns3:cad>
          </ns3:TrackPointExtension>
        </extensions>
      </trkpt>
      <trkpt lat="37.0481308735907077789306640625" lon="-8.9785672724246978759765625">
        <ele>58.40000152587890625</ele>
        <time>2026-04-28T12:09:58.000Z</time>
        <extensions>
          <ns3:TrackPointExtension>
            <ns3:hr>139</ns3:hr>
            <ns3:cad>0</ns3:cad>
          </ns3:TrackPointExtension>
        </extensions>
      </trkpt>
      <trkpt lat="37.0481892116367816925048828125" lon="-8.97858931683003902435302734375">
        <ele>59.59999847412109375</ele>
        <time>2026-04-28T12:10:03.000Z</time>
        <extensions>
          <ns3:TrackPointExtension>
            <ns3:hr>135</ns3:hr>
            <ns3:cad>57</ns3:cad>
          </ns3:TrackPointExtension>
        </extensions>
      </trkpt>
      <trkpt lat="37.04820237122476100921630859375" lon="-8.9785939268767833709716796875">
        <ele>59.59999847412109375</ele>
        <time>2026-04-28T12:10:04.000Z</time>
        <extensions>
          <ns3:TrackPointExtension>
            <ns3:hr>132</ns3:hr>
            <ns3:cad>0</ns3:cad>
          </ns3:TrackPointExtension>
        </extensions>
      </trkpt>
      <trkpt lat="37.0482146926224231719970703125" lon="-8.97859669290482997894287109375">
        <ele>59.799999237060546875</ele>
        <time>2026-04-28T12:10:05.000Z</time>
        <extensions>
          <ns3:TrackPointExtension>
            <ns3:hr>131</ns3:hr>
            <ns3:cad>0</ns3:cad>
          </ns3:TrackPointExtension>
        </extensions>
      </trkpt>
      <trkpt lat="37.04825500957667827606201171875" lon="-8.97860951721668243408203125">
        <ele>60.799999237060546875</ele>
        <time>2026-04-28T12:10:09.000Z</time>
        <extensions>
          <ns3:TrackPointExtension>
            <ns3:hr>132</ns3:hr>
            <ns3:cad>0</ns3:cad>
          </ns3:TrackPointExtension>
        </extensions>
      </trkpt>
      <trkpt lat="37.0482995174825191497802734375" lon="-8.97863902151584625244140625">
        <ele>61.59999847412109375</ele>
        <time>2026-04-28T12:10:13.000Z</time>
        <extensions>
          <ns3:TrackPointExtension>
            <ns3:hr>134</ns3:hr>
            <ns3:cad>0</ns3:cad>
          </ns3:TrackPointExtension>
        </extensions>
      </trkpt>
      <trkpt lat="37.04831049777567386627197265625" lon="-8.978644050657749176025390625">
        <ele>61.799999237060546875</ele>
        <time>2026-04-28T12:10:14.000Z</time>
        <extensions>
          <ns3:TrackPointExtension>
            <ns3:hr>135</ns3:hr>
            <ns3:cad>0</ns3:cad>
          </ns3:TrackPointExtension>
        </extensions>
      </trkpt>
      <trkpt lat="37.04837956465780735015869140625" lon="-8.9786807633936405181884765625">
        <ele>63</ele>
        <time>2026-04-28T12:10:21.000Z</time>
        <extensions>
          <ns3:TrackPointExtension>
            <ns3:hr>138</ns3:hr>
            <ns3:cad>0</ns3:cad>
          </ns3:TrackPointExtension>
        </extensions>
      </trkpt>
      <trkpt lat="37.04838844947516918182373046875" lon="-8.9786888100206851959228515625">
        <ele>63.200000762939453125</ele>
        <time>2026-04-28T12:10:22.000Z</time>
        <extensions>
          <ns3:TrackPointExtension>
            <ns3:hr>138</ns3:hr>
            <ns3:cad>59</ns3:cad>
          </ns3:TrackPointExtension>
        </extensions>
      </trkpt>
      <trkpt lat="37.048411667346954345703125" lon="-8.9787119440734386444091796875">
        <ele>64</ele>
        <time>2026-04-28T12:10:25.000Z</time>
        <extensions>
          <ns3:TrackPointExtension>
            <ns3:hr>138</ns3:hr>
            <ns3:cad>60</ns3:cad>
          </ns3:TrackPointExtension>
        </extensions>
      </trkpt>
      <trkpt lat="37.04845282249152660369873046875" lon="-8.9787437953054904937744140625">
        <ele>65.1999969482421875</ele>
        <time>2026-04-28T12:10:29.000Z</time>
        <extensions>
          <ns3:TrackPointExtension>
            <ns3:hr>138</ns3:hr>
            <ns3:cad>59</ns3:cad>
          </ns3:TrackPointExtension>
        </extensions>
      </trkpt>
      <trkpt lat="37.04847293905913829803466796875" lon="-8.97876181639730930328369140625">
        <ele>65.8000030517578125</ele>
        <time>2026-04-28T12:10:31.000Z</time>
        <extensions>
          <ns3:TrackPointExtension>
            <ns3:hr>138</ns3:hr>
            <ns3:cad>57</ns3:cad>
          </ns3:TrackPointExtension>
        </extensions>
      </trkpt>
      <trkpt lat="37.0484892837703227996826171875" lon="-8.97878075949847698211669921875">
        <ele>66.1999969482421875</ele>
        <time>2026-04-28T12:10:33.000Z</time>
        <extensions>
          <ns3:TrackPointExtension>
            <ns3:hr>138</ns3:hr>
            <ns3:cad>57</ns3:cad>
          </ns3:TrackPointExtension>
        </extensions>
      </trkpt>
      <trkpt lat="37.04854049719870090484619140625" lon="-8.978839181363582611083984375">
        <ele>66.8000030517578125</ele>
        <time>2026-04-28T12:10:39.000Z</time>
        <extensions>
          <ns3:TrackPointExtension>
            <ns3:hr>141</ns3:hr>
            <ns3:cad>58</ns3:cad>
          </ns3:TrackPointExtension>
        </extensions>
      </trkpt>
      <trkpt lat="37.04855851829051971435546875" lon="-8.9788571186363697052001953125">
        <ele>67.1999969482421875</ele>
        <time>2026-04-28T12:10:41.000Z</time>
        <extensions>
          <ns3:TrackPointExtension>
            <ns3:hr>142</ns3:hr>
            <ns3:cad>59</ns3:cad>
          </ns3:TrackPointExtension>
        </extensions>
      </trkpt>
      <trkpt lat="37.04856866039335727691650390625" lon="-8.9788661710917949676513671875">
        <ele>67.40000152587890625</ele>
        <time>2026-04-28T12:10:42.000Z</time>
        <extensions>
          <ns3:TrackPointExtension>
            <ns3:hr>143</ns3:hr>
            <ns3:cad>59</ns3:cad>
          </ns3:TrackPointExtension>
        </extensions>
      </trkpt>
      <trkpt lat="37.04862750135362148284912109375" lon="-8.9788918197154998779296875">
        <ele>68.1999969482421875</ele>
        <time>2026-04-28T12:10:47.000Z</time>
        <extensions>
          <ns3:TrackPointExtension>
            <ns3:hr>145</ns3:hr>
            <ns3:cad>58</ns3:cad>
          </ns3:TrackPointExtension>
        </extensions>
      </trkpt>
      <trkpt lat="37.04865566454827785491943359375" lon="-8.97889827378094196319580078125">
        <ele>68.59999847412109375</ele>
        <time>2026-04-28T12:10:50.000Z</time>
        <extensions>
          <ns3:TrackPointExtension>
            <ns3:hr>146</ns3:hr>
            <ns3:cad>56</ns3:cad>
          </ns3:TrackPointExtension>
        </extensions>
      </trkpt>
      <trkpt lat="37.0486807264387607574462890625" lon="-8.978898525238037109375">
        <ele>69.40000152587890625</ele>
        <time>2026-04-28T12:10:53.000Z</time>
        <extensions>
          <ns3:TrackPointExtension>
            <ns3:hr>148</ns3:hr>
            <ns3:cad>56</ns3:cad>
          </ns3:TrackPointExtension>
        </extensions>
      </trkpt>
      <trkpt lat="37.04874836839735507965087890625" lon="-8.9788996987044811248779296875">
        <ele>70.40000152587890625</ele>
        <time>2026-04-28T12:10:59.000Z</time>
        <extensions>
          <ns3:TrackPointExtension>
            <ns3:hr>150</ns3:hr>
            <ns3:cad>0</ns3:cad>
          </ns3:TrackPointExtension>
        </extensions>
      </trkpt>
      <trkpt lat="37.04876102507114410400390625" lon="-8.9789000339806079864501953125">
        <ele>70.40000152587890625</ele>
        <time>2026-04-28T12:11:00.000Z</time>
        <extensions>
          <ns3:TrackPointExtension>
            <ns3:hr>151</ns3:hr>
            <ns3:cad>0</ns3:cad>
          </ns3:TrackPointExtension>
        </extensions>
      </trkpt>
      <trkpt lat="37.04884660430252552032470703125" lon="-8.97887614555656909942626953125">
        <ele>71.59999847412109375</ele>
        <time>2026-04-28T12:11:07.000Z</time>
        <extensions>
          <ns3:TrackPointExtension>
            <ns3:hr>150</ns3:hr>
            <ns3:cad>0</ns3:cad>
          </ns3:TrackPointExtension>
        </extensions>
      </trkpt>
      <trkpt lat="37.04889706335961818695068359375" lon="-8.9787977747619152069091796875">
        <ele>72.1999969482421875</ele>
        <time>2026-04-28T12:11:13.000Z</time>
        <extensions>
          <ns3:TrackPointExtension>
            <ns3:hr>151</ns3:hr>
            <ns3:cad>61</ns3:cad>
          </ns3:TrackPointExtension>
        </extensions>
      </trkpt>
      <trkpt lat="37.04895406030118465423583984375" lon="-8.9787505008280277252197265625">
        <ele>72.59999847412109375</ele>
        <time>2026-04-28T12:11:18.000Z</time>
        <extensions>
          <ns3:TrackPointExtension>
            <ns3:hr>152</ns3:hr>
            <ns3:cad>61</ns3:cad>
          </ns3:TrackPointExtension>
        </extensions>
      </trkpt>
      <trkpt lat="37.0490059442818164825439453125" lon="-8.97869744338095188140869140625">
        <ele>72.8000030517578125</ele>
        <time>2026-04-28T12:11:23.000Z</time>
        <extensions>
          <ns3:TrackPointExtension>
            <ns3:hr>152</ns3:hr>
            <ns3:cad>62</ns3:cad>
          </ns3:TrackPointExtension>
        </extensions>
      </trkpt>
      <trkpt lat="37.049083225429058074951171875" lon="-8.97858529351651668548583984375">
        <ele>73</ele>
        <time>2026-04-28T12:11:32.000Z</time>
        <extensions>
          <ns3:TrackPointExtension>
            <ns3:hr>149</ns3:hr>
            <ns3:cad>62</ns3:cad>
          </ns3:TrackPointExtension>
        </extensions>
      </trkpt>
      <trkpt lat="37.04916092567145824432373046875" lon="-8.97849694825708866119384765625">
        <ele>73.8000030517578125</ele>
        <time>2026-04-28T12:11:39.000Z</time>
        <extensions>
          <ns3:TrackPointExtension>
            <ns3:hr>149</ns3:hr>
            <ns3:cad>63</ns3:cad>
          </ns3:TrackPointExtension>
        </extensions>
      </trkpt>
      <trkpt lat="37.04920182935893535614013671875" lon="-8.97845252417027950286865234375">
        <ele>73.40000152587890625</ele>
        <time>2026-04-28T12:11:43.000Z</time>
        <extensions>
          <ns3:TrackPointExtension>
            <ns3:hr>148</ns3:hr>
            <ns3:cad>64</ns3:cad>
          </ns3:TrackPointExtension>
        </extensions>
      </trkpt>
      <trkpt lat="37.04933979548513889312744140625" lon="-8.9783367700874805450439453125">
        <ele>73.40000152587890625</ele>
        <time>2026-04-28T12:11:55.000Z</time>
        <extensions>
          <ns3:TrackPointExtension>
            <ns3:hr>147</ns3:hr>
            <ns3:cad>63</ns3:cad>
          </ns3:TrackPointExtension>
        </extensions>
      </trkpt>
      <trkpt lat="37.04937835223972797393798828125" lon="-8.9783166535198688507080078125">
        <ele>73.40000152587890625</ele>
        <time>2026-04-28T12:11:59.000Z</time>
        <extensions>
          <ns3:TrackPointExtension>
            <ns3:hr>144</ns3:hr>
            <ns3:cad>64</ns3:cad>
          </ns3:TrackPointExtension>
        </extensions>
      </trkpt>
      <trkpt lat="37.04940768890082836151123046875" lon="-8.9783022366464138031005859375">
        <ele>73.40000152587890625</ele>
        <time>2026-04-28T12:12:01.000Z</time>
        <extensions>
          <ns3:TrackPointExtension>
            <ns3:hr>141</ns3:hr>
            <ns3:cad>63</ns3:cad>
          </ns3:TrackPointExtension>
        </extensions>
      </trkpt>
      <trkpt lat="37.0494481734931468963623046875" lon="-8.97829033434391021728515625">
        <ele>73.1999969482421875</ele>
        <time>2026-04-28T12:12:04.000Z</time>
        <extensions>
          <ns3:TrackPointExtension>
            <ns3:hr>140</ns3:hr>
            <ns3:cad>62</ns3:cad>
          </ns3:TrackPointExtension>
        </extensions>
      </trkpt>
      <trkpt lat="37.0495655201375484466552734375" lon="-8.9782522805035114288330078125">
        <ele>74.40000152587890625</ele>
        <time>2026-04-28T12:12:12.000Z</time>
        <extensions>
          <ns3:TrackPointExtension>
            <ns3:hr>139</ns3:hr>
            <ns3:cad>60</ns3:cad>
          </ns3:TrackPointExtension>
        </extensions>
      </trkpt>
      <trkpt lat="37.0496077649295330047607421875" lon="-8.9782412163913249969482421875">
        <ele>75</ele>
        <time>2026-04-28T12:12:15.000Z</time>
        <extensions>
          <ns3:TrackPointExtension>
            <ns3:hr>139</ns3:hr>
            <ns3:cad>64</ns3:cad>
          </ns3:TrackPointExtension>
        </extensions>
      </trkpt>
      <trkpt lat="37.04969015903770923614501953125" lon="-8.978212885558605194091796875">
        <ele>74.8000030517578125</ele>
        <time>2026-04-28T12:12:21.000Z</time>
        <extensions>
          <ns3:TrackPointExtension>
            <ns3:hr>139</ns3:hr>
            <ns3:cad>63</ns3:cad>
          </ns3:TrackPointExtension>
        </extensions>
      </trkpt>
      <trkpt lat="37.049861736595630645751953125" lon="-8.97812579758465290069580078125">
        <ele>75.1999969482421875</ele>
        <time>2026-04-28T12:12:34.000Z</time>
        <extensions>
          <ns3:TrackPointExtension>
            <ns3:hr>140</ns3:hr>
            <ns3:cad>63</ns3:cad>
          </ns3:TrackPointExtension>
        </extensions>
      </trkpt>
      <trkpt lat="37.050018645823001861572265625" lon="-8.9780484326183795928955078125">
        <ele>75.59999847412109375</ele>
        <time>2026-04-28T12:12:46.000Z</time>
        <extensions>
          <ns3:TrackPointExtension>
            <ns3:hr>138</ns3:hr>
            <ns3:cad>63</ns3:cad>
          </ns3:TrackPointExtension>
        </extensions>
      </trkpt>
      <trkpt lat="37.05012048594653606414794921875" lon="-8.97800107486546039581298828125">
        <ele>76.1999969482421875</ele>
        <time>2026-04-28T12:12:54.000Z</time>
        <extensions>
          <ns3:TrackPointExtension>
            <ns3:hr>138</ns3:hr>
            <ns3:cad>64</ns3:cad>
          </ns3:TrackPointExtension>
        </extensions>
      </trkpt>
      <trkpt lat="37.05017530359327793121337890625" lon="-8.9779793657362461090087890625">
        <ele>76.40000152587890625</ele>
        <time>2026-04-28T12:12:58.000Z</time>
        <extensions>
          <ns3:TrackPointExtension>
            <ns3:hr>138</ns3:hr>
            <ns3:cad>62</ns3:cad>
          </ns3:TrackPointExtension>
        </extensions>
      </trkpt>
      <trkpt lat="37.05030731856822967529296875" lon="-8.97790275514125823974609375">
        <ele>77.1999969482421875</ele>
        <time>2026-04-28T12:13:08.000Z</time>
        <extensions>
          <ns3:TrackPointExtension>
            <ns3:hr>137</ns3:hr>
            <ns3:cad>62</ns3:cad>
          </ns3:TrackPointExtension>
        </extensions>
      </trkpt>
      <trkpt lat="37.0503202266991138458251953125" lon="-8.9778958819806575775146484375">
        <ele>77.1999969482421875</ele>
        <time>2026-04-28T12:13:09.000Z</time>
        <extensions>
          <ns3:TrackPointExtension>
            <ns3:hr>136</ns3:hr>
            <ns3:cad>62</ns3:cad>
          </ns3:TrackPointExtension>
        </extensions>
      </trkpt>
      <trkpt lat="37.050468586385250091552734375" lon="-8.97782471962273120880126953125">
        <ele>78</ele>
        <time>2026-04-28T12:13:21.000Z</time>
        <extensions>
          <ns3:TrackPointExtension>
            <ns3:hr>136</ns3:hr>
            <ns3:cad>63</ns3:cad>
          </ns3:TrackPointExtension>
        </extensions>
      </trkpt>
      <trkpt lat="37.05061845481395721435546875" lon="-8.97777400910854339599609375">
        <ele>78.1999969482421875</ele>
        <time>2026-04-28T12:13:32.000Z</time>
        <extensions>
          <ns3:TrackPointExtension>
            <ns3:hr>133</ns3:hr>
            <ns3:cad>62</ns3:cad>
          </ns3:TrackPointExtension>
        </extensions>
      </trkpt>
      <trkpt lat="37.05063245259225368499755859375" lon="-8.9777681417763233184814453125">
        <ele>78.40000152587890625</ele>
        <time>2026-04-28T12:13:33.000Z</time>
        <extensions>
          <ns3:TrackPointExtension>
            <ns3:hr>133</ns3:hr>
            <ns3:cad>63</ns3:cad>
          </ns3:TrackPointExtension>
        </extensions>
      </trkpt>
      <trkpt lat="37.0507456921041011810302734375" lon="-8.9777138270437717437744140625">
        <ele>78.59999847412109375</ele>
        <time>2026-04-28T12:13:42.000Z</time>
        <extensions>
          <ns3:TrackPointExtension>
            <ns3:hr>133</ns3:hr>
            <ns3:cad>63</ns3:cad>
          </ns3:TrackPointExtension>
        </extensions>
      </trkpt>
      <trkpt lat="37.05087971873581409454345703125" lon="-8.977671749889850616455078125">
        <ele>79</ele>
        <time>2026-04-28T12:13:52.000Z</time>
        <extensions>
          <ns3:TrackPointExtension>
            <ns3:hr>132</ns3:hr>
            <ns3:cad>64</ns3:cad>
          </ns3:TrackPointExtension>
        </extensions>
      </trkpt>
      <trkpt lat="37.05092246644198894500732421875" lon="-8.97765490226447582244873046875">
        <ele>79.1999969482421875</ele>
        <time>2026-04-28T12:13:55.000Z</time>
        <extensions>
          <ns3:TrackPointExtension>
            <ns3:hr>133</ns3:hr>
            <ns3:cad>63</ns3:cad>
          </ns3:TrackPointExtension>
        </extensions>
      </trkpt>
      <trkpt lat="37.05102019943296909332275390625" lon="-8.977627493441104888916015625">
        <ele>80</ele>
        <time>2026-04-28T12:14:02.000Z</time>
        <extensions>
          <ns3:TrackPointExtension>
            <ns3:hr>136</ns3:hr>
            <ns3:cad>63</ns3:cad>
          </ns3:TrackPointExtension>
        </extensions>
      </trkpt>
      <trkpt lat="37.05104584805667400360107421875" lon="-8.9776212908327579498291015625">
        <ele>80</ele>
        <time>2026-04-28T12:14:04.000Z</time>
        <extensions>
          <ns3:TrackPointExtension>
            <ns3:hr>136</ns3:hr>
            <ns3:cad>62</ns3:cad>
          </ns3:TrackPointExtension>
        </extensions>
      </trkpt>
      <trkpt lat="37.05120242200791835784912109375" lon="-8.977594636380672454833984375">
        <ele>79.8000030517578125</ele>
        <time>2026-04-28T12:14:16.000Z</time>
        <extensions>
          <ns3:TrackPointExtension>
            <ns3:hr>136</ns3:hr>
            <ns3:cad>63</ns3:cad>
          </ns3:TrackPointExtension>
        </extensions>
      </trkpt>
      <trkpt lat="37.0512576587498188018798828125" lon="-8.97758700884878635406494140625">
        <ele>80.1999969482421875</ele>
        <time>2026-04-28T12:14:20.000Z</time>
        <extensions>
          <ns3:TrackPointExtension>
            <ns3:hr>135</ns3:hr>
            <ns3:cad>64</ns3:cad>
          </ns3:TrackPointExtension>
        </extensions>
      </trkpt>
      <trkpt lat="37.05135480500757694244384765625" lon="-8.9775884337723255157470703125">
        <ele>80.8000030517578125</ele>
        <time>2026-04-28T12:14:27.000Z</time>
        <extensions>
          <ns3:TrackPointExtension>
            <ns3:hr>134</ns3:hr>
            <ns3:cad>64</ns3:cad>
          </ns3:TrackPointExtension>
        </extensions>
      </trkpt>
      <trkpt lat="37.05148137174546718597412109375" lon="-8.9775817282497882843017578125">
        <ele>80.59999847412109375</ele>
        <time>2026-04-28T12:14:36.000Z</time>
        <extensions>
          <ns3:TrackPointExtension>
            <ns3:hr>132</ns3:hr>
            <ns3:cad>63</ns3:cad>
          </ns3:TrackPointExtension>
        </extensions>
      </trkpt>
      <trkpt lat="37.05162151716649532318115234375" lon="-8.97758197970688343048095703125">
        <ele>81.1999969482421875</ele>
        <time>2026-04-28T12:14:46.000Z</time>
        <extensions>
          <ns3:TrackPointExtension>
            <ns3:hr>134</ns3:hr>
            <ns3:cad>63</ns3:cad>
          </ns3:TrackPointExtension>
        </extensions>
      </trkpt>
      <trkpt lat="37.05170533619821071624755859375" lon="-8.9776015095412731170654296875">
        <ele>80.8000030517578125</ele>
        <time>2026-04-28T12:14:52.000Z</time>
        <extensions>
          <ns3:TrackPointExtension>
            <ns3:hr>131</ns3:hr>
            <ns3:cad>65</ns3:cad>
          </ns3:TrackPointExtension>
        </extensions>
      </trkpt>
      <trkpt lat="37.05181580968201160430908203125" lon="-8.97763377986848354339599609375">
        <ele>80.8000030517578125</ele>
        <time>2026-04-28T12:15:00.000Z</time>
        <extensions>
          <ns3:TrackPointExtension>
            <ns3:hr>131</ns3:hr>
            <ns3:cad>62</ns3:cad>
          </ns3:TrackPointExtension>
        </extensions>
      </trkpt>
      <trkpt lat="37.051939107477664947509765625" lon="-8.97767954505980014801025390625">
        <ele>81</ele>
        <time>2026-04-28T12:15:10.000Z</time>
        <extensions>
          <ns3:TrackPointExtension>
            <ns3:hr>131</ns3:hr>
            <ns3:cad>63</ns3:cad>
          </ns3:TrackPointExtension>
        </extensions>
      </trkpt>
      <trkpt lat="37.052086293697357177734375" lon="-8.9777634479105472564697265625">
        <ele>80.1999969482421875</ele>
        <time>2026-04-28T12:15:21.000Z</time>
        <extensions>
          <ns3:TrackPointExtension>
            <ns3:hr>130</ns3:hr>
            <ns3:cad>62</ns3:cad>
          </ns3:TrackPointExtension>
        </extensions>
      </trkpt>
      <trkpt lat="37.05210951156914234161376953125" lon="-8.97777694277465343475341796875">
        <ele>79.1999969482421875</ele>
        <time>2026-04-28T12:15:23.000Z</time>
        <extensions>
          <ns3:TrackPointExtension>
            <ns3:hr>129</ns3:hr>
            <ns3:cad>64</ns3:cad>
          </ns3:TrackPointExtension>
        </extensions>
      </trkpt>
      <trkpt lat="37.05212116241455078125" lon="-8.97778348065912723541259765625">
        <ele>78.8000030517578125</ele>
        <time>2026-04-28T12:15:24.000Z</time>
        <extensions>
          <ns3:TrackPointExtension>
            <ns3:hr>129</ns3:hr>
            <ns3:cad>64</ns3:cad>
          </ns3:TrackPointExtension>
        </extensions>
      </trkpt>
      <trkpt lat="37.0521707832813262939453125" lon="-8.9778234623372554779052734375">
        <ele>79</ele>
        <time>2026-04-28T12:15:32.000Z</time>
        <extensions>
          <ns3:TrackPointExtension>
            <ns3:hr>129</ns3:hr>
            <ns3:cad>0</ns3:cad>
          </ns3:TrackPointExtension>
        </extensions>
      </trkpt>
      <trkpt lat="37.052205987274646759033203125" lon="-8.977846093475818634033203125">
        <ele>79.40000152587890625</ele>
        <time>2026-04-28T12:15:42.000Z</time>
        <extensions>
          <ns3:TrackPointExtension>
            <ns3:hr>130</ns3:hr>
            <ns3:cad>0</ns3:cad>
          </ns3:TrackPointExtension>
        </extensions>
      </trkpt>
      <trkpt lat="37.05224831588566303253173828125" lon="-8.97787190973758697509765625">
        <ele>79.8000030517578125</ele>
        <time>2026-04-28T12:15:45.000Z</time>
        <extensions>
          <ns3:TrackPointExtension>
            <ns3:hr>133</ns3:hr>
            <ns3:cad>63</ns3:cad>
          </ns3:TrackPointExtension>
        </extensions>
      </trkpt>
      <trkpt lat="37.052315287292003631591796875" lon="-8.97791189141571521759033203125">
        <ele>79.1999969482421875</ele>
        <time>2026-04-28T12:15:50.000Z</time>
        <extensions>
          <ns3:TrackPointExtension>
            <ns3:hr>134</ns3:hr>
            <ns3:cad>63</ns3:cad>
          </ns3:TrackPointExtension>
        </extensions>
      </trkpt>
      <trkpt lat="37.05247563309967517852783203125" lon="-8.97797525860369205474853515625">
        <ele>79.59999847412109375</ele>
        <time>2026-04-28T12:16:02.000Z</time>
        <extensions>
          <ns3:TrackPointExtension>
            <ns3:hr>133</ns3:hr>
            <ns3:cad>63</ns3:cad>
          </ns3:TrackPointExtension>
        </extensions>
      </trkpt>
      <trkpt lat="37.0525464601814746856689453125" lon="-8.97799671627581119537353515625">
        <ele>79.40000152587890625</ele>
        <time>2026-04-28T12:16:07.000Z</time>
        <extensions>
          <ns3:TrackPointExtension>
            <ns3:hr>130</ns3:hr>
            <ns3:cad>64</ns3:cad>
          </ns3:TrackPointExtension>
        </extensions>
      </trkpt>
      <trkpt lat="37.0526440255343914031982421875" lon="-8.97802236489951610565185546875">
        <ele>79.1999969482421875</ele>
        <time>2026-04-28T12:16:14.000Z</time>
        <extensions>
          <ns3:TrackPointExtension>
            <ns3:hr>130</ns3:hr>
            <ns3:cad>64</ns3:cad>
          </ns3:TrackPointExtension>
        </extensions>
      </trkpt>
      <trkpt lat="37.05276296474039554595947265625" lon="-8.9780859835445880889892578125">
        <ele>79.8000030517578125</ele>
        <time>2026-04-28T12:16:23.000Z</time>
        <extensions>
          <ns3:TrackPointExtension>
            <ns3:hr>132</ns3:hr>
            <ns3:cad>62</ns3:cad>
          </ns3:TrackPointExtension>
        </extensions>
      </trkpt>
      <trkpt lat="37.052799761295318603515625" lon="-8.978118337690830230712890625">
        <ele>80.1999969482421875</ele>
        <time>2026-04-28T12:16:26.000Z</time>
        <extensions>
          <ns3:TrackPointExtension>
            <ns3:hr>131</ns3:hr>
            <ns3:cad>63</ns3:cad>
          </ns3:TrackPointExtension>
        </extensions>
      </trkpt>
      <trkpt lat="37.0528586022555828094482421875" lon="-8.97818966768682003021240234375">
        <ele>80</ele>
        <time>2026-04-28T12:16:32.000Z</time>
        <extensions>
          <ns3:TrackPointExtension>
            <ns3:hr>133</ns3:hr>
            <ns3:cad>61</ns3:cad>
          </ns3:TrackPointExtension>
        </extensions>
      </trkpt>
      <trkpt lat="37.05284535884857177734375" lon="-8.97821079008281230926513671875">
        <ele>79.8000030517578125</ele>
        <time>2026-04-28T12:16:34.000Z</time>
        <extensions>
          <ns3:TrackPointExtension>
            <ns3:hr>133</ns3:hr>
            <ns3:cad>60</ns3:cad>
          </ns3:TrackPointExtension>
        </extensions>
      </trkpt>
      <trkpt lat="37.0528347976505756378173828125" lon="-8.97821883670985698699951171875">
        <ele>80.1999969482421875</ele>
        <time>2026-04-28T12:16:41.000Z</time>
        <extensions>
          <ns3:TrackPointExtension>
            <ns3:hr>132</ns3:hr>
            <ns3:cad>0</ns3:cad>
          </ns3:TrackPointExtension>
        </extensions>
      </trkpt>
      <trkpt lat="37.05283571965992450714111328125" lon="-8.978215567767620086669921875">
        <ele>79.8000030517578125</ele>
        <time>2026-04-28T12:17:01.000Z</time>
        <extensions>
          <ns3:TrackPointExtension>
            <ns3:hr>129</ns3:hr>
            <ns3:cad>0</ns3:cad>
          </ns3:TrackPointExtension>
        </extensions>
      </trkpt>
      <trkpt lat="37.052857764065265655517578125" lon="-8.978195451200008392333984375">
        <ele>80.1999969482421875</ele>
        <time>2026-04-28T12:17:03.000Z</time>
        <extensions>
          <ns3:TrackPointExtension>
            <ns3:hr>128</ns3:hr>
            <ns3:cad>0</ns3:cad>
          </ns3:TrackPointExtension>
        </extensions>
      </trkpt>
      <trkpt lat="37.052985839545726776123046875" lon="-8.97819587029516696929931640625">
        <ele>79.59999847412109375</ele>
        <time>2026-04-28T12:17:11.000Z</time>
        <extensions>
          <ns3:TrackPointExtension>
            <ns3:hr>130</ns3:hr>
            <ns3:cad>64</ns3:cad>
          </ns3:TrackPointExtension>
        </extensions>
      </trkpt>
      <trkpt lat="37.053123302757740020751953125" lon="-8.97822059690952301025390625">
        <ele>79.8000030517578125</ele>
        <time>2026-04-28T12:17:21.000Z</time>
        <extensions>
          <ns3:TrackPointExtension>
            <ns3:hr>129</ns3:hr>
            <ns3:cad>64</ns3:cad>
          </ns3:TrackPointExtension>
        </extensions>
      </trkpt>
      <trkpt lat="37.05316655337810516357421875" lon="-8.978227637708187103271484375">
        <ele>80</ele>
        <time>2026-04-28T12:17:24.000Z</time>
        <extensions>
          <ns3:TrackPointExtension>
            <ns3:hr>126</ns3:hr>
            <ns3:cad>63</ns3:cad>
          </ns3:TrackPointExtension>
        </extensions>
      </trkpt>
      <trkpt lat="37.053242661058902740478515625" lon="-8.97827952168881893157958984375">
        <ele>79.59999847412109375</ele>
        <time>2026-04-28T12:17:30.000Z</time>
        <extensions>
          <ns3:TrackPointExtension>
            <ns3:hr>126</ns3:hr>
            <ns3:cad>63</ns3:cad>
          </ns3:TrackPointExtension>
        </extensions>
      </trkpt>
      <trkpt lat="37.0532864145934581756591796875" lon="-8.97833081893622875213623046875">
        <ele>81</ele>
        <time>2026-04-28T12:17:35.000Z</time>
        <extensions>
          <ns3:TrackPointExtension>
            <ns3:hr>126</ns3:hr>
            <ns3:cad>62</ns3:cad>
          </ns3:TrackPointExtension>
        </extensions>
      </trkpt>
      <trkpt lat="37.0533214509487152099609375" lon="-8.9783538691699504852294921875">
        <ele>82.1999969482421875</ele>
        <time>2026-04-28T12:17:38.000Z</time>
        <extensions>
          <ns3:TrackPointExtension>
            <ns3:hr>127</ns3:hr>
            <ns3:cad>60</ns3:cad>
          </ns3:TrackPointExtension>
        </extensions>
      </trkpt>
      <trkpt lat="37.0533357001841068267822265625" lon="-8.97836015559732913970947265625">
        <ele>82.40000152587890625</ele>
        <time>2026-04-28T12:17:39.000Z</time>
        <extensions>
          <ns3:TrackPointExtension>
            <ns3:hr>129</ns3:hr>
            <ns3:cad>60</ns3:cad>
          </ns3:TrackPointExtension>
        </extensions>
      </trkpt>
      <trkpt lat="37.05338574014604091644287109375" lon="-8.97839569486677646636962890625">
        <ele>81.40000152587890625</ele>
        <time>2026-04-28T12:17:43.000Z</time>
        <extensions>
          <ns3:TrackPointExtension>
            <ns3:hr>132</ns3:hr>
            <ns3:cad>0</ns3:cad>
          </ns3:TrackPointExtension>
        </extensions>
      </trkpt>
      <trkpt lat="37.0533990673720836639404296875" lon="-8.97840298712253570556640625">
        <ele>81.1999969482421875</ele>
        <time>2026-04-28T12:17:44.000Z</time>
        <extensions>
          <ns3:TrackPointExtension>
            <ns3:hr>132</ns3:hr>
            <ns3:cad>0</ns3:cad>
          </ns3:TrackPointExtension>
        </extensions>
      </trkpt>
      <trkpt lat="37.0534506998956203460693359375" lon="-8.97843844257295131683349609375">
        <ele>81.8000030517578125</ele>
        <time>2026-04-28T12:17:48.000Z</time>
        <extensions>
          <ns3:TrackPointExtension>
            <ns3:hr>133</ns3:hr>
            <ns3:cad>0</ns3:cad>
          </ns3:TrackPointExtension>
        </extensions>
      </trkpt>
      <trkpt lat="37.05348045565187931060791015625" lon="-8.97845990024507045745849609375">
        <ele>82.40000152587890625</ele>
        <time>2026-04-28T12:17:50.000Z</time>
        <extensions>
          <ns3:TrackPointExtension>
            <ns3:hr>135</ns3:hr>
            <ns3:cad>65</ns3:cad>
          </ns3:TrackPointExtension>
        </extensions>
      </trkpt>
      <trkpt lat="37.05356712453067302703857421875" lon="-8.97851991467177867889404296875">
        <ele>82.40000152587890625</ele>
        <time>2026-04-28T12:17:57.000Z</time>
        <extensions>
          <ns3:TrackPointExtension>
            <ns3:hr>137</ns3:hr>
            <ns3:cad>62</ns3:cad>
          </ns3:TrackPointExtension>
        </extensions>
      </trkpt>
      <trkpt lat="37.053600065410137176513671875" lon="-8.978542797267436981201171875">
        <ele>82.1999969482421875</ele>
        <time>2026-04-28T12:18:00.000Z</time>
        <extensions>
          <ns3:TrackPointExtension>
            <ns3:hr>134</ns3:hr>
            <ns3:cad>65</ns3:cad>
          </ns3:TrackPointExtension>
        </extensions>
      </trkpt>
      <trkpt lat="37.05362412147223949432373046875" lon="-8.978556208312511444091796875">
        <ele>82.1999969482421875</ele>
        <time>2026-04-28T12:18:02.000Z</time>
        <extensions>
          <ns3:TrackPointExtension>
            <ns3:hr>128</ns3:hr>
            <ns3:cad>63</ns3:cad>
          </ns3:TrackPointExtension>
        </extensions>
      </trkpt>
      <trkpt lat="37.053638957440853118896484375" lon="-8.97856517694890499114990234375">
        <ele>82.1999969482421875</ele>
        <time>2026-04-28T12:18:03.000Z</time>
        <extensions>
          <ns3:TrackPointExtension>
            <ns3:hr>128</ns3:hr>
            <ns3:cad>63</ns3:cad>
          </ns3:TrackPointExtension>
        </extensions>
      </trkpt>
      <trkpt lat="37.05371146090328693389892578125" lon="-8.978607170283794403076171875">
        <ele>83</ele>
        <time>2026-04-28T12:18:08.000Z</time>
        <extensions>
          <ns3:TrackPointExtension>
            <ns3:hr>127</ns3:hr>
            <ns3:cad>63</ns3:cad>
          </ns3:TrackPointExtension>
        </extensions>
      </trkpt>
      <trkpt lat="37.05384255386888980865478515625" lon="-8.9786167256534099578857421875">
        <ele>82.8000030517578125</ele>
        <time>2026-04-28T12:18:17.000Z</time>
        <extensions>
          <ns3:TrackPointExtension>
            <ns3:hr>125</ns3:hr>
            <ns3:cad>63</ns3:cad>
          </ns3:TrackPointExtension>
        </extensions>
      </trkpt>
      <trkpt lat="37.05388328991830348968505859375" lon="-8.97861798293888568878173828125">
        <ele>83</ele>
        <time>2026-04-28T12:18:20.000Z</time>
        <extensions>
          <ns3:TrackPointExtension>
            <ns3:hr>128</ns3:hr>
            <ns3:cad>63</ns3:cad>
          </ns3:TrackPointExtension>
        </extensions>
      </trkpt>
      <trkpt lat="37.05397255718708038330078125" lon="-8.9786009676754474639892578125">
        <ele>83.40000152587890625</ele>
        <time>2026-04-28T12:18:26.000Z</time>
        <extensions>
          <ns3:TrackPointExtension>
            <ns3:hr>130</ns3:hr>
            <ns3:cad>63</ns3:cad>
          </ns3:TrackPointExtension>
        </extensions>
      </trkpt>
      <trkpt lat="37.053986974060535430908203125" lon="-8.9785966090857982635498046875">
        <ele>83.40000152587890625</ele>
        <time>2026-04-28T12:18:27.000Z</time>
        <extensions>
          <ns3:TrackPointExtension>
            <ns3:hr>130</ns3:hr>
            <ns3:cad>63</ns3:cad>
          </ns3:TrackPointExtension>
        </extensions>
      </trkpt>
      <trkpt lat="37.054100297391414642333984375" lon="-8.9785396121442317962646484375">
        <ele>83.40000152587890625</ele>
        <time>2026-04-28T12:18:36.000Z</time>
        <extensions>
          <ns3:TrackPointExtension>
            <ns3:hr>131</ns3:hr>
            <ns3:cad>63</ns3:cad>
          </ns3:TrackPointExtension>
        </extensions>
      </trkpt>
      <trkpt lat="37.054232060909271240234375" lon="-8.97851974703371524810791015625">
        <ele>83.1999969482421875</ele>
        <time>2026-04-28T12:18:45.000Z</time>
        <extensions>
          <ns3:TrackPointExtension>
            <ns3:hr>130</ns3:hr>
            <ns3:cad>62</ns3:cad>
          </ns3:TrackPointExtension>
        </extensions>
      </trkpt>
      <trkpt lat="37.05429098568856716156005859375" lon="-8.97849828936159610748291015625">
        <ele>83.59999847412109375</ele>
        <time>2026-04-28T12:18:51.000Z</time>
        <extensions>
          <ns3:TrackPointExtension>
            <ns3:hr>130</ns3:hr>
            <ns3:cad>60</ns3:cad>
          </ns3:TrackPointExtension>
        </extensions>
      </trkpt>
      <trkpt lat="37.05438100732862949371337890625" lon="-8.97847850807011127471923828125">
        <ele>83.59999847412109375</ele>
        <time>2026-04-28T12:18:58.000Z</time>
        <extensions>
          <ns3:TrackPointExtension>
            <ns3:hr>130</ns3:hr>
            <ns3:cad>61</ns3:cad>
          </ns3:TrackPointExtension>
        </extensions>
      </trkpt>
      <trkpt lat="37.05441109836101531982421875" lon="-8.978478424251079559326171875">
        <ele>83.8000030517578125</ele>
        <time>2026-04-28T12:19:00.000Z</time>
        <extensions>
          <ns3:TrackPointExtension>
            <ns3:hr>140</ns3:hr>
            <ns3:cad>61</ns3:cad>
          </ns3:TrackPointExtension>
        </extensions>
      </trkpt>
      <trkpt lat="37.054487206041812896728515625" lon="-8.97845604456961154937744140625">
        <ele>84.40000152587890625</ele>
        <time>2026-04-28T12:19:06.000Z</time>
        <extensions>
          <ns3:TrackPointExtension>
            <ns3:hr>138</ns3:hr>
            <ns3:cad>62</ns3:cad>
          </ns3:TrackPointExtension>
        </extensions>
      </trkpt>
      <trkpt lat="37.0545108430087566375732421875" lon="-8.978435508906841278076171875">
        <ele>84.8000030517578125</ele>
        <time>2026-04-28T12:19:08.000Z</time>
        <extensions>
          <ns3:TrackPointExtension>
            <ns3:hr>135</ns3:hr>
            <ns3:cad>62</ns3:cad>
          </ns3:TrackPointExtension>
        </extensions>
      </trkpt>
      <trkpt lat="37.05453305505216121673583984375" lon="-8.97841027937829494476318359375">
        <ele>85.59999847412109375</ele>
        <time>2026-04-28T12:19:10.000Z</time>
        <extensions>
          <ns3:TrackPointExtension>
            <ns3:hr>135</ns3:hr>
            <ns3:cad>64</ns3:cad>
          </ns3:TrackPointExtension>
        </extensions>
      </trkpt>
      <trkpt lat="37.05457471311092376708984375" lon="-8.97833601571619510650634765625">
        <ele>86</ele>
        <time>2026-04-28T12:19:15.000Z</time>
        <extensions>
          <ns3:TrackPointExtension>
            <ns3:hr>136</ns3:hr>
            <ns3:cad>64</ns3:cad>
          </ns3:TrackPointExtension>
        </extensions>
      </trkpt>
      <trkpt lat="37.0546338893473148345947265625" lon="-8.978208191692829132080078125">
        <ele>86.1999969482421875</ele>
        <time>2026-04-28T12:19:25.000Z</time>
        <extensions>
          <ns3:TrackPointExtension>
            <ns3:hr>134</ns3:hr>
            <ns3:cad>60</ns3:cad>
          </ns3:TrackPointExtension>
        </extensions>
      </trkpt>
      <trkpt lat="37.05465626902878284454345703125" lon="-8.97817122749984264373779296875">
        <ele>86.59999847412109375</ele>
        <time>2026-04-28T12:19:29.000Z</time>
        <extensions>
          <ns3:TrackPointExtension>
            <ns3:hr>133</ns3:hr>
            <ns3:cad>56</ns3:cad>
          </ns3:TrackPointExtension>
        </extensions>
      </trkpt>
      <trkpt lat="37.0546825043857097625732421875" lon="-8.978116996586322784423828125">
        <ele>86.8000030517578125</ele>
        <time>2026-04-28T12:19:33.000Z</time>
        <extensions>
          <ns3:TrackPointExtension>
            <ns3:hr>134</ns3:hr>
            <ns3:cad>56</ns3:cad>
          </ns3:TrackPointExtension>
        </extensions>
      </trkpt>
      <trkpt lat="37.05473857931792736053466796875" lon="-8.978031836450099945068359375">
        <ele>86.8000030517578125</ele>
        <time>2026-04-28T12:19:41.000Z</time>
        <extensions>
          <ns3:TrackPointExtension>
            <ns3:hr>133</ns3:hr>
            <ns3:cad>57</ns3:cad>
          </ns3:TrackPointExtension>
        </extensions>
      </trkpt>
      <trkpt lat="37.05476892180740833282470703125" lon="-8.97800660692155361175537109375">
        <ele>86.59999847412109375</ele>
        <time>2026-04-28T12:19:46.000Z</time>
        <extensions>
          <ns3:TrackPointExtension>
            <ns3:hr>133</ns3:hr>
            <ns3:cad>56</ns3:cad>
          </ns3:TrackPointExtension>
        </extensions>
      </trkpt>
      <trkpt lat="37.0548772998154163360595703125" lon="-8.97793485783040523529052734375">
        <ele>86.59999847412109375</ele>
        <time>2026-04-28T12:19:56.000Z</time>
        <extensions>
          <ns3:TrackPointExtension>
            <ns3:hr>132</ns3:hr>
            <ns3:cad>0</ns3:cad>
          </ns3:TrackPointExtension>
        </extensions>
      </trkpt>
      <trkpt lat="37.0548880286514759063720703125" lon="-8.9779297448694705963134765625">
        <ele>86.8000030517578125</ele>
        <time>2026-04-28T12:20:00.000Z</time>
        <extensions>
          <ns3:TrackPointExtension>
            <ns3:hr>136</ns3:hr>
            <ns3:cad>0</ns3:cad>
          </ns3:TrackPointExtension>
        </extensions>
      </trkpt>
      <trkpt lat="37.05491267144680023193359375" lon="-8.97791842930018901824951171875">
        <ele>86.8000030517578125</ele>
        <time>2026-04-28T12:20:02.000Z</time>
        <extensions>
          <ns3:TrackPointExtension>
            <ns3:hr>138</ns3:hr>
            <ns3:cad>0</ns3:cad>
          </ns3:TrackPointExtension>
        </extensions>
      </trkpt>
      <trkpt lat="37.054981403052806854248046875" lon="-8.977867551147937774658203125">
        <ele>87.59999847412109375</ele>
        <time>2026-04-28T12:20:08.000Z</time>
        <extensions>
          <ns3:TrackPointExtension>
            <ns3:hr>138</ns3:hr>
            <ns3:cad>61</ns3:cad>
          </ns3:TrackPointExtension>
        </extensions>
      </trkpt>
      <trkpt lat="37.05501199699938297271728515625" lon="-8.977825976908206939697265625">
        <ele>87.8000030517578125</ele>
        <time>2026-04-28T12:20:11.000Z</time>
        <extensions>
          <ns3:TrackPointExtension>
            <ns3:hr>135</ns3:hr>
            <ns3:cad>61</ns3:cad>
          </ns3:TrackPointExtension>
        </extensions>
      </trkpt>
      <trkpt lat="37.0550305210053920745849609375" lon="-8.977797813713550567626953125">
        <ele>87.1999969482421875</ele>
        <time>2026-04-28T12:20:13.000Z</time>
        <extensions>
          <ns3:TrackPointExtension>
            <ns3:hr>132</ns3:hr>
            <ns3:cad>61</ns3:cad>
          </ns3:TrackPointExtension>
        </extensions>
      </trkpt>
      <trkpt lat="37.05505507998168468475341796875" lon="-8.97776168771088123321533203125">
        <ele>87.40000152587890625</ele>
        <time>2026-04-28T12:20:16.000Z</time>
        <extensions>
          <ns3:TrackPointExtension>
            <ns3:hr>136</ns3:hr>
            <ns3:cad>61</ns3:cad>
          </ns3:TrackPointExtension>
        </extensions>
      </trkpt>
      <trkpt lat="37.05506262369453907012939453125" lon="-8.97774894721806049346923828125">
        <ele>87.59999847412109375</ele>
        <time>2026-04-28T12:20:17.000Z</time>
        <extensions>
          <ns3:TrackPointExtension>
            <ns3:hr>139</ns3:hr>
            <ns3:cad>62</ns3:cad>
          </ns3:TrackPointExtension>
        </extensions>
      </trkpt>
      <trkpt lat="37.0550751127302646636962890625" lon="-8.97771759890019893646240234375">
        <ele>88.1999969482421875</ele>
        <time>2026-04-28T12:20:19.000Z</time>
        <extensions>
          <ns3:TrackPointExtension>
            <ns3:hr>141</ns3:hr>
            <ns3:cad>62</ns3:cad>
          </ns3:TrackPointExtension>
        </extensions>
      </trkpt>
      <trkpt lat="37.0551024377346038818359375" lon="-8.97758013568818569183349609375">
        <ele>87.1999969482421875</ele>
        <time>2026-04-28T12:20:27.000Z</time>
        <extensions>
          <ns3:TrackPointExtension>
            <ns3:hr>140</ns3:hr>
            <ns3:cad>0</ns3:cad>
          </ns3:TrackPointExtension>
        </extensions>
      </trkpt>
      <trkpt lat="37.05511207692325115203857421875" lon="-8.977496735751628875732421875">
        <ele>87.59999847412109375</ele>
        <time>2026-04-28T12:20:32.000Z</time>
        <extensions>
          <ns3:TrackPointExtension>
            <ns3:hr>144</ns3:hr>
            <ns3:cad>61</ns3:cad>
          </ns3:TrackPointExtension>
        </extensions>
      </trkpt>
      <trkpt lat="37.05510721541941165924072265625" lon="-8.97744652815163135528564453125">
        <ele>87.8000030517578125</ele>
        <time>2026-04-28T12:20:35.000Z</time>
        <extensions>
          <ns3:TrackPointExtension>
            <ns3:hr>141</ns3:hr>
            <ns3:cad>63</ns3:cad>
          </ns3:TrackPointExtension>
        </extensions>
      </trkpt>
      <trkpt lat="37.055099420249462127685546875" lon="-8.9773805625736713409423828125">
        <ele>87.8000030517578125</ele>
        <time>2026-04-28T12:20:39.000Z</time>
        <extensions>
          <ns3:TrackPointExtension>
            <ns3:hr>140</ns3:hr>
            <ns3:cad>64</ns3:cad>
          </ns3:TrackPointExtension>
        </extensions>
      </trkpt>
      <trkpt lat="37.0550714246928691864013671875" lon="-8.9772652275860309600830078125">
        <ele>87.40000152587890625</ele>
        <time>2026-04-28T12:20:47.000Z</time>
        <extensions>
          <ns3:TrackPointExtension>
            <ns3:hr>140</ns3:hr>
            <ns3:cad>63</ns3:cad>
          </ns3:TrackPointExtension>
        </extensions>
      </trkpt>
      <trkpt lat="37.05506111495196819305419921875" lon="-8.97722625173628330230712890625">
        <ele>87.40000152587890625</ele>
        <time>2026-04-28T12:20:50.000Z</time>
        <extensions>
          <ns3:TrackPointExtension>
            <ns3:hr>136</ns3:hr>
            <ns3:cad>61</ns3:cad>
          </ns3:TrackPointExtension>
        </extensions>
      </trkpt>
      <trkpt lat="37.05505692400038242340087890625" lon="-8.9771483838558197021484375">
        <ele>87.59999847412109375</ele>
        <time>2026-04-28T12:20:56.000Z</time>
        <extensions>
          <ns3:TrackPointExtension>
            <ns3:hr>135</ns3:hr>
            <ns3:cad>53</ns3:cad>
          </ns3:TrackPointExtension>
        </extensions>
      </trkpt>
      <trkpt lat="37.05505642108619213104248046875" lon="-8.97704847157001495361328125">
        <ele>87.59999847412109375</ele>
        <time>2026-04-28T12:21:03.000Z</time>
        <extensions>
          <ns3:TrackPointExtension>
            <ns3:hr>136</ns3:hr>
            <ns3:cad>53</ns3:cad>
          </ns3:TrackPointExtension>
        </extensions>
      </trkpt>
      <trkpt lat="37.05506564117968082427978515625" lon="-8.97685543633997440338134765625">
        <ele>87.40000152587890625</ele>
        <time>2026-04-28T12:21:16.000Z</time>
        <extensions>
          <ns3:TrackPointExtension>
            <ns3:hr>134</ns3:hr>
            <ns3:cad>58</ns3:cad>
          </ns3:TrackPointExtension>
        </extensions>
      </trkpt>
      <trkpt lat="37.0550791360437870025634765625" lon="-8.97672384046018123626708984375">
        <ele>87.59999847412109375</ele>
        <time>2026-04-28T12:21:24.000Z</time>
        <extensions>
          <ns3:TrackPointExtension>
            <ns3:hr>132</ns3:hr>
            <ns3:cad>60</ns3:cad>
          </ns3:TrackPointExtension>
        </extensions>
      </trkpt>
      <trkpt lat="37.05513822846114635467529296875" lon="-8.97668679244816303253173828125">
        <ele>87</ele>
        <time>2026-04-28T12:21:29.000Z</time>
        <extensions>
          <ns3:TrackPointExtension>
            <ns3:hr>129</ns3:hr>
            <ns3:cad>62</ns3:cad>
          </ns3:TrackPointExtension>
        </extensions>
      </trkpt>
      <trkpt lat="37.05518935807049274444580078125" lon="-8.97664421238005161285400390625">
        <ele>87</ele>
        <time>2026-04-28T12:21:33.000Z</time>
        <extensions>
          <ns3:TrackPointExtension>
            <ns3:hr>130</ns3:hr>
            <ns3:cad>63</ns3:cad>
          </ns3:TrackPointExtension>
        </extensions>
      </trkpt>
      <trkpt lat="37.05527870915830135345458984375" lon="-8.97657514549791812896728515625">
        <ele>87.40000152587890625</ele>
        <time>2026-04-28T12:21:41.000Z</time>
        <extensions>
          <ns3:TrackPointExtension>
            <ns3:hr>131</ns3:hr>
            <ns3:cad>64</ns3:cad>
          </ns3:TrackPointExtension>
        </extensions>
      </trkpt>
      <trkpt lat="37.05539220012724399566650390625" lon="-8.97650490514934062957763671875">
        <ele>88.1999969482421875</ele>
        <time>2026-04-28T12:21:51.000Z</time>
        <extensions>
          <ns3:TrackPointExtension>
            <ns3:hr>130</ns3:hr>
            <ns3:cad>60</ns3:cad>
          </ns3:TrackPointExtension>
        </extensions>
      </trkpt>
      <trkpt lat="37.0554925315082073211669921875" lon="-8.97644271142780780792236328125">
        <ele>88.1999969482421875</ele>
        <time>2026-04-28T12:22:00.000Z</time>
        <extensions>
          <ns3:TrackPointExtension>
            <ns3:hr>128</ns3:hr>
            <ns3:cad>64</ns3:cad>
          </ns3:TrackPointExtension>
        </extensions>
      </trkpt>
      <trkpt lat="37.055573165416717529296875" lon="-8.97637867368757724761962890625">
        <ele>87.8000030517578125</ele>
        <time>2026-04-28T12:22:07.000Z</time>
        <extensions>
          <ns3:TrackPointExtension>
            <ns3:hr>130</ns3:hr>
            <ns3:cad>63</ns3:cad>
          </ns3:TrackPointExtension>
        </extensions>
      </trkpt>
      <trkpt lat="37.0556232891976833343505859375" lon="-8.976322598755359649658203125">
        <ele>88.8000030517578125</ele>
        <time>2026-04-28T12:22:12.000Z</time>
        <extensions>
          <ns3:TrackPointExtension>
            <ns3:hr>130</ns3:hr>
            <ns3:cad>0</ns3:cad>
          </ns3:TrackPointExtension>
        </extensions>
      </trkpt>
      <trkpt lat="37.0556739158928394317626953125" lon="-8.9762956090271472930908203125">
        <ele>88.8000030517578125</ele>
        <time>2026-04-28T12:22:16.000Z</time>
        <extensions>
          <ns3:TrackPointExtension>
            <ns3:hr>130</ns3:hr>
            <ns3:cad>0</ns3:cad>
          </ns3:TrackPointExtension>
        </extensions>
      </trkpt>
      <trkpt lat="37.0557637698948383331298828125" lon="-8.9762713015079498291015625">
        <ele>89.59999847412109375</ele>
        <time>2026-04-28T12:22:22.000Z</time>
        <extensions>
          <ns3:TrackPointExtension>
            <ns3:hr>136</ns3:hr>
            <ns3:cad>0</ns3:cad>
          </ns3:TrackPointExtension>
        </extensions>
      </trkpt>
      <trkpt lat="37.05577944405376911163330078125" lon="-8.97626501508057117462158203125">
        <ele>89.59999847412109375</ele>
        <time>2026-04-28T12:22:23.000Z</time>
        <extensions>
          <ns3:TrackPointExtension>
            <ns3:hr>138</ns3:hr>
            <ns3:cad>0</ns3:cad>
          </ns3:TrackPointExtension>
        </extensions>
      </trkpt>
      <trkpt lat="37.05583157949149608612060546875" lon="-8.97625294514000415802001953125">
        <ele>90</ele>
        <time>2026-04-28T12:22:27.000Z</time>
        <extensions>
          <ns3:TrackPointExtension>
            <ns3:hr>138</ns3:hr>
            <ns3:cad>0</ns3:cad>
          </ns3:TrackPointExtension>
        </extensions>
      </trkpt>
      <trkpt lat="37.05585773102939128875732421875" lon="-8.9762456528842449188232421875">
        <ele>90</ele>
        <time>2026-04-28T12:22:29.000Z</time>
        <extensions>
          <ns3:TrackPointExtension>
            <ns3:hr>134</ns3:hr>
            <ns3:cad>0</ns3:cad>
          </ns3:TrackPointExtension>
        </extensions>
      </trkpt>
      <trkpt lat="37.05588622950017452239990234375" lon="-8.9762345887720584869384765625">
        <ele>89.8000030517578125</ele>
        <time>2026-04-28T12:22:31.000Z</time>
        <extensions>
          <ns3:TrackPointExtension>
            <ns3:hr>133</ns3:hr>
            <ns3:cad>63</ns3:cad>
          </ns3:TrackPointExtension>
        </extensions>
      </trkpt>
      <trkpt lat="37.05599804408848285675048828125" lon="-8.97618169896304607391357421875">
        <ele>88.8000030517578125</ele>
        <time>2026-04-28T12:22:39.000Z</time>
        <extensions>
          <ns3:TrackPointExtension>
            <ns3:hr>134</ns3:hr>
            <ns3:cad>64</ns3:cad>
          </ns3:TrackPointExtension>
        </extensions>
      </trkpt>
      <trkpt lat="37.05601832829415798187255859375" lon="-8.97616275586187839508056640625">
        <ele>88.59999847412109375</ele>
        <time>2026-04-28T12:22:41.000Z</time>
        <extensions>
          <ns3:TrackPointExtension>
            <ns3:hr>134</ns3:hr>
            <ns3:cad>65</ns3:cad>
          </ns3:TrackPointExtension>
        </extensions>
      </trkpt>
      <trkpt lat="37.0560594834387302398681640625" lon="-8.976124785840511322021484375">
        <ele>89</ele>
        <time>2026-04-28T12:22:45.000Z</time>
        <extensions>
          <ns3:TrackPointExtension>
            <ns3:hr>131</ns3:hr>
            <ns3:cad>65</ns3:cad>
          </ns3:TrackPointExtension>
        </extensions>
      </trkpt>
      <trkpt lat="37.05609041266143321990966796875" lon="-8.97608648054301738739013671875">
        <ele>89.1999969482421875</ele>
        <time>2026-04-28T12:22:48.000Z</time>
        <extensions>
          <ns3:TrackPointExtension>
            <ns3:hr>128</ns3:hr>
            <ns3:cad>64</ns3:cad>
          </ns3:TrackPointExtension>
        </extensions>
      </trkpt>
      <trkpt lat="37.05609996803104877471923828125" lon="-8.9760719798505306243896484375">
        <ele>89.1999969482421875</ele>
        <time>2026-04-28T12:22:49.000Z</time>
        <extensions>
          <ns3:TrackPointExtension>
            <ns3:hr>125</ns3:hr>
            <ns3:cad>64</ns3:cad>
          </ns3:TrackPointExtension>
        </extensions>
      </trkpt>
      <trkpt lat="37.05610935576260089874267578125" lon="-8.97605664096772670745849609375">
        <ele>89.1999969482421875</ele>
        <time>2026-04-28T12:22:50.000Z</time>
        <extensions>
          <ns3:TrackPointExtension>
            <ns3:hr>125</ns3:hr>
            <ns3:cad>61</ns3:cad>
          </ns3:TrackPointExtension>
        </extensions>
      </trkpt>
      <trkpt lat="37.05615847371518611907958984375" lon="-8.97599034011363983154296875">
        <ele>89.59999847412109375</ele>
        <time>2026-04-28T12:22:55.000Z</time>
        <extensions>
          <ns3:TrackPointExtension>
            <ns3:hr>122</ns3:hr>
            <ns3:cad>64</ns3:cad>
          </ns3:TrackPointExtension>
        </extensions>
      </trkpt>
      <trkpt lat="37.05619233660399913787841796875" lon="-8.97591917775571346282958984375">
        <ele>89.40000152587890625</ele>
        <time>2026-04-28T12:23:00.000Z</time>
        <extensions>
          <ns3:TrackPointExtension>
            <ns3:hr>120</ns3:hr>
            <ns3:cad>64</ns3:cad>
          </ns3:TrackPointExtension>
        </extensions>
      </trkpt>
      <trkpt lat="37.05624841153621673583984375" lon="-8.97577299736440181732177734375">
        <ele>89.59999847412109375</ele>
        <time>2026-04-28T12:23:09.000Z</time>
        <extensions>
          <ns3:TrackPointExtension>
            <ns3:hr>121</ns3:hr>
            <ns3:cad>63</ns3:cad>
          </ns3:TrackPointExtension>
        </extensions>
      </trkpt>
      <trkpt lat="37.0562646724283695220947265625" lon="-8.97574835456907749176025390625">
        <ele>90</ele>
        <time>2026-04-28T12:23:11.000Z</time>
        <extensions>
          <ns3:TrackPointExtension>
            <ns3:hr>122</ns3:hr>
            <ns3:cad>64</ns3:cad>
          </ns3:TrackPointExtension>
        </extensions>
      </trkpt>
      <trkpt lat="37.056284286081790924072265625" lon="-8.97572387941181659698486328125">
        <ele>90.1999969482421875</ele>
        <time>2026-04-28T12:23:13.000Z</time>
        <extensions>
          <ns3:TrackPointExtension>
            <ns3:hr>125</ns3:hr>
            <ns3:cad>63</ns3:cad>
          </ns3:TrackPointExtension>
        </extensions>
      </trkpt>
      <trkpt lat="37.05631705932319164276123046875" lon="-8.97569118998944759368896484375">
        <ele>90.1999969482421875</ele>
        <time>2026-04-28T12:23:16.000Z</time>
        <extensions>
          <ns3:TrackPointExtension>
            <ns3:hr>128</ns3:hr>
            <ns3:cad>63</ns3:cad>
          </ns3:TrackPointExtension>
        </extensions>
      </trkpt>
      <trkpt lat="37.05634019337594509124755859375" lon="-8.9756691455841064453125">
        <ele>90.1999969482421875</ele>
        <time>2026-04-28T12:23:18.000Z</time>
        <extensions>
          <ns3:TrackPointExtension>
            <ns3:hr>131</ns3:hr>
            <ns3:cad>64</ns3:cad>
          </ns3:TrackPointExtension>
        </extensions>
      </trkpt>
      <trkpt lat="37.05635167658329010009765625" lon="-8.97565749473869800567626953125">
        <ele>90.1999969482421875</ele>
        <time>2026-04-28T12:23:19.000Z</time>
        <extensions>
          <ns3:TrackPointExtension>
            <ns3:hr>131</ns3:hr>
            <ns3:cad>65</ns3:cad>
          </ns3:TrackPointExtension>
        </extensions>
      </trkpt>
      <trkpt lat="37.05647061578929424285888671875" lon="-8.97554718889296054840087890625">
        <ele>90.40000152587890625</ele>
        <time>2026-04-28T12:23:30.000Z</time>
        <extensions>
          <ns3:TrackPointExtension>
            <ns3:hr>132</ns3:hr>
            <ns3:cad>63</ns3:cad>
          </ns3:TrackPointExtension>
        </extensions>
      </trkpt>
      <trkpt lat="37.05659567378461360931396484375" lon="-8.9754827320575714111328125">
        <ele>90.40000152587890625</ele>
        <time>2026-04-28T12:23:40.000Z</time>
        <extensions>
          <ns3:TrackPointExtension>
            <ns3:hr>134</ns3:hr>
            <ns3:cad>65</ns3:cad>
          </ns3:TrackPointExtension>
        </extensions>
      </trkpt>
      <trkpt lat="37.0566589571535587310791015625" lon="-8.97545389831066131591796875">
        <ele>91</ele>
        <time>2026-04-28T12:23:45.000Z</time>
        <extensions>
          <ns3:TrackPointExtension>
            <ns3:hr>133</ns3:hr>
            <ns3:cad>62</ns3:cad>
          </ns3:TrackPointExtension>
        </extensions>
      </trkpt>
      <trkpt lat="37.05669944174587726593017578125" lon="-8.97542397491633892059326171875">
        <ele>91.1999969482421875</ele>
        <time>2026-04-28T12:23:48.000Z</time>
        <extensions>
          <ns3:TrackPointExtension>
            <ns3:hr>132</ns3:hr>
            <ns3:cad>64</ns3:cad>
          </ns3:TrackPointExtension>
        </extensions>
      </trkpt>
      <trkpt lat="37.05681393854320049285888671875" lon="-8.97532657720148563385009765625">
        <ele>91.40000152587890625</ele>
        <time>2026-04-28T12:23:58.000Z</time>
        <extensions>
          <ns3:TrackPointExtension>
            <ns3:hr>134</ns3:hr>
            <ns3:cad>65</ns3:cad>
          </ns3:TrackPointExtension>
        </extensions>
      </trkpt>
      <trkpt lat="37.0569030381739139556884765625" lon="-8.97518291138112545013427734375">
        <ele>92</ele>
        <time>2026-04-28T12:24:08.000Z</time>
        <extensions>
          <ns3:TrackPointExtension>
            <ns3:hr>133</ns3:hr>
            <ns3:cad>63</ns3:cad>
          </ns3:TrackPointExtension>
        </extensions>
      </trkpt>
      <trkpt lat="37.0569664053618907928466796875" lon="-8.9750911295413970947265625">
        <ele>92.1999969482421875</ele>
        <time>2026-04-28T12:24:15.000Z</time>
        <extensions>
          <ns3:TrackPointExtension>
            <ns3:hr>133</ns3:hr>
            <ns3:cad>63</ns3:cad>
          </ns3:TrackPointExtension>
        </extensions>
      </trkpt>
      <trkpt lat="37.05700906924903392791748046875" lon="-8.97504779510200023651123046875">
        <ele>92.40000152587890625</ele>
        <time>2026-04-28T12:24:19.000Z</time>
        <extensions>
          <ns3:TrackPointExtension>
            <ns3:hr>135</ns3:hr>
            <ns3:cad>63</ns3:cad>
          </ns3:TrackPointExtension>
        </extensions>
      </trkpt>
      <trkpt lat="37.05714502371847629547119140625" lon="-8.97492709569633007049560546875">
        <ele>92.8000030517578125</ele>
        <time>2026-04-28T12:24:31.000Z</time>
        <extensions>
          <ns3:TrackPointExtension>
            <ns3:hr>132</ns3:hr>
            <ns3:cad>64</ns3:cad>
          </ns3:TrackPointExtension>
        </extensions>
      </trkpt>
      <trkpt lat="37.05725030042231082916259765625" lon="-8.97483564913272857666015625">
        <ele>93</ele>
        <time>2026-04-28T12:24:40.000Z</time>
        <extensions>
          <ns3:TrackPointExtension>
            <ns3:hr>131</ns3:hr>
            <ns3:cad>63</ns3:cad>
          </ns3:TrackPointExtension>
        </extensions>
      </trkpt>
      <trkpt lat="37.0573643781244754791259765625" lon="-8.9747322164475917816162109375">
        <ele>92.8000030517578125</ele>
        <time>2026-04-28T12:24:50.000Z</time>
        <extensions>
          <ns3:TrackPointExtension>
            <ns3:hr>130</ns3:hr>
            <ns3:cad>63</ns3:cad>
          </ns3:TrackPointExtension>
        </extensions>
      </trkpt>
      <trkpt lat="37.057438977062702178955078125" lon="-8.97459031082689762115478515625">
        <ele>93</ele>
        <time>2026-04-28T12:25:00.000Z</time>
        <extensions>
          <ns3:TrackPointExtension>
            <ns3:hr>130</ns3:hr>
            <ns3:cad>62</ns3:cad>
          </ns3:TrackPointExtension>
        </extensions>
      </trkpt>
      <trkpt lat="37.057524137198925018310546875" lon="-8.9744589664041996002197265625">
        <ele>92.40000152587890625</ele>
        <time>2026-04-28T12:25:10.000Z</time>
        <extensions>
          <ns3:TrackPointExtension>
            <ns3:hr>128</ns3:hr>
            <ns3:cad>63</ns3:cad>
          </ns3:TrackPointExtension>
        </extensions>
      </trkpt>
      <trkpt lat="37.05763385631144046783447265625" lon="-8.9743003807961940765380859375">
        <ele>93.1999969482421875</ele>
        <time>2026-04-28T12:25:22.000Z</time>
        <extensions>
          <ns3:TrackPointExtension>
            <ns3:hr>128</ns3:hr>
            <ns3:cad>63</ns3:cad>
          </ns3:TrackPointExtension>
        </extensions>
      </trkpt>
      <trkpt lat="37.057725302875041961669921875" lon="-8.9741293899714946746826171875">
        <ele>92.8000030517578125</ele>
        <time>2026-04-28T12:25:34.000Z</time>
        <extensions>
          <ns3:TrackPointExtension>
            <ns3:hr>130</ns3:hr>
            <ns3:cad>64</ns3:cad>
          </ns3:TrackPointExtension>
        </extensions>
      </trkpt>
      <trkpt lat="37.05774114467203617095947265625" lon="-8.97410131059587001800537109375">
        <ele>93.1999969482421875</ele>
        <time>2026-04-28T12:25:36.000Z</time>
        <extensions>
          <ns3:TrackPointExtension>
            <ns3:hr>129</ns3:hr>
            <ns3:cad>64</ns3:cad>
          </ns3:TrackPointExtension>
        </extensions>
      </trkpt>
      <trkpt lat="37.0577797852456569671630859375" lon="-8.9740422181785106658935546875">
        <ele>93.1999969482421875</ele>
        <time>2026-04-28T12:25:40.000Z</time>
        <extensions>
          <ns3:TrackPointExtension>
            <ns3:hr>130</ns3:hr>
            <ns3:cad>0</ns3:cad>
          </ns3:TrackPointExtension>
        </extensions>
      </trkpt>
      <trkpt lat="37.05787391401827335357666015625" lon="-8.97394306026399135589599609375">
        <ele>93.8000030517578125</ele>
        <time>2026-04-28T12:25:49.000Z</time>
        <extensions>
          <ns3:TrackPointExtension>
            <ns3:hr>131</ns3:hr>
            <ns3:cad>62</ns3:cad>
          </ns3:TrackPointExtension>
        </extensions>
      </trkpt>
      <trkpt lat="37.0579316653311252593994140625" lon="-8.97386544384062290191650390625">
        <ele>94.1999969482421875</ele>
        <time>2026-04-28T12:25:55.000Z</time>
        <extensions>
          <ns3:TrackPointExtension>
            <ns3:hr>132</ns3:hr>
            <ns3:cad>62</ns3:cad>
          </ns3:TrackPointExtension>
        </extensions>
      </trkpt>
      <trkpt lat="37.0579598285257816314697265625" lon="-8.9738219417631626129150390625">
        <ele>94.8000030517578125</ele>
        <time>2026-04-28T12:25:58.000Z</time>
        <extensions>
          <ns3:TrackPointExtension>
            <ns3:hr>132</ns3:hr>
            <ns3:cad>58</ns3:cad>
          </ns3:TrackPointExtension>
        </extensions>
      </trkpt>
      <trkpt lat="37.058061249554157257080078125" lon="-8.97369931451976299285888671875">
        <ele>95.40000152587890625</ele>
        <time>2026-04-28T12:26:09.000Z</time>
        <extensions>
          <ns3:TrackPointExtension>
            <ns3:hr>131</ns3:hr>
            <ns3:cad>63</ns3:cad>
          </ns3:TrackPointExtension>
        </extensions>
      </trkpt>
      <trkpt lat="37.05807105638086795806884765625" lon="-8.97368707694113254547119140625">
        <ele>95.59999847412109375</ele>
        <time>2026-04-28T12:26:10.000Z</time>
        <extensions>
          <ns3:TrackPointExtension>
            <ns3:hr>131</ns3:hr>
            <ns3:cad>63</ns3:cad>
          </ns3:TrackPointExtension>
        </extensions>
      </trkpt>
      <trkpt lat="37.05818069167435169219970703125" lon="-8.97358012385666370391845703125">
        <ele>95.40000152587890625</ele>
        <time>2026-04-28T12:26:20.000Z</time>
        <extensions>
          <ns3:TrackPointExtension>
            <ns3:hr>132</ns3:hr>
            <ns3:cad>61</ns3:cad>
          </ns3:TrackPointExtension>
        </extensions>
      </trkpt>
      <trkpt lat="37.05829015932977199554443359375" lon="-8.9734818041324615478515625">
        <ele>94.8000030517578125</ele>
        <time>2026-04-28T12:26:30.000Z</time>
        <extensions>
          <ns3:TrackPointExtension>
            <ns3:hr>131</ns3:hr>
            <ns3:cad>0</ns3:cad>
          </ns3:TrackPointExtension>
        </extensions>
      </trkpt>
      <trkpt lat="37.0583785884082317352294921875" lon="-8.97340058349072933197021484375">
        <ele>94.59999847412109375</ele>
        <time>2026-04-28T12:26:39.000Z</time>
        <extensions>
          <ns3:TrackPointExtension>
            <ns3:hr>130</ns3:hr>
            <ns3:cad>0</ns3:cad>
          </ns3:TrackPointExtension>
        </extensions>
      </trkpt>
      <trkpt lat="37.05842234194278717041015625" lon="-8.9733371324837207794189453125">
        <ele>94.59999847412109375</ele>
        <time>2026-04-28T12:26:44.000Z</time>
        <extensions>
          <ns3:TrackPointExtension>
            <ns3:hr>131</ns3:hr>
            <ns3:cad>0</ns3:cad>
          </ns3:TrackPointExtension>
        </extensions>
      </trkpt>
      <trkpt lat="37.05854999832808971405029296875" lon="-8.973162956535816192626953125">
        <ele>94.8000030517578125</ele>
        <time>2026-04-28T12:26:57.000Z</time>
        <extensions>
          <ns3:TrackPointExtension>
            <ns3:hr>132</ns3:hr>
            <ns3:cad>63</ns3:cad>
          </ns3:TrackPointExtension>
        </extensions>
      </trkpt>
      <trkpt lat="37.05856022424995899200439453125" lon="-8.973149545490741729736328125">
        <ele>95</ele>
        <time>2026-04-28T12:26:58.000Z</time>
        <extensions>
          <ns3:TrackPointExtension>
            <ns3:hr>132</ns3:hr>
            <ns3:cad>63</ns3:cad>
          </ns3:TrackPointExtension>
        </extensions>
      </trkpt>
      <trkpt lat="37.05867522396147251129150390625" lon="-8.97298626601696014404296875">
        <ele>95.1999969482421875</ele>
        <time>2026-04-28T12:27:10.000Z</time>
        <extensions>
          <ns3:TrackPointExtension>
            <ns3:hr>133</ns3:hr>
            <ns3:cad>64</ns3:cad>
          </ns3:TrackPointExtension>
        </extensions>
      </trkpt>
      <trkpt lat="37.05875049345195293426513671875" lon="-8.97284553386270999908447265625">
        <ele>94.40000152587890625</ele>
        <time>2026-04-28T12:27:20.000Z</time>
        <extensions>
          <ns3:TrackPointExtension>
            <ns3:hr>131</ns3:hr>
            <ns3:cad>64</ns3:cad>
          </ns3:TrackPointExtension>
        </extensions>
      </trkpt>
      <trkpt lat="37.05875703133642673492431640625" lon="-8.97282935678958892822265625">
        <ele>93.59999847412109375</ele>
        <time>2026-04-28T12:27:21.000Z</time>
        <extensions>
          <ns3:TrackPointExtension>
            <ns3:hr>131</ns3:hr>
            <ns3:cad>63</ns3:cad>
          </ns3:TrackPointExtension>
        </extensions>
      </trkpt>
      <trkpt lat="37.0587644912302494049072265625" lon="-8.9728141017258167266845703125">
        <ele>92.8000030517578125</ele>
        <time>2026-04-28T12:27:22.000Z</time>
        <extensions>
          <ns3:TrackPointExtension>
            <ns3:hr>131</ns3:hr>
            <ns3:cad>63</ns3:cad>
          </ns3:TrackPointExtension>
        </extensions>
      </trkpt>
      <trkpt lat="37.05878921784460544586181640625" lon="-8.97276724688708782196044921875">
        <ele>91.59999847412109375</ele>
        <time>2026-04-28T12:27:25.000Z</time>
        <extensions>
          <ns3:TrackPointExtension>
            <ns3:hr>130</ns3:hr>
            <ns3:cad>62</ns3:cad>
          </ns3:TrackPointExtension>
        </extensions>
      </trkpt>
      <trkpt lat="37.05883867107331752777099609375" lon="-8.97268644534051418304443359375">
        <ele>92.8000030517578125</ele>
        <time>2026-04-28T12:27:31.000Z</time>
        <extensions>
          <ns3:TrackPointExtension>
            <ns3:hr>130</ns3:hr>
            <ns3:cad>63</ns3:cad>
          </ns3:TrackPointExtension>
        </extensions>
      </trkpt>
      <trkpt lat="37.05884554423391819000244140625" lon="-8.97267043590545654296875">
        <ele>93</ele>
        <time>2026-04-28T12:27:32.000Z</time>
        <extensions>
          <ns3:TrackPointExtension>
            <ns3:hr>129</ns3:hr>
            <ns3:cad>62</ns3:cad>
          </ns3:TrackPointExtension>
        </extensions>
      </trkpt>
      <trkpt lat="37.0589554309844970703125" lon="-8.97250204347074031829833984375">
        <ele>92.8000030517578125</ele>
        <time>2026-04-28T12:27:44.000Z</time>
        <extensions>
          <ns3:TrackPointExtension>
            <ns3:hr>129</ns3:hr>
            <ns3:cad>64</ns3:cad>
          </ns3:TrackPointExtension>
        </extensions>
      </trkpt>
      <trkpt lat="37.05906607210636138916015625" lon="-8.97237380035221576690673828125">
        <ele>92.8000030517578125</ele>
        <time>2026-04-28T12:27:55.000Z</time>
        <extensions>
          <ns3:TrackPointExtension>
            <ns3:hr>128</ns3:hr>
            <ns3:cad>62</ns3:cad>
          </ns3:TrackPointExtension>
        </extensions>
      </trkpt>
      <trkpt lat="37.05917461775243282318115234375" lon="-8.9722136221826076507568359375">
        <ele>93</ele>
        <time>2026-04-28T12:28:07.000Z</time>
        <extensions>
          <ns3:TrackPointExtension>
            <ns3:hr>130</ns3:hr>
            <ns3:cad>63</ns3:cad>
          </ns3:TrackPointExtension>
        </extensions>
      </trkpt>
      <trkpt lat="37.05928022973239421844482421875" lon="-8.97204070352017879486083984375">
        <ele>93.40000152587890625</ele>
        <time>2026-04-28T12:28:20.000Z</time>
        <extensions>
          <ns3:TrackPointExtension>
            <ns3:hr>130</ns3:hr>
            <ns3:cad>62</ns3:cad>
          </ns3:TrackPointExtension>
        </extensions>
      </trkpt>
      <trkpt lat="37.0593108236789703369140625" lon="-8.97199795581400394439697265625">
        <ele>93.8000030517578125</ele>
        <time>2026-04-28T12:28:23.000Z</time>
        <extensions>
          <ns3:TrackPointExtension>
            <ns3:hr>128</ns3:hr>
            <ns3:cad>62</ns3:cad>
          </ns3:TrackPointExtension>
        </extensions>
      </trkpt>
      <trkpt lat="37.05937729217112064361572265625" lon="-8.971907682716846466064453125">
        <ele>94.1999969482421875</ele>
        <time>2026-04-28T12:28:30.000Z</time>
        <extensions>
          <ns3:TrackPointExtension>
            <ns3:hr>129</ns3:hr>
            <ns3:cad>62</ns3:cad>
          </ns3:TrackPointExtension>
        </extensions>
      </trkpt>
      <trkpt lat="37.059425152838230133056640625" lon="-8.97183165885508060455322265625">
        <ele>94.59999847412109375</ele>
        <time>2026-04-28T12:28:36.000Z</time>
        <extensions>
          <ns3:TrackPointExtension>
            <ns3:hr>132</ns3:hr>
            <ns3:cad>62</ns3:cad>
          </ns3:TrackPointExtension>
        </extensions>
      </trkpt>
      <trkpt lat="37.05944552086293697357177734375" lon="-8.97178505547344684600830078125">
        <ele>94.8000030517578125</ele>
        <time>2026-04-28T12:28:39.000Z</time>
        <extensions>
          <ns3:TrackPointExtension>
            <ns3:hr>133</ns3:hr>
            <ns3:cad>62</ns3:cad>
          </ns3:TrackPointExtension>
        </extensions>
      </trkpt>
      <trkpt lat="37.0594990812242031097412109375" lon="-8.9717008173465728759765625">
        <ele>95</ele>
        <time>2026-04-28T12:28:45.000Z</time>
        <extensions>
          <ns3:TrackPointExtension>
            <ns3:hr>132</ns3:hr>
            <ns3:cad>61</ns3:cad>
          </ns3:TrackPointExtension>
        </extensions>
      </trkpt>
      <trkpt lat="37.0595741830766201019287109375" lon="-8.97157852537930011749267578125">
        <ele>95.1999969482421875</ele>
        <time>2026-04-28T12:28:54.000Z</time>
        <extensions>
          <ns3:TrackPointExtension>
            <ns3:hr>129</ns3:hr>
            <ns3:cad>64</ns3:cad>
          </ns3:TrackPointExtension>
        </extensions>
      </trkpt>
      <trkpt lat="37.05958365462720394134521484375" lon="-8.97156544961035251617431640625">
        <ele>95.1999969482421875</ele>
        <time>2026-04-28T12:28:55.000Z</time>
        <extensions>
          <ns3:TrackPointExtension>
            <ns3:hr>129</ns3:hr>
            <ns3:cad>64</ns3:cad>
          </ns3:TrackPointExtension>
        </extensions>
      </trkpt>
      <trkpt lat="37.05967283807694911956787109375" lon="-8.97139278240501880645751953125">
        <ele>95</ele>
        <time>2026-04-28T12:29:07.000Z</time>
        <extensions>
          <ns3:TrackPointExtension>
            <ns3:hr>128</ns3:hr>
            <ns3:cad>62</ns3:cad>
          </ns3:TrackPointExtension>
        </extensions>
      </trkpt>
      <trkpt lat="37.059763781726360321044921875" lon="-8.97126353345811367034912109375">
        <ele>95</ele>
        <time>2026-04-28T12:29:17.000Z</time>
        <extensions>
          <ns3:TrackPointExtension>
            <ns3:hr>130</ns3:hr>
            <ns3:cad>61</ns3:cad>
          </ns3:TrackPointExtension>
        </extensions>
      </trkpt>
      <trkpt lat="37.05986646004021167755126953125" lon="-8.97118608467280864715576171875">
        <ele>94.8000030517578125</ele>
        <time>2026-04-28T12:29:26.000Z</time>
        <extensions>
          <ns3:TrackPointExtension>
            <ns3:hr>130</ns3:hr>
            <ns3:cad>61</ns3:cad>
          </ns3:TrackPointExtension>
        </extensions>
      </trkpt>
      <trkpt lat="37.05989227630198001861572265625" lon="-8.97110679186880588531494140625">
        <ele>94.1999969482421875</ele>
        <time>2026-04-28T12:29:33.000Z</time>
        <extensions>
          <ns3:TrackPointExtension>
            <ns3:hr>128</ns3:hr>
            <ns3:cad>54</ns3:cad>
          </ns3:TrackPointExtension>
        </extensions>
      </trkpt>
      <trkpt lat="37.05993644893169403076171875" lon="-8.97095910273492336273193359375">
        <ele>94.40000152587890625</ele>
        <time>2026-04-28T12:29:43.000Z</time>
        <extensions>
          <ns3:TrackPointExtension>
            <ns3:hr>126</ns3:hr>
            <ns3:cad>61</ns3:cad>
          </ns3:TrackPointExtension>
        </extensions>
      </trkpt>
      <trkpt lat="37.06000342033803462982177734375" lon="-8.97083555348217487335205078125">
        <ele>94.8000030517578125</ele>
        <time>2026-04-28T12:29:52.000Z</time>
        <extensions>
          <ns3:TrackPointExtension>
            <ns3:hr>126</ns3:hr>
            <ns3:cad>0</ns3:cad>
          </ns3:TrackPointExtension>
        </extensions>
      </trkpt>
      <trkpt lat="37.06007919274270534515380859375" lon="-8.97070831619203090667724609375">
        <ele>94.8000030517578125</ele>
        <time>2026-04-28T12:30:01.000Z</time>
        <extensions>
          <ns3:TrackPointExtension>
            <ns3:hr>128</ns3:hr>
            <ns3:cad>61</ns3:cad>
          </ns3:TrackPointExtension>
        </extensions>
      </trkpt>
      <trkpt lat="37.06012780778110027313232421875" lon="-8.97057487629354000091552734375">
        <ele>95</ele>
        <time>2026-04-28T12:30:10.000Z</time>
        <extensions>
          <ns3:TrackPointExtension>
            <ns3:hr>131</ns3:hr>
            <ns3:cad>62</ns3:cad>
          </ns3:TrackPointExtension>
        </extensions>
      </trkpt>
      <trkpt lat="37.06012965179979801177978515625" lon="-8.9705590344965457916259765625">
        <ele>95</ele>
        <time>2026-04-28T12:30:11.000Z</time>
        <extensions>
          <ns3:TrackPointExtension>
            <ns3:hr>131</ns3:hr>
            <ns3:cad>62</ns3:cad>
          </ns3:TrackPointExtension>
        </extensions>
      </trkpt>
      <trkpt lat="37.06016284413635730743408203125" lon="-8.97041260264813899993896484375">
        <ele>95</ele>
        <time>2026-04-28T12:30:19.000Z</time>
        <extensions>
          <ns3:TrackPointExtension>
            <ns3:hr>128</ns3:hr>
            <ns3:cad>62</ns3:cad>
          </ns3:TrackPointExtension>
        </extensions>
      </trkpt>
      <trkpt lat="37.06016653217375278472900390625" lon="-8.9703799970448017120361328125">
        <ele>95</ele>
        <time>2026-04-28T12:30:21.000Z</time>
        <extensions>
          <ns3:TrackPointExtension>
            <ns3:hr>127</ns3:hr>
            <ns3:cad>61</ns3:cad>
          </ns3:TrackPointExtension>
        </extensions>
      </trkpt>
      <trkpt lat="37.06018924713134765625" lon="-8.97024865262210369110107421875">
        <ele>95</ele>
        <time>2026-04-28T12:30:29.000Z</time>
        <extensions>
          <ns3:TrackPointExtension>
            <ns3:hr>124</ns3:hr>
            <ns3:cad>62</ns3:cad>
          </ns3:TrackPointExtension>
        </extensions>
      </trkpt>
      <trkpt lat="37.06020743586122989654541015625" lon="-8.970205150544643402099609375">
        <ele>95</ele>
        <time>2026-04-28T12:30:32.000Z</time>
        <extensions>
          <ns3:TrackPointExtension>
            <ns3:hr>125</ns3:hr>
            <ns3:cad>62</ns3:cad>
          </ns3:TrackPointExtension>
        </extensions>
      </trkpt>
      <trkpt lat="37.06030298955738544464111328125" lon="-8.97004279308021068572998046875">
        <ele>95</ele>
        <time>2026-04-28T12:30:44.000Z</time>
        <extensions>
          <ns3:TrackPointExtension>
            <ns3:hr>125</ns3:hr>
            <ns3:cad>62</ns3:cad>
          </ns3:TrackPointExtension>
        </extensions>
      </trkpt>
      <trkpt lat="37.06042687408626079559326171875" lon="-8.96988370455801486968994140625">
        <ele>94</ele>
        <time>2026-04-28T12:30:57.000Z</time>
        <extensions>
          <ns3:TrackPointExtension>
            <ns3:hr>125</ns3:hr>
            <ns3:cad>62</ns3:cad>
          </ns3:TrackPointExtension>
        </extensions>
      </trkpt>
      <trkpt lat="37.06046174280345439910888671875" lon="-8.96985939703881740570068359375">
        <ele>93.8000030517578125</ele>
        <time>2026-04-28T12:31:00.000Z</time>
        <extensions>
          <ns3:TrackPointExtension>
            <ns3:hr>125</ns3:hr>
            <ns3:cad>62</ns3:cad>
          </ns3:TrackPointExtension>
        </extensions>
      </trkpt>
      <trkpt lat="37.0605481602251529693603515625" lon="-8.969808518886566162109375">
        <ele>93.40000152587890625</ele>
        <time>2026-04-28T12:31:07.000Z</time>
        <extensions>
          <ns3:TrackPointExtension>
            <ns3:hr>125</ns3:hr>
            <ns3:cad>63</ns3:cad>
          </ns3:TrackPointExtension>
        </extensions>
      </trkpt>
      <trkpt lat="37.0606665126979351043701171875" lon="-8.9697473309934139251708984375">
        <ele>93.40000152587890625</ele>
        <time>2026-04-28T12:31:16.000Z</time>
        <extensions>
          <ns3:TrackPointExtension>
            <ns3:hr>126</ns3:hr>
            <ns3:cad>63</ns3:cad>
          </ns3:TrackPointExtension>
        </extensions>
      </trkpt>
      <trkpt lat="37.0607214979827404022216796875" lon="-8.96974540315568447113037109375">
        <ele>92.8000030517578125</ele>
        <time>2026-04-28T12:31:21.000Z</time>
        <extensions>
          <ns3:TrackPointExtension>
            <ns3:hr>126</ns3:hr>
            <ns3:cad>0</ns3:cad>
          </ns3:TrackPointExtension>
        </extensions>
      </trkpt>
      <trkpt lat="37.06073633395135402679443359375" lon="-8.969741128385066986083984375">
        <ele>92.8000030517578125</ele>
        <time>2026-04-28T12:31:24.000Z</time>
        <extensions>
          <ns3:TrackPointExtension>
            <ns3:hr>126</ns3:hr>
            <ns3:cad>0</ns3:cad>
          </ns3:TrackPointExtension>
        </extensions>
      </trkpt>
      <trkpt lat="37.06076533533632755279541015625" lon="-8.96973601542413234710693359375">
        <ele>92.8000030517578125</ele>
        <time>2026-04-28T12:31:32.000Z</time>
        <extensions>
          <ns3:TrackPointExtension>
            <ns3:hr>126</ns3:hr>
            <ns3:cad>0</ns3:cad>
          </ns3:TrackPointExtension>
        </extensions>
      </trkpt>
      <trkpt lat="37.06082233227789402008056640625" lon="-8.9697215147316455841064453125">
        <ele>92.8000030517578125</ele>
        <time>2026-04-28T12:31:37.000Z</time>
        <extensions>
          <ns3:TrackPointExtension>
            <ns3:hr>124</ns3:hr>
            <ns3:cad>0</ns3:cad>
          </ns3:TrackPointExtension>
        </extensions>
      </trkpt>
      <trkpt lat="37.0608898065984249114990234375" lon="-8.96969628520309925079345703125">
        <ele>93.8000030517578125</ele>
        <time>2026-04-28T12:31:42.000Z</time>
        <extensions>
          <ns3:TrackPointExtension>
            <ns3:hr>126</ns3:hr>
            <ns3:cad>63</ns3:cad>
          </ns3:TrackPointExtension>
        </extensions>
      </trkpt>
      <trkpt lat="37.0609605498611927032470703125" lon="-8.96965898573398590087890625">
        <ele>93.8000030517578125</ele>
        <time>2026-04-28T12:31:47.000Z</time>
        <extensions>
          <ns3:TrackPointExtension>
            <ns3:hr>122</ns3:hr>
            <ns3:cad>64</ns3:cad>
          </ns3:TrackPointExtension>
        </extensions>
      </trkpt>
      <trkpt lat="37.0609724521636962890625" lon="-8.9696524478495121002197265625">
        <ele>93.8000030517578125</ele>
        <time>2026-04-28T12:31:48.000Z</time>
        <extensions>
          <ns3:TrackPointExtension>
            <ns3:hr>121</ns3:hr>
            <ns3:cad>64</ns3:cad>
          </ns3:TrackPointExtension>
        </extensions>
      </trkpt>
      <trkpt lat="37.06101243384182453155517578125" lon="-8.96963526494801044464111328125">
        <ele>93.8000030517578125</ele>
        <time>2026-04-28T12:31:51.000Z</time>
        <extensions>
          <ns3:TrackPointExtension>
            <ns3:hr>124</ns3:hr>
            <ns3:cad>63</ns3:cad>
          </ns3:TrackPointExtension>
        </extensions>
      </trkpt>
      <trkpt lat="37.0611159503459930419921875" lon="-8.96960123442113399505615234375">
        <ele>93.40000152587890625</ele>
        <time>2026-04-28T12:31:59.000Z</time>
        <extensions>
          <ns3:TrackPointExtension>
            <ns3:hr>126</ns3:hr>
            <ns3:cad>62</ns3:cad>
          </ns3:TrackPointExtension>
        </extensions>
      </trkpt>
      <trkpt lat="37.06121577881276607513427734375" lon="-8.969537951052188873291015625">
        <ele>93.1999969482421875</ele>
        <time>2026-04-28T12:32:07.000Z</time>
        <extensions>
          <ns3:TrackPointExtension>
            <ns3:hr>123</ns3:hr>
            <ns3:cad>0</ns3:cad>
          </ns3:TrackPointExtension>
        </extensions>
      </trkpt>
      <trkpt lat="37.06123857758939266204833984375" lon="-8.969517834484577178955078125">
        <ele>93.1999969482421875</ele>
        <time>2026-04-28T12:32:09.000Z</time>
        <extensions>
          <ns3:TrackPointExtension>
            <ns3:hr>124</ns3:hr>
            <ns3:cad>0</ns3:cad>
          </ns3:TrackPointExtension>
        </extensions>
      </trkpt>
      <trkpt lat="37.0612609572708606719970703125" lon="-8.96949394606053829193115234375">
        <ele>93.1999969482421875</ele>
        <time>2026-04-28T12:32:11.000Z</time>
        <extensions>
          <ns3:TrackPointExtension>
            <ns3:hr>127</ns3:hr>
            <ns3:cad>61</ns3:cad>
          </ns3:TrackPointExtension>
        </extensions>
      </trkpt>
      <trkpt lat="37.06131703220307826995849609375" lon="-8.969395458698272705078125">
        <ele>93.40000152587890625</ele>
        <time>2026-04-28T12:32:18.000Z</time>
        <extensions>
          <ns3:TrackPointExtension>
            <ns3:hr>126</ns3:hr>
            <ns3:cad>61</ns3:cad>
          </ns3:TrackPointExtension>
        </extensions>
      </trkpt>
      <trkpt lat="37.06134066917002201080322265625" lon="-8.9693486876785755157470703125">
        <ele>93.1999969482421875</ele>
        <time>2026-04-28T12:32:21.000Z</time>
        <extensions>
          <ns3:TrackPointExtension>
            <ns3:hr>123</ns3:hr>
            <ns3:cad>61</ns3:cad>
          </ns3:TrackPointExtension>
        </extensions>
      </trkpt>
      <trkpt lat="37.061395905911922454833984375" lon="-8.96923176012933254241943359375">
        <ele>93.59999847412109375</ele>
        <time>2026-04-28T12:32:29.000Z</time>
        <extensions>
          <ns3:TrackPointExtension>
            <ns3:hr>126</ns3:hr>
            <ns3:cad>63</ns3:cad>
          </ns3:TrackPointExtension>
        </extensions>
      </trkpt>
      <trkpt lat="37.06140303052961826324462890625" lon="-8.96921801380813121795654296875">
        <ele>93.59999847412109375</ele>
        <time>2026-04-28T12:32:30.000Z</time>
        <extensions>
          <ns3:TrackPointExtension>
            <ns3:hr>126</ns3:hr>
            <ns3:cad>63</ns3:cad>
          </ns3:TrackPointExtension>
        </extensions>
      </trkpt>
      <trkpt lat="37.06142314709722995758056640625" lon="-8.9691572450101375579833984375">
        <ele>93.8000030517578125</ele>
        <time>2026-04-28T12:32:34.000Z</time>
        <extensions>
          <ns3:TrackPointExtension>
            <ns3:hr>129</ns3:hr>
            <ns3:cad>63</ns3:cad>
          </ns3:TrackPointExtension>
        </extensions>
      </trkpt>
      <trkpt lat="37.06143840216100215911865234375" lon="-8.96908926777541637420654296875">
        <ele>93.8000030517578125</ele>
        <time>2026-04-28T12:32:39.000Z</time>
        <extensions>
          <ns3:TrackPointExtension>
            <ns3:hr>129</ns3:hr>
            <ns3:cad>62</ns3:cad>
          </ns3:TrackPointExtension>
        </extensions>
      </trkpt>
      <trkpt lat="37.06146019510924816131591796875" lon="-8.96894811652600765228271484375">
        <ele>94</ele>
        <time>2026-04-28T12:32:48.000Z</time>
        <extensions>
          <ns3:TrackPointExtension>
            <ns3:hr>131</ns3:hr>
            <ns3:cad>59</ns3:cad>
          </ns3:TrackPointExtension>
        </extensions>
      </trkpt>
      <trkpt lat="37.0614741928875446319580078125" lon="-8.96884233690798282623291015625">
        <ele>94.40000152587890625</ele>
        <time>2026-04-28T12:32:54.000Z</time>
        <extensions>
          <ns3:TrackPointExtension>
            <ns3:hr>128</ns3:hr>
            <ns3:cad>59</ns3:cad>
          </ns3:TrackPointExtension>
        </extensions>
      </trkpt>
      <trkpt lat="37.0614780485630035400390625" lon="-8.9688068814575672149658203125">
        <ele>94.40000152587890625</ele>
        <time>2026-04-28T12:32:56.000Z</time>
        <extensions>
          <ns3:TrackPointExtension>
            <ns3:hr>128</ns3:hr>
            <ns3:cad>64</ns3:cad>
          </ns3:TrackPointExtension>
        </extensions>
      </trkpt>
      <trkpt lat="37.061492465436458587646484375" lon="-8.96870152093470096588134765625">
        <ele>94.59999847412109375</ele>
        <time>2026-04-28T12:33:02.000Z</time>
        <extensions>
          <ns3:TrackPointExtension>
            <ns3:hr>125</ns3:hr>
            <ns3:cad>61</ns3:cad>
          </ns3:TrackPointExtension>
        </extensions>
      </trkpt>
      <trkpt lat="37.0615120790898799896240234375" lon="-8.968654163181781768798828125">
        <ele>95</ele>
        <time>2026-04-28T12:33:05.000Z</time>
        <extensions>
          <ns3:TrackPointExtension>
            <ns3:hr>126</ns3:hr>
            <ns3:cad>64</ns3:cad>
          </ns3:TrackPointExtension>
        </extensions>
      </trkpt>
      <trkpt lat="37.061517946422100067138671875" lon="-8.9686389081180095672607421875">
        <ele>95</ele>
        <time>2026-04-28T12:33:06.000Z</time>
        <extensions>
          <ns3:TrackPointExtension>
            <ns3:hr>125</ns3:hr>
            <ns3:cad>64</ns3:cad>
          </ns3:TrackPointExtension>
        </extensions>
      </trkpt>
      <trkpt lat="37.061549462378025054931640625" lon="-8.9684427715837955474853515625">
        <ele>95.40000152587890625</ele>
        <time>2026-04-28T12:33:18.000Z</time>
        <extensions>
          <ns3:TrackPointExtension>
            <ns3:hr>128</ns3:hr>
            <ns3:cad>62</ns3:cad>
          </ns3:TrackPointExtension>
        </extensions>
      </trkpt>
      <trkpt lat="37.0615653879940509796142578125" lon="-8.96837647072970867156982421875">
        <ele>95.1999969482421875</ele>
        <time>2026-04-28T12:33:22.000Z</time>
        <extensions>
          <ns3:TrackPointExtension>
            <ns3:hr>132</ns3:hr>
            <ns3:cad>64</ns3:cad>
          </ns3:TrackPointExtension>
        </extensions>
      </trkpt>
      <trkpt lat="37.061592377722263336181640625" lon="-8.96825526840984821319580078125">
        <ele>95.8000030517578125</ele>
        <time>2026-04-28T12:33:29.000Z</time>
        <extensions>
          <ns3:TrackPointExtension>
            <ns3:hr>131</ns3:hr>
            <ns3:cad>62</ns3:cad>
          </ns3:TrackPointExtension>
        </extensions>
      </trkpt>
      <trkpt lat="37.0616461895406246185302734375" lon="-8.968106992542743682861328125">
        <ele>96</ele>
        <time>2026-04-28T12:33:39.000Z</time>
        <extensions>
          <ns3:TrackPointExtension>
            <ns3:hr>131</ns3:hr>
            <ns3:cad>63</ns3:cad>
          </ns3:TrackPointExtension>
        </extensions>
      </trkpt>
      <trkpt lat="37.06169472075998783111572265625" lon="-8.9679901488125324249267578125">
        <ele>96.1999969482421875</ele>
        <time>2026-04-28T12:33:46.000Z</time>
        <extensions>
          <ns3:TrackPointExtension>
            <ns3:hr>128</ns3:hr>
            <ns3:cad>62</ns3:cad>
          </ns3:TrackPointExtension>
        </extensions>
      </trkpt>
      <trkpt lat="37.0617347024381160736083984375" lon="-8.9679210819303989410400390625">
        <ele>96.40000152587890625</ele>
        <time>2026-04-28T12:33:51.000Z</time>
        <extensions>
          <ns3:TrackPointExtension>
            <ns3:hr>127</ns3:hr>
            <ns3:cad>64</ns3:cad>
          </ns3:TrackPointExtension>
        </extensions>
      </trkpt>
      <trkpt lat="37.06182539463043212890625" lon="-8.9677759073674678802490234375">
        <ele>96.40000152587890625</ele>
        <time>2026-04-28T12:34:02.000Z</time>
        <extensions>
          <ns3:TrackPointExtension>
            <ns3:hr>127</ns3:hr>
            <ns3:cad>62</ns3:cad>
          </ns3:TrackPointExtension>
        </extensions>
      </trkpt>
      <trkpt lat="37.06189186312258243560791015625" lon="-8.96765847690403461456298828125">
        <ele>96.59999847412109375</ele>
        <time>2026-04-28T12:34:11.000Z</time>
        <extensions>
          <ns3:TrackPointExtension>
            <ns3:hr>127</ns3:hr>
            <ns3:cad>0</ns3:cad>
          </ns3:TrackPointExtension>
        </extensions>
      </trkpt>
      <trkpt lat="37.06196176819503307342529296875" lon="-8.967511542141437530517578125">
        <ele>97</ele>
        <time>2026-04-28T12:34:21.000Z</time>
        <extensions>
          <ns3:TrackPointExtension>
            <ns3:hr>129</ns3:hr>
            <ns3:cad>64</ns3:cad>
          </ns3:TrackPointExtension>
        </extensions>
      </trkpt>
      <trkpt lat="37.06201574765145778656005859375" lon="-8.967355974018573760986328125">
        <ele>97</ele>
        <time>2026-04-28T12:34:31.000Z</time>
        <extensions>
          <ns3:TrackPointExtension>
            <ns3:hr>129</ns3:hr>
            <ns3:cad>63</ns3:cad>
          </ns3:TrackPointExtension>
        </extensions>
      </trkpt>
      <trkpt lat="37.06209001131355762481689453125" lon="-8.9671683870255947113037109375">
        <ele>96.8000030517578125</ele>
        <time>2026-04-28T12:34:43.000Z</time>
        <extensions>
          <ns3:TrackPointExtension>
            <ns3:hr>129</ns3:hr>
            <ns3:cad>62</ns3:cad>
          </ns3:TrackPointExtension>
        </extensions>
      </trkpt>
      <trkpt lat="37.06212873570621013641357421875" lon="-8.96707710810005664825439453125">
        <ele>97.1999969482421875</ele>
        <time>2026-04-28T12:34:49.000Z</time>
        <extensions>
          <ns3:TrackPointExtension>
            <ns3:hr>129</ns3:hr>
            <ns3:cad>64</ns3:cad>
          </ns3:TrackPointExtension>
        </extensions>
      </trkpt>
      <trkpt lat="37.0621806196868419647216796875" lon="-8.9669554866850376129150390625">
        <ele>97.1999969482421875</ele>
        <time>2026-04-28T12:34:57.000Z</time>
        <extensions>
          <ns3:TrackPointExtension>
            <ns3:hr>130</ns3:hr>
            <ns3:cad>62</ns3:cad>
          </ns3:TrackPointExtension>
        </extensions>
      </trkpt>
      <trkpt lat="37.06225211732089519500732421875" lon="-8.96675054915249347686767578125">
        <ele>97.8000030517578125</ele>
        <time>2026-04-28T12:35:10.000Z</time>
        <extensions>
          <ns3:TrackPointExtension>
            <ns3:hr>131</ns3:hr>
            <ns3:cad>62</ns3:cad>
          </ns3:TrackPointExtension>
        </extensions>
      </trkpt>
      <trkpt lat="37.06231732852756977081298828125" lon="-8.9665769599378108978271484375">
        <ele>97.59999847412109375</ele>
        <time>2026-04-28T12:35:21.000Z</time>
        <extensions>
          <ns3:TrackPointExtension>
            <ns3:hr>130</ns3:hr>
            <ns3:cad>63</ns3:cad>
          </ns3:TrackPointExtension>
        </extensions>
      </trkpt>
      <trkpt lat="37.0623653568327426910400390625" lon="-8.9664643071591854095458984375">
        <ele>97.40000152587890625</ele>
        <time>2026-04-28T12:35:31.000Z</time>
        <extensions>
          <ns3:TrackPointExtension>
            <ns3:hr>131</ns3:hr>
            <ns3:cad>0</ns3:cad>
          </ns3:TrackPointExtension>
        </extensions>
      </trkpt>
      <trkpt lat="37.062377594411373138427734375" lon="-8.9664348028600215911865234375">
        <ele>97.8000030517578125</ele>
        <time>2026-04-28T12:35:42.000Z</time>
        <extensions>
          <ns3:TrackPointExtension>
            <ns3:hr>131</ns3:hr>
            <ns3:cad>0</ns3:cad>
          </ns3:TrackPointExtension>
        </extensions>
      </trkpt>
      <trkpt lat="37.06244565546512603759765625" lon="-8.96629708819091320037841796875">
        <ele>97.8000030517578125</ele>
        <time>2026-04-28T12:35:51.000Z</time>
        <extensions>
          <ns3:TrackPointExtension>
            <ns3:hr>130</ns3:hr>
            <ns3:cad>60</ns3:cad>
          </ns3:TrackPointExtension>
        </extensions>
      </trkpt>
      <trkpt lat="37.0624706335365772247314453125" lon="-8.9662567712366580963134765625">
        <ele>98.1999969482421875</ele>
        <time>2026-04-28T12:35:54.000Z</time>
        <extensions>
          <ns3:TrackPointExtension>
            <ns3:hr>130</ns3:hr>
            <ns3:cad>64</ns3:cad>
          </ns3:TrackPointExtension>
        </extensions>
      </trkpt>
      <trkpt lat="37.06249259412288665771484375" lon="-8.966214358806610107421875">
        <ele>98.1999969482421875</ele>
        <time>2026-04-28T12:35:57.000Z</time>
        <extensions>
          <ns3:TrackPointExtension>
            <ns3:hr>127</ns3:hr>
            <ns3:cad>63</ns3:cad>
          </ns3:TrackPointExtension>
        </extensions>
      </trkpt>
      <trkpt lat="37.062499634921550750732421875" lon="-8.96620052866637706756591796875">
        <ele>98.1999969482421875</ele>
        <time>2026-04-28T12:35:58.000Z</time>
        <extensions>
          <ns3:TrackPointExtension>
            <ns3:hr>124</ns3:hr>
            <ns3:cad>63</ns3:cad>
          </ns3:TrackPointExtension>
        </extensions>
      </trkpt>
      <trkpt lat="37.0625142194330692291259765625" lon="-8.96617135964334011077880859375">
        <ele>98.1999969482421875</ele>
        <time>2026-04-28T12:36:00.000Z</time>
        <extensions>
          <ns3:TrackPointExtension>
            <ns3:hr>127</ns3:hr>
            <ns3:cad>63</ns3:cad>
          </ns3:TrackPointExtension>
        </extensions>
      </trkpt>
      <trkpt lat="37.062529809772968292236328125" lon="-8.966139592230319976806640625">
        <ele>98.1999969482421875</ele>
        <time>2026-04-28T12:36:02.000Z</time>
        <extensions>
          <ns3:TrackPointExtension>
            <ns3:hr>132</ns3:hr>
            <ns3:cad>63</ns3:cad>
          </ns3:TrackPointExtension>
        </extensions>
      </trkpt>
      <trkpt lat="37.06256928853690624237060546875" lon="-8.96606625057756900787353515625">
        <ele>98.40000152587890625</ele>
        <time>2026-04-28T12:36:07.000Z</time>
        <extensions>
          <ns3:TrackPointExtension>
            <ns3:hr>128</ns3:hr>
            <ns3:cad>62</ns3:cad>
          </ns3:TrackPointExtension>
        </extensions>
      </trkpt>
      <trkpt lat="37.06257398240268230438232421875" lon="-8.9660535939037799835205078125">
        <ele>98.40000152587890625</ele>
        <time>2026-04-28T12:36:08.000Z</time>
        <extensions>
          <ns3:TrackPointExtension>
            <ns3:hr>124</ns3:hr>
            <ns3:cad>62</ns3:cad>
          </ns3:TrackPointExtension>
        </extensions>
      </trkpt>
      <trkpt lat="37.06257850863039493560791015625" lon="-8.966038338840007781982421875">
        <ele>98.40000152587890625</ele>
        <time>2026-04-28T12:36:09.000Z</time>
        <extensions>
          <ns3:TrackPointExtension>
            <ns3:hr>124</ns3:hr>
            <ns3:cad>63</ns3:cad>
          </ns3:TrackPointExtension>
        </extensions>
      </trkpt>
      <trkpt lat="37.0625829510390758514404296875" lon="-8.966020904481410980224609375">
        <ele>98.40000152587890625</ele>
        <time>2026-04-28T12:36:10.000Z</time>
        <extensions>
          <ns3:TrackPointExtension>
            <ns3:hr>124</ns3:hr>
            <ns3:cad>63</ns3:cad>
          </ns3:TrackPointExtension>
        </extensions>
      </trkpt>
      <trkpt lat="37.0626406185328960418701171875" lon="-8.96588821895420551300048828125">
        <ele>98.59999847412109375</ele>
        <time>2026-04-28T12:36:18.000Z</time>
        <extensions>
          <ns3:TrackPointExtension>
            <ns3:hr>127</ns3:hr>
            <ns3:cad>62</ns3:cad>
          </ns3:TrackPointExtension>
        </extensions>
      </trkpt>
      <trkpt lat="37.0626459829509258270263671875" lon="-8.9658732153475284576416015625">
        <ele>98.59999847412109375</ele>
        <time>2026-04-28T12:36:19.000Z</time>
        <extensions>
          <ns3:TrackPointExtension>
            <ns3:hr>131</ns3:hr>
            <ns3:cad>62</ns3:cad>
          </ns3:TrackPointExtension>
        </extensions>
      </trkpt>
      <trkpt lat="37.0626513473689556121826171875" lon="-8.96585888229310512542724609375">
        <ele>98.59999847412109375</ele>
        <time>2026-04-28T12:36:20.000Z</time>
        <extensions>
          <ns3:TrackPointExtension>
            <ns3:hr>131</ns3:hr>
            <ns3:cad>62</ns3:cad>
          </ns3:TrackPointExtension>
        </extensions>
      </trkpt>
      <trkpt lat="37.0626992918550968170166015625" lon="-8.96575343795120716094970703125">
        <ele>98.8000030517578125</ele>
        <time>2026-04-28T12:36:27.000Z</time>
        <extensions>
          <ns3:TrackPointExtension>
            <ns3:hr>132</ns3:hr>
            <ns3:cad>64</ns3:cad>
          </ns3:TrackPointExtension>
        </extensions>
      </trkpt>
      <trkpt lat="37.0627914927899837493896484375" lon="-8.9655580557882785797119140625">
        <ele>98.59999847412109375</ele>
        <time>2026-04-28T12:36:40.000Z</time>
        <extensions>
          <ns3:TrackPointExtension>
            <ns3:hr>130</ns3:hr>
            <ns3:cad>63</ns3:cad>
          </ns3:TrackPointExtension>
        </extensions>
      </trkpt>
      <trkpt lat="37.06279727630317211151123046875" lon="-8.96554338745772838592529296875">
        <ele>98.59999847412109375</ele>
        <time>2026-04-28T12:36:41.000Z</time>
        <extensions>
          <ns3:TrackPointExtension>
            <ns3:hr>129</ns3:hr>
            <ns3:cad>62</ns3:cad>
          </ns3:TrackPointExtension>
        </extensions>
      </trkpt>
      <trkpt lat="37.06286148168146610260009765625" lon="-8.965398967266082763671875">
        <ele>98.8000030517578125</ele>
        <time>2026-04-28T12:36:51.000Z</time>
        <extensions>
          <ns3:TrackPointExtension>
            <ns3:hr>131</ns3:hr>
            <ns3:cad>62</ns3:cad>
          </ns3:TrackPointExtension>
        </extensions>
      </trkpt>
      <trkpt lat="37.0628907345235347747802734375" lon="-8.9653361029922962188720703125">
        <ele>99.1999969482421875</ele>
        <time>2026-04-28T12:36:55.000Z</time>
        <extensions>
          <ns3:TrackPointExtension>
            <ns3:hr>132</ns3:hr>
            <ns3:cad>62</ns3:cad>
          </ns3:TrackPointExtension>
        </extensions>
      </trkpt>
      <trkpt lat="37.06294454634189605712890625" lon="-8.96522931754589080810546875">
        <ele>99</ele>
        <time>2026-04-28T12:37:02.000Z</time>
        <extensions>
          <ns3:TrackPointExtension>
            <ns3:hr>131</ns3:hr>
            <ns3:cad>64</ns3:cad>
          </ns3:TrackPointExtension>
        </extensions>
      </trkpt>
      <trkpt lat="37.06300548277795314788818359375" lon="-8.9651114679872989654541015625">
        <ele>99.40000152587890625</ele>
        <time>2026-04-28T12:37:10.000Z</time>
        <extensions>
          <ns3:TrackPointExtension>
            <ns3:hr>128</ns3:hr>
            <ns3:cad>62</ns3:cad>
          </ns3:TrackPointExtension>
        </extensions>
      </trkpt>
      <trkpt lat="37.0630444586277008056640625" lon="-8.96503276191651821136474609375">
        <ele>99.59999847412109375</ele>
        <time>2026-04-28T12:37:15.000Z</time>
        <extensions>
          <ns3:TrackPointExtension>
            <ns3:hr>129</ns3:hr>
            <ns3:cad>62</ns3:cad>
          </ns3:TrackPointExtension>
        </extensions>
      </trkpt>
      <trkpt lat="37.0631368272006511688232421875" lon="-8.9648442529141902923583984375">
        <ele>100</ele>
        <time>2026-04-28T12:37:28.000Z</time>
        <extensions>
          <ns3:TrackPointExtension>
            <ns3:hr>128</ns3:hr>
            <ns3:cad>61</ns3:cad>
          </ns3:TrackPointExtension>
        </extensions>
      </trkpt>
      <trkpt lat="37.063200362026691436767578125" lon="-8.964716680347919464111328125">
        <ele>100.1999969482421875</ele>
        <time>2026-04-28T12:37:37.000Z</time>
        <extensions>
          <ns3:TrackPointExtension>
            <ns3:hr>128</ns3:hr>
            <ns3:cad>63</ns3:cad>
          </ns3:TrackPointExtension>
        </extensions>
      </trkpt>
      <trkpt lat="37.06322274170815944671630859375" lon="-8.964665047824382781982421875">
        <ele>100.1999969482421875</ele>
        <time>2026-04-28T12:37:40.000Z</time>
        <extensions>
          <ns3:TrackPointExtension>
            <ns3:hr>128</ns3:hr>
            <ns3:cad>62</ns3:cad>
          </ns3:TrackPointExtension>
        </extensions>
      </trkpt>
      <trkpt lat="37.0632997713983058929443359375" lon="-8.9645124971866607666015625">
        <ele>100.1999969482421875</ele>
        <time>2026-04-28T12:37:50.000Z</time>
        <extensions>
          <ns3:TrackPointExtension>
            <ns3:hr>128</ns3:hr>
            <ns3:cad>0</ns3:cad>
          </ns3:TrackPointExtension>
        </extensions>
      </trkpt>
      <trkpt lat="37.06334746442735195159912109375" lon="-8.9644016884267330169677734375">
        <ele>100.1999969482421875</ele>
        <time>2026-04-28T12:37:57.000Z</time>
        <extensions>
          <ns3:TrackPointExtension>
            <ns3:hr>129</ns3:hr>
            <ns3:cad>62</ns3:cad>
          </ns3:TrackPointExtension>
        </extensions>
      </trkpt>
      <trkpt lat="37.06339071504771709442138671875" lon="-8.96427822299301624298095703125">
        <ele>99.8000030517578125</ele>
        <time>2026-04-28T12:38:04.000Z</time>
        <extensions>
          <ns3:TrackPointExtension>
            <ns3:hr>129</ns3:hr>
            <ns3:cad>61</ns3:cad>
          </ns3:TrackPointExtension>
        </extensions>
      </trkpt>
      <trkpt lat="37.0634308643639087677001953125" lon="-8.9641857706010341644287109375">
        <ele>100.1999969482421875</ele>
        <time>2026-04-28T12:38:11.000Z</time>
        <extensions>
          <ns3:TrackPointExtension>
            <ns3:hr>129</ns3:hr>
            <ns3:cad>63</ns3:cad>
          </ns3:TrackPointExtension>
        </extensions>
      </trkpt>
      <trkpt lat="37.063520886003971099853515625" lon="-8.96400145255029201507568359375">
        <ele>100.40000152587890625</ele>
        <time>2026-04-28T12:38:23.000Z</time>
        <extensions>
          <ns3:TrackPointExtension>
            <ns3:hr>127</ns3:hr>
            <ns3:cad>63</ns3:cad>
          </ns3:TrackPointExtension>
        </extensions>
      </trkpt>
      <trkpt lat="37.06364233978092670440673828125" lon="-8.963851667940616607666015625">
        <ele>100.40000152587890625</ele>
        <time>2026-04-28T12:38:35.000Z</time>
        <extensions>
          <ns3:TrackPointExtension>
            <ns3:hr>128</ns3:hr>
            <ns3:cad>64</ns3:cad>
          </ns3:TrackPointExtension>
        </extensions>
      </trkpt>
      <trkpt lat="37.063709981739521026611328125" lon="-8.963729627430438995361328125">
        <ele>100.59999847412109375</ele>
        <time>2026-04-28T12:38:44.000Z</time>
        <extensions>
          <ns3:TrackPointExtension>
            <ns3:hr>127</ns3:hr>
            <ns3:cad>0</ns3:cad>
          </ns3:TrackPointExtension>
        </extensions>
      </trkpt>
      <trkpt lat="37.06374057568609714508056640625" lon="-8.96358604542911052703857421875">
        <ele>101</ele>
        <time>2026-04-28T12:38:52.000Z</time>
        <extensions>
          <ns3:TrackPointExtension>
            <ns3:hr>125</ns3:hr>
            <ns3:cad>64</ns3:cad>
          </ns3:TrackPointExtension>
        </extensions>
      </trkpt>
      <trkpt lat="37.0637165196239948272705078125" lon="-8.96345193497836589813232421875">
        <ele>100.8000030517578125</ele>
        <time>2026-04-28T12:39:00.000Z</time>
        <extensions>
          <ns3:TrackPointExtension>
            <ns3:hr>128</ns3:hr>
            <ns3:cad>62</ns3:cad>
          </ns3:TrackPointExtension>
        </extensions>
      </trkpt>
      <trkpt lat="37.0637101493775844573974609375" lon="-8.96343802101910114288330078125">
        <ele>100.8000030517578125</ele>
        <time>2026-04-28T12:39:01.000Z</time>
        <extensions>
          <ns3:TrackPointExtension>
            <ns3:hr>129</ns3:hr>
            <ns3:cad>0</ns3:cad>
          </ns3:TrackPointExtension>
        </extensions>
      </trkpt>
      <trkpt lat="37.0636357180774211883544921875" lon="-8.9633274637162685394287109375">
        <ele>101</ele>
        <time>2026-04-28T12:39:11.000Z</time>
        <extensions>
          <ns3:TrackPointExtension>
            <ns3:hr>131</ns3:hr>
            <ns3:cad>0</ns3:cad>
          </ns3:TrackPointExtension>
        </extensions>
      </trkpt>
      <trkpt lat="37.0636045373976230621337890625" lon="-8.96329737268388271331787109375">
        <ele>101.1999969482421875</ele>
        <time>2026-04-28T12:39:15.000Z</time>
        <extensions>
          <ns3:TrackPointExtension>
            <ns3:hr>131</ns3:hr>
            <ns3:cad>0</ns3:cad>
          </ns3:TrackPointExtension>
        </extensions>
      </trkpt>
      <trkpt lat="37.0635740272700786590576171875" lon="-8.9632714726030826568603515625">
        <ele>101</ele>
        <time>2026-04-28T12:39:18.000Z</time>
        <extensions>
          <ns3:TrackPointExtension>
            <ns3:hr>130</ns3:hr>
            <ns3:cad>55</ns3:cad>
          </ns3:TrackPointExtension>
        </extensions>
      </trkpt>
      <trkpt lat="37.063480652868747711181640625" lon="-8.96317918784916400909423828125">
        <ele>101.1999969482421875</ele>
        <time>2026-04-28T12:39:26.000Z</time>
        <extensions>
          <ns3:TrackPointExtension>
            <ns3:hr>128</ns3:hr>
            <ns3:cad>63</ns3:cad>
          </ns3:TrackPointExtension>
        </extensions>
      </trkpt>
      <trkpt lat="37.0634586922824382781982421875" lon="-8.9631593227386474609375">
        <ele>101.1999969482421875</ele>
        <time>2026-04-28T12:39:28.000Z</time>
        <extensions>
          <ns3:TrackPointExtension>
            <ns3:hr>125</ns3:hr>
            <ns3:cad>63</ns3:cad>
          </ns3:TrackPointExtension>
        </extensions>
      </trkpt>
      <trkpt lat="37.06332248635590076446533203125" lon="-8.96304256282746791839599609375">
        <ele>101</ele>
        <time>2026-04-28T12:39:39.000Z</time>
        <extensions>
          <ns3:TrackPointExtension>
            <ns3:hr>124</ns3:hr>
            <ns3:cad>63</ns3:cad>
          </ns3:TrackPointExtension>
        </extensions>
      </trkpt>
      <trkpt lat="37.06317253410816192626953125" lon="-8.96291364915668964385986328125">
        <ele>100.59999847412109375</ele>
        <time>2026-04-28T12:39:52.000Z</time>
        <extensions>
          <ns3:TrackPointExtension>
            <ns3:hr>125</ns3:hr>
            <ns3:cad>62</ns3:cad>
          </ns3:TrackPointExtension>
        </extensions>
      </trkpt>
      <trkpt lat="37.06314747221767902374267578125" lon="-8.96288062445819377899169921875">
        <ele>100.59999847412109375</ele>
        <time>2026-04-28T12:39:55.000Z</time>
        <extensions>
          <ns3:TrackPointExtension>
            <ns3:hr>122</ns3:hr>
            <ns3:cad>63</ns3:cad>
          </ns3:TrackPointExtension>
        </extensions>
      </trkpt>
      <trkpt lat="37.06314361654222011566162109375" lon="-8.96287257783114910125732421875">
        <ele>100.59999847412109375</ele>
        <time>2026-04-28T12:39:58.000Z</time>
        <extensions>
          <ns3:TrackPointExtension>
            <ns3:hr>120</ns3:hr>
            <ns3:cad>0</ns3:cad>
          </ns3:TrackPointExtension>
        </extensions>
      </trkpt>
      <trkpt lat="37.06313674338161945343017578125" lon="-8.96286486648023128509521484375">
        <ele>100.59999847412109375</ele>
        <time>2026-04-28T12:40:02.000Z</time>
        <extensions>
          <ns3:TrackPointExtension>
            <ns3:hr>123</ns3:hr>
            <ns3:cad>0</ns3:cad>
          </ns3:TrackPointExtension>
        </extensions>
      </trkpt>
      <trkpt lat="37.06309475004673004150390625" lon="-8.96280870772898197174072265625">
        <ele>100.59999847412109375</ele>
        <time>2026-04-28T12:40:06.000Z</time>
        <extensions>
          <ns3:TrackPointExtension>
            <ns3:hr>125</ns3:hr>
            <ns3:cad>0</ns3:cad>
          </ns3:TrackPointExtension>
        </extensions>
      </trkpt>
      <trkpt lat="37.06301964819431304931640625" lon="-8.9627085439860820770263671875">
        <ele>101</ele>
        <time>2026-04-28T12:40:14.000Z</time>
        <extensions>
          <ns3:TrackPointExtension>
            <ns3:hr>122</ns3:hr>
            <ns3:cad>62</ns3:cad>
          </ns3:TrackPointExtension>
        </extensions>
      </trkpt>
      <trkpt lat="37.06299575977027416229248046875" lon="-8.9626860804855823516845703125">
        <ele>100.8000030517578125</ele>
        <time>2026-04-28T12:40:16.000Z</time>
        <extensions>
          <ns3:TrackPointExtension>
            <ns3:hr>120</ns3:hr>
            <ns3:cad>61</ns3:cad>
          </ns3:TrackPointExtension>
        </extensions>
      </trkpt>
      <trkpt lat="37.06297866068780422210693359375" lon="-8.96263754926621913909912109375">
        <ele>101</ele>
        <time>2026-04-28T12:40:19.000Z</time>
        <extensions>
          <ns3:TrackPointExtension>
            <ns3:hr>117</ns3:hr>
            <ns3:cad>64</ns3:cad>
          </ns3:TrackPointExtension>
        </extensions>
      </trkpt>
      <trkpt lat="37.06296022050082683563232421875" lon="-8.9625472761690616607666015625">
        <ele>100.8000030517578125</ele>
        <time>2026-04-28T12:40:24.000Z</time>
        <extensions>
          <ns3:TrackPointExtension>
            <ns3:hr>118</ns3:hr>
            <ns3:cad>63</ns3:cad>
          </ns3:TrackPointExtension>
        </extensions>
      </trkpt>
      <trkpt lat="37.062947563827037811279296875" lon="-8.9623933844268321990966796875">
        <ele>100.40000152587890625</ele>
        <time>2026-04-28T12:40:33.000Z</time>
        <extensions>
          <ns3:TrackPointExtension>
            <ns3:hr>119</ns3:hr>
            <ns3:cad>61</ns3:cad>
          </ns3:TrackPointExtension>
        </extensions>
      </trkpt>
      <trkpt lat="37.06296424381434917449951171875" lon="-8.96223463118076324462890625">
        <ele>100.59999847412109375</ele>
        <time>2026-04-28T12:40:43.000Z</time>
        <extensions>
          <ns3:TrackPointExtension>
            <ns3:hr>119</ns3:hr>
            <ns3:cad>62</ns3:cad>
          </ns3:TrackPointExtension>
        </extensions>
      </trkpt>
      <trkpt lat="37.0629986934363842010498046875" lon="-8.96211753599345684051513671875">
        <ele>100.59999847412109375</ele>
        <time>2026-04-28T12:40:50.000Z</time>
        <extensions>
          <ns3:TrackPointExtension>
            <ns3:hr>116</ns3:hr>
            <ns3:cad>62</ns3:cad>
          </ns3:TrackPointExtension>
        </extensions>
      </trkpt>
      <trkpt lat="37.0630110986530780792236328125" lon="-8.96208166144788265228271484375">
        <ele>100.59999847412109375</ele>
        <time>2026-04-28T12:40:52.000Z</time>
        <extensions>
          <ns3:TrackPointExtension>
            <ns3:hr>116</ns3:hr>
            <ns3:cad>63</ns3:cad>
          </ns3:TrackPointExtension>
        </extensions>
      </trkpt>
      <trkpt lat="37.06306164152920246124267578125" lon="-8.9619300328195095062255859375">
        <ele>100.40000152587890625</ele>
        <time>2026-04-28T12:41:02.000Z</time>
        <extensions>
          <ns3:TrackPointExtension>
            <ns3:hr>116</ns3:hr>
            <ns3:cad>63</ns3:cad>
          </ns3:TrackPointExtension>
        </extensions>
      </trkpt>
      <trkpt lat="37.06310137175023555755615234375" lon="-8.96179835312068462371826171875">
        <ele>100.40000152587890625</ele>
        <time>2026-04-28T12:41:10.000Z</time>
        <extensions>
          <ns3:TrackPointExtension>
            <ns3:hr>118</ns3:hr>
            <ns3:cad>62</ns3:cad>
          </ns3:TrackPointExtension>
        </extensions>
      </trkpt>
      <trkpt lat="37.0631364919245243072509765625" lon="-8.9617010392248630523681640625">
        <ele>100.1999969482421875</ele>
        <time>2026-04-28T12:41:16.000Z</time>
        <extensions>
          <ns3:TrackPointExtension>
            <ns3:hr>118</ns3:hr>
            <ns3:cad>62</ns3:cad>
          </ns3:TrackPointExtension>
        </extensions>
      </trkpt>
      <trkpt lat="37.063173539936542510986328125" lon="-8.96157388575375080108642578125">
        <ele>100.1999969482421875</ele>
        <time>2026-04-28T12:41:24.000Z</time>
        <extensions>
          <ns3:TrackPointExtension>
            <ns3:hr>118</ns3:hr>
            <ns3:cad>62</ns3:cad>
          </ns3:TrackPointExtension>
        </extensions>
      </trkpt>
      <trkpt lat="37.0632105879485607147216796875" lon="-8.9613563753664493560791015625">
        <ele>99.8000030517578125</ele>
        <time>2026-04-28T12:41:36.000Z</time>
        <extensions>
          <ns3:TrackPointExtension>
            <ns3:hr>117</ns3:hr>
            <ns3:cad>63</ns3:cad>
          </ns3:TrackPointExtension>
        </extensions>
      </trkpt>
      <trkpt lat="37.06321234814822673797607421875" lon="-8.96123810671269893646240234375">
        <ele>99.8000030517578125</ele>
        <time>2026-04-28T12:41:43.000Z</time>
        <extensions>
          <ns3:TrackPointExtension>
            <ns3:hr>121</ns3:hr>
            <ns3:cad>61</ns3:cad>
          </ns3:TrackPointExtension>
        </extensions>
      </trkpt>
      <trkpt lat="37.063209079205989837646484375" lon="-8.961183540523052215576171875">
        <ele>100</ele>
        <time>2026-04-28T12:41:46.000Z</time>
        <extensions>
          <ns3:TrackPointExtension>
            <ns3:hr>123</ns3:hr>
            <ns3:cad>61</ns3:cad>
          </ns3:TrackPointExtension>
        </extensions>
      </trkpt>
      <trkpt lat="37.06319994293153285980224609375" lon="-8.9610660262405872344970703125">
        <ele>100.40000152587890625</ele>
        <time>2026-04-28T12:41:53.000Z</time>
        <extensions>
          <ns3:TrackPointExtension>
            <ns3:hr>126</ns3:hr>
            <ns3:cad>62</ns3:cad>
          </ns3:TrackPointExtension>
        </extensions>
      </trkpt>
      <trkpt lat="37.063190974295139312744140625" lon="-8.960969634354114532470703125">
        <ele>100.59999847412109375</ele>
        <time>2026-04-28T12:41:59.000Z</time>
        <extensions>
          <ns3:TrackPointExtension>
            <ns3:hr>128</ns3:hr>
            <ns3:cad>62</ns3:cad>
          </ns3:TrackPointExtension>
        </extensions>
      </trkpt>
      <trkpt lat="37.06319005228579044342041015625" lon="-8.960840217769145965576171875">
        <ele>100.8000030517578125</ele>
        <time>2026-04-28T12:42:07.000Z</time>
        <extensions>
          <ns3:TrackPointExtension>
            <ns3:hr>130</ns3:hr>
            <ns3:cad>62</ns3:cad>
          </ns3:TrackPointExtension>
        </extensions>
      </trkpt>
      <trkpt lat="37.06318770535290241241455078125" lon="-8.9607287384569644927978515625">
        <ele>101</ele>
        <time>2026-04-28T12:42:14.000Z</time>
        <extensions>
          <ns3:TrackPointExtension>
            <ns3:hr>131</ns3:hr>
            <ns3:cad>62</ns3:cad>
          </ns3:TrackPointExtension>
        </extensions>
      </trkpt>
      <trkpt lat="37.0631750486791133880615234375" lon="-8.9606486074626445770263671875">
        <ele>101.1999969482421875</ele>
        <time>2026-04-28T12:42:19.000Z</time>
        <extensions>
          <ns3:TrackPointExtension>
            <ns3:hr>130</ns3:hr>
            <ns3:cad>60</ns3:cad>
          </ns3:TrackPointExtension>
        </extensions>
      </trkpt>
      <trkpt lat="37.063154093921184539794921875" lon="-8.96049161441624164581298828125">
        <ele>102.1999969482421875</ele>
        <time>2026-04-28T12:42:29.000Z</time>
        <extensions>
          <ns3:TrackPointExtension>
            <ns3:hr>129</ns3:hr>
            <ns3:cad>59</ns3:cad>
          </ns3:TrackPointExtension>
        </extensions>
      </trkpt>
      <trkpt lat="37.06313406117260456085205078125" lon="-8.96042338572442531585693359375">
        <ele>102.1999969482421875</ele>
        <time>2026-04-28T12:42:33.000Z</time>
        <extensions>
          <ns3:TrackPointExtension>
            <ns3:hr>129</ns3:hr>
            <ns3:cad>60</ns3:cad>
          </ns3:TrackPointExtension>
        </extensions>
      </trkpt>
      <trkpt lat="37.063133306801319122314453125" lon="-8.96037460304796695709228515625">
        <ele>102.40000152587890625</ele>
        <time>2026-04-28T12:42:36.000Z</time>
        <extensions>
          <ns3:TrackPointExtension>
            <ns3:hr>129</ns3:hr>
            <ns3:cad>57</ns3:cad>
          </ns3:TrackPointExtension>
        </extensions>
      </trkpt>
      <trkpt lat="37.06316926516592502593994140625" lon="-8.96023814566433429718017578125">
        <ele>102.59999847412109375</ele>
        <time>2026-04-28T12:42:45.000Z</time>
        <extensions>
          <ns3:TrackPointExtension>
            <ns3:hr>129</ns3:hr>
            <ns3:cad>62</ns3:cad>
          </ns3:TrackPointExtension>
        </extensions>
      </trkpt>
      <trkpt lat="37.06320413388311862945556640625" lon="-8.96017444320023059844970703125">
        <ele>102.8000030517578125</ele>
        <time>2026-04-28T12:42:50.000Z</time>
        <extensions>
          <ns3:TrackPointExtension>
            <ns3:hr>132</ns3:hr>
            <ns3:cad>61</ns3:cad>
          </ns3:TrackPointExtension>
        </extensions>
      </trkpt>
      <trkpt lat="37.063243947923183441162109375" lon="-8.96013203077018260955810546875">
        <ele>103.40000152587890625</ele>
        <time>2026-04-28T12:42:54.000Z</time>
        <extensions>
          <ns3:TrackPointExtension>
            <ns3:hr>133</ns3:hr>
            <ns3:cad>61</ns3:cad>
          </ns3:TrackPointExtension>
        </extensions>
      </trkpt>
      <trkpt lat="37.0632655732333660125732421875" lon="-8.96010822616517543792724609375">
        <ele>103.1999969482421875</ele>
        <time>2026-04-28T12:42:56.000Z</time>
        <extensions>
          <ns3:TrackPointExtension>
            <ns3:hr>132</ns3:hr>
            <ns3:cad>61</ns3:cad>
          </ns3:TrackPointExtension>
        </extensions>
      </trkpt>
      <trkpt lat="37.063305638730525970458984375" lon="-8.96005558781325817108154296875">
        <ele>103.1999969482421875</ele>
        <time>2026-04-28T12:43:00.000Z</time>
        <extensions>
          <ns3:TrackPointExtension>
            <ns3:hr>129</ns3:hr>
            <ns3:cad>61</ns3:cad>
          </ns3:TrackPointExtension>
        </extensions>
      </trkpt>
      <trkpt lat="37.06337034702301025390625" lon="-8.9599849283695220947265625">
        <ele>103.59999847412109375</ele>
        <time>2026-04-28T12:43:06.000Z</time>
        <extensions>
          <ns3:TrackPointExtension>
            <ns3:hr>129</ns3:hr>
            <ns3:cad>61</ns3:cad>
          </ns3:TrackPointExtension>
        </extensions>
      </trkpt>
      <trkpt lat="37.06346397288143634796142578125" lon="-8.9599153585731983184814453125">
        <ele>103.59999847412109375</ele>
        <time>2026-04-28T12:43:16.000Z</time>
        <extensions>
          <ns3:TrackPointExtension>
            <ns3:hr>130</ns3:hr>
            <ns3:cad>53</ns3:cad>
          </ns3:TrackPointExtension>
        </extensions>
      </trkpt>
      <trkpt lat="37.063494734466075897216796875" lon="-8.959848470985889434814453125">
        <ele>104</ele>
        <time>2026-04-28T12:43:23.000Z</time>
        <extensions>
          <ns3:TrackPointExtension>
            <ns3:hr>128</ns3:hr>
            <ns3:cad>0</ns3:cad>
          </ns3:TrackPointExtension>
        </extensions>
      </trkpt>
      <trkpt lat="37.06359791569411754608154296875" lon="-8.9597564376890659332275390625">
        <ele>104</ele>
        <time>2026-04-28T12:43:32.000Z</time>
        <extensions>
          <ns3:TrackPointExtension>
            <ns3:hr>129</ns3:hr>
            <ns3:cad>63</ns3:cad>
          </ns3:TrackPointExtension>
        </extensions>
      </trkpt>
      <trkpt lat="37.06368827261030673980712890625" lon="-8.95967773161828517913818359375">
        <ele>104.40000152587890625</ele>
        <time>2026-04-28T12:43:40.000Z</time>
        <extensions>
          <ns3:TrackPointExtension>
            <ns3:hr>129</ns3:hr>
            <ns3:cad>63</ns3:cad>
          </ns3:TrackPointExtension>
        </extensions>
      </trkpt>
      <trkpt lat="37.06373454071581363677978515625" lon="-8.95963766612112522125244140625">
        <ele>104.1999969482421875</ele>
        <time>2026-04-28T12:43:44.000Z</time>
        <extensions>
          <ns3:TrackPointExtension>
            <ns3:hr>129</ns3:hr>
            <ns3:cad>62</ns3:cad>
          </ns3:TrackPointExtension>
        </extensions>
      </trkpt>
      <trkpt lat="37.0638606883585453033447265625" lon="-8.9595217444002628326416015625">
        <ele>104.8000030517578125</ele>
        <time>2026-04-28T12:43:55.000Z</time>
        <extensions>
          <ns3:TrackPointExtension>
            <ns3:hr>128</ns3:hr>
            <ns3:cad>63</ns3:cad>
          </ns3:TrackPointExtension>
        </extensions>
      </trkpt>
      <trkpt lat="37.0640108920633792877197265625" lon="-8.95939392037689685821533203125">
        <ele>104.8000030517578125</ele>
        <time>2026-04-28T12:44:08.000Z</time>
        <extensions>
          <ns3:TrackPointExtension>
            <ns3:hr>129</ns3:hr>
            <ns3:cad>64</ns3:cad>
          </ns3:TrackPointExtension>
        </extensions>
      </trkpt>
      <trkpt lat="37.06402338109910488128662109375" lon="-8.9593849517405033111572265625">
        <ele>105</ele>
        <time>2026-04-28T12:44:09.000Z</time>
        <extensions>
          <ns3:TrackPointExtension>
            <ns3:hr>130</ns3:hr>
            <ns3:cad>63</ns3:cad>
          </ns3:TrackPointExtension>
        </extensions>
      </trkpt>
      <trkpt lat="37.06405925564467906951904296875" lon="-8.9593554474413394927978515625">
        <ele>105.40000152587890625</ele>
        <time>2026-04-28T12:44:12.000Z</time>
        <extensions>
          <ns3:TrackPointExtension>
            <ns3:hr>130</ns3:hr>
            <ns3:cad>62</ns3:cad>
          </ns3:TrackPointExtension>
        </extensions>
      </trkpt>
      <trkpt lat="37.064172662794589996337890625" lon="-8.959250338375568389892578125">
        <ele>105.1999969482421875</ele>
        <time>2026-04-28T12:44:22.000Z</time>
        <extensions>
          <ns3:TrackPointExtension>
            <ns3:hr>133</ns3:hr>
            <ns3:cad>63</ns3:cad>
          </ns3:TrackPointExtension>
        </extensions>
      </trkpt>
      <trkpt lat="37.06427617929875850677490234375" lon="-8.95917464978992938995361328125">
        <ele>105.40000152587890625</ele>
        <time>2026-04-28T12:44:31.000Z</time>
        <extensions>
          <ns3:TrackPointExtension>
            <ns3:hr>130</ns3:hr>
            <ns3:cad>61</ns3:cad>
          </ns3:TrackPointExtension>
        </extensions>
      </trkpt>
      <trkpt lat="37.064331583678722381591796875" lon="-8.95912192761898040771484375">
        <ele>105.59999847412109375</ele>
        <time>2026-04-28T12:44:36.000Z</time>
        <extensions>
          <ns3:TrackPointExtension>
            <ns3:hr>129</ns3:hr>
            <ns3:cad>63</ns3:cad>
          </ns3:TrackPointExtension>
        </extensions>
      </trkpt>
      <trkpt lat="37.06444524228572845458984375" lon="-8.95903081633150577545166015625">
        <ele>106</ele>
        <time>2026-04-28T12:44:46.000Z</time>
        <extensions>
          <ns3:TrackPointExtension>
            <ns3:hr>131</ns3:hr>
            <ns3:cad>62</ns3:cad>
          </ns3:TrackPointExtension>
        </extensions>
      </trkpt>
      <trkpt lat="37.0645359344780445098876953125" lon="-8.95895428955554962158203125">
        <ele>106</ele>
        <time>2026-04-28T12:44:54.000Z</time>
        <extensions>
          <ns3:TrackPointExtension>
            <ns3:hr>134</ns3:hr>
            <ns3:cad>63</ns3:cad>
          </ns3:TrackPointExtension>
        </extensions>
      </trkpt>
      <trkpt lat="37.0645912550389766693115234375" lon="-8.9589075185358524322509765625">
        <ele>106.59999847412109375</ele>
        <time>2026-04-28T12:44:59.000Z</time>
        <extensions>
          <ns3:TrackPointExtension>
            <ns3:hr>136</ns3:hr>
            <ns3:cad>64</ns3:cad>
          </ns3:TrackPointExtension>
        </extensions>
      </trkpt>
      <trkpt lat="37.06471974961459636688232421875" lon="-8.95880945026874542236328125">
        <ele>107.40000152587890625</ele>
        <time>2026-04-28T12:45:10.000Z</time>
        <extensions>
          <ns3:TrackPointExtension>
            <ns3:hr>139</ns3:hr>
            <ns3:cad>63</ns3:cad>
          </ns3:TrackPointExtension>
        </extensions>
      </trkpt>
      <trkpt lat="37.06473131664097309112548828125" lon="-8.9588009007275104522705078125">
        <ele>107.40000152587890625</ele>
        <time>2026-04-28T12:45:11.000Z</time>
        <extensions>
          <ns3:TrackPointExtension>
            <ns3:hr>140</ns3:hr>
            <ns3:cad>63</ns3:cad>
          </ns3:TrackPointExtension>
        </extensions>
      </trkpt>
      <trkpt lat="37.0647820271551609039306640625" lon="-8.95876075141131877899169921875">
        <ele>107.59999847412109375</ele>
        <time>2026-04-28T12:45:15.000Z</time>
        <extensions>
          <ns3:TrackPointExtension>
            <ns3:hr>139</ns3:hr>
            <ns3:cad>63</ns3:cad>
          </ns3:TrackPointExtension>
        </extensions>
      </trkpt>
      <trkpt lat="37.06486308015882968902587890625" lon="-8.958692438900470733642578125">
        <ele>107.8000030517578125</ele>
        <time>2026-04-28T12:45:22.000Z</time>
        <extensions>
          <ns3:TrackPointExtension>
            <ns3:hr>140</ns3:hr>
            <ns3:cad>62</ns3:cad>
          </ns3:TrackPointExtension>
        </extensions>
      </trkpt>
      <trkpt lat="37.06502635963261127471923828125" lon="-8.958583809435367584228515625">
        <ele>107.8000030517578125</ele>
        <time>2026-04-28T12:45:35.000Z</time>
        <extensions>
          <ns3:TrackPointExtension>
            <ns3:hr>140</ns3:hr>
            <ns3:cad>62</ns3:cad>
          </ns3:TrackPointExtension>
        </extensions>
      </trkpt>
      <trkpt lat="37.06517505459487438201904296875" lon="-8.95849035121500492095947265625">
        <ele>108.40000152587890625</ele>
        <time>2026-04-28T12:45:47.000Z</time>
        <extensions>
          <ns3:TrackPointExtension>
            <ns3:hr>140</ns3:hr>
            <ns3:cad>62</ns3:cad>
          </ns3:TrackPointExtension>
        </extensions>
      </trkpt>
      <trkpt lat="37.06519768573343753814697265625" lon="-8.95847559906542301177978515625">
        <ele>108.59999847412109375</ele>
        <time>2026-04-28T12:45:49.000Z</time>
        <extensions>
          <ns3:TrackPointExtension>
            <ns3:hr>141</ns3:hr>
            <ns3:cad>62</ns3:cad>
          </ns3:TrackPointExtension>
        </extensions>
      </trkpt>
      <trkpt lat="37.0653335563838481903076171875" lon="-8.95838423632085323333740234375">
        <ele>109</ele>
        <time>2026-04-28T12:46:00.000Z</time>
        <extensions>
          <ns3:TrackPointExtension>
            <ns3:hr>138</ns3:hr>
            <ns3:cad>62</ns3:cad>
          </ns3:TrackPointExtension>
        </extensions>
      </trkpt>
      <trkpt lat="37.0654673315584659576416015625" lon="-8.9583139121532440185546875">
        <ele>109</ele>
        <time>2026-04-28T12:46:10.000Z</time>
        <extensions>
          <ns3:TrackPointExtension>
            <ns3:hr>138</ns3:hr>
            <ns3:cad>64</ns3:cad>
          </ns3:TrackPointExtension>
        </extensions>
      </trkpt>
      <trkpt lat="37.0656185410916805267333984375" lon="-8.95825565792620182037353515625">
        <ele>109</ele>
        <time>2026-04-28T12:46:21.000Z</time>
        <extensions>
          <ns3:TrackPointExtension>
            <ns3:hr>135</ns3:hr>
            <ns3:cad>62</ns3:cad>
          </ns3:TrackPointExtension>
        </extensions>
      </trkpt>
      <trkpt lat="37.0656500570476055145263671875" lon="-8.9582468569278717041015625">
        <ele>109</ele>
        <time>2026-04-28T12:46:23.000Z</time>
        <extensions>
          <ns3:TrackPointExtension>
            <ns3:hr>134</ns3:hr>
            <ns3:cad>63</ns3:cad>
          </ns3:TrackPointExtension>
        </extensions>
      </trkpt>
      <trkpt lat="37.06581048667430877685546875" lon="-8.95818407647311687469482421875">
        <ele>109.40000152587890625</ele>
        <time>2026-04-28T12:46:35.000Z</time>
        <extensions>
          <ns3:TrackPointExtension>
            <ns3:hr>133</ns3:hr>
            <ns3:cad>63</ns3:cad>
          </ns3:TrackPointExtension>
        </extensions>
      </trkpt>
      <trkpt lat="37.06591567955911159515380859375" lon="-8.9581207931041717529296875">
        <ele>109.40000152587890625</ele>
        <time>2026-04-28T12:46:43.000Z</time>
        <extensions>
          <ns3:TrackPointExtension>
            <ns3:hr>130</ns3:hr>
            <ns3:cad>63</ns3:cad>
          </ns3:TrackPointExtension>
        </extensions>
      </trkpt>
      <trkpt lat="37.065949626266956329345703125" lon="-8.958085589110851287841796875">
        <ele>109.40000152587890625</ele>
        <time>2026-04-28T12:46:46.000Z</time>
        <extensions>
          <ns3:TrackPointExtension>
            <ns3:hr>129</ns3:hr>
            <ns3:cad>62</ns3:cad>
          </ns3:TrackPointExtension>
        </extensions>
      </trkpt>
      <trkpt lat="37.06598080694675445556640625" lon="-8.958052061498165130615234375">
        <ele>109.59999847412109375</ele>
        <time>2026-04-28T12:46:49.000Z</time>
        <extensions>
          <ns3:TrackPointExtension>
            <ns3:hr>132</ns3:hr>
            <ns3:cad>62</ns3:cad>
          </ns3:TrackPointExtension>
        </extensions>
      </trkpt>
      <trkpt lat="37.06601760350167751312255859375" lon="-8.95800235681235790252685546875">
        <ele>110</ele>
        <time>2026-04-28T12:46:53.000Z</time>
        <extensions>
          <ns3:TrackPointExtension>
            <ns3:hr>135</ns3:hr>
            <ns3:cad>63</ns3:cad>
          </ns3:TrackPointExtension>
        </extensions>
      </trkpt>
      <trkpt lat="37.066064290702342987060546875" lon="-8.95790554583072662353515625">
        <ele>110.40000152587890625</ele>
        <time>2026-04-28T12:46:59.000Z</time>
        <extensions>
          <ns3:TrackPointExtension>
            <ns3:hr>136</ns3:hr>
            <ns3:cad>63</ns3:cad>
          </ns3:TrackPointExtension>
        </extensions>
      </trkpt>
      <trkpt lat="37.06615515053272247314453125" lon="-8.9577058888971805572509765625">
        <ele>110.1999969482421875</ele>
        <time>2026-04-28T12:47:12.000Z</time>
        <extensions>
          <ns3:TrackPointExtension>
            <ns3:hr>137</ns3:hr>
            <ns3:cad>64</ns3:cad>
          </ns3:TrackPointExtension>
        </extensions>
      </trkpt>
      <trkpt lat="37.06616344861686229705810546875" lon="-8.95768736489117145538330078125">
        <ele>110.1999969482421875</ele>
        <time>2026-04-28T12:47:13.000Z</time>
        <extensions>
          <ns3:TrackPointExtension>
            <ns3:hr>137</ns3:hr>
            <ns3:cad>64</ns3:cad>
          </ns3:TrackPointExtension>
        </extensions>
      </trkpt>
      <trkpt lat="37.0662689767777919769287109375" lon="-8.95749391056597232818603515625">
        <ele>110.40000152587890625</ele>
        <time>2026-04-28T12:47:26.000Z</time>
        <extensions>
          <ns3:TrackPointExtension>
            <ns3:hr>135</ns3:hr>
            <ns3:cad>65</ns3:cad>
          </ns3:TrackPointExtension>
        </extensions>
      </trkpt>
      <trkpt lat="37.066314406692981719970703125" lon="-8.9574286155402660369873046875">
        <ele>110.59999847412109375</ele>
        <time>2026-04-28T12:47:31.000Z</time>
        <extensions>
          <ns3:TrackPointExtension>
            <ns3:hr>136</ns3:hr>
            <ns3:cad>64</ns3:cad>
          </ns3:TrackPointExtension>
        </extensions>
      </trkpt>
      <trkpt lat="37.06638506613671779632568359375" lon="-8.95731654949486255645751953125">
        <ele>111</ele>
        <time>2026-04-28T12:47:39.000Z</time>
        <extensions>
          <ns3:TrackPointExtension>
            <ns3:hr>136</ns3:hr>
            <ns3:cad>63</ns3:cad>
          </ns3:TrackPointExtension>
        </extensions>
      </trkpt>
      <trkpt lat="37.066497467458248138427734375" lon="-8.95717254839837551116943359375">
        <ele>111.40000152587890625</ele>
        <time>2026-04-28T12:47:51.000Z</time>
        <extensions>
          <ns3:TrackPointExtension>
            <ns3:hr>133</ns3:hr>
            <ns3:cad>62</ns3:cad>
          </ns3:TrackPointExtension>
        </extensions>
      </trkpt>
      <trkpt lat="37.06650895066559314727783203125" lon="-8.95716282539069652557373046875">
        <ele>111.1999969482421875</ele>
        <time>2026-04-28T12:47:52.000Z</time>
        <extensions>
          <ns3:TrackPointExtension>
            <ns3:hr>133</ns3:hr>
            <ns3:cad>62</ns3:cad>
          </ns3:TrackPointExtension>
        </extensions>
      </trkpt>
      <trkpt lat="37.0666159875690937042236328125" lon="-8.95700030028820037841796875">
        <ele>111.59999847412109375</ele>
        <time>2026-04-28T12:48:04.000Z</time>
        <extensions>
          <ns3:TrackPointExtension>
            <ns3:hr>131</ns3:hr>
            <ns3:cad>62</ns3:cad>
          </ns3:TrackPointExtension>
        </extensions>
      </trkpt>
      <trkpt lat="37.06663451157510280609130859375" lon="-8.95695210434496402740478515625">
        <ele>111.59999847412109375</ele>
        <time>2026-04-28T12:48:07.000Z</time>
        <extensions>
          <ns3:TrackPointExtension>
            <ns3:hr>130</ns3:hr>
            <ns3:cad>63</ns3:cad>
          </ns3:TrackPointExtension>
        </extensions>
      </trkpt>
      <trkpt lat="37.06666451878845691680908203125" lon="-8.956831991672515869140625">
        <ele>112.1999969482421875</ele>
        <time>2026-04-28T12:48:14.000Z</time>
        <extensions>
          <ns3:TrackPointExtension>
            <ns3:hr>130</ns3:hr>
            <ns3:cad>64</ns3:cad>
          </ns3:TrackPointExtension>
        </extensions>
      </trkpt>
      <trkpt lat="37.066703997552394866943359375" lon="-8.9566348493099212646484375">
        <ele>112.40000152587890625</ele>
        <time>2026-04-28T12:48:26.000Z</time>
        <extensions>
          <ns3:TrackPointExtension>
            <ns3:hr>132</ns3:hr>
            <ns3:cad>63</ns3:cad>
          </ns3:TrackPointExtension>
        </extensions>
      </trkpt>
      <trkpt lat="37.066716738045215606689453125" lon="-8.9565865695476531982421875">
        <ele>112.8000030517578125</ele>
        <time>2026-04-28T12:48:29.000Z</time>
        <extensions>
          <ns3:TrackPointExtension>
            <ns3:hr>132</ns3:hr>
            <ns3:cad>63</ns3:cad>
          </ns3:TrackPointExtension>
        </extensions>
      </trkpt>
      <trkpt lat="37.06675286404788494110107421875" lon="-8.95648472942411899566650390625">
        <ele>113.1999969482421875</ele>
        <time>2026-04-28T12:48:36.000Z</time>
        <extensions>
          <ns3:TrackPointExtension>
            <ns3:hr>133</ns3:hr>
            <ns3:cad>62</ns3:cad>
          </ns3:TrackPointExtension>
        </extensions>
      </trkpt>
      <trkpt lat="37.066781111061573028564453125" lon="-8.95642672665417194366455078125">
        <ele>113.8000030517578125</ele>
        <time>2026-04-28T12:48:40.000Z</time>
        <extensions>
          <ns3:TrackPointExtension>
            <ns3:hr>134</ns3:hr>
            <ns3:cad>63</ns3:cad>
          </ns3:TrackPointExtension>
        </extensions>
      </trkpt>
      <trkpt lat="37.06681136973202228546142578125" lon="-8.9563741721212863922119140625">
        <ele>114.1999969482421875</ele>
        <time>2026-04-28T12:48:44.000Z</time>
        <extensions>
          <ns3:TrackPointExtension>
            <ns3:hr>139</ns3:hr>
            <ns3:cad>63</ns3:cad>
          </ns3:TrackPointExtension>
        </extensions>
      </trkpt>
      <trkpt lat="37.0668478310108184814453125" lon="-8.95631575025618076324462890625">
        <ele>114.40000152587890625</ele>
        <time>2026-04-28T12:48:48.000Z</time>
        <extensions>
          <ns3:TrackPointExtension>
            <ns3:hr>140</ns3:hr>
            <ns3:cad>62</ns3:cad>
          </ns3:TrackPointExtension>
        </extensions>
      </trkpt>
      <trkpt lat="37.06687188707292079925537109375" lon="-8.95627384074032306671142578125">
        <ele>114.8000030517578125</ele>
        <time>2026-04-28T12:48:51.000Z</time>
        <extensions>
          <ns3:TrackPointExtension>
            <ns3:hr>140</ns3:hr>
            <ns3:cad>62</ns3:cad>
          </ns3:TrackPointExtension>
        </extensions>
      </trkpt>
      <trkpt lat="37.0669261179864406585693359375" lon="-8.95619890652596950531005859375">
        <ele>115.1999969482421875</ele>
        <time>2026-04-28T12:48:57.000Z</time>
        <extensions>
          <ns3:TrackPointExtension>
            <ns3:hr>139</ns3:hr>
            <ns3:cad>60</ns3:cad>
          </ns3:TrackPointExtension>
        </extensions>
      </trkpt>
      <trkpt lat="37.06697112880647182464599609375" lon="-8.95614308305084705352783203125">
        <ele>115.1999969482421875</ele>
        <time>2026-04-28T12:49:02.000Z</time>
        <extensions>
          <ns3:TrackPointExtension>
            <ns3:hr>136</ns3:hr>
            <ns3:cad>62</ns3:cad>
          </ns3:TrackPointExtension>
        </extensions>
      </trkpt>
      <trkpt lat="37.067015469074249267578125" lon="-8.9560690708458423614501953125">
        <ele>115.40000152587890625</ele>
        <time>2026-04-28T12:49:07.000Z</time>
        <extensions>
          <ns3:TrackPointExtension>
            <ns3:hr>136</ns3:hr>
            <ns3:cad>63</ns3:cad>
          </ns3:TrackPointExtension>
        </extensions>
      </trkpt>
      <trkpt lat="37.067047655582427978515625" lon="-8.955986760556697845458984375">
        <ele>115.8000030517578125</ele>
        <time>2026-04-28T12:49:12.000Z</time>
        <extensions>
          <ns3:TrackPointExtension>
            <ns3:hr>136</ns3:hr>
            <ns3:cad>63</ns3:cad>
          </ns3:TrackPointExtension>
        </extensions>
      </trkpt>
      <trkpt lat="37.067060060799121856689453125" lon="-8.95595449022948741912841796875">
        <ele>116</ele>
        <time>2026-04-28T12:49:14.000Z</time>
        <extensions>
          <ns3:TrackPointExtension>
            <ns3:hr>136</ns3:hr>
            <ns3:cad>63</ns3:cad>
          </ns3:TrackPointExtension>
        </extensions>
      </trkpt>
      <trkpt lat="37.0671185664832592010498046875" lon="-8.955764472484588623046875">
        <ele>116.40000152587890625</ele>
        <time>2026-04-28T12:49:26.000Z</time>
        <extensions>
          <ns3:TrackPointExtension>
            <ns3:hr>135</ns3:hr>
            <ns3:cad>62</ns3:cad>
          </ns3:TrackPointExtension>
        </extensions>
      </trkpt>
      <trkpt lat="37.06715838052332401275634765625" lon="-8.95560915581881999969482421875">
        <ele>116.8000030517578125</ele>
        <time>2026-04-28T12:49:35.000Z</time>
        <extensions>
          <ns3:TrackPointExtension>
            <ns3:hr>135</ns3:hr>
            <ns3:cad>63</ns3:cad>
          </ns3:TrackPointExtension>
        </extensions>
      </trkpt>
      <trkpt lat="37.067162655293941497802734375" lon="-8.95559272728860378265380859375">
        <ele>116.8000030517578125</ele>
        <time>2026-04-28T12:49:36.000Z</time>
        <extensions>
          <ns3:TrackPointExtension>
            <ns3:hr>135</ns3:hr>
            <ns3:cad>63</ns3:cad>
          </ns3:TrackPointExtension>
        </extensions>
      </trkpt>
      <trkpt lat="37.0672278665006160736083984375" lon="-8.955402038991451263427734375">
        <ele>116.8000030517578125</ele>
        <time>2026-04-28T12:49:48.000Z</time>
        <extensions>
          <ns3:TrackPointExtension>
            <ns3:hr>134</ns3:hr>
            <ns3:cad>65</ns3:cad>
          </ns3:TrackPointExtension>
        </extensions>
      </trkpt>
      <trkpt lat="37.0672986097633838653564453125" lon="-8.95523347891867160797119140625">
        <ele>116.8000030517578125</ele>
        <time>2026-04-28T12:49:59.000Z</time>
        <extensions>
          <ns3:TrackPointExtension>
            <ns3:hr>132</ns3:hr>
            <ns3:cad>64</ns3:cad>
          </ns3:TrackPointExtension>
        </extensions>
      </trkpt>
      <trkpt lat="37.06739206798374652862548828125" lon="-8.9550268650054931640625">
        <ele>117.59999847412109375</ele>
        <time>2026-04-28T12:50:12.000Z</time>
        <extensions>
          <ns3:TrackPointExtension>
            <ns3:hr>133</ns3:hr>
            <ns3:cad>64</ns3:cad>
          </ns3:TrackPointExtension>
        </extensions>
      </trkpt>
      <trkpt lat="37.06739843823015689849853515625" lon="-8.95501278340816497802734375">
        <ele>117.59999847412109375</ele>
        <time>2026-04-28T12:50:13.000Z</time>
        <extensions>
          <ns3:TrackPointExtension>
            <ns3:hr>133</ns3:hr>
            <ns3:cad>64</ns3:cad>
          </ns3:TrackPointExtension>
        </extensions>
      </trkpt>
      <trkpt lat="37.067420482635498046875" lon="-8.9549653418362140655517578125">
        <ele>117.8000030517578125</ele>
        <time>2026-04-28T12:50:16.000Z</time>
        <extensions>
          <ns3:TrackPointExtension>
            <ns3:hr>134</ns3:hr>
            <ns3:cad>64</ns3:cad>
          </ns3:TrackPointExtension>
        </extensions>
      </trkpt>
      <trkpt lat="37.06749357283115386962890625" lon="-8.95481295883655548095703125">
        <ele>118.40000152587890625</ele>
        <time>2026-04-28T12:50:26.000Z</time>
        <extensions>
          <ns3:TrackPointExtension>
            <ns3:hr>132</ns3:hr>
            <ns3:cad>63</ns3:cad>
          </ns3:TrackPointExtension>
        </extensions>
      </trkpt>
      <trkpt lat="37.067571021616458892822265625" lon="-8.95461254753172397613525390625">
        <ele>118.1999969482421875</ele>
        <time>2026-04-28T12:50:39.000Z</time>
        <extensions>
          <ns3:TrackPointExtension>
            <ns3:hr>134</ns3:hr>
            <ns3:cad>62</ns3:cad>
          </ns3:TrackPointExtension>
        </extensions>
      </trkpt>
      <trkpt lat="37.067653834819793701171875" lon="-8.95440652035176753997802734375">
        <ele>118.1999969482421875</ele>
        <time>2026-04-28T12:50:52.000Z</time>
        <extensions>
          <ns3:TrackPointExtension>
            <ns3:hr>132</ns3:hr>
            <ns3:cad>63</ns3:cad>
          </ns3:TrackPointExtension>
        </extensions>
      </trkpt>
      <trkpt lat="37.06769197247922420501708984375" lon="-8.95427006296813488006591796875">
        <ele>118.40000152587890625</ele>
        <time>2026-04-28T12:51:00.000Z</time>
        <extensions>
          <ns3:TrackPointExtension>
            <ns3:hr>132</ns3:hr>
            <ns3:cad>63</ns3:cad>
          </ns3:TrackPointExtension>
        </extensions>
      </trkpt>
      <trkpt lat="37.0677663199603557586669921875" lon="-8.95410795696079730987548828125">
        <ele>118</ele>
        <time>2026-04-28T12:51:11.000Z</time>
        <extensions>
          <ns3:TrackPointExtension>
            <ns3:hr>133</ns3:hr>
            <ns3:cad>63</ns3:cad>
          </ns3:TrackPointExtension>
        </extensions>
      </trkpt>
      <trkpt lat="37.06785877235233783721923828125" lon="-8.95395205356180667877197265625">
        <ele>117.59999847412109375</ele>
        <time>2026-04-28T12:51:22.000Z</time>
        <extensions>
          <ns3:TrackPointExtension>
            <ns3:hr>133</ns3:hr>
            <ns3:cad>61</ns3:cad>
          </ns3:TrackPointExtension>
        </extensions>
      </trkpt>
      <trkpt lat="37.067917026579380035400390625" lon="-8.9538907818496227264404296875">
        <ele>116.8000030517578125</ele>
        <time>2026-04-28T12:51:27.000Z</time>
        <extensions>
          <ns3:TrackPointExtension>
            <ns3:hr>133</ns3:hr>
            <ns3:cad>62</ns3:cad>
          </ns3:TrackPointExtension>
        </extensions>
      </trkpt>
      <trkpt lat="37.0679534040391445159912109375" lon="-8.95386002026498317718505859375">
        <ele>116.59999847412109375</ele>
        <time>2026-04-28T12:51:30.000Z</time>
        <extensions>
          <ns3:TrackPointExtension>
            <ns3:hr>132</ns3:hr>
            <ns3:cad>62</ns3:cad>
          </ns3:TrackPointExtension>
        </extensions>
      </trkpt>
      <trkpt lat="37.06800277344882488250732421875" lon="-8.9537724293768405914306640625">
        <ele>116.1999969482421875</ele>
        <time>2026-04-28T12:51:36.000Z</time>
        <extensions>
          <ns3:TrackPointExtension>
            <ns3:hr>129</ns3:hr>
            <ns3:cad>62</ns3:cad>
          </ns3:TrackPointExtension>
        </extensions>
      </trkpt>
      <trkpt lat="37.068009562790393829345703125" lon="-8.9537570066750049591064453125">
        <ele>116</ele>
        <time>2026-04-28T12:51:37.000Z</time>
        <extensions>
          <ns3:TrackPointExtension>
            <ns3:hr>128</ns3:hr>
            <ns3:cad>63</ns3:cad>
          </ns3:TrackPointExtension>
        </extensions>
      </trkpt>
      <trkpt lat="37.068023644387722015380859375" lon="-8.95372507162392139434814453125">
        <ele>115.40000152587890625</ele>
        <time>2026-04-28T12:51:39.000Z</time>
        <extensions>
          <ns3:TrackPointExtension>
            <ns3:hr>128</ns3:hr>
            <ns3:cad>64</ns3:cad>
          </ns3:TrackPointExtension>
        </extensions>
      </trkpt>
      <trkpt lat="37.06804744899272918701171875" lon="-8.9536765404045581817626953125">
        <ele>114.40000152587890625</ele>
        <time>2026-04-28T12:51:42.000Z</time>
        <extensions>
          <ns3:TrackPointExtension>
            <ns3:hr>128</ns3:hr>
            <ns3:cad>64</ns3:cad>
          </ns3:TrackPointExtension>
        </extensions>
      </trkpt>
      <trkpt lat="37.06807586364448070526123046875" lon="-8.95360571332275867462158203125">
        <ele>113.8000030517578125</ele>
        <time>2026-04-28T12:51:46.000Z</time>
        <extensions>
          <ns3:TrackPointExtension>
            <ns3:hr>129</ns3:hr>
            <ns3:cad>62</ns3:cad>
          </ns3:TrackPointExtension>
        </extensions>
      </trkpt>
      <trkpt lat="37.06809581257402896881103515625" lon="-8.9535407535731792449951171875">
        <ele>113.1999969482421875</ele>
        <time>2026-04-28T12:51:50.000Z</time>
        <extensions>
          <ns3:TrackPointExtension>
            <ns3:hr>130</ns3:hr>
            <ns3:cad>61</ns3:cad>
          </ns3:TrackPointExtension>
        </extensions>
      </trkpt>
      <trkpt lat="37.06813788972795009613037109375" lon="-8.95344771444797515869140625">
        <ele>112.40000152587890625</ele>
        <time>2026-04-28T12:51:56.000Z</time>
        <extensions>
          <ns3:TrackPointExtension>
            <ns3:hr>131</ns3:hr>
            <ns3:cad>62</ns3:cad>
          </ns3:TrackPointExtension>
        </extensions>
      </trkpt>
      <trkpt lat="37.06816169433295726776123046875" lon="-8.9534016139805316925048828125">
        <ele>112</ele>
        <time>2026-04-28T12:51:59.000Z</time>
        <extensions>
          <ns3:TrackPointExtension>
            <ns3:hr>132</ns3:hr>
            <ns3:cad>62</ns3:cad>
          </ns3:TrackPointExtension>
        </extensions>
      </trkpt>
      <trkpt lat="37.06823076121509075164794921875" lon="-8.9533023722469806671142578125">
        <ele>112</ele>
        <time>2026-04-28T12:52:06.000Z</time>
        <extensions>
          <ns3:TrackPointExtension>
            <ns3:hr>133</ns3:hr>
            <ns3:cad>62</ns3:cad>
          </ns3:TrackPointExtension>
        </extensions>
      </trkpt>
      <trkpt lat="37.0683523826301097869873046875" lon="-8.9532150328159332275390625">
        <ele>111.8000030517578125</ele>
        <time>2026-04-28T12:52:16.000Z</time>
        <extensions>
          <ns3:TrackPointExtension>
            <ns3:hr>133</ns3:hr>
            <ns3:cad>62</ns3:cad>
          </ns3:TrackPointExtension>
        </extensions>
      </trkpt>
      <trkpt lat="37.06848104484379291534423828125" lon="-8.95314194262027740478515625">
        <ele>112.1999969482421875</ele>
        <time>2026-04-28T12:52:26.000Z</time>
        <extensions>
          <ns3:TrackPointExtension>
            <ns3:hr>133</ns3:hr>
            <ns3:cad>62</ns3:cad>
          </ns3:TrackPointExtension>
        </extensions>
      </trkpt>
      <trkpt lat="37.06861331127583980560302734375" lon="-8.9530857838690280914306640625">
        <ele>112.40000152587890625</ele>
        <time>2026-04-28T12:52:36.000Z</time>
        <extensions>
          <ns3:TrackPointExtension>
            <ns3:hr>132</ns3:hr>
            <ns3:cad>65</ns3:cad>
          </ns3:TrackPointExtension>
        </extensions>
      </trkpt>
      <trkpt lat="37.06870685331523418426513671875" lon="-8.95304135978221893310546875">
        <ele>113</ele>
        <time>2026-04-28T12:52:43.000Z</time>
        <extensions>
          <ns3:TrackPointExtension>
            <ns3:hr>132</ns3:hr>
            <ns3:cad>64</ns3:cad>
          </ns3:TrackPointExtension>
        </extensions>
      </trkpt>
      <trkpt lat="37.068758904933929443359375" lon="-8.95302350632846355438232421875">
        <ele>113.1999969482421875</ele>
        <time>2026-04-28T12:52:47.000Z</time>
        <extensions>
          <ns3:TrackPointExtension>
            <ns3:hr>132</ns3:hr>
            <ns3:cad>64</ns3:cad>
          </ns3:TrackPointExtension>
        </extensions>
      </trkpt>
      <trkpt lat="37.06885085441172122955322265625" lon="-8.95298771560192108154296875">
        <ele>114.1999969482421875</ele>
        <time>2026-04-28T12:52:54.000Z</time>
        <extensions>
          <ns3:TrackPointExtension>
            <ns3:hr>133</ns3:hr>
            <ns3:cad>62</ns3:cad>
          </ns3:TrackPointExtension>
        </extensions>
      </trkpt>
      <trkpt lat="37.0689337514340877532958984375" lon="-8.9529593847692012786865234375">
        <ele>114.8000030517578125</ele>
        <time>2026-04-28T12:53:00.000Z</time>
        <extensions>
          <ns3:TrackPointExtension>
            <ns3:hr>135</ns3:hr>
            <ns3:cad>62</ns3:cad>
          </ns3:TrackPointExtension>
        </extensions>
      </trkpt>
      <trkpt lat="37.06902989186346530914306640625" lon="-8.95292795263230800628662109375">
        <ele>115.1999969482421875</ele>
        <time>2026-04-28T12:53:07.000Z</time>
        <extensions>
          <ns3:TrackPointExtension>
            <ns3:hr>137</ns3:hr>
            <ns3:cad>62</ns3:cad>
          </ns3:TrackPointExtension>
        </extensions>
      </trkpt>
      <trkpt lat="37.069070376455783843994140625" lon="-8.95291722379624843597412109375">
        <ele>116</ele>
        <time>2026-04-28T12:53:10.000Z</time>
        <extensions>
          <ns3:TrackPointExtension>
            <ns3:hr>138</ns3:hr>
            <ns3:cad>64</ns3:cad>
          </ns3:TrackPointExtension>
        </extensions>
      </trkpt>
      <trkpt lat="37.06914044916629791259765625" lon="-8.95288922823965549468994140625">
        <ele>116.40000152587890625</ele>
        <time>2026-04-28T12:53:15.000Z</time>
        <extensions>
          <ns3:TrackPointExtension>
            <ns3:hr>139</ns3:hr>
            <ns3:cad>64</ns3:cad>
          </ns3:TrackPointExtension>
        </extensions>
      </trkpt>
      <trkpt lat="37.0691691152751445770263671875" lon="-8.95288554020226001739501953125">
        <ele>117</ele>
        <time>2026-04-28T12:53:17.000Z</time>
        <extensions>
          <ns3:TrackPointExtension>
            <ns3:hr>143</ns3:hr>
            <ns3:cad>63</ns3:cad>
          </ns3:TrackPointExtension>
        </extensions>
      </trkpt>
      <trkpt lat="37.06920574419200420379638671875" lon="-8.95287430845201015472412109375">
        <ele>117.40000152587890625</ele>
        <time>2026-04-28T12:53:20.000Z</time>
        <extensions>
          <ns3:TrackPointExtension>
            <ns3:hr>142</ns3:hr>
            <ns3:cad>63</ns3:cad>
          </ns3:TrackPointExtension>
        </extensions>
      </trkpt>
      <trkpt lat="37.0692197419703006744384765625" lon="-8.95287011750042438507080078125">
        <ele>117.40000152587890625</ele>
        <time>2026-04-28T12:53:21.000Z</time>
        <extensions>
          <ns3:TrackPointExtension>
            <ns3:hr>142</ns3:hr>
            <ns3:cad>62</ns3:cad>
          </ns3:TrackPointExtension>
        </extensions>
      </trkpt>
      <trkpt lat="37.06935645081102848052978515625" lon="-8.95282619632780551910400390625">
        <ele>118</ele>
        <time>2026-04-28T12:53:31.000Z</time>
        <extensions>
          <ns3:TrackPointExtension>
            <ns3:hr>142</ns3:hr>
            <ns3:cad>65</ns3:cad>
          </ns3:TrackPointExtension>
        </extensions>
      </trkpt>
      <trkpt lat="37.06941093318164348602294921875" lon="-8.9528034813702106475830078125">
        <ele>118.40000152587890625</ele>
        <time>2026-04-28T12:53:35.000Z</time>
        <extensions>
          <ns3:TrackPointExtension>
            <ns3:hr>144</ns3:hr>
            <ns3:cad>64</ns3:cad>
          </ns3:TrackPointExtension>
        </extensions>
      </trkpt>
      <trkpt lat="37.06953548826277256011962890625" lon="-8.95275495015084743499755859375">
        <ele>118.59999847412109375</ele>
        <time>2026-04-28T12:53:44.000Z</time>
        <extensions>
          <ns3:TrackPointExtension>
            <ns3:hr>145</ns3:hr>
            <ns3:cad>64</ns3:cad>
          </ns3:TrackPointExtension>
        </extensions>
      </trkpt>
      <trkpt lat="37.06971888430416584014892578125" lon="-8.95273801870644092559814453125">
        <ele>119.40000152587890625</ele>
        <time>2026-04-28T12:53:57.000Z</time>
        <extensions>
          <ns3:TrackPointExtension>
            <ns3:hr>143</ns3:hr>
            <ns3:cad>62</ns3:cad>
          </ns3:TrackPointExtension>
        </extensions>
      </trkpt>
      <trkpt lat="37.0697722770273685455322265625" lon="-8.9527625776827335357666015625">
        <ele>119.8000030517578125</ele>
        <time>2026-04-28T12:54:01.000Z</time>
        <extensions>
          <ns3:TrackPointExtension>
            <ns3:hr>143</ns3:hr>
            <ns3:cad>63</ns3:cad>
          </ns3:TrackPointExtension>
        </extensions>
      </trkpt>
      <trkpt lat="37.0698544196784496307373046875" lon="-8.9528132043778896331787109375">
        <ele>120.1999969482421875</ele>
        <time>2026-04-28T12:54:08.000Z</time>
        <extensions>
          <ns3:TrackPointExtension>
            <ns3:hr>141</ns3:hr>
            <ns3:cad>64</ns3:cad>
          </ns3:TrackPointExtension>
        </extensions>
      </trkpt>
      <trkpt lat="37.07000319845974445343017578125" lon="-8.95289911888539791107177734375">
        <ele>120.59999847412109375</ele>
        <time>2026-04-28T12:54:20.000Z</time>
        <extensions>
          <ns3:TrackPointExtension>
            <ns3:hr>139</ns3:hr>
            <ns3:cad>0</ns3:cad>
          </ns3:TrackPointExtension>
        </extensions>
      </trkpt>
      <trkpt lat="37.07002867944538593292236328125" lon="-8.95289786159992218017578125">
        <ele>120.8000030517578125</ele>
        <time>2026-04-28T12:54:22.000Z</time>
        <extensions>
          <ns3:TrackPointExtension>
            <ns3:hr>139</ns3:hr>
            <ns3:cad>0</ns3:cad>
          </ns3:TrackPointExtension>
        </extensions>
      </trkpt>
      <trkpt lat="37.0700961537659168243408203125" lon="-8.9528946764767169952392578125">
        <ele>121</ele>
        <time>2026-04-28T12:54:27.000Z</time>
        <extensions>
          <ns3:TrackPointExtension>
            <ns3:hr>139</ns3:hr>
            <ns3:cad>63</ns3:cad>
          </ns3:TrackPointExtension>
        </extensions>
      </trkpt>
      <trkpt lat="37.070198245346546173095703125" lon="-8.9529184810817241668701171875">
        <ele>121.1999969482421875</ele>
        <time>2026-04-28T12:54:34.000Z</time>
        <extensions>
          <ns3:TrackPointExtension>
            <ns3:hr>136</ns3:hr>
            <ns3:cad>65</ns3:cad>
          </ns3:TrackPointExtension>
        </extensions>
      </trkpt>
      <trkpt lat="37.07027125172317028045654296875" lon="-8.95293583162128925323486328125">
        <ele>121.59999847412109375</ele>
        <time>2026-04-28T12:54:39.000Z</time>
        <extensions>
          <ns3:TrackPointExtension>
            <ns3:hr>137</ns3:hr>
            <ns3:cad>64</ns3:cad>
          </ns3:TrackPointExtension>
        </extensions>
      </trkpt>
      <trkpt lat="37.07033780403435230255126953125" lon="-8.9529573731124401092529296875">
        <ele>121.8000030517578125</ele>
        <time>2026-04-28T12:54:44.000Z</time>
        <extensions>
          <ns3:TrackPointExtension>
            <ns3:hr>138</ns3:hr>
            <ns3:cad>63</ns3:cad>
          </ns3:TrackPointExtension>
        </extensions>
      </trkpt>
      <trkpt lat="37.0704424940049648284912109375" lon="-8.952998779714107513427734375">
        <ele>122</ele>
        <time>2026-04-28T12:54:51.000Z</time>
        <extensions>
          <ns3:TrackPointExtension>
            <ns3:hr>138</ns3:hr>
            <ns3:cad>64</ns3:cad>
          </ns3:TrackPointExtension>
        </extensions>
      </trkpt>
      <trkpt lat="37.07059420645236968994140625" lon="-8.95306072197854518890380859375">
        <ele>122.40000152587890625</ele>
        <time>2026-04-28T12:55:02.000Z</time>
        <extensions>
          <ns3:TrackPointExtension>
            <ns3:hr>136</ns3:hr>
            <ns3:cad>65</ns3:cad>
          </ns3:TrackPointExtension>
        </extensions>
      </trkpt>
      <trkpt lat="37.07069705240428447723388671875" lon="-8.9531028829514980316162109375">
        <ele>122.8000030517578125</ele>
        <time>2026-04-28T12:55:10.000Z</time>
        <extensions>
          <ns3:TrackPointExtension>
            <ns3:hr>137</ns3:hr>
            <ns3:cad>65</ns3:cad>
          </ns3:TrackPointExtension>
        </extensions>
      </trkpt>
      <trkpt lat="37.0707408897578716278076171875" lon="-8.953120820224285125732421875">
        <ele>122.59999847412109375</ele>
        <time>2026-04-28T12:55:13.000Z</time>
        <extensions>
          <ns3:TrackPointExtension>
            <ns3:hr>137</ns3:hr>
            <ns3:cad>65</ns3:cad>
          </ns3:TrackPointExtension>
        </extensions>
      </trkpt>
      <trkpt lat="37.07087441347539424896240234375" lon="-8.9531628973782062530517578125">
        <ele>122.59999847412109375</ele>
        <time>2026-04-28T12:55:23.000Z</time>
        <extensions>
          <ns3:TrackPointExtension>
            <ns3:hr>137</ns3:hr>
            <ns3:cad>67</ns3:cad>
          </ns3:TrackPointExtension>
        </extensions>
      </trkpt>
      <trkpt lat="37.071032412350177764892578125" lon="-8.9532118476927280426025390625">
        <ele>122.40000152587890625</ele>
        <time>2026-04-28T12:55:34.000Z</time>
        <extensions>
          <ns3:TrackPointExtension>
            <ns3:hr>138</ns3:hr>
            <ns3:cad>64</ns3:cad>
          </ns3:TrackPointExtension>
        </extensions>
      </trkpt>
      <trkpt lat="37.0712069235742092132568359375" lon="-8.95323313772678375244140625">
        <ele>122.40000152587890625</ele>
        <time>2026-04-28T12:55:45.000Z</time>
        <extensions>
          <ns3:TrackPointExtension>
            <ns3:hr>137</ns3:hr>
            <ns3:cad>64</ns3:cad>
          </ns3:TrackPointExtension>
        </extensions>
      </trkpt>
      <trkpt lat="37.07126182503998279571533203125" lon="-8.9532311260700225830078125">
        <ele>122.1999969482421875</ele>
        <time>2026-04-28T12:55:49.000Z</time>
        <extensions>
          <ns3:TrackPointExtension>
            <ns3:hr>134</ns3:hr>
            <ns3:cad>63</ns3:cad>
          </ns3:TrackPointExtension>
        </extensions>
      </trkpt>
      <trkpt lat="37.07129300571978092193603515625" lon="-8.95322852768003940582275390625">
        <ele>122.1999969482421875</ele>
        <time>2026-04-28T12:55:51.000Z</time>
        <extensions>
          <ns3:TrackPointExtension>
            <ns3:hr>134</ns3:hr>
            <ns3:cad>63</ns3:cad>
          </ns3:TrackPointExtension>
        </extensions>
      </trkpt>
      <trkpt lat="37.071369029581546783447265625" lon="-8.95322098396718502044677734375">
        <ele>121.8000030517578125</ele>
        <time>2026-04-28T12:55:56.000Z</time>
        <extensions>
          <ns3:TrackPointExtension>
            <ns3:hr>134</ns3:hr>
            <ns3:cad>65</ns3:cad>
          </ns3:TrackPointExtension>
        </extensions>
      </trkpt>
      <trkpt lat="37.07144002430140972137451171875" lon="-8.9532165415585041046142578125">
        <ele>122</ele>
        <time>2026-04-28T12:56:01.000Z</time>
        <extensions>
          <ns3:TrackPointExtension>
            <ns3:hr>133</ns3:hr>
            <ns3:cad>65</ns3:cad>
          </ns3:TrackPointExtension>
        </extensions>
      </trkpt>
      <trkpt lat="37.07161067984998226165771484375" lon="-8.953174464404582977294921875">
        <ele>122</ele>
        <time>2026-04-28T12:56:13.000Z</time>
        <extensions>
          <ns3:TrackPointExtension>
            <ns3:hr>132</ns3:hr>
            <ns3:cad>63</ns3:cad>
          </ns3:TrackPointExtension>
        </extensions>
      </trkpt>
      <trkpt lat="37.07175736315548419952392578125" lon="-8.95313967950642108917236328125">
        <ele>122.1999969482421875</ele>
        <time>2026-04-28T12:56:23.000Z</time>
        <extensions>
          <ns3:TrackPointExtension>
            <ns3:hr>132</ns3:hr>
            <ns3:cad>63</ns3:cad>
          </ns3:TrackPointExtension>
        </extensions>
      </trkpt>
      <trkpt lat="37.07185828126966953277587890625" lon="-8.95310816355049610137939453125">
        <ele>122.1999969482421875</ele>
        <time>2026-04-28T12:56:30.000Z</time>
        <extensions>
          <ns3:TrackPointExtension>
            <ns3:hr>135</ns3:hr>
            <ns3:cad>62</ns3:cad>
          </ns3:TrackPointExtension>
        </extensions>
      </trkpt>
      <trkpt lat="37.0719240792095661163330078125" lon="-8.9530854485929012298583984375">
        <ele>122.40000152587890625</ele>
        <time>2026-04-28T12:56:35.000Z</time>
        <extensions>
          <ns3:TrackPointExtension>
            <ns3:hr>134</ns3:hr>
            <ns3:cad>63</ns3:cad>
          </ns3:TrackPointExtension>
        </extensions>
      </trkpt>
      <trkpt lat="37.07209314219653606414794921875" lon="-8.95301856100559234619140625">
        <ele>122.40000152587890625</ele>
        <time>2026-04-28T12:56:47.000Z</time>
        <extensions>
          <ns3:TrackPointExtension>
            <ns3:hr>134</ns3:hr>
            <ns3:cad>63</ns3:cad>
          </ns3:TrackPointExtension>
        </extensions>
      </trkpt>
      <trkpt lat="37.07221719436347484588623046875" lon="-8.95297120325267314910888671875">
        <ele>122.40000152587890625</ele>
        <time>2026-04-28T12:56:56.000Z</time>
        <extensions>
          <ns3:TrackPointExtension>
            <ns3:hr>133</ns3:hr>
            <ns3:cad>64</ns3:cad>
          </ns3:TrackPointExtension>
        </extensions>
      </trkpt>
      <trkpt lat="37.07229673862457275390625" lon="-8.95294102840125560760498046875">
        <ele>122.8000030517578125</ele>
        <time>2026-04-28T12:57:02.000Z</time>
        <extensions>
          <ns3:TrackPointExtension>
            <ns3:hr>133</ns3:hr>
            <ns3:cad>0</ns3:cad>
          </ns3:TrackPointExtension>
        </extensions>
      </trkpt>
      <trkpt lat="37.07240997813642024993896484375" lon="-8.9529057405889034271240234375">
        <ele>122.8000030517578125</ele>
        <time>2026-04-28T12:57:10.000Z</time>
        <extensions>
          <ns3:TrackPointExtension>
            <ns3:hr>133</ns3:hr>
            <ns3:cad>63</ns3:cad>
          </ns3:TrackPointExtension>
        </extensions>
      </trkpt>
      <trkpt lat="37.0724792964756488800048828125" lon="-8.952884785830974578857421875">
        <ele>123</ele>
        <time>2026-04-28T12:57:15.000Z</time>
        <extensions>
          <ns3:TrackPointExtension>
            <ns3:hr>133</ns3:hr>
            <ns3:cad>0</ns3:cad>
          </ns3:TrackPointExtension>
        </extensions>
      </trkpt>
      <trkpt lat="37.07264475524425506591796875" lon="-8.95283508114516735076904296875">
        <ele>123.59999847412109375</ele>
        <time>2026-04-28T12:57:27.000Z</time>
        <extensions>
          <ns3:TrackPointExtension>
            <ns3:hr>135</ns3:hr>
            <ns3:cad>62</ns3:cad>
          </ns3:TrackPointExtension>
        </extensions>
      </trkpt>
      <trkpt lat="37.07278381101787090301513671875" lon="-8.95279685966670513153076171875">
        <ele>123.8000030517578125</ele>
        <time>2026-04-28T12:57:37.000Z</time>
        <extensions>
          <ns3:TrackPointExtension>
            <ns3:hr>136</ns3:hr>
            <ns3:cad>64</ns3:cad>
          </ns3:TrackPointExtension>
        </extensions>
      </trkpt>
      <trkpt lat="37.07284114323556423187255859375" lon="-8.95277808420360088348388671875">
        <ele>123.59999847412109375</ele>
        <time>2026-04-28T12:57:41.000Z</time>
        <extensions>
          <ns3:TrackPointExtension>
            <ns3:hr>137</ns3:hr>
            <ns3:cad>64</ns3:cad>
          </ns3:TrackPointExtension>
        </extensions>
      </trkpt>
      <trkpt lat="37.07294357009232044219970703125" lon="-8.95275662653148174285888671875">
        <ele>124.1999969482421875</ele>
        <time>2026-04-28T12:57:48.000Z</time>
        <extensions>
          <ns3:TrackPointExtension>
            <ns3:hr>134</ns3:hr>
            <ns3:cad>64</ns3:cad>
          </ns3:TrackPointExtension>
        </extensions>
      </trkpt>
      <trkpt lat="37.07300014793872833251953125" lon="-8.9527394436299800872802734375">
        <ele>124</ele>
        <time>2026-04-28T12:57:52.000Z</time>
        <extensions>
          <ns3:TrackPointExtension>
            <ns3:hr>134</ns3:hr>
            <ns3:cad>64</ns3:cad>
          </ns3:TrackPointExtension>
        </extensions>
      </trkpt>
      <trkpt lat="37.0731766708195209503173828125" lon="-8.95266006700694561004638671875">
        <ele>124.1999969482421875</ele>
        <time>2026-04-28T12:58:05.000Z</time>
        <extensions>
          <ns3:TrackPointExtension>
            <ns3:hr>133</ns3:hr>
            <ns3:cad>65</ns3:cad>
          </ns3:TrackPointExtension>
        </extensions>
      </trkpt>
      <trkpt lat="37.0732048340141773223876953125" lon="-8.95264632068574428558349609375">
        <ele>124.1999969482421875</ele>
        <time>2026-04-28T12:58:07.000Z</time>
        <extensions>
          <ns3:TrackPointExtension>
            <ns3:hr>133</ns3:hr>
            <ns3:cad>64</ns3:cad>
          </ns3:TrackPointExtension>
        </extensions>
      </trkpt>
      <trkpt lat="37.07337792031466960906982421875" lon="-8.952552191913127899169921875">
        <ele>124.59999847412109375</ele>
        <time>2026-04-28T12:58:20.000Z</time>
        <extensions>
          <ns3:TrackPointExtension>
            <ns3:hr>132</ns3:hr>
            <ns3:cad>65</ns3:cad>
          </ns3:TrackPointExtension>
        </extensions>
      </trkpt>
      <trkpt lat="37.073430977761745452880859375" lon="-8.95252461545169353485107421875">
        <ele>125</ele>
        <time>2026-04-28T12:58:24.000Z</time>
        <extensions>
          <ns3:TrackPointExtension>
            <ns3:hr>132</ns3:hr>
            <ns3:cad>64</ns3:cad>
          </ns3:TrackPointExtension>
        </extensions>
      </trkpt>
      <trkpt lat="37.07351035438477993011474609375" lon="-8.95247851498425006866455078125">
        <ele>125.40000152587890625</ele>
        <time>2026-04-28T12:58:30.000Z</time>
        <extensions>
          <ns3:TrackPointExtension>
            <ns3:hr>132</ns3:hr>
            <ns3:cad>62</ns3:cad>
          </ns3:TrackPointExtension>
        </extensions>
      </trkpt>
      <trkpt lat="37.07364345900714397430419921875" lon="-8.95241229794919490814208984375">
        <ele>125.59999847412109375</ele>
        <time>2026-04-28T12:58:40.000Z</time>
        <extensions>
          <ns3:TrackPointExtension>
            <ns3:hr>133</ns3:hr>
            <ns3:cad>64</ns3:cad>
          </ns3:TrackPointExtension>
        </extensions>
      </trkpt>
      <trkpt lat="37.07374471239745616912841796875" lon="-8.95235764794051647186279296875">
        <ele>125.59999847412109375</ele>
        <time>2026-04-28T12:58:48.000Z</time>
        <extensions>
          <ns3:TrackPointExtension>
            <ns3:hr>136</ns3:hr>
            <ns3:cad>62</ns3:cad>
          </ns3:TrackPointExtension>
        </extensions>
      </trkpt>
      <trkpt lat="37.07380824722349643707275390625" lon="-8.95233099348843097686767578125">
        <ele>126</ele>
        <time>2026-04-28T12:58:53.000Z</time>
        <extensions>
          <ns3:TrackPointExtension>
            <ns3:hr>139</ns3:hr>
            <ns3:cad>63</ns3:cad>
          </ns3:TrackPointExtension>
        </extensions>
      </trkpt>
      <trkpt lat="37.07382316701114177703857421875" lon="-8.9523260481655597686767578125">
        <ele>126</ele>
        <time>2026-04-28T12:58:54.000Z</time>
        <extensions>
          <ns3:TrackPointExtension>
            <ns3:hr>139</ns3:hr>
            <ns3:cad>63</ns3:cad>
          </ns3:TrackPointExtension>
        </extensions>
      </trkpt>
      <trkpt lat="37.07399583421647548675537109375" lon="-8.95228254608809947967529296875">
        <ele>126.8000030517578125</ele>
        <time>2026-04-28T12:59:06.000Z</time>
        <extensions>
          <ns3:TrackPointExtension>
            <ns3:hr>138</ns3:hr>
            <ns3:cad>64</ns3:cad>
          </ns3:TrackPointExtension>
        </extensions>
      </trkpt>
      <trkpt lat="37.0740339718759059906005859375" lon="-8.95227081142365932464599609375">
        <ele>127</ele>
        <time>2026-04-28T12:59:09.000Z</time>
        <extensions>
          <ns3:TrackPointExtension>
            <ns3:hr>138</ns3:hr>
            <ns3:cad>63</ns3:cad>
          </ns3:TrackPointExtension>
        </extensions>
      </trkpt>
      <trkpt lat="37.07411988638341426849365234375" lon="-8.95224700681865215301513671875">
        <ele>127.1999969482421875</ele>
        <time>2026-04-28T12:59:15.000Z</time>
        <extensions>
          <ns3:TrackPointExtension>
            <ns3:hr>138</ns3:hr>
            <ns3:cad>65</ns3:cad>
          </ns3:TrackPointExtension>
        </extensions>
      </trkpt>
      <trkpt lat="37.07430428825318813323974609375" lon="-8.95219889469444751739501953125">
        <ele>127.1999969482421875</ele>
        <time>2026-04-28T12:59:28.000Z</time>
        <extensions>
          <ns3:TrackPointExtension>
            <ns3:hr>136</ns3:hr>
            <ns3:cad>65</ns3:cad>
          </ns3:TrackPointExtension>
        </extensions>
      </trkpt>
      <trkpt lat="37.0744352973997592926025390625" lon="-8.95217576064169406890869140625">
        <ele>127.8000030517578125</ele>
        <time>2026-04-28T12:59:37.000Z</time>
        <extensions>
          <ns3:TrackPointExtension>
            <ns3:hr>138</ns3:hr>
            <ns3:cad>0</ns3:cad>
          </ns3:TrackPointExtension>
        </extensions>
      </trkpt>
      <trkpt lat="37.07456655800342559814453125" lon="-8.9521731622517108917236328125">
        <ele>128.1999969482421875</ele>
        <time>2026-04-28T12:59:47.000Z</time>
        <extensions>
          <ns3:TrackPointExtension>
            <ns3:hr>137</ns3:hr>
            <ns3:cad>60</ns3:cad>
          </ns3:TrackPointExtension>
        </extensions>
      </trkpt>
      <trkpt lat="37.07464241422712802886962890625" lon="-8.952164612710475921630859375">
        <ele>128.399993896484375</ele>
        <time>2026-04-28T12:59:56.000Z</time>
        <extensions>
          <ns3:TrackPointExtension>
            <ns3:hr>136</ns3:hr>
            <ns3:cad>0</ns3:cad>
          </ns3:TrackPointExtension>
        </extensions>
      </trkpt>
      <trkpt lat="37.07467024214565753936767578125" lon="-8.9521624334156513214111328125">
        <ele>128.600006103515625</ele>
        <time>2026-04-28T13:00:04.000Z</time>
        <extensions>
          <ns3:TrackPointExtension>
            <ns3:hr>136</ns3:hr>
            <ns3:cad>0</ns3:cad>
          </ns3:TrackPointExtension>
        </extensions>
      </trkpt>
      <trkpt lat="37.07474651746451854705810546875" lon="-8.95215514115989208221435546875">
        <ele>129.1999969482421875</ele>
        <time>2026-04-28T13:00:11.000Z</time>
        <extensions>
          <ns3:TrackPointExtension>
            <ns3:hr>138</ns3:hr>
            <ns3:cad>0</ns3:cad>
          </ns3:TrackPointExtension>
        </extensions>
      </trkpt>
      <trkpt lat="37.0747605152428150177001953125" lon="-8.95215262658894062042236328125">
        <ele>129.1999969482421875</ele>
        <time>2026-04-28T13:00:12.000Z</time>
        <extensions>
          <ns3:TrackPointExtension>
            <ns3:hr>137</ns3:hr>
            <ns3:cad>0</ns3:cad>
          </ns3:TrackPointExtension>
        </extensions>
      </trkpt>
      <trkpt lat="37.0747980661690235137939453125" lon="-8.9521483518183231353759765625">
        <ele>128.8000030517578125</ele>
        <time>2026-04-28T13:00:15.000Z</time>
        <extensions>
          <ns3:TrackPointExtension>
            <ns3:hr>134</ns3:hr>
            <ns3:cad>0</ns3:cad>
          </ns3:TrackPointExtension>
        </extensions>
      </trkpt>
      <trkpt lat="37.0748691447079181671142578125" lon="-8.95213016308844089508056640625">
        <ele>129.1999969482421875</ele>
        <time>2026-04-28T13:00:20.000Z</time>
        <extensions>
          <ns3:TrackPointExtension>
            <ns3:hr>138</ns3:hr>
            <ns3:cad>60</ns3:cad>
          </ns3:TrackPointExtension>
        </extensions>
      </trkpt>
      <trkpt lat="37.0748845674097537994384765625" lon="-8.95212563686072826385498046875">
        <ele>129.1999969482421875</ele>
        <time>2026-04-28T13:00:21.000Z</time>
        <extensions>
          <ns3:TrackPointExtension>
            <ns3:hr>141</ns3:hr>
            <ns3:cad>62</ns3:cad>
          </ns3:TrackPointExtension>
        </extensions>
      </trkpt>
      <trkpt lat="37.07491532899439334869384765625" lon="-8.9521148242056369781494140625">
        <ele>129.399993896484375</ele>
        <time>2026-04-28T13:00:23.000Z</time>
        <extensions>
          <ns3:TrackPointExtension>
            <ns3:hr>143</ns3:hr>
            <ns3:cad>62</ns3:cad>
          </ns3:TrackPointExtension>
        </extensions>
      </trkpt>
      <trkpt lat="37.07495371811091899871826171875" lon="-8.95210049115121364593505859375">
        <ele>129.600006103515625</ele>
        <time>2026-04-28T13:00:26.000Z</time>
        <extensions>
          <ns3:TrackPointExtension>
            <ns3:hr>147</ns3:hr>
            <ns3:cad>64</ns3:cad>
          </ns3:TrackPointExtension>
        </extensions>
      </trkpt>
      <trkpt lat="37.07499948330223560333251953125" lon="-8.95207769237458705902099609375">
        <ele>129.8000030517578125</ele>
        <time>2026-04-28T13:00:30.000Z</time>
        <extensions>
          <ns3:TrackPointExtension>
            <ns3:hr>144</ns3:hr>
            <ns3:cad>63</ns3:cad>
          </ns3:TrackPointExtension>
        </extensions>
      </trkpt>
      <trkpt lat="37.07501272670924663543701171875" lon="-8.95207174122333526611328125">
        <ele>130</ele>
        <time>2026-04-28T13:00:31.000Z</time>
        <extensions>
          <ns3:TrackPointExtension>
            <ns3:hr>141</ns3:hr>
            <ns3:cad>64</ns3:cad>
          </ns3:TrackPointExtension>
        </extensions>
      </trkpt>
      <trkpt lat="37.0750391297042369842529296875" lon="-8.9520531333982944488525390625">
        <ele>130.1999969482421875</ele>
        <time>2026-04-28T13:00:33.000Z</time>
        <extensions>
          <ns3:TrackPointExtension>
            <ns3:hr>138</ns3:hr>
            <ns3:cad>65</ns3:cad>
          </ns3:TrackPointExtension>
        </extensions>
      </trkpt>
      <trkpt lat="37.07515924237668514251708984375" lon="-8.9519673027098178863525390625">
        <ele>130.600006103515625</ele>
        <time>2026-04-28T13:00:43.000Z</time>
        <extensions>
          <ns3:TrackPointExtension>
            <ns3:hr>136</ns3:hr>
            <ns3:cad>64</ns3:cad>
          </ns3:TrackPointExtension>
        </extensions>
      </trkpt>
      <trkpt lat="37.07521892152726650238037109375" lon="-8.9519210346043109893798828125">
        <ele>130.600006103515625</ele>
        <time>2026-04-28T13:00:48.000Z</time>
        <extensions>
          <ns3:TrackPointExtension>
            <ns3:hr>133</ns3:hr>
            <ns3:cad>62</ns3:cad>
          </ns3:TrackPointExtension>
        </extensions>
      </trkpt>
      <trkpt lat="37.07525630481541156768798828125" lon="-8.95189513452351093292236328125">
        <ele>130.8000030517578125</ele>
        <time>2026-04-28T13:00:51.000Z</time>
        <extensions>
          <ns3:TrackPointExtension>
            <ns3:hr>132</ns3:hr>
            <ns3:cad>64</ns3:cad>
          </ns3:TrackPointExtension>
        </extensions>
      </trkpt>
      <trkpt lat="37.0753603242337703704833984375" lon="-8.95180829800665378570556640625">
        <ele>130.8000030517578125</ele>
        <time>2026-04-28T13:01:00.000Z</time>
        <extensions>
          <ns3:TrackPointExtension>
            <ns3:hr>132</ns3:hr>
            <ns3:cad>64</ns3:cad>
          </ns3:TrackPointExtension>
        </extensions>
      </trkpt>
      <trkpt lat="37.0754416286945343017578125" lon="-8.951734118163585662841796875">
        <ele>131.1999969482421875</ele>
        <time>2026-04-28T13:01:07.000Z</time>
        <extensions>
          <ns3:TrackPointExtension>
            <ns3:hr>132</ns3:hr>
            <ns3:cad>64</ns3:cad>
          </ns3:TrackPointExtension>
        </extensions>
      </trkpt>
      <trkpt lat="37.075517736375331878662109375" lon="-8.951655663549900054931640625">
        <ele>131.600006103515625</ele>
        <time>2026-04-28T13:01:14.000Z</time>
        <extensions>
          <ns3:TrackPointExtension>
            <ns3:hr>132</ns3:hr>
            <ns3:cad>65</ns3:cad>
          </ns3:TrackPointExtension>
        </extensions>
      </trkpt>
      <trkpt lat="37.075614966452121734619140625" lon="-8.951553739607334136962890625">
        <ele>131.600006103515625</ele>
        <time>2026-04-28T13:01:23.000Z</time>
        <extensions>
          <ns3:TrackPointExtension>
            <ns3:hr>136</ns3:hr>
            <ns3:cad>64</ns3:cad>
          </ns3:TrackPointExtension>
        </extensions>
      </trkpt>
      <trkpt lat="37.0756580494344234466552734375" lon="-8.951502777636051177978515625">
        <ele>131.8000030517578125</ele>
        <time>2026-04-28T13:01:27.000Z</time>
        <extensions>
          <ns3:TrackPointExtension>
            <ns3:hr>136</ns3:hr>
            <ns3:cad>64</ns3:cad>
          </ns3:TrackPointExtension>
        </extensions>
      </trkpt>
      <trkpt lat="37.0757318101823329925537109375" lon="-8.951414264738559722900390625">
        <ele>132</ele>
        <time>2026-04-28T13:01:34.000Z</time>
        <extensions>
          <ns3:TrackPointExtension>
            <ns3:hr>133</ns3:hr>
            <ns3:cad>63</ns3:cad>
          </ns3:TrackPointExtension>
        </extensions>
      </trkpt>
      <trkpt lat="37.07575117237865924835205078125" lon="-8.95139314234256744384765625">
        <ele>132.1999969482421875</ele>
        <time>2026-04-28T13:01:36.000Z</time>
        <extensions>
          <ns3:TrackPointExtension>
            <ns3:hr>133</ns3:hr>
            <ns3:cad>63</ns3:cad>
          </ns3:TrackPointExtension>
        </extensions>
      </trkpt>
      <trkpt lat="37.075770199298858642578125" lon="-8.951371349394321441650390625">
        <ele>132.399993896484375</ele>
        <time>2026-04-28T13:01:38.000Z</time>
        <extensions>
          <ns3:TrackPointExtension>
            <ns3:hr>133</ns3:hr>
            <ns3:cad>63</ns3:cad>
          </ns3:TrackPointExtension>
        </extensions>
      </trkpt>
      <trkpt lat="37.075818479061126708984375" lon="-8.951315023005008697509765625">
        <ele>132.600006103515625</ele>
        <time>2026-04-28T13:01:43.000Z</time>
        <extensions>
          <ns3:TrackPointExtension>
            <ns3:hr>137</ns3:hr>
            <ns3:cad>63</ns3:cad>
          </ns3:TrackPointExtension>
        </extensions>
      </trkpt>
      <trkpt lat="37.07586181350052356719970703125" lon="-8.95127001218497753143310546875">
        <ele>132.600006103515625</ele>
        <time>2026-04-28T13:01:47.000Z</time>
        <extensions>
          <ns3:TrackPointExtension>
            <ns3:hr>140</ns3:hr>
            <ns3:cad>64</ns3:cad>
          </ns3:TrackPointExtension>
        </extensions>
      </trkpt>
      <trkpt lat="37.07588578574359416961669921875" lon="-8.95124855451285839080810546875">
        <ele>132.600006103515625</ele>
        <time>2026-04-28T13:01:49.000Z</time>
        <extensions>
          <ns3:TrackPointExtension>
            <ns3:hr>141</ns3:hr>
            <ns3:cad>63</ns3:cad>
          </ns3:TrackPointExtension>
        </extensions>
      </trkpt>
      <trkpt lat="37.0760298706591129302978515625" lon="-8.95112416706979274749755859375">
        <ele>133.1999969482421875</ele>
        <time>2026-04-28T13:02:01.000Z</time>
        <extensions>
          <ns3:TrackPointExtension>
            <ns3:hr>142</ns3:hr>
            <ns3:cad>64</ns3:cad>
          </ns3:TrackPointExtension>
        </extensions>
      </trkpt>
      <trkpt lat="37.0761767216026782989501953125" lon="-8.95097672939300537109375">
        <ele>133.1999969482421875</ele>
        <time>2026-04-28T13:02:14.000Z</time>
        <extensions>
          <ns3:TrackPointExtension>
            <ns3:hr>141</ns3:hr>
            <ns3:cad>63</ns3:cad>
          </ns3:TrackPointExtension>
        </extensions>
      </trkpt>
      <trkpt lat="37.07619843073189258575439453125" lon="-8.9509574510157108306884765625">
        <ele>133.1999969482421875</ele>
        <time>2026-04-28T13:02:16.000Z</time>
        <extensions>
          <ns3:TrackPointExtension>
            <ns3:hr>141</ns3:hr>
            <ns3:cad>63</ns3:cad>
          </ns3:TrackPointExtension>
        </extensions>
      </trkpt>
      <trkpt lat="37.07623044960200786590576171875" lon="-8.95092501305043697357177734375">
        <ele>133.399993896484375</ele>
        <time>2026-04-28T13:02:19.000Z</time>
        <extensions>
          <ns3:TrackPointExtension>
            <ns3:hr>141</ns3:hr>
            <ns3:cad>63</ns3:cad>
          </ns3:TrackPointExtension>
        </extensions>
      </trkpt>
      <trkpt lat="37.07633991725742816925048828125" lon="-8.95080733112990856170654296875">
        <ele>134.1999969482421875</ele>
        <time>2026-04-28T13:02:29.000Z</time>
        <extensions>
          <ns3:TrackPointExtension>
            <ns3:hr>140</ns3:hr>
            <ns3:cad>64</ns3:cad>
          </ns3:TrackPointExtension>
        </extensions>
      </trkpt>
      <trkpt lat="37.07638216204941272735595703125" lon="-8.95076123066246509552001953125">
        <ele>134.399993896484375</ele>
        <time>2026-04-28T13:02:33.000Z</time>
        <extensions>
          <ns3:TrackPointExtension>
            <ns3:hr>137</ns3:hr>
            <ns3:cad>64</ns3:cad>
          </ns3:TrackPointExtension>
        </extensions>
      </trkpt>
      <trkpt lat="37.07640429027378559112548828125" lon="-8.95073734223842620849609375">
        <ele>134.399993896484375</ele>
        <time>2026-04-28T13:02:35.000Z</time>
        <extensions>
          <ns3:TrackPointExtension>
            <ns3:hr>137</ns3:hr>
            <ns3:cad>64</ns3:cad>
          </ns3:TrackPointExtension>
        </extensions>
      </trkpt>
      <trkpt lat="37.0764466188848018646240234375" lon="-8.9506795071065425872802734375">
        <ele>134.600006103515625</ele>
        <time>2026-04-28T13:02:41.000Z</time>
        <extensions>
          <ns3:TrackPointExtension>
            <ns3:hr>136</ns3:hr>
            <ns3:cad>0</ns3:cad>
          </ns3:TrackPointExtension>
        </extensions>
      </trkpt>
      <trkpt lat="37.07646287977695465087890625" lon="-8.9506402797996997833251953125">
        <ele>134.600006103515625</ele>
        <time>2026-04-28T13:02:47.000Z</time>
        <extensions>
          <ns3:TrackPointExtension>
            <ns3:hr>136</ns3:hr>
            <ns3:cad>0</ns3:cad>
          </ns3:TrackPointExtension>
        </extensions>
      </trkpt>
      <trkpt lat="37.07646296359598636627197265625" lon="-8.95063810050487518310546875">
        <ele>134.600006103515625</ele>
        <time>2026-04-28T13:02:53.000Z</time>
        <extensions>
          <ns3:TrackPointExtension>
            <ns3:hr>133</ns3:hr>
            <ns3:cad>0</ns3:cad>
          </ns3:TrackPointExtension>
        </extensions>
      </trkpt>
      <trkpt lat="37.07646380178630352020263671875" lon="-8.950637765228748321533203125">
        <ele>134.600006103515625</ele>
        <time>2026-04-28T13:02:55.000Z</time>
        <extensions>
          <ns3:TrackPointExtension>
            <ns3:hr>132</ns3:hr>
            <ns3:cad>0</ns3:cad>
          </ns3:TrackPointExtension>
        </extensions>
      </trkpt>
      <trkpt lat="37.0765478722751140594482421875" lon="-8.95056291483342647552490234375">
        <ele>134.600006103515625</ele>
        <time>2026-04-28T13:03:03.000Z</time>
        <extensions>
          <ns3:TrackPointExtension>
            <ns3:hr>132</ns3:hr>
            <ns3:cad>59</ns3:cad>
          </ns3:TrackPointExtension>
        </extensions>
      </trkpt>
      <trkpt lat="37.0766263268887996673583984375" lon="-8.9505142159759998321533203125">
        <ele>134.399993896484375</ele>
        <time>2026-04-28T13:03:09.000Z</time>
        <extensions>
          <ns3:TrackPointExtension>
            <ns3:hr>129</ns3:hr>
            <ns3:cad>63</ns3:cad>
          </ns3:TrackPointExtension>
        </extensions>
      </trkpt>
      <trkpt lat="37.076651640236377716064453125" lon="-8.95049300976097583770751953125">
        <ele>134.8000030517578125</ele>
        <time>2026-04-28T13:03:11.000Z</time>
        <extensions>
          <ns3:TrackPointExtension>
            <ns3:hr>129</ns3:hr>
            <ns3:cad>64</ns3:cad>
          </ns3:TrackPointExtension>
        </extensions>
      </trkpt>
      <trkpt lat="37.07668927498161792755126953125" lon="-8.95046375691890716552734375">
        <ele>135.600006103515625</ele>
        <time>2026-04-28T13:03:14.000Z</time>
        <extensions>
          <ns3:TrackPointExtension>
            <ns3:hr>129</ns3:hr>
            <ns3:cad>63</ns3:cad>
          </ns3:TrackPointExtension>
        </extensions>
      </trkpt>
      <trkpt lat="37.07681559026241302490234375" lon="-8.9503710530698299407958984375">
        <ele>135.1999969482421875</ele>
        <time>2026-04-28T13:03:24.000Z</time>
        <extensions>
          <ns3:TrackPointExtension>
            <ns3:hr>128</ns3:hr>
            <ns3:cad>63</ns3:cad>
          </ns3:TrackPointExtension>
        </extensions>
      </trkpt>
      <trkpt lat="37.0769880898296833038330078125" lon="-8.9502691291272640228271484375">
        <ele>135.600006103515625</ele>
        <time>2026-04-28T13:03:38.000Z</time>
        <extensions>
          <ns3:TrackPointExtension>
            <ns3:hr>129</ns3:hr>
            <ns3:cad>64</ns3:cad>
          </ns3:TrackPointExtension>
        </extensions>
      </trkpt>
      <trkpt lat="37.07713183946907520294189453125" lon="-8.95020500756800174713134765625">
        <ele>136.399993896484375</ele>
        <time>2026-04-28T13:03:48.000Z</time>
        <extensions>
          <ns3:TrackPointExtension>
            <ns3:hr>131</ns3:hr>
            <ns3:cad>63</ns3:cad>
          </ns3:TrackPointExtension>
        </extensions>
      </trkpt>
      <trkpt lat="37.07716151140630245208740234375" lon="-8.9501940272748470306396484375">
        <ele>136.600006103515625</ele>
        <time>2026-04-28T13:03:50.000Z</time>
        <extensions>
          <ns3:TrackPointExtension>
            <ns3:hr>132</ns3:hr>
            <ns3:cad>63</ns3:cad>
          </ns3:TrackPointExtension>
        </extensions>
      </trkpt>
      <trkpt lat="37.0772683806717395782470703125" lon="-8.95016846247017383575439453125">
        <ele>136.399993896484375</ele>
        <time>2026-04-28T13:03:58.000Z</time>
        <extensions>
          <ns3:TrackPointExtension>
            <ns3:hr>133</ns3:hr>
            <ns3:cad>63</ns3:cad>
          </ns3:TrackPointExtension>
        </extensions>
      </trkpt>
      <trkpt lat="37.0774175785481929779052734375" lon="-8.9501492679119110107421875">
        <ele>136.8000030517578125</ele>
        <time>2026-04-28T13:04:09.000Z</time>
        <extensions>
          <ns3:TrackPointExtension>
            <ns3:hr>132</ns3:hr>
            <ns3:cad>62</ns3:cad>
          </ns3:TrackPointExtension>
        </extensions>
      </trkpt>
      <trkpt lat="37.07755948416888713836669921875" lon="-8.95012638531625270843505859375">
        <ele>137</ele>
        <time>2026-04-28T13:04:20.000Z</time>
        <extensions>
          <ns3:TrackPointExtension>
            <ns3:hr>133</ns3:hr>
            <ns3:cad>64</ns3:cad>
          </ns3:TrackPointExtension>
        </extensions>
      </trkpt>
      <trkpt lat="37.0776576362550258636474609375" lon="-8.95010123960673809051513671875">
        <ele>137.600006103515625</ele>
        <time>2026-04-28T13:04:27.000Z</time>
        <extensions>
          <ns3:TrackPointExtension>
            <ns3:hr>132</ns3:hr>
            <ns3:cad>62</ns3:cad>
          </ns3:TrackPointExtension>
        </extensions>
      </trkpt>
      <trkpt lat="37.0776847936213016510009765625" lon="-8.95009889267385005950927734375">
        <ele>137.8000030517578125</ele>
        <time>2026-04-28T13:04:29.000Z</time>
        <extensions>
          <ns3:TrackPointExtension>
            <ns3:hr>130</ns3:hr>
            <ns3:cad>62</ns3:cad>
          </ns3:TrackPointExtension>
        </extensions>
      </trkpt>
      <trkpt lat="37.0777000486850738525390625" lon="-8.95009537227451801300048828125">
        <ele>138.1999969482421875</ele>
        <time>2026-04-28T13:04:34.000Z</time>
        <extensions>
          <ns3:TrackPointExtension>
            <ns3:hr>131</ns3:hr>
            <ns3:cad>0</ns3:cad>
          </ns3:TrackPointExtension>
        </extensions>
      </trkpt>
      <trkpt lat="37.0777536928653717041015625" lon="-8.95010878331959247589111328125">
        <ele>138.399993896484375</ele>
        <time>2026-04-28T13:04:40.000Z</time>
        <extensions>
          <ns3:TrackPointExtension>
            <ns3:hr>131</ns3:hr>
            <ns3:cad>60</ns3:cad>
          </ns3:TrackPointExtension>
        </extensions>
      </trkpt>
      <trkpt lat="37.07791529595851898193359375" lon="-8.9500756748020648956298828125">
        <ele>138.1999969482421875</ele>
        <time>2026-04-28T13:04:51.000Z</time>
        <extensions>
          <ns3:TrackPointExtension>
            <ns3:hr>129</ns3:hr>
            <ns3:cad>63</ns3:cad>
          </ns3:TrackPointExtension>
        </extensions>
      </trkpt>
      <trkpt lat="37.0779449678957462310791015625" lon="-8.95006737671792507171630859375">
        <ele>137.8000030517578125</ele>
        <time>2026-04-28T13:04:53.000Z</time>
        <extensions>
          <ns3:TrackPointExtension>
            <ns3:hr>126</ns3:hr>
            <ns3:cad>63</ns3:cad>
          </ns3:TrackPointExtension>
        </extensions>
      </trkpt>
      <trkpt lat="37.07803993485867977142333984375" lon="-8.950036950409412384033203125">
        <ele>137.399993896484375</ele>
        <time>2026-04-28T13:05:00.000Z</time>
        <extensions>
          <ns3:TrackPointExtension>
            <ns3:hr>123</ns3:hr>
            <ns3:cad>63</ns3:cad>
          </ns3:TrackPointExtension>
        </extensions>
      </trkpt>
      <trkpt lat="37.0781233347952365875244140625" lon="-8.95001272670924663543701171875">
        <ele>138</ele>
        <time>2026-04-28T13:05:06.000Z</time>
        <extensions>
          <ns3:TrackPointExtension>
            <ns3:hr>126</ns3:hr>
            <ns3:cad>64</ns3:cad>
          </ns3:TrackPointExtension>
        </extensions>
      </trkpt>
      <trkpt lat="37.0781498216092586517333984375" lon="-8.9500045962631702423095703125">
        <ele>138.1999969482421875</ele>
        <time>2026-04-28T13:05:08.000Z</time>
        <extensions>
          <ns3:TrackPointExtension>
            <ns3:hr>128</ns3:hr>
            <ns3:cad>64</ns3:cad>
          </ns3:TrackPointExtension>
        </extensions>
      </trkpt>
      <trkpt lat="37.0782740414142608642578125" lon="-8.94997349940240383148193359375">
        <ele>138.1999969482421875</ele>
        <time>2026-04-28T13:05:17.000Z</time>
        <extensions>
          <ns3:TrackPointExtension>
            <ns3:hr>131</ns3:hr>
            <ns3:cad>64</ns3:cad>
          </ns3:TrackPointExtension>
        </extensions>
      </trkpt>
      <trkpt lat="37.07831494510173797607421875" lon="-8.94996344111859798431396484375">
        <ele>138.1999969482421875</ele>
        <time>2026-04-28T13:05:20.000Z</time>
        <extensions>
          <ns3:TrackPointExtension>
            <ns3:hr>132</ns3:hr>
            <ns3:cad>63</ns3:cad>
          </ns3:TrackPointExtension>
        </extensions>
      </trkpt>
      <trkpt lat="37.07849867641925811767578125" lon="-8.9499237947165966033935546875">
        <ele>138.1999969482421875</ele>
        <time>2026-04-28T13:05:33.000Z</time>
        <extensions>
          <ns3:TrackPointExtension>
            <ns3:hr>133</ns3:hr>
            <ns3:cad>63</ns3:cad>
          </ns3:TrackPointExtension>
        </extensions>
      </trkpt>
      <trkpt lat="37.07868852652609348297119140625" lon="-8.94988850690424442291259765625">
        <ele>138.399993896484375</ele>
        <time>2026-04-28T13:05:46.000Z</time>
        <extensions>
          <ns3:TrackPointExtension>
            <ns3:hr>135</ns3:hr>
            <ns3:cad>62</ns3:cad>
          </ns3:TrackPointExtension>
        </extensions>
      </trkpt>
      <trkpt lat="37.07875549793243408203125" lon="-8.94986906088888645172119140625">
        <ele>138.600006103515625</ele>
        <time>2026-04-28T13:05:51.000Z</time>
        <extensions>
          <ns3:TrackPointExtension>
            <ns3:hr>135</ns3:hr>
            <ns3:cad>63</ns3:cad>
          </ns3:TrackPointExtension>
        </extensions>
      </trkpt>
      <trkpt lat="37.0788639597594738006591796875" lon="-8.9498698152601718902587890625">
        <ele>139</ele>
        <time>2026-04-28T13:05:58.000Z</time>
        <extensions>
          <ns3:TrackPointExtension>
            <ns3:hr>136</ns3:hr>
            <ns3:cad>62</ns3:cad>
          </ns3:TrackPointExtension>
        </extensions>
      </trkpt>
      <trkpt lat="37.07895741797983646392822265625" lon="-8.9498711563646793365478515625">
        <ele>139.8000030517578125</ele>
        <time>2026-04-28T13:06:05.000Z</time>
        <extensions>
          <ns3:TrackPointExtension>
            <ns3:hr>135</ns3:hr>
            <ns3:cad>64</ns3:cad>
          </ns3:TrackPointExtension>
        </extensions>
      </trkpt>
      <trkpt lat="37.0790356211364269256591796875" lon="-8.9498714916408061981201171875">
        <ele>140.399993896484375</ele>
        <time>2026-04-28T13:06:11.000Z</time>
        <extensions>
          <ns3:TrackPointExtension>
            <ns3:hr>134</ns3:hr>
            <ns3:cad>63</ns3:cad>
          </ns3:TrackPointExtension>
        </extensions>
      </trkpt>
      <trkpt lat="37.0792035944759845733642578125" lon="-8.94986604340374469757080078125">
        <ele>140.1999969482421875</ele>
        <time>2026-04-28T13:06:22.000Z</time>
        <extensions>
          <ns3:TrackPointExtension>
            <ns3:hr>137</ns3:hr>
            <ns3:cad>63</ns3:cad>
          </ns3:TrackPointExtension>
        </extensions>
      </trkpt>
      <trkpt lat="37.079380452632904052734375" lon="-8.94979882054030895233154296875">
        <ele>140</ele>
        <time>2026-04-28T13:06:35.000Z</time>
        <extensions>
          <ns3:TrackPointExtension>
            <ns3:hr>137</ns3:hr>
            <ns3:cad>63</ns3:cad>
          </ns3:TrackPointExtension>
        </extensions>
      </trkpt>
      <trkpt lat="37.079502157866954803466796875" lon="-8.949708044528961181640625">
        <ele>140.8000030517578125</ele>
        <time>2026-04-28T13:06:45.000Z</time>
        <extensions>
          <ns3:TrackPointExtension>
            <ns3:hr>137</ns3:hr>
            <ns3:cad>63</ns3:cad>
          </ns3:TrackPointExtension>
        </extensions>
      </trkpt>
      <trkpt lat="37.0795120485126972198486328125" lon="-8.9496988244354724884033203125">
        <ele>140.8000030517578125</ele>
        <time>2026-04-28T13:06:46.000Z</time>
        <extensions>
          <ns3:TrackPointExtension>
            <ns3:hr>138</ns3:hr>
            <ns3:cad>63</ns3:cad>
          </ns3:TrackPointExtension>
        </extensions>
      </trkpt>
      <trkpt lat="37.0796314068138599395751953125" lon="-8.94958005286753177642822265625">
        <ele>140.8000030517578125</ele>
        <time>2026-04-28T13:06:57.000Z</time>
        <extensions>
          <ns3:TrackPointExtension>
            <ns3:hr>137</ns3:hr>
            <ns3:cad>62</ns3:cad>
          </ns3:TrackPointExtension>
        </extensions>
      </trkpt>
      <trkpt lat="37.0797678641974925994873046875" lon="-8.9494601078331470489501953125">
        <ele>141.1999969482421875</ele>
        <time>2026-04-28T13:07:09.000Z</time>
        <extensions>
          <ns3:TrackPointExtension>
            <ns3:hr>136</ns3:hr>
            <ns3:cad>62</ns3:cad>
          </ns3:TrackPointExtension>
        </extensions>
      </trkpt>
      <trkpt lat="37.07987741567194461822509765625" lon="-8.94940160214900970458984375">
        <ele>141.8000030517578125</ele>
        <time>2026-04-28T13:07:18.000Z</time>
        <extensions>
          <ns3:TrackPointExtension>
            <ns3:hr>137</ns3:hr>
            <ns3:cad>62</ns3:cad>
          </ns3:TrackPointExtension>
        </extensions>
      </trkpt>
      <trkpt lat="37.07992418669164180755615234375" lon="-8.9493675716221332550048828125">
        <ele>142.1999969482421875</ele>
        <time>2026-04-28T13:07:22.000Z</time>
        <extensions>
          <ns3:TrackPointExtension>
            <ns3:hr>136</ns3:hr>
            <ns3:cad>64</ns3:cad>
          </ns3:TrackPointExtension>
        </extensions>
      </trkpt>
      <trkpt lat="37.08003549836575984954833984375" lon="-8.94931803457438945770263671875">
        <ele>142.399993896484375</ele>
        <time>2026-04-28T13:07:30.000Z</time>
        <extensions>
          <ns3:TrackPointExtension>
            <ns3:hr>136</ns3:hr>
            <ns3:cad>63</ns3:cad>
          </ns3:TrackPointExtension>
        </extensions>
      </trkpt>
      <trkpt lat="37.08013658411800861358642578125" lon="-8.94928802736103534698486328125">
        <ele>142.600006103515625</ele>
        <time>2026-04-28T13:07:40.000Z</time>
        <extensions>
          <ns3:TrackPointExtension>
            <ns3:hr>135</ns3:hr>
            <ns3:cad>55</ns3:cad>
          </ns3:TrackPointExtension>
        </extensions>
      </trkpt>
      <trkpt lat="37.08016608841717243194580078125" lon="-8.94925181753933429718017578125">
        <ele>142.8000030517578125</ele>
        <time>2026-04-28T13:07:44.000Z</time>
        <extensions>
          <ns3:TrackPointExtension>
            <ns3:hr>135</ns3:hr>
            <ns3:cad>53</ns3:cad>
          </ns3:TrackPointExtension>
        </extensions>
      </trkpt>
      <trkpt lat="37.0802037231624126434326171875" lon="-8.94919951446354389190673828125">
        <ele>143.1999969482421875</ele>
        <time>2026-04-28T13:07:49.000Z</time>
        <extensions>
          <ns3:TrackPointExtension>
            <ns3:hr>132</ns3:hr>
            <ns3:cad>55</ns3:cad>
          </ns3:TrackPointExtension>
        </extensions>
      </trkpt>
      <trkpt lat="37.0802107639610767364501953125" lon="-8.94918643869459629058837890625">
        <ele>143</ele>
        <time>2026-04-28T13:07:50.000Z</time>
        <extensions>
          <ns3:TrackPointExtension>
            <ns3:hr>132</ns3:hr>
            <ns3:cad>56</ns3:cad>
          </ns3:TrackPointExtension>
        </extensions>
      </trkpt>
      <trkpt lat="37.080263234674930572509765625" lon="-8.94906892441213130950927734375">
        <ele>143.600006103515625</ele>
        <time>2026-04-28T13:08:00.000Z</time>
        <extensions>
          <ns3:TrackPointExtension>
            <ns3:hr>134</ns3:hr>
            <ns3:cad>0</ns3:cad>
          </ns3:TrackPointExtension>
        </extensions>
      </trkpt>
      <trkpt lat="37.080266587436199188232421875" lon="-8.9490701816976070404052734375">
        <ele>143.600006103515625</ele>
        <time>2026-04-28T13:08:03.000Z</time>
        <extensions>
          <ns3:TrackPointExtension>
            <ns3:hr>132</ns3:hr>
            <ns3:cad>0</ns3:cad>
          </ns3:TrackPointExtension>
        </extensions>
      </trkpt>
      <trkpt lat="37.08031243644654750823974609375" lon="-8.9490356482565402984619140625">
        <ele>143.399993896484375</ele>
        <time>2026-04-28T13:08:07.000Z</time>
        <extensions>
          <ns3:TrackPointExtension>
            <ns3:hr>130</ns3:hr>
            <ns3:cad>59</ns3:cad>
          </ns3:TrackPointExtension>
        </extensions>
      </trkpt>
      <trkpt lat="37.080396004021167755126953125" lon="-8.94894906319677829742431640625">
        <ele>143.8000030517578125</ele>
        <time>2026-04-28T13:08:15.000Z</time>
        <extensions>
          <ns3:TrackPointExtension>
            <ns3:hr>129</ns3:hr>
            <ns3:cad>62</ns3:cad>
          </ns3:TrackPointExtension>
        </extensions>
      </trkpt>
      <trkpt lat="37.08043330349028110504150390625" lon="-8.948900699615478515625">
        <ele>144</ele>
        <time>2026-04-28T13:08:19.000Z</time>
        <extensions>
          <ns3:TrackPointExtension>
            <ns3:hr>128</ns3:hr>
            <ns3:cad>63</ns3:cad>
          </ns3:TrackPointExtension>
        </extensions>
      </trkpt>
      <trkpt lat="37.08056808449327945709228515625" lon="-8.9487942494451999664306640625">
        <ele>144.399993896484375</ele>
        <time>2026-04-28T13:08:30.000Z</time>
        <extensions>
          <ns3:TrackPointExtension>
            <ns3:hr>127</ns3:hr>
            <ns3:cad>63</ns3:cad>
          </ns3:TrackPointExtension>
        </extensions>
      </trkpt>
      <trkpt lat="37.08064150996506214141845703125" lon="-8.94872141070663928985595703125">
        <ele>144.8000030517578125</ele>
        <time>2026-04-28T13:08:37.000Z</time>
        <extensions>
          <ns3:TrackPointExtension>
            <ns3:hr>130</ns3:hr>
            <ns3:cad>63</ns3:cad>
          </ns3:TrackPointExtension>
        </extensions>
      </trkpt>
      <trkpt lat="37.08066313527524471282958984375" lon="-8.9486983604729175567626953125">
        <ele>145</ele>
        <time>2026-04-28T13:08:39.000Z</time>
        <extensions>
          <ns3:TrackPointExtension>
            <ns3:hr>130</ns3:hr>
            <ns3:cad>63</ns3:cad>
          </ns3:TrackPointExtension>
        </extensions>
      </trkpt>
      <trkpt lat="37.08070018328726291656494140625" lon="-8.9486628212034702301025390625">
        <ele>145.1999969482421875</ele>
        <time>2026-04-28T13:08:42.000Z</time>
        <extensions>
          <ns3:TrackPointExtension>
            <ns3:hr>131</ns3:hr>
            <ns3:cad>62</ns3:cad>
          </ns3:TrackPointExtension>
        </extensions>
      </trkpt>
      <trkpt lat="37.0808414183557033538818359375" lon="-8.94852091558277606964111328125">
        <ele>145.8000030517578125</ele>
        <time>2026-04-28T13:08:55.000Z</time>
        <extensions>
          <ns3:TrackPointExtension>
            <ns3:hr>133</ns3:hr>
            <ns3:cad>63</ns3:cad>
          </ns3:TrackPointExtension>
        </extensions>
      </trkpt>
      <trkpt lat="37.08088793791830539703369140625" lon="-8.94847062416374683380126953125">
        <ele>145.600006103515625</ele>
        <time>2026-04-28T13:08:59.000Z</time>
        <extensions>
          <ns3:TrackPointExtension>
            <ns3:hr>136</ns3:hr>
            <ns3:cad>62</ns3:cad>
          </ns3:TrackPointExtension>
        </extensions>
      </trkpt>
      <trkpt lat="37.08091928623616695404052734375" lon="-8.94843466579914093017578125">
        <ele>145.8000030517578125</ele>
        <time>2026-04-28T13:09:02.000Z</time>
        <extensions>
          <ns3:TrackPointExtension>
            <ns3:hr>139</ns3:hr>
            <ns3:cad>64</ns3:cad>
          </ns3:TrackPointExtension>
        </extensions>
      </trkpt>
      <trkpt lat="37.0809393189847469329833984375" lon="-8.9484100230038166046142578125">
        <ele>146</ele>
        <time>2026-04-28T13:09:04.000Z</time>
        <extensions>
          <ns3:TrackPointExtension>
            <ns3:hr>142</ns3:hr>
            <ns3:cad>62</ns3:cad>
          </ns3:TrackPointExtension>
        </extensions>
      </trkpt>
      <trkpt lat="37.08095750771462917327880859375" lon="-8.94838999025523662567138671875">
        <ele>146</ele>
        <time>2026-04-28T13:09:06.000Z</time>
        <extensions>
          <ns3:TrackPointExtension>
            <ns3:hr>142</ns3:hr>
            <ns3:cad>62</ns3:cad>
          </ns3:TrackPointExtension>
        </extensions>
      </trkpt>
      <trkpt lat="37.0811096392571926116943359375" lon="-8.9482319913804531097412109375">
        <ele>146.600006103515625</ele>
        <time>2026-04-28T13:09:20.000Z</time>
        <extensions>
          <ns3:TrackPointExtension>
            <ns3:hr>141</ns3:hr>
            <ns3:cad>63</ns3:cad>
          </ns3:TrackPointExtension>
        </extensions>
      </trkpt>
      <trkpt lat="37.08112078718841075897216796875" lon="-8.94822168163955211639404296875">
        <ele>146.600006103515625</ele>
        <time>2026-04-28T13:09:21.000Z</time>
        <extensions>
          <ns3:TrackPointExtension>
            <ns3:hr>141</ns3:hr>
            <ns3:cad>63</ns3:cad>
          </ns3:TrackPointExtension>
        </extensions>
      </trkpt>
      <trkpt lat="37.08125338889658451080322265625" lon="-8.9480878226459026336669921875">
        <ele>147.1999969482421875</ele>
        <time>2026-04-28T13:09:33.000Z</time>
        <extensions>
          <ns3:TrackPointExtension>
            <ns3:hr>141</ns3:hr>
            <ns3:cad>63</ns3:cad>
          </ns3:TrackPointExtension>
        </extensions>
      </trkpt>
      <trkpt lat="37.081264369189739227294921875" lon="-8.94807868637144565582275390625">
        <ele>147.1999969482421875</ele>
        <time>2026-04-28T13:09:34.000Z</time>
        <extensions>
          <ns3:TrackPointExtension>
            <ns3:hr>141</ns3:hr>
            <ns3:cad>64</ns3:cad>
          </ns3:TrackPointExtension>
        </extensions>
      </trkpt>
      <trkpt lat="37.0814301632344722747802734375" lon="-8.94795320928096771240234375">
        <ele>147.600006103515625</ele>
        <time>2026-04-28T13:09:48.000Z</time>
        <extensions>
          <ns3:TrackPointExtension>
            <ns3:hr>140</ns3:hr>
            <ns3:cad>62</ns3:cad>
          </ns3:TrackPointExtension>
        </extensions>
      </trkpt>
      <trkpt lat="37.08153435029089450836181640625" lon="-8.9479265548288822174072265625">
        <ele>147.600006103515625</ele>
        <time>2026-04-28T13:09:56.000Z</time>
        <extensions>
          <ns3:TrackPointExtension>
            <ns3:hr>136</ns3:hr>
            <ns3:cad>59</ns3:cad>
          </ns3:TrackPointExtension>
        </extensions>
      </trkpt>
      <trkpt lat="37.08154893480241298675537109375" lon="-8.94791926257312297821044921875">
        <ele>147.399993896484375</ele>
        <time>2026-04-28T13:09:57.000Z</time>
        <extensions>
          <ns3:TrackPointExtension>
            <ns3:hr>135</ns3:hr>
            <ns3:cad>59</ns3:cad>
          </ns3:TrackPointExtension>
        </extensions>
      </trkpt>
      <trkpt lat="37.0816192589700222015380859375" lon="-8.94788841716945171356201171875">
        <ele>148.1999969482421875</ele>
        <time>2026-04-28T13:10:05.000Z</time>
        <extensions>
          <ns3:TrackPointExtension>
            <ns3:hr>134</ns3:hr>
            <ns3:cad>0</ns3:cad>
          </ns3:TrackPointExtension>
        </extensions>
      </trkpt>
      <trkpt lat="37.08162085153162479400634765625" lon="-8.947888500988483428955078125">
        <ele>148.1999969482421875</ele>
        <time>2026-04-28T13:10:06.000Z</time>
        <extensions>
          <ns3:TrackPointExtension>
            <ns3:hr>133</ns3:hr>
            <ns3:cad>0</ns3:cad>
          </ns3:TrackPointExtension>
        </extensions>
      </trkpt>
      <trkpt lat="37.08162068389356136322021484375" lon="-8.9478883333504199981689453125">
        <ele>147.600006103515625</ele>
        <time>2026-04-28T13:10:12.000Z</time>
        <extensions>
          <ns3:TrackPointExtension>
            <ns3:hr>138</ns3:hr>
            <ns3:cad>0</ns3:cad>
          </ns3:TrackPointExtension>
        </extensions>
      </trkpt>
      <trkpt lat="37.0816313289105892181396484375" lon="-8.94789495505392551422119140625">
        <ele>148.399993896484375</ele>
        <time>2026-04-28T13:10:16.000Z</time>
        <extensions>
          <ns3:TrackPointExtension>
            <ns3:hr>142</ns3:hr>
            <ns3:cad>0</ns3:cad>
          </ns3:TrackPointExtension>
        </extensions>
      </trkpt>
      <trkpt lat="37.0816286467015743255615234375" lon="-8.94789646379649639129638671875">
        <ele>148.1999969482421875</ele>
        <time>2026-04-28T13:10:18.000Z</time>
        <extensions>
          <ns3:TrackPointExtension>
            <ns3:hr>143</ns3:hr>
            <ns3:cad>0</ns3:cad>
          </ns3:TrackPointExtension>
        </extensions>
      </trkpt>
      <trkpt lat="37.08163283765316009521484375" lon="-8.9478950388729572296142578125">
        <ele>147.8000030517578125</ele>
        <time>2026-04-28T13:10:27.000Z</time>
        <extensions>
          <ns3:TrackPointExtension>
            <ns3:hr>138</ns3:hr>
            <ns3:cad>0</ns3:cad>
          </ns3:TrackPointExtension>
        </extensions>
      </trkpt>
      <trkpt lat="37.08163526840507984161376953125" lon="-8.94789814017713069915771484375">
        <ele>147.8000030517578125</ele>
        <time>2026-04-28T13:10:29.000Z</time>
        <extensions>
          <ns3:TrackPointExtension>
            <ns3:hr>134</ns3:hr>
            <ns3:cad>0</ns3:cad>
          </ns3:TrackPointExtension>
        </extensions>
      </trkpt>
      <trkpt lat="37.081631831824779510498046875" lon="-8.94789746962487697601318359375">
        <ele>147.8000030517578125</ele>
        <time>2026-04-28T13:10:30.000Z</time>
        <extensions>
          <ns3:TrackPointExtension>
            <ns3:hr>134</ns3:hr>
            <ns3:cad>0</ns3:cad>
          </ns3:TrackPointExtension>
        </extensions>
      </trkpt>
      <trkpt lat="37.08166502416133880615234375" lon="-8.94786461256444454193115234375">
        <ele>147.600006103515625</ele>
        <time>2026-04-28T13:10:36.000Z</time>
        <extensions>
          <ns3:TrackPointExtension>
            <ns3:hr>133</ns3:hr>
            <ns3:cad>60</ns3:cad>
          </ns3:TrackPointExtension>
        </extensions>
      </trkpt>
      <trkpt lat="37.0817181654274463653564453125" lon="-8.94783116877079010009765625">
        <ele>146.8000030517578125</ele>
        <time>2026-04-28T13:10:41.000Z</time>
        <extensions>
          <ns3:TrackPointExtension>
            <ns3:hr>134</ns3:hr>
            <ns3:cad>59</ns3:cad>
          </ns3:TrackPointExtension>
        </extensions>
      </trkpt>
      <trkpt lat="37.08176971413195133209228515625" lon="-8.9478135667741298675537109375">
        <ele>148</ele>
        <time>2026-04-28T13:10:45.000Z</time>
        <extensions>
          <ns3:TrackPointExtension>
            <ns3:hr>136</ns3:hr>
            <ns3:cad>62</ns3:cad>
          </ns3:TrackPointExtension>
        </extensions>
      </trkpt>
      <trkpt lat="37.08178706467151641845703125" lon="-8.94780728034675121307373046875">
        <ele>148.1999969482421875</ele>
        <time>2026-04-28T13:10:46.000Z</time>
        <extensions>
          <ns3:TrackPointExtension>
            <ns3:hr>137</ns3:hr>
            <ns3:cad>62</ns3:cad>
          </ns3:TrackPointExtension>
        </extensions>
      </trkpt>
      <trkpt lat="37.0818023197352886199951171875" lon="-8.94780275411903858184814453125">
        <ele>149</ele>
        <time>2026-04-28T13:10:47.000Z</time>
        <extensions>
          <ns3:TrackPointExtension>
            <ns3:hr>137</ns3:hr>
            <ns3:cad>62</ns3:cad>
          </ns3:TrackPointExtension>
        </extensions>
      </trkpt>
      <trkpt lat="37.08190734498202800750732421875" lon="-8.9477860741317272186279296875">
        <ele>149</ele>
        <time>2026-04-28T13:10:54.000Z</time>
        <extensions>
          <ns3:TrackPointExtension>
            <ns3:hr>137</ns3:hr>
            <ns3:cad>65</ns3:cad>
          </ns3:TrackPointExtension>
        </extensions>
      </trkpt>
      <trkpt lat="37.0819578878581523895263671875" lon="-8.947781212627887725830078125">
        <ele>149.399993896484375</ele>
        <time>2026-04-28T13:10:58.000Z</time>
        <extensions>
          <ns3:TrackPointExtension>
            <ns3:hr>140</ns3:hr>
            <ns3:cad>64</ns3:cad>
          </ns3:TrackPointExtension>
        </extensions>
      </trkpt>
      <trkpt lat="37.08202083595097064971923828125" lon="-8.947787247598171234130859375">
        <ele>149.600006103515625</ele>
        <time>2026-04-28T13:11:03.000Z</time>
        <extensions>
          <ns3:TrackPointExtension>
            <ns3:hr>137</ns3:hr>
            <ns3:cad>64</ns3:cad>
          </ns3:TrackPointExtension>
        </extensions>
      </trkpt>
      <trkpt lat="37.082064338028430938720703125" lon="-8.94779051654040813446044921875">
        <ele>149.600006103515625</ele>
        <time>2026-04-28T13:11:06.000Z</time>
        <extensions>
          <ns3:TrackPointExtension>
            <ns3:hr>136</ns3:hr>
            <ns3:cad>64</ns3:cad>
          </ns3:TrackPointExtension>
        </extensions>
      </trkpt>
      <trkpt lat="37.08212443627417087554931640625" lon="-8.9478098787367343902587890625">
        <ele>150.1999969482421875</ele>
        <time>2026-04-28T13:11:10.000Z</time>
        <extensions>
          <ns3:TrackPointExtension>
            <ns3:hr>134</ns3:hr>
            <ns3:cad>0</ns3:cad>
          </ns3:TrackPointExtension>
        </extensions>
      </trkpt>
      <trkpt lat="37.08217866718769073486328125" lon="-8.9478212781250476837158203125">
        <ele>149.8000030517578125</ele>
        <time>2026-04-28T13:11:14.000Z</time>
        <extensions>
          <ns3:TrackPointExtension>
            <ns3:hr>137</ns3:hr>
            <ns3:cad>64</ns3:cad>
          </ns3:TrackPointExtension>
        </extensions>
      </trkpt>
      <trkpt lat="37.08219182677567005157470703125" lon="-8.947825469076633453369140625">
        <ele>149.600006103515625</ele>
        <time>2026-04-28T13:11:15.000Z</time>
        <extensions>
          <ns3:TrackPointExtension>
            <ns3:hr>137</ns3:hr>
            <ns3:cad>62</ns3:cad>
          </ns3:TrackPointExtension>
        </extensions>
      </trkpt>
      <trkpt lat="37.08220490254461765289306640625" lon="-8.9478299953043460845947265625">
        <ele>149</ele>
        <time>2026-04-28T13:11:16.000Z</time>
        <extensions>
          <ns3:TrackPointExtension>
            <ns3:hr>137</ns3:hr>
            <ns3:cad>62</ns3:cad>
          </ns3:TrackPointExtension>
        </extensions>
      </trkpt>
      <trkpt lat="37.08223155699670314788818359375" lon="-8.9478397183120250701904296875">
        <ele>147.8000030517578125</ele>
        <time>2026-04-28T13:11:18.000Z</time>
        <extensions>
          <ns3:TrackPointExtension>
            <ns3:hr>137</ns3:hr>
            <ns3:cad>64</ns3:cad>
          </ns3:TrackPointExtension>
        </extensions>
      </trkpt>
      <trkpt lat="37.08233155310153961181640625" lon="-8.94786746241152286529541015625">
        <ele>147.8000030517578125</ele>
        <time>2026-04-28T13:11:25.000Z</time>
        <extensions>
          <ns3:TrackPointExtension>
            <ns3:hr>137</ns3:hr>
            <ns3:cad>61</ns3:cad>
          </ns3:TrackPointExtension>
        </extensions>
      </trkpt>
      <trkpt lat="37.082428447902202606201171875" lon="-8.9478843100368976593017578125">
        <ele>148.600006103515625</ele>
        <time>2026-04-28T13:11:32.000Z</time>
        <extensions>
          <ns3:TrackPointExtension>
            <ns3:hr>134</ns3:hr>
            <ns3:cad>62</ns3:cad>
          </ns3:TrackPointExtension>
        </extensions>
      </trkpt>
      <trkpt lat="37.082439847290515899658203125" lon="-8.9478863216936588287353515625">
        <ele>148.8000030517578125</ele>
        <time>2026-04-28T13:11:33.000Z</time>
        <extensions>
          <ns3:TrackPointExtension>
            <ns3:hr>133</ns3:hr>
            <ns3:cad>62</ns3:cad>
          </ns3:TrackPointExtension>
        </extensions>
      </trkpt>
      <trkpt lat="37.08246323280036449432373046875" lon="-8.9478900097310543060302734375">
        <ele>149.1999969482421875</ele>
        <time>2026-04-28T13:11:37.000Z</time>
        <extensions>
          <ns3:TrackPointExtension>
            <ns3:hr>133</ns3:hr>
            <ns3:cad>0</ns3:cad>
          </ns3:TrackPointExtension>
        </extensions>
      </trkpt>
      <trkpt lat="37.08246524445712566375732421875" lon="-8.9478843100368976593017578125">
        <ele>149.8000030517578125</ele>
        <time>2026-04-28T13:11:43.000Z</time>
        <extensions>
          <ns3:TrackPointExtension>
            <ns3:hr>133</ns3:hr>
            <ns3:cad>0</ns3:cad>
          </ns3:TrackPointExtension>
        </extensions>
      </trkpt>
      <trkpt lat="37.082468010485172271728515625" lon="-8.94788171164691448211669921875">
        <ele>149.8000030517578125</ele>
        <time>2026-04-28T13:11:45.000Z</time>
        <extensions>
          <ns3:TrackPointExtension>
            <ns3:hr>133</ns3:hr>
            <ns3:cad>0</ns3:cad>
          </ns3:TrackPointExtension>
        </extensions>
      </trkpt>
      <trkpt lat="37.08248049952089786529541015625" lon="-8.9478947035968303680419921875">
        <ele>150.1999969482421875</ele>
        <time>2026-04-28T13:11:55.000Z</time>
        <extensions>
          <ns3:TrackPointExtension>
            <ns3:hr>134</ns3:hr>
            <ns3:cad>0</ns3:cad>
          </ns3:TrackPointExtension>
        </extensions>
      </trkpt>
      <trkpt lat="37.08257504738867282867431640625" lon="-8.94790719263255596160888671875">
        <ele>150.399993896484375</ele>
        <time>2026-04-28T13:12:03.000Z</time>
        <extensions>
          <ns3:TrackPointExtension>
            <ns3:hr>133</ns3:hr>
            <ns3:cad>53</ns3:cad>
          </ns3:TrackPointExtension>
        </extensions>
      </trkpt>
      <trkpt lat="37.08265501074492931365966796875" lon="-8.94788254983723163604736328125">
        <ele>150</ele>
        <time>2026-04-28T13:12:09.000Z</time>
        <extensions>
          <ns3:TrackPointExtension>
            <ns3:hr>133</ns3:hr>
            <ns3:cad>62</ns3:cad>
          </ns3:TrackPointExtension>
        </extensions>
      </trkpt>
      <trkpt lat="37.082719467580318450927734375" lon="-8.9478477649390697479248046875">
        <ele>149.8000030517578125</ele>
        <time>2026-04-28T13:12:14.000Z</time>
        <extensions>
          <ns3:TrackPointExtension>
            <ns3:hr>130</ns3:hr>
            <ns3:cad>64</ns3:cad>
          </ns3:TrackPointExtension>
        </extensions>
      </trkpt>
      <trkpt lat="37.0827578566968441009521484375" lon="-8.94780141301453113555908203125">
        <ele>150</ele>
        <time>2026-04-28T13:12:18.000Z</time>
        <extensions>
          <ns3:TrackPointExtension>
            <ns3:hr>131</ns3:hr>
            <ns3:cad>61</ns3:cad>
          </ns3:TrackPointExtension>
        </extensions>
      </trkpt>
      <trkpt lat="37.0828198827803134918212890625" lon="-8.947636373341083526611328125">
        <ele>150</ele>
        <time>2026-04-28T13:12:28.000Z</time>
        <extensions>
          <ns3:TrackPointExtension>
            <ns3:hr>133</ns3:hr>
            <ns3:cad>64</ns3:cad>
          </ns3:TrackPointExtension>
        </extensions>
      </trkpt>
      <trkpt lat="37.08286707289516925811767578125" lon="-8.9474672265350818634033203125">
        <ele>150</ele>
        <time>2026-04-28T13:12:39.000Z</time>
        <extensions>
          <ns3:TrackPointExtension>
            <ns3:hr>135</ns3:hr>
            <ns3:cad>65</ns3:cad>
          </ns3:TrackPointExtension>
        </extensions>
      </trkpt>
      <trkpt lat="37.08287562243640422821044921875" lon="-8.9474440924823284149169921875">
        <ele>150.1999969482421875</ele>
        <time>2026-04-28T13:12:46.000Z</time>
        <extensions>
          <ns3:TrackPointExtension>
            <ns3:hr>134</ns3:hr>
            <ns3:cad>0</ns3:cad>
          </ns3:TrackPointExtension>
        </extensions>
      </trkpt>
      <trkpt lat="37.08287562243640422821044921875" lon="-8.9474440924823284149169921875">
        <ele>150</ele>
        <time>2026-04-28T13:12:55.000Z</time>
        <extensions>
          <ns3:TrackPointExtension>
            <ns3:hr>137</ns3:hr>
            <ns3:cad>0</ns3:cad>
          </ns3:TrackPointExtension>
        </extensions>
      </trkpt>
      <trkpt lat="37.08287562243640422821044921875" lon="-8.9474440924823284149169921875">
        <ele>150</ele>
        <time>2026-04-28T13:13:02.000Z</time>
        <extensions>
          <ns3:TrackPointExtension>
            <ns3:hr>138</ns3:hr>
            <ns3:cad>0</ns3:cad>
          </ns3:TrackPointExtension>
        </extensions>
      </trkpt>
      <trkpt lat="37.0828795619308948516845703125" lon="-8.94739304669201374053955078125">
        <ele>149.600006103515625</ele>
        <time>2026-04-28T13:13:08.000Z</time>
        <extensions>
          <ns3:TrackPointExtension>
            <ns3:hr>137</ns3:hr>
            <ns3:cad>0</ns3:cad>
          </ns3:TrackPointExtension>
        </extensions>
      </trkpt>
      <trkpt lat="37.08291300572454929351806640625" lon="-8.94725105725228786468505859375">
        <ele>149.600006103515625</ele>
        <time>2026-04-28T13:13:16.000Z</time>
        <extensions>
          <ns3:TrackPointExtension>
            <ns3:hr>134</ns3:hr>
            <ns3:cad>62</ns3:cad>
          </ns3:TrackPointExtension>
        </extensions>
      </trkpt>
      <trkpt lat="37.0829196274280548095703125" lon="-8.9472342096269130706787109375">
        <ele>149.600006103515625</ele>
        <time>2026-04-28T13:13:17.000Z</time>
        <extensions>
          <ns3:TrackPointExtension>
            <ns3:hr>134</ns3:hr>
            <ns3:cad>62</ns3:cad>
          </ns3:TrackPointExtension>
        </extensions>
      </trkpt>
      <trkpt lat="37.08294284529983997344970703125" lon="-8.94714988768100738525390625">
        <ele>149.600006103515625</ele>
        <time>2026-04-28T13:13:22.000Z</time>
        <extensions>
          <ns3:TrackPointExtension>
            <ns3:hr>131</ns3:hr>
            <ns3:cad>64</ns3:cad>
          </ns3:TrackPointExtension>
        </extensions>
      </trkpt>
      <trkpt lat="37.08295323885977268218994140625" lon="-8.947046287357807159423828125">
        <ele>149.600006103515625</ele>
        <time>2026-04-28T13:13:28.000Z</time>
        <extensions>
          <ns3:TrackPointExtension>
            <ns3:hr>130</ns3:hr>
            <ns3:cad>64</ns3:cad>
          </ns3:TrackPointExtension>
        </extensions>
      </trkpt>
      <trkpt lat="37.0829357206821441650390625" lon="-8.94683565013110637664794921875">
        <ele>149.600006103515625</ele>
        <time>2026-04-28T13:13:40.000Z</time>
        <extensions>
          <ns3:TrackPointExtension>
            <ns3:hr>129</ns3:hr>
            <ns3:cad>63</ns3:cad>
          </ns3:TrackPointExtension>
        </extensions>
      </trkpt>
      <trkpt lat="37.082911916077136993408203125" lon="-8.94665711559355258941650390625">
        <ele>149.600006103515625</ele>
        <time>2026-04-28T13:13:50.000Z</time>
        <extensions>
          <ns3:TrackPointExtension>
            <ns3:hr>129</ns3:hr>
            <ns3:cad>62</ns3:cad>
          </ns3:TrackPointExtension>
        </extensions>
      </trkpt>
      <trkpt lat="37.08289682865142822265625" lon="-8.9464774914085865020751953125">
        <ele>149.399993896484375</ele>
        <time>2026-04-28T13:14:00.000Z</time>
        <extensions>
          <ns3:TrackPointExtension>
            <ns3:hr>130</ns3:hr>
            <ns3:cad>64</ns3:cad>
          </ns3:TrackPointExtension>
        </extensions>
      </trkpt>
      <trkpt lat="37.08287713117897510528564453125" lon="-8.9462788403034210205078125">
        <ele>149</ele>
        <time>2026-04-28T13:14:11.000Z</time>
        <extensions>
          <ns3:TrackPointExtension>
            <ns3:hr>129</ns3:hr>
            <ns3:cad>63</ns3:cad>
          </ns3:TrackPointExtension>
        </extensions>
      </trkpt>
      <trkpt lat="37.082877717912197113037109375" lon="-8.94622796215116977691650390625">
        <ele>148.8000030517578125</ele>
        <time>2026-04-28T13:14:14.000Z</time>
        <extensions>
          <ns3:TrackPointExtension>
            <ns3:hr>129</ns3:hr>
            <ns3:cad>61</ns3:cad>
          </ns3:TrackPointExtension>
        </extensions>
      </trkpt>
      <trkpt lat="37.08285734988749027252197265625" lon="-8.94610675983130931854248046875">
        <ele>148.399993896484375</ele>
        <time>2026-04-28T13:14:21.000Z</time>
        <extensions>
          <ns3:TrackPointExtension>
            <ns3:hr>128</ns3:hr>
            <ns3:cad>61</ns3:cad>
          </ns3:TrackPointExtension>
        </extensions>
      </trkpt>
      <trkpt lat="37.08286355249583721160888671875" lon="-8.94590961746871471405029296875">
        <ele>147.8000030517578125</ele>
        <time>2026-04-28T13:14:32.000Z</time>
        <extensions>
          <ns3:TrackPointExtension>
            <ns3:hr>129</ns3:hr>
            <ns3:cad>63</ns3:cad>
          </ns3:TrackPointExtension>
        </extensions>
      </trkpt>
      <trkpt lat="37.0828633010387420654296875" lon="-8.94587273709475994110107421875">
        <ele>147.8000030517578125</ele>
        <time>2026-04-28T13:14:34.000Z</time>
        <extensions>
          <ns3:TrackPointExtension>
            <ns3:hr>129</ns3:hr>
            <ns3:cad>62</ns3:cad>
          </ns3:TrackPointExtension>
        </extensions>
      </trkpt>
      <trkpt lat="37.0828725211322307586669921875" lon="-8.94566050730645656585693359375">
        <ele>147.600006103515625</ele>
        <time>2026-04-28T13:14:46.000Z</time>
        <extensions>
          <ns3:TrackPointExtension>
            <ns3:hr>128</ns3:hr>
            <ns3:cad>62</ns3:cad>
          </ns3:TrackPointExtension>
        </extensions>
      </trkpt>
      <trkpt lat="37.0828755386173725128173828125" lon="-8.9454393088817596435546875">
        <ele>146.8000030517578125</ele>
        <time>2026-04-28T13:14:58.000Z</time>
        <extensions>
          <ns3:TrackPointExtension>
            <ns3:hr>128</ns3:hr>
            <ns3:cad>62</ns3:cad>
          </ns3:TrackPointExtension>
        </extensions>
      </trkpt>
      <trkpt lat="37.082878388464450836181640625" lon="-8.9454015903174877166748046875">
        <ele>147</ele>
        <time>2026-04-28T13:15:00.000Z</time>
        <extensions>
          <ns3:TrackPointExtension>
            <ns3:hr>131</ns3:hr>
            <ns3:cad>62</ns3:cad>
          </ns3:TrackPointExtension>
        </extensions>
      </trkpt>
      <trkpt lat="37.0828886143863201141357421875" lon="-8.94533495418727397918701171875">
        <ele>146.600006103515625</ele>
        <time>2026-04-28T13:15:04.000Z</time>
        <extensions>
          <ns3:TrackPointExtension>
            <ns3:hr>131</ns3:hr>
            <ns3:cad>62</ns3:cad>
          </ns3:TrackPointExtension>
        </extensions>
      </trkpt>
      <trkpt lat="37.0828849263489246368408203125" lon="-8.94527971744537353515625">
        <ele>146.1999969482421875</ele>
        <time>2026-04-28T13:15:07.000Z</time>
        <extensions>
          <ns3:TrackPointExtension>
            <ns3:hr>131</ns3:hr>
            <ns3:cad>63</ns3:cad>
          </ns3:TrackPointExtension>
        </extensions>
      </trkpt>
      <trkpt lat="37.082899510860443115234375" lon="-8.94510713405907154083251953125">
        <ele>145.600006103515625</ele>
        <time>2026-04-28T13:15:16.000Z</time>
        <extensions>
          <ns3:TrackPointExtension>
            <ns3:hr>131</ns3:hr>
            <ns3:cad>62</ns3:cad>
          </ns3:TrackPointExtension>
        </extensions>
      </trkpt>
      <trkpt lat="37.08290831185877323150634765625" lon="-8.9449063874781131744384765625">
        <ele>145.1999969482421875</ele>
        <time>2026-04-28T13:15:27.000Z</time>
        <extensions>
          <ns3:TrackPointExtension>
            <ns3:hr>129</ns3:hr>
            <ns3:cad>63</ns3:cad>
          </ns3:TrackPointExtension>
        </extensions>
      </trkpt>
      <trkpt lat="37.082921974360942840576171875" lon="-8.94469700753688812255859375">
        <ele>144.600006103515625</ele>
        <time>2026-04-28T13:15:38.000Z</time>
        <extensions>
          <ns3:TrackPointExtension>
            <ns3:hr>128</ns3:hr>
            <ns3:cad>62</ns3:cad>
          </ns3:TrackPointExtension>
        </extensions>
      </trkpt>
      <trkpt lat="37.0829258300364017486572265625" lon="-8.94467798061668872833251953125">
        <ele>144.399993896484375</ele>
        <time>2026-04-28T13:15:39.000Z</time>
        <extensions>
          <ns3:TrackPointExtension>
            <ns3:hr>129</ns3:hr>
            <ns3:cad>62</ns3:cad>
          </ns3:TrackPointExtension>
        </extensions>
      </trkpt>
      <trkpt lat="37.08295659162104129791259765625" lon="-8.9444695226848125457763671875">
        <ele>143.8000030517578125</ele>
        <time>2026-04-28T13:15:51.000Z</time>
        <extensions>
          <ns3:TrackPointExtension>
            <ns3:hr>127</ns3:hr>
            <ns3:cad>63</ns3:cad>
          </ns3:TrackPointExtension>
        </extensions>
      </trkpt>
      <trkpt lat="37.08299581892788410186767578125" lon="-8.94424849189817905426025390625">
        <ele>143.8000030517578125</ele>
        <time>2026-04-28T13:16:03.000Z</time>
        <extensions>
          <ns3:TrackPointExtension>
            <ns3:hr>128</ns3:hr>
            <ns3:cad>64</ns3:cad>
          </ns3:TrackPointExtension>
        </extensions>
      </trkpt>
      <trkpt lat="37.0830099843442440032958984375" lon="-8.94413801841437816619873046875">
        <ele>143.600006103515625</ele>
        <time>2026-04-28T13:16:09.000Z</time>
        <extensions>
          <ns3:TrackPointExtension>
            <ns3:hr>131</ns3:hr>
            <ns3:cad>62</ns3:cad>
          </ns3:TrackPointExtension>
        </extensions>
      </trkpt>
      <trkpt lat="37.0830150134861469268798828125" lon="-8.94410013221204280853271484375">
        <ele>143.399993896484375</ele>
        <time>2026-04-28T13:16:11.000Z</time>
        <extensions>
          <ns3:TrackPointExtension>
            <ns3:hr>132</ns3:hr>
            <ns3:cad>63</ns3:cad>
          </ns3:TrackPointExtension>
        </extensions>
      </trkpt>
      <trkpt lat="37.08303605206310749053955078125" lon="-8.943995945155620574951171875">
        <ele>143.8000030517578125</ele>
        <time>2026-04-28T13:16:17.000Z</time>
        <extensions>
          <ns3:TrackPointExtension>
            <ns3:hr>131</ns3:hr>
            <ns3:cad>63</ns3:cad>
          </ns3:TrackPointExtension>
        </extensions>
      </trkpt>
      <trkpt lat="37.08306488581001758575439453125" lon="-8.9438381977379322052001953125">
        <ele>143.600006103515625</ele>
        <time>2026-04-28T13:16:26.000Z</time>
        <extensions>
          <ns3:TrackPointExtension>
            <ns3:hr>134</ns3:hr>
            <ns3:cad>63</ns3:cad>
          </ns3:TrackPointExtension>
        </extensions>
      </trkpt>
      <trkpt lat="37.08307586610317230224609375" lon="-8.9437594078481197357177734375">
        <ele>143.399993896484375</ele>
        <time>2026-04-28T13:16:30.000Z</time>
        <extensions>
          <ns3:TrackPointExtension>
            <ns3:hr>134</ns3:hr>
            <ns3:cad>63</ns3:cad>
          </ns3:TrackPointExtension>
        </extensions>
      </trkpt>
      <trkpt lat="37.08309807814657688140869140625" lon="-8.94356586970388889312744140625">
        <ele>143.1999969482421875</ele>
        <time>2026-04-28T13:16:41.000Z</time>
        <extensions>
          <ns3:TrackPointExtension>
            <ns3:hr>133</ns3:hr>
            <ns3:cad>63</ns3:cad>
          </ns3:TrackPointExtension>
        </extensions>
      </trkpt>
      <trkpt lat="37.083103694021701812744140625" lon="-8.94339202903211116790771484375">
        <ele>142.8000030517578125</ele>
        <time>2026-04-28T13:16:50.000Z</time>
        <extensions>
          <ns3:TrackPointExtension>
            <ns3:hr>132</ns3:hr>
            <ns3:cad>63</ns3:cad>
          </ns3:TrackPointExtension>
        </extensions>
      </trkpt>
      <trkpt lat="37.0831038616597652435302734375" lon="-8.94328373484313488006591796875">
        <ele>142.600006103515625</ele>
        <time>2026-04-28T13:16:56.000Z</time>
        <extensions>
          <ns3:TrackPointExtension>
            <ns3:hr>129</ns3:hr>
            <ns3:cad>63</ns3:cad>
          </ns3:TrackPointExtension>
        </extensions>
      </trkpt>
      <trkpt lat="37.08310939371585845947265625" lon="-8.9431941322982311248779296875">
        <ele>142.399993896484375</ele>
        <time>2026-04-28T13:17:01.000Z</time>
        <extensions>
          <ns3:TrackPointExtension>
            <ns3:hr>131</ns3:hr>
            <ns3:cad>64</ns3:cad>
          </ns3:TrackPointExtension>
        </extensions>
      </trkpt>
      <trkpt lat="37.08310780115425586700439453125" lon="-8.94317493773996829986572265625">
        <ele>142.399993896484375</ele>
        <time>2026-04-28T13:17:02.000Z</time>
        <extensions>
          <ns3:TrackPointExtension>
            <ns3:hr>131</ns3:hr>
            <ns3:cad>64</ns3:cad>
          </ns3:TrackPointExtension>
        </extensions>
      </trkpt>
      <trkpt lat="37.0830981619656085968017578125" lon="-8.94295751117169857025146484375">
        <ele>142.600006103515625</ele>
        <time>2026-04-28T13:17:14.000Z</time>
        <extensions>
          <ns3:TrackPointExtension>
            <ns3:hr>131</ns3:hr>
            <ns3:cad>62</ns3:cad>
          </ns3:TrackPointExtension>
        </extensions>
      </trkpt>
      <trkpt lat="37.083092965185642242431640625" lon="-8.94272315315902233123779296875">
        <ele>141.8000030517578125</ele>
        <time>2026-04-28T13:17:26.000Z</time>
        <extensions>
          <ns3:TrackPointExtension>
            <ns3:hr>131</ns3:hr>
            <ns3:cad>63</ns3:cad>
          </ns3:TrackPointExtension>
        </extensions>
      </trkpt>
      <trkpt lat="37.08309321664273738861083984375" lon="-8.9427046291530132293701171875">
        <ele>141.8000030517578125</ele>
        <time>2026-04-28T13:17:27.000Z</time>
        <extensions>
          <ns3:TrackPointExtension>
            <ns3:hr>131</ns3:hr>
            <ns3:cad>63</ns3:cad>
          </ns3:TrackPointExtension>
        </extensions>
      </trkpt>
      <trkpt lat="37.08309330046176910400390625" lon="-8.94259206019341945648193359375">
        <ele>141.399993896484375</ele>
        <time>2026-04-28T13:17:33.000Z</time>
        <extensions>
          <ns3:TrackPointExtension>
            <ns3:hr>131</ns3:hr>
            <ns3:cad>64</ns3:cad>
          </ns3:TrackPointExtension>
        </extensions>
      </trkpt>
      <trkpt lat="37.08309422247111797332763671875" lon="-8.94246197305619716644287109375">
        <ele>141.399993896484375</ele>
        <time>2026-04-28T13:17:40.000Z</time>
        <extensions>
          <ns3:TrackPointExtension>
            <ns3:hr>131</ns3:hr>
            <ns3:cad>63</ns3:cad>
          </ns3:TrackPointExtension>
        </extensions>
      </trkpt>
      <trkpt lat="37.08309254609048366546630859375" lon="-8.94228033721446990966796875">
        <ele>141.1999969482421875</ele>
        <time>2026-04-28T13:17:50.000Z</time>
        <extensions>
          <ns3:TrackPointExtension>
            <ns3:hr>131</ns3:hr>
            <ns3:cad>64</ns3:cad>
          </ns3:TrackPointExtension>
        </extensions>
      </trkpt>
      <trkpt lat="37.0830760337412357330322265625" lon="-8.9420930854976177215576171875">
        <ele>140.8000030517578125</ele>
        <time>2026-04-28T13:18:00.000Z</time>
        <extensions>
          <ns3:TrackPointExtension>
            <ns3:hr>131</ns3:hr>
            <ns3:cad>64</ns3:cad>
          </ns3:TrackPointExtension>
        </extensions>
      </trkpt>
      <trkpt lat="37.08306119777262210845947265625" lon="-8.9419122040271759033203125">
        <ele>140.399993896484375</ele>
        <time>2026-04-28T13:18:10.000Z</time>
        <extensions>
          <ns3:TrackPointExtension>
            <ns3:hr>131</ns3:hr>
            <ns3:cad>63</ns3:cad>
          </ns3:TrackPointExtension>
        </extensions>
      </trkpt>
      <trkpt lat="37.0830589346587657928466796875" lon="-8.9418934285640716552734375">
        <ele>140.399993896484375</ele>
        <time>2026-04-28T13:18:11.000Z</time>
        <extensions>
          <ns3:TrackPointExtension>
            <ns3:hr>130</ns3:hr>
            <ns3:cad>64</ns3:cad>
          </ns3:TrackPointExtension>
        </extensions>
      </trkpt>
      <trkpt lat="37.08303186111152172088623046875" lon="-8.94171799533069133758544921875">
        <ele>139.8000030517578125</ele>
        <time>2026-04-28T13:18:21.000Z</time>
        <extensions>
          <ns3:TrackPointExtension>
            <ns3:hr>130</ns3:hr>
            <ns3:cad>63</ns3:cad>
          </ns3:TrackPointExtension>
        </extensions>
      </trkpt>
      <trkpt lat="37.0830301009118556976318359375" lon="-8.941545076668262481689453125">
        <ele>139.399993896484375</ele>
        <time>2026-04-28T13:18:31.000Z</time>
        <extensions>
          <ns3:TrackPointExtension>
            <ns3:hr>130</ns3:hr>
            <ns3:cad>62</ns3:cad>
          </ns3:TrackPointExtension>
        </extensions>
      </trkpt>
      <trkpt lat="37.08302699960768222808837890625" lon="-8.941528983414173126220703125">
        <ele>139.399993896484375</ele>
        <time>2026-04-28T13:18:32.000Z</time>
        <extensions>
          <ns3:TrackPointExtension>
            <ns3:hr>129</ns3:hr>
            <ns3:cad>62</ns3:cad>
          </ns3:TrackPointExtension>
        </extensions>
      </trkpt>
      <trkpt lat="37.08300487138330936431884765625" lon="-8.94134617410600185394287109375">
        <ele>138.8000030517578125</ele>
        <time>2026-04-28T13:18:42.000Z</time>
        <extensions>
          <ns3:TrackPointExtension>
            <ns3:hr>130</ns3:hr>
            <ns3:cad>62</ns3:cad>
          </ns3:TrackPointExtension>
        </extensions>
      </trkpt>
      <trkpt lat="37.082987017929553985595703125" lon="-8.9411727525293827056884765625">
        <ele>138.8000030517578125</ele>
        <time>2026-04-28T13:18:52.000Z</time>
        <extensions>
          <ns3:TrackPointExtension>
            <ns3:hr>130</ns3:hr>
            <ns3:cad>64</ns3:cad>
          </ns3:TrackPointExtension>
        </extensions>
      </trkpt>
      <trkpt lat="37.08298257552087306976318359375" lon="-8.9409732632339000701904296875">
        <ele>138.600006103515625</ele>
        <time>2026-04-28T13:19:03.000Z</time>
        <extensions>
          <ns3:TrackPointExtension>
            <ns3:hr>127</ns3:hr>
            <ns3:cad>64</ns3:cad>
          </ns3:TrackPointExtension>
        </extensions>
      </trkpt>
      <trkpt lat="37.08298332989215850830078125" lon="-8.9409531466662883758544921875">
        <ele>138.600006103515625</ele>
        <time>2026-04-28T13:19:04.000Z</time>
        <extensions>
          <ns3:TrackPointExtension>
            <ns3:hr>127</ns3:hr>
            <ns3:cad>64</ns3:cad>
          </ns3:TrackPointExtension>
        </extensions>
      </trkpt>
      <trkpt lat="37.082982994616031646728515625" lon="-8.94087695516645908355712890625">
        <ele>138.1999969482421875</ele>
        <time>2026-04-28T13:19:08.000Z</time>
        <extensions>
          <ns3:TrackPointExtension>
            <ns3:hr>128</ns3:hr>
            <ns3:cad>62</ns3:cad>
          </ns3:TrackPointExtension>
        </extensions>
      </trkpt>
      <trkpt lat="37.0829811505973339080810546875" lon="-8.94081182777881622314453125">
        <ele>138</ele>
        <time>2026-04-28T13:19:12.000Z</time>
        <extensions>
          <ns3:TrackPointExtension>
            <ns3:hr>128</ns3:hr>
            <ns3:cad>62</ns3:cad>
          </ns3:TrackPointExtension>
        </extensions>
      </trkpt>
      <trkpt lat="37.0829717628657817840576171875" lon="-8.940572105348110198974609375">
        <ele>137.399993896484375</ele>
        <time>2026-04-28T13:19:25.000Z</time>
        <extensions>
          <ns3:TrackPointExtension>
            <ns3:hr>128</ns3:hr>
            <ns3:cad>62</ns3:cad>
          </ns3:TrackPointExtension>
        </extensions>
      </trkpt>
      <trkpt lat="37.0829694159328937530517578125" lon="-8.94055324606597423553466796875">
        <ele>137.399993896484375</ele>
        <time>2026-04-28T13:19:26.000Z</time>
        <extensions>
          <ns3:TrackPointExtension>
            <ns3:hr>128</ns3:hr>
            <ns3:cad>62</ns3:cad>
          </ns3:TrackPointExtension>
        </extensions>
      </trkpt>
      <trkpt lat="37.082968913018703460693359375" lon="-8.94053421914577484130859375">
        <ele>137.1999969482421875</ele>
        <time>2026-04-28T13:19:27.000Z</time>
        <extensions>
          <ns3:TrackPointExtension>
            <ns3:hr>127</ns3:hr>
            <ns3:cad>62</ns3:cad>
          </ns3:TrackPointExtension>
        </extensions>
      </trkpt>
      <trkpt lat="37.08296321332454681396484375" lon="-8.94036264158785343170166015625">
        <ele>136.600006103515625</ele>
        <time>2026-04-28T13:19:37.000Z</time>
        <extensions>
          <ns3:TrackPointExtension>
            <ns3:hr>129</ns3:hr>
            <ns3:cad>63</ns3:cad>
          </ns3:TrackPointExtension>
        </extensions>
      </trkpt>
      <trkpt lat="37.08296078257262706756591796875" lon="-8.9402487315237522125244140625">
        <ele>136.8000030517578125</ele>
        <time>2026-04-28T13:19:44.000Z</time>
        <extensions>
          <ns3:TrackPointExtension>
            <ns3:hr>126</ns3:hr>
            <ns3:cad>62</ns3:cad>
          </ns3:TrackPointExtension>
        </extensions>
      </trkpt>
      <trkpt lat="37.08297017030417919158935546875" lon="-8.9401981048285961151123046875">
        <ele>136.600006103515625</ele>
        <time>2026-04-28T13:19:48.000Z</time>
        <extensions>
          <ns3:TrackPointExtension>
            <ns3:hr>125</ns3:hr>
            <ns3:cad>62</ns3:cad>
          </ns3:TrackPointExtension>
        </extensions>
      </trkpt>
      <trkpt lat="37.08297586999833583831787109375" lon="-8.94006541930139064788818359375">
        <ele>136.399993896484375</ele>
        <time>2026-04-28T13:19:55.000Z</time>
        <extensions>
          <ns3:TrackPointExtension>
            <ns3:hr>125</ns3:hr>
            <ns3:cad>60</ns3:cad>
          </ns3:TrackPointExtension>
        </extensions>
      </trkpt>
      <trkpt lat="37.08296782337129116058349609375" lon="-8.939986042678356170654296875">
        <ele>136.1999969482421875</ele>
        <time>2026-04-28T13:20:00.000Z</time>
        <extensions>
          <ns3:TrackPointExtension>
            <ns3:hr>126</ns3:hr>
            <ns3:cad>62</ns3:cad>
          </ns3:TrackPointExtension>
        </extensions>
      </trkpt>
      <trkpt lat="37.082965560257434844970703125" lon="-8.93987766467034816741943359375">
        <ele>136.1999969482421875</ele>
        <time>2026-04-28T13:20:06.000Z</time>
        <extensions>
          <ns3:TrackPointExtension>
            <ns3:hr>127</ns3:hr>
            <ns3:cad>64</ns3:cad>
          </ns3:TrackPointExtension>
        </extensions>
      </trkpt>
      <trkpt lat="37.0829456113278865814208984375" lon="-8.9396703802049160003662109375">
        <ele>135.8000030517578125</ele>
        <time>2026-04-28T13:20:17.000Z</time>
        <extensions>
          <ns3:TrackPointExtension>
            <ns3:hr>129</ns3:hr>
            <ns3:cad>62</ns3:cad>
          </ns3:TrackPointExtension>
        </extensions>
      </trkpt>
      <trkpt lat="37.08291099406778812408447265625" lon="-8.93955697305500507354736328125">
        <ele>135.8000030517578125</ele>
        <time>2026-04-28T13:20:24.000Z</time>
        <extensions>
          <ns3:TrackPointExtension>
            <ns3:hr>126</ns3:hr>
            <ns3:cad>61</ns3:cad>
          </ns3:TrackPointExtension>
        </extensions>
      </trkpt>
      <trkpt lat="37.0828866027295589447021484375" lon="-8.9394749142229557037353515625">
        <ele>136</ele>
        <time>2026-04-28T13:20:29.000Z</time>
        <extensions>
          <ns3:TrackPointExtension>
            <ns3:hr>126</ns3:hr>
            <ns3:cad>64</ns3:cad>
          </ns3:TrackPointExtension>
        </extensions>
      </trkpt>
      <trkpt lat="37.08283069543540477752685546875" lon="-8.93930132500827312469482421875">
        <ele>135.399993896484375</ele>
        <time>2026-04-28T13:20:40.000Z</time>
        <extensions>
          <ns3:TrackPointExtension>
            <ns3:hr>124</ns3:hr>
            <ns3:cad>62</ns3:cad>
          </ns3:TrackPointExtension>
        </extensions>
      </trkpt>
      <trkpt lat="37.082814015448093414306640625" lon="-8.9392479322850704193115234375">
        <ele>135.1999969482421875</ele>
        <time>2026-04-28T13:20:43.000Z</time>
        <extensions>
          <ns3:TrackPointExtension>
            <ns3:hr>125</ns3:hr>
            <ns3:cad>62</ns3:cad>
          </ns3:TrackPointExtension>
        </extensions>
      </trkpt>
      <trkpt lat="37.0827933959662914276123046875" lon="-8.939185403287410736083984375">
        <ele>135.1999969482421875</ele>
        <time>2026-04-28T13:20:47.000Z</time>
        <extensions>
          <ns3:TrackPointExtension>
            <ns3:hr>128</ns3:hr>
            <ns3:cad>62</ns3:cad>
          </ns3:TrackPointExtension>
        </extensions>
      </trkpt>
      <trkpt lat="37.08278023637831211090087890625" lon="-8.939135111868381500244140625">
        <ele>135.1999969482421875</ele>
        <time>2026-04-28T13:20:50.000Z</time>
        <extensions>
          <ns3:TrackPointExtension>
            <ns3:hr>128</ns3:hr>
            <ns3:cad>64</ns3:cad>
          </ns3:TrackPointExtension>
        </extensions>
      </trkpt>
      <trkpt lat="37.08273120224475860595703125" lon="-8.9389683119952678680419921875">
        <ele>135.1999969482421875</ele>
        <time>2026-04-28T13:21:00.000Z</time>
        <extensions>
          <ns3:TrackPointExtension>
            <ns3:hr>127</ns3:hr>
            <ns3:cad>63</ns3:cad>
          </ns3:TrackPointExtension>
        </extensions>
      </trkpt>
      <trkpt lat="37.08270563744008541107177734375" lon="-8.9387741871178150177001953125">
        <ele>134.8000030517578125</ele>
        <time>2026-04-28T13:21:11.000Z</time>
        <extensions>
          <ns3:TrackPointExtension>
            <ns3:hr>126</ns3:hr>
            <ns3:cad>62</ns3:cad>
          </ns3:TrackPointExtension>
        </extensions>
      </trkpt>
      <trkpt lat="37.0826889574527740478515625" lon="-8.938543014228343963623046875">
        <ele>134.1999969482421875</ele>
        <time>2026-04-28T13:21:24.000Z</time>
        <extensions>
          <ns3:TrackPointExtension>
            <ns3:hr>128</ns3:hr>
            <ns3:cad>64</ns3:cad>
          </ns3:TrackPointExtension>
        </extensions>
      </trkpt>
      <trkpt lat="37.08268669433891773223876953125" lon="-8.93852381967008113861083984375">
        <ele>134.1999969482421875</ele>
        <time>2026-04-28T13:21:25.000Z</time>
        <extensions>
          <ns3:TrackPointExtension>
            <ns3:hr>129</ns3:hr>
            <ns3:cad>64</ns3:cad>
          </ns3:TrackPointExtension>
        </extensions>
      </trkpt>
      <trkpt lat="37.082685939967632293701171875" lon="-8.93850219435989856719970703125">
        <ele>134.1999969482421875</ele>
        <time>2026-04-28T13:21:26.000Z</time>
        <extensions>
          <ns3:TrackPointExtension>
            <ns3:hr>131</ns3:hr>
            <ns3:cad>64</ns3:cad>
          </ns3:TrackPointExtension>
        </extensions>
      </trkpt>
      <trkpt lat="37.0826916396617889404296875" lon="-8.93833807669579982757568359375">
        <ele>134.399993896484375</ele>
        <time>2026-04-28T13:21:35.000Z</time>
        <extensions>
          <ns3:TrackPointExtension>
            <ns3:hr>129</ns3:hr>
            <ns3:cad>63</ns3:cad>
          </ns3:TrackPointExtension>
        </extensions>
      </trkpt>
      <trkpt lat="37.0827058888971805572509765625" lon="-8.93809952773153781890869140625">
        <ele>134</ele>
        <time>2026-04-28T13:21:48.000Z</time>
        <extensions>
          <ns3:TrackPointExtension>
            <ns3:hr>130</ns3:hr>
            <ns3:cad>63</ns3:cad>
          </ns3:TrackPointExtension>
        </extensions>
      </trkpt>
      <trkpt lat="37.08270697854459285736083984375" lon="-8.93808402121067047119140625">
        <ele>134</ele>
        <time>2026-04-28T13:21:49.000Z</time>
        <extensions>
          <ns3:TrackPointExtension>
            <ns3:hr>130</ns3:hr>
            <ns3:cad>63</ns3:cad>
          </ns3:TrackPointExtension>
        </extensions>
      </trkpt>
      <trkpt lat="37.0827276818454265594482421875" lon="-8.9379933290183544158935546875">
        <ele>133</ele>
        <time>2026-04-28T13:21:55.000Z</time>
        <extensions>
          <ns3:TrackPointExtension>
            <ns3:hr>129</ns3:hr>
            <ns3:cad>64</ns3:cad>
          </ns3:TrackPointExtension>
        </extensions>
      </trkpt>
      <trkpt lat="37.08275157026946544647216796875" lon="-8.93792451359331607818603515625">
        <ele>133.399993896484375</ele>
        <time>2026-04-28T13:21:59.000Z</time>
        <extensions>
          <ns3:TrackPointExtension>
            <ns3:hr>127</ns3:hr>
            <ns3:cad>62</ns3:cad>
          </ns3:TrackPointExtension>
        </extensions>
      </trkpt>
      <trkpt lat="37.0827726088464260101318359375" lon="-8.93785963766276836395263671875">
        <ele>133.600006103515625</ele>
        <time>2026-04-28T13:22:04.000Z</time>
        <extensions>
          <ns3:TrackPointExtension>
            <ns3:hr>124</ns3:hr>
            <ns3:cad>61</ns3:cad>
          </ns3:TrackPointExtension>
        </extensions>
      </trkpt>
      <trkpt lat="37.08282901905477046966552734375" lon="-8.93775469623506069183349609375">
        <ele>132.600006103515625</ele>
        <time>2026-04-28T13:22:11.000Z</time>
        <extensions>
          <ns3:TrackPointExtension>
            <ns3:hr>124</ns3:hr>
            <ns3:cad>66</ns3:cad>
          </ns3:TrackPointExtension>
        </extensions>
      </trkpt>
      <trkpt lat="37.08289406262338161468505859375" lon="-8.9376091025769710540771484375">
        <ele>133</ele>
        <time>2026-04-28T13:22:20.000Z</time>
        <extensions>
          <ns3:TrackPointExtension>
            <ns3:hr>124</ns3:hr>
            <ns3:cad>63</ns3:cad>
          </ns3:TrackPointExtension>
        </extensions>
      </trkpt>
      <trkpt lat="37.08297352306544780731201171875" lon="-8.9374609105288982391357421875">
        <ele>133.600006103515625</ele>
        <time>2026-04-28T13:22:30.000Z</time>
        <extensions>
          <ns3:TrackPointExtension>
            <ns3:hr>125</ns3:hr>
            <ns3:cad>64</ns3:cad>
          </ns3:TrackPointExtension>
        </extensions>
      </trkpt>
      <trkpt lat="37.0830163545906543731689453125" lon="-8.93736829049885272979736328125">
        <ele>133</ele>
        <time>2026-04-28T13:22:36.000Z</time>
        <extensions>
          <ns3:TrackPointExtension>
            <ns3:hr>128</ns3:hr>
            <ns3:cad>63</ns3:cad>
          </ns3:TrackPointExtension>
        </extensions>
      </trkpt>
      <trkpt lat="37.0830297656357288360595703125" lon="-8.93733861856162548065185546875">
        <ele>132.600006103515625</ele>
        <time>2026-04-28T13:22:38.000Z</time>
        <extensions>
          <ns3:TrackPointExtension>
            <ns3:hr>131</ns3:hr>
            <ns3:cad>62</ns3:cad>
          </ns3:TrackPointExtension>
        </extensions>
      </trkpt>
      <trkpt lat="37.0830465294420719146728515625" lon="-8.93730928190052509307861328125">
        <ele>132.399993896484375</ele>
        <time>2026-04-28T13:22:40.000Z</time>
        <extensions>
          <ns3:TrackPointExtension>
            <ns3:hr>133</ns3:hr>
            <ns3:cad>62</ns3:cad>
          </ns3:TrackPointExtension>
        </extensions>
      </trkpt>
      <trkpt lat="37.0831363834440708160400390625" lon="-8.93713812343776226043701171875">
        <ele>132.8000030517578125</ele>
        <time>2026-04-28T13:22:51.000Z</time>
        <extensions>
          <ns3:TrackPointExtension>
            <ns3:hr>132</ns3:hr>
            <ns3:cad>63</ns3:cad>
          </ns3:TrackPointExtension>
        </extensions>
      </trkpt>
      <trkpt lat="37.08317234180867671966552734375" lon="-8.93706209957599639892578125">
        <ele>132</ele>
        <time>2026-04-28T13:22:56.000Z</time>
        <extensions>
          <ns3:TrackPointExtension>
            <ns3:hr>132</ns3:hr>
            <ns3:cad>63</ns3:cad>
          </ns3:TrackPointExtension>
        </extensions>
      </trkpt>
      <trkpt lat="37.08319447003304958343505859375" lon="-8.93701784312725067138671875">
        <ele>131.8000030517578125</ele>
        <time>2026-04-28T13:22:59.000Z</time>
        <extensions>
          <ns3:TrackPointExtension>
            <ns3:hr>132</ns3:hr>
            <ns3:cad>63</ns3:cad>
          </ns3:TrackPointExtension>
        </extensions>
      </trkpt>
      <trkpt lat="37.0832537300884723663330078125" lon="-8.9368989877402782440185546875">
        <ele>132.8000030517578125</ele>
        <time>2026-04-28T13:23:07.000Z</time>
        <extensions>
          <ns3:TrackPointExtension>
            <ns3:hr>129</ns3:hr>
            <ns3:cad>62</ns3:cad>
          </ns3:TrackPointExtension>
        </extensions>
      </trkpt>
      <trkpt lat="37.08327728323638439178466796875" lon="-8.9368503727018833160400390625">
        <ele>132.600006103515625</ele>
        <time>2026-04-28T13:23:10.000Z</time>
        <extensions>
          <ns3:TrackPointExtension>
            <ns3:hr>130</ns3:hr>
            <ns3:cad>63</ns3:cad>
          </ns3:TrackPointExtension>
        </extensions>
      </trkpt>
      <trkpt lat="37.08333729766309261322021484375" lon="-8.9367219619452953338623046875">
        <ele>132</ele>
        <time>2026-04-28T13:23:18.000Z</time>
        <extensions>
          <ns3:TrackPointExtension>
            <ns3:hr>130</ns3:hr>
            <ns3:cad>62</ns3:cad>
          </ns3:TrackPointExtension>
        </extensions>
      </trkpt>
      <trkpt lat="37.0833559893071651458740234375" lon="-8.93667292781174182891845703125">
        <ele>132.1999969482421875</ele>
        <time>2026-04-28T13:23:21.000Z</time>
        <extensions>
          <ns3:TrackPointExtension>
            <ns3:hr>134</ns3:hr>
            <ns3:cad>62</ns3:cad>
          </ns3:TrackPointExtension>
        </extensions>
      </trkpt>
      <trkpt lat="37.08336210809648036956787109375" lon="-8.93665784038603305816650390625">
        <ele>132.1999969482421875</ele>
        <time>2026-04-28T13:23:22.000Z</time>
        <extensions>
          <ns3:TrackPointExtension>
            <ns3:hr>137</ns3:hr>
            <ns3:cad>63</ns3:cad>
          </ns3:TrackPointExtension>
        </extensions>
      </trkpt>
      <trkpt lat="37.08340401761233806610107421875" lon="-8.9365459419786930084228515625">
        <ele>132</ele>
        <time>2026-04-28T13:23:29.000Z</time>
        <extensions>
          <ns3:TrackPointExtension>
            <ns3:hr>138</ns3:hr>
            <ns3:cad>63</ns3:cad>
          </ns3:TrackPointExtension>
        </extensions>
      </trkpt>
      <trkpt lat="37.0834807120263576507568359375" lon="-8.93636765889823436737060546875">
        <ele>132</ele>
        <time>2026-04-28T13:23:40.000Z</time>
        <extensions>
          <ns3:TrackPointExtension>
            <ns3:hr>137</ns3:hr>
            <ns3:cad>63</ns3:cad>
          </ns3:TrackPointExtension>
        </extensions>
      </trkpt>
      <trkpt lat="37.083530165255069732666015625" lon="-8.93619381822645664215087890625">
        <ele>131.1999969482421875</ele>
        <time>2026-04-28T13:23:50.000Z</time>
        <extensions>
          <ns3:TrackPointExtension>
            <ns3:hr>135</ns3:hr>
            <ns3:cad>64</ns3:cad>
          </ns3:TrackPointExtension>
        </extensions>
      </trkpt>
      <trkpt lat="37.0835662074387073516845703125" lon="-8.9360544271767139434814453125">
        <ele>131.8000030517578125</ele>
        <time>2026-04-28T13:23:58.000Z</time>
        <extensions>
          <ns3:TrackPointExtension>
            <ns3:hr>132</ns3:hr>
            <ns3:cad>63</ns3:cad>
          </ns3:TrackPointExtension>
        </extensions>
      </trkpt>
      <trkpt lat="37.08355790935456752777099609375" lon="-8.9358914829790592193603515625">
        <ele>131.8000030517578125</ele>
        <time>2026-04-28T13:24:07.000Z</time>
        <extensions>
          <ns3:TrackPointExtension>
            <ns3:hr>132</ns3:hr>
            <ns3:cad>63</ns3:cad>
          </ns3:TrackPointExtension>
        </extensions>
      </trkpt>
      <trkpt lat="37.08351080305874347686767578125" lon="-8.9357801713049411773681640625">
        <ele>132.1999969482421875</ele>
        <time>2026-04-28T13:24:14.000Z</time>
        <extensions>
          <ns3:TrackPointExtension>
            <ns3:hr>129</ns3:hr>
            <ns3:cad>63</ns3:cad>
          </ns3:TrackPointExtension>
        </extensions>
      </trkpt>
      <trkpt lat="37.08350074477493762969970703125" lon="-8.9357483200728893280029296875">
        <ele>132</ele>
        <time>2026-04-28T13:24:16.000Z</time>
        <extensions>
          <ns3:TrackPointExtension>
            <ns3:hr>128</ns3:hr>
            <ns3:cad>62</ns3:cad>
          </ns3:TrackPointExtension>
        </extensions>
      </trkpt>
      <trkpt lat="37.08345548249781131744384765625" lon="-8.93559652380645275115966796875">
        <ele>132.399993896484375</ele>
        <time>2026-04-28T13:24:25.000Z</time>
        <extensions>
          <ns3:TrackPointExtension>
            <ns3:hr>131</ns3:hr>
            <ns3:cad>62</ns3:cad>
          </ns3:TrackPointExtension>
        </extensions>
      </trkpt>
      <trkpt lat="37.08342983387410640716552734375" lon="-8.93554262816905975341796875">
        <ele>132.600006103515625</ele>
        <time>2026-04-28T13:24:28.000Z</time>
        <extensions>
          <ns3:TrackPointExtension>
            <ns3:hr>132</ns3:hr>
            <ns3:cad>63</ns3:cad>
          </ns3:TrackPointExtension>
        </extensions>
      </trkpt>
      <trkpt lat="37.08341072313487529754638671875" lon="-8.93550113774836063385009765625">
        <ele>133</ele>
        <time>2026-04-28T13:24:33.000Z</time>
        <extensions>
          <ns3:TrackPointExtension>
            <ns3:hr>133</ns3:hr>
            <ns3:cad>62</ns3:cad>
          </ns3:TrackPointExtension>
        </extensions>
      </trkpt>
      <trkpt lat="37.0834099687635898590087890625" lon="-8.9355132915079593658447265625">
        <ele>133</ele>
        <time>2026-04-28T13:24:34.000Z</time>
        <extensions>
          <ns3:TrackPointExtension>
            <ns3:hr>133</ns3:hr>
            <ns3:cad>62</ns3:cad>
          </ns3:TrackPointExtension>
        </extensions>
      </trkpt>
      <trkpt lat="37.08341374062001705169677734375" lon="-8.9355253614485263824462890625">
        <ele>132.8000030517578125</ele>
        <time>2026-04-28T13:24:40.000Z</time>
        <extensions>
          <ns3:TrackPointExtension>
            <ns3:hr>130</ns3:hr>
            <ns3:cad>0</ns3:cad>
          </ns3:TrackPointExtension>
        </extensions>
      </trkpt>
      <trkpt lat="37.0834051072597503662109375" lon="-8.93546207807958126068115234375">
        <ele>132.399993896484375</ele>
        <time>2026-04-28T13:24:45.000Z</time>
        <extensions>
          <ns3:TrackPointExtension>
            <ns3:hr>127</ns3:hr>
            <ns3:cad>0</ns3:cad>
          </ns3:TrackPointExtension>
        </extensions>
      </trkpt>
      <trkpt lat="37.08336395211517810821533203125" lon="-8.93532293848693370819091796875">
        <ele>133</ele>
        <time>2026-04-28T13:24:53.000Z</time>
        <extensions>
          <ns3:TrackPointExtension>
            <ns3:hr>128</ns3:hr>
            <ns3:cad>63</ns3:cad>
          </ns3:TrackPointExtension>
        </extensions>
      </trkpt>
      <trkpt lat="37.083304189145565032958984375" lon="-8.93514021299779415130615234375">
        <ele>133</ele>
        <time>2026-04-28T13:25:04.000Z</time>
        <extensions>
          <ns3:TrackPointExtension>
            <ns3:hr>128</ns3:hr>
            <ns3:cad>63</ns3:cad>
          </ns3:TrackPointExtension>
        </extensions>
      </trkpt>
      <trkpt lat="37.08323872648179531097412109375" lon="-8.93493636511266231536865234375">
        <ele>133.1999969482421875</ele>
        <time>2026-04-28T13:25:17.000Z</time>
        <extensions>
          <ns3:TrackPointExtension>
            <ns3:hr>128</ns3:hr>
            <ns3:cad>63</ns3:cad>
          </ns3:TrackPointExtension>
        </extensions>
      </trkpt>
      <trkpt lat="37.08317854441702365875244140625" lon="-8.9347582496702671051025390625">
        <ele>133.1999969482421875</ele>
        <time>2026-04-28T13:25:28.000Z</time>
        <extensions>
          <ns3:TrackPointExtension>
            <ns3:hr>128</ns3:hr>
            <ns3:cad>63</ns3:cad>
          </ns3:TrackPointExtension>
        </extensions>
      </trkpt>
      <trkpt lat="37.08310780115425586700439453125" lon="-8.93455632962286472320556640625">
        <ele>132.8000030517578125</ele>
        <time>2026-04-28T13:25:40.000Z</time>
        <extensions>
          <ns3:TrackPointExtension>
            <ns3:hr>129</ns3:hr>
            <ns3:cad>62</ns3:cad>
          </ns3:TrackPointExtension>
        </extensions>
      </trkpt>
      <trkpt lat="37.08308047614991664886474609375" lon="-8.9344917051494121551513671875">
        <ele>132.8000030517578125</ele>
        <time>2026-04-28T13:25:44.000Z</time>
        <extensions>
          <ns3:TrackPointExtension>
            <ns3:hr>126</ns3:hr>
            <ns3:cad>64</ns3:cad>
          </ns3:TrackPointExtension>
        </extensions>
      </trkpt>
      <trkpt lat="37.08303990773856639862060546875" lon="-8.934376537799835205078125">
        <ele>132.600006103515625</ele>
        <time>2026-04-28T13:25:51.000Z</time>
        <extensions>
          <ns3:TrackPointExtension>
            <ns3:hr>123</ns3:hr>
            <ns3:cad>63</ns3:cad>
          </ns3:TrackPointExtension>
        </extensions>
      </trkpt>
      <trkpt lat="37.08298257552087306976318359375" lon="-8.934199176728725433349609375">
        <ele>132.1999969482421875</ele>
        <time>2026-04-28T13:26:02.000Z</time>
        <extensions>
          <ns3:TrackPointExtension>
            <ns3:hr>127</ns3:hr>
            <ns3:cad>62</ns3:cad>
          </ns3:TrackPointExtension>
        </extensions>
      </trkpt>
      <trkpt lat="37.0829727686941623687744140625" lon="-8.9341651462018489837646484375">
        <ele>132</ele>
        <time>2026-04-28T13:26:04.000Z</time>
        <extensions>
          <ns3:TrackPointExtension>
            <ns3:hr>130</ns3:hr>
            <ns3:cad>62</ns3:cad>
          </ns3:TrackPointExtension>
        </extensions>
      </trkpt>
      <trkpt lat="37.08294737152755260467529296875" lon="-8.9340990968048572540283203125">
        <ele>131.8000030517578125</ele>
        <time>2026-04-28T13:26:08.000Z</time>
        <extensions>
          <ns3:TrackPointExtension>
            <ns3:hr>133</ns3:hr>
            <ns3:cad>62</ns3:cad>
          </ns3:TrackPointExtension>
        </extensions>
      </trkpt>
      <trkpt lat="37.08291736431419849395751953125" lon="-8.9340162836015224456787109375">
        <ele>131.8000030517578125</ele>
        <time>2026-04-28T13:26:13.000Z</time>
        <extensions>
          <ns3:TrackPointExtension>
            <ns3:hr>130</ns3:hr>
            <ns3:cad>63</ns3:cad>
          </ns3:TrackPointExtension>
        </extensions>
      </trkpt>
      <trkpt lat="37.0829127542674541473388671875" lon="-8.93400161527097225189208984375">
        <ele>131.8000030517578125</ele>
        <time>2026-04-28T13:26:14.000Z</time>
        <extensions>
          <ns3:TrackPointExtension>
            <ns3:hr>129</ns3:hr>
            <ns3:cad>63</ns3:cad>
          </ns3:TrackPointExtension>
        </extensions>
      </trkpt>
      <trkpt lat="37.08283270709216594696044921875" lon="-8.93381402827799320220947265625">
        <ele>131.1999969482421875</ele>
        <time>2026-04-28T13:26:26.000Z</time>
        <extensions>
          <ns3:TrackPointExtension>
            <ns3:hr>128</ns3:hr>
            <ns3:cad>64</ns3:cad>
          </ns3:TrackPointExtension>
        </extensions>
      </trkpt>
      <trkpt lat="37.0827494747936725616455078125" lon="-8.93362057395279407501220703125">
        <ele>131.399993896484375</ele>
        <time>2026-04-28T13:26:38.000Z</time>
        <extensions>
          <ns3:TrackPointExtension>
            <ns3:hr>126</ns3:hr>
            <ns3:cad>62</ns3:cad>
          </ns3:TrackPointExtension>
        </extensions>
      </trkpt>
      <trkpt lat="37.08265886642038822174072265625" lon="-8.9334134571254253387451171875">
        <ele>131.399993896484375</ele>
        <time>2026-04-28T13:26:51.000Z</time>
        <extensions>
          <ns3:TrackPointExtension>
            <ns3:hr>128</ns3:hr>
            <ns3:cad>63</ns3:cad>
          </ns3:TrackPointExtension>
        </extensions>
      </trkpt>
      <trkpt lat="37.08265165798366069793701171875" lon="-8.93339878879487514495849609375">
        <ele>131.399993896484375</ele>
        <time>2026-04-28T13:26:52.000Z</time>
        <extensions>
          <ns3:TrackPointExtension>
            <ns3:hr>127</ns3:hr>
            <ns3:cad>63</ns3:cad>
          </ns3:TrackPointExtension>
        </extensions>
      </trkpt>
      <trkpt lat="37.08259901963174343109130859375" lon="-8.9332709647715091705322265625">
        <ele>130.8000030517578125</ele>
        <time>2026-04-28T13:27:00.000Z</time>
        <extensions>
          <ns3:TrackPointExtension>
            <ns3:hr>127</ns3:hr>
            <ns3:cad>64</ns3:cad>
          </ns3:TrackPointExtension>
        </extensions>
      </trkpt>
      <trkpt lat="37.08257563412189483642578125" lon="-8.93318639136850833892822265625">
        <ele>130.399993896484375</ele>
        <time>2026-04-28T13:27:05.000Z</time>
        <extensions>
          <ns3:TrackPointExtension>
            <ns3:hr>128</ns3:hr>
            <ns3:cad>64</ns3:cad>
          </ns3:TrackPointExtension>
        </extensions>
      </trkpt>
      <trkpt lat="37.0825452916324138641357421875" lon="-8.93295027315616607666015625">
        <ele>130.399993896484375</ele>
        <time>2026-04-28T13:27:18.000Z</time>
        <extensions>
          <ns3:TrackPointExtension>
            <ns3:hr>130</ns3:hr>
            <ns3:cad>64</ns3:cad>
          </ns3:TrackPointExtension>
        </extensions>
      </trkpt>
      <trkpt lat="37.0825566910207271575927734375" lon="-8.9327256381511688232421875">
        <ele>130.1999969482421875</ele>
        <time>2026-04-28T13:27:30.000Z</time>
        <extensions>
          <ns3:TrackPointExtension>
            <ns3:hr>131</ns3:hr>
            <ns3:cad>64</ns3:cad>
          </ns3:TrackPointExtension>
        </extensions>
      </trkpt>
      <trkpt lat="37.082568593323230743408203125" lon="-8.9325008355081081390380859375">
        <ele>130.1999969482421875</ele>
        <time>2026-04-28T13:27:42.000Z</time>
        <extensions>
          <ns3:TrackPointExtension>
            <ns3:hr>130</ns3:hr>
            <ns3:cad>65</ns3:cad>
          </ns3:TrackPointExtension>
        </extensions>
      </trkpt>
      <trkpt lat="37.082571946084499359130859375" lon="-8.93248314969241619110107421875">
        <ele>130</ele>
        <time>2026-04-28T13:27:43.000Z</time>
        <extensions>
          <ns3:TrackPointExtension>
            <ns3:hr>130</ns3:hr>
            <ns3:cad>64</ns3:cad>
          </ns3:TrackPointExtension>
        </extensions>
      </trkpt>
      <trkpt lat="37.0825908891856670379638671875" lon="-8.93239396624267101287841796875">
        <ele>129.8000030517578125</ele>
        <time>2026-04-28T13:27:48.000Z</time>
        <extensions>
          <ns3:TrackPointExtension>
            <ns3:hr>129</ns3:hr>
            <ns3:cad>65</ns3:cad>
          </ns3:TrackPointExtension>
        </extensions>
      </trkpt>
      <trkpt lat="37.082606814801692962646484375" lon="-8.93227930180728435516357421875">
        <ele>129.600006103515625</ele>
        <time>2026-04-28T13:27:54.000Z</time>
        <extensions>
          <ns3:TrackPointExtension>
            <ns3:hr>128</ns3:hr>
            <ns3:cad>63</ns3:cad>
          </ns3:TrackPointExtension>
        </extensions>
      </trkpt>
      <trkpt lat="37.0826344750821590423583984375" lon="-8.9320777170360088348388671875">
        <ele>129.8000030517578125</ele>
        <time>2026-04-28T13:28:05.000Z</time>
        <extensions>
          <ns3:TrackPointExtension>
            <ns3:hr>127</ns3:hr>
            <ns3:cad>64</ns3:cad>
          </ns3:TrackPointExtension>
        </extensions>
      </trkpt>
      <trkpt lat="37.0826629735529422760009765625" lon="-8.9318648166954517364501953125">
        <ele>129</ele>
        <time>2026-04-28T13:28:17.000Z</time>
        <extensions>
          <ns3:TrackPointExtension>
            <ns3:hr>128</ns3:hr>
            <ns3:cad>64</ns3:cad>
          </ns3:TrackPointExtension>
        </extensions>
      </trkpt>
      <trkpt lat="37.08268887363374233245849609375" lon="-8.93167848698794841766357421875">
        <ele>129</ele>
        <time>2026-04-28T13:28:27.000Z</time>
        <extensions>
          <ns3:TrackPointExtension>
            <ns3:hr>125</ns3:hr>
            <ns3:cad>62</ns3:cad>
          </ns3:TrackPointExtension>
        </extensions>
      </trkpt>
      <trkpt lat="37.08270228467881679534912109375" lon="-8.9315882138907909393310546875">
        <ele>129</ele>
        <time>2026-04-28T13:28:32.000Z</time>
        <extensions>
          <ns3:TrackPointExtension>
            <ns3:hr>125</ns3:hr>
            <ns3:cad>62</ns3:cad>
          </ns3:TrackPointExtension>
        </extensions>
      </trkpt>
      <trkpt lat="37.08270647563040256500244140625" lon="-8.931550495326519012451171875">
        <ele>128.8000030517578125</ele>
        <time>2026-04-28T13:28:34.000Z</time>
        <extensions>
          <ns3:TrackPointExtension>
            <ns3:hr>126</ns3:hr>
            <ns3:cad>62</ns3:cad>
          </ns3:TrackPointExtension>
        </extensions>
      </trkpt>
      <trkpt lat="37.08272910676896572113037109375" lon="-8.93138562329113483428955078125">
        <ele>128.600006103515625</ele>
        <time>2026-04-28T13:28:44.000Z</time>
        <extensions>
          <ns3:TrackPointExtension>
            <ns3:hr>128</ns3:hr>
            <ns3:cad>63</ns3:cad>
          </ns3:TrackPointExtension>
        </extensions>
      </trkpt>
      <trkpt lat="37.08275307901203632354736328125" lon="-8.9311989583075046539306640625">
        <ele>128.1999969482421875</ele>
        <time>2026-04-28T13:28:54.000Z</time>
        <extensions>
          <ns3:TrackPointExtension>
            <ns3:hr>127</ns3:hr>
            <ns3:cad>62</ns3:cad>
          </ns3:TrackPointExtension>
        </extensions>
      </trkpt>
      <trkpt lat="37.08278409205377101898193359375" lon="-8.93100089393556118011474609375">
        <ele>128</ele>
        <time>2026-04-28T13:29:05.000Z</time>
        <extensions>
          <ns3:TrackPointExtension>
            <ns3:hr>129</ns3:hr>
            <ns3:cad>63</ns3:cad>
          </ns3:TrackPointExtension>
        </extensions>
      </trkpt>
      <trkpt lat="37.08281032741069793701171875" lon="-8.93081649206578731536865234375">
        <ele>127.8000030517578125</ele>
        <time>2026-04-28T13:29:15.000Z</time>
        <extensions>
          <ns3:TrackPointExtension>
            <ns3:hr>130</ns3:hr>
            <ns3:cad>64</ns3:cad>
          </ns3:TrackPointExtension>
        </extensions>
      </trkpt>
      <trkpt lat="37.0828118361532688140869140625" lon="-8.93079855479300022125244140625">
        <ele>127.59999847412109375</ele>
        <time>2026-04-28T13:29:16.000Z</time>
        <extensions>
          <ns3:TrackPointExtension>
            <ns3:hr>130</ns3:hr>
            <ns3:cad>64</ns3:cad>
          </ns3:TrackPointExtension>
        </extensions>
      </trkpt>
      <trkpt lat="37.0828346349298954010009765625" lon="-8.93060778267681598663330078125">
        <ele>127.59999847412109375</ele>
        <time>2026-04-28T13:29:26.000Z</time>
        <extensions>
          <ns3:TrackPointExtension>
            <ns3:hr>131</ns3:hr>
            <ns3:cad>64</ns3:cad>
          </ns3:TrackPointExtension>
        </extensions>
      </trkpt>
      <trkpt lat="37.0828869380056858062744140625" lon="-8.9303825609385967254638671875">
        <ele>127.40000152587890625</ele>
        <time>2026-04-28T13:29:39.000Z</time>
        <extensions>
          <ns3:TrackPointExtension>
            <ns3:hr>131</ns3:hr>
            <ns3:cad>63</ns3:cad>
          </ns3:TrackPointExtension>
        </extensions>
      </trkpt>
      <trkpt lat="37.08296245895326137542724609375" lon="-8.93019338138401508331298828125">
        <ele>127</ele>
        <time>2026-04-28T13:29:50.000Z</time>
        <extensions>
          <ns3:TrackPointExtension>
            <ns3:hr>132</ns3:hr>
            <ns3:cad>64</ns3:cad>
          </ns3:TrackPointExtension>
        </extensions>
      </trkpt>
      <trkpt lat="37.0830188691616058349609375" lon="-8.93005474470555782318115234375">
        <ele>126.59999847412109375</ele>
        <time>2026-04-28T13:29:58.000Z</time>
        <extensions>
          <ns3:TrackPointExtension>
            <ns3:hr>132</ns3:hr>
            <ns3:cad>63</ns3:cad>
          </ns3:TrackPointExtension>
        </extensions>
      </trkpt>
      <trkpt lat="37.08303630352020263671875" lon="-8.93001115880906581878662109375">
        <ele>126.59999847412109375</ele>
        <time>2026-04-28T13:30:01.000Z</time>
        <extensions>
          <ns3:TrackPointExtension>
            <ns3:hr>130</ns3:hr>
            <ns3:cad>65</ns3:cad>
          </ns3:TrackPointExtension>
        </extensions>
      </trkpt>
      <trkpt lat="37.08307720720767974853515625" lon="-8.929870761930942535400390625">
        <ele>125.40000152587890625</ele>
        <time>2026-04-28T13:30:09.000Z</time>
        <extensions>
          <ns3:TrackPointExtension>
            <ns3:hr>129</ns3:hr>
            <ns3:cad>65</ns3:cad>
          </ns3:TrackPointExtension>
        </extensions>
      </trkpt>
      <trkpt lat="37.0830844156444072723388671875" lon="-8.92983614467084407806396484375">
        <ele>125</ele>
        <time>2026-04-28T13:30:11.000Z</time>
        <extensions>
          <ns3:TrackPointExtension>
            <ns3:hr>129</ns3:hr>
            <ns3:cad>65</ns3:cad>
          </ns3:TrackPointExtension>
        </extensions>
      </trkpt>
      <trkpt lat="37.08308835513889789581298828125" lon="-8.92980949021875858306884765625">
        <ele>125.8000030517578125</ele>
        <time>2026-04-28T13:30:17.000Z</time>
        <extensions>
          <ns3:TrackPointExtension>
            <ns3:hr>129</ns3:hr>
            <ns3:cad>0</ns3:cad>
          </ns3:TrackPointExtension>
        </extensions>
      </trkpt>
      <trkpt lat="37.08310210146009922027587890625" lon="-8.92975048162043094635009765625">
        <ele>125.8000030517578125</ele>
        <time>2026-04-28T13:30:26.000Z</time>
        <extensions>
          <ns3:TrackPointExtension>
            <ns3:hr>130</ns3:hr>
            <ns3:cad>0</ns3:cad>
          </ns3:TrackPointExtension>
        </extensions>
      </trkpt>
      <trkpt lat="37.08313194103538990020751953125" lon="-8.92958703450858592987060546875">
        <ele>126.1999969482421875</ele>
        <time>2026-04-28T13:30:35.000Z</time>
        <extensions>
          <ns3:TrackPointExtension>
            <ns3:hr>129</ns3:hr>
            <ns3:cad>65</ns3:cad>
          </ns3:TrackPointExtension>
        </extensions>
      </trkpt>
      <trkpt lat="37.083140574395656585693359375" lon="-8.929514028131961822509765625">
        <ele>125.8000030517578125</ele>
        <time>2026-04-28T13:30:39.000Z</time>
        <extensions>
          <ns3:TrackPointExtension>
            <ns3:hr>125</ns3:hr>
            <ns3:cad>65</ns3:cad>
          </ns3:TrackPointExtension>
        </extensions>
      </trkpt>
      <trkpt lat="37.08316429518163204193115234375" lon="-8.9293398521840572357177734375">
        <ele>125.1999969482421875</ele>
        <time>2026-04-28T13:30:49.000Z</time>
        <extensions>
          <ns3:TrackPointExtension>
            <ns3:hr>123</ns3:hr>
            <ns3:cad>65</ns3:cad>
          </ns3:TrackPointExtension>
        </extensions>
      </trkpt>
      <trkpt lat="37.083194553852081298828125" lon="-8.92911178059875965118408203125">
        <ele>125</ele>
        <time>2026-04-28T13:31:01.000Z</time>
        <extensions>
          <ns3:TrackPointExtension>
            <ns3:hr>126</ns3:hr>
            <ns3:cad>65</ns3:cad>
          </ns3:TrackPointExtension>
        </extensions>
      </trkpt>
      <trkpt lat="37.0832352899014949798583984375" lon="-8.9288927614688873291015625">
        <ele>125.40000152587890625</ele>
        <time>2026-04-28T13:31:13.000Z</time>
        <extensions>
          <ns3:TrackPointExtension>
            <ns3:hr>124</ns3:hr>
            <ns3:cad>65</ns3:cad>
          </ns3:TrackPointExtension>
        </extensions>
      </trkpt>
      <trkpt lat="37.0832721702754497528076171875" lon="-8.92873174510896205902099609375">
        <ele>125.40000152587890625</ele>
        <time>2026-04-28T13:31:22.000Z</time>
        <extensions>
          <ns3:TrackPointExtension>
            <ns3:hr>127</ns3:hr>
            <ns3:cad>65</ns3:cad>
          </ns3:TrackPointExtension>
        </extensions>
      </trkpt>
      <trkpt lat="37.0832785405218601226806640625" lon="-8.92869360744953155517578125">
        <ele>125.40000152587890625</ele>
        <time>2026-04-28T13:31:24.000Z</time>
        <extensions>
          <ns3:TrackPointExtension>
            <ns3:hr>126</ns3:hr>
            <ns3:cad>65</ns3:cad>
          </ns3:TrackPointExtension>
        </extensions>
      </trkpt>
      <trkpt lat="37.0832983218133449554443359375" lon="-8.92859813757240772247314453125">
        <ele>125.40000152587890625</ele>
        <time>2026-04-28T13:31:29.000Z</time>
        <extensions>
          <ns3:TrackPointExtension>
            <ns3:hr>129</ns3:hr>
            <ns3:cad>65</ns3:cad>
          </ns3:TrackPointExtension>
        </extensions>
      </trkpt>
      <trkpt lat="37.083328664302825927734375" lon="-8.9284823834896087646484375">
        <ele>125.40000152587890625</ele>
        <time>2026-04-28T13:31:36.000Z</time>
        <extensions>
          <ns3:TrackPointExtension>
            <ns3:hr>127</ns3:hr>
            <ns3:cad>65</ns3:cad>
          </ns3:TrackPointExtension>
        </extensions>
      </trkpt>
      <trkpt lat="37.08337627351284027099609375" lon="-8.9282669685781002044677734375">
        <ele>125</ele>
        <time>2026-04-28T13:31:48.000Z</time>
        <extensions>
          <ns3:TrackPointExtension>
            <ns3:hr>128</ns3:hr>
            <ns3:cad>64</ns3:cad>
          </ns3:TrackPointExtension>
        </extensions>
      </trkpt>
      <trkpt lat="37.08341742865741252899169921875" lon="-8.9280886016786098480224609375">
        <ele>124.59999847412109375</ele>
        <time>2026-04-28T13:31:58.000Z</time>
        <extensions>
          <ns3:TrackPointExtension>
            <ns3:hr>128</ns3:hr>
            <ns3:cad>64</ns3:cad>
          </ns3:TrackPointExtension>
        </extensions>
      </trkpt>
      <trkpt lat="37.083443664014339447021484375" lon="-8.927997238934040069580078125">
        <ele>124.40000152587890625</ele>
        <time>2026-04-28T13:32:03.000Z</time>
        <extensions>
          <ns3:TrackPointExtension>
            <ns3:hr>129</ns3:hr>
            <ns3:cad>64</ns3:cad>
          </ns3:TrackPointExtension>
        </extensions>
      </trkpt>
      <trkpt lat="37.0834887586534023284912109375" lon="-8.9278726838529109954833984375">
        <ele>123.59999847412109375</ele>
        <time>2026-04-28T13:32:10.000Z</time>
        <extensions>
          <ns3:TrackPointExtension>
            <ns3:hr>129</ns3:hr>
            <ns3:cad>64</ns3:cad>
          </ns3:TrackPointExtension>
        </extensions>
      </trkpt>
      <trkpt lat="37.083516083657741546630859375" lon="-8.927814848721027374267578125">
        <ele>123.1999969482421875</ele>
        <time>2026-04-28T13:32:14.000Z</time>
        <extensions>
          <ns3:TrackPointExtension>
            <ns3:hr>130</ns3:hr>
            <ns3:cad>63</ns3:cad>
          </ns3:TrackPointExtension>
        </extensions>
      </trkpt>
      <trkpt lat="37.0835769362747669219970703125" lon="-8.9276866056025028228759765625">
        <ele>122.1999969482421875</ele>
        <time>2026-04-28T13:32:22.000Z</time>
        <extensions>
          <ns3:TrackPointExtension>
            <ns3:hr>131</ns3:hr>
            <ns3:cad>63</ns3:cad>
          </ns3:TrackPointExtension>
        </extensions>
      </trkpt>
      <trkpt lat="37.0835829712450504302978515625" lon="-8.92767034471035003662109375">
        <ele>122</ele>
        <time>2026-04-28T13:32:23.000Z</time>
        <extensions>
          <ns3:TrackPointExtension>
            <ns3:hr>130</ns3:hr>
            <ns3:cad>63</ns3:cad>
          </ns3:TrackPointExtension>
        </extensions>
      </trkpt>
      <trkpt lat="37.08365748636424541473388671875" lon="-8.92747320234775543212890625">
        <ele>121</ele>
        <time>2026-04-28T13:32:35.000Z</time>
        <extensions>
          <ns3:TrackPointExtension>
            <ns3:hr>130</ns3:hr>
            <ns3:cad>62</ns3:cad>
          </ns3:TrackPointExtension>
        </extensions>
      </trkpt>
      <trkpt lat="37.0837314985692501068115234375" lon="-8.92727312631905078887939453125">
        <ele>120</ele>
        <time>2026-04-28T13:32:47.000Z</time>
        <extensions>
          <ns3:TrackPointExtension>
            <ns3:hr>129</ns3:hr>
            <ns3:cad>63</ns3:cad>
          </ns3:TrackPointExtension>
        </extensions>
      </trkpt>
      <trkpt lat="37.08373677916824817657470703125" lon="-8.9272564463317394256591796875">
        <ele>119.8000030517578125</ele>
        <time>2026-04-28T13:32:48.000Z</time>
        <extensions>
          <ns3:TrackPointExtension>
            <ns3:hr>129</ns3:hr>
            <ns3:cad>63</ns3:cad>
          </ns3:TrackPointExtension>
        </extensions>
      </trkpt>
      <trkpt lat="37.0838047564029693603515625" lon="-8.92703256569802761077880859375">
        <ele>119.1999969482421875</ele>
        <time>2026-04-28T13:33:01.000Z</time>
        <extensions>
          <ns3:TrackPointExtension>
            <ns3:hr>131</ns3:hr>
            <ns3:cad>63</ns3:cad>
          </ns3:TrackPointExtension>
        </extensions>
      </trkpt>
      <trkpt lat="37.08381607197225093841552734375" lon="-8.92699635587632656097412109375">
        <ele>119</ele>
        <time>2026-04-28T13:33:03.000Z</time>
        <extensions>
          <ns3:TrackPointExtension>
            <ns3:hr>131</ns3:hr>
            <ns3:cad>62</ns3:cad>
          </ns3:TrackPointExtension>
        </extensions>
      </trkpt>
      <trkpt lat="37.083843313157558441162109375" lon="-8.9269050769507884979248046875">
        <ele>118.8000030517578125</ele>
        <time>2026-04-28T13:33:08.000Z</time>
        <extensions>
          <ns3:TrackPointExtension>
            <ns3:hr>128</ns3:hr>
            <ns3:cad>63</ns3:cad>
          </ns3:TrackPointExtension>
        </extensions>
      </trkpt>
      <trkpt lat="37.08387675695121288299560546875" lon="-8.926805667579174041748046875">
        <ele>118.1999969482421875</ele>
        <time>2026-04-28T13:33:14.000Z</time>
        <extensions>
          <ns3:TrackPointExtension>
            <ns3:hr>131</ns3:hr>
            <ns3:cad>63</ns3:cad>
          </ns3:TrackPointExtension>
        </extensions>
      </trkpt>
      <trkpt lat="37.0839021541178226470947265625" lon="-8.92674238421022891998291015625">
        <ele>118</ele>
        <time>2026-04-28T13:33:18.000Z</time>
        <extensions>
          <ns3:TrackPointExtension>
            <ns3:hr>130</ns3:hr>
            <ns3:cad>63</ns3:cad>
          </ns3:TrackPointExtension>
        </extensions>
      </trkpt>
      <trkpt lat="37.0839088596403598785400390625" lon="-8.9267273806035518646240234375">
        <ele>117.8000030517578125</ele>
        <time>2026-04-28T13:33:19.000Z</time>
        <extensions>
          <ns3:TrackPointExtension>
            <ns3:hr>130</ns3:hr>
            <ns3:cad>63</ns3:cad>
          </ns3:TrackPointExtension>
        </extensions>
      </trkpt>
      <trkpt lat="37.08396024070680141448974609375" lon="-8.926615230739116668701171875">
        <ele>116.8000030517578125</ele>
        <time>2026-04-28T13:33:26.000Z</time>
        <extensions>
          <ns3:TrackPointExtension>
            <ns3:hr>131</ns3:hr>
            <ns3:cad>63</ns3:cad>
          </ns3:TrackPointExtension>
        </extensions>
      </trkpt>
      <trkpt lat="37.0839970372617244720458984375" lon="-8.9265302382409572601318359375">
        <ele>116.1999969482421875</ele>
        <time>2026-04-28T13:33:31.000Z</time>
        <extensions>
          <ns3:TrackPointExtension>
            <ns3:hr>130</ns3:hr>
            <ns3:cad>64</ns3:cad>
          </ns3:TrackPointExtension>
        </extensions>
      </trkpt>
      <trkpt lat="37.08406426012516021728515625" lon="-8.926440887153148651123046875">
        <ele>115.59999847412109375</ele>
        <time>2026-04-28T13:33:38.000Z</time>
        <extensions>
          <ns3:TrackPointExtension>
            <ns3:hr>128</ns3:hr>
            <ns3:cad>63</ns3:cad>
          </ns3:TrackPointExtension>
        </extensions>
      </trkpt>
      <trkpt lat="37.08410658873617649078369140625" lon="-8.9263937808573246002197265625">
        <ele>114.59999847412109375</ele>
        <time>2026-04-28T13:33:42.000Z</time>
        <extensions>
          <ns3:TrackPointExtension>
            <ns3:hr>126</ns3:hr>
            <ns3:cad>64</ns3:cad>
          </ns3:TrackPointExtension>
        </extensions>
      </trkpt>
      <trkpt lat="37.0841831155121326446533203125" lon="-8.926331587135791778564453125">
        <ele>113.59999847412109375</ele>
        <time>2026-04-28T13:33:48.000Z</time>
        <extensions>
          <ns3:TrackPointExtension>
            <ns3:hr>127</ns3:hr>
            <ns3:cad>63</ns3:cad>
          </ns3:TrackPointExtension>
        </extensions>
      </trkpt>
      <trkpt lat="37.0842568762600421905517578125" lon="-8.92627165652811527252197265625">
        <ele>112.8000030517578125</ele>
        <time>2026-04-28T13:33:54.000Z</time>
        <extensions>
          <ns3:TrackPointExtension>
            <ns3:hr>125</ns3:hr>
            <ns3:cad>63</ns3:cad>
          </ns3:TrackPointExtension>
        </extensions>
      </trkpt>
      <trkpt lat="37.08426936529576778411865234375" lon="-8.9262615144252777099609375">
        <ele>112.40000152587890625</ele>
        <time>2026-04-28T13:33:55.000Z</time>
        <extensions>
          <ns3:TrackPointExtension>
            <ns3:hr>124</ns3:hr>
            <ns3:cad>63</ns3:cad>
          </ns3:TrackPointExtension>
        </extensions>
      </trkpt>
      <trkpt lat="37.084389142692089080810546875" lon="-8.92615498043596744537353515625">
        <ele>111.40000152587890625</ele>
        <time>2026-04-28T13:34:05.000Z</time>
        <extensions>
          <ns3:TrackPointExtension>
            <ns3:hr>124</ns3:hr>
            <ns3:cad>63</ns3:cad>
          </ns3:TrackPointExtension>
        </extensions>
      </trkpt>
      <trkpt lat="37.0844017155468463897705078125" lon="-8.926144503057003021240234375">
        <ele>111.1999969482421875</ele>
        <time>2026-04-28T13:34:06.000Z</time>
        <extensions>
          <ns3:TrackPointExtension>
            <ns3:hr>124</ns3:hr>
            <ns3:cad>63</ns3:cad>
          </ns3:TrackPointExtension>
        </extensions>
      </trkpt>
      <trkpt lat="37.084483690559864044189453125" lon="-8.926062025129795074462890625">
        <ele>110.1999969482421875</ele>
        <time>2026-04-28T13:34:13.000Z</time>
        <extensions>
          <ns3:TrackPointExtension>
            <ns3:hr>125</ns3:hr>
            <ns3:cad>63</ns3:cad>
          </ns3:TrackPointExtension>
        </extensions>
      </trkpt>
      <trkpt lat="37.08451461978256702423095703125" lon="-8.92602824606001377105712890625">
        <ele>109.59999847412109375</ele>
        <time>2026-04-28T13:34:16.000Z</time>
        <extensions>
          <ns3:TrackPointExtension>
            <ns3:hr>126</ns3:hr>
            <ns3:cad>64</ns3:cad>
          </ns3:TrackPointExtension>
        </extensions>
      </trkpt>
      <trkpt lat="37.08453440107405185699462890625" lon="-8.9260160923004150390625">
        <ele>109</ele>
        <time>2026-04-28T13:34:18.000Z</time>
        <extensions>
          <ns3:TrackPointExtension>
            <ns3:hr>126</ns3:hr>
            <ns3:cad>64</ns3:cad>
          </ns3:TrackPointExtension>
        </extensions>
      </trkpt>
      <trkpt lat="37.0845794118940830230712890625" lon="-8.9259585924446582794189453125">
        <ele>108.59999847412109375</ele>
        <time>2026-04-28T13:34:23.000Z</time>
        <extensions>
          <ns3:TrackPointExtension>
            <ns3:hr>126</ns3:hr>
            <ns3:cad>60</ns3:cad>
          </ns3:TrackPointExtension>
        </extensions>
      </trkpt>
      <trkpt lat="37.08459936082363128662109375" lon="-8.92593470402061939239501953125">
        <ele>108.59999847412109375</ele>
        <time>2026-04-28T13:34:28.000Z</time>
        <extensions>
          <ns3:TrackPointExtension>
            <ns3:hr>127</ns3:hr>
            <ns3:cad>0</ns3:cad>
          </ns3:TrackPointExtension>
        </extensions>
      </trkpt>
      <trkpt lat="37.084605395793914794921875" lon="-8.92592363990843296051025390625">
        <ele>108.40000152587890625</ele>
        <time>2026-04-28T13:34:29.000Z</time>
        <extensions>
          <ns3:TrackPointExtension>
            <ns3:hr>127</ns3:hr>
            <ns3:cad>0</ns3:cad>
          </ns3:TrackPointExtension>
        </extensions>
      </trkpt>
      <trkpt lat="37.08462123759090900421142578125" lon="-8.92588491551578044891357421875">
        <ele>108</ele>
        <time>2026-04-28T13:34:32.000Z</time>
        <extensions>
          <ns3:TrackPointExtension>
            <ns3:hr>128</ns3:hr>
            <ns3:cad>0</ns3:cad>
          </ns3:TrackPointExtension>
        </extensions>
      </trkpt>
      <trkpt lat="37.0846270211040973663330078125" lon="-8.92587058246135711669921875">
        <ele>108</ele>
        <time>2026-04-28T13:34:33.000Z</time>
        <extensions>
          <ns3:TrackPointExtension>
            <ns3:hr>128</ns3:hr>
            <ns3:cad>0</ns3:cad>
          </ns3:TrackPointExtension>
        </extensions>
      </trkpt>
      <trkpt lat="37.08465677686035633087158203125" lon="-8.9257470332086086273193359375">
        <ele>107.1999969482421875</ele>
        <time>2026-04-28T13:34:42.000Z</time>
        <extensions>
          <ns3:TrackPointExtension>
            <ns3:hr>129</ns3:hr>
            <ns3:cad>0</ns3:cad>
          </ns3:TrackPointExtension>
        </extensions>
      </trkpt>
      <trkpt lat="37.08466398529708385467529296875" lon="-8.9257188700139522552490234375">
        <ele>106.8000030517578125</ele>
        <time>2026-04-28T13:34:44.000Z</time>
        <extensions>
          <ns3:TrackPointExtension>
            <ns3:hr>129</ns3:hr>
            <ns3:cad>0</ns3:cad>
          </ns3:TrackPointExtension>
        </extensions>
      </trkpt>
      <trkpt lat="37.0846709422767162322998046875" lon="-8.925634883344173431396484375">
        <ele>106.8000030517578125</ele>
        <time>2026-04-28T13:34:50.000Z</time>
        <extensions>
          <ns3:TrackPointExtension>
            <ns3:hr>128</ns3:hr>
            <ns3:cad>0</ns3:cad>
          </ns3:TrackPointExtension>
        </extensions>
      </trkpt>
      <trkpt lat="37.0846850238740444183349609375" lon="-8.9255482144653797149658203125">
        <ele>106</ele>
        <time>2026-04-28T13:34:58.000Z</time>
        <extensions>
          <ns3:TrackPointExtension>
            <ns3:hr>127</ns3:hr>
            <ns3:cad>0</ns3:cad>
          </ns3:TrackPointExtension>
        </extensions>
      </trkpt>
      <trkpt lat="37.08468921482563018798828125" lon="-8.9254362322390079498291015625">
        <ele>106</ele>
        <time>2026-04-28T13:35:07.000Z</time>
        <extensions>
          <ns3:TrackPointExtension>
            <ns3:hr>126</ns3:hr>
            <ns3:cad>53</ns3:cad>
          </ns3:TrackPointExtension>
        </extensions>
      </trkpt>
      <trkpt lat="37.0846897177398204803466796875" lon="-8.92539708875119686126708984375">
        <ele>105.8000030517578125</ele>
        <time>2026-04-28T13:35:10.000Z</time>
        <extensions>
          <ns3:TrackPointExtension>
            <ns3:hr>125</ns3:hr>
            <ns3:cad>0</ns3:cad>
          </ns3:TrackPointExtension>
        </extensions>
      </trkpt>
      <trkpt lat="37.08468242548406124114990234375" lon="-8.92536607570946216583251953125">
        <ele>105.59999847412109375</ele>
        <time>2026-04-28T13:35:15.000Z</time>
        <extensions>
          <ns3:TrackPointExtension>
            <ns3:hr>124</ns3:hr>
            <ns3:cad>0</ns3:cad>
          </ns3:TrackPointExtension>
        </extensions>
      </trkpt>
      <trkpt lat="37.0846898853778839111328125" lon="-8.92526733689010143280029296875">
        <ele>105.1999969482421875</ele>
        <time>2026-04-28T13:35:23.000Z</time>
        <extensions>
          <ns3:TrackPointExtension>
            <ns3:hr>122</ns3:hr>
            <ns3:cad>0</ns3:cad>
          </ns3:TrackPointExtension>
        </extensions>
      </trkpt>
      <trkpt lat="37.0846890471875667572021484375" lon="-8.9252682588994503021240234375">
        <ele>105.1999969482421875</ele>
        <time>2026-04-28T13:35:31.000Z</time>
        <extensions>
          <ns3:TrackPointExtension>
            <ns3:hr>122</ns3:hr>
            <ns3:cad>0</ns3:cad>
          </ns3:TrackPointExtension>
        </extensions>
      </trkpt>
      <trkpt lat="37.084684856235980987548828125" lon="-8.92524453811347484588623046875">
        <ele>105.40000152587890625</ele>
        <time>2026-04-28T13:35:41.000Z</time>
        <extensions>
          <ns3:TrackPointExtension>
            <ns3:hr>124</ns3:hr>
            <ns3:cad>0</ns3:cad>
          </ns3:TrackPointExtension>
        </extensions>
      </trkpt>
      <trkpt lat="37.08468653261661529541015625" lon="-8.92518737353384494781494140625">
        <ele>105</ele>
        <time>2026-04-28T13:35:49.000Z</time>
        <extensions>
          <ns3:TrackPointExtension>
            <ns3:hr>125</ns3:hr>
            <ns3:cad>0</ns3:cad>
          </ns3:TrackPointExtension>
        </extensions>
      </trkpt>
      <trkpt lat="37.08468259312212467193603515625" lon="-8.92514102160930633544921875">
        <ele>105</ele>
        <time>2026-04-28T13:35:58.000Z</time>
        <extensions>
          <ns3:TrackPointExtension>
            <ns3:hr>125</ns3:hr>
            <ns3:cad>0</ns3:cad>
          </ns3:TrackPointExtension>
        </extensions>
      </trkpt>
      <trkpt lat="37.08468259312212467193603515625" lon="-8.92514102160930633544921875">
        <ele>105</ele>
        <time>2026-04-28T13:36:00.000Z</time>
        <extensions>
          <ns3:TrackPointExtension>
            <ns3:hr>122</ns3:hr>
            <ns3:cad>0</ns3:cad>
          </ns3:TrackPointExtension>
        </extensions>
      </trkpt>
      <trkpt lat="37.08468259312212467193603515625" lon="-8.92514102160930633544921875">
        <ele>105</ele>
        <time>2026-04-28T13:36:01.000Z</time>
        <extensions>
          <ns3:TrackPointExtension>
            <ns3:hr>119</ns3:hr>
            <ns3:cad>0</ns3:cad>
          </ns3:TrackPointExtension>
        </extensions>
      </trkpt>
      <trkpt lat="37.0846818387508392333984375" lon="-8.9251135289669036865234375">
        <ele>105.1999969482421875</ele>
        <time>2026-04-28T13:36:07.000Z</time>
        <extensions>
          <ns3:TrackPointExtension>
            <ns3:hr>118</ns3:hr>
            <ns3:cad>0</ns3:cad>
          </ns3:TrackPointExtension>
        </extensions>
      </trkpt>
      <trkpt lat="37.084672786295413970947265625" lon="-8.9250593818724155426025390625">
        <ele>104.8000030517578125</ele>
        <time>2026-04-28T13:36:12.000Z</time>
        <extensions>
          <ns3:TrackPointExtension>
            <ns3:hr>115</ns3:hr>
            <ns3:cad>0</ns3:cad>
          </ns3:TrackPointExtension>
        </extensions>
      </trkpt>
      <trkpt lat="37.08466381765902042388916015625" lon="-8.925006575882434844970703125">
        <ele>105.1999969482421875</ele>
        <time>2026-04-28T13:36:16.000Z</time>
        <extensions>
          <ns3:TrackPointExtension>
            <ns3:hr>115</ns3:hr>
            <ns3:cad>0</ns3:cad>
          </ns3:TrackPointExtension>
        </extensions>
      </trkpt>
      <trkpt lat="37.0846469700336456298828125" lon="-8.92490942962467670440673828125">
        <ele>105</ele>
        <time>2026-04-28T13:36:26.000Z</time>
        <extensions>
          <ns3:TrackPointExtension>
            <ns3:hr>116</ns3:hr>
            <ns3:cad>0</ns3:cad>
          </ns3:TrackPointExtension>
        </extensions>
      </trkpt>
      <trkpt lat="37.08464286290109157562255859375" lon="-8.9248801767826080322265625">
        <ele>104.8000030517578125</ele>
        <time>2026-04-28T13:36:29.000Z</time>
        <extensions>
          <ns3:TrackPointExtension>
            <ns3:hr>118</ns3:hr>
            <ns3:cad>0</ns3:cad>
          </ns3:TrackPointExtension>
        </extensions>
      </trkpt>
      <trkpt lat="37.084641940891742706298828125" lon="-8.92486475408077239990234375">
        <ele>104.8000030517578125</ele>
        <time>2026-04-28T13:36:31.000Z</time>
        <extensions>
          <ns3:TrackPointExtension>
            <ns3:hr>121</ns3:hr>
            <ns3:cad>0</ns3:cad>
          </ns3:TrackPointExtension>
        </extensions>
      </trkpt>
      <trkpt lat="37.08462945185601711273193359375" lon="-8.9248233474791049957275390625">
        <ele>105.1999969482421875</ele>
        <time>2026-04-28T13:36:35.000Z</time>
        <extensions>
          <ns3:TrackPointExtension>
            <ns3:hr>122</ns3:hr>
            <ns3:cad>0</ns3:cad>
          </ns3:TrackPointExtension>
        </extensions>
      </trkpt>
      <trkpt lat="37.08459927700459957122802734375" lon="-8.92472905106842517852783203125">
        <ele>105.40000152587890625</ele>
        <time>2026-04-28T13:36:43.000Z</time>
        <extensions>
          <ns3:TrackPointExtension>
            <ns3:hr>124</ns3:hr>
            <ns3:cad>0</ns3:cad>
          </ns3:TrackPointExtension>
        </extensions>
      </trkpt>
      <trkpt lat="37.0845455490052700042724609375" lon="-8.9245916716754436492919921875">
        <ele>105.1999969482421875</ele>
        <time>2026-04-28T13:36:51.000Z</time>
        <extensions>
          <ns3:TrackPointExtension>
            <ns3:hr>125</ns3:hr>
            <ns3:cad>62</ns3:cad>
          </ns3:TrackPointExtension>
        </extensions>
      </trkpt>
      <trkpt lat="37.084500454366207122802734375" lon="-8.92450123094022274017333984375">
        <ele>105.1999969482421875</ele>
        <time>2026-04-28T13:36:57.000Z</time>
        <extensions>
          <ns3:TrackPointExtension>
            <ns3:hr>128</ns3:hr>
            <ns3:cad>64</ns3:cad>
          </ns3:TrackPointExtension>
        </extensions>
      </trkpt>
      <trkpt lat="37.08444940857589244842529296875" lon="-8.92439126037061214447021484375">
        <ele>104.59999847412109375</ele>
        <time>2026-04-28T13:37:04.000Z</time>
        <extensions>
          <ns3:TrackPointExtension>
            <ns3:hr>129</ns3:hr>
            <ns3:cad>62</ns3:cad>
          </ns3:TrackPointExtension>
        </extensions>
      </trkpt>
      <trkpt lat="37.08435838110744953155517578125" lon="-8.924264945089817047119140625">
        <ele>104</ele>
        <time>2026-04-28T13:37:13.000Z</time>
        <extensions>
          <ns3:TrackPointExtension>
            <ns3:hr>128</ns3:hr>
            <ns3:cad>64</ns3:cad>
          </ns3:TrackPointExtension>
        </extensions>
      </trkpt>
      <trkpt lat="37.0843286253511905670166015625" lon="-8.924224711954593658447265625">
        <ele>103.59999847412109375</ele>
        <time>2026-04-28T13:37:16.000Z</time>
        <extensions>
          <ns3:TrackPointExtension>
            <ns3:hr>129</ns3:hr>
            <ns3:cad>63</ns3:cad>
          </ns3:TrackPointExtension>
        </extensions>
      </trkpt>
      <trkpt lat="37.0842290483415126800537109375" lon="-8.924153633415699005126953125">
        <ele>102.59999847412109375</ele>
        <time>2026-04-28T13:37:24.000Z</time>
        <extensions>
          <ns3:TrackPointExtension>
            <ns3:hr>128</ns3:hr>
            <ns3:cad>63</ns3:cad>
          </ns3:TrackPointExtension>
        </extensions>
      </trkpt>
      <trkpt lat="37.0842136256396770477294921875" lon="-8.92414768226444721221923828125">
        <ele>102.59999847412109375</ele>
        <time>2026-04-28T13:37:25.000Z</time>
        <extensions>
          <ns3:TrackPointExtension>
            <ns3:hr>129</ns3:hr>
            <ns3:cad>63</ns3:cad>
          </ns3:TrackPointExtension>
        </extensions>
      </trkpt>
      <trkpt lat="37.0840996317565441131591796875" lon="-8.924104012548923492431640625">
        <ele>102.1999969482421875</ele>
        <time>2026-04-28T13:37:33.000Z</time>
        <extensions>
          <ns3:TrackPointExtension>
            <ns3:hr>126</ns3:hr>
            <ns3:cad>63</ns3:cad>
          </ns3:TrackPointExtension>
        </extensions>
      </trkpt>
      <trkpt lat="37.08404841832816600799560546875" lon="-8.92408666200935840606689453125">
        <ele>102.1999969482421875</ele>
        <time>2026-04-28T13:37:37.000Z</time>
        <extensions>
          <ns3:TrackPointExtension>
            <ns3:hr>124</ns3:hr>
            <ns3:cad>63</ns3:cad>
          </ns3:TrackPointExtension>
        </extensions>
      </trkpt>
      <trkpt lat="37.08387650549411773681640625" lon="-8.9240513741970062255859375">
        <ele>102</ele>
        <time>2026-04-28T13:37:49.000Z</time>
        <extensions>
          <ns3:TrackPointExtension>
            <ns3:hr>122</ns3:hr>
            <ns3:cad>63</ns3:cad>
          </ns3:TrackPointExtension>
        </extensions>
      </trkpt>
      <trkpt lat="37.08374432288110256195068359375" lon="-8.92397920601069927215576171875">
        <ele>102.1999969482421875</ele>
        <time>2026-04-28T13:37:59.000Z</time>
        <extensions>
          <ns3:TrackPointExtension>
            <ns3:hr>123</ns3:hr>
            <ns3:cad>63</ns3:cad>
          </ns3:TrackPointExtension>
        </extensions>
      </trkpt>
      <trkpt lat="37.08369143307209014892578125" lon="-8.9238260686397552490234375">
        <ele>102.59999847412109375</ele>
        <time>2026-04-28T13:38:08.000Z</time>
        <extensions>
          <ns3:TrackPointExtension>
            <ns3:hr>125</ns3:hr>
            <ns3:cad>64</ns3:cad>
          </ns3:TrackPointExtension>
        </extensions>
      </trkpt>
      <trkpt lat="37.0836936123669147491455078125" lon="-8.92360604368150234222412109375">
        <ele>101.8000030517578125</ele>
        <time>2026-04-28T13:38:20.000Z</time>
        <extensions>
          <ns3:TrackPointExtension>
            <ns3:hr>127</ns3:hr>
            <ns3:cad>62</ns3:cad>
          </ns3:TrackPointExtension>
        </extensions>
      </trkpt>
      <trkpt lat="37.08369369618594646453857421875" lon="-8.92359078861773014068603515625">
        <ele>101.59999847412109375</ele>
        <time>2026-04-28T13:38:21.000Z</time>
        <extensions>
          <ns3:TrackPointExtension>
            <ns3:hr>127</ns3:hr>
            <ns3:cad>62</ns3:cad>
          </ns3:TrackPointExtension>
        </extensions>
      </trkpt>
      <trkpt lat="37.08369973115622997283935546875" lon="-8.92346195876598358154296875">
        <ele>100.40000152587890625</ele>
        <time>2026-04-28T13:38:28.000Z</time>
        <extensions>
          <ns3:TrackPointExtension>
            <ns3:hr>128</ns3:hr>
            <ns3:cad>63</ns3:cad>
          </ns3:TrackPointExtension>
        </extensions>
      </trkpt>
      <trkpt lat="37.08369906060397624969482421875" lon="-8.92341342754662036895751953125">
        <ele>100</ele>
        <time>2026-04-28T13:38:31.000Z</time>
        <extensions>
          <ns3:TrackPointExtension>
            <ns3:hr>128</ns3:hr>
            <ns3:cad>64</ns3:cad>
          </ns3:TrackPointExtension>
        </extensions>
      </trkpt>
      <trkpt lat="37.0837001502513885498046875" lon="-8.92334394156932830810546875">
        <ele>99.1999969482421875</ele>
        <time>2026-04-28T13:38:35.000Z</time>
        <extensions>
          <ns3:TrackPointExtension>
            <ns3:hr>128</ns3:hr>
            <ns3:cad>63</ns3:cad>
          </ns3:TrackPointExtension>
        </extensions>
      </trkpt>
      <trkpt lat="37.08369201980531215667724609375" lon="-8.9231985993683338165283203125">
        <ele>98.1999969482421875</ele>
        <time>2026-04-28T13:38:43.000Z</time>
        <extensions>
          <ns3:TrackPointExtension>
            <ns3:hr>128</ns3:hr>
            <ns3:cad>63</ns3:cad>
          </ns3:TrackPointExtension>
        </extensions>
      </trkpt>
      <trkpt lat="37.08369302563369274139404296875" lon="-8.92309256829321384429931640625">
        <ele>97</ele>
        <time>2026-04-28T13:38:49.000Z</time>
        <extensions>
          <ns3:TrackPointExtension>
            <ns3:hr>129</ns3:hr>
            <ns3:cad>63</ns3:cad>
          </ns3:TrackPointExtension>
        </extensions>
      </trkpt>
      <trkpt lat="37.0836892537772655487060546875" lon="-8.92299718223512172698974609375">
        <ele>96.1999969482421875</ele>
        <time>2026-04-28T13:38:54.000Z</time>
        <extensions>
          <ns3:TrackPointExtension>
            <ns3:hr>129</ns3:hr>
            <ns3:cad>64</ns3:cad>
          </ns3:TrackPointExtension>
        </extensions>
      </trkpt>
      <trkpt lat="37.0836872421205043792724609375" lon="-8.92294521443545818328857421875">
        <ele>95.8000030517578125</ele>
        <time>2026-04-28T13:38:57.000Z</time>
        <extensions>
          <ns3:TrackPointExtension>
            <ns3:hr>129</ns3:hr>
            <ns3:cad>62</ns3:cad>
          </ns3:TrackPointExtension>
        </extensions>
      </trkpt>
      <trkpt lat="37.08367140032351016998291015625" lon="-8.9227942563593387603759765625">
        <ele>95</ele>
        <time>2026-04-28T13:39:05.000Z</time>
        <extensions>
          <ns3:TrackPointExtension>
            <ns3:hr>131</ns3:hr>
            <ns3:cad>63</ns3:cad>
          </ns3:TrackPointExtension>
        </extensions>
      </trkpt>
      <trkpt lat="37.08366871811449527740478515625" lon="-8.922757208347320556640625">
        <ele>94.8000030517578125</ele>
        <time>2026-04-28T13:39:07.000Z</time>
        <extensions>
          <ns3:TrackPointExtension>
            <ns3:hr>130</ns3:hr>
            <ns3:cad>64</ns3:cad>
          </ns3:TrackPointExtension>
        </extensions>
      </trkpt>
      <trkpt lat="37.083650194108486175537109375" lon="-8.9225535281002521514892578125">
        <ele>94</ele>
        <time>2026-04-28T13:39:19.000Z</time>
        <extensions>
          <ns3:TrackPointExtension>
            <ns3:hr>130</ns3:hr>
            <ns3:cad>63</ns3:cad>
          </ns3:TrackPointExtension>
        </extensions>
      </trkpt>
      <trkpt lat="37.08365044556558132171630859375" lon="-8.9224988780915737152099609375">
        <ele>93.8000030517578125</ele>
        <time>2026-04-28T13:39:22.000Z</time>
        <extensions>
          <ns3:TrackPointExtension>
            <ns3:hr>130</ns3:hr>
            <ns3:cad>62</ns3:cad>
          </ns3:TrackPointExtension>
        </extensions>
      </trkpt>
      <trkpt lat="37.0836493559181690216064453125" lon="-8.9224257878959178924560546875">
        <ele>93.40000152587890625</ele>
        <time>2026-04-28T13:39:28.000Z</time>
        <extensions>
          <ns3:TrackPointExtension>
            <ns3:hr>129</ns3:hr>
            <ns3:cad>0</ns3:cad>
          </ns3:TrackPointExtension>
        </extensions>
      </trkpt>
      <trkpt lat="37.0836671255528926849365234375" lon="-8.92236602492630481719970703125">
        <ele>93.1999969482421875</ele>
        <time>2026-04-28T13:39:34.000Z</time>
        <extensions>
          <ns3:TrackPointExtension>
            <ns3:hr>128</ns3:hr>
            <ns3:cad>51</ns3:cad>
          </ns3:TrackPointExtension>
        </extensions>
      </trkpt>
      <trkpt lat="37.08368548192083835601806640625" lon="-8.92223484814167022705078125">
        <ele>92.8000030517578125</ele>
        <time>2026-04-28T13:39:41.000Z</time>
        <extensions>
          <ns3:TrackPointExtension>
            <ns3:hr>126</ns3:hr>
            <ns3:cad>60</ns3:cad>
          </ns3:TrackPointExtension>
        </extensions>
      </trkpt>
      <trkpt lat="37.0836905948817729949951171875" lon="-8.92219587229192256927490234375">
        <ele>92.59999847412109375</ele>
        <time>2026-04-28T13:39:43.000Z</time>
        <extensions>
          <ns3:TrackPointExtension>
            <ns3:hr>125</ns3:hr>
            <ns3:cad>64</ns3:cad>
          </ns3:TrackPointExtension>
        </extensions>
      </trkpt>
      <trkpt lat="37.08371079526841640472412109375" lon="-8.9220009930431842803955078125">
        <ele>91.8000030517578125</ele>
        <time>2026-04-28T13:39:54.000Z</time>
        <extensions>
          <ns3:TrackPointExtension>
            <ns3:hr>123</ns3:hr>
            <ns3:cad>62</ns3:cad>
          </ns3:TrackPointExtension>
        </extensions>
      </trkpt>
      <trkpt lat="37.0837097056210041046142578125" lon="-8.92194910906255245208740234375">
        <ele>91.8000030517578125</ele>
        <time>2026-04-28T13:39:57.000Z</time>
        <extensions>
          <ns3:TrackPointExtension>
            <ns3:hr>123</ns3:hr>
            <ns3:cad>64</ns3:cad>
          </ns3:TrackPointExtension>
        </extensions>
      </trkpt>
      <trkpt lat="37.0836654491722583770751953125" lon="-8.92179152928292751312255859375">
        <ele>91.1999969482421875</ele>
        <time>2026-04-28T13:40:06.000Z</time>
        <extensions>
          <ns3:TrackPointExtension>
            <ns3:hr>122</ns3:hr>
            <ns3:cad>62</ns3:cad>
          </ns3:TrackPointExtension>
        </extensions>
      </trkpt>
      <trkpt lat="37.08362312056124210357666015625" lon="-8.92169572412967681884765625">
        <ele>90.40000152587890625</ele>
        <time>2026-04-28T13:40:12.000Z</time>
        <extensions>
          <ns3:TrackPointExtension>
            <ns3:hr>122</ns3:hr>
            <ns3:cad>63</ns3:cad>
          </ns3:TrackPointExtension>
        </extensions>
      </trkpt>
      <trkpt lat="37.08359244279563426971435546875" lon="-8.92164476215839385986328125">
        <ele>89.59999847412109375</ele>
        <time>2026-04-28T13:40:16.000Z</time>
        <extensions>
          <ns3:TrackPointExtension>
            <ns3:hr>122</ns3:hr>
            <ns3:cad>62</ns3:cad>
          </ns3:TrackPointExtension>
        </extensions>
      </trkpt>
      <trkpt lat="37.0835883356630802154541015625" lon="-8.92162724398076534271240234375">
        <ele>89.40000152587890625</ele>
        <time>2026-04-28T13:40:17.000Z</time>
        <extensions>
          <ns3:TrackPointExtension>
            <ns3:hr>122</ns3:hr>
            <ns3:cad>62</ns3:cad>
          </ns3:TrackPointExtension>
        </extensions>
      </trkpt>
      <trkpt lat="37.08353854715824127197265625" lon="-8.92151526175439357757568359375">
        <ele>88.59999847412109375</ele>
        <time>2026-04-28T13:40:24.000Z</time>
        <extensions>
          <ns3:TrackPointExtension>
            <ns3:hr>122</ns3:hr>
            <ns3:cad>64</ns3:cad>
          </ns3:TrackPointExtension>
        </extensions>
      </trkpt>
      <trkpt lat="37.08352102898061275482177734375" lon="-8.92148785293102264404296875">
        <ele>88.40000152587890625</ele>
        <time>2026-04-28T13:40:26.000Z</time>
        <extensions>
          <ns3:TrackPointExtension>
            <ns3:hr>121</ns3:hr>
            <ns3:cad>62</ns3:cad>
          </ns3:TrackPointExtension>
        </extensions>
      </trkpt>
      <trkpt lat="37.08344307728111743927001953125" lon="-8.92136874608695507049560546875">
        <ele>87.8000030517578125</ele>
        <time>2026-04-28T13:40:34.000Z</time>
        <extensions>
          <ns3:TrackPointExtension>
            <ns3:hr>120</ns3:hr>
            <ns3:cad>58</ns3:cad>
          </ns3:TrackPointExtension>
        </extensions>
      </trkpt>
      <trkpt lat="37.083423547446727752685546875" lon="-8.9213244058191776275634765625">
        <ele>87.40000152587890625</ele>
        <time>2026-04-28T13:40:37.000Z</time>
        <extensions>
          <ns3:TrackPointExtension>
            <ns3:hr>120</ns3:hr>
            <ns3:cad>62</ns3:cad>
          </ns3:TrackPointExtension>
        </extensions>
      </trkpt>
      <trkpt lat="37.08338306285440921783447265625" lon="-8.92122591845691204071044921875">
        <ele>86.8000030517578125</ele>
        <time>2026-04-28T13:40:43.000Z</time>
        <extensions>
          <ns3:TrackPointExtension>
            <ns3:hr>121</ns3:hr>
            <ns3:cad>62</ns3:cad>
          </ns3:TrackPointExtension>
        </extensions>
      </trkpt>
      <trkpt lat="37.0833633653819561004638671875" lon="-8.921162970364093780517578125">
        <ele>86.40000152587890625</ele>
        <time>2026-04-28T13:40:47.000Z</time>
        <extensions>
          <ns3:TrackPointExtension>
            <ns3:hr>121</ns3:hr>
            <ns3:cad>61</ns3:cad>
          </ns3:TrackPointExtension>
        </extensions>
      </trkpt>
      <trkpt lat="37.08332120440900325775146484375" lon="-8.9210521616041660308837890625">
        <ele>85.8000030517578125</ele>
        <time>2026-04-28T13:40:54.000Z</time>
        <extensions>
          <ns3:TrackPointExtension>
            <ns3:hr>121</ns3:hr>
            <ns3:cad>62</ns3:cad>
          </ns3:TrackPointExtension>
        </extensions>
      </trkpt>
      <trkpt lat="37.08329203538596630096435546875" lon="-8.92098887823522090911865234375">
        <ele>85.1999969482421875</ele>
        <time>2026-04-28T13:40:58.000Z</time>
        <extensions>
          <ns3:TrackPointExtension>
            <ns3:hr>120</ns3:hr>
            <ns3:cad>62</ns3:cad>
          </ns3:TrackPointExtension>
        </extensions>
      </trkpt>
      <trkpt lat="37.0832386426627635955810546875" lon="-8.9208664186298847198486328125">
        <ele>85.1999969482421875</ele>
        <time>2026-04-28T13:41:05.000Z</time>
        <extensions>
          <ns3:TrackPointExtension>
            <ns3:hr>122</ns3:hr>
            <ns3:cad>62</ns3:cad>
          </ns3:TrackPointExtension>
        </extensions>
      </trkpt>
      <trkpt lat="37.08316546864807605743408203125" lon="-8.92071462236344814300537109375">
        <ele>84.59999847412109375</ele>
        <time>2026-04-28T13:41:15.000Z</time>
        <extensions>
          <ns3:TrackPointExtension>
            <ns3:hr>123</ns3:hr>
            <ns3:cad>64</ns3:cad>
          </ns3:TrackPointExtension>
        </extensions>
      </trkpt>
      <trkpt lat="37.08313764072954654693603515625" lon="-8.920647315680980682373046875">
        <ele>84.1999969482421875</ele>
        <time>2026-04-28T13:41:19.000Z</time>
        <extensions>
          <ns3:TrackPointExtension>
            <ns3:hr>122</ns3:hr>
            <ns3:cad>62</ns3:cad>
          </ns3:TrackPointExtension>
        </extensions>
      </trkpt>
      <trkpt lat="37.08310176618397235870361328125" lon="-8.92055184580385684967041015625">
        <ele>83.59999847412109375</ele>
        <time>2026-04-28T13:41:25.000Z</time>
        <extensions>
          <ns3:TrackPointExtension>
            <ns3:hr>122</ns3:hr>
            <ns3:cad>63</ns3:cad>
          </ns3:TrackPointExtension>
        </extensions>
      </trkpt>
      <trkpt lat="37.0830991677939891815185546875" lon="-8.92049618996679782867431640625">
        <ele>83.1999969482421875</ele>
        <time>2026-04-28T13:41:28.000Z</time>
        <extensions>
          <ns3:TrackPointExtension>
            <ns3:hr>121</ns3:hr>
            <ns3:cad>62</ns3:cad>
          </ns3:TrackPointExtension>
        </extensions>
      </trkpt>
      <trkpt lat="37.08310713060200214385986328125" lon="-8.920393176376819610595703125">
        <ele>82.59999847412109375</ele>
        <time>2026-04-28T13:41:34.000Z</time>
        <extensions>
          <ns3:TrackPointExtension>
            <ns3:hr>120</ns3:hr>
            <ns3:cad>64</ns3:cad>
          </ns3:TrackPointExtension>
        </extensions>
      </trkpt>
      <trkpt lat="37.0831481181085109710693359375" lon="-8.9202139712870121002197265625">
        <ele>82.59999847412109375</ele>
        <time>2026-04-28T13:41:44.000Z</time>
        <extensions>
          <ns3:TrackPointExtension>
            <ns3:hr>120</ns3:hr>
            <ns3:cad>65</ns3:cad>
          </ns3:TrackPointExtension>
        </extensions>
      </trkpt>
      <trkpt lat="37.0831789635121822357177734375" lon="-8.92007441259920597076416015625">
        <ele>82.8000030517578125</ele>
        <time>2026-04-28T13:41:52.000Z</time>
        <extensions>
          <ns3:TrackPointExtension>
            <ns3:hr>121</ns3:hr>
            <ns3:cad>63</ns3:cad>
          </ns3:TrackPointExtension>
        </extensions>
      </trkpt>
      <trkpt lat="37.08321399986743927001953125" lon="-8.91985036432743072509765625">
        <ele>83</ele>
        <time>2026-04-28T13:42:05.000Z</time>
        <extensions>
          <ns3:TrackPointExtension>
            <ns3:hr>122</ns3:hr>
            <ns3:cad>63</ns3:cad>
          </ns3:TrackPointExtension>
        </extensions>
      </trkpt>
      <trkpt lat="37.08321626298129558563232421875" lon="-8.91983100213110446929931640625">
        <ele>83</ele>
        <time>2026-04-28T13:42:06.000Z</time>
        <extensions>
          <ns3:TrackPointExtension>
            <ns3:hr>123</ns3:hr>
            <ns3:cad>63</ns3:cad>
          </ns3:TrackPointExtension>
        </extensions>
      </trkpt>
      <trkpt lat="37.0832523889839649200439453125" lon="-8.91960628330707550048828125">
        <ele>82.8000030517578125</ele>
        <time>2026-04-28T13:42:19.000Z</time>
        <extensions>
          <ns3:TrackPointExtension>
            <ns3:hr>124</ns3:hr>
            <ns3:cad>64</ns3:cad>
          </ns3:TrackPointExtension>
        </extensions>
      </trkpt>
      <trkpt lat="37.083292119204998016357421875" lon="-8.91937653534114360809326171875">
        <ele>83</ele>
        <time>2026-04-28T13:42:32.000Z</time>
        <extensions>
          <ns3:TrackPointExtension>
            <ns3:hr>126</ns3:hr>
            <ns3:cad>63</ns3:cad>
          </ns3:TrackPointExtension>
        </extensions>
      </trkpt>
      <trkpt lat="37.083290107548236846923828125" lon="-8.91933060251176357269287109375">
        <ele>83.1999969482421875</ele>
        <time>2026-04-28T13:42:35.000Z</time>
        <extensions>
          <ns3:TrackPointExtension>
            <ns3:hr>129</ns3:hr>
            <ns3:cad>63</ns3:cad>
          </ns3:TrackPointExtension>
        </extensions>
      </trkpt>
      <trkpt lat="37.0833016745746135711669921875" lon="-8.91927461139857769012451171875">
        <ele>84</ele>
        <time>2026-04-28T13:42:39.000Z</time>
        <extensions>
          <ns3:TrackPointExtension>
            <ns3:hr>130</ns3:hr>
            <ns3:cad>62</ns3:cad>
          </ns3:TrackPointExtension>
        </extensions>
      </trkpt>
      <trkpt lat="37.0833112299442291259765625" lon="-8.9192664809525012969970703125">
        <ele>84</ele>
        <time>2026-04-28T13:42:40.000Z</time>
        <extensions>
          <ns3:TrackPointExtension>
            <ns3:hr>130</ns3:hr>
            <ns3:cad>62</ns3:cad>
          </ns3:TrackPointExtension>
        </extensions>
      </trkpt>
      <trkpt lat="37.0833326876163482666015625" lon="-8.91924745403230190277099609375">
        <ele>84.1999969482421875</ele>
        <time>2026-04-28T13:42:42.000Z</time>
        <extensions>
          <ns3:TrackPointExtension>
            <ns3:hr>130</ns3:hr>
            <ns3:cad>60</ns3:cad>
          </ns3:TrackPointExtension>
        </extensions>
      </trkpt>
      <trkpt lat="37.08338926546275615692138671875" lon="-8.91922465525567531585693359375">
        <ele>84</ele>
        <time>2026-04-28T13:42:46.000Z</time>
        <extensions>
          <ns3:TrackPointExtension>
            <ns3:hr>130</ns3:hr>
            <ns3:cad>62</ns3:cad>
          </ns3:TrackPointExtension>
        </extensions>
      </trkpt>
      <trkpt lat="37.0834371261298656463623046875" lon="-8.91921962611377239227294921875">
        <ele>84.59999847412109375</ele>
        <time>2026-04-28T13:42:49.000Z</time>
        <extensions>
          <ns3:TrackPointExtension>
            <ns3:hr>133</ns3:hr>
            <ns3:cad>62</ns3:cad>
          </ns3:TrackPointExtension>
        </extensions>
      </trkpt>
      <trkpt lat="37.08349538035690784454345703125" lon="-8.9192235656082630157470703125">
        <ele>85.1999969482421875</ele>
        <time>2026-04-28T13:42:53.000Z</time>
        <extensions>
          <ns3:TrackPointExtension>
            <ns3:hr>134</ns3:hr>
            <ns3:cad>62</ns3:cad>
          </ns3:TrackPointExtension>
        </extensions>
      </trkpt>
      <trkpt lat="37.0835434086620807647705078125" lon="-8.9192272536456584930419921875">
        <ele>85.40000152587890625</ele>
        <time>2026-04-28T13:42:57.000Z</time>
        <extensions>
          <ns3:TrackPointExtension>
            <ns3:hr>132</ns3:hr>
            <ns3:cad>64</ns3:cad>
          </ns3:TrackPointExtension>
        </extensions>
      </trkpt>
      <trkpt lat="37.0836443267762660980224609375" lon="-8.9191729389131069183349609375">
        <ele>84</ele>
        <time>2026-04-28T13:43:05.000Z</time>
        <extensions>
          <ns3:TrackPointExtension>
            <ns3:hr>131</ns3:hr>
            <ns3:cad>62</ns3:cad>
          </ns3:TrackPointExtension>
        </extensions>
      </trkpt>
      <trkpt lat="37.0836411416530609130859375" lon="-8.91904033720493316650390625">
        <ele>83.8000030517578125</ele>
        <time>2026-04-28T13:43:12.000Z</time>
        <extensions>
          <ns3:TrackPointExtension>
            <ns3:hr>130</ns3:hr>
            <ns3:cad>64</ns3:cad>
          </ns3:TrackPointExtension>
        </extensions>
      </trkpt>
      <trkpt lat="37.083625383675098419189453125" lon="-8.91882617957890033721923828125">
        <ele>83.1999969482421875</ele>
        <time>2026-04-28T13:43:24.000Z</time>
        <extensions>
          <ns3:TrackPointExtension>
            <ns3:hr>131</ns3:hr>
            <ns3:cad>61</ns3:cad>
          </ns3:TrackPointExtension>
        </extensions>
      </trkpt>
      <trkpt lat="37.0836128108203411102294921875" lon="-8.9186574518680572509765625">
        <ele>83.1999969482421875</ele>
        <time>2026-04-28T13:43:33.000Z</time>
        <extensions>
          <ns3:TrackPointExtension>
            <ns3:hr>134</ns3:hr>
            <ns3:cad>63</ns3:cad>
          </ns3:TrackPointExtension>
        </extensions>
      </trkpt>
      <trkpt lat="37.08359646610915660858154296875" lon="-8.918550498783588409423828125">
        <ele>83</ele>
        <time>2026-04-28T13:43:39.000Z</time>
        <extensions>
          <ns3:TrackPointExtension>
            <ns3:hr>134</ns3:hr>
            <ns3:cad>64</ns3:cad>
          </ns3:TrackPointExtension>
        </extensions>
      </trkpt>
      <trkpt lat="37.0835740864276885986328125" lon="-8.918431811034679412841796875">
        <ele>82.59999847412109375</ele>
        <time>2026-04-28T13:43:46.000Z</time>
        <extensions>
          <ns3:TrackPointExtension>
            <ns3:hr>132</ns3:hr>
            <ns3:cad>64</ns3:cad>
          </ns3:TrackPointExtension>
        </extensions>
      </trkpt>
      <trkpt lat="37.08353142254054546356201171875" lon="-8.91822804696857929229736328125">
        <ele>82.1999969482421875</ele>
        <time>2026-04-28T13:43:57.000Z</time>
        <extensions>
          <ns3:TrackPointExtension>
            <ns3:hr>131</ns3:hr>
            <ns3:cad>65</ns3:cad>
          </ns3:TrackPointExtension>
        </extensions>
      </trkpt>
      <trkpt lat="37.08348716609179973602294921875" lon="-8.9180383644998073577880859375">
        <ele>82</ele>
        <time>2026-04-28T13:44:08.000Z</time>
        <extensions>
          <ns3:TrackPointExtension>
            <ns3:hr>130</ns3:hr>
            <ns3:cad>63</ns3:cad>
          </ns3:TrackPointExtension>
        </extensions>
      </trkpt>
      <trkpt lat="37.0834857411682605743408203125" lon="-8.91802101396024227142333984375">
        <ele>81.8000030517578125</ele>
        <time>2026-04-28T13:44:09.000Z</time>
        <extensions>
          <ns3:TrackPointExtension>
            <ns3:hr>130</ns3:hr>
            <ns3:cad>63</ns3:cad>
          </ns3:TrackPointExtension>
        </extensions>
      </trkpt>
      <trkpt lat="37.08348414860665798187255859375" lon="-8.9179310761392116546630859375">
        <ele>81.59999847412109375</ele>
        <time>2026-04-28T13:44:14.000Z</time>
        <extensions>
          <ns3:TrackPointExtension>
            <ns3:hr>127</ns3:hr>
            <ns3:cad>62</ns3:cad>
          </ns3:TrackPointExtension>
        </extensions>
      </trkpt>
      <trkpt lat="37.08349521271884441375732421875" lon="-8.917821943759918212890625">
        <ele>81.1999969482421875</ele>
        <time>2026-04-28T13:44:20.000Z</time>
        <extensions>
          <ns3:TrackPointExtension>
            <ns3:hr>128</ns3:hr>
            <ns3:cad>63</ns3:cad>
          </ns3:TrackPointExtension>
        </extensions>
      </trkpt>
      <trkpt lat="37.0834974758327007293701171875" lon="-8.91780492849647998809814453125">
        <ele>81</ele>
        <time>2026-04-28T13:44:21.000Z</time>
        <extensions>
          <ns3:TrackPointExtension>
            <ns3:hr>128</ns3:hr>
            <ns3:cad>64</ns3:cad>
          </ns3:TrackPointExtension>
        </extensions>
      </trkpt>
      <trkpt lat="37.083540223538875579833984375" lon="-8.91765371896326541900634765625">
        <ele>81.8000030517578125</ele>
        <time>2026-04-28T13:44:30.000Z</time>
        <extensions>
          <ns3:TrackPointExtension>
            <ns3:hr>131</ns3:hr>
            <ns3:cad>63</ns3:cad>
          </ns3:TrackPointExtension>
        </extensions>
      </trkpt>
      <trkpt lat="37.0835501141846179962158203125" lon="-8.91762119717895984649658203125">
        <ele>81.8000030517578125</ele>
        <time>2026-04-28T13:44:32.000Z</time>
        <extensions>
          <ns3:TrackPointExtension>
            <ns3:hr>134</ns3:hr>
            <ns3:cad>63</ns3:cad>
          </ns3:TrackPointExtension>
        </extensions>
      </trkpt>
      <trkpt lat="37.083554305136203765869140625" lon="-8.91760376282036304473876953125">
        <ele>81.59999847412109375</ele>
        <time>2026-04-28T13:44:33.000Z</time>
        <extensions>
          <ns3:TrackPointExtension>
            <ns3:hr>134</ns3:hr>
            <ns3:cad>62</ns3:cad>
          </ns3:TrackPointExtension>
        </extensions>
      </trkpt>
      <trkpt lat="37.08354801870882511138916015625" lon="-8.9174033515155315399169921875">
        <ele>81.8000030517578125</ele>
        <time>2026-04-28T13:44:44.000Z</time>
        <extensions>
          <ns3:TrackPointExtension>
            <ns3:hr>135</ns3:hr>
            <ns3:cad>63</ns3:cad>
          </ns3:TrackPointExtension>
        </extensions>
      </trkpt>
      <trkpt lat="37.0835316739976406097412109375" lon="-8.91720780171453952789306640625">
        <ele>81.59999847412109375</ele>
        <time>2026-04-28T13:44:55.000Z</time>
        <extensions>
          <ns3:TrackPointExtension>
            <ns3:hr>134</ns3:hr>
            <ns3:cad>64</ns3:cad>
          </ns3:TrackPointExtension>
        </extensions>
      </trkpt>
      <trkpt lat="37.08348263986408710479736328125" lon="-8.91698836348950862884521484375">
        <ele>81.40000152587890625</ele>
        <time>2026-04-28T13:45:08.000Z</time>
        <extensions>
          <ns3:TrackPointExtension>
            <ns3:hr>133</ns3:hr>
            <ns3:cad>63</ns3:cad>
          </ns3:TrackPointExtension>
        </extensions>
      </trkpt>
      <trkpt lat="37.08346721716225147247314453125" lon="-8.9168826676905155181884765625">
        <ele>80.8000030517578125</ele>
        <time>2026-04-28T13:45:14.000Z</time>
        <extensions>
          <ns3:TrackPointExtension>
            <ns3:hr>130</ns3:hr>
            <ns3:cad>63</ns3:cad>
          </ns3:TrackPointExtension>
        </extensions>
      </trkpt>
      <trkpt lat="37.083448357880115509033203125" lon="-8.9167958311736583709716796875">
        <ele>81.1999969482421875</ele>
        <time>2026-04-28T13:45:19.000Z</time>
        <extensions>
          <ns3:TrackPointExtension>
            <ns3:hr>130</ns3:hr>
            <ns3:cad>63</ns3:cad>
          </ns3:TrackPointExtension>
        </extensions>
      </trkpt>
      <trkpt lat="37.08339680917561054229736328125" lon="-8.91664571128785610198974609375">
        <ele>81.40000152587890625</ele>
        <time>2026-04-28T13:45:28.000Z</time>
        <extensions>
          <ns3:TrackPointExtension>
            <ns3:hr>129</ns3:hr>
            <ns3:cad>62</ns3:cad>
          </ns3:TrackPointExtension>
        </extensions>
      </trkpt>
      <trkpt lat="37.08336831070482730865478515625" lon="-8.916448317468166351318359375">
        <ele>81.8000030517578125</ele>
        <time>2026-04-28T13:45:40.000Z</time>
        <extensions>
          <ns3:TrackPointExtension>
            <ns3:hr>131</ns3:hr>
            <ns3:cad>62</ns3:cad>
          </ns3:TrackPointExtension>
        </extensions>
      </trkpt>
      <trkpt lat="37.083359174430370330810546875" lon="-8.91630741767585277557373046875">
        <ele>81.59999847412109375</ele>
        <time>2026-04-28T13:45:48.000Z</time>
        <extensions>
          <ns3:TrackPointExtension>
            <ns3:hr>131</ns3:hr>
            <ns3:cad>62</ns3:cad>
          </ns3:TrackPointExtension>
        </extensions>
      </trkpt>
      <trkpt lat="37.08334031514823436737060546875" lon="-8.9161799289286136627197265625">
        <ele>82</ele>
        <time>2026-04-28T13:45:56.000Z</time>
        <extensions>
          <ns3:TrackPointExtension>
            <ns3:hr>132</ns3:hr>
            <ns3:cad>62</ns3:cad>
          </ns3:TrackPointExtension>
        </extensions>
      </trkpt>
      <trkpt lat="37.08332874812185764312744140625" lon="-8.91611228697001934051513671875">
        <ele>82.40000152587890625</ele>
        <time>2026-04-28T13:46:00.000Z</time>
        <extensions>
          <ns3:TrackPointExtension>
            <ns3:hr>135</ns3:hr>
            <ns3:cad>63</ns3:cad>
          </ns3:TrackPointExtension>
        </extensions>
      </trkpt>
      <trkpt lat="37.08332254551351070404052734375" lon="-8.91607649624347686767578125">
        <ele>82.8000030517578125</ele>
        <time>2026-04-28T13:46:02.000Z</time>
        <extensions>
          <ns3:TrackPointExtension>
            <ns3:hr>135</ns3:hr>
            <ns3:cad>63</ns3:cad>
          </ns3:TrackPointExtension>
        </extensions>
      </trkpt>
      <trkpt lat="37.083294130861759185791015625" lon="-8.91584775410592555999755859375">
        <ele>82.59999847412109375</ele>
        <time>2026-04-28T13:46:15.000Z</time>
        <extensions>
          <ns3:TrackPointExtension>
            <ns3:hr>136</ns3:hr>
            <ns3:cad>64</ns3:cad>
          </ns3:TrackPointExtension>
        </extensions>
      </trkpt>
      <trkpt lat="37.08329371176660060882568359375" lon="-8.91582914628088474273681640625">
        <ele>82.8000030517578125</ele>
        <time>2026-04-28T13:46:16.000Z</time>
        <extensions>
          <ns3:TrackPointExtension>
            <ns3:hr>136</ns3:hr>
            <ns3:cad>62</ns3:cad>
          </ns3:TrackPointExtension>
        </extensions>
      </trkpt>
      <trkpt lat="37.0832929573953151702880859375" lon="-8.91581229865550994873046875">
        <ele>83</ele>
        <time>2026-04-28T13:46:17.000Z</time>
        <extensions>
          <ns3:TrackPointExtension>
            <ns3:hr>135</ns3:hr>
            <ns3:cad>62</ns3:cad>
          </ns3:TrackPointExtension>
        </extensions>
      </trkpt>
      <trkpt lat="37.0832844078540802001953125" lon="-8.91562345437705516815185546875">
        <ele>83.59999847412109375</ele>
        <time>2026-04-28T13:46:27.000Z</time>
        <extensions>
          <ns3:TrackPointExtension>
            <ns3:hr>137</ns3:hr>
            <ns3:cad>64</ns3:cad>
          </ns3:TrackPointExtension>
        </extensions>
      </trkpt>
      <trkpt lat="37.08328030072152614593505859375" lon="-8.91552136279642581939697265625">
        <ele>83.59999847412109375</ele>
        <time>2026-04-28T13:46:33.000Z</time>
        <extensions>
          <ns3:TrackPointExtension>
            <ns3:hr>140</ns3:hr>
            <ns3:cad>63</ns3:cad>
          </ns3:TrackPointExtension>
        </extensions>
      </trkpt>
      <trkpt lat="37.08327166736125946044921875" lon="-8.91540401615202426910400390625">
        <ele>83.59999847412109375</ele>
        <time>2026-04-28T13:46:40.000Z</time>
        <extensions>
          <ns3:TrackPointExtension>
            <ns3:hr>139</ns3:hr>
            <ns3:cad>63</ns3:cad>
          </ns3:TrackPointExtension>
        </extensions>
      </trkpt>
      <trkpt lat="37.08322875201702117919921875" lon="-8.91520670615136623382568359375">
        <ele>83.59999847412109375</ele>
        <time>2026-04-28T13:46:51.000Z</time>
        <extensions>
          <ns3:TrackPointExtension>
            <ns3:hr>136</ns3:hr>
            <ns3:cad>63</ns3:cad>
          </ns3:TrackPointExtension>
        </extensions>
      </trkpt>
      <trkpt lat="37.0832228846848011016845703125" lon="-8.915170244872570037841796875">
        <ele>83.59999847412109375</ele>
        <time>2026-04-28T13:46:53.000Z</time>
        <extensions>
          <ns3:TrackPointExtension>
            <ns3:hr>136</ns3:hr>
            <ns3:cad>63</ns3:cad>
          </ns3:TrackPointExtension>
        </extensions>
      </trkpt>
      <trkpt lat="37.083212323486804962158203125" lon="-8.9151196181774139404296875">
        <ele>83.40000152587890625</ele>
        <time>2026-04-28T13:46:56.000Z</time>
        <extensions>
          <ns3:TrackPointExtension>
            <ns3:hr>133</ns3:hr>
            <ns3:cad>63</ns3:cad>
          </ns3:TrackPointExtension>
        </extensions>
      </trkpt>
      <trkpt lat="37.0831782929599285125732421875" lon="-8.9149430952966213226318359375">
        <ele>84</ele>
        <time>2026-04-28T13:47:06.000Z</time>
        <extensions>
          <ns3:TrackPointExtension>
            <ns3:hr>135</ns3:hr>
            <ns3:cad>63</ns3:cad>
          </ns3:TrackPointExtension>
        </extensions>
      </trkpt>
      <trkpt lat="37.0831732638180255889892578125" lon="-8.91490831039845943450927734375">
        <ele>84.1999969482421875</ele>
        <time>2026-04-28T13:47:08.000Z</time>
        <extensions>
          <ns3:TrackPointExtension>
            <ns3:hr>135</ns3:hr>
            <ns3:cad>63</ns3:cad>
          </ns3:TrackPointExtension>
        </extensions>
      </trkpt>
      <trkpt lat="37.08315205760300159454345703125" lon="-8.91474704258143901824951171875">
        <ele>85.1999969482421875</ele>
        <time>2026-04-28T13:47:17.000Z</time>
        <extensions>
          <ns3:TrackPointExtension>
            <ns3:hr>135</ns3:hr>
            <ns3:cad>63</ns3:cad>
          </ns3:TrackPointExtension>
        </extensions>
      </trkpt>
      <trkpt lat="37.0831461064517498016357421875" lon="-8.91468937508761882781982421875">
        <ele>85</ele>
        <time>2026-04-28T13:47:20.000Z</time>
        <extensions>
          <ns3:TrackPointExtension>
            <ns3:hr>136</ns3:hr>
            <ns3:cad>62</ns3:cad>
          </ns3:TrackPointExtension>
        </extensions>
      </trkpt>
      <trkpt lat="37.0831343717873096466064453125" lon="-8.91447027213871479034423828125">
        <ele>84.40000152587890625</ele>
        <time>2026-04-28T13:47:33.000Z</time>
        <extensions>
          <ns3:TrackPointExtension>
            <ns3:hr>136</ns3:hr>
            <ns3:cad>62</ns3:cad>
          </ns3:TrackPointExtension>
        </extensions>
      </trkpt>
      <trkpt lat="37.08313646726310253143310546875" lon="-8.91441696323454380035400390625">
        <ele>84.1999969482421875</ele>
        <time>2026-04-28T13:47:36.000Z</time>
        <extensions>
          <ns3:TrackPointExtension>
            <ns3:hr>135</ns3:hr>
            <ns3:cad>64</ns3:cad>
          </ns3:TrackPointExtension>
        </extensions>
      </trkpt>
      <trkpt lat="37.08315826021134853363037109375" lon="-8.91428737901151180267333984375">
        <ele>83.1999969482421875</ele>
        <time>2026-04-28T13:47:44.000Z</time>
        <extensions>
          <ns3:TrackPointExtension>
            <ns3:hr>133</ns3:hr>
            <ns3:cad>63</ns3:cad>
          </ns3:TrackPointExtension>
        </extensions>
      </trkpt>
      <trkpt lat="37.08316504955291748046875" lon="-8.91425049863755702972412109375">
        <ele>82.8000030517578125</ele>
        <time>2026-04-28T13:47:46.000Z</time>
        <extensions>
          <ns3:TrackPointExtension>
            <ns3:hr>131</ns3:hr>
            <ns3:cad>63</ns3:cad>
          </ns3:TrackPointExtension>
        </extensions>
      </trkpt>
      <trkpt lat="37.08320737816393375396728515625" lon="-8.91411504708230495452880859375">
        <ele>82</ele>
        <time>2026-04-28T13:47:54.000Z</time>
        <extensions>
          <ns3:TrackPointExtension>
            <ns3:hr>130</ns3:hr>
            <ns3:cad>62</ns3:cad>
          </ns3:TrackPointExtension>
        </extensions>
      </trkpt>
      <trkpt lat="37.08323101513087749481201171875" lon="-8.914050422608852386474609375">
        <ele>81.59999847412109375</ele>
        <time>2026-04-28T13:47:58.000Z</time>
        <extensions>
          <ns3:TrackPointExtension>
            <ns3:hr>131</ns3:hr>
            <ns3:cad>62</ns3:cad>
          </ns3:TrackPointExtension>
        </extensions>
      </trkpt>
      <trkpt lat="37.08328910171985626220703125" lon="-8.9138943515717983245849609375">
        <ele>81.1999969482421875</ele>
        <time>2026-04-28T13:48:08.000Z</time>
        <extensions>
          <ns3:TrackPointExtension>
            <ns3:hr>128</ns3:hr>
            <ns3:cad>62</ns3:cad>
          </ns3:TrackPointExtension>
        </extensions>
      </trkpt>
      <trkpt lat="37.08329454995691776275634765625" lon="-8.91387783922255039215087890625">
        <ele>81</ele>
        <time>2026-04-28T13:48:09.000Z</time>
        <extensions>
          <ns3:TrackPointExtension>
            <ns3:hr>128</ns3:hr>
            <ns3:cad>62</ns3:cad>
          </ns3:TrackPointExtension>
        </extensions>
      </trkpt>
      <trkpt lat="37.08329991437494754791259765625" lon="-8.91386275179684162139892578125">
        <ele>81</ele>
        <time>2026-04-28T13:48:10.000Z</time>
        <extensions>
          <ns3:TrackPointExtension>
            <ns3:hr>128</ns3:hr>
            <ns3:cad>62</ns3:cad>
          </ns3:TrackPointExtension>
        </extensions>
      </trkpt>
      <trkpt lat="37.0833273231983184814453125" lon="-8.91373618505895137786865234375">
        <ele>79.59999847412109375</ele>
        <time>2026-04-28T13:48:18.000Z</time>
        <extensions>
          <ns3:TrackPointExtension>
            <ns3:hr>126</ns3:hr>
            <ns3:cad>62</ns3:cad>
          </ns3:TrackPointExtension>
        </extensions>
      </trkpt>
      <trkpt lat="37.08335154689848423004150390625" lon="-8.91367181204259395599365234375">
        <ele>79.1999969482421875</ele>
        <time>2026-04-28T13:48:22.000Z</time>
        <extensions>
          <ns3:TrackPointExtension>
            <ns3:hr>126</ns3:hr>
            <ns3:cad>62</ns3:cad>
          </ns3:TrackPointExtension>
        </extensions>
      </trkpt>
      <trkpt lat="37.08338029682636260986328125" lon="-8.9135071076452732086181640625">
        <ele>79.1999969482421875</ele>
        <time>2026-04-28T13:48:32.000Z</time>
        <extensions>
          <ns3:TrackPointExtension>
            <ns3:hr>124</ns3:hr>
            <ns3:cad>60</ns3:cad>
          </ns3:TrackPointExtension>
        </extensions>
      </trkpt>
      <trkpt lat="37.08339362405240535736083984375" lon="-8.9134351909160614013671875">
        <ele>78.40000152587890625</ele>
        <time>2026-04-28T13:48:36.000Z</time>
        <extensions>
          <ns3:TrackPointExtension>
            <ns3:hr>124</ns3:hr>
            <ns3:cad>62</ns3:cad>
          </ns3:TrackPointExtension>
        </extensions>
      </trkpt>
      <trkpt lat="37.08341591991484165191650390625" lon="-8.9133505336940288543701171875">
        <ele>78.1999969482421875</ele>
        <time>2026-04-28T13:48:42.000Z</time>
        <extensions>
          <ns3:TrackPointExtension>
            <ns3:hr>126</ns3:hr>
            <ns3:cad>61</ns3:cad>
          </ns3:TrackPointExtension>
        </extensions>
      </trkpt>
      <trkpt lat="37.08342564292252063751220703125" lon="-8.9133062772452831268310546875">
        <ele>78.40000152587890625</ele>
        <time>2026-04-28T13:48:45.000Z</time>
        <extensions>
          <ns3:TrackPointExtension>
            <ns3:hr>129</ns3:hr>
            <ns3:cad>57</ns3:cad>
          </ns3:TrackPointExtension>
        </extensions>
      </trkpt>
      <trkpt lat="37.083437629044055938720703125" lon="-8.913238048553466796875">
        <ele>78.40000152587890625</ele>
        <time>2026-04-28T13:48:50.000Z</time>
        <extensions>
          <ns3:TrackPointExtension>
            <ns3:hr>129</ns3:hr>
            <ns3:cad>57</ns3:cad>
          </ns3:TrackPointExtension>
        </extensions>
      </trkpt>
      <trkpt lat="37.083478532731533050537109375" lon="-8.91312899999320507049560546875">
        <ele>77.59999847412109375</ele>
        <time>2026-04-28T13:48:57.000Z</time>
        <extensions>
          <ns3:TrackPointExtension>
            <ns3:hr>129</ns3:hr>
            <ns3:cad>60</ns3:cad>
          </ns3:TrackPointExtension>
        </extensions>
      </trkpt>
      <trkpt lat="37.0834840647876262664794921875" lon="-8.91311307437717914581298828125">
        <ele>77.40000152587890625</ele>
        <time>2026-04-28T13:48:58.000Z</time>
        <extensions>
          <ns3:TrackPointExtension>
            <ns3:hr>129</ns3:hr>
            <ns3:cad>60</ns3:cad>
          </ns3:TrackPointExtension>
        </extensions>
      </trkpt>
      <trkpt lat="37.08349957130849361419677734375" lon="-8.91303353011608123779296875">
        <ele>76.8000030517578125</ele>
        <time>2026-04-28T13:49:04.000Z</time>
        <extensions>
          <ns3:TrackPointExtension>
            <ns3:hr>130</ns3:hr>
            <ns3:cad>57</ns3:cad>
          </ns3:TrackPointExtension>
        </extensions>
      </trkpt>
      <trkpt lat="37.08350501954555511474609375" lon="-8.913001008331775665283203125">
        <ele>76.1999969482421875</ele>
        <time>2026-04-28T13:49:06.000Z</time>
        <extensions>
          <ns3:TrackPointExtension>
            <ns3:hr>129</ns3:hr>
            <ns3:cad>59</ns3:cad>
          </ns3:TrackPointExtension>
        </extensions>
      </trkpt>
      <trkpt lat="37.08352237008512020111083984375" lon="-8.912870250642299652099609375">
        <ele>75.8000030517578125</ele>
        <time>2026-04-28T13:49:14.000Z</time>
        <extensions>
          <ns3:TrackPointExtension>
            <ns3:hr>129</ns3:hr>
            <ns3:cad>57</ns3:cad>
          </ns3:TrackPointExtension>
        </extensions>
      </trkpt>
      <trkpt lat="37.083520106971263885498046875" lon="-8.91279707662761211395263671875">
        <ele>75.1999969482421875</ele>
        <time>2026-04-28T13:49:19.000Z</time>
        <extensions>
          <ns3:TrackPointExtension>
            <ns3:hr>127</ns3:hr>
            <ns3:cad>57</ns3:cad>
          </ns3:TrackPointExtension>
        </extensions>
      </trkpt>
      <trkpt lat="37.083517424762248992919921875" lon="-8.9127524010837078094482421875">
        <ele>74.8000030517578125</ele>
        <time>2026-04-28T13:49:22.000Z</time>
        <extensions>
          <ns3:TrackPointExtension>
            <ns3:hr>124</ns3:hr>
            <ns3:cad>57</ns3:cad>
          </ns3:TrackPointExtension>
        </extensions>
      </trkpt>
      <trkpt lat="37.08351214416325092315673828125" lon="-8.91270630061626434326171875">
        <ele>75</ele>
        <time>2026-04-28T13:49:25.000Z</time>
        <extensions>
          <ns3:TrackPointExtension>
            <ns3:hr>123</ns3:hr>
            <ns3:cad>57</ns3:cad>
          </ns3:TrackPointExtension>
        </extensions>
      </trkpt>
      <trkpt lat="37.083474509418010711669921875" lon="-8.912626840174198150634765625">
        <ele>75.1999969482421875</ele>
        <time>2026-04-28T13:49:32.000Z</time>
        <extensions>
          <ns3:TrackPointExtension>
            <ns3:hr>121</ns3:hr>
            <ns3:cad>56</ns3:cad>
          </ns3:TrackPointExtension>
        </extensions>
      </trkpt>
      <trkpt lat="37.08344525657594203948974609375" lon="-8.9124985970556735992431640625">
        <ele>74.59999847412109375</ele>
        <time>2026-04-28T13:49:50.000Z</time>
        <extensions>
          <ns3:TrackPointExtension>
            <ns3:hr>120</ns3:hr>
            <ns3:cad>0</ns3:cad>
          </ns3:TrackPointExtension>
        </extensions>
      </trkpt>
      <trkpt lat="37.08344190381467342376708984375" lon="-8.91248996369540691375732421875">
        <ele>74.40000152587890625</ele>
        <time>2026-04-28T13:49:51.000Z</time>
        <extensions>
          <ns3:TrackPointExtension>
            <ns3:hr>120</ns3:hr>
            <ns3:cad>0</ns3:cad>
          </ns3:TrackPointExtension>
        </extensions>
      </trkpt>
      <trkpt lat="37.08340737037360668182373046875" lon="-8.9124151133000850677490234375">
        <ele>74.1999969482421875</ele>
        <time>2026-04-28T13:49:57.000Z</time>
        <extensions>
          <ns3:TrackPointExtension>
            <ns3:hr>121</ns3:hr>
            <ns3:cad>59</ns3:cad>
          </ns3:TrackPointExtension>
        </extensions>
      </trkpt>
      <trkpt lat="37.0833881758153438568115234375" lon="-8.91237932257354259490966796875">
        <ele>74.1999969482421875</ele>
        <time>2026-04-28T13:50:00.000Z</time>
        <extensions>
          <ns3:TrackPointExtension>
            <ns3:hr>120</ns3:hr>
            <ns3:cad>59</ns3:cad>
          </ns3:TrackPointExtension>
        </extensions>
      </trkpt>
      <trkpt lat="37.08330745808780193328857421875" lon="-8.91228393651545047760009765625">
        <ele>74</ele>
        <time>2026-04-28T13:50:09.000Z</time>
        <extensions>
          <ns3:TrackPointExtension>
            <ns3:hr>120</ns3:hr>
            <ns3:cad>59</ns3:cad>
          </ns3:TrackPointExtension>
        </extensions>
      </trkpt>
      <trkpt lat="37.0832495391368865966796875" lon="-8.91224269755184650421142578125">
        <ele>74</ele>
        <time>2026-04-28T13:50:14.000Z</time>
        <extensions>
          <ns3:TrackPointExtension>
            <ns3:hr>117</ns3:hr>
            <ns3:cad>59</ns3:cad>
          </ns3:TrackPointExtension>
        </extensions>
      </trkpt>
      <trkpt lat="37.08318575285375118255615234375" lon="-8.91220950521528720855712890625">
        <ele>74</ele>
        <time>2026-04-28T13:50:20.000Z</time>
        <extensions>
          <ns3:TrackPointExtension>
            <ns3:hr>120</ns3:hr>
            <ns3:cad>58</ns3:cad>
          </ns3:TrackPointExtension>
        </extensions>
      </trkpt>
      <trkpt lat="37.08317401818931102752685546875" lon="-8.91220229677855968475341796875">
        <ele>74.1999969482421875</ele>
        <time>2026-04-28T13:50:21.000Z</time>
        <extensions>
          <ns3:TrackPointExtension>
            <ns3:hr>121</ns3:hr>
            <ns3:cad>58</ns3:cad>
          </ns3:TrackPointExtension>
        </extensions>
      </trkpt>
      <trkpt lat="37.08301962353289127349853515625" lon="-8.91214974224567413330078125">
        <ele>74.40000152587890625</ele>
        <time>2026-04-28T13:50:33.000Z</time>
        <extensions>
          <ns3:TrackPointExtension>
            <ns3:hr>124</ns3:hr>
            <ns3:cad>59</ns3:cad>
          </ns3:TrackPointExtension>
        </extensions>
      </trkpt>
      <trkpt lat="37.0828845910727977752685546875" lon="-8.9121262729167938232421875">
        <ele>74.1999969482421875</ele>
        <time>2026-04-28T13:50:45.000Z</time>
        <extensions>
          <ns3:TrackPointExtension>
            <ns3:hr>126</ns3:hr>
            <ns3:cad>58</ns3:cad>
          </ns3:TrackPointExtension>
        </extensions>
      </trkpt>
      <trkpt lat="37.0828094892203807830810546875" lon="-8.9121106825768947601318359375">
        <ele>74</ele>
        <time>2026-04-28T13:50:51.000Z</time>
        <extensions>
          <ns3:TrackPointExtension>
            <ns3:hr>126</ns3:hr>
            <ns3:cad>55</ns3:cad>
          </ns3:TrackPointExtension>
        </extensions>
      </trkpt>
    </trkseg>
  </trk>
</gpx>
